<?xml version="1.0" encoding="UTF-8" standalone="no" ?>
<gpx xmlns="http://www.topografix.com/GPX/1/1" xmlns:xsi="http://www.w3.org/2001/XMLSchema-instance" xsi:schemaLocation="http://www.topografix.com/GPX/1/1 http://www.topografix.com/GPX/1/1/gpx.xsd" version="1.1" creator="VisuGPX - https://www.visugpx.com">
  <metadata>
    <name>Port-Louis</name>
  </metadata>
  <trk>
    <name><![CDATA[Port-Louis]]></name>
    <extensions>
      <line xmlns="http://www.topografix.com/GPX/gpx_style/0/2">
        <color>2b00ff</color>
        <width>4</width>
      </line>
    </extensions>
    <trkseg>
      <trkpt lat="47.76832" lon="-3.37119">
        <ele>7.8</ele>
        <time>2020-08-21T08:40:07.000Z</time>
      </trkpt>
      <trkpt lat="47.76831" lon="-3.37118">
        <ele>7.8</ele>
        <time>2020-08-21T08:40:08.000Z</time>
      </trkpt>
      <trkpt lat="47.76831" lon="-3.37117">
        <ele>7.8</ele>
        <time>2020-08-21T08:40:09.000Z</time>
      </trkpt>
      <trkpt lat="47.7683" lon="-3.37116">
        <ele>7.8</ele>
        <time>2020-08-21T08:40:10.000Z</time>
      </trkpt>
      <trkpt lat="47.7683" lon="-3.37115">
        <ele>7.9</ele>
        <time>2020-08-21T08:40:11.000Z</time>
      </trkpt>
      <trkpt lat="47.76829" lon="-3.37114">
        <ele>7.9</ele>
        <time>2020-08-21T08:40:12.000Z</time>
      </trkpt>
      <trkpt lat="47.76829" lon="-3.37113">
        <ele>7.9</ele>
        <time>2020-08-21T08:40:13.000Z</time>
      </trkpt>
      <trkpt lat="47.76828" lon="-3.37113">
        <ele>7.9</ele>
        <time>2020-08-21T08:40:14.000Z</time>
      </trkpt>
      <trkpt lat="47.76828" lon="-3.37112">
        <ele>7.9</ele>
        <time>2020-08-21T08:40:15.000Z</time>
      </trkpt>
      <trkpt lat="47.76827" lon="-3.37111">
        <ele>7.9</ele>
        <time>2020-08-21T08:40:16.000Z</time>
      </trkpt>
      <trkpt lat="47.76827" lon="-3.3711">
        <ele>7.9</ele>
        <time>2020-08-21T08:40:17.000Z</time>
      </trkpt>
      <trkpt lat="47.76826" lon="-3.37109">
        <ele>7.9</ele>
        <time>2020-08-21T08:40:18.000Z</time>
      </trkpt>
      <trkpt lat="47.76826" lon="-3.37109">
        <ele>7.9</ele>
        <time>2020-08-21T08:40:19.000Z</time>
      </trkpt>
      <trkpt lat="47.76825" lon="-3.37108">
        <ele>7.9</ele>
        <time>2020-08-21T08:40:20.000Z</time>
      </trkpt>
      <trkpt lat="47.76824" lon="-3.37107">
        <ele>7.9</ele>
        <time>2020-08-21T08:40:21.000Z</time>
      </trkpt>
      <trkpt lat="47.76824" lon="-3.37106">
        <ele>7.9</ele>
        <time>2020-08-21T08:40:22.000Z</time>
      </trkpt>
      <trkpt lat="47.76823" lon="-3.37105">
        <ele>7.9</ele>
        <time>2020-08-21T08:40:23.000Z</time>
      </trkpt>
      <trkpt lat="47.76822" lon="-3.37105">
        <ele>7.9</ele>
        <time>2020-08-21T08:40:24.000Z</time>
      </trkpt>
      <trkpt lat="47.76821" lon="-3.37104">
        <ele>8</ele>
        <time>2020-08-21T08:40:25.000Z</time>
      </trkpt>
      <trkpt lat="47.7682" lon="-3.37103">
        <ele>8</ele>
        <time>2020-08-21T08:40:26.000Z</time>
      </trkpt>
      <trkpt lat="47.76819" lon="-3.37102">
        <ele>8</ele>
        <time>2020-08-21T08:40:27.000Z</time>
      </trkpt>
      <trkpt lat="47.76818" lon="-3.37101">
        <ele>8.1</ele>
        <time>2020-08-21T08:40:28.000Z</time>
      </trkpt>
      <trkpt lat="47.76817" lon="-3.371">
        <ele>8.1</ele>
        <time>2020-08-21T08:40:29.000Z</time>
      </trkpt>
      <trkpt lat="47.76816" lon="-3.37099">
        <ele>8.1</ele>
        <time>2020-08-21T08:40:30.000Z</time>
      </trkpt>
      <trkpt lat="47.76815" lon="-3.37098">
        <ele>8.1</ele>
        <time>2020-08-21T08:40:31.000Z</time>
      </trkpt>
      <trkpt lat="47.76815" lon="-3.37097">
        <ele>8.1</ele>
        <time>2020-08-21T08:40:32.000Z</time>
      </trkpt>
      <trkpt lat="47.76814" lon="-3.37096">
        <ele>8.1</ele>
        <time>2020-08-21T08:40:33.000Z</time>
      </trkpt>
      <trkpt lat="47.76813" lon="-3.37095">
        <ele>8.1</ele>
        <time>2020-08-21T08:40:34.000Z</time>
      </trkpt>
      <trkpt lat="47.76813" lon="-3.37094">
        <ele>8.1</ele>
        <time>2020-08-21T08:40:35.000Z</time>
      </trkpt>
      <trkpt lat="47.76812" lon="-3.37094">
        <ele>8.1</ele>
        <time>2020-08-21T08:40:36.000Z</time>
      </trkpt>
      <trkpt lat="47.76811" lon="-3.37093">
        <ele>8.2</ele>
        <time>2020-08-21T08:40:37.000Z</time>
      </trkpt>
      <trkpt lat="47.7681" lon="-3.37093">
        <ele>8.2</ele>
        <time>2020-08-21T08:40:38.000Z</time>
      </trkpt>
      <trkpt lat="47.76809" lon="-3.37092">
        <ele>8.3</ele>
        <time>2020-08-21T08:40:39.000Z</time>
      </trkpt>
      <trkpt lat="47.76808" lon="-3.37092">
        <ele>8.4</ele>
        <time>2020-08-21T08:40:40.000Z</time>
      </trkpt>
      <trkpt lat="47.76807" lon="-3.37091">
        <ele>8.4</ele>
        <time>2020-08-21T08:40:41.000Z</time>
      </trkpt>
      <trkpt lat="47.76806" lon="-3.3709">
        <ele>8.4</ele>
        <time>2020-08-21T08:40:42.000Z</time>
      </trkpt>
      <trkpt lat="47.76805" lon="-3.37089">
        <ele>8.4</ele>
        <time>2020-08-21T08:40:43.000Z</time>
      </trkpt>
      <trkpt lat="47.76805" lon="-3.37087">
        <ele>8.3</ele>
        <time>2020-08-21T08:40:44.000Z</time>
      </trkpt>
      <trkpt lat="47.76804" lon="-3.37086">
        <ele>8.3</ele>
        <time>2020-08-21T08:40:45.000Z</time>
      </trkpt>
      <trkpt lat="47.76804" lon="-3.37085">
        <ele>8.2</ele>
        <time>2020-08-21T08:40:46.000Z</time>
      </trkpt>
      <trkpt lat="47.76804" lon="-3.37083">
        <ele>8.2</ele>
        <time>2020-08-21T08:40:47.000Z</time>
      </trkpt>
      <trkpt lat="47.76803" lon="-3.37082">
        <ele>8.1</ele>
        <time>2020-08-21T08:40:48.000Z</time>
      </trkpt>
      <trkpt lat="47.76803" lon="-3.37082">
        <ele>8.1</ele>
        <time>2020-08-21T08:40:49.000Z</time>
      </trkpt>
      <trkpt lat="47.76803" lon="-3.37081">
        <ele>8</ele>
        <time>2020-08-21T08:40:50.000Z</time>
      </trkpt>
      <trkpt lat="47.76803" lon="-3.3708">
        <ele>8</ele>
        <time>2020-08-21T08:40:51.000Z</time>
      </trkpt>
      <trkpt lat="47.76803" lon="-3.3708">
        <ele>8</ele>
        <time>2020-08-21T08:40:52.000Z</time>
      </trkpt>
      <trkpt lat="47.76803" lon="-3.37079">
        <ele>7.9</ele>
        <time>2020-08-21T08:40:53.000Z</time>
      </trkpt>
      <trkpt lat="47.76802" lon="-3.37078">
        <ele>7.9</ele>
        <time>2020-08-21T08:40:54.000Z</time>
      </trkpt>
      <trkpt lat="47.76801" lon="-3.37077">
        <ele>7.9</ele>
        <time>2020-08-21T08:40:55.000Z</time>
      </trkpt>
      <trkpt lat="47.768" lon="-3.37075">
        <ele>7.9</ele>
        <time>2020-08-21T08:40:56.000Z</time>
      </trkpt>
      <trkpt lat="47.76799" lon="-3.37074">
        <ele>7.9</ele>
        <time>2020-08-21T08:40:57.000Z</time>
      </trkpt>
      <trkpt lat="47.76799" lon="-3.37073">
        <ele>7.9</ele>
        <time>2020-08-21T08:40:58.000Z</time>
      </trkpt>
      <trkpt lat="47.76798" lon="-3.37072">
        <ele>7.9</ele>
        <time>2020-08-21T08:40:59.000Z</time>
      </trkpt>
      <trkpt lat="47.76797" lon="-3.37071">
        <ele>7.9</ele>
        <time>2020-08-21T08:41:00.000Z</time>
      </trkpt>
      <trkpt lat="47.76796" lon="-3.3707">
        <ele>7.9</ele>
        <time>2020-08-21T08:41:01.000Z</time>
      </trkpt>
      <trkpt lat="47.76795" lon="-3.37068">
        <ele>7.9</ele>
        <time>2020-08-21T08:41:02.000Z</time>
      </trkpt>
      <trkpt lat="47.76794" lon="-3.37067">
        <ele>7.9</ele>
        <time>2020-08-21T08:41:03.000Z</time>
      </trkpt>
      <trkpt lat="47.76794" lon="-3.37066">
        <ele>7.9</ele>
        <time>2020-08-21T08:41:04.000Z</time>
      </trkpt>
      <trkpt lat="47.76793" lon="-3.37065">
        <ele>7.9</ele>
        <time>2020-08-21T08:41:05.000Z</time>
      </trkpt>
      <trkpt lat="47.76792" lon="-3.37064">
        <ele>7.9</ele>
        <time>2020-08-21T08:41:06.000Z</time>
      </trkpt>
      <trkpt lat="47.76791" lon="-3.37062">
        <ele>7.9</ele>
        <time>2020-08-21T08:41:07.000Z</time>
      </trkpt>
      <trkpt lat="47.76791" lon="-3.37061">
        <ele>7.9</ele>
        <time>2020-08-21T08:41:08.000Z</time>
      </trkpt>
      <trkpt lat="47.7679" lon="-3.37059">
        <ele>7.9</ele>
        <time>2020-08-21T08:41:09.000Z</time>
      </trkpt>
      <trkpt lat="47.76789" lon="-3.37058">
        <ele>7.8</ele>
        <time>2020-08-21T08:41:10.000Z</time>
      </trkpt>
      <trkpt lat="47.76789" lon="-3.37056">
        <ele>7.8</ele>
        <time>2020-08-21T08:41:11.000Z</time>
      </trkpt>
      <trkpt lat="47.76788" lon="-3.37055">
        <ele>7.8</ele>
        <time>2020-08-21T08:41:12.000Z</time>
      </trkpt>
      <trkpt lat="47.76787" lon="-3.37053">
        <ele>7.8</ele>
        <time>2020-08-21T08:41:13.000Z</time>
      </trkpt>
      <trkpt lat="47.76786" lon="-3.37051">
        <ele>7.7</ele>
        <time>2020-08-21T08:41:14.000Z</time>
      </trkpt>
      <trkpt lat="47.76786" lon="-3.3705">
        <ele>7.7</ele>
        <time>2020-08-21T08:41:15.000Z</time>
      </trkpt>
      <trkpt lat="47.76785" lon="-3.37048">
        <ele>7.7</ele>
        <time>2020-08-21T08:41:16.000Z</time>
      </trkpt>
      <trkpt lat="47.76784" lon="-3.37046">
        <ele>7.7</ele>
        <time>2020-08-21T08:41:17.000Z</time>
      </trkpt>
      <trkpt lat="47.76783" lon="-3.37044">
        <ele>7.6</ele>
        <time>2020-08-21T08:41:18.000Z</time>
      </trkpt>
      <trkpt lat="47.76783" lon="-3.37043">
        <ele>7.6</ele>
        <time>2020-08-21T08:41:19.000Z</time>
      </trkpt>
      <trkpt lat="47.76782" lon="-3.37041">
        <ele>7.6</ele>
        <time>2020-08-21T08:41:20.000Z</time>
      </trkpt>
      <trkpt lat="47.76781" lon="-3.37039">
        <ele>7.6</ele>
        <time>2020-08-21T08:41:21.000Z</time>
      </trkpt>
      <trkpt lat="47.76781" lon="-3.37038">
        <ele>7.6</ele>
        <time>2020-08-21T08:41:22.000Z</time>
      </trkpt>
      <trkpt lat="47.7678" lon="-3.37036">
        <ele>7.5</ele>
        <time>2020-08-21T08:41:23.000Z</time>
      </trkpt>
      <trkpt lat="47.76779" lon="-3.37034">
        <ele>7.5</ele>
        <time>2020-08-21T08:41:24.000Z</time>
      </trkpt>
      <trkpt lat="47.76778" lon="-3.37033">
        <ele>7.5</ele>
        <time>2020-08-21T08:41:25.000Z</time>
      </trkpt>
      <trkpt lat="47.76777" lon="-3.37031">
        <ele>7.6</ele>
        <time>2020-08-21T08:41:26.000Z</time>
      </trkpt>
      <trkpt lat="47.76776" lon="-3.3703">
        <ele>7.6</ele>
        <time>2020-08-21T08:41:27.000Z</time>
      </trkpt>
      <trkpt lat="47.76776" lon="-3.37029">
        <ele>7.6</ele>
        <time>2020-08-21T08:41:28.000Z</time>
      </trkpt>
      <trkpt lat="47.76775" lon="-3.37027">
        <ele>7.6</ele>
        <time>2020-08-21T08:41:29.000Z</time>
      </trkpt>
      <trkpt lat="47.76774" lon="-3.37026">
        <ele>7.6</ele>
        <time>2020-08-21T08:41:30.000Z</time>
      </trkpt>
      <trkpt lat="47.76773" lon="-3.37024">
        <ele>7.7</ele>
        <time>2020-08-21T08:41:31.000Z</time>
      </trkpt>
      <trkpt lat="47.76772" lon="-3.37023">
        <ele>7.7</ele>
        <time>2020-08-21T08:41:32.000Z</time>
      </trkpt>
      <trkpt lat="47.76771" lon="-3.37021">
        <ele>7.7</ele>
        <time>2020-08-21T08:41:33.000Z</time>
      </trkpt>
      <trkpt lat="47.7677" lon="-3.37019">
        <ele>7.7</ele>
        <time>2020-08-21T08:41:34.000Z</time>
      </trkpt>
      <trkpt lat="47.76769" lon="-3.37017">
        <ele>7.7</ele>
        <time>2020-08-21T08:41:35.000Z</time>
      </trkpt>
      <trkpt lat="47.76768" lon="-3.37015">
        <ele>7.7</ele>
        <time>2020-08-21T08:41:36.000Z</time>
      </trkpt>
      <trkpt lat="47.76767" lon="-3.37013">
        <ele>7.8</ele>
        <time>2020-08-21T08:41:37.000Z</time>
      </trkpt>
      <trkpt lat="47.76766" lon="-3.37011">
        <ele>7.8</ele>
        <time>2020-08-21T08:41:38.000Z</time>
      </trkpt>
      <trkpt lat="47.76765" lon="-3.3701">
        <ele>7.8</ele>
        <time>2020-08-21T08:41:39.000Z</time>
      </trkpt>
      <trkpt lat="47.76764" lon="-3.37008">
        <ele>7.8</ele>
        <time>2020-08-21T08:41:40.000Z</time>
      </trkpt>
      <trkpt lat="47.76763" lon="-3.37007">
        <ele>7.8</ele>
        <time>2020-08-21T08:41:41.000Z</time>
      </trkpt>
      <trkpt lat="47.76763" lon="-3.37005">
        <ele>7.9</ele>
        <time>2020-08-21T08:41:42.000Z</time>
      </trkpt>
      <trkpt lat="47.76762" lon="-3.37004">
        <ele>7.9</ele>
        <time>2020-08-21T08:41:43.000Z</time>
      </trkpt>
      <trkpt lat="47.76761" lon="-3.37003">
        <ele>7.9</ele>
        <time>2020-08-21T08:41:44.000Z</time>
      </trkpt>
      <trkpt lat="47.76761" lon="-3.37001">
        <ele>7.9</ele>
        <time>2020-08-21T08:41:45.000Z</time>
      </trkpt>
      <trkpt lat="47.7676" lon="-3.37">
        <ele>7.9</ele>
        <time>2020-08-21T08:41:46.000Z</time>
      </trkpt>
      <trkpt lat="47.76759" lon="-3.36998">
        <ele>7.8</ele>
        <time>2020-08-21T08:41:47.000Z</time>
      </trkpt>
      <trkpt lat="47.76759" lon="-3.36997">
        <ele>7.7</ele>
        <time>2020-08-21T08:41:48.000Z</time>
      </trkpt>
      <trkpt lat="47.76758" lon="-3.36995">
        <ele>7.6</ele>
        <time>2020-08-21T08:41:49.000Z</time>
      </trkpt>
      <trkpt lat="47.76758" lon="-3.36994">
        <ele>7.5</ele>
        <time>2020-08-21T08:41:50.000Z</time>
      </trkpt>
      <trkpt lat="47.76757" lon="-3.36992">
        <ele>7.4</ele>
        <time>2020-08-21T08:41:51.000Z</time>
      </trkpt>
      <trkpt lat="47.76757" lon="-3.3699">
        <ele>7.3</ele>
        <time>2020-08-21T08:41:52.000Z</time>
      </trkpt>
      <trkpt lat="47.76756" lon="-3.36988">
        <ele>7.1</ele>
        <time>2020-08-21T08:41:53.000Z</time>
      </trkpt>
      <trkpt lat="47.76756" lon="-3.36986">
        <ele>7</ele>
        <time>2020-08-21T08:41:54.000Z</time>
      </trkpt>
      <trkpt lat="47.76755" lon="-3.36984">
        <ele>6.9</ele>
        <time>2020-08-21T08:41:55.000Z</time>
      </trkpt>
      <trkpt lat="47.76754" lon="-3.36983">
        <ele>6.7</ele>
        <time>2020-08-21T08:41:56.000Z</time>
      </trkpt>
      <trkpt lat="47.76754" lon="-3.36981">
        <ele>6.6</ele>
        <time>2020-08-21T08:41:57.000Z</time>
      </trkpt>
      <trkpt lat="47.76753" lon="-3.36979">
        <ele>6.5</ele>
        <time>2020-08-21T08:41:58.000Z</time>
      </trkpt>
      <trkpt lat="47.76752" lon="-3.36977">
        <ele>6.4</ele>
        <time>2020-08-21T08:41:59.000Z</time>
      </trkpt>
      <trkpt lat="47.76751" lon="-3.36976">
        <ele>6.3</ele>
        <time>2020-08-21T08:42:00.000Z</time>
      </trkpt>
      <trkpt lat="47.7675" lon="-3.36974">
        <ele>6.1</ele>
        <time>2020-08-21T08:42:01.000Z</time>
      </trkpt>
      <trkpt lat="47.7675" lon="-3.36972">
        <ele>6</ele>
        <time>2020-08-21T08:42:02.000Z</time>
      </trkpt>
      <trkpt lat="47.76749" lon="-3.3697">
        <ele>5.9</ele>
        <time>2020-08-21T08:42:03.000Z</time>
      </trkpt>
      <trkpt lat="47.76748" lon="-3.36969">
        <ele>5.7</ele>
        <time>2020-08-21T08:42:04.000Z</time>
      </trkpt>
      <trkpt lat="47.76748" lon="-3.36967">
        <ele>5.6</ele>
        <time>2020-08-21T08:42:05.000Z</time>
      </trkpt>
      <trkpt lat="47.76747" lon="-3.36965">
        <ele>5.5</ele>
        <time>2020-08-21T08:42:06.000Z</time>
      </trkpt>
      <trkpt lat="47.76746" lon="-3.36964">
        <ele>5.4</ele>
        <time>2020-08-21T08:42:07.000Z</time>
      </trkpt>
      <trkpt lat="47.76746" lon="-3.36962">
        <ele>5.2</ele>
        <time>2020-08-21T08:42:08.000Z</time>
      </trkpt>
      <trkpt lat="47.76745" lon="-3.36961">
        <ele>5.1</ele>
        <time>2020-08-21T08:42:09.000Z</time>
      </trkpt>
      <trkpt lat="47.76745" lon="-3.36959">
        <ele>5</ele>
        <time>2020-08-21T08:42:10.000Z</time>
      </trkpt>
      <trkpt lat="47.76744" lon="-3.36957">
        <ele>4.9</ele>
        <time>2020-08-21T08:42:11.000Z</time>
      </trkpt>
      <trkpt lat="47.76744" lon="-3.36956">
        <ele>4.8</ele>
        <time>2020-08-21T08:42:12.000Z</time>
      </trkpt>
      <trkpt lat="47.76743" lon="-3.36955">
        <ele>4.7</ele>
        <time>2020-08-21T08:42:13.000Z</time>
      </trkpt>
      <trkpt lat="47.76742" lon="-3.36953">
        <ele>4.6</ele>
        <time>2020-08-21T08:42:14.000Z</time>
      </trkpt>
      <trkpt lat="47.76742" lon="-3.36952">
        <ele>4.6</ele>
        <time>2020-08-21T08:42:15.000Z</time>
      </trkpt>
      <trkpt lat="47.76741" lon="-3.3695">
        <ele>4.5</ele>
        <time>2020-08-21T08:42:16.000Z</time>
      </trkpt>
      <trkpt lat="47.7674" lon="-3.36949">
        <ele>4.4</ele>
        <time>2020-08-21T08:42:17.000Z</time>
      </trkpt>
      <trkpt lat="47.76739" lon="-3.36948">
        <ele>4.4</ele>
        <time>2020-08-21T08:42:18.000Z</time>
      </trkpt>
      <trkpt lat="47.76739" lon="-3.36946">
        <ele>4.3</ele>
        <time>2020-08-21T08:42:19.000Z</time>
      </trkpt>
      <trkpt lat="47.76738" lon="-3.36945">
        <ele>4.3</ele>
        <time>2020-08-21T08:42:20.000Z</time>
      </trkpt>
      <trkpt lat="47.76737" lon="-3.36943">
        <ele>4.2</ele>
        <time>2020-08-21T08:42:21.000Z</time>
      </trkpt>
      <trkpt lat="47.76736" lon="-3.36942">
        <ele>4.2</ele>
        <time>2020-08-21T08:42:22.000Z</time>
      </trkpt>
      <trkpt lat="47.76735" lon="-3.36941">
        <ele>4.1</ele>
        <time>2020-08-21T08:42:23.000Z</time>
      </trkpt>
      <trkpt lat="47.76735" lon="-3.36939">
        <ele>4.1</ele>
        <time>2020-08-21T08:42:24.000Z</time>
      </trkpt>
      <trkpt lat="47.76734" lon="-3.36937">
        <ele>4</ele>
        <time>2020-08-21T08:42:25.000Z</time>
      </trkpt>
      <trkpt lat="47.76733" lon="-3.36936">
        <ele>4</ele>
        <time>2020-08-21T08:42:26.000Z</time>
      </trkpt>
      <trkpt lat="47.76732" lon="-3.36934">
        <ele>3.9</ele>
        <time>2020-08-21T08:42:27.000Z</time>
      </trkpt>
      <trkpt lat="47.76731" lon="-3.36933">
        <ele>3.9</ele>
        <time>2020-08-21T08:42:28.000Z</time>
      </trkpt>
      <trkpt lat="47.7673" lon="-3.36931">
        <ele>3.8</ele>
        <time>2020-08-21T08:42:29.000Z</time>
      </trkpt>
      <trkpt lat="47.76729" lon="-3.36929">
        <ele>3.8</ele>
        <time>2020-08-21T08:42:30.000Z</time>
      </trkpt>
      <trkpt lat="47.76729" lon="-3.36928">
        <ele>3.7</ele>
        <time>2020-08-21T08:42:31.000Z</time>
      </trkpt>
      <trkpt lat="47.76728" lon="-3.36926">
        <ele>3.7</ele>
        <time>2020-08-21T08:42:32.000Z</time>
      </trkpt>
      <trkpt lat="47.76727" lon="-3.36924">
        <ele>3.6</ele>
        <time>2020-08-21T08:42:33.000Z</time>
      </trkpt>
      <trkpt lat="47.76727" lon="-3.36923">
        <ele>3.6</ele>
        <time>2020-08-21T08:42:34.000Z</time>
      </trkpt>
      <trkpt lat="47.76726" lon="-3.36921">
        <ele>3.5</ele>
        <time>2020-08-21T08:42:35.000Z</time>
      </trkpt>
      <trkpt lat="47.76725" lon="-3.3692">
        <ele>3.5</ele>
        <time>2020-08-21T08:42:36.000Z</time>
      </trkpt>
      <trkpt lat="47.76725" lon="-3.36918">
        <ele>3.4</ele>
        <time>2020-08-21T08:42:37.000Z</time>
      </trkpt>
      <trkpt lat="47.76724" lon="-3.36916">
        <ele>3.4</ele>
        <time>2020-08-21T08:42:38.000Z</time>
      </trkpt>
      <trkpt lat="47.76724" lon="-3.36915">
        <ele>3.4</ele>
        <time>2020-08-21T08:42:39.000Z</time>
      </trkpt>
      <trkpt lat="47.76723" lon="-3.36913">
        <ele>3.5</ele>
        <time>2020-08-21T08:42:40.000Z</time>
      </trkpt>
      <trkpt lat="47.76723" lon="-3.36912">
        <ele>3.5</ele>
        <time>2020-08-21T08:42:41.000Z</time>
      </trkpt>
      <trkpt lat="47.76722" lon="-3.3691">
        <ele>3.5</ele>
        <time>2020-08-21T08:42:42.000Z</time>
      </trkpt>
      <trkpt lat="47.76722" lon="-3.36909">
        <ele>3.5</ele>
        <time>2020-08-21T08:42:43.000Z</time>
      </trkpt>
      <trkpt lat="47.76721" lon="-3.36907">
        <ele>3.6</ele>
        <time>2020-08-21T08:42:44.000Z</time>
      </trkpt>
      <trkpt lat="47.76721" lon="-3.36906">
        <ele>3.6</ele>
        <time>2020-08-21T08:42:45.000Z</time>
      </trkpt>
      <trkpt lat="47.76721" lon="-3.36904">
        <ele>3.6</ele>
        <time>2020-08-21T08:42:46.000Z</time>
      </trkpt>
      <trkpt lat="47.7672" lon="-3.36903">
        <ele>3.6</ele>
        <time>2020-08-21T08:42:47.000Z</time>
      </trkpt>
      <trkpt lat="47.7672" lon="-3.36901">
        <ele>3.7</ele>
        <time>2020-08-21T08:42:48.000Z</time>
      </trkpt>
      <trkpt lat="47.76719" lon="-3.369">
        <ele>3.7</ele>
        <time>2020-08-21T08:42:49.000Z</time>
      </trkpt>
      <trkpt lat="47.76719" lon="-3.36898">
        <ele>3.7</ele>
        <time>2020-08-21T08:42:50.000Z</time>
      </trkpt>
      <trkpt lat="47.76718" lon="-3.36897">
        <ele>3.7</ele>
        <time>2020-08-21T08:42:51.000Z</time>
      </trkpt>
      <trkpt lat="47.76718" lon="-3.36895">
        <ele>3.7</ele>
        <time>2020-08-21T08:42:52.000Z</time>
      </trkpt>
      <trkpt lat="47.76717" lon="-3.36894">
        <ele>3.8</ele>
        <time>2020-08-21T08:42:53.000Z</time>
      </trkpt>
      <trkpt lat="47.76717" lon="-3.36893">
        <ele>3.8</ele>
        <time>2020-08-21T08:42:54.000Z</time>
      </trkpt>
      <trkpt lat="47.76716" lon="-3.36891">
        <ele>3.8</ele>
        <time>2020-08-21T08:42:55.000Z</time>
      </trkpt>
      <trkpt lat="47.76716" lon="-3.3689">
        <ele>3.9</ele>
        <time>2020-08-21T08:42:56.000Z</time>
      </trkpt>
      <trkpt lat="47.76715" lon="-3.36888">
        <ele>3.9</ele>
        <time>2020-08-21T08:42:57.000Z</time>
      </trkpt>
      <trkpt lat="47.76714" lon="-3.36887">
        <ele>3.9</ele>
        <time>2020-08-21T08:42:58.000Z</time>
      </trkpt>
      <trkpt lat="47.76714" lon="-3.36885">
        <ele>4</ele>
        <time>2020-08-21T08:42:59.000Z</time>
      </trkpt>
      <trkpt lat="47.76713" lon="-3.36884">
        <ele>4</ele>
        <time>2020-08-21T08:43:00.000Z</time>
      </trkpt>
      <trkpt lat="47.76712" lon="-3.36882">
        <ele>4</ele>
        <time>2020-08-21T08:43:01.000Z</time>
      </trkpt>
      <trkpt lat="47.76712" lon="-3.36881">
        <ele>4.1</ele>
        <time>2020-08-21T08:43:02.000Z</time>
      </trkpt>
      <trkpt lat="47.76711" lon="-3.3688">
        <ele>4.1</ele>
        <time>2020-08-21T08:43:03.000Z</time>
      </trkpt>
      <trkpt lat="47.7671" lon="-3.36878">
        <ele>4.2</ele>
        <time>2020-08-21T08:43:04.000Z</time>
      </trkpt>
      <trkpt lat="47.76709" lon="-3.36877">
        <ele>4.2</ele>
        <time>2020-08-21T08:43:05.000Z</time>
      </trkpt>
      <trkpt lat="47.76709" lon="-3.36875">
        <ele>4.2</ele>
        <time>2020-08-21T08:43:06.000Z</time>
      </trkpt>
      <trkpt lat="47.76708" lon="-3.36874">
        <ele>4.3</ele>
        <time>2020-08-21T08:43:07.000Z</time>
      </trkpt>
      <trkpt lat="47.76707" lon="-3.36872">
        <ele>4.3</ele>
        <time>2020-08-21T08:43:08.000Z</time>
      </trkpt>
      <trkpt lat="47.76707" lon="-3.36871">
        <ele>4.3</ele>
        <time>2020-08-21T08:43:09.000Z</time>
      </trkpt>
      <trkpt lat="47.76706" lon="-3.36869">
        <ele>4.3</ele>
        <time>2020-08-21T08:43:10.000Z</time>
      </trkpt>
      <trkpt lat="47.76705" lon="-3.36868">
        <ele>4.3</ele>
        <time>2020-08-21T08:43:11.000Z</time>
      </trkpt>
      <trkpt lat="47.76704" lon="-3.36866">
        <ele>4.4</ele>
        <time>2020-08-21T08:43:12.000Z</time>
      </trkpt>
      <trkpt lat="47.76704" lon="-3.36865">
        <ele>4.4</ele>
        <time>2020-08-21T08:43:13.000Z</time>
      </trkpt>
      <trkpt lat="47.76703" lon="-3.36863">
        <ele>4.4</ele>
        <time>2020-08-21T08:43:14.000Z</time>
      </trkpt>
      <trkpt lat="47.76702" lon="-3.36862">
        <ele>4.4</ele>
        <time>2020-08-21T08:43:15.000Z</time>
      </trkpt>
      <trkpt lat="47.76702" lon="-3.3686">
        <ele>4.4</ele>
        <time>2020-08-21T08:43:16.000Z</time>
      </trkpt>
      <trkpt lat="47.76701" lon="-3.36859">
        <ele>4.4</ele>
        <time>2020-08-21T08:43:17.000Z</time>
      </trkpt>
      <trkpt lat="47.767" lon="-3.36857">
        <ele>4.4</ele>
        <time>2020-08-21T08:43:18.000Z</time>
      </trkpt>
      <trkpt lat="47.767" lon="-3.36855">
        <ele>4.4</ele>
        <time>2020-08-21T08:43:19.000Z</time>
      </trkpt>
      <trkpt lat="47.76699" lon="-3.36854">
        <ele>4.4</ele>
        <time>2020-08-21T08:43:20.000Z</time>
      </trkpt>
      <trkpt lat="47.76698" lon="-3.36852">
        <ele>4.4</ele>
        <time>2020-08-21T08:43:21.000Z</time>
      </trkpt>
      <trkpt lat="47.76697" lon="-3.36851">
        <ele>4.5</ele>
        <time>2020-08-21T08:43:22.000Z</time>
      </trkpt>
      <trkpt lat="47.76697" lon="-3.36849">
        <ele>4.5</ele>
        <time>2020-08-21T08:43:23.000Z</time>
      </trkpt>
      <trkpt lat="47.76696" lon="-3.36848">
        <ele>4.5</ele>
        <time>2020-08-21T08:43:24.000Z</time>
      </trkpt>
      <trkpt lat="47.76695" lon="-3.36846">
        <ele>4.5</ele>
        <time>2020-08-21T08:43:25.000Z</time>
      </trkpt>
      <trkpt lat="47.76694" lon="-3.36845">
        <ele>4.5</ele>
        <time>2020-08-21T08:43:26.000Z</time>
      </trkpt>
      <trkpt lat="47.76694" lon="-3.36843">
        <ele>4.5</ele>
        <time>2020-08-21T08:43:27.000Z</time>
      </trkpt>
      <trkpt lat="47.76693" lon="-3.36842">
        <ele>4.5</ele>
        <time>2020-08-21T08:43:28.000Z</time>
      </trkpt>
      <trkpt lat="47.76692" lon="-3.3684">
        <ele>4.5</ele>
        <time>2020-08-21T08:43:29.000Z</time>
      </trkpt>
      <trkpt lat="47.76691" lon="-3.36839">
        <ele>4.5</ele>
        <time>2020-08-21T08:43:30.000Z</time>
      </trkpt>
      <trkpt lat="47.7669" lon="-3.36837">
        <ele>4.5</ele>
        <time>2020-08-21T08:43:31.000Z</time>
      </trkpt>
      <trkpt lat="47.76689" lon="-3.36835">
        <ele>4.5</ele>
        <time>2020-08-21T08:43:32.000Z</time>
      </trkpt>
      <trkpt lat="47.76688" lon="-3.36834">
        <ele>4.5</ele>
        <time>2020-08-21T08:43:33.000Z</time>
      </trkpt>
      <trkpt lat="47.76688" lon="-3.36832">
        <ele>4.4</ele>
        <time>2020-08-21T08:43:34.000Z</time>
      </trkpt>
      <trkpt lat="47.76687" lon="-3.36831">
        <ele>4.4</ele>
        <time>2020-08-21T08:43:35.000Z</time>
      </trkpt>
      <trkpt lat="47.76686" lon="-3.3683">
        <ele>4.4</ele>
        <time>2020-08-21T08:43:36.000Z</time>
      </trkpt>
      <trkpt lat="47.76685" lon="-3.36828">
        <ele>4.4</ele>
        <time>2020-08-21T08:43:37.000Z</time>
      </trkpt>
      <trkpt lat="47.76684" lon="-3.36827">
        <ele>4.4</ele>
        <time>2020-08-21T08:43:38.000Z</time>
      </trkpt>
      <trkpt lat="47.76683" lon="-3.36825">
        <ele>4.3</ele>
        <time>2020-08-21T08:43:39.000Z</time>
      </trkpt>
      <trkpt lat="47.76682" lon="-3.36824">
        <ele>4.3</ele>
        <time>2020-08-21T08:43:40.000Z</time>
      </trkpt>
      <trkpt lat="47.76682" lon="-3.36822">
        <ele>4.3</ele>
        <time>2020-08-21T08:43:41.000Z</time>
      </trkpt>
      <trkpt lat="47.76681" lon="-3.36821">
        <ele>4.3</ele>
        <time>2020-08-21T08:43:42.000Z</time>
      </trkpt>
      <trkpt lat="47.7668" lon="-3.3682">
        <ele>4.2</ele>
        <time>2020-08-21T08:43:43.000Z</time>
      </trkpt>
      <trkpt lat="47.76679" lon="-3.36819">
        <ele>4.2</ele>
        <time>2020-08-21T08:43:44.000Z</time>
      </trkpt>
      <trkpt lat="47.76678" lon="-3.36817">
        <ele>4.2</ele>
        <time>2020-08-21T08:43:45.000Z</time>
      </trkpt>
      <trkpt lat="47.76678" lon="-3.36816">
        <ele>4.1</ele>
        <time>2020-08-21T08:43:46.000Z</time>
      </trkpt>
      <trkpt lat="47.76677" lon="-3.36815">
        <ele>4.1</ele>
        <time>2020-08-21T08:43:47.000Z</time>
      </trkpt>
      <trkpt lat="47.76676" lon="-3.36814">
        <ele>4.1</ele>
        <time>2020-08-21T08:43:48.000Z</time>
      </trkpt>
      <trkpt lat="47.76675" lon="-3.36813">
        <ele>4.1</ele>
        <time>2020-08-21T08:43:49.000Z</time>
      </trkpt>
      <trkpt lat="47.76674" lon="-3.36812">
        <ele>4</ele>
        <time>2020-08-21T08:43:50.000Z</time>
      </trkpt>
      <trkpt lat="47.76674" lon="-3.36811">
        <ele>4</ele>
        <time>2020-08-21T08:43:51.000Z</time>
      </trkpt>
      <trkpt lat="47.76673" lon="-3.3681">
        <ele>4</ele>
        <time>2020-08-21T08:43:52.000Z</time>
      </trkpt>
      <trkpt lat="47.76672" lon="-3.36809">
        <ele>4</ele>
        <time>2020-08-21T08:43:53.000Z</time>
      </trkpt>
      <trkpt lat="47.76671" lon="-3.36808">
        <ele>3.9</ele>
        <time>2020-08-21T08:43:54.000Z</time>
      </trkpt>
      <trkpt lat="47.7667" lon="-3.36807">
        <ele>3.9</ele>
        <time>2020-08-21T08:43:55.000Z</time>
      </trkpt>
      <trkpt lat="47.76669" lon="-3.36806">
        <ele>3.9</ele>
        <time>2020-08-21T08:43:56.000Z</time>
      </trkpt>
      <trkpt lat="47.76668" lon="-3.36805">
        <ele>3.9</ele>
        <time>2020-08-21T08:43:57.000Z</time>
      </trkpt>
      <trkpt lat="47.76667" lon="-3.36804">
        <ele>3.9</ele>
        <time>2020-08-21T08:43:58.000Z</time>
      </trkpt>
      <trkpt lat="47.76666" lon="-3.36803">
        <ele>3.9</ele>
        <time>2020-08-21T08:43:59.000Z</time>
      </trkpt>
      <trkpt lat="47.76665" lon="-3.36802">
        <ele>3.9</ele>
        <time>2020-08-21T08:44:00.000Z</time>
      </trkpt>
      <trkpt lat="47.76664" lon="-3.36802">
        <ele>3.8</ele>
        <time>2020-08-21T08:44:01.000Z</time>
      </trkpt>
      <trkpt lat="47.76663" lon="-3.36801">
        <ele>3.8</ele>
        <time>2020-08-21T08:44:02.000Z</time>
      </trkpt>
      <trkpt lat="47.76662" lon="-3.368">
        <ele>3.8</ele>
        <time>2020-08-21T08:44:03.000Z</time>
      </trkpt>
      <trkpt lat="47.76661" lon="-3.368">
        <ele>3.8</ele>
        <time>2020-08-21T08:44:04.000Z</time>
      </trkpt>
      <trkpt lat="47.7666" lon="-3.36799">
        <ele>3.8</ele>
        <time>2020-08-21T08:44:05.000Z</time>
      </trkpt>
      <trkpt lat="47.76659" lon="-3.36798">
        <ele>3.8</ele>
        <time>2020-08-21T08:44:06.000Z</time>
      </trkpt>
      <trkpt lat="47.76659" lon="-3.36797">
        <ele>3.8</ele>
        <time>2020-08-21T08:44:07.000Z</time>
      </trkpt>
      <trkpt lat="47.76658" lon="-3.36797">
        <ele>3.8</ele>
        <time>2020-08-21T08:44:08.000Z</time>
      </trkpt>
      <trkpt lat="47.76657" lon="-3.36796">
        <ele>3.8</ele>
        <time>2020-08-21T08:44:09.000Z</time>
      </trkpt>
      <trkpt lat="47.76656" lon="-3.36795">
        <ele>3.8</ele>
        <time>2020-08-21T08:44:10.000Z</time>
      </trkpt>
      <trkpt lat="47.76655" lon="-3.36795">
        <ele>3.7</ele>
        <time>2020-08-21T08:44:11.000Z</time>
      </trkpt>
      <trkpt lat="47.76654" lon="-3.36794">
        <ele>3.7</ele>
        <time>2020-08-21T08:44:12.000Z</time>
      </trkpt>
      <trkpt lat="47.76653" lon="-3.36793">
        <ele>3.7</ele>
        <time>2020-08-21T08:44:13.000Z</time>
      </trkpt>
      <trkpt lat="47.76652" lon="-3.36792">
        <ele>3.7</ele>
        <time>2020-08-21T08:44:14.000Z</time>
      </trkpt>
      <trkpt lat="47.76651" lon="-3.36791">
        <ele>3.7</ele>
        <time>2020-08-21T08:44:15.000Z</time>
      </trkpt>
      <trkpt lat="47.7665" lon="-3.3679">
        <ele>3.7</ele>
        <time>2020-08-21T08:44:16.000Z</time>
      </trkpt>
      <trkpt lat="47.76649" lon="-3.36789">
        <ele>3.7</ele>
        <time>2020-08-21T08:44:17.000Z</time>
      </trkpt>
      <trkpt lat="47.76648" lon="-3.36788">
        <ele>3.7</ele>
        <time>2020-08-21T08:44:18.000Z</time>
      </trkpt>
      <trkpt lat="47.76646" lon="-3.36786">
        <ele>3.6</ele>
        <time>2020-08-21T08:44:19.000Z</time>
      </trkpt>
      <trkpt lat="47.76645" lon="-3.36785">
        <ele>3.6</ele>
        <time>2020-08-21T08:44:20.000Z</time>
      </trkpt>
      <trkpt lat="47.76644" lon="-3.36784">
        <ele>3.6</ele>
        <time>2020-08-21T08:44:21.000Z</time>
      </trkpt>
      <trkpt lat="47.76643" lon="-3.36783">
        <ele>3.6</ele>
        <time>2020-08-21T08:44:22.000Z</time>
      </trkpt>
      <trkpt lat="47.76641" lon="-3.36782">
        <ele>3.7</ele>
        <time>2020-08-21T08:44:23.000Z</time>
      </trkpt>
      <trkpt lat="47.7664" lon="-3.36781">
        <ele>3.7</ele>
        <time>2020-08-21T08:44:24.000Z</time>
      </trkpt>
      <trkpt lat="47.76639" lon="-3.3678">
        <ele>3.7</ele>
        <time>2020-08-21T08:44:25.000Z</time>
      </trkpt>
      <trkpt lat="47.76638" lon="-3.36779">
        <ele>3.7</ele>
        <time>2020-08-21T08:44:26.000Z</time>
      </trkpt>
      <trkpt lat="47.76637" lon="-3.36778">
        <ele>3.7</ele>
        <time>2020-08-21T08:44:27.000Z</time>
      </trkpt>
      <trkpt lat="47.76635" lon="-3.36777">
        <ele>3.7</ele>
        <time>2020-08-21T08:44:28.000Z</time>
      </trkpt>
      <trkpt lat="47.76634" lon="-3.36777">
        <ele>3.7</ele>
        <time>2020-08-21T08:44:29.000Z</time>
      </trkpt>
      <trkpt lat="47.76633" lon="-3.36776">
        <ele>3.8</ele>
        <time>2020-08-21T08:44:30.000Z</time>
      </trkpt>
      <trkpt lat="47.76632" lon="-3.36775">
        <ele>3.8</ele>
        <time>2020-08-21T08:44:31.000Z</time>
      </trkpt>
      <trkpt lat="47.76631" lon="-3.36775">
        <ele>3.8</ele>
        <time>2020-08-21T08:44:32.000Z</time>
      </trkpt>
      <trkpt lat="47.7663" lon="-3.36774">
        <ele>3.9</ele>
        <time>2020-08-21T08:44:33.000Z</time>
      </trkpt>
      <trkpt lat="47.76629" lon="-3.36773">
        <ele>3.9</ele>
        <time>2020-08-21T08:44:34.000Z</time>
      </trkpt>
      <trkpt lat="47.76628" lon="-3.36773">
        <ele>3.9</ele>
        <time>2020-08-21T08:44:35.000Z</time>
      </trkpt>
      <trkpt lat="47.76627" lon="-3.36772">
        <ele>4</ele>
        <time>2020-08-21T08:44:36.000Z</time>
      </trkpt>
      <trkpt lat="47.76626" lon="-3.36772">
        <ele>4</ele>
        <time>2020-08-21T08:44:37.000Z</time>
      </trkpt>
      <trkpt lat="47.76625" lon="-3.36771">
        <ele>4</ele>
        <time>2020-08-21T08:44:38.000Z</time>
      </trkpt>
      <trkpt lat="47.76624" lon="-3.3677">
        <ele>4.1</ele>
        <time>2020-08-21T08:44:39.000Z</time>
      </trkpt>
      <trkpt lat="47.76622" lon="-3.3677">
        <ele>4.1</ele>
        <time>2020-08-21T08:44:40.000Z</time>
      </trkpt>
      <trkpt lat="47.76621" lon="-3.36769">
        <ele>4.1</ele>
        <time>2020-08-21T08:44:41.000Z</time>
      </trkpt>
      <trkpt lat="47.7662" lon="-3.36768">
        <ele>4.2</ele>
        <time>2020-08-21T08:44:42.000Z</time>
      </trkpt>
      <trkpt lat="47.76619" lon="-3.36768">
        <ele>4.2</ele>
        <time>2020-08-21T08:44:43.000Z</time>
      </trkpt>
      <trkpt lat="47.76618" lon="-3.36767">
        <ele>4.3</ele>
        <time>2020-08-21T08:44:44.000Z</time>
      </trkpt>
      <trkpt lat="47.76617" lon="-3.36767">
        <ele>4.3</ele>
        <time>2020-08-21T08:44:45.000Z</time>
      </trkpt>
      <trkpt lat="47.76616" lon="-3.36766">
        <ele>4.4</ele>
        <time>2020-08-21T08:44:46.000Z</time>
      </trkpt>
      <trkpt lat="47.76615" lon="-3.36765">
        <ele>4.4</ele>
        <time>2020-08-21T08:44:47.000Z</time>
      </trkpt>
      <trkpt lat="47.76613" lon="-3.36765">
        <ele>4.4</ele>
        <time>2020-08-21T08:44:48.000Z</time>
      </trkpt>
      <trkpt lat="47.76612" lon="-3.36764">
        <ele>4.5</ele>
        <time>2020-08-21T08:44:49.000Z</time>
      </trkpt>
      <trkpt lat="47.76611" lon="-3.36764">
        <ele>4.5</ele>
        <time>2020-08-21T08:44:50.000Z</time>
      </trkpt>
      <trkpt lat="47.7661" lon="-3.36763">
        <ele>4.6</ele>
        <time>2020-08-21T08:44:51.000Z</time>
      </trkpt>
      <trkpt lat="47.76609" lon="-3.36762">
        <ele>4.7</ele>
        <time>2020-08-21T08:44:52.000Z</time>
      </trkpt>
      <trkpt lat="47.76608" lon="-3.36762">
        <ele>4.7</ele>
        <time>2020-08-21T08:44:53.000Z</time>
      </trkpt>
      <trkpt lat="47.76606" lon="-3.36761">
        <ele>4.8</ele>
        <time>2020-08-21T08:44:54.000Z</time>
      </trkpt>
      <trkpt lat="47.76605" lon="-3.36761">
        <ele>4.8</ele>
        <time>2020-08-21T08:44:55.000Z</time>
      </trkpt>
      <trkpt lat="47.76604" lon="-3.36761">
        <ele>4.9</ele>
        <time>2020-08-21T08:44:56.000Z</time>
      </trkpt>
      <trkpt lat="47.76603" lon="-3.3676">
        <ele>5</ele>
        <time>2020-08-21T08:44:57.000Z</time>
      </trkpt>
      <trkpt lat="47.76602" lon="-3.3676">
        <ele>5</ele>
        <time>2020-08-21T08:44:58.000Z</time>
      </trkpt>
      <trkpt lat="47.766" lon="-3.36759">
        <ele>5.1</ele>
        <time>2020-08-21T08:44:59.000Z</time>
      </trkpt>
      <trkpt lat="47.76599" lon="-3.36759">
        <ele>5.2</ele>
        <time>2020-08-21T08:45:00.000Z</time>
      </trkpt>
      <trkpt lat="47.76598" lon="-3.36759">
        <ele>5.2</ele>
        <time>2020-08-21T08:45:01.000Z</time>
      </trkpt>
      <trkpt lat="47.76597" lon="-3.36758">
        <ele>5.3</ele>
        <time>2020-08-21T08:45:02.000Z</time>
      </trkpt>
      <trkpt lat="47.76595" lon="-3.36758">
        <ele>5.4</ele>
        <time>2020-08-21T08:45:03.000Z</time>
      </trkpt>
      <trkpt lat="47.76594" lon="-3.36758">
        <ele>5.5</ele>
        <time>2020-08-21T08:45:04.000Z</time>
      </trkpt>
      <trkpt lat="47.76593" lon="-3.36758">
        <ele>5.5</ele>
        <time>2020-08-21T08:45:05.000Z</time>
      </trkpt>
      <trkpt lat="47.76592" lon="-3.36758">
        <ele>5.6</ele>
        <time>2020-08-21T08:45:06.000Z</time>
      </trkpt>
      <trkpt lat="47.7659" lon="-3.36757">
        <ele>5.7</ele>
        <time>2020-08-21T08:45:07.000Z</time>
      </trkpt>
      <trkpt lat="47.76589" lon="-3.36757">
        <ele>5.8</ele>
        <time>2020-08-21T08:45:08.000Z</time>
      </trkpt>
      <trkpt lat="47.76588" lon="-3.36757">
        <ele>5.9</ele>
        <time>2020-08-21T08:45:09.000Z</time>
      </trkpt>
      <trkpt lat="47.76587" lon="-3.36757">
        <ele>5.9</ele>
        <time>2020-08-21T08:45:10.000Z</time>
      </trkpt>
      <trkpt lat="47.76585" lon="-3.36757">
        <ele>6</ele>
        <time>2020-08-21T08:45:11.000Z</time>
      </trkpt>
      <trkpt lat="47.76584" lon="-3.36757">
        <ele>6.1</ele>
        <time>2020-08-21T08:45:12.000Z</time>
      </trkpt>
      <trkpt lat="47.76583" lon="-3.36756">
        <ele>6.1</ele>
        <time>2020-08-21T08:45:13.000Z</time>
      </trkpt>
      <trkpt lat="47.76582" lon="-3.36756">
        <ele>6.1</ele>
        <time>2020-08-21T08:45:14.000Z</time>
      </trkpt>
      <trkpt lat="47.76581" lon="-3.36756">
        <ele>6.1</ele>
        <time>2020-08-21T08:45:15.000Z</time>
      </trkpt>
      <trkpt lat="47.7658" lon="-3.36756">
        <ele>6</ele>
        <time>2020-08-21T08:45:16.000Z</time>
      </trkpt>
      <trkpt lat="47.76578" lon="-3.36756">
        <ele>6</ele>
        <time>2020-08-21T08:45:17.000Z</time>
      </trkpt>
      <trkpt lat="47.76577" lon="-3.36756">
        <ele>5.9</ele>
        <time>2020-08-21T08:45:18.000Z</time>
      </trkpt>
      <trkpt lat="47.76576" lon="-3.36756">
        <ele>5.9</ele>
        <time>2020-08-21T08:45:19.000Z</time>
      </trkpt>
      <trkpt lat="47.76575" lon="-3.36756">
        <ele>5.8</ele>
        <time>2020-08-21T08:45:20.000Z</time>
      </trkpt>
      <trkpt lat="47.76574" lon="-3.36756">
        <ele>5.8</ele>
        <time>2020-08-21T08:45:21.000Z</time>
      </trkpt>
      <trkpt lat="47.76572" lon="-3.36756">
        <ele>5.8</ele>
        <time>2020-08-21T08:45:22.000Z</time>
      </trkpt>
      <trkpt lat="47.76571" lon="-3.36757">
        <ele>5.7</ele>
        <time>2020-08-21T08:45:23.000Z</time>
      </trkpt>
      <trkpt lat="47.7657" lon="-3.36757">
        <ele>5.7</ele>
        <time>2020-08-21T08:45:24.000Z</time>
      </trkpt>
      <trkpt lat="47.76568" lon="-3.36757">
        <ele>5.6</ele>
        <time>2020-08-21T08:45:25.000Z</time>
      </trkpt>
      <trkpt lat="47.76567" lon="-3.36757">
        <ele>5.6</ele>
        <time>2020-08-21T08:45:26.000Z</time>
      </trkpt>
      <trkpt lat="47.76566" lon="-3.36758">
        <ele>5.5</ele>
        <time>2020-08-21T08:45:27.000Z</time>
      </trkpt>
      <trkpt lat="47.76564" lon="-3.36758">
        <ele>5.5</ele>
        <time>2020-08-21T08:45:28.000Z</time>
      </trkpt>
      <trkpt lat="47.76563" lon="-3.36758">
        <ele>5.5</ele>
        <time>2020-08-21T08:45:29.000Z</time>
      </trkpt>
      <trkpt lat="47.76562" lon="-3.36758">
        <ele>5.4</ele>
        <time>2020-08-21T08:45:30.000Z</time>
      </trkpt>
      <trkpt lat="47.76561" lon="-3.36759">
        <ele>5.4</ele>
        <time>2020-08-21T08:45:31.000Z</time>
      </trkpt>
      <trkpt lat="47.76559" lon="-3.36759">
        <ele>5.4</ele>
        <time>2020-08-21T08:45:32.000Z</time>
      </trkpt>
      <trkpt lat="47.76558" lon="-3.36759">
        <ele>5.3</ele>
        <time>2020-08-21T08:45:33.000Z</time>
      </trkpt>
      <trkpt lat="47.76557" lon="-3.3676">
        <ele>5.3</ele>
        <time>2020-08-21T08:45:34.000Z</time>
      </trkpt>
      <trkpt lat="47.76556" lon="-3.3676">
        <ele>5.3</ele>
        <time>2020-08-21T08:45:35.000Z</time>
      </trkpt>
      <trkpt lat="47.76555" lon="-3.3676">
        <ele>5.2</ele>
        <time>2020-08-21T08:45:36.000Z</time>
      </trkpt>
      <trkpt lat="47.76554" lon="-3.36761">
        <ele>5.2</ele>
        <time>2020-08-21T08:45:37.000Z</time>
      </trkpt>
      <trkpt lat="47.76552" lon="-3.36761">
        <ele>5.1</ele>
        <time>2020-08-21T08:45:38.000Z</time>
      </trkpt>
      <trkpt lat="47.76551" lon="-3.36761">
        <ele>5.1</ele>
        <time>2020-08-21T08:45:39.000Z</time>
      </trkpt>
      <trkpt lat="47.7655" lon="-3.36761">
        <ele>5.1</ele>
        <time>2020-08-21T08:45:40.000Z</time>
      </trkpt>
      <trkpt lat="47.76549" lon="-3.36762">
        <ele>5</ele>
        <time>2020-08-21T08:45:41.000Z</time>
      </trkpt>
      <trkpt lat="47.76547" lon="-3.36762">
        <ele>5</ele>
        <time>2020-08-21T08:45:42.000Z</time>
      </trkpt>
      <trkpt lat="47.76546" lon="-3.36762">
        <ele>4.9</ele>
        <time>2020-08-21T08:45:43.000Z</time>
      </trkpt>
      <trkpt lat="47.76545" lon="-3.36761">
        <ele>4.9</ele>
        <time>2020-08-21T08:45:44.000Z</time>
      </trkpt>
      <trkpt lat="47.76543" lon="-3.36761">
        <ele>4.8</ele>
        <time>2020-08-21T08:45:45.000Z</time>
      </trkpt>
      <trkpt lat="47.76542" lon="-3.36761">
        <ele>4.8</ele>
        <time>2020-08-21T08:45:46.000Z</time>
      </trkpt>
      <trkpt lat="47.7654" lon="-3.36761">
        <ele>4.7</ele>
        <time>2020-08-21T08:45:47.000Z</time>
      </trkpt>
      <trkpt lat="47.76539" lon="-3.36761">
        <ele>4.7</ele>
        <time>2020-08-21T08:45:48.000Z</time>
      </trkpt>
      <trkpt lat="47.76538" lon="-3.3676">
        <ele>4.6</ele>
        <time>2020-08-21T08:45:49.000Z</time>
      </trkpt>
      <trkpt lat="47.76537" lon="-3.3676">
        <ele>4.6</ele>
        <time>2020-08-21T08:45:50.000Z</time>
      </trkpt>
      <trkpt lat="47.76536" lon="-3.3676">
        <ele>4.5</ele>
        <time>2020-08-21T08:45:51.000Z</time>
      </trkpt>
      <trkpt lat="47.76536" lon="-3.3676">
        <ele>4.5</ele>
        <time>2020-08-21T08:45:52.000Z</time>
      </trkpt>
      <trkpt lat="47.76535" lon="-3.3676">
        <ele>4.5</ele>
        <time>2020-08-21T08:45:53.000Z</time>
      </trkpt>
      <trkpt lat="47.76534" lon="-3.3676">
        <ele>4.5</ele>
        <time>2020-08-21T08:45:54.000Z</time>
      </trkpt>
      <trkpt lat="47.76534" lon="-3.3676">
        <ele>4.4</ele>
        <time>2020-08-21T08:45:55.000Z</time>
      </trkpt>
      <trkpt lat="47.76533" lon="-3.3676">
        <ele>4.4</ele>
        <time>2020-08-21T08:45:56.000Z</time>
      </trkpt>
      <trkpt lat="47.76532" lon="-3.3676">
        <ele>4.4</ele>
        <time>2020-08-21T08:45:57.000Z</time>
      </trkpt>
      <trkpt lat="47.7653" lon="-3.36761">
        <ele>4.4</ele>
        <time>2020-08-21T08:45:58.000Z</time>
      </trkpt>
      <trkpt lat="47.76529" lon="-3.36761">
        <ele>4.3</ele>
        <time>2020-08-21T08:45:59.000Z</time>
      </trkpt>
      <trkpt lat="47.76528" lon="-3.36762">
        <ele>4.3</ele>
        <time>2020-08-21T08:46:00.000Z</time>
      </trkpt>
      <trkpt lat="47.76527" lon="-3.36762">
        <ele>4.2</ele>
        <time>2020-08-21T08:46:01.000Z</time>
      </trkpt>
      <trkpt lat="47.76525" lon="-3.36762">
        <ele>4.2</ele>
        <time>2020-08-21T08:46:02.000Z</time>
      </trkpt>
      <trkpt lat="47.76524" lon="-3.36763">
        <ele>4.2</ele>
        <time>2020-08-21T08:46:03.000Z</time>
      </trkpt>
      <trkpt lat="47.76523" lon="-3.36763">
        <ele>4.1</ele>
        <time>2020-08-21T08:46:04.000Z</time>
      </trkpt>
      <trkpt lat="47.76522" lon="-3.36763">
        <ele>4.1</ele>
        <time>2020-08-21T08:46:05.000Z</time>
      </trkpt>
      <trkpt lat="47.76521" lon="-3.36764">
        <ele>4.1</ele>
        <time>2020-08-21T08:46:06.000Z</time>
      </trkpt>
      <trkpt lat="47.7652" lon="-3.36764">
        <ele>4</ele>
        <time>2020-08-21T08:46:07.000Z</time>
      </trkpt>
      <trkpt lat="47.76518" lon="-3.36764">
        <ele>4</ele>
        <time>2020-08-21T08:46:08.000Z</time>
      </trkpt>
      <trkpt lat="47.76517" lon="-3.36764">
        <ele>4</ele>
        <time>2020-08-21T08:46:09.000Z</time>
      </trkpt>
      <trkpt lat="47.76516" lon="-3.36765">
        <ele>3.9</ele>
        <time>2020-08-21T08:46:10.000Z</time>
      </trkpt>
      <trkpt lat="47.76515" lon="-3.36765">
        <ele>3.9</ele>
        <time>2020-08-21T08:46:11.000Z</time>
      </trkpt>
      <trkpt lat="47.76514" lon="-3.36765">
        <ele>3.9</ele>
        <time>2020-08-21T08:46:12.000Z</time>
      </trkpt>
      <trkpt lat="47.76513" lon="-3.36766">
        <ele>3.9</ele>
        <time>2020-08-21T08:46:13.000Z</time>
      </trkpt>
      <trkpt lat="47.76512" lon="-3.36766">
        <ele>3.8</ele>
        <time>2020-08-21T08:46:14.000Z</time>
      </trkpt>
      <trkpt lat="47.76511" lon="-3.36766">
        <ele>3.8</ele>
        <time>2020-08-21T08:46:15.000Z</time>
      </trkpt>
      <trkpt lat="47.7651" lon="-3.36767">
        <ele>3.8</ele>
        <time>2020-08-21T08:46:16.000Z</time>
      </trkpt>
      <trkpt lat="47.76509" lon="-3.36767">
        <ele>3.7</ele>
        <time>2020-08-21T08:46:17.000Z</time>
      </trkpt>
      <trkpt lat="47.76508" lon="-3.36767">
        <ele>3.7</ele>
        <time>2020-08-21T08:46:18.000Z</time>
      </trkpt>
      <trkpt lat="47.76506" lon="-3.36767">
        <ele>3.6</ele>
        <time>2020-08-21T08:46:19.000Z</time>
      </trkpt>
      <trkpt lat="47.76505" lon="-3.36768">
        <ele>3.6</ele>
        <time>2020-08-21T08:46:20.000Z</time>
      </trkpt>
      <trkpt lat="47.76503" lon="-3.36768">
        <ele>3.5</ele>
        <time>2020-08-21T08:46:21.000Z</time>
      </trkpt>
      <trkpt lat="47.76502" lon="-3.36768">
        <ele>3.5</ele>
        <time>2020-08-21T08:46:22.000Z</time>
      </trkpt>
      <trkpt lat="47.765" lon="-3.36768">
        <ele>3.4</ele>
        <time>2020-08-21T08:46:23.000Z</time>
      </trkpt>
      <trkpt lat="47.76499" lon="-3.36769">
        <ele>3.4</ele>
        <time>2020-08-21T08:46:24.000Z</time>
      </trkpt>
      <trkpt lat="47.76497" lon="-3.36769">
        <ele>3.4</ele>
        <time>2020-08-21T08:46:25.000Z</time>
      </trkpt>
      <trkpt lat="47.76496" lon="-3.36769">
        <ele>3.4</ele>
        <time>2020-08-21T08:46:26.000Z</time>
      </trkpt>
      <trkpt lat="47.76494" lon="-3.36769">
        <ele>3.4</ele>
        <time>2020-08-21T08:46:27.000Z</time>
      </trkpt>
      <trkpt lat="47.76493" lon="-3.36769">
        <ele>3.4</ele>
        <time>2020-08-21T08:46:28.000Z</time>
      </trkpt>
      <trkpt lat="47.76491" lon="-3.36769">
        <ele>3.4</ele>
        <time>2020-08-21T08:46:29.000Z</time>
      </trkpt>
      <trkpt lat="47.7649" lon="-3.36769">
        <ele>3.3</ele>
        <time>2020-08-21T08:46:30.000Z</time>
      </trkpt>
      <trkpt lat="47.76488" lon="-3.36769">
        <ele>3.3</ele>
        <time>2020-08-21T08:46:31.000Z</time>
      </trkpt>
      <trkpt lat="47.76487" lon="-3.36769">
        <ele>3.3</ele>
        <time>2020-08-21T08:46:32.000Z</time>
      </trkpt>
      <trkpt lat="47.76486" lon="-3.36769">
        <ele>3.3</ele>
        <time>2020-08-21T08:46:33.000Z</time>
      </trkpt>
      <trkpt lat="47.76484" lon="-3.36769">
        <ele>3.3</ele>
        <time>2020-08-21T08:46:34.000Z</time>
      </trkpt>
      <trkpt lat="47.76483" lon="-3.36769">
        <ele>3.3</ele>
        <time>2020-08-21T08:46:35.000Z</time>
      </trkpt>
      <trkpt lat="47.76482" lon="-3.36769">
        <ele>3.2</ele>
        <time>2020-08-21T08:46:36.000Z</time>
      </trkpt>
      <trkpt lat="47.76481" lon="-3.36769">
        <ele>3.2</ele>
        <time>2020-08-21T08:46:37.000Z</time>
      </trkpt>
      <trkpt lat="47.76479" lon="-3.36769">
        <ele>3.2</ele>
        <time>2020-08-21T08:46:38.000Z</time>
      </trkpt>
      <trkpt lat="47.76478" lon="-3.36769">
        <ele>3.2</ele>
        <time>2020-08-21T08:46:39.000Z</time>
      </trkpt>
      <trkpt lat="47.76477" lon="-3.36769">
        <ele>3.2</ele>
        <time>2020-08-21T08:46:40.000Z</time>
      </trkpt>
      <trkpt lat="47.76476" lon="-3.36768">
        <ele>3.2</ele>
        <time>2020-08-21T08:46:41.000Z</time>
      </trkpt>
      <trkpt lat="47.76475" lon="-3.36768">
        <ele>3.1</ele>
        <time>2020-08-21T08:46:42.000Z</time>
      </trkpt>
      <trkpt lat="47.76474" lon="-3.36768">
        <ele>3.1</ele>
        <time>2020-08-21T08:46:43.000Z</time>
      </trkpt>
      <trkpt lat="47.76473" lon="-3.36768">
        <ele>3.1</ele>
        <time>2020-08-21T08:46:44.000Z</time>
      </trkpt>
      <trkpt lat="47.76472" lon="-3.36767">
        <ele>3.1</ele>
        <time>2020-08-21T08:46:45.000Z</time>
      </trkpt>
      <trkpt lat="47.7647" lon="-3.36767">
        <ele>3</ele>
        <time>2020-08-21T08:46:46.000Z</time>
      </trkpt>
      <trkpt lat="47.76469" lon="-3.36767">
        <ele>3</ele>
        <time>2020-08-21T08:46:47.000Z</time>
      </trkpt>
      <trkpt lat="47.76468" lon="-3.36766">
        <ele>3</ele>
        <time>2020-08-21T08:46:48.000Z</time>
      </trkpt>
      <trkpt lat="47.76467" lon="-3.36766">
        <ele>3</ele>
        <time>2020-08-21T08:46:49.000Z</time>
      </trkpt>
      <trkpt lat="47.76466" lon="-3.36765">
        <ele>3</ele>
        <time>2020-08-21T08:46:50.000Z</time>
      </trkpt>
      <trkpt lat="47.76465" lon="-3.36765">
        <ele>2.9</ele>
        <time>2020-08-21T08:46:51.000Z</time>
      </trkpt>
      <trkpt lat="47.76464" lon="-3.36764">
        <ele>2.9</ele>
        <time>2020-08-21T08:46:52.000Z</time>
      </trkpt>
      <trkpt lat="47.76463" lon="-3.36763">
        <ele>2.9</ele>
        <time>2020-08-21T08:46:53.000Z</time>
      </trkpt>
      <trkpt lat="47.76462" lon="-3.36763">
        <ele>2.9</ele>
        <time>2020-08-21T08:46:54.000Z</time>
      </trkpt>
      <trkpt lat="47.76461" lon="-3.36762">
        <ele>2.8</ele>
        <time>2020-08-21T08:46:55.000Z</time>
      </trkpt>
      <trkpt lat="47.7646" lon="-3.36762">
        <ele>2.8</ele>
        <time>2020-08-21T08:46:56.000Z</time>
      </trkpt>
      <trkpt lat="47.76459" lon="-3.36761">
        <ele>2.8</ele>
        <time>2020-08-21T08:46:57.000Z</time>
      </trkpt>
      <trkpt lat="47.76458" lon="-3.3676">
        <ele>2.7</ele>
        <time>2020-08-21T08:46:58.000Z</time>
      </trkpt>
      <trkpt lat="47.76457" lon="-3.3676">
        <ele>2.7</ele>
        <time>2020-08-21T08:46:59.000Z</time>
      </trkpt>
      <trkpt lat="47.76456" lon="-3.36759">
        <ele>2.7</ele>
        <time>2020-08-21T08:47:00.000Z</time>
      </trkpt>
      <trkpt lat="47.76455" lon="-3.36758">
        <ele>2.7</ele>
        <time>2020-08-21T08:47:01.000Z</time>
      </trkpt>
      <trkpt lat="47.76454" lon="-3.36757">
        <ele>2.6</ele>
        <time>2020-08-21T08:47:02.000Z</time>
      </trkpt>
      <trkpt lat="47.76453" lon="-3.36757">
        <ele>2.6</ele>
        <time>2020-08-21T08:47:03.000Z</time>
      </trkpt>
      <trkpt lat="47.76452" lon="-3.36756">
        <ele>2.6</ele>
        <time>2020-08-21T08:47:04.000Z</time>
      </trkpt>
      <trkpt lat="47.76451" lon="-3.36755">
        <ele>2.5</ele>
        <time>2020-08-21T08:47:05.000Z</time>
      </trkpt>
      <trkpt lat="47.7645" lon="-3.36754">
        <ele>2.5</ele>
        <time>2020-08-21T08:47:06.000Z</time>
      </trkpt>
      <trkpt lat="47.76449" lon="-3.36754">
        <ele>2.5</ele>
        <time>2020-08-21T08:47:07.000Z</time>
      </trkpt>
      <trkpt lat="47.76448" lon="-3.36753">
        <ele>2.4</ele>
        <time>2020-08-21T08:47:08.000Z</time>
      </trkpt>
      <trkpt lat="47.76447" lon="-3.36752">
        <ele>2.4</ele>
        <time>2020-08-21T08:47:09.000Z</time>
      </trkpt>
      <trkpt lat="47.76446" lon="-3.36752">
        <ele>2.4</ele>
        <time>2020-08-21T08:47:10.000Z</time>
      </trkpt>
      <trkpt lat="47.76445" lon="-3.36751">
        <ele>2.4</ele>
        <time>2020-08-21T08:47:11.000Z</time>
      </trkpt>
      <trkpt lat="47.76444" lon="-3.3675">
        <ele>2.3</ele>
        <time>2020-08-21T08:47:12.000Z</time>
      </trkpt>
      <trkpt lat="47.76443" lon="-3.36749">
        <ele>2.3</ele>
        <time>2020-08-21T08:47:13.000Z</time>
      </trkpt>
      <trkpt lat="47.76442" lon="-3.36749">
        <ele>2.3</ele>
        <time>2020-08-21T08:47:14.000Z</time>
      </trkpt>
      <trkpt lat="47.76441" lon="-3.36748">
        <ele>2.2</ele>
        <time>2020-08-21T08:47:15.000Z</time>
      </trkpt>
      <trkpt lat="47.7644" lon="-3.36747">
        <ele>2.2</ele>
        <time>2020-08-21T08:47:16.000Z</time>
      </trkpt>
      <trkpt lat="47.76439" lon="-3.36747">
        <ele>2.2</ele>
        <time>2020-08-21T08:47:17.000Z</time>
      </trkpt>
      <trkpt lat="47.76438" lon="-3.36746">
        <ele>2.1</ele>
        <time>2020-08-21T08:47:18.000Z</time>
      </trkpt>
      <trkpt lat="47.76437" lon="-3.36745">
        <ele>2.1</ele>
        <time>2020-08-21T08:47:19.000Z</time>
      </trkpt>
      <trkpt lat="47.76436" lon="-3.36745">
        <ele>2.1</ele>
        <time>2020-08-21T08:47:20.000Z</time>
      </trkpt>
      <trkpt lat="47.76435" lon="-3.36744">
        <ele>2.1</ele>
        <time>2020-08-21T08:47:21.000Z</time>
      </trkpt>
      <trkpt lat="47.76434" lon="-3.36744">
        <ele>2</ele>
        <time>2020-08-21T08:47:22.000Z</time>
      </trkpt>
      <trkpt lat="47.76432" lon="-3.36743">
        <ele>2</ele>
        <time>2020-08-21T08:47:23.000Z</time>
      </trkpt>
      <trkpt lat="47.76431" lon="-3.36742">
        <ele>2</ele>
        <time>2020-08-21T08:47:24.000Z</time>
      </trkpt>
      <trkpt lat="47.7643" lon="-3.36741">
        <ele>1.9</ele>
        <time>2020-08-21T08:47:25.000Z</time>
      </trkpt>
      <trkpt lat="47.76429" lon="-3.36741">
        <ele>1.9</ele>
        <time>2020-08-21T08:47:26.000Z</time>
      </trkpt>
      <trkpt lat="47.76427" lon="-3.3674">
        <ele>1.9</ele>
        <time>2020-08-21T08:47:27.000Z</time>
      </trkpt>
      <trkpt lat="47.76426" lon="-3.36739">
        <ele>1.8</ele>
        <time>2020-08-21T08:47:28.000Z</time>
      </trkpt>
      <trkpt lat="47.76425" lon="-3.36739">
        <ele>1.8</ele>
        <time>2020-08-21T08:47:29.000Z</time>
      </trkpt>
      <trkpt lat="47.76423" lon="-3.36738">
        <ele>1.8</ele>
        <time>2020-08-21T08:47:30.000Z</time>
      </trkpt>
      <trkpt lat="47.76422" lon="-3.36737">
        <ele>1.7</ele>
        <time>2020-08-21T08:47:31.000Z</time>
      </trkpt>
      <trkpt lat="47.76421" lon="-3.36737">
        <ele>1.7</ele>
        <time>2020-08-21T08:47:32.000Z</time>
      </trkpt>
      <trkpt lat="47.76419" lon="-3.36736">
        <ele>1.7</ele>
        <time>2020-08-21T08:47:33.000Z</time>
      </trkpt>
      <trkpt lat="47.76418" lon="-3.36735">
        <ele>1.7</ele>
        <time>2020-08-21T08:47:34.000Z</time>
      </trkpt>
      <trkpt lat="47.76417" lon="-3.36735">
        <ele>1.6</ele>
        <time>2020-08-21T08:47:35.000Z</time>
      </trkpt>
      <trkpt lat="47.76416" lon="-3.36735">
        <ele>1.6</ele>
        <time>2020-08-21T08:47:36.000Z</time>
      </trkpt>
      <trkpt lat="47.76415" lon="-3.36734">
        <ele>1.6</ele>
        <time>2020-08-21T08:47:37.000Z</time>
      </trkpt>
      <trkpt lat="47.76413" lon="-3.36734">
        <ele>1.6</ele>
        <time>2020-08-21T08:47:38.000Z</time>
      </trkpt>
      <trkpt lat="47.76412" lon="-3.36734">
        <ele>1.6</ele>
        <time>2020-08-21T08:47:39.000Z</time>
      </trkpt>
      <trkpt lat="47.76412" lon="-3.36733">
        <ele>1.6</ele>
        <time>2020-08-21T08:47:40.000Z</time>
      </trkpt>
      <trkpt lat="47.76411" lon="-3.36733">
        <ele>1.6</ele>
        <time>2020-08-21T08:47:41.000Z</time>
      </trkpt>
      <trkpt lat="47.7641" lon="-3.36733">
        <ele>1.6</ele>
        <time>2020-08-21T08:47:42.000Z</time>
      </trkpt>
      <trkpt lat="47.76409" lon="-3.36732">
        <ele>1.6</ele>
        <time>2020-08-21T08:47:43.000Z</time>
      </trkpt>
      <trkpt lat="47.76409" lon="-3.36732">
        <ele>1.6</ele>
        <time>2020-08-21T08:47:44.000Z</time>
      </trkpt>
      <trkpt lat="47.76408" lon="-3.36731">
        <ele>1.6</ele>
        <time>2020-08-21T08:47:45.000Z</time>
      </trkpt>
      <trkpt lat="47.76407" lon="-3.36731">
        <ele>1.6</ele>
        <time>2020-08-21T08:47:46.000Z</time>
      </trkpt>
      <trkpt lat="47.76406" lon="-3.3673">
        <ele>1.6</ele>
        <time>2020-08-21T08:47:47.000Z</time>
      </trkpt>
      <trkpt lat="47.76405" lon="-3.36729">
        <ele>1.6</ele>
        <time>2020-08-21T08:47:48.000Z</time>
      </trkpt>
      <trkpt lat="47.76404" lon="-3.36728">
        <ele>1.6</ele>
        <time>2020-08-21T08:47:49.000Z</time>
      </trkpt>
      <trkpt lat="47.76402" lon="-3.36727">
        <ele>1.6</ele>
        <time>2020-08-21T08:47:50.000Z</time>
      </trkpt>
      <trkpt lat="47.76401" lon="-3.36726">
        <ele>1.6</ele>
        <time>2020-08-21T08:47:51.000Z</time>
      </trkpt>
      <trkpt lat="47.76399" lon="-3.36725">
        <ele>1.5</ele>
        <time>2020-08-21T08:47:52.000Z</time>
      </trkpt>
      <trkpt lat="47.76398" lon="-3.36724">
        <ele>1.5</ele>
        <time>2020-08-21T08:47:53.000Z</time>
      </trkpt>
      <trkpt lat="47.76397" lon="-3.36723">
        <ele>1.5</ele>
        <time>2020-08-21T08:47:54.000Z</time>
      </trkpt>
      <trkpt lat="47.76396" lon="-3.36723">
        <ele>1.5</ele>
        <time>2020-08-21T08:47:55.000Z</time>
      </trkpt>
      <trkpt lat="47.76395" lon="-3.36722">
        <ele>1.5</ele>
        <time>2020-08-21T08:47:56.000Z</time>
      </trkpt>
      <trkpt lat="47.76394" lon="-3.36722">
        <ele>1.5</ele>
        <time>2020-08-21T08:47:57.000Z</time>
      </trkpt>
      <trkpt lat="47.76393" lon="-3.36721">
        <ele>1.5</ele>
        <time>2020-08-21T08:47:58.000Z</time>
      </trkpt>
      <trkpt lat="47.76392" lon="-3.3672">
        <ele>1.5</ele>
        <time>2020-08-21T08:47:59.000Z</time>
      </trkpt>
      <trkpt lat="47.76391" lon="-3.3672">
        <ele>1.5</ele>
        <time>2020-08-21T08:48:00.000Z</time>
      </trkpt>
      <trkpt lat="47.76389" lon="-3.36719">
        <ele>1.5</ele>
        <time>2020-08-21T08:48:01.000Z</time>
      </trkpt>
      <trkpt lat="47.76388" lon="-3.36718">
        <ele>1.4</ele>
        <time>2020-08-21T08:48:02.000Z</time>
      </trkpt>
      <trkpt lat="47.76387" lon="-3.36718">
        <ele>1.4</ele>
        <time>2020-08-21T08:48:03.000Z</time>
      </trkpt>
      <trkpt lat="47.76386" lon="-3.36717">
        <ele>1.4</ele>
        <time>2020-08-21T08:48:04.000Z</time>
      </trkpt>
      <trkpt lat="47.76385" lon="-3.36716">
        <ele>1.4</ele>
        <time>2020-08-21T08:48:05.000Z</time>
      </trkpt>
      <trkpt lat="47.76383" lon="-3.36715">
        <ele>1.4</ele>
        <time>2020-08-21T08:48:06.000Z</time>
      </trkpt>
      <trkpt lat="47.76382" lon="-3.36714">
        <ele>1.4</ele>
        <time>2020-08-21T08:48:07.000Z</time>
      </trkpt>
      <trkpt lat="47.76381" lon="-3.36713">
        <ele>1.4</ele>
        <time>2020-08-21T08:48:08.000Z</time>
      </trkpt>
      <trkpt lat="47.7638" lon="-3.36712">
        <ele>1.3</ele>
        <time>2020-08-21T08:48:09.000Z</time>
      </trkpt>
      <trkpt lat="47.76379" lon="-3.36712">
        <ele>1.3</ele>
        <time>2020-08-21T08:48:10.000Z</time>
      </trkpt>
      <trkpt lat="47.76377" lon="-3.36711">
        <ele>1.3</ele>
        <time>2020-08-21T08:48:11.000Z</time>
      </trkpt>
      <trkpt lat="47.76376" lon="-3.3671">
        <ele>1.3</ele>
        <time>2020-08-21T08:48:12.000Z</time>
      </trkpt>
      <trkpt lat="47.76375" lon="-3.36709">
        <ele>1.3</ele>
        <time>2020-08-21T08:48:13.000Z</time>
      </trkpt>
      <trkpt lat="47.76374" lon="-3.36708">
        <ele>1.2</ele>
        <time>2020-08-21T08:48:14.000Z</time>
      </trkpt>
      <trkpt lat="47.76373" lon="-3.36707">
        <ele>1.2</ele>
        <time>2020-08-21T08:48:15.000Z</time>
      </trkpt>
      <trkpt lat="47.76372" lon="-3.36706">
        <ele>1.2</ele>
        <time>2020-08-21T08:48:16.000Z</time>
      </trkpt>
      <trkpt lat="47.7637" lon="-3.36705">
        <ele>1.2</ele>
        <time>2020-08-21T08:48:17.000Z</time>
      </trkpt>
      <trkpt lat="47.76369" lon="-3.36705">
        <ele>1.2</ele>
        <time>2020-08-21T08:48:18.000Z</time>
      </trkpt>
      <trkpt lat="47.76368" lon="-3.36704">
        <ele>1.2</ele>
        <time>2020-08-21T08:48:19.000Z</time>
      </trkpt>
      <trkpt lat="47.76367" lon="-3.36703">
        <ele>1.1</ele>
        <time>2020-08-21T08:48:20.000Z</time>
      </trkpt>
      <trkpt lat="47.76366" lon="-3.36702">
        <ele>1.1</ele>
        <time>2020-08-21T08:48:21.000Z</time>
      </trkpt>
      <trkpt lat="47.76364" lon="-3.36702">
        <ele>1.1</ele>
        <time>2020-08-21T08:48:22.000Z</time>
      </trkpt>
      <trkpt lat="47.76363" lon="-3.36701">
        <ele>1.1</ele>
        <time>2020-08-21T08:48:23.000Z</time>
      </trkpt>
      <trkpt lat="47.76362" lon="-3.367">
        <ele>1.1</ele>
        <time>2020-08-21T08:48:24.000Z</time>
      </trkpt>
      <trkpt lat="47.76361" lon="-3.36699">
        <ele>1</ele>
        <time>2020-08-21T08:48:25.000Z</time>
      </trkpt>
      <trkpt lat="47.76359" lon="-3.36699">
        <ele>1</ele>
        <time>2020-08-21T08:48:26.000Z</time>
      </trkpt>
      <trkpt lat="47.76358" lon="-3.36698">
        <ele>1</ele>
        <time>2020-08-21T08:48:27.000Z</time>
      </trkpt>
      <trkpt lat="47.76357" lon="-3.36697">
        <ele>1</ele>
        <time>2020-08-21T08:48:28.000Z</time>
      </trkpt>
      <trkpt lat="47.76355" lon="-3.36697">
        <ele>1</ele>
        <time>2020-08-21T08:48:29.000Z</time>
      </trkpt>
      <trkpt lat="47.76354" lon="-3.36696">
        <ele>1</ele>
        <time>2020-08-21T08:48:30.000Z</time>
      </trkpt>
      <trkpt lat="47.76353" lon="-3.36695">
        <ele>1</ele>
        <time>2020-08-21T08:48:31.000Z</time>
      </trkpt>
      <trkpt lat="47.76351" lon="-3.36695">
        <ele>0.9</ele>
        <time>2020-08-21T08:48:32.000Z</time>
      </trkpt>
      <trkpt lat="47.7635" lon="-3.36694">
        <ele>0.9</ele>
        <time>2020-08-21T08:48:33.000Z</time>
      </trkpt>
      <trkpt lat="47.76348" lon="-3.36693">
        <ele>0.9</ele>
        <time>2020-08-21T08:48:34.000Z</time>
      </trkpt>
      <trkpt lat="47.76347" lon="-3.36693">
        <ele>0.9</ele>
        <time>2020-08-21T08:48:35.000Z</time>
      </trkpt>
      <trkpt lat="47.76345" lon="-3.36692">
        <ele>0.9</ele>
        <time>2020-08-21T08:48:36.000Z</time>
      </trkpt>
      <trkpt lat="47.76344" lon="-3.36691">
        <ele>0.8</ele>
        <time>2020-08-21T08:48:37.000Z</time>
      </trkpt>
      <trkpt lat="47.76343" lon="-3.36691">
        <ele>0.8</ele>
        <time>2020-08-21T08:48:38.000Z</time>
      </trkpt>
      <trkpt lat="47.76341" lon="-3.3669">
        <ele>0.8</ele>
        <time>2020-08-21T08:48:39.000Z</time>
      </trkpt>
      <trkpt lat="47.7634" lon="-3.36689">
        <ele>0.8</ele>
        <time>2020-08-21T08:48:40.000Z</time>
      </trkpt>
      <trkpt lat="47.76338" lon="-3.36689">
        <ele>0.8</ele>
        <time>2020-08-21T08:48:41.000Z</time>
      </trkpt>
      <trkpt lat="47.76337" lon="-3.36688">
        <ele>0.8</ele>
        <time>2020-08-21T08:48:42.000Z</time>
      </trkpt>
      <trkpt lat="47.76336" lon="-3.36687">
        <ele>0.7</ele>
        <time>2020-08-21T08:48:43.000Z</time>
      </trkpt>
      <trkpt lat="47.76335" lon="-3.36687">
        <ele>0.7</ele>
        <time>2020-08-21T08:48:44.000Z</time>
      </trkpt>
      <trkpt lat="47.76333" lon="-3.36686">
        <ele>0.7</ele>
        <time>2020-08-21T08:48:45.000Z</time>
      </trkpt>
      <trkpt lat="47.76332" lon="-3.36686">
        <ele>0.7</ele>
        <time>2020-08-21T08:48:46.000Z</time>
      </trkpt>
      <trkpt lat="47.76331" lon="-3.36685">
        <ele>0.7</ele>
        <time>2020-08-21T08:48:47.000Z</time>
      </trkpt>
      <trkpt lat="47.7633" lon="-3.36685">
        <ele>0.7</ele>
        <time>2020-08-21T08:48:48.000Z</time>
      </trkpt>
      <trkpt lat="47.76329" lon="-3.36684">
        <ele>0.6</ele>
        <time>2020-08-21T08:48:49.000Z</time>
      </trkpt>
      <trkpt lat="47.76328" lon="-3.36684">
        <ele>0.6</ele>
        <time>2020-08-21T08:48:50.000Z</time>
      </trkpt>
      <trkpt lat="47.76326" lon="-3.36683">
        <ele>0.6</ele>
        <time>2020-08-21T08:48:51.000Z</time>
      </trkpt>
      <trkpt lat="47.76325" lon="-3.36683">
        <ele>0.6</ele>
        <time>2020-08-21T08:48:52.000Z</time>
      </trkpt>
      <trkpt lat="47.76324" lon="-3.36682">
        <ele>0.6</ele>
        <time>2020-08-21T08:48:53.000Z</time>
      </trkpt>
      <trkpt lat="47.76323" lon="-3.36682">
        <ele>0.6</ele>
        <time>2020-08-21T08:48:54.000Z</time>
      </trkpt>
      <trkpt lat="47.76322" lon="-3.36681">
        <ele>0.6</ele>
        <time>2020-08-21T08:48:55.000Z</time>
      </trkpt>
      <trkpt lat="47.7632" lon="-3.36681">
        <ele>0.6</ele>
        <time>2020-08-21T08:48:56.000Z</time>
      </trkpt>
      <trkpt lat="47.76319" lon="-3.3668">
        <ele>0.5</ele>
        <time>2020-08-21T08:48:57.000Z</time>
      </trkpt>
      <trkpt lat="47.76318" lon="-3.3668">
        <ele>0.5</ele>
        <time>2020-08-21T08:48:58.000Z</time>
      </trkpt>
      <trkpt lat="47.76317" lon="-3.36679">
        <ele>0.5</ele>
        <time>2020-08-21T08:48:59.000Z</time>
      </trkpt>
      <trkpt lat="47.76315" lon="-3.36679">
        <ele>0.5</ele>
        <time>2020-08-21T08:49:00.000Z</time>
      </trkpt>
      <trkpt lat="47.76314" lon="-3.36679">
        <ele>0.5</ele>
        <time>2020-08-21T08:49:01.000Z</time>
      </trkpt>
      <trkpt lat="47.76313" lon="-3.36678">
        <ele>0.5</ele>
        <time>2020-08-21T08:49:02.000Z</time>
      </trkpt>
      <trkpt lat="47.76312" lon="-3.36678">
        <ele>0.5</ele>
        <time>2020-08-21T08:49:03.000Z</time>
      </trkpt>
      <trkpt lat="47.7631" lon="-3.36677">
        <ele>0.5</ele>
        <time>2020-08-21T08:49:04.000Z</time>
      </trkpt>
      <trkpt lat="47.76309" lon="-3.36677">
        <ele>0.4</ele>
        <time>2020-08-21T08:49:05.000Z</time>
      </trkpt>
      <trkpt lat="47.76308" lon="-3.36677">
        <ele>0.4</ele>
        <time>2020-08-21T08:49:06.000Z</time>
      </trkpt>
      <trkpt lat="47.76307" lon="-3.36676">
        <ele>0.4</ele>
        <time>2020-08-21T08:49:07.000Z</time>
      </trkpt>
      <trkpt lat="47.76306" lon="-3.36676">
        <ele>0.4</ele>
        <time>2020-08-21T08:49:08.000Z</time>
      </trkpt>
      <trkpt lat="47.76305" lon="-3.36676">
        <ele>0.4</ele>
        <time>2020-08-21T08:49:09.000Z</time>
      </trkpt>
      <trkpt lat="47.76303" lon="-3.36675">
        <ele>0.4</ele>
        <time>2020-08-21T08:49:10.000Z</time>
      </trkpt>
      <trkpt lat="47.76302" lon="-3.36675">
        <ele>0.4</ele>
        <time>2020-08-21T08:49:11.000Z</time>
      </trkpt>
      <trkpt lat="47.76301" lon="-3.36674">
        <ele>0.3</ele>
        <time>2020-08-21T08:49:12.000Z</time>
      </trkpt>
      <trkpt lat="47.763" lon="-3.36674">
        <ele>0.3</ele>
        <time>2020-08-21T08:49:13.000Z</time>
      </trkpt>
      <trkpt lat="47.76299" lon="-3.36674">
        <ele>0.3</ele>
        <time>2020-08-21T08:49:14.000Z</time>
      </trkpt>
      <trkpt lat="47.76298" lon="-3.36673">
        <ele>0.3</ele>
        <time>2020-08-21T08:49:15.000Z</time>
      </trkpt>
      <trkpt lat="47.76297" lon="-3.36673">
        <ele>0.3</ele>
        <time>2020-08-21T08:49:16.000Z</time>
      </trkpt>
      <trkpt lat="47.76296" lon="-3.36673">
        <ele>0.3</ele>
        <time>2020-08-21T08:49:17.000Z</time>
      </trkpt>
      <trkpt lat="47.76295" lon="-3.36672">
        <ele>0.3</ele>
        <time>2020-08-21T08:49:18.000Z</time>
      </trkpt>
      <trkpt lat="47.76294" lon="-3.36672">
        <ele>0.2</ele>
        <time>2020-08-21T08:49:19.000Z</time>
      </trkpt>
      <trkpt lat="47.76292" lon="-3.36671">
        <ele>0.2</ele>
        <time>2020-08-21T08:49:20.000Z</time>
      </trkpt>
      <trkpt lat="47.76291" lon="-3.36671">
        <ele>0.2</ele>
        <time>2020-08-21T08:49:21.000Z</time>
      </trkpt>
      <trkpt lat="47.7629" lon="-3.36671">
        <ele>0.2</ele>
        <time>2020-08-21T08:49:22.000Z</time>
      </trkpt>
      <trkpt lat="47.76289" lon="-3.3667">
        <ele>0.2</ele>
        <time>2020-08-21T08:49:23.000Z</time>
      </trkpt>
      <trkpt lat="47.76288" lon="-3.3667">
        <ele>0.1</ele>
        <time>2020-08-21T08:49:24.000Z</time>
      </trkpt>
      <trkpt lat="47.76287" lon="-3.36669">
        <ele>0.1</ele>
        <time>2020-08-21T08:49:25.000Z</time>
      </trkpt>
      <trkpt lat="47.76286" lon="-3.36669">
        <ele>0.1</ele>
        <time>2020-08-21T08:49:26.000Z</time>
      </trkpt>
      <trkpt lat="47.76284" lon="-3.36669">
        <ele>0.1</ele>
        <time>2020-08-21T08:49:27.000Z</time>
      </trkpt>
      <trkpt lat="47.76283" lon="-3.36668">
        <ele>0.1</ele>
        <time>2020-08-21T08:49:28.000Z</time>
      </trkpt>
      <trkpt lat="47.76282" lon="-3.36668">
        <ele>4</ele>
        <time>2020-08-21T08:49:29.000Z</time>
      </trkpt>
      <trkpt lat="47.7628" lon="-3.36667">
        <ele>4.1</ele>
        <time>2020-08-21T08:49:30.000Z</time>
      </trkpt>
      <trkpt lat="47.76279" lon="-3.36667">
        <ele>4.1</ele>
        <time>2020-08-21T08:49:31.000Z</time>
      </trkpt>
      <trkpt lat="47.76278" lon="-3.36666">
        <ele>2</ele>
        <time>2020-08-21T08:49:32.000Z</time>
      </trkpt>
      <trkpt lat="47.76277" lon="-3.36666">
        <ele>2.1</ele>
        <time>2020-08-21T08:49:33.000Z</time>
      </trkpt>
      <trkpt lat="47.76275" lon="-3.36665">
        <ele>2.2</ele>
        <time>2020-08-21T08:49:34.000Z</time>
      </trkpt>
      <trkpt lat="47.76274" lon="-3.36665">
        <ele>2.3</ele>
        <time>2020-08-21T08:49:35.000Z</time>
      </trkpt>
      <trkpt lat="47.76273" lon="-3.36665">
        <ele>2.3</ele>
        <time>2020-08-21T08:49:36.000Z</time>
      </trkpt>
      <trkpt lat="47.76272" lon="-3.36664">
        <ele>2.4</ele>
        <time>2020-08-21T08:49:37.000Z</time>
      </trkpt>
      <trkpt lat="47.76271" lon="-3.36664">
        <ele>2.4</ele>
        <time>2020-08-21T08:49:38.000Z</time>
      </trkpt>
      <trkpt lat="47.76269" lon="-3.36664">
        <ele>2.6</ele>
        <time>2020-08-21T08:49:39.000Z</time>
      </trkpt>
      <trkpt lat="47.76268" lon="-3.36663">
        <ele>2.6</ele>
        <time>2020-08-21T08:49:40.000Z</time>
      </trkpt>
      <trkpt lat="47.76267" lon="-3.36663">
        <ele>2.7</ele>
        <time>2020-08-21T08:49:41.000Z</time>
      </trkpt>
      <trkpt lat="47.76266" lon="-3.36663">
        <ele>2.7</ele>
        <time>2020-08-21T08:49:42.000Z</time>
      </trkpt>
      <trkpt lat="47.76265" lon="-3.36662">
        <ele>2.8</ele>
        <time>2020-08-21T08:49:43.000Z</time>
      </trkpt>
      <trkpt lat="47.76264" lon="-3.36662">
        <ele>2.8</ele>
        <time>2020-08-21T08:49:44.000Z</time>
      </trkpt>
      <trkpt lat="47.76263" lon="-3.36662">
        <ele>2.9</ele>
        <time>2020-08-21T08:49:45.000Z</time>
      </trkpt>
      <trkpt lat="47.76262" lon="-3.36662">
        <ele>2.9</ele>
        <time>2020-08-21T08:49:46.000Z</time>
      </trkpt>
      <trkpt lat="47.76261" lon="-3.36661">
        <ele>3</ele>
        <time>2020-08-21T08:49:47.000Z</time>
      </trkpt>
      <trkpt lat="47.7626" lon="-3.36661">
        <ele>3</ele>
        <time>2020-08-21T08:49:48.000Z</time>
      </trkpt>
      <trkpt lat="47.76259" lon="-3.36661">
        <ele>3.1</ele>
        <time>2020-08-21T08:49:49.000Z</time>
      </trkpt>
      <trkpt lat="47.76258" lon="-3.3666">
        <ele>3.1</ele>
        <time>2020-08-21T08:49:50.000Z</time>
      </trkpt>
      <trkpt lat="47.76257" lon="-3.3666">
        <ele>3.1</ele>
        <time>2020-08-21T08:49:51.000Z</time>
      </trkpt>
      <trkpt lat="47.76256" lon="-3.3666">
        <ele>3.2</ele>
        <time>2020-08-21T08:49:52.000Z</time>
      </trkpt>
      <trkpt lat="47.76255" lon="-3.36659">
        <ele>3.2</ele>
        <time>2020-08-21T08:49:53.000Z</time>
      </trkpt>
      <trkpt lat="47.76254" lon="-3.36659">
        <ele>3.2</ele>
        <time>2020-08-21T08:49:54.000Z</time>
      </trkpt>
      <trkpt lat="47.76252" lon="-3.36659">
        <ele>3.3</ele>
        <time>2020-08-21T08:49:55.000Z</time>
      </trkpt>
      <trkpt lat="47.76251" lon="-3.36658">
        <ele>3.3</ele>
        <time>2020-08-21T08:49:56.000Z</time>
      </trkpt>
      <trkpt lat="47.7625" lon="-3.36658">
        <ele>3.4</ele>
        <time>2020-08-21T08:49:57.000Z</time>
      </trkpt>
      <trkpt lat="47.76249" lon="-3.36657">
        <ele>3</ele>
        <time>2020-08-21T08:49:58.000Z</time>
      </trkpt>
      <trkpt lat="47.76248" lon="-3.36657">
        <ele>0.1</ele>
        <time>2020-08-21T08:49:59.000Z</time>
      </trkpt>
      <trkpt lat="47.76247" lon="-3.36657">
        <ele>0.1</ele>
        <time>2020-08-21T08:50:00.000Z</time>
      </trkpt>
      <trkpt lat="47.76246" lon="-3.36656">
        <ele>0.1</ele>
        <time>2020-08-21T08:50:01.000Z</time>
      </trkpt>
      <trkpt lat="47.76244" lon="-3.36656">
        <ele>0.2</ele>
        <time>2020-08-21T08:50:02.000Z</time>
      </trkpt>
      <trkpt lat="47.76243" lon="-3.36655">
        <ele>0.2</ele>
        <time>2020-08-21T08:50:03.000Z</time>
      </trkpt>
      <trkpt lat="47.76242" lon="-3.36655">
        <ele>0.2</ele>
        <time>2020-08-21T08:50:04.000Z</time>
      </trkpt>
      <trkpt lat="47.76241" lon="-3.36655">
        <ele>0.3</ele>
        <time>2020-08-21T08:50:05.000Z</time>
      </trkpt>
      <trkpt lat="47.7624" lon="-3.36654">
        <ele>0.3</ele>
        <time>2020-08-21T08:50:06.000Z</time>
      </trkpt>
      <trkpt lat="47.76239" lon="-3.36654">
        <ele>0.4</ele>
        <time>2020-08-21T08:50:07.000Z</time>
      </trkpt>
      <trkpt lat="47.76237" lon="-3.36654">
        <ele>0.4</ele>
        <time>2020-08-21T08:50:08.000Z</time>
      </trkpt>
      <trkpt lat="47.76236" lon="-3.36654">
        <ele>0.4</ele>
        <time>2020-08-21T08:50:09.000Z</time>
      </trkpt>
      <trkpt lat="47.76235" lon="-3.36653">
        <ele>0.5</ele>
        <time>2020-08-21T08:50:10.000Z</time>
      </trkpt>
      <trkpt lat="47.76234" lon="-3.36653">
        <ele>0.5</ele>
        <time>2020-08-21T08:50:11.000Z</time>
      </trkpt>
      <trkpt lat="47.76233" lon="-3.36653">
        <ele>0.5</ele>
        <time>2020-08-21T08:50:12.000Z</time>
      </trkpt>
      <trkpt lat="47.76231" lon="-3.36652">
        <ele>0.6</ele>
        <time>2020-08-21T08:50:13.000Z</time>
      </trkpt>
      <trkpt lat="47.7623" lon="-3.36652">
        <ele>0.6</ele>
        <time>2020-08-21T08:50:14.000Z</time>
      </trkpt>
      <trkpt lat="47.76229" lon="-3.36652">
        <ele>0.6</ele>
        <time>2020-08-21T08:50:15.000Z</time>
      </trkpt>
      <trkpt lat="47.76228" lon="-3.36651">
        <ele>0.6</ele>
        <time>2020-08-21T08:50:16.000Z</time>
      </trkpt>
      <trkpt lat="47.76227" lon="-3.36651">
        <ele>0.7</ele>
        <time>2020-08-21T08:50:17.000Z</time>
      </trkpt>
      <trkpt lat="47.76226" lon="-3.36651">
        <ele>0.7</ele>
        <time>2020-08-21T08:50:18.000Z</time>
      </trkpt>
      <trkpt lat="47.76225" lon="-3.3665">
        <ele>0.7</ele>
        <time>2020-08-21T08:50:19.000Z</time>
      </trkpt>
      <trkpt lat="47.76223" lon="-3.3665">
        <ele>0.8</ele>
        <time>2020-08-21T08:50:20.000Z</time>
      </trkpt>
      <trkpt lat="47.76222" lon="-3.3665">
        <ele>0.8</ele>
        <time>2020-08-21T08:50:21.000Z</time>
      </trkpt>
      <trkpt lat="47.76221" lon="-3.36649">
        <ele>0.8</ele>
        <time>2020-08-21T08:50:22.000Z</time>
      </trkpt>
      <trkpt lat="47.7622" lon="-3.36649">
        <ele>0.9</ele>
        <time>2020-08-21T08:50:23.000Z</time>
      </trkpt>
      <trkpt lat="47.76219" lon="-3.36648">
        <ele>0.9</ele>
        <time>2020-08-21T08:50:24.000Z</time>
      </trkpt>
      <trkpt lat="47.76217" lon="-3.36648">
        <ele>0.9</ele>
        <time>2020-08-21T08:50:25.000Z</time>
      </trkpt>
      <trkpt lat="47.76216" lon="-3.36648">
        <ele>0.9</ele>
        <time>2020-08-21T08:50:26.000Z</time>
      </trkpt>
      <trkpt lat="47.76215" lon="-3.36647">
        <ele>1</ele>
        <time>2020-08-21T08:50:27.000Z</time>
      </trkpt>
      <trkpt lat="47.76214" lon="-3.36647">
        <ele>1</ele>
        <time>2020-08-21T08:50:28.000Z</time>
      </trkpt>
      <trkpt lat="47.76213" lon="-3.36646">
        <ele>1</ele>
        <time>2020-08-21T08:50:29.000Z</time>
      </trkpt>
      <trkpt lat="47.76211" lon="-3.36646">
        <ele>1</ele>
        <time>2020-08-21T08:50:30.000Z</time>
      </trkpt>
      <trkpt lat="47.7621" lon="-3.36646">
        <ele>1.1</ele>
        <time>2020-08-21T08:50:31.000Z</time>
      </trkpt>
      <trkpt lat="47.76209" lon="-3.36645">
        <ele>1.1</ele>
        <time>2020-08-21T08:50:32.000Z</time>
      </trkpt>
      <trkpt lat="47.76208" lon="-3.36645">
        <ele>1.1</ele>
        <time>2020-08-21T08:50:33.000Z</time>
      </trkpt>
      <trkpt lat="47.76206" lon="-3.36644">
        <ele>1.1</ele>
        <time>2020-08-21T08:50:34.000Z</time>
      </trkpt>
      <trkpt lat="47.76205" lon="-3.36644">
        <ele>1.2</ele>
        <time>2020-08-21T08:50:35.000Z</time>
      </trkpt>
      <trkpt lat="47.76204" lon="-3.36643">
        <ele>1.2</ele>
        <time>2020-08-21T08:50:36.000Z</time>
      </trkpt>
      <trkpt lat="47.76203" lon="-3.36643">
        <ele>1.2</ele>
        <time>2020-08-21T08:50:37.000Z</time>
      </trkpt>
      <trkpt lat="47.76201" lon="-3.36643">
        <ele>1.2</ele>
        <time>2020-08-21T08:50:38.000Z</time>
      </trkpt>
      <trkpt lat="47.762" lon="-3.36642">
        <ele>1.3</ele>
        <time>2020-08-21T08:50:39.000Z</time>
      </trkpt>
      <trkpt lat="47.76199" lon="-3.36642">
        <ele>1.3</ele>
        <time>2020-08-21T08:50:40.000Z</time>
      </trkpt>
      <trkpt lat="47.76197" lon="-3.36641">
        <ele>1.3</ele>
        <time>2020-08-21T08:50:41.000Z</time>
      </trkpt>
      <trkpt lat="47.76196" lon="-3.36641">
        <ele>1.3</ele>
        <time>2020-08-21T08:50:42.000Z</time>
      </trkpt>
      <trkpt lat="47.76195" lon="-3.3664">
        <ele>1.3</ele>
        <time>2020-08-21T08:50:43.000Z</time>
      </trkpt>
      <trkpt lat="47.76194" lon="-3.3664">
        <ele>1.4</ele>
        <time>2020-08-21T08:50:44.000Z</time>
      </trkpt>
      <trkpt lat="47.76193" lon="-3.36639">
        <ele>1.4</ele>
        <time>2020-08-21T08:50:45.000Z</time>
      </trkpt>
      <trkpt lat="47.76191" lon="-3.36638">
        <ele>1.4</ele>
        <time>2020-08-21T08:50:46.000Z</time>
      </trkpt>
      <trkpt lat="47.7619" lon="-3.36638">
        <ele>1.4</ele>
        <time>2020-08-21T08:50:47.000Z</time>
      </trkpt>
      <trkpt lat="47.76189" lon="-3.36637">
        <ele>1.4</ele>
        <time>2020-08-21T08:50:48.000Z</time>
      </trkpt>
      <trkpt lat="47.76188" lon="-3.36637">
        <ele>1.4</ele>
        <time>2020-08-21T08:50:49.000Z</time>
      </trkpt>
      <trkpt lat="47.76187" lon="-3.36636">
        <ele>1.4</ele>
        <time>2020-08-21T08:50:50.000Z</time>
      </trkpt>
      <trkpt lat="47.76186" lon="-3.36636">
        <ele>1.5</ele>
        <time>2020-08-21T08:50:51.000Z</time>
      </trkpt>
      <trkpt lat="47.76184" lon="-3.36635">
        <ele>1.5</ele>
        <time>2020-08-21T08:50:52.000Z</time>
      </trkpt>
      <trkpt lat="47.76183" lon="-3.36634">
        <ele>1.5</ele>
        <time>2020-08-21T08:50:53.000Z</time>
      </trkpt>
      <trkpt lat="47.76182" lon="-3.36634">
        <ele>1.5</ele>
        <time>2020-08-21T08:50:54.000Z</time>
      </trkpt>
      <trkpt lat="47.76181" lon="-3.36633">
        <ele>1.5</ele>
        <time>2020-08-21T08:50:55.000Z</time>
      </trkpt>
      <trkpt lat="47.7618" lon="-3.36632">
        <ele>1.5</ele>
        <time>2020-08-21T08:50:56.000Z</time>
      </trkpt>
      <trkpt lat="47.76179" lon="-3.36632">
        <ele>1.5</ele>
        <time>2020-08-21T08:50:57.000Z</time>
      </trkpt>
      <trkpt lat="47.76178" lon="-3.36631">
        <ele>1.5</ele>
        <time>2020-08-21T08:50:58.000Z</time>
      </trkpt>
      <trkpt lat="47.76177" lon="-3.3663">
        <ele>1.5</ele>
        <time>2020-08-21T08:50:59.000Z</time>
      </trkpt>
      <trkpt lat="47.76176" lon="-3.36629">
        <ele>1.5</ele>
        <time>2020-08-21T08:51:00.000Z</time>
      </trkpt>
      <trkpt lat="47.76175" lon="-3.36629">
        <ele>1.5</ele>
        <time>2020-08-21T08:51:01.000Z</time>
      </trkpt>
      <trkpt lat="47.76173" lon="-3.36628">
        <ele>1.5</ele>
        <time>2020-08-21T08:51:02.000Z</time>
      </trkpt>
      <trkpt lat="47.76172" lon="-3.36627">
        <ele>1.5</ele>
        <time>2020-08-21T08:51:03.000Z</time>
      </trkpt>
      <trkpt lat="47.76171" lon="-3.36626">
        <ele>1.5</ele>
        <time>2020-08-21T08:51:04.000Z</time>
      </trkpt>
      <trkpt lat="47.7617" lon="-3.36625">
        <ele>1.5</ele>
        <time>2020-08-21T08:51:05.000Z</time>
      </trkpt>
      <trkpt lat="47.76169" lon="-3.36625">
        <ele>1.4</ele>
        <time>2020-08-21T08:51:06.000Z</time>
      </trkpt>
      <trkpt lat="47.76168" lon="-3.36624">
        <ele>1.4</ele>
        <time>2020-08-21T08:51:07.000Z</time>
      </trkpt>
      <trkpt lat="47.76167" lon="-3.36623">
        <ele>1.4</ele>
        <time>2020-08-21T08:51:08.000Z</time>
      </trkpt>
      <trkpt lat="47.76165" lon="-3.36622">
        <ele>1.5</ele>
        <time>2020-08-21T08:51:09.000Z</time>
      </trkpt>
      <trkpt lat="47.76164" lon="-3.36621">
        <ele>1.5</ele>
        <time>2020-08-21T08:51:10.000Z</time>
      </trkpt>
      <trkpt lat="47.76163" lon="-3.3662">
        <ele>1.6</ele>
        <time>2020-08-21T08:51:11.000Z</time>
      </trkpt>
      <trkpt lat="47.76162" lon="-3.36619">
        <ele>1.7</ele>
        <time>2020-08-21T08:51:12.000Z</time>
      </trkpt>
      <trkpt lat="47.76161" lon="-3.36618">
        <ele>1.7</ele>
        <time>2020-08-21T08:51:13.000Z</time>
      </trkpt>
      <trkpt lat="47.7616" lon="-3.36617">
        <ele>1.8</ele>
        <time>2020-08-21T08:51:14.000Z</time>
      </trkpt>
      <trkpt lat="47.76158" lon="-3.36616">
        <ele>1.8</ele>
        <time>2020-08-21T08:51:15.000Z</time>
      </trkpt>
      <trkpt lat="47.76157" lon="-3.36615">
        <ele>1.9</ele>
        <time>2020-08-21T08:51:16.000Z</time>
      </trkpt>
      <trkpt lat="47.76156" lon="-3.36614">
        <ele>1.9</ele>
        <time>2020-08-21T08:51:17.000Z</time>
      </trkpt>
      <trkpt lat="47.76155" lon="-3.36613">
        <ele>2</ele>
        <time>2020-08-21T08:51:18.000Z</time>
      </trkpt>
      <trkpt lat="47.76154" lon="-3.36613">
        <ele>2</ele>
        <time>2020-08-21T08:51:19.000Z</time>
      </trkpt>
      <trkpt lat="47.76153" lon="-3.36612">
        <ele>2.1</ele>
        <time>2020-08-21T08:51:20.000Z</time>
      </trkpt>
      <trkpt lat="47.76152" lon="-3.36611">
        <ele>2.1</ele>
        <time>2020-08-21T08:51:21.000Z</time>
      </trkpt>
      <trkpt lat="47.76151" lon="-3.3661">
        <ele>2.1</ele>
        <time>2020-08-21T08:51:22.000Z</time>
      </trkpt>
      <trkpt lat="47.7615" lon="-3.36609">
        <ele>2.2</ele>
        <time>2020-08-21T08:51:23.000Z</time>
      </trkpt>
      <trkpt lat="47.76149" lon="-3.36608">
        <ele>2.2</ele>
        <time>2020-08-21T08:51:24.000Z</time>
      </trkpt>
      <trkpt lat="47.76148" lon="-3.36607">
        <ele>2.2</ele>
        <time>2020-08-21T08:51:25.000Z</time>
      </trkpt>
      <trkpt lat="47.76147" lon="-3.36606">
        <ele>2.3</ele>
        <time>2020-08-21T08:51:26.000Z</time>
      </trkpt>
      <trkpt lat="47.76146" lon="-3.36605">
        <ele>2.3</ele>
        <time>2020-08-21T08:51:27.000Z</time>
      </trkpt>
      <trkpt lat="47.76146" lon="-3.36604">
        <ele>2.3</ele>
        <time>2020-08-21T08:51:28.000Z</time>
      </trkpt>
      <trkpt lat="47.76145" lon="-3.36603">
        <ele>2.3</ele>
        <time>2020-08-21T08:51:29.000Z</time>
      </trkpt>
      <trkpt lat="47.76144" lon="-3.36602">
        <ele>2.4</ele>
        <time>2020-08-21T08:51:30.000Z</time>
      </trkpt>
      <trkpt lat="47.76143" lon="-3.36601">
        <ele>2.4</ele>
        <time>2020-08-21T08:51:31.000Z</time>
      </trkpt>
      <trkpt lat="47.76142" lon="-3.366">
        <ele>2.4</ele>
        <time>2020-08-21T08:51:32.000Z</time>
      </trkpt>
      <trkpt lat="47.76141" lon="-3.36599">
        <ele>2.4</ele>
        <time>2020-08-21T08:51:33.000Z</time>
      </trkpt>
      <trkpt lat="47.76141" lon="-3.36598">
        <ele>2.5</ele>
        <time>2020-08-21T08:51:34.000Z</time>
      </trkpt>
      <trkpt lat="47.7614" lon="-3.36597">
        <ele>2.5</ele>
        <time>2020-08-21T08:51:35.000Z</time>
      </trkpt>
      <trkpt lat="47.76139" lon="-3.36596">
        <ele>2.5</ele>
        <time>2020-08-21T08:51:36.000Z</time>
      </trkpt>
      <trkpt lat="47.76138" lon="-3.36595">
        <ele>2.5</ele>
        <time>2020-08-21T08:51:37.000Z</time>
      </trkpt>
      <trkpt lat="47.76137" lon="-3.36593">
        <ele>2.5</ele>
        <time>2020-08-21T08:51:38.000Z</time>
      </trkpt>
      <trkpt lat="47.76137" lon="-3.36592">
        <ele>2.5</ele>
        <time>2020-08-21T08:51:39.000Z</time>
      </trkpt>
      <trkpt lat="47.76136" lon="-3.36591">
        <ele>2.5</ele>
        <time>2020-08-21T08:51:40.000Z</time>
      </trkpt>
      <trkpt lat="47.76135" lon="-3.3659">
        <ele>2.5</ele>
        <time>2020-08-21T08:51:41.000Z</time>
      </trkpt>
      <trkpt lat="47.76134" lon="-3.36588">
        <ele>2.5</ele>
        <time>2020-08-21T08:51:42.000Z</time>
      </trkpt>
      <trkpt lat="47.76133" lon="-3.36587">
        <ele>2.6</ele>
        <time>2020-08-21T08:51:43.000Z</time>
      </trkpt>
      <trkpt lat="47.76132" lon="-3.36586">
        <ele>2.6</ele>
        <time>2020-08-21T08:51:44.000Z</time>
      </trkpt>
      <trkpt lat="47.76132" lon="-3.36585">
        <ele>2.6</ele>
        <time>2020-08-21T08:51:45.000Z</time>
      </trkpt>
      <trkpt lat="47.76131" lon="-3.36583">
        <ele>2.6</ele>
        <time>2020-08-21T08:51:46.000Z</time>
      </trkpt>
      <trkpt lat="47.7613" lon="-3.36582">
        <ele>2.6</ele>
        <time>2020-08-21T08:51:47.000Z</time>
      </trkpt>
      <trkpt lat="47.76129" lon="-3.36581">
        <ele>2.6</ele>
        <time>2020-08-21T08:51:48.000Z</time>
      </trkpt>
      <trkpt lat="47.76128" lon="-3.36579">
        <ele>2.6</ele>
        <time>2020-08-21T08:51:49.000Z</time>
      </trkpt>
      <trkpt lat="47.76127" lon="-3.36578">
        <ele>2.7</ele>
        <time>2020-08-21T08:51:50.000Z</time>
      </trkpt>
      <trkpt lat="47.76126" lon="-3.36576">
        <ele>2.7</ele>
        <time>2020-08-21T08:51:51.000Z</time>
      </trkpt>
      <trkpt lat="47.76125" lon="-3.36575">
        <ele>2.7</ele>
        <time>2020-08-21T08:51:52.000Z</time>
      </trkpt>
      <trkpt lat="47.76125" lon="-3.36574">
        <ele>2.7</ele>
        <time>2020-08-21T08:51:53.000Z</time>
      </trkpt>
      <trkpt lat="47.76124" lon="-3.36572">
        <ele>2.7</ele>
        <time>2020-08-21T08:51:54.000Z</time>
      </trkpt>
      <trkpt lat="47.76123" lon="-3.36571">
        <ele>2.7</ele>
        <time>2020-08-21T08:51:55.000Z</time>
      </trkpt>
      <trkpt lat="47.76122" lon="-3.36569">
        <ele>2.7</ele>
        <time>2020-08-21T08:51:56.000Z</time>
      </trkpt>
      <trkpt lat="47.76121" lon="-3.36568">
        <ele>2.7</ele>
        <time>2020-08-21T08:51:57.000Z</time>
      </trkpt>
      <trkpt lat="47.7612" lon="-3.36566">
        <ele>2.7</ele>
        <time>2020-08-21T08:51:58.000Z</time>
      </trkpt>
      <trkpt lat="47.76119" lon="-3.36565">
        <ele>2.7</ele>
        <time>2020-08-21T08:51:59.000Z</time>
      </trkpt>
      <trkpt lat="47.76118" lon="-3.36563">
        <ele>2.6</ele>
        <time>2020-08-21T08:52:00.000Z</time>
      </trkpt>
      <trkpt lat="47.76117" lon="-3.36562">
        <ele>2.6</ele>
        <time>2020-08-21T08:52:01.000Z</time>
      </trkpt>
      <trkpt lat="47.76117" lon="-3.3656">
        <ele>2.6</ele>
        <time>2020-08-21T08:52:02.000Z</time>
      </trkpt>
      <trkpt lat="47.76116" lon="-3.36558">
        <ele>2.6</ele>
        <time>2020-08-21T08:52:03.000Z</time>
      </trkpt>
      <trkpt lat="47.76115" lon="-3.36557">
        <ele>2.6</ele>
        <time>2020-08-21T08:52:04.000Z</time>
      </trkpt>
      <trkpt lat="47.76114" lon="-3.36555">
        <ele>2.5</ele>
        <time>2020-08-21T08:52:05.000Z</time>
      </trkpt>
      <trkpt lat="47.76113" lon="-3.36553">
        <ele>2.5</ele>
        <time>2020-08-21T08:52:06.000Z</time>
      </trkpt>
      <trkpt lat="47.76112" lon="-3.36552">
        <ele>2.4</ele>
        <time>2020-08-21T08:52:07.000Z</time>
      </trkpt>
      <trkpt lat="47.76112" lon="-3.3655">
        <ele>2.4</ele>
        <time>2020-08-21T08:52:08.000Z</time>
      </trkpt>
      <trkpt lat="47.76111" lon="-3.36549">
        <ele>2.4</ele>
        <time>2020-08-21T08:52:09.000Z</time>
      </trkpt>
      <trkpt lat="47.7611" lon="-3.36547">
        <ele>2.3</ele>
        <time>2020-08-21T08:52:10.000Z</time>
      </trkpt>
      <trkpt lat="47.7611" lon="-3.36546">
        <ele>2.3</ele>
        <time>2020-08-21T08:52:11.000Z</time>
      </trkpt>
      <trkpt lat="47.76109" lon="-3.36545">
        <ele>2.2</ele>
        <time>2020-08-21T08:52:12.000Z</time>
      </trkpt>
      <trkpt lat="47.76109" lon="-3.36543">
        <ele>2.1</ele>
        <time>2020-08-21T08:52:13.000Z</time>
      </trkpt>
      <trkpt lat="47.76109" lon="-3.36542">
        <ele>2.1</ele>
        <time>2020-08-21T08:52:14.000Z</time>
      </trkpt>
      <trkpt lat="47.76108" lon="-3.3654">
        <ele>2</ele>
        <time>2020-08-21T08:52:15.000Z</time>
      </trkpt>
      <trkpt lat="47.76108" lon="-3.36538">
        <ele>2</ele>
        <time>2020-08-21T08:52:16.000Z</time>
      </trkpt>
      <trkpt lat="47.76107" lon="-3.36537">
        <ele>1.9</ele>
        <time>2020-08-21T08:52:17.000Z</time>
      </trkpt>
      <trkpt lat="47.76107" lon="-3.36535">
        <ele>1.8</ele>
        <time>2020-08-21T08:52:18.000Z</time>
      </trkpt>
      <trkpt lat="47.76106" lon="-3.36533">
        <ele>1.8</ele>
        <time>2020-08-21T08:52:19.000Z</time>
      </trkpt>
      <trkpt lat="47.76105" lon="-3.36532">
        <ele>1.7</ele>
        <time>2020-08-21T08:52:20.000Z</time>
      </trkpt>
      <trkpt lat="47.76105" lon="-3.3653">
        <ele>1.6</ele>
        <time>2020-08-21T08:52:21.000Z</time>
      </trkpt>
      <trkpt lat="47.76104" lon="-3.36528">
        <ele>1.5</ele>
        <time>2020-08-21T08:52:22.000Z</time>
      </trkpt>
      <trkpt lat="47.76104" lon="-3.36527">
        <ele>1.5</ele>
        <time>2020-08-21T08:52:23.000Z</time>
      </trkpt>
      <trkpt lat="47.76103" lon="-3.36525">
        <ele>1.4</ele>
        <time>2020-08-21T08:52:24.000Z</time>
      </trkpt>
      <trkpt lat="47.76102" lon="-3.36524">
        <ele>1.3</ele>
        <time>2020-08-21T08:52:25.000Z</time>
      </trkpt>
      <trkpt lat="47.76102" lon="-3.36522">
        <ele>1.2</ele>
        <time>2020-08-21T08:52:26.000Z</time>
      </trkpt>
      <trkpt lat="47.76101" lon="-3.36521">
        <ele>1.2</ele>
        <time>2020-08-21T08:52:27.000Z</time>
      </trkpt>
      <trkpt lat="47.761" lon="-3.36519">
        <ele>1.1</ele>
        <time>2020-08-21T08:52:28.000Z</time>
      </trkpt>
      <trkpt lat="47.761" lon="-3.36518">
        <ele>1</ele>
        <time>2020-08-21T08:52:29.000Z</time>
      </trkpt>
      <trkpt lat="47.76099" lon="-3.36516">
        <ele>1</ele>
        <time>2020-08-21T08:52:30.000Z</time>
      </trkpt>
      <trkpt lat="47.76098" lon="-3.36515">
        <ele>0.9</ele>
        <time>2020-08-21T08:52:31.000Z</time>
      </trkpt>
      <trkpt lat="47.76098" lon="-3.36514">
        <ele>0.8</ele>
        <time>2020-08-21T08:52:32.000Z</time>
      </trkpt>
      <trkpt lat="47.76097" lon="-3.36512">
        <ele>0.7</ele>
        <time>2020-08-21T08:52:33.000Z</time>
      </trkpt>
      <trkpt lat="47.76096" lon="-3.36511">
        <ele>0.7</ele>
        <time>2020-08-21T08:52:34.000Z</time>
      </trkpt>
      <trkpt lat="47.76095" lon="-3.36509">
        <ele>0.6</ele>
        <time>2020-08-21T08:52:35.000Z</time>
      </trkpt>
      <trkpt lat="47.76094" lon="-3.36508">
        <ele>0.5</ele>
        <time>2020-08-21T08:52:36.000Z</time>
      </trkpt>
      <trkpt lat="47.76093" lon="-3.36507">
        <ele>0.4</ele>
        <time>2020-08-21T08:52:37.000Z</time>
      </trkpt>
      <trkpt lat="47.76092" lon="-3.36505">
        <ele>0.3</ele>
        <time>2020-08-21T08:52:38.000Z</time>
      </trkpt>
      <trkpt lat="47.76091" lon="-3.36504">
        <ele>0.2</ele>
        <time>2020-08-21T08:52:39.000Z</time>
      </trkpt>
      <trkpt lat="47.76091" lon="-3.36502">
        <ele>0.1</ele>
        <time>2020-08-21T08:52:40.000Z</time>
      </trkpt>
      <trkpt lat="47.7609" lon="-3.36501">
        <ele>6</ele>
        <time>2020-08-21T08:52:41.000Z</time>
      </trkpt>
      <trkpt lat="47.76089" lon="-3.36499">
        <ele>3.5</ele>
        <time>2020-08-21T08:52:42.000Z</time>
      </trkpt>
      <trkpt lat="47.76088" lon="-3.36498">
        <ele>3.5</ele>
        <time>2020-08-21T08:52:43.000Z</time>
      </trkpt>
      <trkpt lat="47.76087" lon="-3.36497">
        <ele>3.5</ele>
        <time>2020-08-21T08:52:44.000Z</time>
      </trkpt>
      <trkpt lat="47.76086" lon="-3.36495">
        <ele>3.5</ele>
        <time>2020-08-21T08:52:45.000Z</time>
      </trkpt>
      <trkpt lat="47.76085" lon="-3.36494">
        <ele>3.5</ele>
        <time>2020-08-21T08:52:46.000Z</time>
      </trkpt>
      <trkpt lat="47.76084" lon="-3.36493">
        <ele>3.5</ele>
        <time>2020-08-21T08:52:47.000Z</time>
      </trkpt>
      <trkpt lat="47.76084" lon="-3.36491">
        <ele>3.3</ele>
        <time>2020-08-21T08:52:48.000Z</time>
      </trkpt>
      <trkpt lat="47.76083" lon="-3.3649">
        <ele>0.1</ele>
        <time>2020-08-21T08:52:49.000Z</time>
      </trkpt>
      <trkpt lat="47.76082" lon="-3.36488">
        <ele>0.1</ele>
        <time>2020-08-21T08:52:50.000Z</time>
      </trkpt>
      <trkpt lat="47.76081" lon="-3.36487">
        <ele>0.2</ele>
        <time>2020-08-21T08:52:51.000Z</time>
      </trkpt>
      <trkpt lat="47.7608" lon="-3.36485">
        <ele>0.2</ele>
        <time>2020-08-21T08:52:52.000Z</time>
      </trkpt>
      <trkpt lat="47.7608" lon="-3.36483">
        <ele>0.3</ele>
        <time>2020-08-21T08:52:53.000Z</time>
      </trkpt>
      <trkpt lat="47.76079" lon="-3.36481">
        <ele>0.3</ele>
        <time>2020-08-21T08:52:54.000Z</time>
      </trkpt>
      <trkpt lat="47.76078" lon="-3.36479">
        <ele>0.4</ele>
        <time>2020-08-21T08:52:55.000Z</time>
      </trkpt>
      <trkpt lat="47.76078" lon="-3.36478">
        <ele>0.4</ele>
        <time>2020-08-21T08:52:56.000Z</time>
      </trkpt>
      <trkpt lat="47.76077" lon="-3.36476">
        <ele>0.4</ele>
        <time>2020-08-21T08:52:57.000Z</time>
      </trkpt>
      <trkpt lat="47.76076" lon="-3.36474">
        <ele>0.5</ele>
        <time>2020-08-21T08:52:58.000Z</time>
      </trkpt>
      <trkpt lat="47.76076" lon="-3.36472">
        <ele>0.5</ele>
        <time>2020-08-21T08:52:59.000Z</time>
      </trkpt>
      <trkpt lat="47.76075" lon="-3.3647">
        <ele>0.5</ele>
        <time>2020-08-21T08:53:00.000Z</time>
      </trkpt>
      <trkpt lat="47.76075" lon="-3.36468">
        <ele>0.5</ele>
        <time>2020-08-21T08:53:01.000Z</time>
      </trkpt>
      <trkpt lat="47.76074" lon="-3.36466">
        <ele>0.5</ele>
        <time>2020-08-21T08:53:02.000Z</time>
      </trkpt>
      <trkpt lat="47.76074" lon="-3.36464">
        <ele>0.5</ele>
        <time>2020-08-21T08:53:03.000Z</time>
      </trkpt>
      <trkpt lat="47.76073" lon="-3.36462">
        <ele>0.5</ele>
        <time>2020-08-21T08:53:04.000Z</time>
      </trkpt>
      <trkpt lat="47.76073" lon="-3.36461">
        <ele>0.5</ele>
        <time>2020-08-21T08:53:05.000Z</time>
      </trkpt>
      <trkpt lat="47.76072" lon="-3.36459">
        <ele>0.5</ele>
        <time>2020-08-21T08:53:06.000Z</time>
      </trkpt>
      <trkpt lat="47.76072" lon="-3.36457">
        <ele>0.5</ele>
        <time>2020-08-21T08:53:07.000Z</time>
      </trkpt>
      <trkpt lat="47.76071" lon="-3.36455">
        <ele>0.5</ele>
        <time>2020-08-21T08:53:08.000Z</time>
      </trkpt>
      <trkpt lat="47.76071" lon="-3.36453">
        <ele>0.5</ele>
        <time>2020-08-21T08:53:09.000Z</time>
      </trkpt>
      <trkpt lat="47.76071" lon="-3.36451">
        <ele>0.5</ele>
        <time>2020-08-21T08:53:10.000Z</time>
      </trkpt>
      <trkpt lat="47.7607" lon="-3.3645">
        <ele>0.5</ele>
        <time>2020-08-21T08:53:11.000Z</time>
      </trkpt>
      <trkpt lat="47.7607" lon="-3.36448">
        <ele>0.5</ele>
        <time>2020-08-21T08:53:12.000Z</time>
      </trkpt>
      <trkpt lat="47.76069" lon="-3.36446">
        <ele>0.5</ele>
        <time>2020-08-21T08:53:13.000Z</time>
      </trkpt>
      <trkpt lat="47.76069" lon="-3.36444">
        <ele>0.5</ele>
        <time>2020-08-21T08:53:14.000Z</time>
      </trkpt>
      <trkpt lat="47.76068" lon="-3.36443">
        <ele>0.5</ele>
        <time>2020-08-21T08:53:15.000Z</time>
      </trkpt>
      <trkpt lat="47.76067" lon="-3.36441">
        <ele>0.4</ele>
        <time>2020-08-21T08:53:16.000Z</time>
      </trkpt>
      <trkpt lat="47.76067" lon="-3.36439">
        <ele>0.4</ele>
        <time>2020-08-21T08:53:17.000Z</time>
      </trkpt>
      <trkpt lat="47.76066" lon="-3.36437">
        <ele>0.4</ele>
        <time>2020-08-21T08:53:18.000Z</time>
      </trkpt>
      <trkpt lat="47.76065" lon="-3.36436">
        <ele>0.4</ele>
        <time>2020-08-21T08:53:19.000Z</time>
      </trkpt>
      <trkpt lat="47.76065" lon="-3.36434">
        <ele>0.4</ele>
        <time>2020-08-21T08:53:20.000Z</time>
      </trkpt>
      <trkpt lat="47.76064" lon="-3.36432">
        <ele>0.4</ele>
        <time>2020-08-21T08:53:21.000Z</time>
      </trkpt>
      <trkpt lat="47.76063" lon="-3.36431">
        <ele>0.3</ele>
        <time>2020-08-21T08:53:22.000Z</time>
      </trkpt>
      <trkpt lat="47.76062" lon="-3.36429">
        <ele>0.3</ele>
        <time>2020-08-21T08:53:23.000Z</time>
      </trkpt>
      <trkpt lat="47.76061" lon="-3.36428">
        <ele>0.3</ele>
        <time>2020-08-21T08:53:24.000Z</time>
      </trkpt>
      <trkpt lat="47.76061" lon="-3.36426">
        <ele>0.2</ele>
        <time>2020-08-21T08:53:25.000Z</time>
      </trkpt>
      <trkpt lat="47.7606" lon="-3.36424">
        <ele>0.2</ele>
        <time>2020-08-21T08:53:26.000Z</time>
      </trkpt>
      <trkpt lat="47.76059" lon="-3.36423">
        <ele>0.2</ele>
        <time>2020-08-21T08:53:27.000Z</time>
      </trkpt>
      <trkpt lat="47.76058" lon="-3.36421">
        <ele>0.1</ele>
        <time>2020-08-21T08:53:28.000Z</time>
      </trkpt>
      <trkpt lat="47.76057" lon="-3.3642">
        <ele>0.1</ele>
        <time>2020-08-21T08:53:29.000Z</time>
      </trkpt>
      <trkpt lat="47.76056" lon="-3.36418">
        <ele>8</ele>
        <time>2020-08-21T08:53:30.000Z</time>
      </trkpt>
      <trkpt lat="47.76055" lon="-3.36417">
        <ele>8</ele>
        <time>2020-08-21T08:53:31.000Z</time>
      </trkpt>
      <trkpt lat="47.76054" lon="-3.36415">
        <ele>3</ele>
        <time>2020-08-21T08:53:32.000Z</time>
      </trkpt>
      <trkpt lat="47.76053" lon="-3.36414">
        <ele>3</ele>
        <time>2020-08-21T08:53:33.000Z</time>
      </trkpt>
      <trkpt lat="47.76052" lon="-3.36413">
        <ele>3</ele>
        <time>2020-08-21T08:53:34.000Z</time>
      </trkpt>
      <trkpt lat="47.76051" lon="-3.36412">
        <ele>3</ele>
        <time>2020-08-21T08:53:35.000Z</time>
      </trkpt>
      <trkpt lat="47.7605" lon="-3.3641">
        <ele>3</ele>
        <time>2020-08-21T08:53:36.000Z</time>
      </trkpt>
      <trkpt lat="47.76049" lon="-3.36409">
        <ele>3</ele>
        <time>2020-08-21T08:53:37.000Z</time>
      </trkpt>
      <trkpt lat="47.76049" lon="-3.36408">
        <ele>3</ele>
        <time>2020-08-21T08:53:38.000Z</time>
      </trkpt>
      <trkpt lat="47.76048" lon="-3.36407">
        <ele>3</ele>
        <time>2020-08-21T08:53:39.000Z</time>
      </trkpt>
      <trkpt lat="47.76047" lon="-3.36405">
        <ele>3</ele>
        <time>2020-08-21T08:53:40.000Z</time>
      </trkpt>
      <trkpt lat="47.76046" lon="-3.36404">
        <ele>3</ele>
        <time>2020-08-21T08:53:41.000Z</time>
      </trkpt>
      <trkpt lat="47.76046" lon="-3.36403">
        <ele>3</ele>
        <time>2020-08-21T08:53:42.000Z</time>
      </trkpt>
      <trkpt lat="47.76045" lon="-3.36401">
        <ele>3</ele>
        <time>2020-08-21T08:53:43.000Z</time>
      </trkpt>
      <trkpt lat="47.76044" lon="-3.364">
        <ele>3.1</ele>
        <time>2020-08-21T08:53:44.000Z</time>
      </trkpt>
      <trkpt lat="47.76044" lon="-3.36398">
        <ele>3</ele>
        <time>2020-08-21T08:53:45.000Z</time>
      </trkpt>
      <trkpt lat="47.76044" lon="-3.36397">
        <ele>3</ele>
        <time>2020-08-21T08:53:46.000Z</time>
      </trkpt>
      <trkpt lat="47.76043" lon="-3.36396">
        <ele>3</ele>
        <time>2020-08-21T08:53:47.000Z</time>
      </trkpt>
      <trkpt lat="47.76043" lon="-3.36394">
        <ele>3</ele>
        <time>2020-08-21T08:53:48.000Z</time>
      </trkpt>
      <trkpt lat="47.76042" lon="-3.36393">
        <ele>3.1</ele>
        <time>2020-08-21T08:53:49.000Z</time>
      </trkpt>
      <trkpt lat="47.76042" lon="-3.36391">
        <ele>3</ele>
        <time>2020-08-21T08:53:50.000Z</time>
      </trkpt>
      <trkpt lat="47.76041" lon="-3.3639">
        <ele>3.1</ele>
        <time>2020-08-21T08:53:51.000Z</time>
      </trkpt>
      <trkpt lat="47.7604" lon="-3.36389">
        <ele>3.1</ele>
        <time>2020-08-21T08:53:52.000Z</time>
      </trkpt>
      <trkpt lat="47.7604" lon="-3.36388">
        <ele>3.1</ele>
        <time>2020-08-21T08:53:53.000Z</time>
      </trkpt>
      <trkpt lat="47.76039" lon="-3.36387">
        <ele>3.2</ele>
        <time>2020-08-21T08:53:54.000Z</time>
      </trkpt>
      <trkpt lat="47.76038" lon="-3.36386">
        <ele>3.2</ele>
        <time>2020-08-21T08:53:55.000Z</time>
      </trkpt>
      <trkpt lat="47.76037" lon="-3.36385">
        <ele>3.2</ele>
        <time>2020-08-21T08:53:56.000Z</time>
      </trkpt>
      <trkpt lat="47.76036" lon="-3.36383">
        <ele>3.3</ele>
        <time>2020-08-21T08:53:57.000Z</time>
      </trkpt>
      <trkpt lat="47.76035" lon="-3.36382">
        <ele>3.3</ele>
        <time>2020-08-21T08:53:58.000Z</time>
      </trkpt>
      <trkpt lat="47.76033" lon="-3.36381">
        <ele>3.4</ele>
        <time>2020-08-21T08:53:59.000Z</time>
      </trkpt>
      <trkpt lat="47.76032" lon="-3.3638">
        <ele>3.4</ele>
        <time>2020-08-21T08:54:00.000Z</time>
      </trkpt>
      <trkpt lat="47.76031" lon="-3.36378">
        <ele>3.4</ele>
        <time>2020-08-21T08:54:01.000Z</time>
      </trkpt>
      <trkpt lat="47.7603" lon="-3.36377">
        <ele>3.4</ele>
        <time>2020-08-21T08:54:02.000Z</time>
      </trkpt>
      <trkpt lat="47.76028" lon="-3.36376">
        <ele>3.5</ele>
        <time>2020-08-21T08:54:03.000Z</time>
      </trkpt>
      <trkpt lat="47.76027" lon="-3.36374">
        <ele>3.5</ele>
        <time>2020-08-21T08:54:04.000Z</time>
      </trkpt>
      <trkpt lat="47.76026" lon="-3.36373">
        <ele>3.5</ele>
        <time>2020-08-21T08:54:05.000Z</time>
      </trkpt>
      <trkpt lat="47.76024" lon="-3.36372">
        <ele>3.5</ele>
        <time>2020-08-21T08:54:06.000Z</time>
      </trkpt>
      <trkpt lat="47.76023" lon="-3.3637">
        <ele>3.5</ele>
        <time>2020-08-21T08:54:07.000Z</time>
      </trkpt>
      <trkpt lat="47.76022" lon="-3.36369">
        <ele>3.5</ele>
        <time>2020-08-21T08:54:08.000Z</time>
      </trkpt>
      <trkpt lat="47.76021" lon="-3.36368">
        <ele>3.5</ele>
        <time>2020-08-21T08:54:09.000Z</time>
      </trkpt>
      <trkpt lat="47.7602" lon="-3.36366">
        <ele>3.5</ele>
        <time>2020-08-21T08:54:10.000Z</time>
      </trkpt>
      <trkpt lat="47.76019" lon="-3.36365">
        <ele>3.5</ele>
        <time>2020-08-21T08:54:11.000Z</time>
      </trkpt>
      <trkpt lat="47.76018" lon="-3.36364">
        <ele>3.5</ele>
        <time>2020-08-21T08:54:12.000Z</time>
      </trkpt>
      <trkpt lat="47.76016" lon="-3.36362">
        <ele>3.5</ele>
        <time>2020-08-21T08:54:13.000Z</time>
      </trkpt>
      <trkpt lat="47.76015" lon="-3.36361">
        <ele>3.5</ele>
        <time>2020-08-21T08:54:14.000Z</time>
      </trkpt>
      <trkpt lat="47.76014" lon="-3.3636">
        <ele>3.5</ele>
        <time>2020-08-21T08:54:15.000Z</time>
      </trkpt>
      <trkpt lat="47.76013" lon="-3.36359">
        <ele>3.5</ele>
        <time>2020-08-21T08:54:16.000Z</time>
      </trkpt>
      <trkpt lat="47.76012" lon="-3.36357">
        <ele>3.4</ele>
        <time>2020-08-21T08:54:17.000Z</time>
      </trkpt>
      <trkpt lat="47.76011" lon="-3.36356">
        <ele>3.4</ele>
        <time>2020-08-21T08:54:18.000Z</time>
      </trkpt>
      <trkpt lat="47.7601" lon="-3.36355">
        <ele>3.4</ele>
        <time>2020-08-21T08:54:19.000Z</time>
      </trkpt>
      <trkpt lat="47.76009" lon="-3.36354">
        <ele>3.4</ele>
        <time>2020-08-21T08:54:20.000Z</time>
      </trkpt>
      <trkpt lat="47.76008" lon="-3.36353">
        <ele>3.4</ele>
        <time>2020-08-21T08:54:21.000Z</time>
      </trkpt>
      <trkpt lat="47.76007" lon="-3.36352">
        <ele>3.4</ele>
        <time>2020-08-21T08:54:22.000Z</time>
      </trkpt>
      <trkpt lat="47.76006" lon="-3.36351">
        <ele>3.4</ele>
        <time>2020-08-21T08:54:23.000Z</time>
      </trkpt>
      <trkpt lat="47.76005" lon="-3.3635">
        <ele>3.4</ele>
        <time>2020-08-21T08:54:24.000Z</time>
      </trkpt>
      <trkpt lat="47.76004" lon="-3.36349">
        <ele>3.4</ele>
        <time>2020-08-21T08:54:25.000Z</time>
      </trkpt>
      <trkpt lat="47.76003" lon="-3.36348">
        <ele>3.4</ele>
        <time>2020-08-21T08:54:26.000Z</time>
      </trkpt>
      <trkpt lat="47.76002" lon="-3.36347">
        <ele>3.4</ele>
        <time>2020-08-21T08:54:27.000Z</time>
      </trkpt>
      <trkpt lat="47.76001" lon="-3.36346">
        <ele>3.4</ele>
        <time>2020-08-21T08:54:28.000Z</time>
      </trkpt>
      <trkpt lat="47.76" lon="-3.36345">
        <ele>4</ele>
        <time>2020-08-21T08:54:29.000Z</time>
      </trkpt>
      <trkpt lat="47.75999" lon="-3.36344">
        <ele>0.1</ele>
        <time>2020-08-21T08:54:30.000Z</time>
      </trkpt>
      <trkpt lat="47.75998" lon="-3.36343">
        <ele>0.1</ele>
        <time>2020-08-21T08:54:31.000Z</time>
      </trkpt>
      <trkpt lat="47.75996" lon="-3.36342">
        <ele>0.2</ele>
        <time>2020-08-21T08:54:32.000Z</time>
      </trkpt>
      <trkpt lat="47.75995" lon="-3.36341">
        <ele>0.2</ele>
        <time>2020-08-21T08:54:33.000Z</time>
      </trkpt>
      <trkpt lat="47.75994" lon="-3.36341">
        <ele>0.3</ele>
        <time>2020-08-21T08:54:34.000Z</time>
      </trkpt>
      <trkpt lat="47.75993" lon="-3.3634">
        <ele>0.3</ele>
        <time>2020-08-21T08:54:35.000Z</time>
      </trkpt>
      <trkpt lat="47.75992" lon="-3.36339">
        <ele>0.4</ele>
        <time>2020-08-21T08:54:36.000Z</time>
      </trkpt>
      <trkpt lat="47.75991" lon="-3.36338">
        <ele>0.4</ele>
        <time>2020-08-21T08:54:37.000Z</time>
      </trkpt>
      <trkpt lat="47.7599" lon="-3.36337">
        <ele>0.5</ele>
        <time>2020-08-21T08:54:38.000Z</time>
      </trkpt>
      <trkpt lat="47.75989" lon="-3.36336">
        <ele>0.5</ele>
        <time>2020-08-21T08:54:39.000Z</time>
      </trkpt>
      <trkpt lat="47.75988" lon="-3.36335">
        <ele>0.6</ele>
        <time>2020-08-21T08:54:40.000Z</time>
      </trkpt>
      <trkpt lat="47.75987" lon="-3.36335">
        <ele>0.6</ele>
        <time>2020-08-21T08:54:41.000Z</time>
      </trkpt>
      <trkpt lat="47.75985" lon="-3.36334">
        <ele>0.7</ele>
        <time>2020-08-21T08:54:42.000Z</time>
      </trkpt>
      <trkpt lat="47.75984" lon="-3.36333">
        <ele>0.7</ele>
        <time>2020-08-21T08:54:43.000Z</time>
      </trkpt>
      <trkpt lat="47.75983" lon="-3.36332">
        <ele>0.8</ele>
        <time>2020-08-21T08:54:44.000Z</time>
      </trkpt>
      <trkpt lat="47.75982" lon="-3.36331">
        <ele>0.8</ele>
        <time>2020-08-21T08:54:45.000Z</time>
      </trkpt>
      <trkpt lat="47.75981" lon="-3.3633">
        <ele>0.9</ele>
        <time>2020-08-21T08:54:46.000Z</time>
      </trkpt>
      <trkpt lat="47.7598" lon="-3.36329">
        <ele>0.9</ele>
        <time>2020-08-21T08:54:47.000Z</time>
      </trkpt>
      <trkpt lat="47.75979" lon="-3.36329">
        <ele>1</ele>
        <time>2020-08-21T08:54:48.000Z</time>
      </trkpt>
      <trkpt lat="47.75977" lon="-3.36328">
        <ele>1</ele>
        <time>2020-08-21T08:54:49.000Z</time>
      </trkpt>
      <trkpt lat="47.75976" lon="-3.36327">
        <ele>1.1</ele>
        <time>2020-08-21T08:54:50.000Z</time>
      </trkpt>
      <trkpt lat="47.75975" lon="-3.36326">
        <ele>1.1</ele>
        <time>2020-08-21T08:54:51.000Z</time>
      </trkpt>
      <trkpt lat="47.75974" lon="-3.36325">
        <ele>1.1</ele>
        <time>2020-08-21T08:54:52.000Z</time>
      </trkpt>
      <trkpt lat="47.75972" lon="-3.36324">
        <ele>1.2</ele>
        <time>2020-08-21T08:54:53.000Z</time>
      </trkpt>
      <trkpt lat="47.75971" lon="-3.36323">
        <ele>1.2</ele>
        <time>2020-08-21T08:54:54.000Z</time>
      </trkpt>
      <trkpt lat="47.7597" lon="-3.36322">
        <ele>1.3</ele>
        <time>2020-08-21T08:54:55.000Z</time>
      </trkpt>
      <trkpt lat="47.75969" lon="-3.36322">
        <ele>1.3</ele>
        <time>2020-08-21T08:54:56.000Z</time>
      </trkpt>
      <trkpt lat="47.75967" lon="-3.36321">
        <ele>1.3</ele>
        <time>2020-08-21T08:54:57.000Z</time>
      </trkpt>
      <trkpt lat="47.75966" lon="-3.3632">
        <ele>1.4</ele>
        <time>2020-08-21T08:54:58.000Z</time>
      </trkpt>
      <trkpt lat="47.75965" lon="-3.36319">
        <ele>1.4</ele>
        <time>2020-08-21T08:54:59.000Z</time>
      </trkpt>
      <trkpt lat="47.75963" lon="-3.36318">
        <ele>1.4</ele>
        <time>2020-08-21T08:55:00.000Z</time>
      </trkpt>
      <trkpt lat="47.75962" lon="-3.36317">
        <ele>1.5</ele>
        <time>2020-08-21T08:55:01.000Z</time>
      </trkpt>
      <trkpt lat="47.75961" lon="-3.36316">
        <ele>1.5</ele>
        <time>2020-08-21T08:55:02.000Z</time>
      </trkpt>
      <trkpt lat="47.7596" lon="-3.36316">
        <ele>1.5</ele>
        <time>2020-08-21T08:55:03.000Z</time>
      </trkpt>
      <trkpt lat="47.75959" lon="-3.36315">
        <ele>1.5</ele>
        <time>2020-08-21T08:55:04.000Z</time>
      </trkpt>
      <trkpt lat="47.75957" lon="-3.36314">
        <ele>1.6</ele>
        <time>2020-08-21T08:55:05.000Z</time>
      </trkpt>
      <trkpt lat="47.75956" lon="-3.36313">
        <ele>1.6</ele>
        <time>2020-08-21T08:55:06.000Z</time>
      </trkpt>
      <trkpt lat="47.75955" lon="-3.36312">
        <ele>1.6</ele>
        <time>2020-08-21T08:55:07.000Z</time>
      </trkpt>
      <trkpt lat="47.75954" lon="-3.36312">
        <ele>1.6</ele>
        <time>2020-08-21T08:55:08.000Z</time>
      </trkpt>
      <trkpt lat="47.75953" lon="-3.36311">
        <ele>1.7</ele>
        <time>2020-08-21T08:55:09.000Z</time>
      </trkpt>
      <trkpt lat="47.75951" lon="-3.3631">
        <ele>1.7</ele>
        <time>2020-08-21T08:55:10.000Z</time>
      </trkpt>
      <trkpt lat="47.7595" lon="-3.36309">
        <ele>1.7</ele>
        <time>2020-08-21T08:55:11.000Z</time>
      </trkpt>
      <trkpt lat="47.75949" lon="-3.36308">
        <ele>1.7</ele>
        <time>2020-08-21T08:55:12.000Z</time>
      </trkpt>
      <trkpt lat="47.75948" lon="-3.36307">
        <ele>1.7</ele>
        <time>2020-08-21T08:55:13.000Z</time>
      </trkpt>
      <trkpt lat="47.75947" lon="-3.36305">
        <ele>1.7</ele>
        <time>2020-08-21T08:55:14.000Z</time>
      </trkpt>
      <trkpt lat="47.75946" lon="-3.36304">
        <ele>1.7</ele>
        <time>2020-08-21T08:55:15.000Z</time>
      </trkpt>
      <trkpt lat="47.75944" lon="-3.36303">
        <ele>1.7</ele>
        <time>2020-08-21T08:55:16.000Z</time>
      </trkpt>
      <trkpt lat="47.75943" lon="-3.36302">
        <ele>1.7</ele>
        <time>2020-08-21T08:55:17.000Z</time>
      </trkpt>
      <trkpt lat="47.75942" lon="-3.363">
        <ele>1.7</ele>
        <time>2020-08-21T08:55:18.000Z</time>
      </trkpt>
      <trkpt lat="47.75941" lon="-3.36299">
        <ele>1.7</ele>
        <time>2020-08-21T08:55:19.000Z</time>
      </trkpt>
      <trkpt lat="47.7594" lon="-3.36298">
        <ele>1.7</ele>
        <time>2020-08-21T08:55:20.000Z</time>
      </trkpt>
      <trkpt lat="47.75939" lon="-3.36297">
        <ele>1.7</ele>
        <time>2020-08-21T08:55:21.000Z</time>
      </trkpt>
      <trkpt lat="47.75937" lon="-3.36296">
        <ele>1.6</ele>
        <time>2020-08-21T08:55:22.000Z</time>
      </trkpt>
      <trkpt lat="47.75936" lon="-3.36295">
        <ele>1.6</ele>
        <time>2020-08-21T08:55:23.000Z</time>
      </trkpt>
      <trkpt lat="47.75935" lon="-3.36294">
        <ele>1.6</ele>
        <time>2020-08-21T08:55:24.000Z</time>
      </trkpt>
      <trkpt lat="47.75934" lon="-3.36293">
        <ele>1.6</ele>
        <time>2020-08-21T08:55:25.000Z</time>
      </trkpt>
      <trkpt lat="47.75933" lon="-3.36292">
        <ele>1.6</ele>
        <time>2020-08-21T08:55:26.000Z</time>
      </trkpt>
      <trkpt lat="47.75932" lon="-3.36292">
        <ele>1.6</ele>
        <time>2020-08-21T08:55:27.000Z</time>
      </trkpt>
      <trkpt lat="47.7593" lon="-3.36291">
        <ele>1.7</ele>
        <time>2020-08-21T08:55:28.000Z</time>
      </trkpt>
      <trkpt lat="47.75929" lon="-3.36291">
        <ele>1.7</ele>
        <time>2020-08-21T08:55:29.000Z</time>
      </trkpt>
      <trkpt lat="47.75928" lon="-3.3629">
        <ele>1.7</ele>
        <time>2020-08-21T08:55:30.000Z</time>
      </trkpt>
      <trkpt lat="47.75927" lon="-3.3629">
        <ele>1.7</ele>
        <time>2020-08-21T08:55:31.000Z</time>
      </trkpt>
      <trkpt lat="47.75926" lon="-3.3629">
        <ele>1.7</ele>
        <time>2020-08-21T08:55:32.000Z</time>
      </trkpt>
      <trkpt lat="47.75925" lon="-3.36289">
        <ele>1.7</ele>
        <time>2020-08-21T08:55:33.000Z</time>
      </trkpt>
      <trkpt lat="47.75923" lon="-3.36289">
        <ele>1.7</ele>
        <time>2020-08-21T08:55:34.000Z</time>
      </trkpt>
      <trkpt lat="47.75922" lon="-3.36288">
        <ele>1.7</ele>
        <time>2020-08-21T08:55:35.000Z</time>
      </trkpt>
      <trkpt lat="47.75921" lon="-3.36287">
        <ele>1.7</ele>
        <time>2020-08-21T08:55:36.000Z</time>
      </trkpt>
      <trkpt lat="47.7592" lon="-3.36287">
        <ele>1.7</ele>
        <time>2020-08-21T08:55:37.000Z</time>
      </trkpt>
      <trkpt lat="47.75919" lon="-3.36286">
        <ele>1.7</ele>
        <time>2020-08-21T08:55:38.000Z</time>
      </trkpt>
      <trkpt lat="47.75917" lon="-3.36285">
        <ele>1.7</ele>
        <time>2020-08-21T08:55:39.000Z</time>
      </trkpt>
      <trkpt lat="47.75916" lon="-3.36284">
        <ele>1.7</ele>
        <time>2020-08-21T08:55:40.000Z</time>
      </trkpt>
      <trkpt lat="47.75915" lon="-3.36283">
        <ele>1.7</ele>
        <time>2020-08-21T08:55:41.000Z</time>
      </trkpt>
      <trkpt lat="47.75914" lon="-3.36282">
        <ele>1.8</ele>
        <time>2020-08-21T08:55:42.000Z</time>
      </trkpt>
      <trkpt lat="47.75913" lon="-3.36282">
        <ele>1.8</ele>
        <time>2020-08-21T08:55:43.000Z</time>
      </trkpt>
      <trkpt lat="47.75911" lon="-3.36281">
        <ele>1.9</ele>
        <time>2020-08-21T08:55:44.000Z</time>
      </trkpt>
      <trkpt lat="47.7591" lon="-3.3628">
        <ele>1.9</ele>
        <time>2020-08-21T08:55:45.000Z</time>
      </trkpt>
      <trkpt lat="47.75909" lon="-3.3628">
        <ele>2</ele>
        <time>2020-08-21T08:55:46.000Z</time>
      </trkpt>
      <trkpt lat="47.75908" lon="-3.36279">
        <ele>2</ele>
        <time>2020-08-21T08:55:47.000Z</time>
      </trkpt>
      <trkpt lat="47.75907" lon="-3.36279">
        <ele>2.1</ele>
        <time>2020-08-21T08:55:48.000Z</time>
      </trkpt>
      <trkpt lat="47.75906" lon="-3.36278">
        <ele>2.2</ele>
        <time>2020-08-21T08:55:49.000Z</time>
      </trkpt>
      <trkpt lat="47.75904" lon="-3.36278">
        <ele>2.2</ele>
        <time>2020-08-21T08:55:50.000Z</time>
      </trkpt>
      <trkpt lat="47.75903" lon="-3.36278">
        <ele>2.3</ele>
        <time>2020-08-21T08:55:51.000Z</time>
      </trkpt>
      <trkpt lat="47.75902" lon="-3.36277">
        <ele>2.4</ele>
        <time>2020-08-21T08:55:52.000Z</time>
      </trkpt>
      <trkpt lat="47.75901" lon="-3.36277">
        <ele>2.4</ele>
        <time>2020-08-21T08:55:53.000Z</time>
      </trkpt>
      <trkpt lat="47.75899" lon="-3.36276">
        <ele>2.5</ele>
        <time>2020-08-21T08:55:54.000Z</time>
      </trkpt>
      <trkpt lat="47.75898" lon="-3.36275">
        <ele>2.6</ele>
        <time>2020-08-21T08:55:55.000Z</time>
      </trkpt>
      <trkpt lat="47.75896" lon="-3.36275">
        <ele>2.7</ele>
        <time>2020-08-21T08:55:56.000Z</time>
      </trkpt>
      <trkpt lat="47.75895" lon="-3.36274">
        <ele>2.7</ele>
        <time>2020-08-21T08:55:57.000Z</time>
      </trkpt>
      <trkpt lat="47.75894" lon="-3.36274">
        <ele>2.8</ele>
        <time>2020-08-21T08:55:58.000Z</time>
      </trkpt>
      <trkpt lat="47.75893" lon="-3.36273">
        <ele>2.9</ele>
        <time>2020-08-21T08:55:59.000Z</time>
      </trkpt>
      <trkpt lat="47.75892" lon="-3.36273">
        <ele>2.9</ele>
        <time>2020-08-21T08:56:00.000Z</time>
      </trkpt>
      <trkpt lat="47.75891" lon="-3.36272">
        <ele>3</ele>
        <time>2020-08-21T08:56:01.000Z</time>
      </trkpt>
      <trkpt lat="47.7589" lon="-3.36272">
        <ele>3</ele>
        <time>2020-08-21T08:56:02.000Z</time>
      </trkpt>
      <trkpt lat="47.75889" lon="-3.36271">
        <ele>3.1</ele>
        <time>2020-08-21T08:56:03.000Z</time>
      </trkpt>
      <trkpt lat="47.75888" lon="-3.3627">
        <ele>3.1</ele>
        <time>2020-08-21T08:56:04.000Z</time>
      </trkpt>
      <trkpt lat="47.75887" lon="-3.3627">
        <ele>3.1</ele>
        <time>2020-08-21T08:56:05.000Z</time>
      </trkpt>
      <trkpt lat="47.75887" lon="-3.36269">
        <ele>3.2</ele>
        <time>2020-08-21T08:56:06.000Z</time>
      </trkpt>
      <trkpt lat="47.75886" lon="-3.36268">
        <ele>3.2</ele>
        <time>2020-08-21T08:56:07.000Z</time>
      </trkpt>
      <trkpt lat="47.75886" lon="-3.36267">
        <ele>3.2</ele>
        <time>2020-08-21T08:56:08.000Z</time>
      </trkpt>
      <trkpt lat="47.75885" lon="-3.36266">
        <ele>3.2</ele>
        <time>2020-08-21T08:56:09.000Z</time>
      </trkpt>
      <trkpt lat="47.75885" lon="-3.36265">
        <ele>3.2</ele>
        <time>2020-08-21T08:56:10.000Z</time>
      </trkpt>
      <trkpt lat="47.75884" lon="-3.36264">
        <ele>3.2</ele>
        <time>2020-08-21T08:56:11.000Z</time>
      </trkpt>
      <trkpt lat="47.75884" lon="-3.36264">
        <ele>3.2</ele>
        <time>2020-08-21T08:56:12.000Z</time>
      </trkpt>
      <trkpt lat="47.75883" lon="-3.36263">
        <ele>3.2</ele>
        <time>2020-08-21T08:56:13.000Z</time>
      </trkpt>
      <trkpt lat="47.75883" lon="-3.36262">
        <ele>3.2</ele>
        <time>2020-08-21T08:56:14.000Z</time>
      </trkpt>
      <trkpt lat="47.75882" lon="-3.36261">
        <ele>3.3</ele>
        <time>2020-08-21T08:56:15.000Z</time>
      </trkpt>
      <trkpt lat="47.75881" lon="-3.3626">
        <ele>3.3</ele>
        <time>2020-08-21T08:56:16.000Z</time>
      </trkpt>
      <trkpt lat="47.7588" lon="-3.36258">
        <ele>3.3</ele>
        <time>2020-08-21T08:56:17.000Z</time>
      </trkpt>
      <trkpt lat="47.7588" lon="-3.36257">
        <ele>3.3</ele>
        <time>2020-08-21T08:56:18.000Z</time>
      </trkpt>
      <trkpt lat="47.75879" lon="-3.36255">
        <ele>3.4</ele>
        <time>2020-08-21T08:56:19.000Z</time>
      </trkpt>
      <trkpt lat="47.75878" lon="-3.36254">
        <ele>3.4</ele>
        <time>2020-08-21T08:56:20.000Z</time>
      </trkpt>
      <trkpt lat="47.75877" lon="-3.36252">
        <ele>3.4</ele>
        <time>2020-08-21T08:56:21.000Z</time>
      </trkpt>
      <trkpt lat="47.75876" lon="-3.36251">
        <ele>3.4</ele>
        <time>2020-08-21T08:56:22.000Z</time>
      </trkpt>
      <trkpt lat="47.75875" lon="-3.36249">
        <ele>3.5</ele>
        <time>2020-08-21T08:56:23.000Z</time>
      </trkpt>
      <trkpt lat="47.75874" lon="-3.36247">
        <ele>3.6</ele>
        <time>2020-08-21T08:56:24.000Z</time>
      </trkpt>
      <trkpt lat="47.75874" lon="-3.36245">
        <ele>3.6</ele>
        <time>2020-08-21T08:56:25.000Z</time>
      </trkpt>
      <trkpt lat="47.75873" lon="-3.36243">
        <ele>3.7</ele>
        <time>2020-08-21T08:56:26.000Z</time>
      </trkpt>
      <trkpt lat="47.75872" lon="-3.36241">
        <ele>3.8</ele>
        <time>2020-08-21T08:56:27.000Z</time>
      </trkpt>
      <trkpt lat="47.75871" lon="-3.36239">
        <ele>3.8</ele>
        <time>2020-08-21T08:56:28.000Z</time>
      </trkpt>
      <trkpt lat="47.75871" lon="-3.36237">
        <ele>3.9</ele>
        <time>2020-08-21T08:56:29.000Z</time>
      </trkpt>
      <trkpt lat="47.7587" lon="-3.36235">
        <ele>3.9</ele>
        <time>2020-08-21T08:56:30.000Z</time>
      </trkpt>
      <trkpt lat="47.75869" lon="-3.36233">
        <ele>4</ele>
        <time>2020-08-21T08:56:31.000Z</time>
      </trkpt>
      <trkpt lat="47.75868" lon="-3.36231">
        <ele>4.1</ele>
        <time>2020-08-21T08:56:32.000Z</time>
      </trkpt>
      <trkpt lat="47.75868" lon="-3.36229">
        <ele>4.1</ele>
        <time>2020-08-21T08:56:33.000Z</time>
      </trkpt>
      <trkpt lat="47.75867" lon="-3.36227">
        <ele>4.2</ele>
        <time>2020-08-21T08:56:34.000Z</time>
      </trkpt>
      <trkpt lat="47.75866" lon="-3.36225">
        <ele>4.2</ele>
        <time>2020-08-21T08:56:35.000Z</time>
      </trkpt>
      <trkpt lat="47.75866" lon="-3.36224">
        <ele>4.3</ele>
        <time>2020-08-21T08:56:36.000Z</time>
      </trkpt>
      <trkpt lat="47.75865" lon="-3.36222">
        <ele>4.3</ele>
        <time>2020-08-21T08:56:37.000Z</time>
      </trkpt>
      <trkpt lat="47.75865" lon="-3.3622">
        <ele>4.4</ele>
        <time>2020-08-21T08:56:38.000Z</time>
      </trkpt>
      <trkpt lat="47.75864" lon="-3.36218">
        <ele>4.4</ele>
        <time>2020-08-21T08:56:39.000Z</time>
      </trkpt>
      <trkpt lat="47.75864" lon="-3.36216">
        <ele>4.4</ele>
        <time>2020-08-21T08:56:40.000Z</time>
      </trkpt>
      <trkpt lat="47.75863" lon="-3.36214">
        <ele>4.5</ele>
        <time>2020-08-21T08:56:41.000Z</time>
      </trkpt>
      <trkpt lat="47.75863" lon="-3.36212">
        <ele>4.5</ele>
        <time>2020-08-21T08:56:42.000Z</time>
      </trkpt>
      <trkpt lat="47.75862" lon="-3.3621">
        <ele>4.6</ele>
        <time>2020-08-21T08:56:43.000Z</time>
      </trkpt>
      <trkpt lat="47.75862" lon="-3.36209">
        <ele>4.6</ele>
        <time>2020-08-21T08:56:44.000Z</time>
      </trkpt>
      <trkpt lat="47.75862" lon="-3.36207">
        <ele>4.6</ele>
        <time>2020-08-21T08:56:45.000Z</time>
      </trkpt>
      <trkpt lat="47.75862" lon="-3.36205">
        <ele>4.6</ele>
        <time>2020-08-21T08:56:46.000Z</time>
      </trkpt>
      <trkpt lat="47.75861" lon="-3.36203">
        <ele>4.7</ele>
        <time>2020-08-21T08:56:47.000Z</time>
      </trkpt>
      <trkpt lat="47.75861" lon="-3.36201">
        <ele>4.7</ele>
        <time>2020-08-21T08:56:48.000Z</time>
      </trkpt>
      <trkpt lat="47.75861" lon="-3.36199">
        <ele>4.7</ele>
        <time>2020-08-21T08:56:49.000Z</time>
      </trkpt>
      <trkpt lat="47.75861" lon="-3.36198">
        <ele>4.7</ele>
        <time>2020-08-21T08:56:50.000Z</time>
      </trkpt>
      <trkpt lat="47.7586" lon="-3.36196">
        <ele>4.7</ele>
        <time>2020-08-21T08:56:51.000Z</time>
      </trkpt>
      <trkpt lat="47.7586" lon="-3.36194">
        <ele>4.8</ele>
        <time>2020-08-21T08:56:52.000Z</time>
      </trkpt>
      <trkpt lat="47.7586" lon="-3.36192">
        <ele>4.8</ele>
        <time>2020-08-21T08:56:53.000Z</time>
      </trkpt>
      <trkpt lat="47.75859" lon="-3.36191">
        <ele>4.8</ele>
        <time>2020-08-21T08:56:54.000Z</time>
      </trkpt>
      <trkpt lat="47.75859" lon="-3.36189">
        <ele>4.8</ele>
        <time>2020-08-21T08:56:55.000Z</time>
      </trkpt>
      <trkpt lat="47.75859" lon="-3.36187">
        <ele>4.9</ele>
        <time>2020-08-21T08:56:56.000Z</time>
      </trkpt>
      <trkpt lat="47.75858" lon="-3.36186">
        <ele>4.9</ele>
        <time>2020-08-21T08:56:57.000Z</time>
      </trkpt>
      <trkpt lat="47.75858" lon="-3.36184">
        <ele>4.9</ele>
        <time>2020-08-21T08:56:58.000Z</time>
      </trkpt>
      <trkpt lat="47.75858" lon="-3.36182">
        <ele>5</ele>
        <time>2020-08-21T08:56:59.000Z</time>
      </trkpt>
      <trkpt lat="47.75857" lon="-3.3618">
        <ele>5</ele>
        <time>2020-08-21T08:57:00.000Z</time>
      </trkpt>
      <trkpt lat="47.75857" lon="-3.36179">
        <ele>5</ele>
        <time>2020-08-21T08:57:01.000Z</time>
      </trkpt>
      <trkpt lat="47.75856" lon="-3.36177">
        <ele>5.1</ele>
        <time>2020-08-21T08:57:02.000Z</time>
      </trkpt>
      <trkpt lat="47.75856" lon="-3.36175">
        <ele>5.1</ele>
        <time>2020-08-21T08:57:03.000Z</time>
      </trkpt>
      <trkpt lat="47.75856" lon="-3.36173">
        <ele>5.1</ele>
        <time>2020-08-21T08:57:04.000Z</time>
      </trkpt>
      <trkpt lat="47.75855" lon="-3.36171">
        <ele>5.1</ele>
        <time>2020-08-21T08:57:05.000Z</time>
      </trkpt>
      <trkpt lat="47.75855" lon="-3.36169">
        <ele>5.2</ele>
        <time>2020-08-21T08:57:06.000Z</time>
      </trkpt>
      <trkpt lat="47.75855" lon="-3.36167">
        <ele>5.2</ele>
        <time>2020-08-21T08:57:07.000Z</time>
      </trkpt>
      <trkpt lat="47.75855" lon="-3.36165">
        <ele>5.2</ele>
        <time>2020-08-21T08:57:08.000Z</time>
      </trkpt>
      <trkpt lat="47.75854" lon="-3.36163">
        <ele>5.3</ele>
        <time>2020-08-21T08:57:09.000Z</time>
      </trkpt>
      <trkpt lat="47.75854" lon="-3.36161">
        <ele>5.3</ele>
        <time>2020-08-21T08:57:10.000Z</time>
      </trkpt>
      <trkpt lat="47.75854" lon="-3.36159">
        <ele>5.4</ele>
        <time>2020-08-21T08:57:11.000Z</time>
      </trkpt>
      <trkpt lat="47.75853" lon="-3.36157">
        <ele>5.4</ele>
        <time>2020-08-21T08:57:12.000Z</time>
      </trkpt>
      <trkpt lat="47.75853" lon="-3.36156">
        <ele>5.4</ele>
        <time>2020-08-21T08:57:13.000Z</time>
      </trkpt>
      <trkpt lat="47.75853" lon="-3.36154">
        <ele>5.5</ele>
        <time>2020-08-21T08:57:14.000Z</time>
      </trkpt>
      <trkpt lat="47.75852" lon="-3.36152">
        <ele>5.5</ele>
        <time>2020-08-21T08:57:15.000Z</time>
      </trkpt>
      <trkpt lat="47.75852" lon="-3.36151">
        <ele>5.6</ele>
        <time>2020-08-21T08:57:16.000Z</time>
      </trkpt>
      <trkpt lat="47.75851" lon="-3.36149">
        <ele>5.7</ele>
        <time>2020-08-21T08:57:17.000Z</time>
      </trkpt>
      <trkpt lat="47.75851" lon="-3.36148">
        <ele>5.7</ele>
        <time>2020-08-21T08:57:18.000Z</time>
      </trkpt>
      <trkpt lat="47.7585" lon="-3.36146">
        <ele>5.8</ele>
        <time>2020-08-21T08:57:19.000Z</time>
      </trkpt>
      <trkpt lat="47.7585" lon="-3.36145">
        <ele>5.8</ele>
        <time>2020-08-21T08:57:20.000Z</time>
      </trkpt>
      <trkpt lat="47.75849" lon="-3.36144">
        <ele>5.9</ele>
        <time>2020-08-21T08:57:21.000Z</time>
      </trkpt>
      <trkpt lat="47.75849" lon="-3.36143">
        <ele>5.9</ele>
        <time>2020-08-21T08:57:22.000Z</time>
      </trkpt>
      <trkpt lat="47.75848" lon="-3.36141">
        <ele>6</ele>
        <time>2020-08-21T08:57:23.000Z</time>
      </trkpt>
      <trkpt lat="47.75848" lon="-3.3614">
        <ele>6</ele>
        <time>2020-08-21T08:57:24.000Z</time>
      </trkpt>
      <trkpt lat="47.75848" lon="-3.36139">
        <ele>6.1</ele>
        <time>2020-08-21T08:57:25.000Z</time>
      </trkpt>
      <trkpt lat="47.75847" lon="-3.36137">
        <ele>6.1</ele>
        <time>2020-08-21T08:57:26.000Z</time>
      </trkpt>
      <trkpt lat="47.75847" lon="-3.36136">
        <ele>6.2</ele>
        <time>2020-08-21T08:57:27.000Z</time>
      </trkpt>
      <trkpt lat="47.75847" lon="-3.36134">
        <ele>6.2</ele>
        <time>2020-08-21T08:57:28.000Z</time>
      </trkpt>
      <trkpt lat="47.75847" lon="-3.36133">
        <ele>6.2</ele>
        <time>2020-08-21T08:57:29.000Z</time>
      </trkpt>
      <trkpt lat="47.75847" lon="-3.36131">
        <ele>6.2</ele>
        <time>2020-08-21T08:57:30.000Z</time>
      </trkpt>
      <trkpt lat="47.75847" lon="-3.3613">
        <ele>6.3</ele>
        <time>2020-08-21T08:57:31.000Z</time>
      </trkpt>
      <trkpt lat="47.75847" lon="-3.36128">
        <ele>6.3</ele>
        <time>2020-08-21T08:57:32.000Z</time>
      </trkpt>
      <trkpt lat="47.75847" lon="-3.36126">
        <ele>6.3</ele>
        <time>2020-08-21T08:57:33.000Z</time>
      </trkpt>
      <trkpt lat="47.75847" lon="-3.36125">
        <ele>6.3</ele>
        <time>2020-08-21T08:57:34.000Z</time>
      </trkpt>
      <trkpt lat="47.75847" lon="-3.36123">
        <ele>6.3</ele>
        <time>2020-08-21T08:57:35.000Z</time>
      </trkpt>
      <trkpt lat="47.75847" lon="-3.36121">
        <ele>6.3</ele>
        <time>2020-08-21T08:57:36.000Z</time>
      </trkpt>
      <trkpt lat="47.75847" lon="-3.3612">
        <ele>6.3</ele>
        <time>2020-08-21T08:57:37.000Z</time>
      </trkpt>
      <trkpt lat="47.75847" lon="-3.36118">
        <ele>6.3</ele>
        <time>2020-08-21T08:57:38.000Z</time>
      </trkpt>
      <trkpt lat="47.75848" lon="-3.36116">
        <ele>6.3</ele>
        <time>2020-08-21T08:57:39.000Z</time>
      </trkpt>
      <trkpt lat="47.75848" lon="-3.36115">
        <ele>6.3</ele>
        <time>2020-08-21T08:57:40.000Z</time>
      </trkpt>
      <trkpt lat="47.75848" lon="-3.36113">
        <ele>6.3</ele>
        <time>2020-08-21T08:57:41.000Z</time>
      </trkpt>
      <trkpt lat="47.75848" lon="-3.36112">
        <ele>6.3</ele>
        <time>2020-08-21T08:57:42.000Z</time>
      </trkpt>
      <trkpt lat="47.75848" lon="-3.3611">
        <ele>6.3</ele>
        <time>2020-08-21T08:57:43.000Z</time>
      </trkpt>
      <trkpt lat="47.75848" lon="-3.36109">
        <ele>6.3</ele>
        <time>2020-08-21T08:57:44.000Z</time>
      </trkpt>
      <trkpt lat="47.75849" lon="-3.36107">
        <ele>6.3</ele>
        <time>2020-08-21T08:57:45.000Z</time>
      </trkpt>
      <trkpt lat="47.75849" lon="-3.36106">
        <ele>6.3</ele>
        <time>2020-08-21T08:57:46.000Z</time>
      </trkpt>
      <trkpt lat="47.75849" lon="-3.36104">
        <ele>6.3</ele>
        <time>2020-08-21T08:57:47.000Z</time>
      </trkpt>
      <trkpt lat="47.75849" lon="-3.36103">
        <ele>6.3</ele>
        <time>2020-08-21T08:57:48.000Z</time>
      </trkpt>
      <trkpt lat="47.75849" lon="-3.36101">
        <ele>6.3</ele>
        <time>2020-08-21T08:57:49.000Z</time>
      </trkpt>
      <trkpt lat="47.75849" lon="-3.36099">
        <ele>6.3</ele>
        <time>2020-08-21T08:57:50.000Z</time>
      </trkpt>
      <trkpt lat="47.75849" lon="-3.36098">
        <ele>6.4</ele>
        <time>2020-08-21T08:57:51.000Z</time>
      </trkpt>
      <trkpt lat="47.75849" lon="-3.36096">
        <ele>6.4</ele>
        <time>2020-08-21T08:57:52.000Z</time>
      </trkpt>
      <trkpt lat="47.75849" lon="-3.36095">
        <ele>6.4</ele>
        <time>2020-08-21T08:57:53.000Z</time>
      </trkpt>
      <trkpt lat="47.75849" lon="-3.36093">
        <ele>6.4</ele>
        <time>2020-08-21T08:57:54.000Z</time>
      </trkpt>
      <trkpt lat="47.75849" lon="-3.36091">
        <ele>6.4</ele>
        <time>2020-08-21T08:57:55.000Z</time>
      </trkpt>
      <trkpt lat="47.75849" lon="-3.3609">
        <ele>6.4</ele>
        <time>2020-08-21T08:57:56.000Z</time>
      </trkpt>
      <trkpt lat="47.75849" lon="-3.36088">
        <ele>6.4</ele>
        <time>2020-08-21T08:57:57.000Z</time>
      </trkpt>
      <trkpt lat="47.75849" lon="-3.36086">
        <ele>6.4</ele>
        <time>2020-08-21T08:57:58.000Z</time>
      </trkpt>
      <trkpt lat="47.7585" lon="-3.36084">
        <ele>6.4</ele>
        <time>2020-08-21T08:57:59.000Z</time>
      </trkpt>
      <trkpt lat="47.7585" lon="-3.36083">
        <ele>6.4</ele>
        <time>2020-08-21T08:58:00.000Z</time>
      </trkpt>
      <trkpt lat="47.7585" lon="-3.36081">
        <ele>6.4</ele>
        <time>2020-08-21T08:58:01.000Z</time>
      </trkpt>
      <trkpt lat="47.7585" lon="-3.36079">
        <ele>6.3</ele>
        <time>2020-08-21T08:58:02.000Z</time>
      </trkpt>
      <trkpt lat="47.75851" lon="-3.36077">
        <ele>6.3</ele>
        <time>2020-08-21T08:58:03.000Z</time>
      </trkpt>
      <trkpt lat="47.75851" lon="-3.36076">
        <ele>6.2</ele>
        <time>2020-08-21T08:58:04.000Z</time>
      </trkpt>
      <trkpt lat="47.75851" lon="-3.36074">
        <ele>6.2</ele>
        <time>2020-08-21T08:58:05.000Z</time>
      </trkpt>
      <trkpt lat="47.75852" lon="-3.36072">
        <ele>6.1</ele>
        <time>2020-08-21T08:58:06.000Z</time>
      </trkpt>
      <trkpt lat="47.75852" lon="-3.3607">
        <ele>6.1</ele>
        <time>2020-08-21T08:58:07.000Z</time>
      </trkpt>
      <trkpt lat="47.75852" lon="-3.36068">
        <ele>6</ele>
        <time>2020-08-21T08:58:08.000Z</time>
      </trkpt>
      <trkpt lat="47.75853" lon="-3.36067">
        <ele>6</ele>
        <time>2020-08-21T08:58:09.000Z</time>
      </trkpt>
      <trkpt lat="47.75853" lon="-3.36065">
        <ele>5.9</ele>
        <time>2020-08-21T08:58:10.000Z</time>
      </trkpt>
      <trkpt lat="47.75854" lon="-3.36063">
        <ele>5.9</ele>
        <time>2020-08-21T08:58:11.000Z</time>
      </trkpt>
      <trkpt lat="47.75854" lon="-3.36061">
        <ele>5.8</ele>
        <time>2020-08-21T08:58:12.000Z</time>
      </trkpt>
      <trkpt lat="47.75855" lon="-3.36059">
        <ele>5.7</ele>
        <time>2020-08-21T08:58:13.000Z</time>
      </trkpt>
      <trkpt lat="47.75855" lon="-3.36057">
        <ele>5.7</ele>
        <time>2020-08-21T08:58:14.000Z</time>
      </trkpt>
      <trkpt lat="47.75856" lon="-3.36056">
        <ele>5.6</ele>
        <time>2020-08-21T08:58:15.000Z</time>
      </trkpt>
      <trkpt lat="47.75856" lon="-3.36054">
        <ele>5.6</ele>
        <time>2020-08-21T08:58:16.000Z</time>
      </trkpt>
      <trkpt lat="47.75856" lon="-3.36052">
        <ele>5.5</ele>
        <time>2020-08-21T08:58:17.000Z</time>
      </trkpt>
      <trkpt lat="47.75857" lon="-3.3605">
        <ele>5.5</ele>
        <time>2020-08-21T08:58:18.000Z</time>
      </trkpt>
      <trkpt lat="47.75857" lon="-3.36048">
        <ele>5.4</ele>
        <time>2020-08-21T08:58:19.000Z</time>
      </trkpt>
      <trkpt lat="47.75857" lon="-3.36047">
        <ele>5.4</ele>
        <time>2020-08-21T08:58:20.000Z</time>
      </trkpt>
      <trkpt lat="47.75858" lon="-3.36045">
        <ele>5.3</ele>
        <time>2020-08-21T08:58:21.000Z</time>
      </trkpt>
      <trkpt lat="47.75858" lon="-3.36043">
        <ele>5.3</ele>
        <time>2020-08-21T08:58:22.000Z</time>
      </trkpt>
      <trkpt lat="47.75858" lon="-3.36041">
        <ele>5.3</ele>
        <time>2020-08-21T08:58:23.000Z</time>
      </trkpt>
      <trkpt lat="47.75858" lon="-3.3604">
        <ele>5.2</ele>
        <time>2020-08-21T08:58:24.000Z</time>
      </trkpt>
      <trkpt lat="47.75859" lon="-3.36038">
        <ele>5.2</ele>
        <time>2020-08-21T08:58:25.000Z</time>
      </trkpt>
      <trkpt lat="47.75859" lon="-3.36036">
        <ele>5.2</ele>
        <time>2020-08-21T08:58:26.000Z</time>
      </trkpt>
      <trkpt lat="47.75859" lon="-3.36034">
        <ele>5.2</ele>
        <time>2020-08-21T08:58:27.000Z</time>
      </trkpt>
      <trkpt lat="47.75859" lon="-3.36032">
        <ele>5.1</ele>
        <time>2020-08-21T08:58:28.000Z</time>
      </trkpt>
      <trkpt lat="47.75859" lon="-3.3603">
        <ele>5.1</ele>
        <time>2020-08-21T08:58:29.000Z</time>
      </trkpt>
      <trkpt lat="47.75859" lon="-3.36028">
        <ele>5.1</ele>
        <time>2020-08-21T08:58:30.000Z</time>
      </trkpt>
      <trkpt lat="47.75859" lon="-3.36026">
        <ele>5</ele>
        <time>2020-08-21T08:58:31.000Z</time>
      </trkpt>
      <trkpt lat="47.75859" lon="-3.36024">
        <ele>5</ele>
        <time>2020-08-21T08:58:32.000Z</time>
      </trkpt>
      <trkpt lat="47.7586" lon="-3.36022">
        <ele>5</ele>
        <time>2020-08-21T08:58:33.000Z</time>
      </trkpt>
      <trkpt lat="47.7586" lon="-3.3602">
        <ele>4.9</ele>
        <time>2020-08-21T08:58:34.000Z</time>
      </trkpt>
      <trkpt lat="47.75861" lon="-3.36018">
        <ele>4.9</ele>
        <time>2020-08-21T08:58:35.000Z</time>
      </trkpt>
      <trkpt lat="47.75861" lon="-3.36017">
        <ele>4.8</ele>
        <time>2020-08-21T08:58:36.000Z</time>
      </trkpt>
      <trkpt lat="47.75862" lon="-3.36015">
        <ele>4.7</ele>
        <time>2020-08-21T08:58:37.000Z</time>
      </trkpt>
      <trkpt lat="47.75862" lon="-3.36014">
        <ele>4.7</ele>
        <time>2020-08-21T08:58:38.000Z</time>
      </trkpt>
      <trkpt lat="47.75863" lon="-3.36012">
        <ele>4.6</ele>
        <time>2020-08-21T08:58:39.000Z</time>
      </trkpt>
      <trkpt lat="47.75863" lon="-3.36011">
        <ele>4.6</ele>
        <time>2020-08-21T08:58:40.000Z</time>
      </trkpt>
      <trkpt lat="47.75863" lon="-3.36009">
        <ele>4.6</ele>
        <time>2020-08-21T08:58:41.000Z</time>
      </trkpt>
      <trkpt lat="47.75863" lon="-3.36008">
        <ele>4.6</ele>
        <time>2020-08-21T08:58:42.000Z</time>
      </trkpt>
      <trkpt lat="47.75863" lon="-3.36006">
        <ele>4.5</ele>
        <time>2020-08-21T08:58:43.000Z</time>
      </trkpt>
      <trkpt lat="47.75863" lon="-3.36005">
        <ele>4.5</ele>
        <time>2020-08-21T08:58:44.000Z</time>
      </trkpt>
      <trkpt lat="47.75863" lon="-3.36003">
        <ele>4.5</ele>
        <time>2020-08-21T08:58:45.000Z</time>
      </trkpt>
      <trkpt lat="47.75864" lon="-3.36001">
        <ele>4.5</ele>
        <time>2020-08-21T08:58:46.000Z</time>
      </trkpt>
      <trkpt lat="47.75864" lon="-3.35999">
        <ele>4.4</ele>
        <time>2020-08-21T08:58:47.000Z</time>
      </trkpt>
      <trkpt lat="47.75864" lon="-3.35997">
        <ele>4.4</ele>
        <time>2020-08-21T08:58:48.000Z</time>
      </trkpt>
      <trkpt lat="47.75864" lon="-3.35995">
        <ele>4.4</ele>
        <time>2020-08-21T08:58:49.000Z</time>
      </trkpt>
      <trkpt lat="47.75864" lon="-3.35993">
        <ele>4.3</ele>
        <time>2020-08-21T08:58:50.000Z</time>
      </trkpt>
      <trkpt lat="47.75864" lon="-3.35991">
        <ele>4.3</ele>
        <time>2020-08-21T08:58:51.000Z</time>
      </trkpt>
      <trkpt lat="47.75864" lon="-3.35988">
        <ele>4.2</ele>
        <time>2020-08-21T08:58:52.000Z</time>
      </trkpt>
      <trkpt lat="47.75864" lon="-3.35986">
        <ele>4.2</ele>
        <time>2020-08-21T08:58:53.000Z</time>
      </trkpt>
      <trkpt lat="47.75864" lon="-3.35984">
        <ele>4.2</ele>
        <time>2020-08-21T08:58:54.000Z</time>
      </trkpt>
      <trkpt lat="47.75864" lon="-3.35982">
        <ele>4.1</ele>
        <time>2020-08-21T08:58:55.000Z</time>
      </trkpt>
      <trkpt lat="47.75864" lon="-3.3598">
        <ele>4.1</ele>
        <time>2020-08-21T08:58:56.000Z</time>
      </trkpt>
      <trkpt lat="47.75864" lon="-3.35978">
        <ele>4.1</ele>
        <time>2020-08-21T08:58:57.000Z</time>
      </trkpt>
      <trkpt lat="47.75865" lon="-3.35976">
        <ele>4</ele>
        <time>2020-08-21T08:58:58.000Z</time>
      </trkpt>
      <trkpt lat="47.75865" lon="-3.35974">
        <ele>4</ele>
        <time>2020-08-21T08:58:59.000Z</time>
      </trkpt>
      <trkpt lat="47.75865" lon="-3.35972">
        <ele>4</ele>
        <time>2020-08-21T08:59:00.000Z</time>
      </trkpt>
      <trkpt lat="47.75865" lon="-3.3597">
        <ele>3.9</ele>
        <time>2020-08-21T08:59:01.000Z</time>
      </trkpt>
      <trkpt lat="47.75865" lon="-3.35968">
        <ele>3.9</ele>
        <time>2020-08-21T08:59:02.000Z</time>
      </trkpt>
      <trkpt lat="47.75865" lon="-3.35966">
        <ele>3.9</ele>
        <time>2020-08-21T08:59:03.000Z</time>
      </trkpt>
      <trkpt lat="47.75865" lon="-3.35965">
        <ele>3.8</ele>
        <time>2020-08-21T08:59:04.000Z</time>
      </trkpt>
      <trkpt lat="47.75865" lon="-3.35963">
        <ele>3.8</ele>
        <time>2020-08-21T08:59:05.000Z</time>
      </trkpt>
      <trkpt lat="47.75865" lon="-3.35961">
        <ele>3.8</ele>
        <time>2020-08-21T08:59:06.000Z</time>
      </trkpt>
      <trkpt lat="47.75865" lon="-3.35959">
        <ele>3.8</ele>
        <time>2020-08-21T08:59:07.000Z</time>
      </trkpt>
      <trkpt lat="47.75865" lon="-3.35957">
        <ele>3.7</ele>
        <time>2020-08-21T08:59:08.000Z</time>
      </trkpt>
      <trkpt lat="47.75865" lon="-3.35955">
        <ele>3.7</ele>
        <time>2020-08-21T08:59:09.000Z</time>
      </trkpt>
      <trkpt lat="47.75865" lon="-3.35953">
        <ele>3.7</ele>
        <time>2020-08-21T08:59:10.000Z</time>
      </trkpt>
      <trkpt lat="47.75864" lon="-3.35951">
        <ele>3.6</ele>
        <time>2020-08-21T08:59:11.000Z</time>
      </trkpt>
      <trkpt lat="47.75864" lon="-3.35949">
        <ele>3.6</ele>
        <time>2020-08-21T08:59:12.000Z</time>
      </trkpt>
      <trkpt lat="47.75864" lon="-3.35946">
        <ele>3.6</ele>
        <time>2020-08-21T08:59:13.000Z</time>
      </trkpt>
      <trkpt lat="47.75864" lon="-3.35944">
        <ele>3.6</ele>
        <time>2020-08-21T08:59:14.000Z</time>
      </trkpt>
      <trkpt lat="47.75864" lon="-3.35942">
        <ele>3.5</ele>
        <time>2020-08-21T08:59:15.000Z</time>
      </trkpt>
      <trkpt lat="47.75864" lon="-3.3594">
        <ele>3.5</ele>
        <time>2020-08-21T08:59:16.000Z</time>
      </trkpt>
      <trkpt lat="47.75864" lon="-3.35938">
        <ele>3.5</ele>
        <time>2020-08-21T08:59:17.000Z</time>
      </trkpt>
      <trkpt lat="47.75864" lon="-3.35936">
        <ele>3.5</ele>
        <time>2020-08-21T08:59:18.000Z</time>
      </trkpt>
      <trkpt lat="47.75864" lon="-3.35934">
        <ele>3.4</ele>
        <time>2020-08-21T08:59:19.000Z</time>
      </trkpt>
      <trkpt lat="47.75864" lon="-3.35933">
        <ele>3.4</ele>
        <time>2020-08-21T08:59:20.000Z</time>
      </trkpt>
      <trkpt lat="47.75864" lon="-3.35931">
        <ele>3.4</ele>
        <time>2020-08-21T08:59:21.000Z</time>
      </trkpt>
      <trkpt lat="47.75864" lon="-3.35929">
        <ele>3.4</ele>
        <time>2020-08-21T08:59:22.000Z</time>
      </trkpt>
      <trkpt lat="47.75864" lon="-3.35927">
        <ele>3.3</ele>
        <time>2020-08-21T08:59:23.000Z</time>
      </trkpt>
      <trkpt lat="47.75864" lon="-3.35926">
        <ele>3.3</ele>
        <time>2020-08-21T08:59:24.000Z</time>
      </trkpt>
      <trkpt lat="47.75864" lon="-3.35924">
        <ele>3.3</ele>
        <time>2020-08-21T08:59:25.000Z</time>
      </trkpt>
      <trkpt lat="47.75864" lon="-3.35922">
        <ele>3.3</ele>
        <time>2020-08-21T08:59:26.000Z</time>
      </trkpt>
      <trkpt lat="47.75864" lon="-3.3592">
        <ele>3.2</ele>
        <time>2020-08-21T08:59:27.000Z</time>
      </trkpt>
      <trkpt lat="47.75863" lon="-3.35919">
        <ele>3.2</ele>
        <time>2020-08-21T08:59:28.000Z</time>
      </trkpt>
      <trkpt lat="47.75863" lon="-3.35917">
        <ele>3.2</ele>
        <time>2020-08-21T08:59:29.000Z</time>
      </trkpt>
      <trkpt lat="47.75863" lon="-3.35915">
        <ele>3.1</ele>
        <time>2020-08-21T08:59:30.000Z</time>
      </trkpt>
      <trkpt lat="47.75863" lon="-3.35913">
        <ele>3.1</ele>
        <time>2020-08-21T08:59:31.000Z</time>
      </trkpt>
      <trkpt lat="47.75863" lon="-3.35911">
        <ele>3</ele>
        <time>2020-08-21T08:59:32.000Z</time>
      </trkpt>
      <trkpt lat="47.75863" lon="-3.35909">
        <ele>2.9</ele>
        <time>2020-08-21T08:59:33.000Z</time>
      </trkpt>
      <trkpt lat="47.75863" lon="-3.35907">
        <ele>2.8</ele>
        <time>2020-08-21T08:59:34.000Z</time>
      </trkpt>
      <trkpt lat="47.75863" lon="-3.35905">
        <ele>2.8</ele>
        <time>2020-08-21T08:59:35.000Z</time>
      </trkpt>
      <trkpt lat="47.75863" lon="-3.35903">
        <ele>2.7</ele>
        <time>2020-08-21T08:59:36.000Z</time>
      </trkpt>
      <trkpt lat="47.75863" lon="-3.35901">
        <ele>2.6</ele>
        <time>2020-08-21T08:59:37.000Z</time>
      </trkpt>
      <trkpt lat="47.75864" lon="-3.35899">
        <ele>2.5</ele>
        <time>2020-08-21T08:59:38.000Z</time>
      </trkpt>
      <trkpt lat="47.75864" lon="-3.35897">
        <ele>2.4</ele>
        <time>2020-08-21T08:59:39.000Z</time>
      </trkpt>
      <trkpt lat="47.75864" lon="-3.35895">
        <ele>2.3</ele>
        <time>2020-08-21T08:59:40.000Z</time>
      </trkpt>
      <trkpt lat="47.75864" lon="-3.35893">
        <ele>2.3</ele>
        <time>2020-08-21T08:59:41.000Z</time>
      </trkpt>
      <trkpt lat="47.75864" lon="-3.35891">
        <ele>2.2</ele>
        <time>2020-08-21T08:59:42.000Z</time>
      </trkpt>
      <trkpt lat="47.75863" lon="-3.35889">
        <ele>2.1</ele>
        <time>2020-08-21T08:59:43.000Z</time>
      </trkpt>
      <trkpt lat="47.75863" lon="-3.35888">
        <ele>2.1</ele>
        <time>2020-08-21T08:59:44.000Z</time>
      </trkpt>
      <trkpt lat="47.75863" lon="-3.35886">
        <ele>2</ele>
        <time>2020-08-21T08:59:45.000Z</time>
      </trkpt>
      <trkpt lat="47.75862" lon="-3.35884">
        <ele>2</ele>
        <time>2020-08-21T08:59:46.000Z</time>
      </trkpt>
      <trkpt lat="47.75862" lon="-3.35882">
        <ele>1.9</ele>
        <time>2020-08-21T08:59:47.000Z</time>
      </trkpt>
      <trkpt lat="47.75862" lon="-3.3588">
        <ele>1.9</ele>
        <time>2020-08-21T08:59:48.000Z</time>
      </trkpt>
      <trkpt lat="47.75862" lon="-3.35879">
        <ele>1.8</ele>
        <time>2020-08-21T08:59:49.000Z</time>
      </trkpt>
      <trkpt lat="47.75862" lon="-3.35877">
        <ele>1.7</ele>
        <time>2020-08-21T08:59:50.000Z</time>
      </trkpt>
      <trkpt lat="47.75862" lon="-3.35875">
        <ele>1.7</ele>
        <time>2020-08-21T08:59:51.000Z</time>
      </trkpt>
      <trkpt lat="47.75862" lon="-3.35873">
        <ele>1.6</ele>
        <time>2020-08-21T08:59:52.000Z</time>
      </trkpt>
      <trkpt lat="47.75862" lon="-3.35871">
        <ele>1.5</ele>
        <time>2020-08-21T08:59:53.000Z</time>
      </trkpt>
      <trkpt lat="47.75862" lon="-3.35869">
        <ele>1.4</ele>
        <time>2020-08-21T08:59:54.000Z</time>
      </trkpt>
      <trkpt lat="47.75862" lon="-3.35867">
        <ele>1.4</ele>
        <time>2020-08-21T08:59:55.000Z</time>
      </trkpt>
      <trkpt lat="47.75862" lon="-3.35866">
        <ele>1.3</ele>
        <time>2020-08-21T08:59:56.000Z</time>
      </trkpt>
      <trkpt lat="47.75862" lon="-3.35864">
        <ele>1.2</ele>
        <time>2020-08-21T08:59:57.000Z</time>
      </trkpt>
      <trkpt lat="47.75862" lon="-3.35862">
        <ele>1.1</ele>
        <time>2020-08-21T08:59:58.000Z</time>
      </trkpt>
      <trkpt lat="47.75862" lon="-3.3586">
        <ele>1</ele>
        <time>2020-08-21T08:59:59.000Z</time>
      </trkpt>
      <trkpt lat="47.75862" lon="-3.35858">
        <ele>1</ele>
        <time>2020-08-21T09:00:00.000Z</time>
      </trkpt>
      <trkpt lat="47.75862" lon="-3.35856">
        <ele>0.9</ele>
        <time>2020-08-21T09:00:01.000Z</time>
      </trkpt>
      <trkpt lat="47.75862" lon="-3.35854">
        <ele>0.8</ele>
        <time>2020-08-21T09:00:02.000Z</time>
      </trkpt>
      <trkpt lat="47.75862" lon="-3.35852">
        <ele>0.7</ele>
        <time>2020-08-21T09:00:03.000Z</time>
      </trkpt>
      <trkpt lat="47.75862" lon="-3.35851">
        <ele>0.7</ele>
        <time>2020-08-21T09:00:04.000Z</time>
      </trkpt>
      <trkpt lat="47.75862" lon="-3.35849">
        <ele>0.6</ele>
        <time>2020-08-21T09:00:05.000Z</time>
      </trkpt>
      <trkpt lat="47.75862" lon="-3.35847">
        <ele>0.5</ele>
        <time>2020-08-21T09:00:06.000Z</time>
      </trkpt>
      <trkpt lat="47.75862" lon="-3.35845">
        <ele>0.4</ele>
        <time>2020-08-21T09:00:07.000Z</time>
      </trkpt>
      <trkpt lat="47.75862" lon="-3.35843">
        <ele>0.4</ele>
        <time>2020-08-21T09:00:08.000Z</time>
      </trkpt>
      <trkpt lat="47.75862" lon="-3.35841">
        <ele>0.3</ele>
        <time>2020-08-21T09:00:09.000Z</time>
      </trkpt>
      <trkpt lat="47.75862" lon="-3.35839">
        <ele>0.2</ele>
        <time>2020-08-21T09:00:10.000Z</time>
      </trkpt>
      <trkpt lat="47.75862" lon="-3.35837">
        <ele>0.1</ele>
        <time>2020-08-21T09:00:11.000Z</time>
      </trkpt>
      <trkpt lat="47.75862" lon="-3.35835">
        <ele>0.1</ele>
        <time>2020-08-21T09:00:12.000Z</time>
      </trkpt>
      <trkpt lat="47.75861" lon="-3.35833">
        <ele>4</ele>
        <time>2020-08-21T09:00:13.000Z</time>
      </trkpt>
      <trkpt lat="47.75861" lon="-3.35831">
        <ele>3.8</ele>
        <time>2020-08-21T09:00:14.000Z</time>
      </trkpt>
      <trkpt lat="47.75861" lon="-3.35829">
        <ele>3.7</ele>
        <time>2020-08-21T09:00:15.000Z</time>
      </trkpt>
      <trkpt lat="47.7586" lon="-3.35827">
        <ele>3.7</ele>
        <time>2020-08-21T09:00:16.000Z</time>
      </trkpt>
      <trkpt lat="47.7586" lon="-3.35825">
        <ele>3.5</ele>
        <time>2020-08-21T09:00:17.000Z</time>
      </trkpt>
      <trkpt lat="47.7586" lon="-3.35823">
        <ele>3.4</ele>
        <time>2020-08-21T09:00:18.000Z</time>
      </trkpt>
      <trkpt lat="47.75859" lon="-3.35821">
        <ele>3.4</ele>
        <time>2020-08-21T09:00:19.000Z</time>
      </trkpt>
      <trkpt lat="47.75859" lon="-3.35819">
        <ele>3.3</ele>
        <time>2020-08-21T09:00:20.000Z</time>
      </trkpt>
      <trkpt lat="47.75859" lon="-3.35818">
        <ele>3.2</ele>
        <time>2020-08-21T09:00:21.000Z</time>
      </trkpt>
      <trkpt lat="47.75859" lon="-3.35816">
        <ele>3.1</ele>
        <time>2020-08-21T09:00:22.000Z</time>
      </trkpt>
      <trkpt lat="47.75858" lon="-3.35814">
        <ele>3.1</ele>
        <time>2020-08-21T09:00:23.000Z</time>
      </trkpt>
      <trkpt lat="47.75858" lon="-3.35812">
        <ele>3</ele>
        <time>2020-08-21T09:00:24.000Z</time>
      </trkpt>
      <trkpt lat="47.75858" lon="-3.3581">
        <ele>2.8</ele>
        <time>2020-08-21T09:00:25.000Z</time>
      </trkpt>
      <trkpt lat="47.75859" lon="-3.35808">
        <ele>2.5</ele>
        <time>2020-08-21T09:00:26.000Z</time>
      </trkpt>
      <trkpt lat="47.75859" lon="-3.35807">
        <ele>2.5</ele>
        <time>2020-08-21T09:00:27.000Z</time>
      </trkpt>
      <trkpt lat="47.75859" lon="-3.35805">
        <ele>2.4</ele>
        <time>2020-08-21T09:00:28.000Z</time>
      </trkpt>
      <trkpt lat="47.75859" lon="-3.35803">
        <ele>2.4</ele>
        <time>2020-08-21T09:00:29.000Z</time>
      </trkpt>
      <trkpt lat="47.75859" lon="-3.35801">
        <ele>2.4</ele>
        <time>2020-08-21T09:00:30.000Z</time>
      </trkpt>
      <trkpt lat="47.75859" lon="-3.35799">
        <ele>2.4</ele>
        <time>2020-08-21T09:00:31.000Z</time>
      </trkpt>
      <trkpt lat="47.75859" lon="-3.35798">
        <ele>2.4</ele>
        <time>2020-08-21T09:00:32.000Z</time>
      </trkpt>
      <trkpt lat="47.75858" lon="-3.35796">
        <ele>2.5</ele>
        <time>2020-08-21T09:00:33.000Z</time>
      </trkpt>
      <trkpt lat="47.75858" lon="-3.35793">
        <ele>2.5</ele>
        <time>2020-08-21T09:00:34.000Z</time>
      </trkpt>
      <trkpt lat="47.75858" lon="-3.35791">
        <ele>2.5</ele>
        <time>2020-08-21T09:00:35.000Z</time>
      </trkpt>
      <trkpt lat="47.75858" lon="-3.35789">
        <ele>2.5</ele>
        <time>2020-08-21T09:00:36.000Z</time>
      </trkpt>
      <trkpt lat="47.75857" lon="-3.35787">
        <ele>2.6</ele>
        <time>2020-08-21T09:00:37.000Z</time>
      </trkpt>
      <trkpt lat="47.75857" lon="-3.35785">
        <ele>2.6</ele>
        <time>2020-08-21T09:00:38.000Z</time>
      </trkpt>
      <trkpt lat="47.75857" lon="-3.35783">
        <ele>2.6</ele>
        <time>2020-08-21T09:00:39.000Z</time>
      </trkpt>
      <trkpt lat="47.75856" lon="-3.35782">
        <ele>2.8</ele>
        <time>2020-08-21T09:00:40.000Z</time>
      </trkpt>
      <trkpt lat="47.75856" lon="-3.3578">
        <ele>2.8</ele>
        <time>2020-08-21T09:00:41.000Z</time>
      </trkpt>
      <trkpt lat="47.75856" lon="-3.35778">
        <ele>2.7</ele>
        <time>2020-08-21T09:00:42.000Z</time>
      </trkpt>
      <trkpt lat="47.75855" lon="-3.35776">
        <ele>2.9</ele>
        <time>2020-08-21T09:00:43.000Z</time>
      </trkpt>
      <trkpt lat="47.75855" lon="-3.35774">
        <ele>2.9</ele>
        <time>2020-08-21T09:00:44.000Z</time>
      </trkpt>
      <trkpt lat="47.75855" lon="-3.35772">
        <ele>2.8</ele>
        <time>2020-08-21T09:00:45.000Z</time>
      </trkpt>
      <trkpt lat="47.75854" lon="-3.3577">
        <ele>3</ele>
        <time>2020-08-21T09:00:46.000Z</time>
      </trkpt>
      <trkpt lat="47.75854" lon="-3.35768">
        <ele>2.9</ele>
        <time>2020-08-21T09:00:47.000Z</time>
      </trkpt>
      <trkpt lat="47.75853" lon="-3.35767">
        <ele>3.1</ele>
        <time>2020-08-21T09:00:48.000Z</time>
      </trkpt>
      <trkpt lat="47.75853" lon="-3.35765">
        <ele>3</ele>
        <time>2020-08-21T09:00:49.000Z</time>
      </trkpt>
      <trkpt lat="47.75853" lon="-3.35763">
        <ele>3</ele>
        <time>2020-08-21T09:00:50.000Z</time>
      </trkpt>
      <trkpt lat="47.75852" lon="-3.35761">
        <ele>3.1</ele>
        <time>2020-08-21T09:00:51.000Z</time>
      </trkpt>
      <trkpt lat="47.75852" lon="-3.35759">
        <ele>3.1</ele>
        <time>2020-08-21T09:00:52.000Z</time>
      </trkpt>
      <trkpt lat="47.75852" lon="-3.35758">
        <ele>3.1</ele>
        <time>2020-08-21T09:00:53.000Z</time>
      </trkpt>
      <trkpt lat="47.75851" lon="-3.35756">
        <ele>3.2</ele>
        <time>2020-08-21T09:00:54.000Z</time>
      </trkpt>
      <trkpt lat="47.75851" lon="-3.35754">
        <ele>3.1</ele>
        <time>2020-08-21T09:00:55.000Z</time>
      </trkpt>
      <trkpt lat="47.75851" lon="-3.35752">
        <ele>3.1</ele>
        <time>2020-08-21T09:00:56.000Z</time>
      </trkpt>
      <trkpt lat="47.75851" lon="-3.35751">
        <ele>3.1</ele>
        <time>2020-08-21T09:00:57.000Z</time>
      </trkpt>
      <trkpt lat="47.7585" lon="-3.35749">
        <ele>3.2</ele>
        <time>2020-08-21T09:00:58.000Z</time>
      </trkpt>
      <trkpt lat="47.7585" lon="-3.35747">
        <ele>3.2</ele>
        <time>2020-08-21T09:00:59.000Z</time>
      </trkpt>
      <trkpt lat="47.7585" lon="-3.35745">
        <ele>3.2</ele>
        <time>2020-08-21T09:01:00.000Z</time>
      </trkpt>
      <trkpt lat="47.7585" lon="-3.35743">
        <ele>3.2</ele>
        <time>2020-08-21T09:01:01.000Z</time>
      </trkpt>
      <trkpt lat="47.75849" lon="-3.35742">
        <ele>3.3</ele>
        <time>2020-08-21T09:01:02.000Z</time>
      </trkpt>
      <trkpt lat="47.75849" lon="-3.3574">
        <ele>3.3</ele>
        <time>2020-08-21T09:01:03.000Z</time>
      </trkpt>
      <trkpt lat="47.75848" lon="-3.35738">
        <ele>3.4</ele>
        <time>2020-08-21T09:01:04.000Z</time>
      </trkpt>
      <trkpt lat="47.75848" lon="-3.35736">
        <ele>3.4</ele>
        <time>2020-08-21T09:01:05.000Z</time>
      </trkpt>
      <trkpt lat="47.75847" lon="-3.35735">
        <ele>3.5</ele>
        <time>2020-08-21T09:01:06.000Z</time>
      </trkpt>
      <trkpt lat="47.75846" lon="-3.35733">
        <ele>3.6</ele>
        <time>2020-08-21T09:01:07.000Z</time>
      </trkpt>
      <trkpt lat="47.75846" lon="-3.35731">
        <ele>3.6</ele>
        <time>2020-08-21T09:01:08.000Z</time>
      </trkpt>
      <trkpt lat="47.75845" lon="-3.35729">
        <ele>3.7</ele>
        <time>2020-08-21T09:01:09.000Z</time>
      </trkpt>
      <trkpt lat="47.75844" lon="-3.35728">
        <ele>3.8</ele>
        <time>2020-08-21T09:01:10.000Z</time>
      </trkpt>
      <trkpt lat="47.75843" lon="-3.35726">
        <ele>4</ele>
        <time>2020-08-21T09:01:11.000Z</time>
      </trkpt>
      <trkpt lat="47.75842" lon="-3.35725">
        <ele>4.1</ele>
        <time>2020-08-21T09:01:12.000Z</time>
      </trkpt>
      <trkpt lat="47.75842" lon="-3.35723">
        <ele>4.1</ele>
        <time>2020-08-21T09:01:13.000Z</time>
      </trkpt>
      <trkpt lat="47.75841" lon="-3.35722">
        <ele>4.2</ele>
        <time>2020-08-21T09:01:14.000Z</time>
      </trkpt>
      <trkpt lat="47.7584" lon="-3.3572">
        <ele>4.3</ele>
        <time>2020-08-21T09:01:15.000Z</time>
      </trkpt>
      <trkpt lat="47.7584" lon="-3.35719">
        <ele>4.3</ele>
        <time>2020-08-21T09:01:16.000Z</time>
      </trkpt>
      <trkpt lat="47.75839" lon="-3.35717">
        <ele>4.4</ele>
        <time>2020-08-21T09:01:17.000Z</time>
      </trkpt>
      <trkpt lat="47.75839" lon="-3.35716">
        <ele>4.4</ele>
        <time>2020-08-21T09:01:18.000Z</time>
      </trkpt>
      <trkpt lat="47.75838" lon="-3.35714">
        <ele>4.5</ele>
        <time>2020-08-21T09:01:19.000Z</time>
      </trkpt>
      <trkpt lat="47.75837" lon="-3.35713">
        <ele>4.6</ele>
        <time>2020-08-21T09:01:20.000Z</time>
      </trkpt>
      <trkpt lat="47.75837" lon="-3.35712">
        <ele>4.6</ele>
        <time>2020-08-21T09:01:21.000Z</time>
      </trkpt>
      <trkpt lat="47.75836" lon="-3.3571">
        <ele>4.7</ele>
        <time>2020-08-21T09:01:22.000Z</time>
      </trkpt>
      <trkpt lat="47.75836" lon="-3.35709">
        <ele>4.7</ele>
        <time>2020-08-21T09:01:23.000Z</time>
      </trkpt>
      <trkpt lat="47.75835" lon="-3.35708">
        <ele>4.8</ele>
        <time>2020-08-21T09:01:24.000Z</time>
      </trkpt>
      <trkpt lat="47.75835" lon="-3.35706">
        <ele>4.8</ele>
        <time>2020-08-21T09:01:25.000Z</time>
      </trkpt>
      <trkpt lat="47.75834" lon="-3.35705">
        <ele>4.9</ele>
        <time>2020-08-21T09:01:26.000Z</time>
      </trkpt>
      <trkpt lat="47.75834" lon="-3.35704">
        <ele>4.9</ele>
        <time>2020-08-21T09:01:27.000Z</time>
      </trkpt>
      <trkpt lat="47.75833" lon="-3.35702">
        <ele>7</ele>
        <time>2020-08-21T09:01:28.000Z</time>
      </trkpt>
      <trkpt lat="47.75833" lon="-3.35701">
        <ele>0.1</ele>
        <time>2020-08-21T09:01:29.000Z</time>
      </trkpt>
      <trkpt lat="47.75832" lon="-3.357">
        <ele>0.1</ele>
        <time>2020-08-21T09:01:30.000Z</time>
      </trkpt>
      <trkpt lat="47.75831" lon="-3.35698">
        <ele>0.2</ele>
        <time>2020-08-21T09:01:31.000Z</time>
      </trkpt>
      <trkpt lat="47.75831" lon="-3.35697">
        <ele>0.2</ele>
        <time>2020-08-21T09:01:32.000Z</time>
      </trkpt>
      <trkpt lat="47.7583" lon="-3.35695">
        <ele>0.3</ele>
        <time>2020-08-21T09:01:33.000Z</time>
      </trkpt>
      <trkpt lat="47.75829" lon="-3.35694">
        <ele>0.3</ele>
        <time>2020-08-21T09:01:34.000Z</time>
      </trkpt>
      <trkpt lat="47.75829" lon="-3.35692">
        <ele>0.4</ele>
        <time>2020-08-21T09:01:35.000Z</time>
      </trkpt>
      <trkpt lat="47.75828" lon="-3.3569">
        <ele>0.4</ele>
        <time>2020-08-21T09:01:36.000Z</time>
      </trkpt>
      <trkpt lat="47.75827" lon="-3.35689">
        <ele>0.5</ele>
        <time>2020-08-21T09:01:37.000Z</time>
      </trkpt>
      <trkpt lat="47.75826" lon="-3.35687">
        <ele>0.6</ele>
        <time>2020-08-21T09:01:38.000Z</time>
      </trkpt>
      <trkpt lat="47.75825" lon="-3.35685">
        <ele>0.6</ele>
        <time>2020-08-21T09:01:39.000Z</time>
      </trkpt>
      <trkpt lat="47.75825" lon="-3.35683">
        <ele>0.7</ele>
        <time>2020-08-21T09:01:40.000Z</time>
      </trkpt>
      <trkpt lat="47.75824" lon="-3.35682">
        <ele>0.7</ele>
        <time>2020-08-21T09:01:41.000Z</time>
      </trkpt>
      <trkpt lat="47.75823" lon="-3.3568">
        <ele>0.8</ele>
        <time>2020-08-21T09:01:42.000Z</time>
      </trkpt>
      <trkpt lat="47.75823" lon="-3.35678">
        <ele>0.8</ele>
        <time>2020-08-21T09:01:43.000Z</time>
      </trkpt>
      <trkpt lat="47.75822" lon="-3.35677">
        <ele>0.8</ele>
        <time>2020-08-21T09:01:44.000Z</time>
      </trkpt>
      <trkpt lat="47.75822" lon="-3.35675">
        <ele>0.9</ele>
        <time>2020-08-21T09:01:45.000Z</time>
      </trkpt>
      <trkpt lat="47.75821" lon="-3.35673">
        <ele>0.9</ele>
        <time>2020-08-21T09:01:46.000Z</time>
      </trkpt>
      <trkpt lat="47.75821" lon="-3.35672">
        <ele>0.9</ele>
        <time>2020-08-21T09:01:47.000Z</time>
      </trkpt>
      <trkpt lat="47.7582" lon="-3.3567">
        <ele>1</ele>
        <time>2020-08-21T09:01:48.000Z</time>
      </trkpt>
      <trkpt lat="47.7582" lon="-3.35669">
        <ele>1</ele>
        <time>2020-08-21T09:01:49.000Z</time>
      </trkpt>
      <trkpt lat="47.75819" lon="-3.35667">
        <ele>1</ele>
        <time>2020-08-21T09:01:50.000Z</time>
      </trkpt>
      <trkpt lat="47.75819" lon="-3.35666">
        <ele>1</ele>
        <time>2020-08-21T09:01:51.000Z</time>
      </trkpt>
      <trkpt lat="47.75818" lon="-3.35664">
        <ele>1</ele>
        <time>2020-08-21T09:01:52.000Z</time>
      </trkpt>
      <trkpt lat="47.75818" lon="-3.35662">
        <ele>1.1</ele>
        <time>2020-08-21T09:01:53.000Z</time>
      </trkpt>
      <trkpt lat="47.75817" lon="-3.35661">
        <ele>1.1</ele>
        <time>2020-08-21T09:01:54.000Z</time>
      </trkpt>
      <trkpt lat="47.75816" lon="-3.35659">
        <ele>1.1</ele>
        <time>2020-08-21T09:01:55.000Z</time>
      </trkpt>
      <trkpt lat="47.75815" lon="-3.35658">
        <ele>1.2</ele>
        <time>2020-08-21T09:01:56.000Z</time>
      </trkpt>
      <trkpt lat="47.75814" lon="-3.35656">
        <ele>1.2</ele>
        <time>2020-08-21T09:01:57.000Z</time>
      </trkpt>
      <trkpt lat="47.75814" lon="-3.35655">
        <ele>1.2</ele>
        <time>2020-08-21T09:01:58.000Z</time>
      </trkpt>
      <trkpt lat="47.75813" lon="-3.35653">
        <ele>1.2</ele>
        <time>2020-08-21T09:01:59.000Z</time>
      </trkpt>
      <trkpt lat="47.75812" lon="-3.35651">
        <ele>1.3</ele>
        <time>2020-08-21T09:02:00.000Z</time>
      </trkpt>
      <trkpt lat="47.75811" lon="-3.3565">
        <ele>1.3</ele>
        <time>2020-08-21T09:02:01.000Z</time>
      </trkpt>
      <trkpt lat="47.7581" lon="-3.35648">
        <ele>1.3</ele>
        <time>2020-08-21T09:02:02.000Z</time>
      </trkpt>
      <trkpt lat="47.7581" lon="-3.35646">
        <ele>1.3</ele>
        <time>2020-08-21T09:02:03.000Z</time>
      </trkpt>
      <trkpt lat="47.75809" lon="-3.35645">
        <ele>1.3</ele>
        <time>2020-08-21T09:02:04.000Z</time>
      </trkpt>
      <trkpt lat="47.75809" lon="-3.35643">
        <ele>1.3</ele>
        <time>2020-08-21T09:02:05.000Z</time>
      </trkpt>
      <trkpt lat="47.75808" lon="-3.35641">
        <ele>1.3</ele>
        <time>2020-08-21T09:02:06.000Z</time>
      </trkpt>
      <trkpt lat="47.75807" lon="-3.35639">
        <ele>1.3</ele>
        <time>2020-08-21T09:02:07.000Z</time>
      </trkpt>
      <trkpt lat="47.75807" lon="-3.35638">
        <ele>1.3</ele>
        <time>2020-08-21T09:02:08.000Z</time>
      </trkpt>
      <trkpt lat="47.75806" lon="-3.35636">
        <ele>1.2</ele>
        <time>2020-08-21T09:02:09.000Z</time>
      </trkpt>
      <trkpt lat="47.75805" lon="-3.35634">
        <ele>1.2</ele>
        <time>2020-08-21T09:02:10.000Z</time>
      </trkpt>
      <trkpt lat="47.75805" lon="-3.35632">
        <ele>1.2</ele>
        <time>2020-08-21T09:02:11.000Z</time>
      </trkpt>
      <trkpt lat="47.75804" lon="-3.3563">
        <ele>1.2</ele>
        <time>2020-08-21T09:02:12.000Z</time>
      </trkpt>
      <trkpt lat="47.75804" lon="-3.35629">
        <ele>1.2</ele>
        <time>2020-08-21T09:02:13.000Z</time>
      </trkpt>
      <trkpt lat="47.75803" lon="-3.35627">
        <ele>1.1</ele>
        <time>2020-08-21T09:02:14.000Z</time>
      </trkpt>
      <trkpt lat="47.75803" lon="-3.35625">
        <ele>1.1</ele>
        <time>2020-08-21T09:02:15.000Z</time>
      </trkpt>
      <trkpt lat="47.75802" lon="-3.35624">
        <ele>1.1</ele>
        <time>2020-08-21T09:02:16.000Z</time>
      </trkpt>
      <trkpt lat="47.75801" lon="-3.35622">
        <ele>1.1</ele>
        <time>2020-08-21T09:02:17.000Z</time>
      </trkpt>
      <trkpt lat="47.75801" lon="-3.35621">
        <ele>1.1</ele>
        <time>2020-08-21T09:02:18.000Z</time>
      </trkpt>
      <trkpt lat="47.758" lon="-3.3562">
        <ele>1</ele>
        <time>2020-08-21T09:02:19.000Z</time>
      </trkpt>
      <trkpt lat="47.758" lon="-3.35618">
        <ele>1</ele>
        <time>2020-08-21T09:02:20.000Z</time>
      </trkpt>
      <trkpt lat="47.75799" lon="-3.35617">
        <ele>1</ele>
        <time>2020-08-21T09:02:21.000Z</time>
      </trkpt>
      <trkpt lat="47.75798" lon="-3.35616">
        <ele>1</ele>
        <time>2020-08-21T09:02:22.000Z</time>
      </trkpt>
      <trkpt lat="47.75798" lon="-3.35614">
        <ele>0.9</ele>
        <time>2020-08-21T09:02:23.000Z</time>
      </trkpt>
      <trkpt lat="47.75797" lon="-3.35613">
        <ele>0.9</ele>
        <time>2020-08-21T09:02:24.000Z</time>
      </trkpt>
      <trkpt lat="47.75796" lon="-3.35611">
        <ele>0.9</ele>
        <time>2020-08-21T09:02:25.000Z</time>
      </trkpt>
      <trkpt lat="47.75796" lon="-3.3561">
        <ele>0.9</ele>
        <time>2020-08-21T09:02:26.000Z</time>
      </trkpt>
      <trkpt lat="47.75795" lon="-3.35608">
        <ele>0.8</ele>
        <time>2020-08-21T09:02:27.000Z</time>
      </trkpt>
      <trkpt lat="47.75794" lon="-3.35606">
        <ele>0.8</ele>
        <time>2020-08-21T09:02:28.000Z</time>
      </trkpt>
      <trkpt lat="47.75793" lon="-3.35604">
        <ele>0.7</ele>
        <time>2020-08-21T09:02:29.000Z</time>
      </trkpt>
      <trkpt lat="47.75792" lon="-3.35603">
        <ele>0.7</ele>
        <time>2020-08-21T09:02:30.000Z</time>
      </trkpt>
      <trkpt lat="47.75791" lon="-3.35601">
        <ele>0.6</ele>
        <time>2020-08-21T09:02:31.000Z</time>
      </trkpt>
      <trkpt lat="47.7579" lon="-3.35599">
        <ele>0.6</ele>
        <time>2020-08-21T09:02:32.000Z</time>
      </trkpt>
      <trkpt lat="47.75789" lon="-3.35597">
        <ele>0.5</ele>
        <time>2020-08-21T09:02:33.000Z</time>
      </trkpt>
      <trkpt lat="47.75789" lon="-3.35596">
        <ele>0.5</ele>
        <time>2020-08-21T09:02:34.000Z</time>
      </trkpt>
      <trkpt lat="47.75788" lon="-3.35595">
        <ele>0.4</ele>
        <time>2020-08-21T09:02:35.000Z</time>
      </trkpt>
      <trkpt lat="47.75787" lon="-3.35593">
        <ele>0.4</ele>
        <time>2020-08-21T09:02:36.000Z</time>
      </trkpt>
      <trkpt lat="47.75787" lon="-3.35592">
        <ele>0.3</ele>
        <time>2020-08-21T09:02:37.000Z</time>
      </trkpt>
      <trkpt lat="47.75786" lon="-3.35591">
        <ele>0.3</ele>
        <time>2020-08-21T09:02:38.000Z</time>
      </trkpt>
      <trkpt lat="47.75786" lon="-3.35589">
        <ele>0.2</ele>
        <time>2020-08-21T09:02:39.000Z</time>
      </trkpt>
      <trkpt lat="47.75786" lon="-3.35588">
        <ele>0.2</ele>
        <time>2020-08-21T09:02:40.000Z</time>
      </trkpt>
      <trkpt lat="47.75785" lon="-3.35586">
        <ele>0.1</ele>
        <time>2020-08-21T09:02:41.000Z</time>
      </trkpt>
      <trkpt lat="47.75785" lon="-3.35585">
        <ele>6</ele>
        <time>2020-08-21T09:02:42.000Z</time>
      </trkpt>
      <trkpt lat="47.75785" lon="-3.35583">
        <ele>4.2</ele>
        <time>2020-08-21T09:02:43.000Z</time>
      </trkpt>
      <trkpt lat="47.75784" lon="-3.35581">
        <ele>4.1</ele>
        <time>2020-08-21T09:02:44.000Z</time>
      </trkpt>
      <trkpt lat="47.75783" lon="-3.3558">
        <ele>4.1</ele>
        <time>2020-08-21T09:02:45.000Z</time>
      </trkpt>
      <trkpt lat="47.75782" lon="-3.35578">
        <ele>4.1</ele>
        <time>2020-08-21T09:02:46.000Z</time>
      </trkpt>
      <trkpt lat="47.75781" lon="-3.35576">
        <ele>4</ele>
        <time>2020-08-21T09:02:47.000Z</time>
      </trkpt>
      <trkpt lat="47.7578" lon="-3.35575">
        <ele>3.9</ele>
        <time>2020-08-21T09:02:48.000Z</time>
      </trkpt>
      <trkpt lat="47.75779" lon="-3.35574">
        <ele>3.9</ele>
        <time>2020-08-21T09:02:49.000Z</time>
      </trkpt>
      <trkpt lat="47.75777" lon="-3.35572">
        <ele>3.8</ele>
        <time>2020-08-21T09:02:50.000Z</time>
      </trkpt>
      <trkpt lat="47.75776" lon="-3.35571">
        <ele>3.8</ele>
        <time>2020-08-21T09:02:51.000Z</time>
      </trkpt>
      <trkpt lat="47.75775" lon="-3.3557">
        <ele>3.7</ele>
        <time>2020-08-21T09:02:52.000Z</time>
      </trkpt>
      <trkpt lat="47.75773" lon="-3.35568">
        <ele>3.6</ele>
        <time>2020-08-21T09:02:53.000Z</time>
      </trkpt>
      <trkpt lat="47.75772" lon="-3.35567">
        <ele>3.6</ele>
        <time>2020-08-21T09:02:54.000Z</time>
      </trkpt>
      <trkpt lat="47.75771" lon="-3.35566">
        <ele>3.6</ele>
        <time>2020-08-21T09:02:55.000Z</time>
      </trkpt>
      <trkpt lat="47.7577" lon="-3.35565">
        <ele>3.6</ele>
        <time>2020-08-21T09:02:56.000Z</time>
      </trkpt>
      <trkpt lat="47.75769" lon="-3.35564">
        <ele>3.6</ele>
        <time>2020-08-21T09:02:57.000Z</time>
      </trkpt>
      <trkpt lat="47.75768" lon="-3.35562">
        <ele>3.5</ele>
        <time>2020-08-21T09:02:58.000Z</time>
      </trkpt>
      <trkpt lat="47.75767" lon="-3.35561">
        <ele>3.5</ele>
        <time>2020-08-21T09:02:59.000Z</time>
      </trkpt>
      <trkpt lat="47.75766" lon="-3.3556">
        <ele>3.5</ele>
        <time>2020-08-21T09:03:00.000Z</time>
      </trkpt>
      <trkpt lat="47.75765" lon="-3.35559">
        <ele>3.6</ele>
        <time>2020-08-21T09:03:01.000Z</time>
      </trkpt>
      <trkpt lat="47.75764" lon="-3.35558">
        <ele>3.6</ele>
        <time>2020-08-21T09:03:02.000Z</time>
      </trkpt>
      <trkpt lat="47.75763" lon="-3.35557">
        <ele>3.7</ele>
        <time>2020-08-21T09:03:03.000Z</time>
      </trkpt>
      <trkpt lat="47.75762" lon="-3.35556">
        <ele>3.7</ele>
        <time>2020-08-21T09:03:04.000Z</time>
      </trkpt>
      <trkpt lat="47.75761" lon="-3.35555">
        <ele>3.8</ele>
        <time>2020-08-21T09:03:05.000Z</time>
      </trkpt>
      <trkpt lat="47.7576" lon="-3.35554">
        <ele>3.9</ele>
        <time>2020-08-21T09:03:06.000Z</time>
      </trkpt>
      <trkpt lat="47.75759" lon="-3.35553">
        <ele>4</ele>
        <time>2020-08-21T09:03:07.000Z</time>
      </trkpt>
      <trkpt lat="47.75758" lon="-3.35552">
        <ele>4</ele>
        <time>2020-08-21T09:03:08.000Z</time>
      </trkpt>
      <trkpt lat="47.75757" lon="-3.35551">
        <ele>4.1</ele>
        <time>2020-08-21T09:03:09.000Z</time>
      </trkpt>
      <trkpt lat="47.75756" lon="-3.3555">
        <ele>4.2</ele>
        <time>2020-08-21T09:03:10.000Z</time>
      </trkpt>
      <trkpt lat="47.75755" lon="-3.35549">
        <ele>4.3</ele>
        <time>2020-08-21T09:03:11.000Z</time>
      </trkpt>
      <trkpt lat="47.75755" lon="-3.35548">
        <ele>4.2</ele>
        <time>2020-08-21T09:03:12.000Z</time>
      </trkpt>
      <trkpt lat="47.75754" lon="-3.35547">
        <ele>4.3</ele>
        <time>2020-08-21T09:03:13.000Z</time>
      </trkpt>
      <trkpt lat="47.75753" lon="-3.35546">
        <ele>4.4</ele>
        <time>2020-08-21T09:03:14.000Z</time>
      </trkpt>
      <trkpt lat="47.75752" lon="-3.35545">
        <ele>4.4</ele>
        <time>2020-08-21T09:03:15.000Z</time>
      </trkpt>
      <trkpt lat="47.75751" lon="-3.35544">
        <ele>4.5</ele>
        <time>2020-08-21T09:03:16.000Z</time>
      </trkpt>
      <trkpt lat="47.7575" lon="-3.35543">
        <ele>4</ele>
        <time>2020-08-21T09:03:17.000Z</time>
      </trkpt>
      <trkpt lat="47.75749" lon="-3.35541">
        <ele>4</ele>
        <time>2020-08-21T09:03:18.000Z</time>
      </trkpt>
      <trkpt lat="47.75748" lon="-3.3554">
        <ele>0.1</ele>
        <time>2020-08-21T09:03:19.000Z</time>
      </trkpt>
      <trkpt lat="47.75747" lon="-3.35539">
        <ele>0.1</ele>
        <time>2020-08-21T09:03:20.000Z</time>
      </trkpt>
      <trkpt lat="47.75746" lon="-3.35538">
        <ele>0.1</ele>
        <time>2020-08-21T09:03:21.000Z</time>
      </trkpt>
      <trkpt lat="47.75745" lon="-3.35536">
        <ele>0.1</ele>
        <time>2020-08-21T09:03:22.000Z</time>
      </trkpt>
      <trkpt lat="47.75744" lon="-3.35535">
        <ele>0.1</ele>
        <time>2020-08-21T09:03:23.000Z</time>
      </trkpt>
      <trkpt lat="47.75743" lon="-3.35533">
        <ele>0.1</ele>
        <time>2020-08-21T09:03:24.000Z</time>
      </trkpt>
      <trkpt lat="47.75742" lon="-3.35532">
        <ele>0.1</ele>
        <time>2020-08-21T09:03:25.000Z</time>
      </trkpt>
      <trkpt lat="47.75742" lon="-3.3553">
        <ele>0.1</ele>
        <time>2020-08-21T09:03:26.000Z</time>
      </trkpt>
      <trkpt lat="47.75742" lon="-3.35528">
        <ele>0.1</ele>
        <time>2020-08-21T09:03:27.000Z</time>
      </trkpt>
      <trkpt lat="47.75742" lon="-3.35526">
        <ele>0.1</ele>
        <time>2020-08-21T09:03:28.000Z</time>
      </trkpt>
      <trkpt lat="47.75742" lon="-3.35524">
        <ele>0.1</ele>
        <time>2020-08-21T09:03:29.000Z</time>
      </trkpt>
      <trkpt lat="47.75742" lon="-3.35522">
        <ele>0.1</ele>
        <time>2020-08-21T09:03:30.000Z</time>
      </trkpt>
      <trkpt lat="47.75742" lon="-3.3552">
        <ele>0.1</ele>
        <time>2020-08-21T09:03:31.000Z</time>
      </trkpt>
      <trkpt lat="47.75743" lon="-3.35518">
        <ele>0.1</ele>
        <time>2020-08-21T09:03:32.000Z</time>
      </trkpt>
      <trkpt lat="47.75743" lon="-3.35516">
        <ele>0.1</ele>
        <time>2020-08-21T09:03:33.000Z</time>
      </trkpt>
      <trkpt lat="47.75743" lon="-3.35514">
        <ele>0.1</ele>
        <time>2020-08-21T09:03:34.000Z</time>
      </trkpt>
      <trkpt lat="47.75744" lon="-3.35512">
        <ele>4</ele>
        <time>2020-08-21T09:03:35.000Z</time>
      </trkpt>
      <trkpt lat="47.75744" lon="-3.3551">
        <ele>4</ele>
        <time>2020-08-21T09:03:36.000Z</time>
      </trkpt>
      <trkpt lat="47.75744" lon="-3.35508">
        <ele>4</ele>
        <time>2020-08-21T09:03:37.000Z</time>
      </trkpt>
      <trkpt lat="47.75744" lon="-3.35507">
        <ele>4</ele>
        <time>2020-08-21T09:03:38.000Z</time>
      </trkpt>
      <trkpt lat="47.75744" lon="-3.35505">
        <ele>4</ele>
        <time>2020-08-21T09:03:39.000Z</time>
      </trkpt>
      <trkpt lat="47.75744" lon="-3.35503">
        <ele>4</ele>
        <time>2020-08-21T09:03:40.000Z</time>
      </trkpt>
      <trkpt lat="47.75744" lon="-3.35501">
        <ele>4</ele>
        <time>2020-08-21T09:03:41.000Z</time>
      </trkpt>
      <trkpt lat="47.75743" lon="-3.355">
        <ele>3</ele>
        <time>2020-08-21T09:03:42.000Z</time>
      </trkpt>
      <trkpt lat="47.75742" lon="-3.35498">
        <ele>3.1</ele>
        <time>2020-08-21T09:03:43.000Z</time>
      </trkpt>
      <trkpt lat="47.75742" lon="-3.35497">
        <ele>3.1</ele>
        <time>2020-08-21T09:03:44.000Z</time>
      </trkpt>
      <trkpt lat="47.75741" lon="-3.35495">
        <ele>3.2</ele>
        <time>2020-08-21T09:03:45.000Z</time>
      </trkpt>
      <trkpt lat="47.7574" lon="-3.35494">
        <ele>3.3</ele>
        <time>2020-08-21T09:03:46.000Z</time>
      </trkpt>
      <trkpt lat="47.75739" lon="-3.35492">
        <ele>3.4</ele>
        <time>2020-08-21T09:03:47.000Z</time>
      </trkpt>
      <trkpt lat="47.75737" lon="-3.35491">
        <ele>3.6</ele>
        <time>2020-08-21T09:03:48.000Z</time>
      </trkpt>
      <trkpt lat="47.75736" lon="-3.3549">
        <ele>3.7</ele>
        <time>2020-08-21T09:03:49.000Z</time>
      </trkpt>
      <trkpt lat="47.75735" lon="-3.35488">
        <ele>3.7</ele>
        <time>2020-08-21T09:03:50.000Z</time>
      </trkpt>
      <trkpt lat="47.75734" lon="-3.35487">
        <ele>3.8</ele>
        <time>2020-08-21T09:03:51.000Z</time>
      </trkpt>
      <trkpt lat="47.75733" lon="-3.35486">
        <ele>3.8</ele>
        <time>2020-08-21T09:03:52.000Z</time>
      </trkpt>
      <trkpt lat="47.75731" lon="-3.35485">
        <ele>4</ele>
        <time>2020-08-21T09:03:53.000Z</time>
      </trkpt>
      <trkpt lat="47.7573" lon="-3.35484">
        <ele>4.1</ele>
        <time>2020-08-21T09:03:54.000Z</time>
      </trkpt>
      <trkpt lat="47.75729" lon="-3.35483">
        <ele>4.1</ele>
        <time>2020-08-21T09:03:55.000Z</time>
      </trkpt>
      <trkpt lat="47.75727" lon="-3.35482">
        <ele>4.2</ele>
        <time>2020-08-21T09:03:56.000Z</time>
      </trkpt>
      <trkpt lat="47.75726" lon="-3.35482">
        <ele>4.3</ele>
        <time>2020-08-21T09:03:57.000Z</time>
      </trkpt>
      <trkpt lat="47.75725" lon="-3.35481">
        <ele>4.4</ele>
        <time>2020-08-21T09:03:58.000Z</time>
      </trkpt>
      <trkpt lat="47.75724" lon="-3.35481">
        <ele>4.5</ele>
        <time>2020-08-21T09:03:59.000Z</time>
      </trkpt>
      <trkpt lat="47.75723" lon="-3.35481">
        <ele>4.6</ele>
        <time>2020-08-21T09:04:00.000Z</time>
      </trkpt>
      <trkpt lat="47.75721" lon="-3.35481">
        <ele>4.6</ele>
        <time>2020-08-21T09:04:01.000Z</time>
      </trkpt>
      <trkpt lat="47.7572" lon="-3.35481">
        <ele>4.7</ele>
        <time>2020-08-21T09:04:02.000Z</time>
      </trkpt>
      <trkpt lat="47.75719" lon="-3.35481">
        <ele>4.7</ele>
        <time>2020-08-21T09:04:03.000Z</time>
      </trkpt>
      <trkpt lat="47.75718" lon="-3.35481">
        <ele>4.7</ele>
        <time>2020-08-21T09:04:04.000Z</time>
      </trkpt>
      <trkpt lat="47.75717" lon="-3.3548">
        <ele>4.6</ele>
        <time>2020-08-21T09:04:05.000Z</time>
      </trkpt>
      <trkpt lat="47.75716" lon="-3.3548">
        <ele>4.7</ele>
        <time>2020-08-21T09:04:06.000Z</time>
      </trkpt>
      <trkpt lat="47.75715" lon="-3.3548">
        <ele>4.7</ele>
        <time>2020-08-21T09:04:07.000Z</time>
      </trkpt>
      <trkpt lat="47.75714" lon="-3.35479">
        <ele>4.6</ele>
        <time>2020-08-21T09:04:08.000Z</time>
      </trkpt>
      <trkpt lat="47.75713" lon="-3.35479">
        <ele>4.7</ele>
        <time>2020-08-21T09:04:09.000Z</time>
      </trkpt>
      <trkpt lat="47.75711" lon="-3.35478">
        <ele>4.7</ele>
        <time>2020-08-21T09:04:10.000Z</time>
      </trkpt>
      <trkpt lat="47.7571" lon="-3.35477">
        <ele>4.6</ele>
        <time>2020-08-21T09:04:11.000Z</time>
      </trkpt>
      <trkpt lat="47.75709" lon="-3.35476">
        <ele>4.6</ele>
        <time>2020-08-21T09:04:12.000Z</time>
      </trkpt>
      <trkpt lat="47.75708" lon="-3.35475">
        <ele>4.6</ele>
        <time>2020-08-21T09:04:13.000Z</time>
      </trkpt>
      <trkpt lat="47.75706" lon="-3.35474">
        <ele>4.6</ele>
        <time>2020-08-21T09:04:14.000Z</time>
      </trkpt>
      <trkpt lat="47.75705" lon="-3.35473">
        <ele>4.6</ele>
        <time>2020-08-21T09:04:15.000Z</time>
      </trkpt>
      <trkpt lat="47.75704" lon="-3.35473">
        <ele>4.7</ele>
        <time>2020-08-21T09:04:16.000Z</time>
      </trkpt>
      <trkpt lat="47.75703" lon="-3.35472">
        <ele>4.7</ele>
        <time>2020-08-21T09:04:17.000Z</time>
      </trkpt>
      <trkpt lat="47.75702" lon="-3.35472">
        <ele>4.7</ele>
        <time>2020-08-21T09:04:18.000Z</time>
      </trkpt>
      <trkpt lat="47.75701" lon="-3.35472">
        <ele>4.7</ele>
        <time>2020-08-21T09:04:19.000Z</time>
      </trkpt>
      <trkpt lat="47.757" lon="-3.35471">
        <ele>4.7</ele>
        <time>2020-08-21T09:04:20.000Z</time>
      </trkpt>
      <trkpt lat="47.75699" lon="-3.35471">
        <ele>4.7</ele>
        <time>2020-08-21T09:04:21.000Z</time>
      </trkpt>
      <trkpt lat="47.75698" lon="-3.35471">
        <ele>4.7</ele>
        <time>2020-08-21T09:04:22.000Z</time>
      </trkpt>
      <trkpt lat="47.75697" lon="-3.35471">
        <ele>4.8</ele>
        <time>2020-08-21T09:04:23.000Z</time>
      </trkpt>
      <trkpt lat="47.75696" lon="-3.35471">
        <ele>4.8</ele>
        <time>2020-08-21T09:04:24.000Z</time>
      </trkpt>
      <trkpt lat="47.75695" lon="-3.35471">
        <ele>4.8</ele>
        <time>2020-08-21T09:04:25.000Z</time>
      </trkpt>
      <trkpt lat="47.75693" lon="-3.3547">
        <ele>4.7</ele>
        <time>2020-08-21T09:04:26.000Z</time>
      </trkpt>
      <trkpt lat="47.75692" lon="-3.3547">
        <ele>4.7</ele>
        <time>2020-08-21T09:04:27.000Z</time>
      </trkpt>
      <trkpt lat="47.75691" lon="-3.3547">
        <ele>4.7</ele>
        <time>2020-08-21T09:04:28.000Z</time>
      </trkpt>
      <trkpt lat="47.7569" lon="-3.35469">
        <ele>4.5</ele>
        <time>2020-08-21T09:04:29.000Z</time>
      </trkpt>
      <trkpt lat="47.75688" lon="-3.35469">
        <ele>4.5</ele>
        <time>2020-08-21T09:04:30.000Z</time>
      </trkpt>
      <trkpt lat="47.75687" lon="-3.35468">
        <ele>4.4</ele>
        <time>2020-08-21T09:04:31.000Z</time>
      </trkpt>
      <trkpt lat="47.75685" lon="-3.35468">
        <ele>4.3</ele>
        <time>2020-08-21T09:04:32.000Z</time>
      </trkpt>
      <trkpt lat="47.75683" lon="-3.35467">
        <ele>4.2</ele>
        <time>2020-08-21T09:04:33.000Z</time>
      </trkpt>
      <trkpt lat="47.75682" lon="-3.35467">
        <ele>4.2</ele>
        <time>2020-08-21T09:04:34.000Z</time>
      </trkpt>
      <trkpt lat="47.7568" lon="-3.35466">
        <ele>4</ele>
        <time>2020-08-21T09:04:35.000Z</time>
      </trkpt>
      <trkpt lat="47.75679" lon="-3.35465">
        <ele>4</ele>
        <time>2020-08-21T09:04:36.000Z</time>
      </trkpt>
      <trkpt lat="47.75677" lon="-3.35465">
        <ele>3.9</ele>
        <time>2020-08-21T09:04:37.000Z</time>
      </trkpt>
      <trkpt lat="47.75676" lon="-3.35464">
        <ele>3.8</ele>
        <time>2020-08-21T09:04:38.000Z</time>
      </trkpt>
      <trkpt lat="47.75675" lon="-3.35464">
        <ele>3.8</ele>
        <time>2020-08-21T09:04:39.000Z</time>
      </trkpt>
      <trkpt lat="47.75673" lon="-3.35464">
        <ele>3.8</ele>
        <time>2020-08-21T09:04:40.000Z</time>
      </trkpt>
      <trkpt lat="47.75672" lon="-3.35463">
        <ele>3.7</ele>
        <time>2020-08-21T09:04:41.000Z</time>
      </trkpt>
      <trkpt lat="47.75671" lon="-3.35463">
        <ele>3.7</ele>
        <time>2020-08-21T09:04:42.000Z</time>
      </trkpt>
      <trkpt lat="47.75669" lon="-3.35463">
        <ele>3.7</ele>
        <time>2020-08-21T09:04:43.000Z</time>
      </trkpt>
      <trkpt lat="47.75668" lon="-3.35463">
        <ele>3.7</ele>
        <time>2020-08-21T09:04:44.000Z</time>
      </trkpt>
      <trkpt lat="47.75667" lon="-3.35463">
        <ele>3.7</ele>
        <time>2020-08-21T09:04:45.000Z</time>
      </trkpt>
      <trkpt lat="47.75665" lon="-3.35463">
        <ele>3.6</ele>
        <time>2020-08-21T09:04:46.000Z</time>
      </trkpt>
      <trkpt lat="47.75664" lon="-3.35463">
        <ele>3.6</ele>
        <time>2020-08-21T09:04:47.000Z</time>
      </trkpt>
      <trkpt lat="47.75662" lon="-3.35463">
        <ele>3.5</ele>
        <time>2020-08-21T09:04:48.000Z</time>
      </trkpt>
      <trkpt lat="47.75661" lon="-3.35464">
        <ele>3.5</ele>
        <time>2020-08-21T09:04:49.000Z</time>
      </trkpt>
      <trkpt lat="47.75659" lon="-3.35464">
        <ele>3.4</ele>
        <time>2020-08-21T09:04:50.000Z</time>
      </trkpt>
      <trkpt lat="47.75658" lon="-3.35464">
        <ele>3.4</ele>
        <time>2020-08-21T09:04:51.000Z</time>
      </trkpt>
      <trkpt lat="47.75657" lon="-3.35464">
        <ele>3.4</ele>
        <time>2020-08-21T09:04:52.000Z</time>
      </trkpt>
      <trkpt lat="47.75656" lon="-3.35465">
        <ele>3.4</ele>
        <time>2020-08-21T09:04:53.000Z</time>
      </trkpt>
      <trkpt lat="47.75655" lon="-3.35465">
        <ele>3.3</ele>
        <time>2020-08-21T09:04:54.000Z</time>
      </trkpt>
      <trkpt lat="47.75654" lon="-3.35465">
        <ele>3.3</ele>
        <time>2020-08-21T09:04:55.000Z</time>
      </trkpt>
      <trkpt lat="47.75653" lon="-3.35466">
        <ele>3.3</ele>
        <time>2020-08-21T09:04:56.000Z</time>
      </trkpt>
      <trkpt lat="47.75652" lon="-3.35466">
        <ele>3.2</ele>
        <time>2020-08-21T09:04:57.000Z</time>
      </trkpt>
      <trkpt lat="47.75651" lon="-3.35466">
        <ele>3.2</ele>
        <time>2020-08-21T09:04:58.000Z</time>
      </trkpt>
      <trkpt lat="47.7565" lon="-3.35466">
        <ele>3.2</ele>
        <time>2020-08-21T09:04:59.000Z</time>
      </trkpt>
      <trkpt lat="47.75649" lon="-3.35467">
        <ele>3.2</ele>
        <time>2020-08-21T09:05:00.000Z</time>
      </trkpt>
      <trkpt lat="47.75648" lon="-3.35467">
        <ele>3.1</ele>
        <time>2020-08-21T09:05:01.000Z</time>
      </trkpt>
      <trkpt lat="47.75647" lon="-3.35467">
        <ele>3.1</ele>
        <time>2020-08-21T09:05:02.000Z</time>
      </trkpt>
      <trkpt lat="47.75646" lon="-3.35467">
        <ele>3.1</ele>
        <time>2020-08-21T09:05:03.000Z</time>
      </trkpt>
      <trkpt lat="47.75644" lon="-3.35467">
        <ele>3</ele>
        <time>2020-08-21T09:05:04.000Z</time>
      </trkpt>
      <trkpt lat="47.75643" lon="-3.35467">
        <ele>3</ele>
        <time>2020-08-21T09:05:05.000Z</time>
      </trkpt>
      <trkpt lat="47.75642" lon="-3.35467">
        <ele>2.9</ele>
        <time>2020-08-21T09:05:06.000Z</time>
      </trkpt>
      <trkpt lat="47.7564" lon="-3.35467">
        <ele>2.9</ele>
        <time>2020-08-21T09:05:07.000Z</time>
      </trkpt>
      <trkpt lat="47.75639" lon="-3.35467">
        <ele>2.8</ele>
        <time>2020-08-21T09:05:08.000Z</time>
      </trkpt>
      <trkpt lat="47.75637" lon="-3.35467">
        <ele>2.9</ele>
        <time>2020-08-21T09:05:09.000Z</time>
      </trkpt>
      <trkpt lat="47.75636" lon="-3.35467">
        <ele>2.9</ele>
        <time>2020-08-21T09:05:10.000Z</time>
      </trkpt>
      <trkpt lat="47.75634" lon="-3.35467">
        <ele>3</ele>
        <time>2020-08-21T09:05:11.000Z</time>
      </trkpt>
      <trkpt lat="47.75632" lon="-3.35467">
        <ele>3</ele>
        <time>2020-08-21T09:05:12.000Z</time>
      </trkpt>
      <trkpt lat="47.75631" lon="-3.35467">
        <ele>3</ele>
        <time>2020-08-21T09:05:13.000Z</time>
      </trkpt>
      <trkpt lat="47.75629" lon="-3.35467">
        <ele>3.1</ele>
        <time>2020-08-21T09:05:14.000Z</time>
      </trkpt>
      <trkpt lat="47.75628" lon="-3.35468">
        <ele>3.2</ele>
        <time>2020-08-21T09:05:15.000Z</time>
      </trkpt>
      <trkpt lat="47.75628" lon="-3.35468">
        <ele>3.2</ele>
        <time>2020-08-21T09:05:16.000Z</time>
      </trkpt>
      <trkpt lat="47.75627" lon="-3.35468">
        <ele>3.2</ele>
        <time>2020-08-21T09:05:17.000Z</time>
      </trkpt>
      <trkpt lat="47.75627" lon="-3.35468">
        <ele>3.2</ele>
        <time>2020-08-21T09:05:18.000Z</time>
      </trkpt>
      <trkpt lat="47.75627" lon="-3.35468">
        <ele>3.2</ele>
        <time>2020-08-21T09:05:19.000Z</time>
      </trkpt>
      <trkpt lat="47.75627" lon="-3.35469">
        <ele>3.3</ele>
        <time>2020-08-21T09:05:20.000Z</time>
      </trkpt>
      <trkpt lat="47.75627" lon="-3.35469">
        <ele>3.3</ele>
        <time>2020-08-21T09:05:21.000Z</time>
      </trkpt>
      <trkpt lat="47.75627" lon="-3.35469">
        <ele>3.3</ele>
        <time>2020-08-21T09:05:22.000Z</time>
      </trkpt>
      <trkpt lat="47.75627" lon="-3.35469">
        <ele>3.3</ele>
        <time>2020-08-21T09:05:23.000Z</time>
      </trkpt>
      <trkpt lat="47.75627" lon="-3.35469">
        <ele>3.3</ele>
        <time>2020-08-21T09:05:24.000Z</time>
      </trkpt>
      <trkpt lat="47.75626" lon="-3.3547">
        <ele>3.3</ele>
        <time>2020-08-21T09:05:25.000Z</time>
      </trkpt>
      <trkpt lat="47.75626" lon="-3.3547">
        <ele>3.3</ele>
        <time>2020-08-21T09:05:26.000Z</time>
      </trkpt>
      <trkpt lat="47.75625" lon="-3.3547">
        <ele>3.4</ele>
        <time>2020-08-21T09:05:27.000Z</time>
      </trkpt>
      <trkpt lat="47.75624" lon="-3.3547">
        <ele>3.4</ele>
        <time>2020-08-21T09:05:28.000Z</time>
      </trkpt>
      <trkpt lat="47.75623" lon="-3.3547">
        <ele>3.4</ele>
        <time>2020-08-21T09:05:29.000Z</time>
      </trkpt>
      <trkpt lat="47.75622" lon="-3.3547">
        <ele>3.5</ele>
        <time>2020-08-21T09:05:30.000Z</time>
      </trkpt>
      <trkpt lat="47.75621" lon="-3.35469">
        <ele>3.5</ele>
        <time>2020-08-21T09:05:31.000Z</time>
      </trkpt>
      <trkpt lat="47.7562" lon="-3.35469">
        <ele>3.5</ele>
        <time>2020-08-21T09:05:32.000Z</time>
      </trkpt>
      <trkpt lat="47.75618" lon="-3.35469">
        <ele>3.5</ele>
        <time>2020-08-21T09:05:33.000Z</time>
      </trkpt>
      <trkpt lat="47.75617" lon="-3.35469">
        <ele>3.6</ele>
        <time>2020-08-21T09:05:34.000Z</time>
      </trkpt>
      <trkpt lat="47.75615" lon="-3.35469">
        <ele>3.6</ele>
        <time>2020-08-21T09:05:35.000Z</time>
      </trkpt>
      <trkpt lat="47.75614" lon="-3.35468">
        <ele>3.6</ele>
        <time>2020-08-21T09:05:36.000Z</time>
      </trkpt>
      <trkpt lat="47.75612" lon="-3.35468">
        <ele>3.7</ele>
        <time>2020-08-21T09:05:37.000Z</time>
      </trkpt>
      <trkpt lat="47.75611" lon="-3.35468">
        <ele>3.7</ele>
        <time>2020-08-21T09:05:38.000Z</time>
      </trkpt>
      <trkpt lat="47.75609" lon="-3.35467">
        <ele>3.7</ele>
        <time>2020-08-21T09:05:39.000Z</time>
      </trkpt>
      <trkpt lat="47.75608" lon="-3.35467">
        <ele>3.7</ele>
        <time>2020-08-21T09:05:40.000Z</time>
      </trkpt>
      <trkpt lat="47.75606" lon="-3.35467">
        <ele>3.8</ele>
        <time>2020-08-21T09:05:41.000Z</time>
      </trkpt>
      <trkpt lat="47.75605" lon="-3.35466">
        <ele>3.7</ele>
        <time>2020-08-21T09:05:42.000Z</time>
      </trkpt>
      <trkpt lat="47.75603" lon="-3.35466">
        <ele>3.8</ele>
        <time>2020-08-21T09:05:43.000Z</time>
      </trkpt>
      <trkpt lat="47.75601" lon="-3.35465">
        <ele>3.7</ele>
        <time>2020-08-21T09:05:44.000Z</time>
      </trkpt>
      <trkpt lat="47.756" lon="-3.35465">
        <ele>3.8</ele>
        <time>2020-08-21T09:05:45.000Z</time>
      </trkpt>
      <trkpt lat="47.75598" lon="-3.35464">
        <ele>3.7</ele>
        <time>2020-08-21T09:05:46.000Z</time>
      </trkpt>
      <trkpt lat="47.75597" lon="-3.35464">
        <ele>3.8</ele>
        <time>2020-08-21T09:05:47.000Z</time>
      </trkpt>
      <trkpt lat="47.75595" lon="-3.35463">
        <ele>3.7</ele>
        <time>2020-08-21T09:05:48.000Z</time>
      </trkpt>
      <trkpt lat="47.75594" lon="-3.35463">
        <ele>3.7</ele>
        <time>2020-08-21T09:05:49.000Z</time>
      </trkpt>
      <trkpt lat="47.75592" lon="-3.35462">
        <ele>3.7</ele>
        <time>2020-08-21T09:05:50.000Z</time>
      </trkpt>
      <trkpt lat="47.75591" lon="-3.35462">
        <ele>3.7</ele>
        <time>2020-08-21T09:05:51.000Z</time>
      </trkpt>
      <trkpt lat="47.75589" lon="-3.35462">
        <ele>3.8</ele>
        <time>2020-08-21T09:05:52.000Z</time>
      </trkpt>
      <trkpt lat="47.75588" lon="-3.35461">
        <ele>3.7</ele>
        <time>2020-08-21T09:05:53.000Z</time>
      </trkpt>
      <trkpt lat="47.75587" lon="-3.35461">
        <ele>3.7</ele>
        <time>2020-08-21T09:05:54.000Z</time>
      </trkpt>
      <trkpt lat="47.75585" lon="-3.35461">
        <ele>3.8</ele>
        <time>2020-08-21T09:05:55.000Z</time>
      </trkpt>
      <trkpt lat="47.75584" lon="-3.3546">
        <ele>3.7</ele>
        <time>2020-08-21T09:05:56.000Z</time>
      </trkpt>
      <trkpt lat="47.75583" lon="-3.3546">
        <ele>5</ele>
        <time>2020-08-21T09:05:57.000Z</time>
      </trkpt>
      <trkpt lat="47.75581" lon="-3.3546">
        <ele>0.1</ele>
        <time>2020-08-21T09:05:58.000Z</time>
      </trkpt>
      <trkpt lat="47.7558" lon="-3.35459">
        <ele>0.1</ele>
        <time>2020-08-21T09:05:59.000Z</time>
      </trkpt>
      <trkpt lat="47.75579" lon="-3.35459">
        <ele>0.1</ele>
        <time>2020-08-21T09:06:00.000Z</time>
      </trkpt>
      <trkpt lat="47.75578" lon="-3.35459">
        <ele>0.2</ele>
        <time>2020-08-21T09:06:01.000Z</time>
      </trkpt>
      <trkpt lat="47.75576" lon="-3.35459">
        <ele>0.2</ele>
        <time>2020-08-21T09:06:02.000Z</time>
      </trkpt>
      <trkpt lat="47.75575" lon="-3.35458">
        <ele>0.2</ele>
        <time>2020-08-21T09:06:03.000Z</time>
      </trkpt>
      <trkpt lat="47.75574" lon="-3.35458">
        <ele>0.3</ele>
        <time>2020-08-21T09:06:04.000Z</time>
      </trkpt>
      <trkpt lat="47.75573" lon="-3.35458">
        <ele>0.3</ele>
        <time>2020-08-21T09:06:05.000Z</time>
      </trkpt>
      <trkpt lat="47.75572" lon="-3.35459">
        <ele>0.4</ele>
        <time>2020-08-21T09:06:06.000Z</time>
      </trkpt>
      <trkpt lat="47.75571" lon="-3.35459">
        <ele>0.4</ele>
        <time>2020-08-21T09:06:07.000Z</time>
      </trkpt>
      <trkpt lat="47.7557" lon="-3.3546">
        <ele>0.4</ele>
        <time>2020-08-21T09:06:08.000Z</time>
      </trkpt>
      <trkpt lat="47.75569" lon="-3.35461">
        <ele>0.5</ele>
        <time>2020-08-21T09:06:09.000Z</time>
      </trkpt>
      <trkpt lat="47.75568" lon="-3.35462">
        <ele>0.5</ele>
        <time>2020-08-21T09:06:10.000Z</time>
      </trkpt>
      <trkpt lat="47.75567" lon="-3.35462">
        <ele>0.6</ele>
        <time>2020-08-21T09:06:11.000Z</time>
      </trkpt>
      <trkpt lat="47.75565" lon="-3.35463">
        <ele>0.6</ele>
        <time>2020-08-21T09:06:12.000Z</time>
      </trkpt>
      <trkpt lat="47.75564" lon="-3.35463">
        <ele>0.6</ele>
        <time>2020-08-21T09:06:13.000Z</time>
      </trkpt>
      <trkpt lat="47.75563" lon="-3.35462">
        <ele>0.7</ele>
        <time>2020-08-21T09:06:14.000Z</time>
      </trkpt>
      <trkpt lat="47.75562" lon="-3.35462">
        <ele>0.7</ele>
        <time>2020-08-21T09:06:15.000Z</time>
      </trkpt>
      <trkpt lat="47.7556" lon="-3.35461">
        <ele>0.7</ele>
        <time>2020-08-21T09:06:16.000Z</time>
      </trkpt>
      <trkpt lat="47.75559" lon="-3.35461">
        <ele>0.8</ele>
        <time>2020-08-21T09:06:17.000Z</time>
      </trkpt>
      <trkpt lat="47.75558" lon="-3.3546">
        <ele>0.8</ele>
        <time>2020-08-21T09:06:18.000Z</time>
      </trkpt>
      <trkpt lat="47.75557" lon="-3.35459">
        <ele>0.8</ele>
        <time>2020-08-21T09:06:19.000Z</time>
      </trkpt>
      <trkpt lat="47.75556" lon="-3.35459">
        <ele>0.8</ele>
        <time>2020-08-21T09:06:20.000Z</time>
      </trkpt>
      <trkpt lat="47.75554" lon="-3.35458">
        <ele>0.9</ele>
        <time>2020-08-21T09:06:21.000Z</time>
      </trkpt>
      <trkpt lat="47.75553" lon="-3.35457">
        <ele>0.9</ele>
        <time>2020-08-21T09:06:22.000Z</time>
      </trkpt>
      <trkpt lat="47.75552" lon="-3.35456">
        <ele>0.9</ele>
        <time>2020-08-21T09:06:23.000Z</time>
      </trkpt>
      <trkpt lat="47.75551" lon="-3.35455">
        <ele>0.9</ele>
        <time>2020-08-21T09:06:24.000Z</time>
      </trkpt>
      <trkpt lat="47.75549" lon="-3.35454">
        <ele>0.9</ele>
        <time>2020-08-21T09:06:25.000Z</time>
      </trkpt>
      <trkpt lat="47.75548" lon="-3.35454">
        <ele>0.9</ele>
        <time>2020-08-21T09:06:26.000Z</time>
      </trkpt>
      <trkpt lat="47.75547" lon="-3.35453">
        <ele>0.9</ele>
        <time>2020-08-21T09:06:27.000Z</time>
      </trkpt>
      <trkpt lat="47.75546" lon="-3.35452">
        <ele>1</ele>
        <time>2020-08-21T09:06:28.000Z</time>
      </trkpt>
      <trkpt lat="47.75544" lon="-3.35451">
        <ele>1</ele>
        <time>2020-08-21T09:06:29.000Z</time>
      </trkpt>
      <trkpt lat="47.75543" lon="-3.3545">
        <ele>1</ele>
        <time>2020-08-21T09:06:30.000Z</time>
      </trkpt>
      <trkpt lat="47.75542" lon="-3.35449">
        <ele>1</ele>
        <time>2020-08-21T09:06:31.000Z</time>
      </trkpt>
      <trkpt lat="47.75541" lon="-3.35449">
        <ele>1</ele>
        <time>2020-08-21T09:06:32.000Z</time>
      </trkpt>
      <trkpt lat="47.7554" lon="-3.35448">
        <ele>1</ele>
        <time>2020-08-21T09:06:33.000Z</time>
      </trkpt>
      <trkpt lat="47.75538" lon="-3.35447">
        <ele>1</ele>
        <time>2020-08-21T09:06:34.000Z</time>
      </trkpt>
      <trkpt lat="47.75537" lon="-3.35446">
        <ele>1</ele>
        <time>2020-08-21T09:06:35.000Z</time>
      </trkpt>
      <trkpt lat="47.75536" lon="-3.35445">
        <ele>1</ele>
        <time>2020-08-21T09:06:36.000Z</time>
      </trkpt>
      <trkpt lat="47.75535" lon="-3.35445">
        <ele>1</ele>
        <time>2020-08-21T09:06:37.000Z</time>
      </trkpt>
      <trkpt lat="47.75534" lon="-3.35444">
        <ele>1</ele>
        <time>2020-08-21T09:06:38.000Z</time>
      </trkpt>
      <trkpt lat="47.75533" lon="-3.35443">
        <ele>1</ele>
        <time>2020-08-21T09:06:39.000Z</time>
      </trkpt>
      <trkpt lat="47.75532" lon="-3.35442">
        <ele>0.9</ele>
        <time>2020-08-21T09:06:40.000Z</time>
      </trkpt>
      <trkpt lat="47.75531" lon="-3.35441">
        <ele>0.9</ele>
        <time>2020-08-21T09:06:41.000Z</time>
      </trkpt>
      <trkpt lat="47.75529" lon="-3.3544">
        <ele>0.9</ele>
        <time>2020-08-21T09:06:42.000Z</time>
      </trkpt>
      <trkpt lat="47.75528" lon="-3.35439">
        <ele>0.9</ele>
        <time>2020-08-21T09:06:43.000Z</time>
      </trkpt>
      <trkpt lat="47.75527" lon="-3.35438">
        <ele>0.9</ele>
        <time>2020-08-21T09:06:44.000Z</time>
      </trkpt>
      <trkpt lat="47.75526" lon="-3.35437">
        <ele>0.9</ele>
        <time>2020-08-21T09:06:45.000Z</time>
      </trkpt>
      <trkpt lat="47.75525" lon="-3.35436">
        <ele>0.8</ele>
        <time>2020-08-21T09:06:46.000Z</time>
      </trkpt>
      <trkpt lat="47.75524" lon="-3.35435">
        <ele>0.8</ele>
        <time>2020-08-21T09:06:47.000Z</time>
      </trkpt>
      <trkpt lat="47.75523" lon="-3.35434">
        <ele>0.8</ele>
        <time>2020-08-21T09:06:48.000Z</time>
      </trkpt>
      <trkpt lat="47.75521" lon="-3.35433">
        <ele>0.7</ele>
        <time>2020-08-21T09:06:49.000Z</time>
      </trkpt>
      <trkpt lat="47.7552" lon="-3.35432">
        <ele>0.7</ele>
        <time>2020-08-21T09:06:50.000Z</time>
      </trkpt>
      <trkpt lat="47.75519" lon="-3.35431">
        <ele>0.7</ele>
        <time>2020-08-21T09:06:51.000Z</time>
      </trkpt>
      <trkpt lat="47.75518" lon="-3.3543">
        <ele>0.6</ele>
        <time>2020-08-21T09:06:52.000Z</time>
      </trkpt>
      <trkpt lat="47.75517" lon="-3.35429">
        <ele>0.6</ele>
        <time>2020-08-21T09:06:53.000Z</time>
      </trkpt>
      <trkpt lat="47.75515" lon="-3.35428">
        <ele>0.5</ele>
        <time>2020-08-21T09:06:54.000Z</time>
      </trkpt>
      <trkpt lat="47.75514" lon="-3.35427">
        <ele>0.5</ele>
        <time>2020-08-21T09:06:55.000Z</time>
      </trkpt>
      <trkpt lat="47.75513" lon="-3.35426">
        <ele>0.4</ele>
        <time>2020-08-21T09:06:56.000Z</time>
      </trkpt>
      <trkpt lat="47.75512" lon="-3.35424">
        <ele>0.4</ele>
        <time>2020-08-21T09:06:57.000Z</time>
      </trkpt>
      <trkpt lat="47.7551" lon="-3.35423">
        <ele>0.3</ele>
        <time>2020-08-21T09:06:58.000Z</time>
      </trkpt>
      <trkpt lat="47.75509" lon="-3.35422">
        <ele>0.3</ele>
        <time>2020-08-21T09:06:59.000Z</time>
      </trkpt>
      <trkpt lat="47.75508" lon="-3.35421">
        <ele>0.2</ele>
        <time>2020-08-21T09:07:00.000Z</time>
      </trkpt>
      <trkpt lat="47.75507" lon="-3.3542">
        <ele>0.2</ele>
        <time>2020-08-21T09:07:01.000Z</time>
      </trkpt>
      <trkpt lat="47.75506" lon="-3.35419">
        <ele>0.1</ele>
        <time>2020-08-21T09:07:02.000Z</time>
      </trkpt>
      <trkpt lat="47.75504" lon="-3.35418">
        <ele>0.1</ele>
        <time>2020-08-21T09:07:03.000Z</time>
      </trkpt>
      <trkpt lat="47.75503" lon="-3.35417">
        <ele>3.8</ele>
        <time>2020-08-21T09:07:04.000Z</time>
      </trkpt>
      <trkpt lat="47.75502" lon="-3.35416">
        <ele>3.8</ele>
        <time>2020-08-21T09:07:05.000Z</time>
      </trkpt>
      <trkpt lat="47.75501" lon="-3.35414">
        <ele>3.7</ele>
        <time>2020-08-21T09:07:06.000Z</time>
      </trkpt>
      <trkpt lat="47.755" lon="-3.35413">
        <ele>3.7</ele>
        <time>2020-08-21T09:07:07.000Z</time>
      </trkpt>
      <trkpt lat="47.75499" lon="-3.35412">
        <ele>2</ele>
        <time>2020-08-21T09:07:08.000Z</time>
      </trkpt>
      <trkpt lat="47.75498" lon="-3.35412">
        <ele>2</ele>
        <time>2020-08-21T09:07:09.000Z</time>
      </trkpt>
      <trkpt lat="47.75497" lon="-3.35411">
        <ele>0.1</ele>
        <time>2020-08-21T09:07:10.000Z</time>
      </trkpt>
      <trkpt lat="47.75496" lon="-3.3541">
        <ele>0.1</ele>
        <time>2020-08-21T09:07:11.000Z</time>
      </trkpt>
      <trkpt lat="47.75496" lon="-3.35409">
        <ele>0.1</ele>
        <time>2020-08-21T09:07:12.000Z</time>
      </trkpt>
      <trkpt lat="47.75495" lon="-3.35408">
        <ele>0.1</ele>
        <time>2020-08-21T09:07:13.000Z</time>
      </trkpt>
      <trkpt lat="47.75494" lon="-3.35407">
        <ele>0.1</ele>
        <time>2020-08-21T09:07:14.000Z</time>
      </trkpt>
      <trkpt lat="47.75493" lon="-3.35406">
        <ele>0.2</ele>
        <time>2020-08-21T09:07:15.000Z</time>
      </trkpt>
      <trkpt lat="47.75492" lon="-3.35405">
        <ele>0.2</ele>
        <time>2020-08-21T09:07:16.000Z</time>
      </trkpt>
      <trkpt lat="47.75491" lon="-3.35404">
        <ele>0.2</ele>
        <time>2020-08-21T09:07:17.000Z</time>
      </trkpt>
      <trkpt lat="47.7549" lon="-3.35403">
        <ele>0.2</ele>
        <time>2020-08-21T09:07:18.000Z</time>
      </trkpt>
      <trkpt lat="47.75489" lon="-3.35402">
        <ele>0.2</ele>
        <time>2020-08-21T09:07:19.000Z</time>
      </trkpt>
      <trkpt lat="47.75487" lon="-3.35401">
        <ele>0.2</ele>
        <time>2020-08-21T09:07:20.000Z</time>
      </trkpt>
      <trkpt lat="47.75486" lon="-3.354">
        <ele>0.3</ele>
        <time>2020-08-21T09:07:21.000Z</time>
      </trkpt>
      <trkpt lat="47.75485" lon="-3.354">
        <ele>0.3</ele>
        <time>2020-08-21T09:07:22.000Z</time>
      </trkpt>
      <trkpt lat="47.75484" lon="-3.35399">
        <ele>0.3</ele>
        <time>2020-08-21T09:07:23.000Z</time>
      </trkpt>
      <trkpt lat="47.75482" lon="-3.35398">
        <ele>0.3</ele>
        <time>2020-08-21T09:07:24.000Z</time>
      </trkpt>
      <trkpt lat="47.75481" lon="-3.35398">
        <ele>0.3</ele>
        <time>2020-08-21T09:07:25.000Z</time>
      </trkpt>
      <trkpt lat="47.7548" lon="-3.35397">
        <ele>0.4</ele>
        <time>2020-08-21T09:07:26.000Z</time>
      </trkpt>
      <trkpt lat="47.75479" lon="-3.35397">
        <ele>0.4</ele>
        <time>2020-08-21T09:07:27.000Z</time>
      </trkpt>
      <trkpt lat="47.75478" lon="-3.35396">
        <ele>0.4</ele>
        <time>2020-08-21T09:07:28.000Z</time>
      </trkpt>
      <trkpt lat="47.75476" lon="-3.35395">
        <ele>0.4</ele>
        <time>2020-08-21T09:07:29.000Z</time>
      </trkpt>
      <trkpt lat="47.75475" lon="-3.35394">
        <ele>0.4</ele>
        <time>2020-08-21T09:07:30.000Z</time>
      </trkpt>
      <trkpt lat="47.75474" lon="-3.35393">
        <ele>0.5</ele>
        <time>2020-08-21T09:07:31.000Z</time>
      </trkpt>
      <trkpt lat="47.75473" lon="-3.35393">
        <ele>0.5</ele>
        <time>2020-08-21T09:07:32.000Z</time>
      </trkpt>
      <trkpt lat="47.75472" lon="-3.35392">
        <ele>0.5</ele>
        <time>2020-08-21T09:07:33.000Z</time>
      </trkpt>
      <trkpt lat="47.75471" lon="-3.35392">
        <ele>0.5</ele>
        <time>2020-08-21T09:07:34.000Z</time>
      </trkpt>
      <trkpt lat="47.75471" lon="-3.35392">
        <ele>0.5</ele>
        <time>2020-08-21T09:07:35.000Z</time>
      </trkpt>
      <trkpt lat="47.7547" lon="-3.35392">
        <ele>0.5</ele>
        <time>2020-08-21T09:07:36.000Z</time>
      </trkpt>
      <trkpt lat="47.75469" lon="-3.35391">
        <ele>0.5</ele>
        <time>2020-08-21T09:07:37.000Z</time>
      </trkpt>
      <trkpt lat="47.75468" lon="-3.3539">
        <ele>0.5</ele>
        <time>2020-08-21T09:07:38.000Z</time>
      </trkpt>
      <trkpt lat="47.75467" lon="-3.35389">
        <ele>0.5</ele>
        <time>2020-08-21T09:07:39.000Z</time>
      </trkpt>
      <trkpt lat="47.75466" lon="-3.35388">
        <ele>0.5</ele>
        <time>2020-08-21T09:07:40.000Z</time>
      </trkpt>
      <trkpt lat="47.75465" lon="-3.35387">
        <ele>0.5</ele>
        <time>2020-08-21T09:07:41.000Z</time>
      </trkpt>
      <trkpt lat="47.75463" lon="-3.35386">
        <ele>0.6</ele>
        <time>2020-08-21T09:07:42.000Z</time>
      </trkpt>
      <trkpt lat="47.75462" lon="-3.35385">
        <ele>0.6</ele>
        <time>2020-08-21T09:07:43.000Z</time>
      </trkpt>
      <trkpt lat="47.7546" lon="-3.35384">
        <ele>0.6</ele>
        <time>2020-08-21T09:07:44.000Z</time>
      </trkpt>
      <trkpt lat="47.75458" lon="-3.35383">
        <ele>0.6</ele>
        <time>2020-08-21T09:07:45.000Z</time>
      </trkpt>
      <trkpt lat="47.75457" lon="-3.35383">
        <ele>0.6</ele>
        <time>2020-08-21T09:07:46.000Z</time>
      </trkpt>
      <trkpt lat="47.75456" lon="-3.35382">
        <ele>0.6</ele>
        <time>2020-08-21T09:07:47.000Z</time>
      </trkpt>
      <trkpt lat="47.75454" lon="-3.35381">
        <ele>0.6</ele>
        <time>2020-08-21T09:07:48.000Z</time>
      </trkpt>
      <trkpt lat="47.75453" lon="-3.35381">
        <ele>0.6</ele>
        <time>2020-08-21T09:07:49.000Z</time>
      </trkpt>
      <trkpt lat="47.75452" lon="-3.3538">
        <ele>0.7</ele>
        <time>2020-08-21T09:07:50.000Z</time>
      </trkpt>
      <trkpt lat="47.7545" lon="-3.35379">
        <ele>0.7</ele>
        <time>2020-08-21T09:07:51.000Z</time>
      </trkpt>
      <trkpt lat="47.75449" lon="-3.35379">
        <ele>0.7</ele>
        <time>2020-08-21T09:07:52.000Z</time>
      </trkpt>
      <trkpt lat="47.75448" lon="-3.35377">
        <ele>0.7</ele>
        <time>2020-08-21T09:07:53.000Z</time>
      </trkpt>
      <trkpt lat="47.75447" lon="-3.35376">
        <ele>0.7</ele>
        <time>2020-08-21T09:07:54.000Z</time>
      </trkpt>
      <trkpt lat="47.75446" lon="-3.35375">
        <ele>0.7</ele>
        <time>2020-08-21T09:07:55.000Z</time>
      </trkpt>
      <trkpt lat="47.75444" lon="-3.35374">
        <ele>0.6</ele>
        <time>2020-08-21T09:07:56.000Z</time>
      </trkpt>
      <trkpt lat="47.75443" lon="-3.35372">
        <ele>0.6</ele>
        <time>2020-08-21T09:07:57.000Z</time>
      </trkpt>
      <trkpt lat="47.75442" lon="-3.35371">
        <ele>0.6</ele>
        <time>2020-08-21T09:07:58.000Z</time>
      </trkpt>
      <trkpt lat="47.75441" lon="-3.35369">
        <ele>0.6</ele>
        <time>2020-08-21T09:07:59.000Z</time>
      </trkpt>
      <trkpt lat="47.7544" lon="-3.35368">
        <ele>0.6</ele>
        <time>2020-08-21T09:08:00.000Z</time>
      </trkpt>
      <trkpt lat="47.75439" lon="-3.35366">
        <ele>0.6</ele>
        <time>2020-08-21T09:08:01.000Z</time>
      </trkpt>
      <trkpt lat="47.75438" lon="-3.35365">
        <ele>0.6</ele>
        <time>2020-08-21T09:08:02.000Z</time>
      </trkpt>
      <trkpt lat="47.75437" lon="-3.35363">
        <ele>0.5</ele>
        <time>2020-08-21T09:08:03.000Z</time>
      </trkpt>
      <trkpt lat="47.75436" lon="-3.35362">
        <ele>0.5</ele>
        <time>2020-08-21T09:08:04.000Z</time>
      </trkpt>
      <trkpt lat="47.75435" lon="-3.35361">
        <ele>0.5</ele>
        <time>2020-08-21T09:08:05.000Z</time>
      </trkpt>
      <trkpt lat="47.75434" lon="-3.35359">
        <ele>0.5</ele>
        <time>2020-08-21T09:08:06.000Z</time>
      </trkpt>
      <trkpt lat="47.75433" lon="-3.35358">
        <ele>0.5</ele>
        <time>2020-08-21T09:08:07.000Z</time>
      </trkpt>
      <trkpt lat="47.75432" lon="-3.35357">
        <ele>0.5</ele>
        <time>2020-08-21T09:08:08.000Z</time>
      </trkpt>
      <trkpt lat="47.75431" lon="-3.35356">
        <ele>0.4</ele>
        <time>2020-08-21T09:08:09.000Z</time>
      </trkpt>
      <trkpt lat="47.7543" lon="-3.35355">
        <ele>0.4</ele>
        <time>2020-08-21T09:08:10.000Z</time>
      </trkpt>
      <trkpt lat="47.75429" lon="-3.35353">
        <ele>0.4</ele>
        <time>2020-08-21T09:08:11.000Z</time>
      </trkpt>
      <trkpt lat="47.75428" lon="-3.35352">
        <ele>0.4</ele>
        <time>2020-08-21T09:08:12.000Z</time>
      </trkpt>
      <trkpt lat="47.75427" lon="-3.35351">
        <ele>0.4</ele>
        <time>2020-08-21T09:08:13.000Z</time>
      </trkpt>
      <trkpt lat="47.75426" lon="-3.35349">
        <ele>0.3</ele>
        <time>2020-08-21T09:08:14.000Z</time>
      </trkpt>
      <trkpt lat="47.75425" lon="-3.35348">
        <ele>0.3</ele>
        <time>2020-08-21T09:08:15.000Z</time>
      </trkpt>
      <trkpt lat="47.75424" lon="-3.35347">
        <ele>0.3</ele>
        <time>2020-08-21T09:08:16.000Z</time>
      </trkpt>
      <trkpt lat="47.75423" lon="-3.35345">
        <ele>0.3</ele>
        <time>2020-08-21T09:08:17.000Z</time>
      </trkpt>
      <trkpt lat="47.75422" lon="-3.35344">
        <ele>0.2</ele>
        <time>2020-08-21T09:08:18.000Z</time>
      </trkpt>
      <trkpt lat="47.75422" lon="-3.35342">
        <ele>0.2</ele>
        <time>2020-08-21T09:08:19.000Z</time>
      </trkpt>
      <trkpt lat="47.75421" lon="-3.35341">
        <ele>0.2</ele>
        <time>2020-08-21T09:08:20.000Z</time>
      </trkpt>
      <trkpt lat="47.7542" lon="-3.3534">
        <ele>0.1</ele>
        <time>2020-08-21T09:08:21.000Z</time>
      </trkpt>
      <trkpt lat="47.75419" lon="-3.35339">
        <ele>0.1</ele>
        <time>2020-08-21T09:08:22.000Z</time>
      </trkpt>
      <trkpt lat="47.75418" lon="-3.35337">
        <ele>0.1</ele>
        <time>2020-08-21T09:08:23.000Z</time>
      </trkpt>
      <trkpt lat="47.75417" lon="-3.35336">
        <ele>0.1</ele>
        <time>2020-08-21T09:08:24.000Z</time>
      </trkpt>
      <trkpt lat="47.75416" lon="-3.35335">
        <ele>0.1</ele>
        <time>2020-08-21T09:08:25.000Z</time>
      </trkpt>
      <trkpt lat="47.75415" lon="-3.35335">
        <ele>0.1</ele>
        <time>2020-08-21T09:08:26.000Z</time>
      </trkpt>
      <trkpt lat="47.75414" lon="-3.35334">
        <ele>0.1</ele>
        <time>2020-08-21T09:08:27.000Z</time>
      </trkpt>
      <trkpt lat="47.75414" lon="-3.35334">
        <ele>0.1</ele>
        <time>2020-08-21T09:08:28.000Z</time>
      </trkpt>
      <trkpt lat="47.75414" lon="-3.35334">
        <ele>0.1</ele>
        <time>2020-08-21T09:08:29.000Z</time>
      </trkpt>
      <trkpt lat="47.75413" lon="-3.35334">
        <ele>0.1</ele>
        <time>2020-08-21T09:08:30.000Z</time>
      </trkpt>
      <trkpt lat="47.75412" lon="-3.35333">
        <ele>0.2</ele>
        <time>2020-08-21T09:08:31.000Z</time>
      </trkpt>
      <trkpt lat="47.75411" lon="-3.35332">
        <ele>0.2</ele>
        <time>2020-08-21T09:08:32.000Z</time>
      </trkpt>
      <trkpt lat="47.7541" lon="-3.35332">
        <ele>0.2</ele>
        <time>2020-08-21T09:08:33.000Z</time>
      </trkpt>
      <trkpt lat="47.75408" lon="-3.35331">
        <ele>0.3</ele>
        <time>2020-08-21T09:08:34.000Z</time>
      </trkpt>
      <trkpt lat="47.75406" lon="-3.3533">
        <ele>0.4</ele>
        <time>2020-08-21T09:08:35.000Z</time>
      </trkpt>
      <trkpt lat="47.75404" lon="-3.35328">
        <ele>0.4</ele>
        <time>2020-08-21T09:08:36.000Z</time>
      </trkpt>
      <trkpt lat="47.75403" lon="-3.35327">
        <ele>0.5</ele>
        <time>2020-08-21T09:08:37.000Z</time>
      </trkpt>
      <trkpt lat="47.75401" lon="-3.35326">
        <ele>0.5</ele>
        <time>2020-08-21T09:08:38.000Z</time>
      </trkpt>
      <trkpt lat="47.75399" lon="-3.35325">
        <ele>0.6</ele>
        <time>2020-08-21T09:08:39.000Z</time>
      </trkpt>
      <trkpt lat="47.75398" lon="-3.35324">
        <ele>0.6</ele>
        <time>2020-08-21T09:08:40.000Z</time>
      </trkpt>
      <trkpt lat="47.75396" lon="-3.35323">
        <ele>0.7</ele>
        <time>2020-08-21T09:08:41.000Z</time>
      </trkpt>
      <trkpt lat="47.75394" lon="-3.35323">
        <ele>0.7</ele>
        <time>2020-08-21T09:08:42.000Z</time>
      </trkpt>
      <trkpt lat="47.75393" lon="-3.35322">
        <ele>0.7</ele>
        <time>2020-08-21T09:08:43.000Z</time>
      </trkpt>
      <trkpt lat="47.75391" lon="-3.35321">
        <ele>0.8</ele>
        <time>2020-08-21T09:08:44.000Z</time>
      </trkpt>
      <trkpt lat="47.7539" lon="-3.35321">
        <ele>0.8</ele>
        <time>2020-08-21T09:08:45.000Z</time>
      </trkpt>
      <trkpt lat="47.75389" lon="-3.3532">
        <ele>0.8</ele>
        <time>2020-08-21T09:08:46.000Z</time>
      </trkpt>
      <trkpt lat="47.75387" lon="-3.35319">
        <ele>0.9</ele>
        <time>2020-08-21T09:08:47.000Z</time>
      </trkpt>
      <trkpt lat="47.75386" lon="-3.35319">
        <ele>0.9</ele>
        <time>2020-08-21T09:08:48.000Z</time>
      </trkpt>
      <trkpt lat="47.75385" lon="-3.35318">
        <ele>0.9</ele>
        <time>2020-08-21T09:08:49.000Z</time>
      </trkpt>
      <trkpt lat="47.75384" lon="-3.35318">
        <ele>1</ele>
        <time>2020-08-21T09:08:50.000Z</time>
      </trkpt>
      <trkpt lat="47.75383" lon="-3.35317">
        <ele>1</ele>
        <time>2020-08-21T09:08:51.000Z</time>
      </trkpt>
      <trkpt lat="47.75381" lon="-3.35317">
        <ele>1</ele>
        <time>2020-08-21T09:08:52.000Z</time>
      </trkpt>
      <trkpt lat="47.7538" lon="-3.35316">
        <ele>1</ele>
        <time>2020-08-21T09:08:53.000Z</time>
      </trkpt>
      <trkpt lat="47.75379" lon="-3.35316">
        <ele>1.1</ele>
        <time>2020-08-21T09:08:54.000Z</time>
      </trkpt>
      <trkpt lat="47.75378" lon="-3.35315">
        <ele>1.1</ele>
        <time>2020-08-21T09:08:55.000Z</time>
      </trkpt>
      <trkpt lat="47.75377" lon="-3.35314">
        <ele>1.1</ele>
        <time>2020-08-21T09:08:56.000Z</time>
      </trkpt>
      <trkpt lat="47.75375" lon="-3.35314">
        <ele>1.1</ele>
        <time>2020-08-21T09:08:57.000Z</time>
      </trkpt>
      <trkpt lat="47.75374" lon="-3.35313">
        <ele>1.2</ele>
        <time>2020-08-21T09:08:58.000Z</time>
      </trkpt>
      <trkpt lat="47.75373" lon="-3.35312">
        <ele>1.2</ele>
        <time>2020-08-21T09:08:59.000Z</time>
      </trkpt>
      <trkpt lat="47.75372" lon="-3.35312">
        <ele>1.2</ele>
        <time>2020-08-21T09:09:00.000Z</time>
      </trkpt>
      <trkpt lat="47.75371" lon="-3.35311">
        <ele>1.2</ele>
        <time>2020-08-21T09:09:01.000Z</time>
      </trkpt>
      <trkpt lat="47.7537" lon="-3.35311">
        <ele>1.2</ele>
        <time>2020-08-21T09:09:02.000Z</time>
      </trkpt>
      <trkpt lat="47.7537" lon="-3.35311">
        <ele>1.2</ele>
        <time>2020-08-21T09:09:03.000Z</time>
      </trkpt>
      <trkpt lat="47.7537" lon="-3.35311">
        <ele>1.2</ele>
        <time>2020-08-21T09:09:04.000Z</time>
      </trkpt>
      <trkpt lat="47.75369" lon="-3.35311">
        <ele>1.2</ele>
        <time>2020-08-21T09:09:05.000Z</time>
      </trkpt>
      <trkpt lat="47.75369" lon="-3.35311">
        <ele>1.3</ele>
        <time>2020-08-21T09:09:06.000Z</time>
      </trkpt>
      <trkpt lat="47.75368" lon="-3.3531">
        <ele>1.3</ele>
        <time>2020-08-21T09:09:07.000Z</time>
      </trkpt>
      <trkpt lat="47.75367" lon="-3.35309">
        <ele>1.3</ele>
        <time>2020-08-21T09:09:08.000Z</time>
      </trkpt>
      <trkpt lat="47.75366" lon="-3.35309">
        <ele>1.3</ele>
        <time>2020-08-21T09:09:09.000Z</time>
      </trkpt>
      <trkpt lat="47.75364" lon="-3.35308">
        <ele>1.3</ele>
        <time>2020-08-21T09:09:10.000Z</time>
      </trkpt>
      <trkpt lat="47.75363" lon="-3.35307">
        <ele>1.3</ele>
        <time>2020-08-21T09:09:11.000Z</time>
      </trkpt>
      <trkpt lat="47.75362" lon="-3.35306">
        <ele>1.3</ele>
        <time>2020-08-21T09:09:12.000Z</time>
      </trkpt>
      <trkpt lat="47.7536" lon="-3.35305">
        <ele>1.3</ele>
        <time>2020-08-21T09:09:13.000Z</time>
      </trkpt>
      <trkpt lat="47.75359" lon="-3.35304">
        <ele>1.4</ele>
        <time>2020-08-21T09:09:14.000Z</time>
      </trkpt>
      <trkpt lat="47.75357" lon="-3.35303">
        <ele>1.4</ele>
        <time>2020-08-21T09:09:15.000Z</time>
      </trkpt>
      <trkpt lat="47.75356" lon="-3.35302">
        <ele>1.4</ele>
        <time>2020-08-21T09:09:16.000Z</time>
      </trkpt>
      <trkpt lat="47.75354" lon="-3.35302">
        <ele>1.4</ele>
        <time>2020-08-21T09:09:17.000Z</time>
      </trkpt>
      <trkpt lat="47.75353" lon="-3.35301">
        <ele>1.4</ele>
        <time>2020-08-21T09:09:18.000Z</time>
      </trkpt>
      <trkpt lat="47.75352" lon="-3.353">
        <ele>1.4</ele>
        <time>2020-08-21T09:09:19.000Z</time>
      </trkpt>
      <trkpt lat="47.7535" lon="-3.353">
        <ele>1.4</ele>
        <time>2020-08-21T09:09:20.000Z</time>
      </trkpt>
      <trkpt lat="47.75349" lon="-3.353">
        <ele>1.5</ele>
        <time>2020-08-21T09:09:21.000Z</time>
      </trkpt>
      <trkpt lat="47.75348" lon="-3.353">
        <ele>1.5</ele>
        <time>2020-08-21T09:09:22.000Z</time>
      </trkpt>
      <trkpt lat="47.75347" lon="-3.35301">
        <ele>1.5</ele>
        <time>2020-08-21T09:09:23.000Z</time>
      </trkpt>
      <trkpt lat="47.75345" lon="-3.35301">
        <ele>1.6</ele>
        <time>2020-08-21T09:09:24.000Z</time>
      </trkpt>
      <trkpt lat="47.75344" lon="-3.35302">
        <ele>1.6</ele>
        <time>2020-08-21T09:09:25.000Z</time>
      </trkpt>
      <trkpt lat="47.75343" lon="-3.35303">
        <ele>1.7</ele>
        <time>2020-08-21T09:09:26.000Z</time>
      </trkpt>
      <trkpt lat="47.75342" lon="-3.35304">
        <ele>1.7</ele>
        <time>2020-08-21T09:09:27.000Z</time>
      </trkpt>
      <trkpt lat="47.75341" lon="-3.35305">
        <ele>1.8</ele>
        <time>2020-08-21T09:09:28.000Z</time>
      </trkpt>
      <trkpt lat="47.7534" lon="-3.35306">
        <ele>1.9</ele>
        <time>2020-08-21T09:09:29.000Z</time>
      </trkpt>
      <trkpt lat="47.75339" lon="-3.35308">
        <ele>1.9</ele>
        <time>2020-08-21T09:09:30.000Z</time>
      </trkpt>
      <trkpt lat="47.75338" lon="-3.35309">
        <ele>2</ele>
        <time>2020-08-21T09:09:31.000Z</time>
      </trkpt>
      <trkpt lat="47.75337" lon="-3.35311">
        <ele>2.1</ele>
        <time>2020-08-21T09:09:32.000Z</time>
      </trkpt>
      <trkpt lat="47.75337" lon="-3.35312">
        <ele>2.2</ele>
        <time>2020-08-21T09:09:33.000Z</time>
      </trkpt>
      <trkpt lat="47.75336" lon="-3.35314">
        <ele>2.2</ele>
        <time>2020-08-21T09:09:34.000Z</time>
      </trkpt>
      <trkpt lat="47.75335" lon="-3.35316">
        <ele>2.3</ele>
        <time>2020-08-21T09:09:35.000Z</time>
      </trkpt>
      <trkpt lat="47.75334" lon="-3.35318">
        <ele>2.4</ele>
        <time>2020-08-21T09:09:36.000Z</time>
      </trkpt>
      <trkpt lat="47.75333" lon="-3.3532">
        <ele>2.5</ele>
        <time>2020-08-21T09:09:37.000Z</time>
      </trkpt>
      <trkpt lat="47.75332" lon="-3.35322">
        <ele>2.6</ele>
        <time>2020-08-21T09:09:38.000Z</time>
      </trkpt>
      <trkpt lat="47.75332" lon="-3.35323">
        <ele>2.6</ele>
        <time>2020-08-21T09:09:39.000Z</time>
      </trkpt>
      <trkpt lat="47.75331" lon="-3.35325">
        <ele>2.7</ele>
        <time>2020-08-21T09:09:40.000Z</time>
      </trkpt>
      <trkpt lat="47.7533" lon="-3.35327">
        <ele>2.8</ele>
        <time>2020-08-21T09:09:41.000Z</time>
      </trkpt>
      <trkpt lat="47.75329" lon="-3.35329">
        <ele>2.8</ele>
        <time>2020-08-21T09:09:42.000Z</time>
      </trkpt>
      <trkpt lat="47.75329" lon="-3.35331">
        <ele>2.9</ele>
        <time>2020-08-21T09:09:43.000Z</time>
      </trkpt>
      <trkpt lat="47.75328" lon="-3.35333">
        <ele>3</ele>
        <time>2020-08-21T09:09:44.000Z</time>
      </trkpt>
      <trkpt lat="47.75327" lon="-3.35334">
        <ele>3</ele>
        <time>2020-08-21T09:09:45.000Z</time>
      </trkpt>
      <trkpt lat="47.75327" lon="-3.35336">
        <ele>3</ele>
        <time>2020-08-21T09:09:46.000Z</time>
      </trkpt>
      <trkpt lat="47.75326" lon="-3.35338">
        <ele>3</ele>
        <time>2020-08-21T09:09:47.000Z</time>
      </trkpt>
      <trkpt lat="47.75326" lon="-3.35339">
        <ele>3</ele>
        <time>2020-08-21T09:09:48.000Z</time>
      </trkpt>
      <trkpt lat="47.75325" lon="-3.35341">
        <ele>3</ele>
        <time>2020-08-21T09:09:49.000Z</time>
      </trkpt>
      <trkpt lat="47.75325" lon="-3.35343">
        <ele>3</ele>
        <time>2020-08-21T09:09:50.000Z</time>
      </trkpt>
      <trkpt lat="47.75324" lon="-3.35344">
        <ele>3</ele>
        <time>2020-08-21T09:09:51.000Z</time>
      </trkpt>
      <trkpt lat="47.75324" lon="-3.35346">
        <ele>3</ele>
        <time>2020-08-21T09:09:52.000Z</time>
      </trkpt>
      <trkpt lat="47.75323" lon="-3.35348">
        <ele>3</ele>
        <time>2020-08-21T09:09:53.000Z</time>
      </trkpt>
      <trkpt lat="47.75323" lon="-3.35349">
        <ele>3</ele>
        <time>2020-08-21T09:09:54.000Z</time>
      </trkpt>
      <trkpt lat="47.75322" lon="-3.35351">
        <ele>3.1</ele>
        <time>2020-08-21T09:09:55.000Z</time>
      </trkpt>
      <trkpt lat="47.75322" lon="-3.35353">
        <ele>3.1</ele>
        <time>2020-08-21T09:09:56.000Z</time>
      </trkpt>
      <trkpt lat="47.75321" lon="-3.35355">
        <ele>3.1</ele>
        <time>2020-08-21T09:09:57.000Z</time>
      </trkpt>
      <trkpt lat="47.75321" lon="-3.35357">
        <ele>3.1</ele>
        <time>2020-08-21T09:09:58.000Z</time>
      </trkpt>
      <trkpt lat="47.75321" lon="-3.35358">
        <ele>3.1</ele>
        <time>2020-08-21T09:09:59.000Z</time>
      </trkpt>
      <trkpt lat="47.7532" lon="-3.3536">
        <ele>3.1</ele>
        <time>2020-08-21T09:10:00.000Z</time>
      </trkpt>
      <trkpt lat="47.7532" lon="-3.35362">
        <ele>3.1</ele>
        <time>2020-08-21T09:10:01.000Z</time>
      </trkpt>
      <trkpt lat="47.75319" lon="-3.35364">
        <ele>3.1</ele>
        <time>2020-08-21T09:10:02.000Z</time>
      </trkpt>
      <trkpt lat="47.75319" lon="-3.35366">
        <ele>3.1</ele>
        <time>2020-08-21T09:10:03.000Z</time>
      </trkpt>
      <trkpt lat="47.75318" lon="-3.35368">
        <ele>3.1</ele>
        <time>2020-08-21T09:10:04.000Z</time>
      </trkpt>
      <trkpt lat="47.75318" lon="-3.3537">
        <ele>3.2</ele>
        <time>2020-08-21T09:10:05.000Z</time>
      </trkpt>
      <trkpt lat="47.75317" lon="-3.35372">
        <ele>3.2</ele>
        <time>2020-08-21T09:10:06.000Z</time>
      </trkpt>
      <trkpt lat="47.75317" lon="-3.35373">
        <ele>3.2</ele>
        <time>2020-08-21T09:10:07.000Z</time>
      </trkpt>
      <trkpt lat="47.75316" lon="-3.35375">
        <ele>3.2</ele>
        <time>2020-08-21T09:10:08.000Z</time>
      </trkpt>
      <trkpt lat="47.75315" lon="-3.35377">
        <ele>3.2</ele>
        <time>2020-08-21T09:10:09.000Z</time>
      </trkpt>
      <trkpt lat="47.75315" lon="-3.35379">
        <ele>3.2</ele>
        <time>2020-08-21T09:10:10.000Z</time>
      </trkpt>
      <trkpt lat="47.75314" lon="-3.35381">
        <ele>3.3</ele>
        <time>2020-08-21T09:10:11.000Z</time>
      </trkpt>
      <trkpt lat="47.75313" lon="-3.35383">
        <ele>3.3</ele>
        <time>2020-08-21T09:10:12.000Z</time>
      </trkpt>
      <trkpt lat="47.75313" lon="-3.35385">
        <ele>3.3</ele>
        <time>2020-08-21T09:10:13.000Z</time>
      </trkpt>
      <trkpt lat="47.75312" lon="-3.35387">
        <ele>3.3</ele>
        <time>2020-08-21T09:10:14.000Z</time>
      </trkpt>
      <trkpt lat="47.75312" lon="-3.35389">
        <ele>3.3</ele>
        <time>2020-08-21T09:10:15.000Z</time>
      </trkpt>
      <trkpt lat="47.75311" lon="-3.3539">
        <ele>3.4</ele>
        <time>2020-08-21T09:10:16.000Z</time>
      </trkpt>
      <trkpt lat="47.75311" lon="-3.35392">
        <ele>3.4</ele>
        <time>2020-08-21T09:10:17.000Z</time>
      </trkpt>
      <trkpt lat="47.7531" lon="-3.35394">
        <ele>3.4</ele>
        <time>2020-08-21T09:10:18.000Z</time>
      </trkpt>
      <trkpt lat="47.7531" lon="-3.35396">
        <ele>3.4</ele>
        <time>2020-08-21T09:10:19.000Z</time>
      </trkpt>
      <trkpt lat="47.75309" lon="-3.35398">
        <ele>3.4</ele>
        <time>2020-08-21T09:10:20.000Z</time>
      </trkpt>
      <trkpt lat="47.75309" lon="-3.35399">
        <ele>3.5</ele>
        <time>2020-08-21T09:10:21.000Z</time>
      </trkpt>
      <trkpt lat="47.75308" lon="-3.35401">
        <ele>3.5</ele>
        <time>2020-08-21T09:10:22.000Z</time>
      </trkpt>
      <trkpt lat="47.75308" lon="-3.35403">
        <ele>3.5</ele>
        <time>2020-08-21T09:10:23.000Z</time>
      </trkpt>
      <trkpt lat="47.75307" lon="-3.35404">
        <ele>3.5</ele>
        <time>2020-08-21T09:10:24.000Z</time>
      </trkpt>
      <trkpt lat="47.75307" lon="-3.35406">
        <ele>3.6</ele>
        <time>2020-08-21T09:10:25.000Z</time>
      </trkpt>
      <trkpt lat="47.75306" lon="-3.35407">
        <ele>3.6</ele>
        <time>2020-08-21T09:10:26.000Z</time>
      </trkpt>
      <trkpt lat="47.75305" lon="-3.35409">
        <ele>3.6</ele>
        <time>2020-08-21T09:10:27.000Z</time>
      </trkpt>
      <trkpt lat="47.75305" lon="-3.3541">
        <ele>3.6</ele>
        <time>2020-08-21T09:10:28.000Z</time>
      </trkpt>
      <trkpt lat="47.75304" lon="-3.35411">
        <ele>3.7</ele>
        <time>2020-08-21T09:10:29.000Z</time>
      </trkpt>
      <trkpt lat="47.75303" lon="-3.35412">
        <ele>3.7</ele>
        <time>2020-08-21T09:10:30.000Z</time>
      </trkpt>
      <trkpt lat="47.75302" lon="-3.35414">
        <ele>3.7</ele>
        <time>2020-08-21T09:10:31.000Z</time>
      </trkpt>
      <trkpt lat="47.75301" lon="-3.35415">
        <ele>3.8</ele>
        <time>2020-08-21T09:10:32.000Z</time>
      </trkpt>
      <trkpt lat="47.753" lon="-3.35416">
        <ele>3.8</ele>
        <time>2020-08-21T09:10:33.000Z</time>
      </trkpt>
      <trkpt lat="47.75299" lon="-3.35417">
        <ele>3.8</ele>
        <time>2020-08-21T09:10:34.000Z</time>
      </trkpt>
      <trkpt lat="47.75298" lon="-3.35418">
        <ele>3.8</ele>
        <time>2020-08-21T09:10:35.000Z</time>
      </trkpt>
      <trkpt lat="47.75297" lon="-3.3542">
        <ele>3.9</ele>
        <time>2020-08-21T09:10:36.000Z</time>
      </trkpt>
      <trkpt lat="47.75296" lon="-3.35421">
        <ele>3.9</ele>
        <time>2020-08-21T09:10:37.000Z</time>
      </trkpt>
      <trkpt lat="47.75296" lon="-3.35423">
        <ele>3.9</ele>
        <time>2020-08-21T09:10:38.000Z</time>
      </trkpt>
      <trkpt lat="47.75295" lon="-3.35424">
        <ele>3.9</ele>
        <time>2020-08-21T09:10:39.000Z</time>
      </trkpt>
      <trkpt lat="47.75294" lon="-3.35426">
        <ele>3.9</ele>
        <time>2020-08-21T09:10:40.000Z</time>
      </trkpt>
      <trkpt lat="47.75294" lon="-3.35427">
        <ele>3.9</ele>
        <time>2020-08-21T09:10:41.000Z</time>
      </trkpt>
      <trkpt lat="47.75294" lon="-3.35429">
        <ele>3.9</ele>
        <time>2020-08-21T09:10:42.000Z</time>
      </trkpt>
      <trkpt lat="47.75293" lon="-3.35431">
        <ele>3.9</ele>
        <time>2020-08-21T09:10:43.000Z</time>
      </trkpt>
      <trkpt lat="47.75293" lon="-3.35433">
        <ele>3.9</ele>
        <time>2020-08-21T09:10:44.000Z</time>
      </trkpt>
      <trkpt lat="47.75292" lon="-3.35435">
        <ele>3.9</ele>
        <time>2020-08-21T09:10:45.000Z</time>
      </trkpt>
      <trkpt lat="47.75292" lon="-3.35437">
        <ele>3.9</ele>
        <time>2020-08-21T09:10:46.000Z</time>
      </trkpt>
      <trkpt lat="47.75291" lon="-3.35439">
        <ele>3.9</ele>
        <time>2020-08-21T09:10:47.000Z</time>
      </trkpt>
      <trkpt lat="47.75291" lon="-3.35441">
        <ele>3.9</ele>
        <time>2020-08-21T09:10:48.000Z</time>
      </trkpt>
      <trkpt lat="47.7529" lon="-3.35443">
        <ele>3.9</ele>
        <time>2020-08-21T09:10:49.000Z</time>
      </trkpt>
      <trkpt lat="47.7529" lon="-3.35445">
        <ele>3.9</ele>
        <time>2020-08-21T09:10:50.000Z</time>
      </trkpt>
      <trkpt lat="47.75289" lon="-3.35447">
        <ele>3.9</ele>
        <time>2020-08-21T09:10:51.000Z</time>
      </trkpt>
      <trkpt lat="47.75289" lon="-3.35449">
        <ele>3.9</ele>
        <time>2020-08-21T09:10:52.000Z</time>
      </trkpt>
      <trkpt lat="47.75288" lon="-3.35451">
        <ele>3.9</ele>
        <time>2020-08-21T09:10:53.000Z</time>
      </trkpt>
      <trkpt lat="47.75288" lon="-3.35452">
        <ele>3.9</ele>
        <time>2020-08-21T09:10:54.000Z</time>
      </trkpt>
      <trkpt lat="47.75287" lon="-3.35454">
        <ele>3.9</ele>
        <time>2020-08-21T09:10:55.000Z</time>
      </trkpt>
      <trkpt lat="47.75286" lon="-3.35455">
        <ele>3.9</ele>
        <time>2020-08-21T09:10:56.000Z</time>
      </trkpt>
      <trkpt lat="47.75286" lon="-3.35457">
        <ele>3.9</ele>
        <time>2020-08-21T09:10:57.000Z</time>
      </trkpt>
      <trkpt lat="47.75285" lon="-3.35458">
        <ele>3.9</ele>
        <time>2020-08-21T09:10:58.000Z</time>
      </trkpt>
      <trkpt lat="47.75285" lon="-3.3546">
        <ele>4</ele>
        <time>2020-08-21T09:10:59.000Z</time>
      </trkpt>
      <trkpt lat="47.75284" lon="-3.35462">
        <ele>4</ele>
        <time>2020-08-21T09:11:00.000Z</time>
      </trkpt>
      <trkpt lat="47.75284" lon="-3.35464">
        <ele>4</ele>
        <time>2020-08-21T09:11:01.000Z</time>
      </trkpt>
      <trkpt lat="47.75283" lon="-3.35465">
        <ele>4</ele>
        <time>2020-08-21T09:11:02.000Z</time>
      </trkpt>
      <trkpt lat="47.75283" lon="-3.35467">
        <ele>4</ele>
        <time>2020-08-21T09:11:03.000Z</time>
      </trkpt>
      <trkpt lat="47.75282" lon="-3.35469">
        <ele>4</ele>
        <time>2020-08-21T09:11:04.000Z</time>
      </trkpt>
      <trkpt lat="47.75282" lon="-3.35471">
        <ele>4</ele>
        <time>2020-08-21T09:11:05.000Z</time>
      </trkpt>
      <trkpt lat="47.75282" lon="-3.35473">
        <ele>4</ele>
        <time>2020-08-21T09:11:06.000Z</time>
      </trkpt>
      <trkpt lat="47.75281" lon="-3.35475">
        <ele>4</ele>
        <time>2020-08-21T09:11:07.000Z</time>
      </trkpt>
      <trkpt lat="47.75281" lon="-3.35477">
        <ele>4</ele>
        <time>2020-08-21T09:11:08.000Z</time>
      </trkpt>
      <trkpt lat="47.7528" lon="-3.35479">
        <ele>4</ele>
        <time>2020-08-21T09:11:09.000Z</time>
      </trkpt>
      <trkpt lat="47.7528" lon="-3.3548">
        <ele>4</ele>
        <time>2020-08-21T09:11:10.000Z</time>
      </trkpt>
      <trkpt lat="47.7528" lon="-3.35482">
        <ele>4</ele>
        <time>2020-08-21T09:11:11.000Z</time>
      </trkpt>
      <trkpt lat="47.75279" lon="-3.35483">
        <ele>4</ele>
        <time>2020-08-21T09:11:12.000Z</time>
      </trkpt>
      <trkpt lat="47.75279" lon="-3.35484">
        <ele>4</ele>
        <time>2020-08-21T09:11:13.000Z</time>
      </trkpt>
      <trkpt lat="47.75278" lon="-3.35486">
        <ele>4</ele>
        <time>2020-08-21T09:11:14.000Z</time>
      </trkpt>
      <trkpt lat="47.75278" lon="-3.35487">
        <ele>4.1</ele>
        <time>2020-08-21T09:11:15.000Z</time>
      </trkpt>
      <trkpt lat="47.75277" lon="-3.35489">
        <ele>4.1</ele>
        <time>2020-08-21T09:11:16.000Z</time>
      </trkpt>
      <trkpt lat="47.75277" lon="-3.3549">
        <ele>4.1</ele>
        <time>2020-08-21T09:11:17.000Z</time>
      </trkpt>
      <trkpt lat="47.75276" lon="-3.35491">
        <ele>4.1</ele>
        <time>2020-08-21T09:11:18.000Z</time>
      </trkpt>
      <trkpt lat="47.75276" lon="-3.35493">
        <ele>4.1</ele>
        <time>2020-08-21T09:11:19.000Z</time>
      </trkpt>
      <trkpt lat="47.75275" lon="-3.35494">
        <ele>4.1</ele>
        <time>2020-08-21T09:11:20.000Z</time>
      </trkpt>
      <trkpt lat="47.75274" lon="-3.35496">
        <ele>4.1</ele>
        <time>2020-08-21T09:11:21.000Z</time>
      </trkpt>
      <trkpt lat="47.75274" lon="-3.35497">
        <ele>4.2</ele>
        <time>2020-08-21T09:11:22.000Z</time>
      </trkpt>
      <trkpt lat="47.75273" lon="-3.35499">
        <ele>4.2</ele>
        <time>2020-08-21T09:11:23.000Z</time>
      </trkpt>
      <trkpt lat="47.75273" lon="-3.355">
        <ele>4.2</ele>
        <time>2020-08-21T09:11:24.000Z</time>
      </trkpt>
      <trkpt lat="47.75272" lon="-3.35502">
        <ele>4.2</ele>
        <time>2020-08-21T09:11:25.000Z</time>
      </trkpt>
      <trkpt lat="47.75272" lon="-3.35504">
        <ele>4.2</ele>
        <time>2020-08-21T09:11:26.000Z</time>
      </trkpt>
      <trkpt lat="47.75271" lon="-3.35505">
        <ele>4.2</ele>
        <time>2020-08-21T09:11:27.000Z</time>
      </trkpt>
      <trkpt lat="47.75271" lon="-3.35507">
        <ele>4.2</ele>
        <time>2020-08-21T09:11:28.000Z</time>
      </trkpt>
      <trkpt lat="47.7527" lon="-3.35509">
        <ele>4.2</ele>
        <time>2020-08-21T09:11:29.000Z</time>
      </trkpt>
      <trkpt lat="47.75269" lon="-3.3551">
        <ele>4.1</ele>
        <time>2020-08-21T09:11:30.000Z</time>
      </trkpt>
      <trkpt lat="47.75269" lon="-3.35512">
        <ele>4.1</ele>
        <time>2020-08-21T09:11:31.000Z</time>
      </trkpt>
      <trkpt lat="47.75268" lon="-3.35514">
        <ele>4.1</ele>
        <time>2020-08-21T09:11:32.000Z</time>
      </trkpt>
      <trkpt lat="47.75268" lon="-3.35516">
        <ele>4.1</ele>
        <time>2020-08-21T09:11:33.000Z</time>
      </trkpt>
      <trkpt lat="47.75267" lon="-3.35517">
        <ele>4.1</ele>
        <time>2020-08-21T09:11:34.000Z</time>
      </trkpt>
      <trkpt lat="47.75267" lon="-3.35519">
        <ele>4.1</ele>
        <time>2020-08-21T09:11:35.000Z</time>
      </trkpt>
      <trkpt lat="47.75266" lon="-3.35521">
        <ele>4.1</ele>
        <time>2020-08-21T09:11:36.000Z</time>
      </trkpt>
      <trkpt lat="47.75266" lon="-3.35522">
        <ele>4</ele>
        <time>2020-08-21T09:11:37.000Z</time>
      </trkpt>
      <trkpt lat="47.75265" lon="-3.35524">
        <ele>4</ele>
        <time>2020-08-21T09:11:38.000Z</time>
      </trkpt>
      <trkpt lat="47.75265" lon="-3.35526">
        <ele>4</ele>
        <time>2020-08-21T09:11:39.000Z</time>
      </trkpt>
      <trkpt lat="47.75264" lon="-3.35527">
        <ele>4</ele>
        <time>2020-08-21T09:11:40.000Z</time>
      </trkpt>
      <trkpt lat="47.75264" lon="-3.35529">
        <ele>4</ele>
        <time>2020-08-21T09:11:41.000Z</time>
      </trkpt>
      <trkpt lat="47.75263" lon="-3.35531">
        <ele>4</ele>
        <time>2020-08-21T09:11:42.000Z</time>
      </trkpt>
      <trkpt lat="47.75263" lon="-3.35532">
        <ele>4</ele>
        <time>2020-08-21T09:11:43.000Z</time>
      </trkpt>
      <trkpt lat="47.75262" lon="-3.35534">
        <ele>3.9</ele>
        <time>2020-08-21T09:11:44.000Z</time>
      </trkpt>
      <trkpt lat="47.75261" lon="-3.35535">
        <ele>3.9</ele>
        <time>2020-08-21T09:11:45.000Z</time>
      </trkpt>
      <trkpt lat="47.75261" lon="-3.35537">
        <ele>3.9</ele>
        <time>2020-08-21T09:11:46.000Z</time>
      </trkpt>
      <trkpt lat="47.7526" lon="-3.35538">
        <ele>3.9</ele>
        <time>2020-08-21T09:11:47.000Z</time>
      </trkpt>
      <trkpt lat="47.75259" lon="-3.35539">
        <ele>3.9</ele>
        <time>2020-08-21T09:11:48.000Z</time>
      </trkpt>
      <trkpt lat="47.75259" lon="-3.35541">
        <ele>3.9</ele>
        <time>2020-08-21T09:11:49.000Z</time>
      </trkpt>
      <trkpt lat="47.75258" lon="-3.35542">
        <ele>3.8</ele>
        <time>2020-08-21T09:11:50.000Z</time>
      </trkpt>
      <trkpt lat="47.75258" lon="-3.35544">
        <ele>3.8</ele>
        <time>2020-08-21T09:11:51.000Z</time>
      </trkpt>
      <trkpt lat="47.75257" lon="-3.35545">
        <ele>3.8</ele>
        <time>2020-08-21T09:11:52.000Z</time>
      </trkpt>
      <trkpt lat="47.75256" lon="-3.35547">
        <ele>3.8</ele>
        <time>2020-08-21T09:11:53.000Z</time>
      </trkpt>
      <trkpt lat="47.75256" lon="-3.35549">
        <ele>3.7</ele>
        <time>2020-08-21T09:11:54.000Z</time>
      </trkpt>
      <trkpt lat="47.75255" lon="-3.35551">
        <ele>3.7</ele>
        <time>2020-08-21T09:11:55.000Z</time>
      </trkpt>
      <trkpt lat="47.75255" lon="-3.35553">
        <ele>3.7</ele>
        <time>2020-08-21T09:11:56.000Z</time>
      </trkpt>
      <trkpt lat="47.75254" lon="-3.35555">
        <ele>3.6</ele>
        <time>2020-08-21T09:11:57.000Z</time>
      </trkpt>
      <trkpt lat="47.75253" lon="-3.35556">
        <ele>3.6</ele>
        <time>2020-08-21T09:11:58.000Z</time>
      </trkpt>
      <trkpt lat="47.75253" lon="-3.35558">
        <ele>3.6</ele>
        <time>2020-08-21T09:11:59.000Z</time>
      </trkpt>
      <trkpt lat="47.75252" lon="-3.3556">
        <ele>3.5</ele>
        <time>2020-08-21T09:12:00.000Z</time>
      </trkpt>
      <trkpt lat="47.75251" lon="-3.35562">
        <ele>3.5</ele>
        <time>2020-08-21T09:12:01.000Z</time>
      </trkpt>
      <trkpt lat="47.75251" lon="-3.35564">
        <ele>3.5</ele>
        <time>2020-08-21T09:12:02.000Z</time>
      </trkpt>
      <trkpt lat="47.7525" lon="-3.35565">
        <ele>3.4</ele>
        <time>2020-08-21T09:12:03.000Z</time>
      </trkpt>
      <trkpt lat="47.75249" lon="-3.35567">
        <ele>3.4</ele>
        <time>2020-08-21T09:12:04.000Z</time>
      </trkpt>
      <trkpt lat="47.75249" lon="-3.35569">
        <ele>3.4</ele>
        <time>2020-08-21T09:12:05.000Z</time>
      </trkpt>
      <trkpt lat="47.75248" lon="-3.35571">
        <ele>3.3</ele>
        <time>2020-08-21T09:12:06.000Z</time>
      </trkpt>
      <trkpt lat="47.75248" lon="-3.35572">
        <ele>3.3</ele>
        <time>2020-08-21T09:12:07.000Z</time>
      </trkpt>
      <trkpt lat="47.75247" lon="-3.35574">
        <ele>3.3</ele>
        <time>2020-08-21T09:12:08.000Z</time>
      </trkpt>
      <trkpt lat="47.75246" lon="-3.35575">
        <ele>3.3</ele>
        <time>2020-08-21T09:12:09.000Z</time>
      </trkpt>
      <trkpt lat="47.75246" lon="-3.35577">
        <ele>3.2</ele>
        <time>2020-08-21T09:12:10.000Z</time>
      </trkpt>
      <trkpt lat="47.75246" lon="-3.35579">
        <ele>3.2</ele>
        <time>2020-08-21T09:12:11.000Z</time>
      </trkpt>
      <trkpt lat="47.75245" lon="-3.3558">
        <ele>3.2</ele>
        <time>2020-08-21T09:12:12.000Z</time>
      </trkpt>
      <trkpt lat="47.75245" lon="-3.35582">
        <ele>3.2</ele>
        <time>2020-08-21T09:12:13.000Z</time>
      </trkpt>
      <trkpt lat="47.75244" lon="-3.35583">
        <ele>3.1</ele>
        <time>2020-08-21T09:12:14.000Z</time>
      </trkpt>
      <trkpt lat="47.75244" lon="-3.35585">
        <ele>3.2</ele>
        <time>2020-08-21T09:12:15.000Z</time>
      </trkpt>
      <trkpt lat="47.75243" lon="-3.35587">
        <ele>3.2</ele>
        <time>2020-08-21T09:12:16.000Z</time>
      </trkpt>
      <trkpt lat="47.75243" lon="-3.35588">
        <ele>3.3</ele>
        <time>2020-08-21T09:12:17.000Z</time>
      </trkpt>
      <trkpt lat="47.75242" lon="-3.3559">
        <ele>3.3</ele>
        <time>2020-08-21T09:12:18.000Z</time>
      </trkpt>
      <trkpt lat="47.75242" lon="-3.35591">
        <ele>3.4</ele>
        <time>2020-08-21T09:12:19.000Z</time>
      </trkpt>
      <trkpt lat="47.75241" lon="-3.35593">
        <ele>3.4</ele>
        <time>2020-08-21T09:12:20.000Z</time>
      </trkpt>
      <trkpt lat="47.75241" lon="-3.35595">
        <ele>3.5</ele>
        <time>2020-08-21T09:12:21.000Z</time>
      </trkpt>
      <trkpt lat="47.7524" lon="-3.35596">
        <ele>3.5</ele>
        <time>2020-08-21T09:12:22.000Z</time>
      </trkpt>
      <trkpt lat="47.75239" lon="-3.35598">
        <ele>3.6</ele>
        <time>2020-08-21T09:12:23.000Z</time>
      </trkpt>
      <trkpt lat="47.75238" lon="-3.356">
        <ele>3.6</ele>
        <time>2020-08-21T09:12:24.000Z</time>
      </trkpt>
      <trkpt lat="47.75238" lon="-3.35601">
        <ele>3.7</ele>
        <time>2020-08-21T09:12:25.000Z</time>
      </trkpt>
      <trkpt lat="47.75237" lon="-3.35603">
        <ele>3.7</ele>
        <time>2020-08-21T09:12:26.000Z</time>
      </trkpt>
      <trkpt lat="47.75236" lon="-3.35605">
        <ele>3.8</ele>
        <time>2020-08-21T09:12:27.000Z</time>
      </trkpt>
      <trkpt lat="47.75235" lon="-3.35606">
        <ele>3.8</ele>
        <time>2020-08-21T09:12:28.000Z</time>
      </trkpt>
      <trkpt lat="47.75235" lon="-3.35608">
        <ele>3.9</ele>
        <time>2020-08-21T09:12:29.000Z</time>
      </trkpt>
      <trkpt lat="47.75234" lon="-3.3561">
        <ele>3.9</ele>
        <time>2020-08-21T09:12:30.000Z</time>
      </trkpt>
      <trkpt lat="47.75233" lon="-3.35611">
        <ele>3.9</ele>
        <time>2020-08-21T09:12:31.000Z</time>
      </trkpt>
      <trkpt lat="47.75233" lon="-3.35613">
        <ele>4</ele>
        <time>2020-08-21T09:12:32.000Z</time>
      </trkpt>
      <trkpt lat="47.75232" lon="-3.35614">
        <ele>4</ele>
        <time>2020-08-21T09:12:33.000Z</time>
      </trkpt>
      <trkpt lat="47.75232" lon="-3.35616">
        <ele>4</ele>
        <time>2020-08-21T09:12:34.000Z</time>
      </trkpt>
      <trkpt lat="47.75231" lon="-3.35617">
        <ele>4.1</ele>
        <time>2020-08-21T09:12:35.000Z</time>
      </trkpt>
      <trkpt lat="47.75231" lon="-3.35619">
        <ele>4.1</ele>
        <time>2020-08-21T09:12:36.000Z</time>
      </trkpt>
      <trkpt lat="47.7523" lon="-3.3562">
        <ele>4.2</ele>
        <time>2020-08-21T09:12:37.000Z</time>
      </trkpt>
      <trkpt lat="47.7523" lon="-3.35622">
        <ele>4.2</ele>
        <time>2020-08-21T09:12:38.000Z</time>
      </trkpt>
      <trkpt lat="47.75229" lon="-3.35623">
        <ele>4.2</ele>
        <time>2020-08-21T09:12:39.000Z</time>
      </trkpt>
      <trkpt lat="47.75228" lon="-3.35625">
        <ele>4.3</ele>
        <time>2020-08-21T09:12:40.000Z</time>
      </trkpt>
      <trkpt lat="47.75228" lon="-3.35627">
        <ele>4.3</ele>
        <time>2020-08-21T09:12:41.000Z</time>
      </trkpt>
      <trkpt lat="47.75227" lon="-3.35628">
        <ele>4.3</ele>
        <time>2020-08-21T09:12:42.000Z</time>
      </trkpt>
      <trkpt lat="47.75226" lon="-3.3563">
        <ele>4.4</ele>
        <time>2020-08-21T09:12:43.000Z</time>
      </trkpt>
      <trkpt lat="47.75225" lon="-3.35631">
        <ele>4.4</ele>
        <time>2020-08-21T09:12:44.000Z</time>
      </trkpt>
      <trkpt lat="47.75225" lon="-3.35633">
        <ele>4.4</ele>
        <time>2020-08-21T09:12:45.000Z</time>
      </trkpt>
      <trkpt lat="47.75224" lon="-3.35635">
        <ele>4.5</ele>
        <time>2020-08-21T09:12:46.000Z</time>
      </trkpt>
      <trkpt lat="47.75223" lon="-3.35636">
        <ele>4.5</ele>
        <time>2020-08-21T09:12:47.000Z</time>
      </trkpt>
      <trkpt lat="47.75222" lon="-3.35637">
        <ele>4.5</ele>
        <time>2020-08-21T09:12:48.000Z</time>
      </trkpt>
      <trkpt lat="47.75221" lon="-3.35638">
        <ele>4.6</ele>
        <time>2020-08-21T09:12:49.000Z</time>
      </trkpt>
      <trkpt lat="47.7522" lon="-3.35639">
        <ele>4.6</ele>
        <time>2020-08-21T09:12:50.000Z</time>
      </trkpt>
      <trkpt lat="47.75219" lon="-3.3564">
        <ele>4.6</ele>
        <time>2020-08-21T09:12:51.000Z</time>
      </trkpt>
      <trkpt lat="47.75218" lon="-3.35641">
        <ele>4.6</ele>
        <time>2020-08-21T09:12:52.000Z</time>
      </trkpt>
      <trkpt lat="47.75217" lon="-3.35642">
        <ele>4.6</ele>
        <time>2020-08-21T09:12:53.000Z</time>
      </trkpt>
      <trkpt lat="47.75216" lon="-3.35643">
        <ele>4.7</ele>
        <time>2020-08-21T09:12:54.000Z</time>
      </trkpt>
      <trkpt lat="47.75215" lon="-3.35643">
        <ele>4.7</ele>
        <time>2020-08-21T09:12:55.000Z</time>
      </trkpt>
      <trkpt lat="47.75214" lon="-3.35644">
        <ele>4.7</ele>
        <time>2020-08-21T09:12:56.000Z</time>
      </trkpt>
      <trkpt lat="47.75213" lon="-3.35645">
        <ele>4.7</ele>
        <time>2020-08-21T09:12:57.000Z</time>
      </trkpt>
      <trkpt lat="47.75212" lon="-3.35645">
        <ele>4.7</ele>
        <time>2020-08-21T09:12:58.000Z</time>
      </trkpt>
      <trkpt lat="47.75211" lon="-3.35645">
        <ele>4.7</ele>
        <time>2020-08-21T09:12:59.000Z</time>
      </trkpt>
      <trkpt lat="47.7521" lon="-3.35646">
        <ele>4.7</ele>
        <time>2020-08-21T09:13:00.000Z</time>
      </trkpt>
      <trkpt lat="47.75209" lon="-3.35646">
        <ele>4.7</ele>
        <time>2020-08-21T09:13:01.000Z</time>
      </trkpt>
      <trkpt lat="47.75208" lon="-3.35646">
        <ele>4.8</ele>
        <time>2020-08-21T09:13:02.000Z</time>
      </trkpt>
      <trkpt lat="47.75207" lon="-3.35647">
        <ele>4.8</ele>
        <time>2020-08-21T09:13:03.000Z</time>
      </trkpt>
      <trkpt lat="47.75206" lon="-3.35647">
        <ele>4.8</ele>
        <time>2020-08-21T09:13:04.000Z</time>
      </trkpt>
      <trkpt lat="47.75205" lon="-3.35647">
        <ele>4.8</ele>
        <time>2020-08-21T09:13:05.000Z</time>
      </trkpt>
      <trkpt lat="47.75204" lon="-3.35647">
        <ele>4.8</ele>
        <time>2020-08-21T09:13:06.000Z</time>
      </trkpt>
      <trkpt lat="47.75203" lon="-3.35648">
        <ele>4.8</ele>
        <time>2020-08-21T09:13:07.000Z</time>
      </trkpt>
      <trkpt lat="47.75202" lon="-3.35648">
        <ele>4.8</ele>
        <time>2020-08-21T09:13:08.000Z</time>
      </trkpt>
      <trkpt lat="47.75201" lon="-3.35648">
        <ele>4.8</ele>
        <time>2020-08-21T09:13:09.000Z</time>
      </trkpt>
      <trkpt lat="47.752" lon="-3.35648">
        <ele>4.8</ele>
        <time>2020-08-21T09:13:10.000Z</time>
      </trkpt>
      <trkpt lat="47.75199" lon="-3.35649">
        <ele>4.8</ele>
        <time>2020-08-21T09:13:11.000Z</time>
      </trkpt>
      <trkpt lat="47.75198" lon="-3.35649">
        <ele>4.8</ele>
        <time>2020-08-21T09:13:12.000Z</time>
      </trkpt>
      <trkpt lat="47.75197" lon="-3.3565">
        <ele>4.9</ele>
        <time>2020-08-21T09:13:13.000Z</time>
      </trkpt>
      <trkpt lat="47.75196" lon="-3.3565">
        <ele>4.9</ele>
        <time>2020-08-21T09:13:14.000Z</time>
      </trkpt>
      <trkpt lat="47.75194" lon="-3.3565">
        <ele>4.9</ele>
        <time>2020-08-21T09:13:15.000Z</time>
      </trkpt>
      <trkpt lat="47.75193" lon="-3.35651">
        <ele>4.9</ele>
        <time>2020-08-21T09:13:16.000Z</time>
      </trkpt>
      <trkpt lat="47.75192" lon="-3.35652">
        <ele>4.9</ele>
        <time>2020-08-21T09:13:17.000Z</time>
      </trkpt>
      <trkpt lat="47.75191" lon="-3.35652">
        <ele>4.9</ele>
        <time>2020-08-21T09:13:18.000Z</time>
      </trkpt>
      <trkpt lat="47.7519" lon="-3.35653">
        <ele>4.9</ele>
        <time>2020-08-21T09:13:19.000Z</time>
      </trkpt>
      <trkpt lat="47.75189" lon="-3.35654">
        <ele>4.9</ele>
        <time>2020-08-21T09:13:20.000Z</time>
      </trkpt>
      <trkpt lat="47.75187" lon="-3.35654">
        <ele>4.9</ele>
        <time>2020-08-21T09:13:21.000Z</time>
      </trkpt>
      <trkpt lat="47.75186" lon="-3.35655">
        <ele>4.9</ele>
        <time>2020-08-21T09:13:22.000Z</time>
      </trkpt>
      <trkpt lat="47.75185" lon="-3.35656">
        <ele>4.9</ele>
        <time>2020-08-21T09:13:23.000Z</time>
      </trkpt>
      <trkpt lat="47.75184" lon="-3.35656">
        <ele>4.9</ele>
        <time>2020-08-21T09:13:24.000Z</time>
      </trkpt>
      <trkpt lat="47.75183" lon="-3.35657">
        <ele>5</ele>
        <time>2020-08-21T09:13:25.000Z</time>
      </trkpt>
      <trkpt lat="47.75182" lon="-3.35657">
        <ele>5</ele>
        <time>2020-08-21T09:13:26.000Z</time>
      </trkpt>
      <trkpt lat="47.75181" lon="-3.35658">
        <ele>5</ele>
        <time>2020-08-21T09:13:27.000Z</time>
      </trkpt>
      <trkpt lat="47.7518" lon="-3.35658">
        <ele>5</ele>
        <time>2020-08-21T09:13:28.000Z</time>
      </trkpt>
      <trkpt lat="47.75179" lon="-3.35658">
        <ele>5</ele>
        <time>2020-08-21T09:13:29.000Z</time>
      </trkpt>
      <trkpt lat="47.75178" lon="-3.35659">
        <ele>5</ele>
        <time>2020-08-21T09:13:30.000Z</time>
      </trkpt>
      <trkpt lat="47.75177" lon="-3.35659">
        <ele>5</ele>
        <time>2020-08-21T09:13:31.000Z</time>
      </trkpt>
      <trkpt lat="47.75175" lon="-3.35659">
        <ele>5</ele>
        <time>2020-08-21T09:13:32.000Z</time>
      </trkpt>
      <trkpt lat="47.75174" lon="-3.3566">
        <ele>5</ele>
        <time>2020-08-21T09:13:33.000Z</time>
      </trkpt>
      <trkpt lat="47.75173" lon="-3.3566">
        <ele>5</ele>
        <time>2020-08-21T09:13:34.000Z</time>
      </trkpt>
      <trkpt lat="47.75172" lon="-3.35661">
        <ele>5</ele>
        <time>2020-08-21T09:13:35.000Z</time>
      </trkpt>
      <trkpt lat="47.7517" lon="-3.35661">
        <ele>5</ele>
        <time>2020-08-21T09:13:36.000Z</time>
      </trkpt>
      <trkpt lat="47.75169" lon="-3.35661">
        <ele>5</ele>
        <time>2020-08-21T09:13:37.000Z</time>
      </trkpt>
      <trkpt lat="47.75168" lon="-3.35662">
        <ele>5</ele>
        <time>2020-08-21T09:13:38.000Z</time>
      </trkpt>
      <trkpt lat="47.75167" lon="-3.35663">
        <ele>5</ele>
        <time>2020-08-21T09:13:39.000Z</time>
      </trkpt>
      <trkpt lat="47.75165" lon="-3.35663">
        <ele>5</ele>
        <time>2020-08-21T09:13:40.000Z</time>
      </trkpt>
      <trkpt lat="47.75164" lon="-3.35664">
        <ele>5</ele>
        <time>2020-08-21T09:13:41.000Z</time>
      </trkpt>
      <trkpt lat="47.75163" lon="-3.35665">
        <ele>5</ele>
        <time>2020-08-21T09:13:42.000Z</time>
      </trkpt>
      <trkpt lat="47.75162" lon="-3.35666">
        <ele>5.1</ele>
        <time>2020-08-21T09:13:43.000Z</time>
      </trkpt>
      <trkpt lat="47.7516" lon="-3.35666">
        <ele>5.1</ele>
        <time>2020-08-21T09:13:44.000Z</time>
      </trkpt>
      <trkpt lat="47.75159" lon="-3.35667">
        <ele>5.1</ele>
        <time>2020-08-21T09:13:45.000Z</time>
      </trkpt>
      <trkpt lat="47.75158" lon="-3.35668">
        <ele>5.1</ele>
        <time>2020-08-21T09:13:46.000Z</time>
      </trkpt>
      <trkpt lat="47.75157" lon="-3.35668">
        <ele>5.1</ele>
        <time>2020-08-21T09:13:47.000Z</time>
      </trkpt>
      <trkpt lat="47.75156" lon="-3.35669">
        <ele>5.1</ele>
        <time>2020-08-21T09:13:48.000Z</time>
      </trkpt>
      <trkpt lat="47.75155" lon="-3.3567">
        <ele>5.1</ele>
        <time>2020-08-21T09:13:49.000Z</time>
      </trkpt>
      <trkpt lat="47.75154" lon="-3.3567">
        <ele>5.1</ele>
        <time>2020-08-21T09:13:50.000Z</time>
      </trkpt>
      <trkpt lat="47.75152" lon="-3.35671">
        <ele>5.2</ele>
        <time>2020-08-21T09:13:51.000Z</time>
      </trkpt>
      <trkpt lat="47.75151" lon="-3.35671">
        <ele>5.2</ele>
        <time>2020-08-21T09:13:52.000Z</time>
      </trkpt>
      <trkpt lat="47.7515" lon="-3.35672">
        <ele>5.2</ele>
        <time>2020-08-21T09:13:53.000Z</time>
      </trkpt>
      <trkpt lat="47.75149" lon="-3.35672">
        <ele>5.2</ele>
        <time>2020-08-21T09:13:54.000Z</time>
      </trkpt>
      <trkpt lat="47.75148" lon="-3.35672">
        <ele>5.2</ele>
        <time>2020-08-21T09:13:55.000Z</time>
      </trkpt>
      <trkpt lat="47.75147" lon="-3.35673">
        <ele>5.2</ele>
        <time>2020-08-21T09:13:56.000Z</time>
      </trkpt>
      <trkpt lat="47.75146" lon="-3.35673">
        <ele>5.2</ele>
        <time>2020-08-21T09:13:57.000Z</time>
      </trkpt>
      <trkpt lat="47.75145" lon="-3.35674">
        <ele>5.2</ele>
        <time>2020-08-21T09:13:58.000Z</time>
      </trkpt>
      <trkpt lat="47.75143" lon="-3.35675">
        <ele>5.2</ele>
        <time>2020-08-21T09:13:59.000Z</time>
      </trkpt>
      <trkpt lat="47.75142" lon="-3.35675">
        <ele>5.2</ele>
        <time>2020-08-21T09:14:00.000Z</time>
      </trkpt>
      <trkpt lat="47.75141" lon="-3.35676">
        <ele>5.2</ele>
        <time>2020-08-21T09:14:01.000Z</time>
      </trkpt>
      <trkpt lat="47.75139" lon="-3.35677">
        <ele>5.2</ele>
        <time>2020-08-21T09:14:02.000Z</time>
      </trkpt>
      <trkpt lat="47.75138" lon="-3.35678">
        <ele>5.2</ele>
        <time>2020-08-21T09:14:03.000Z</time>
      </trkpt>
      <trkpt lat="47.75137" lon="-3.35679">
        <ele>5.3</ele>
        <time>2020-08-21T09:14:04.000Z</time>
      </trkpt>
      <trkpt lat="47.75136" lon="-3.3568">
        <ele>5.3</ele>
        <time>2020-08-21T09:14:05.000Z</time>
      </trkpt>
      <trkpt lat="47.75135" lon="-3.35681">
        <ele>5.2</ele>
        <time>2020-08-21T09:14:06.000Z</time>
      </trkpt>
      <trkpt lat="47.75134" lon="-3.35683">
        <ele>5.2</ele>
        <time>2020-08-21T09:14:07.000Z</time>
      </trkpt>
      <trkpt lat="47.75133" lon="-3.35684">
        <ele>5.2</ele>
        <time>2020-08-21T09:14:08.000Z</time>
      </trkpt>
      <trkpt lat="47.75132" lon="-3.35685">
        <ele>5.2</ele>
        <time>2020-08-21T09:14:09.000Z</time>
      </trkpt>
      <trkpt lat="47.75132" lon="-3.35687">
        <ele>5.2</ele>
        <time>2020-08-21T09:14:10.000Z</time>
      </trkpt>
      <trkpt lat="47.75132" lon="-3.35688">
        <ele>5.2</ele>
        <time>2020-08-21T09:14:11.000Z</time>
      </trkpt>
      <trkpt lat="47.75131" lon="-3.35689">
        <ele>5.2</ele>
        <time>2020-08-21T09:14:12.000Z</time>
      </trkpt>
      <trkpt lat="47.75131" lon="-3.35691">
        <ele>5.2</ele>
        <time>2020-08-21T09:14:13.000Z</time>
      </trkpt>
      <trkpt lat="47.75131" lon="-3.35693">
        <ele>5.2</ele>
        <time>2020-08-21T09:14:14.000Z</time>
      </trkpt>
      <trkpt lat="47.75132" lon="-3.35694">
        <ele>5.1</ele>
        <time>2020-08-21T09:14:15.000Z</time>
      </trkpt>
      <trkpt lat="47.75132" lon="-3.35696">
        <ele>5.1</ele>
        <time>2020-08-21T09:14:16.000Z</time>
      </trkpt>
      <trkpt lat="47.75132" lon="-3.35698">
        <ele>5.1</ele>
        <time>2020-08-21T09:14:17.000Z</time>
      </trkpt>
      <trkpt lat="47.75133" lon="-3.357">
        <ele>5.1</ele>
        <time>2020-08-21T09:14:18.000Z</time>
      </trkpt>
      <trkpt lat="47.75133" lon="-3.35701">
        <ele>5.1</ele>
        <time>2020-08-21T09:14:19.000Z</time>
      </trkpt>
      <trkpt lat="47.75134" lon="-3.35703">
        <ele>5</ele>
        <time>2020-08-21T09:14:20.000Z</time>
      </trkpt>
      <trkpt lat="47.75134" lon="-3.35705">
        <ele>5</ele>
        <time>2020-08-21T09:14:21.000Z</time>
      </trkpt>
      <trkpt lat="47.75134" lon="-3.35707">
        <ele>5</ele>
        <time>2020-08-21T09:14:22.000Z</time>
      </trkpt>
      <trkpt lat="47.75135" lon="-3.3571">
        <ele>5</ele>
        <time>2020-08-21T09:14:23.000Z</time>
      </trkpt>
      <trkpt lat="47.75135" lon="-3.35712">
        <ele>5</ele>
        <time>2020-08-21T09:14:24.000Z</time>
      </trkpt>
      <trkpt lat="47.75135" lon="-3.35714">
        <ele>4.9</ele>
        <time>2020-08-21T09:14:25.000Z</time>
      </trkpt>
      <trkpt lat="47.75135" lon="-3.35716">
        <ele>4.9</ele>
        <time>2020-08-21T09:14:26.000Z</time>
      </trkpt>
      <trkpt lat="47.75135" lon="-3.35718">
        <ele>4.9</ele>
        <time>2020-08-21T09:14:27.000Z</time>
      </trkpt>
      <trkpt lat="47.75135" lon="-3.35721">
        <ele>4.9</ele>
        <time>2020-08-21T09:14:28.000Z</time>
      </trkpt>
      <trkpt lat="47.75135" lon="-3.35723">
        <ele>4.9</ele>
        <time>2020-08-21T09:14:29.000Z</time>
      </trkpt>
      <trkpt lat="47.75135" lon="-3.35725">
        <ele>4.8</ele>
        <time>2020-08-21T09:14:30.000Z</time>
      </trkpt>
      <trkpt lat="47.75135" lon="-3.35727">
        <ele>4.8</ele>
        <time>2020-08-21T09:14:31.000Z</time>
      </trkpt>
      <trkpt lat="47.75135" lon="-3.35729">
        <ele>4.8</ele>
        <time>2020-08-21T09:14:32.000Z</time>
      </trkpt>
      <trkpt lat="47.75134" lon="-3.35731">
        <ele>4.8</ele>
        <time>2020-08-21T09:14:33.000Z</time>
      </trkpt>
      <trkpt lat="47.75134" lon="-3.35733">
        <ele>4.8</ele>
        <time>2020-08-21T09:14:34.000Z</time>
      </trkpt>
      <trkpt lat="47.75134" lon="-3.35735">
        <ele>4.7</ele>
        <time>2020-08-21T09:14:35.000Z</time>
      </trkpt>
      <trkpt lat="47.75134" lon="-3.35737">
        <ele>4.7</ele>
        <time>2020-08-21T09:14:36.000Z</time>
      </trkpt>
      <trkpt lat="47.75133" lon="-3.35739">
        <ele>4.7</ele>
        <time>2020-08-21T09:14:37.000Z</time>
      </trkpt>
      <trkpt lat="47.75133" lon="-3.35741">
        <ele>4.7</ele>
        <time>2020-08-21T09:14:38.000Z</time>
      </trkpt>
      <trkpt lat="47.75133" lon="-3.35743">
        <ele>4.7</ele>
        <time>2020-08-21T09:14:39.000Z</time>
      </trkpt>
      <trkpt lat="47.75132" lon="-3.35745">
        <ele>4.6</ele>
        <time>2020-08-21T09:14:40.000Z</time>
      </trkpt>
      <trkpt lat="47.75132" lon="-3.35746">
        <ele>4.6</ele>
        <time>2020-08-21T09:14:41.000Z</time>
      </trkpt>
      <trkpt lat="47.75131" lon="-3.35748">
        <ele>4.6</ele>
        <time>2020-08-21T09:14:42.000Z</time>
      </trkpt>
      <trkpt lat="47.75131" lon="-3.3575">
        <ele>4.6</ele>
        <time>2020-08-21T09:14:43.000Z</time>
      </trkpt>
      <trkpt lat="47.75131" lon="-3.35752">
        <ele>4.6</ele>
        <time>2020-08-21T09:14:44.000Z</time>
      </trkpt>
      <trkpt lat="47.7513" lon="-3.35753">
        <ele>4.6</ele>
        <time>2020-08-21T09:14:45.000Z</time>
      </trkpt>
      <trkpt lat="47.7513" lon="-3.35755">
        <ele>4.6</ele>
        <time>2020-08-21T09:14:46.000Z</time>
      </trkpt>
      <trkpt lat="47.75129" lon="-3.35757">
        <ele>4.6</ele>
        <time>2020-08-21T09:14:47.000Z</time>
      </trkpt>
      <trkpt lat="47.75129" lon="-3.35759">
        <ele>4.6</ele>
        <time>2020-08-21T09:14:48.000Z</time>
      </trkpt>
      <trkpt lat="47.75129" lon="-3.35761">
        <ele>4.7</ele>
        <time>2020-08-21T09:14:49.000Z</time>
      </trkpt>
      <trkpt lat="47.75128" lon="-3.35762">
        <ele>4.7</ele>
        <time>2020-08-21T09:14:50.000Z</time>
      </trkpt>
      <trkpt lat="47.75128" lon="-3.35764">
        <ele>4.7</ele>
        <time>2020-08-21T09:14:51.000Z</time>
      </trkpt>
      <trkpt lat="47.75127" lon="-3.35766">
        <ele>4.7</ele>
        <time>2020-08-21T09:14:52.000Z</time>
      </trkpt>
      <trkpt lat="47.75127" lon="-3.35767">
        <ele>4.7</ele>
        <time>2020-08-21T09:14:53.000Z</time>
      </trkpt>
      <trkpt lat="47.75127" lon="-3.35769">
        <ele>4.7</ele>
        <time>2020-08-21T09:14:54.000Z</time>
      </trkpt>
      <trkpt lat="47.75126" lon="-3.3577">
        <ele>4.8</ele>
        <time>2020-08-21T09:14:55.000Z</time>
      </trkpt>
      <trkpt lat="47.75126" lon="-3.35772">
        <ele>4.8</ele>
        <time>2020-08-21T09:14:56.000Z</time>
      </trkpt>
      <trkpt lat="47.75126" lon="-3.35773">
        <ele>4.8</ele>
        <time>2020-08-21T09:14:57.000Z</time>
      </trkpt>
      <trkpt lat="47.75125" lon="-3.35775">
        <ele>4.8</ele>
        <time>2020-08-21T09:14:58.000Z</time>
      </trkpt>
      <trkpt lat="47.75125" lon="-3.35776">
        <ele>4.8</ele>
        <time>2020-08-21T09:14:59.000Z</time>
      </trkpt>
      <trkpt lat="47.75124" lon="-3.35777">
        <ele>4.8</ele>
        <time>2020-08-21T09:15:00.000Z</time>
      </trkpt>
      <trkpt lat="47.75124" lon="-3.35778">
        <ele>4.8</ele>
        <time>2020-08-21T09:15:01.000Z</time>
      </trkpt>
      <trkpt lat="47.75123" lon="-3.35779">
        <ele>4.8</ele>
        <time>2020-08-21T09:15:02.000Z</time>
      </trkpt>
      <trkpt lat="47.75122" lon="-3.3578">
        <ele>4.9</ele>
        <time>2020-08-21T09:15:03.000Z</time>
      </trkpt>
      <trkpt lat="47.75121" lon="-3.35782">
        <ele>4.9</ele>
        <time>2020-08-21T09:15:04.000Z</time>
      </trkpt>
      <trkpt lat="47.75121" lon="-3.35783">
        <ele>4.9</ele>
        <time>2020-08-21T09:15:05.000Z</time>
      </trkpt>
      <trkpt lat="47.7512" lon="-3.35784">
        <ele>4.9</ele>
        <time>2020-08-21T09:15:06.000Z</time>
      </trkpt>
      <trkpt lat="47.7512" lon="-3.35786">
        <ele>4.9</ele>
        <time>2020-08-21T09:15:07.000Z</time>
      </trkpt>
      <trkpt lat="47.7512" lon="-3.35787">
        <ele>4.9</ele>
        <time>2020-08-21T09:15:08.000Z</time>
      </trkpt>
      <trkpt lat="47.75119" lon="-3.35789">
        <ele>5</ele>
        <time>2020-08-21T09:15:09.000Z</time>
      </trkpt>
      <trkpt lat="47.75119" lon="-3.35791">
        <ele>5</ele>
        <time>2020-08-21T09:15:10.000Z</time>
      </trkpt>
      <trkpt lat="47.75119" lon="-3.35792">
        <ele>5</ele>
        <time>2020-08-21T09:15:11.000Z</time>
      </trkpt>
      <trkpt lat="47.75119" lon="-3.35794">
        <ele>5</ele>
        <time>2020-08-21T09:15:12.000Z</time>
      </trkpt>
      <trkpt lat="47.75119" lon="-3.35795">
        <ele>5</ele>
        <time>2020-08-21T09:15:13.000Z</time>
      </trkpt>
      <trkpt lat="47.75118" lon="-3.35796">
        <ele>5.1</ele>
        <time>2020-08-21T09:15:14.000Z</time>
      </trkpt>
      <trkpt lat="47.75118" lon="-3.35796">
        <ele>5.1</ele>
        <time>2020-08-21T09:15:15.000Z</time>
      </trkpt>
      <trkpt lat="47.75117" lon="-3.35797">
        <ele>5.1</ele>
        <time>2020-08-21T09:15:16.000Z</time>
      </trkpt>
      <trkpt lat="47.75116" lon="-3.35798">
        <ele>5.1</ele>
        <time>2020-08-21T09:15:17.000Z</time>
      </trkpt>
      <trkpt lat="47.75116" lon="-3.35799">
        <ele>5.1</ele>
        <time>2020-08-21T09:15:18.000Z</time>
      </trkpt>
      <trkpt lat="47.75115" lon="-3.358">
        <ele>5.1</ele>
        <time>2020-08-21T09:15:19.000Z</time>
      </trkpt>
      <trkpt lat="47.75114" lon="-3.35802">
        <ele>5.2</ele>
        <time>2020-08-21T09:15:20.000Z</time>
      </trkpt>
      <trkpt lat="47.75113" lon="-3.35803">
        <ele>5.2</ele>
        <time>2020-08-21T09:15:21.000Z</time>
      </trkpt>
      <trkpt lat="47.75113" lon="-3.35805">
        <ele>5.2</ele>
        <time>2020-08-21T09:15:22.000Z</time>
      </trkpt>
      <trkpt lat="47.75112" lon="-3.35806">
        <ele>5.2</ele>
        <time>2020-08-21T09:15:23.000Z</time>
      </trkpt>
      <trkpt lat="47.75111" lon="-3.35808">
        <ele>5.3</ele>
        <time>2020-08-21T09:15:24.000Z</time>
      </trkpt>
      <trkpt lat="47.75111" lon="-3.3581">
        <ele>5.3</ele>
        <time>2020-08-21T09:15:25.000Z</time>
      </trkpt>
      <trkpt lat="47.7511" lon="-3.35812">
        <ele>5.3</ele>
        <time>2020-08-21T09:15:26.000Z</time>
      </trkpt>
      <trkpt lat="47.7511" lon="-3.35814">
        <ele>5.4</ele>
        <time>2020-08-21T09:15:27.000Z</time>
      </trkpt>
      <trkpt lat="47.7511" lon="-3.35816">
        <ele>5.4</ele>
        <time>2020-08-21T09:15:28.000Z</time>
      </trkpt>
      <trkpt lat="47.7511" lon="-3.35818">
        <ele>5.4</ele>
        <time>2020-08-21T09:15:29.000Z</time>
      </trkpt>
      <trkpt lat="47.7511" lon="-3.3582">
        <ele>5.5</ele>
        <time>2020-08-21T09:15:30.000Z</time>
      </trkpt>
      <trkpt lat="47.7511" lon="-3.35822">
        <ele>5.5</ele>
        <time>2020-08-21T09:15:31.000Z</time>
      </trkpt>
      <trkpt lat="47.7511" lon="-3.35825">
        <ele>5.5</ele>
        <time>2020-08-21T09:15:32.000Z</time>
      </trkpt>
      <trkpt lat="47.75111" lon="-3.35827">
        <ele>5.6</ele>
        <time>2020-08-21T09:15:33.000Z</time>
      </trkpt>
      <trkpt lat="47.75111" lon="-3.35829">
        <ele>5.6</ele>
        <time>2020-08-21T09:15:34.000Z</time>
      </trkpt>
      <trkpt lat="47.75111" lon="-3.35831">
        <ele>5.6</ele>
        <time>2020-08-21T09:15:35.000Z</time>
      </trkpt>
      <trkpt lat="47.75112" lon="-3.35832">
        <ele>5.6</ele>
        <time>2020-08-21T09:15:36.000Z</time>
      </trkpt>
      <trkpt lat="47.75112" lon="-3.35834">
        <ele>5.7</ele>
        <time>2020-08-21T09:15:37.000Z</time>
      </trkpt>
      <trkpt lat="47.75112" lon="-3.35835">
        <ele>5.7</ele>
        <time>2020-08-21T09:15:38.000Z</time>
      </trkpt>
      <trkpt lat="47.75113" lon="-3.35837">
        <ele>5.7</ele>
        <time>2020-08-21T09:15:39.000Z</time>
      </trkpt>
      <trkpt lat="47.75113" lon="-3.35838">
        <ele>5.8</ele>
        <time>2020-08-21T09:15:40.000Z</time>
      </trkpt>
      <trkpt lat="47.75113" lon="-3.35838">
        <ele>5.8</ele>
        <time>2020-08-21T09:15:41.000Z</time>
      </trkpt>
      <trkpt lat="47.75113" lon="-3.35839">
        <ele>5.8</ele>
        <time>2020-08-21T09:15:42.000Z</time>
      </trkpt>
      <trkpt lat="47.75113" lon="-3.3584">
        <ele>5.8</ele>
        <time>2020-08-21T09:15:43.000Z</time>
      </trkpt>
      <trkpt lat="47.75113" lon="-3.3584">
        <ele>5.8</ele>
        <time>2020-08-21T09:15:44.000Z</time>
      </trkpt>
      <trkpt lat="47.75113" lon="-3.3584">
        <ele>5.8</ele>
        <time>2020-08-21T09:15:45.000Z</time>
      </trkpt>
      <trkpt lat="47.75112" lon="-3.3584">
        <ele>5.8</ele>
        <time>2020-08-21T09:15:46.000Z</time>
      </trkpt>
      <trkpt lat="47.75112" lon="-3.3584">
        <ele>5.8</ele>
        <time>2020-08-21T09:15:47.000Z</time>
      </trkpt>
      <trkpt lat="47.75112" lon="-3.3584">
        <ele>5.8</ele>
        <time>2020-08-21T09:15:48.000Z</time>
      </trkpt>
      <trkpt lat="47.75112" lon="-3.3584">
        <ele>5.8</ele>
        <time>2020-08-21T09:15:49.000Z</time>
      </trkpt>
      <trkpt lat="47.75112" lon="-3.3584">
        <ele>5.8</ele>
        <time>2020-08-21T09:15:50.000Z</time>
      </trkpt>
      <trkpt lat="47.75112" lon="-3.3584">
        <ele>5.8</ele>
        <time>2020-08-21T09:15:51.000Z</time>
      </trkpt>
      <trkpt lat="47.75112" lon="-3.3584">
        <ele>5.8</ele>
        <time>2020-08-21T09:15:52.000Z</time>
      </trkpt>
      <trkpt lat="47.75112" lon="-3.3584">
        <ele>5.8</ele>
        <time>2020-08-21T09:15:53.000Z</time>
      </trkpt>
      <trkpt lat="47.75112" lon="-3.3584">
        <ele>5.8</ele>
        <time>2020-08-21T09:15:54.000Z</time>
      </trkpt>
      <trkpt lat="47.75112" lon="-3.3584">
        <ele>5.8</ele>
        <time>2020-08-21T09:15:55.000Z</time>
      </trkpt>
      <trkpt lat="47.75111" lon="-3.3584">
        <ele>5.8</ele>
        <time>2020-08-21T09:15:56.000Z</time>
      </trkpt>
      <trkpt lat="47.75111" lon="-3.35841">
        <ele>5.8</ele>
        <time>2020-08-21T09:15:57.000Z</time>
      </trkpt>
      <trkpt lat="47.7511" lon="-3.35841">
        <ele>5.9</ele>
        <time>2020-08-21T09:15:58.000Z</time>
      </trkpt>
      <trkpt lat="47.75109" lon="-3.35841">
        <ele>5.9</ele>
        <time>2020-08-21T09:15:59.000Z</time>
      </trkpt>
      <trkpt lat="47.75108" lon="-3.35841">
        <ele>5.9</ele>
        <time>2020-08-21T09:16:00.000Z</time>
      </trkpt>
      <trkpt lat="47.75107" lon="-3.35841">
        <ele>5.9</ele>
        <time>2020-08-21T09:16:01.000Z</time>
      </trkpt>
      <trkpt lat="47.75106" lon="-3.35841">
        <ele>5.9</ele>
        <time>2020-08-21T09:16:02.000Z</time>
      </trkpt>
      <trkpt lat="47.75105" lon="-3.35841">
        <ele>5.9</ele>
        <time>2020-08-21T09:16:03.000Z</time>
      </trkpt>
      <trkpt lat="47.75104" lon="-3.35842">
        <ele>6</ele>
        <time>2020-08-21T09:16:04.000Z</time>
      </trkpt>
      <trkpt lat="47.75102" lon="-3.35842">
        <ele>6</ele>
        <time>2020-08-21T09:16:05.000Z</time>
      </trkpt>
      <trkpt lat="47.75101" lon="-3.35843">
        <ele>6</ele>
        <time>2020-08-21T09:16:06.000Z</time>
      </trkpt>
      <trkpt lat="47.751" lon="-3.35843">
        <ele>6</ele>
        <time>2020-08-21T09:16:07.000Z</time>
      </trkpt>
      <trkpt lat="47.75099" lon="-3.35844">
        <ele>6.1</ele>
        <time>2020-08-21T09:16:08.000Z</time>
      </trkpt>
      <trkpt lat="47.75098" lon="-3.35843">
        <ele>6.1</ele>
        <time>2020-08-21T09:16:09.000Z</time>
      </trkpt>
      <trkpt lat="47.75097" lon="-3.35843">
        <ele>6.1</ele>
        <time>2020-08-21T09:16:10.000Z</time>
      </trkpt>
      <trkpt lat="47.75096" lon="-3.35843">
        <ele>6.1</ele>
        <time>2020-08-21T09:16:11.000Z</time>
      </trkpt>
      <trkpt lat="47.75095" lon="-3.35842">
        <ele>6.1</ele>
        <time>2020-08-21T09:16:12.000Z</time>
      </trkpt>
      <trkpt lat="47.75094" lon="-3.35842">
        <ele>6.1</ele>
        <time>2020-08-21T09:16:13.000Z</time>
      </trkpt>
      <trkpt lat="47.75094" lon="-3.35841">
        <ele>6.1</ele>
        <time>2020-08-21T09:16:14.000Z</time>
      </trkpt>
      <trkpt lat="47.75093" lon="-3.35841">
        <ele>6.1</ele>
        <time>2020-08-21T09:16:15.000Z</time>
      </trkpt>
      <trkpt lat="47.75092" lon="-3.3584">
        <ele>6.1</ele>
        <time>2020-08-21T09:16:16.000Z</time>
      </trkpt>
      <trkpt lat="47.75091" lon="-3.35839">
        <ele>6</ele>
        <time>2020-08-21T09:16:17.000Z</time>
      </trkpt>
      <trkpt lat="47.7509" lon="-3.35839">
        <ele>6</ele>
        <time>2020-08-21T09:16:18.000Z</time>
      </trkpt>
      <trkpt lat="47.75089" lon="-3.35838">
        <ele>6</ele>
        <time>2020-08-21T09:16:19.000Z</time>
      </trkpt>
      <trkpt lat="47.75089" lon="-3.35838">
        <ele>6</ele>
        <time>2020-08-21T09:16:20.000Z</time>
      </trkpt>
      <trkpt lat="47.75088" lon="-3.35837">
        <ele>6</ele>
        <time>2020-08-21T09:16:21.000Z</time>
      </trkpt>
      <trkpt lat="47.75087" lon="-3.35837">
        <ele>6</ele>
        <time>2020-08-21T09:16:22.000Z</time>
      </trkpt>
      <trkpt lat="47.75085" lon="-3.35836">
        <ele>6</ele>
        <time>2020-08-21T09:16:23.000Z</time>
      </trkpt>
      <trkpt lat="47.75084" lon="-3.35836">
        <ele>6.1</ele>
        <time>2020-08-21T09:16:24.000Z</time>
      </trkpt>
      <trkpt lat="47.75083" lon="-3.35836">
        <ele>6.1</ele>
        <time>2020-08-21T09:16:25.000Z</time>
      </trkpt>
      <trkpt lat="47.75082" lon="-3.35836">
        <ele>6.1</ele>
        <time>2020-08-21T09:16:26.000Z</time>
      </trkpt>
      <trkpt lat="47.75081" lon="-3.35836">
        <ele>6.1</ele>
        <time>2020-08-21T09:16:27.000Z</time>
      </trkpt>
      <trkpt lat="47.7508" lon="-3.35836">
        <ele>6.1</ele>
        <time>2020-08-21T09:16:28.000Z</time>
      </trkpt>
      <trkpt lat="47.75078" lon="-3.35836">
        <ele>6.1</ele>
        <time>2020-08-21T09:16:29.000Z</time>
      </trkpt>
      <trkpt lat="47.75077" lon="-3.35835">
        <ele>6.1</ele>
        <time>2020-08-21T09:16:30.000Z</time>
      </trkpt>
      <trkpt lat="47.75076" lon="-3.35835">
        <ele>6.1</ele>
        <time>2020-08-21T09:16:31.000Z</time>
      </trkpt>
      <trkpt lat="47.75074" lon="-3.35835">
        <ele>6.2</ele>
        <time>2020-08-21T09:16:32.000Z</time>
      </trkpt>
      <trkpt lat="47.75073" lon="-3.35835">
        <ele>6.2</ele>
        <time>2020-08-21T09:16:33.000Z</time>
      </trkpt>
      <trkpt lat="47.75072" lon="-3.35834">
        <ele>6.2</ele>
        <time>2020-08-21T09:16:34.000Z</time>
      </trkpt>
      <trkpt lat="47.75071" lon="-3.35834">
        <ele>6.2</ele>
        <time>2020-08-21T09:16:35.000Z</time>
      </trkpt>
      <trkpt lat="47.7507" lon="-3.35833">
        <ele>6.2</ele>
        <time>2020-08-21T09:16:36.000Z</time>
      </trkpt>
      <trkpt lat="47.75068" lon="-3.35833">
        <ele>6.2</ele>
        <time>2020-08-21T09:16:37.000Z</time>
      </trkpt>
      <trkpt lat="47.75067" lon="-3.35832">
        <ele>6.2</ele>
        <time>2020-08-21T09:16:38.000Z</time>
      </trkpt>
      <trkpt lat="47.75066" lon="-3.35831">
        <ele>6.1</ele>
        <time>2020-08-21T09:16:39.000Z</time>
      </trkpt>
      <trkpt lat="47.75065" lon="-3.3583">
        <ele>6.1</ele>
        <time>2020-08-21T09:16:40.000Z</time>
      </trkpt>
      <trkpt lat="47.75064" lon="-3.35829">
        <ele>6.1</ele>
        <time>2020-08-21T09:16:41.000Z</time>
      </trkpt>
      <trkpt lat="47.75063" lon="-3.35828">
        <ele>6.1</ele>
        <time>2020-08-21T09:16:42.000Z</time>
      </trkpt>
      <trkpt lat="47.75062" lon="-3.35827">
        <ele>6.1</ele>
        <time>2020-08-21T09:16:43.000Z</time>
      </trkpt>
      <trkpt lat="47.75061" lon="-3.35826">
        <ele>6.1</ele>
        <time>2020-08-21T09:16:44.000Z</time>
      </trkpt>
      <trkpt lat="47.7506" lon="-3.35825">
        <ele>6.1</ele>
        <time>2020-08-21T09:16:45.000Z</time>
      </trkpt>
      <trkpt lat="47.75059" lon="-3.35824">
        <ele>6.1</ele>
        <time>2020-08-21T09:16:46.000Z</time>
      </trkpt>
      <trkpt lat="47.75058" lon="-3.35823">
        <ele>6.1</ele>
        <time>2020-08-21T09:16:47.000Z</time>
      </trkpt>
      <trkpt lat="47.75057" lon="-3.35823">
        <ele>6.1</ele>
        <time>2020-08-21T09:16:48.000Z</time>
      </trkpt>
      <trkpt lat="47.75056" lon="-3.35822">
        <ele>6.1</ele>
        <time>2020-08-21T09:16:49.000Z</time>
      </trkpt>
      <trkpt lat="47.75055" lon="-3.35822">
        <ele>6.1</ele>
        <time>2020-08-21T09:16:50.000Z</time>
      </trkpt>
      <trkpt lat="47.75055" lon="-3.35821">
        <ele>6.1</ele>
        <time>2020-08-21T09:16:51.000Z</time>
      </trkpt>
      <trkpt lat="47.75055" lon="-3.35821">
        <ele>6.1</ele>
        <time>2020-08-21T09:16:52.000Z</time>
      </trkpt>
      <trkpt lat="47.75055" lon="-3.35821">
        <ele>6</ele>
        <time>2020-08-21T09:16:53.000Z</time>
      </trkpt>
      <trkpt lat="47.75054" lon="-3.35821">
        <ele>6</ele>
        <time>2020-08-21T09:16:54.000Z</time>
      </trkpt>
      <trkpt lat="47.75053" lon="-3.3582">
        <ele>6</ele>
        <time>2020-08-21T09:16:55.000Z</time>
      </trkpt>
      <trkpt lat="47.75052" lon="-3.3582">
        <ele>6.1</ele>
        <time>2020-08-21T09:16:56.000Z</time>
      </trkpt>
      <trkpt lat="47.75051" lon="-3.35819">
        <ele>6.1</ele>
        <time>2020-08-21T09:16:57.000Z</time>
      </trkpt>
      <trkpt lat="47.7505" lon="-3.35819">
        <ele>6.1</ele>
        <time>2020-08-21T09:16:58.000Z</time>
      </trkpt>
      <trkpt lat="47.75049" lon="-3.35818">
        <ele>6.1</ele>
        <time>2020-08-21T09:16:59.000Z</time>
      </trkpt>
      <trkpt lat="47.75047" lon="-3.35818">
        <ele>6.1</ele>
        <time>2020-08-21T09:17:00.000Z</time>
      </trkpt>
      <trkpt lat="47.75046" lon="-3.35817">
        <ele>6.1</ele>
        <time>2020-08-21T09:17:01.000Z</time>
      </trkpt>
      <trkpt lat="47.75045" lon="-3.35817">
        <ele>6.1</ele>
        <time>2020-08-21T09:17:02.000Z</time>
      </trkpt>
      <trkpt lat="47.75044" lon="-3.35816">
        <ele>6.1</ele>
        <time>2020-08-21T09:17:03.000Z</time>
      </trkpt>
      <trkpt lat="47.75042" lon="-3.35815">
        <ele>6.1</ele>
        <time>2020-08-21T09:17:04.000Z</time>
      </trkpt>
      <trkpt lat="47.75041" lon="-3.35814">
        <ele>6</ele>
        <time>2020-08-21T09:17:05.000Z</time>
      </trkpt>
      <trkpt lat="47.75039" lon="-3.35813">
        <ele>6</ele>
        <time>2020-08-21T09:17:06.000Z</time>
      </trkpt>
      <trkpt lat="47.75037" lon="-3.35812">
        <ele>6</ele>
        <time>2020-08-21T09:17:07.000Z</time>
      </trkpt>
      <trkpt lat="47.75035" lon="-3.3581">
        <ele>6</ele>
        <time>2020-08-21T09:17:08.000Z</time>
      </trkpt>
      <trkpt lat="47.75034" lon="-3.35809">
        <ele>6</ele>
        <time>2020-08-21T09:17:09.000Z</time>
      </trkpt>
      <trkpt lat="47.75032" lon="-3.35807">
        <ele>6</ele>
        <time>2020-08-21T09:17:10.000Z</time>
      </trkpt>
      <trkpt lat="47.75031" lon="-3.35806">
        <ele>6</ele>
        <time>2020-08-21T09:17:11.000Z</time>
      </trkpt>
      <trkpt lat="47.75029" lon="-3.35804">
        <ele>5.9</ele>
        <time>2020-08-21T09:17:12.000Z</time>
      </trkpt>
      <trkpt lat="47.75028" lon="-3.35803">
        <ele>5.9</ele>
        <time>2020-08-21T09:17:13.000Z</time>
      </trkpt>
      <trkpt lat="47.75027" lon="-3.35802">
        <ele>5.9</ele>
        <time>2020-08-21T09:17:14.000Z</time>
      </trkpt>
      <trkpt lat="47.75026" lon="-3.35801">
        <ele>5.9</ele>
        <time>2020-08-21T09:17:15.000Z</time>
      </trkpt>
      <trkpt lat="47.75026" lon="-3.35801">
        <ele>5.9</ele>
        <time>2020-08-21T09:17:16.000Z</time>
      </trkpt>
      <trkpt lat="47.75025" lon="-3.358">
        <ele>5.9</ele>
        <time>2020-08-21T09:17:17.000Z</time>
      </trkpt>
      <trkpt lat="47.75025" lon="-3.358">
        <ele>5.9</ele>
        <time>2020-08-21T09:17:18.000Z</time>
      </trkpt>
      <trkpt lat="47.75025" lon="-3.358">
        <ele>5.9</ele>
        <time>2020-08-21T09:17:19.000Z</time>
      </trkpt>
      <trkpt lat="47.75025" lon="-3.358">
        <ele>5.9</ele>
        <time>2020-08-21T09:17:20.000Z</time>
      </trkpt>
      <trkpt lat="47.75025" lon="-3.358">
        <ele>5.9</ele>
        <time>2020-08-21T09:17:21.000Z</time>
      </trkpt>
      <trkpt lat="47.75025" lon="-3.358">
        <ele>5.9</ele>
        <time>2020-08-21T09:17:22.000Z</time>
      </trkpt>
      <trkpt lat="47.75024" lon="-3.358">
        <ele>5.9</ele>
        <time>2020-08-21T09:17:23.000Z</time>
      </trkpt>
      <trkpt lat="47.75023" lon="-3.35799">
        <ele>5.9</ele>
        <time>2020-08-21T09:17:24.000Z</time>
      </trkpt>
      <trkpt lat="47.75021" lon="-3.35798">
        <ele>5.9</ele>
        <time>2020-08-21T09:17:25.000Z</time>
      </trkpt>
      <trkpt lat="47.7502" lon="-3.35798">
        <ele>5.9</ele>
        <time>2020-08-21T09:17:26.000Z</time>
      </trkpt>
      <trkpt lat="47.75018" lon="-3.35797">
        <ele>5.9</ele>
        <time>2020-08-21T09:17:27.000Z</time>
      </trkpt>
      <trkpt lat="47.75016" lon="-3.35795">
        <ele>5.9</ele>
        <time>2020-08-21T09:17:28.000Z</time>
      </trkpt>
      <trkpt lat="47.75015" lon="-3.35794">
        <ele>5.9</ele>
        <time>2020-08-21T09:17:29.000Z</time>
      </trkpt>
      <trkpt lat="47.75013" lon="-3.35793">
        <ele>5.9</ele>
        <time>2020-08-21T09:17:30.000Z</time>
      </trkpt>
      <trkpt lat="47.75011" lon="-3.35792">
        <ele>5.9</ele>
        <time>2020-08-21T09:17:31.000Z</time>
      </trkpt>
      <trkpt lat="47.7501" lon="-3.35791">
        <ele>5.9</ele>
        <time>2020-08-21T09:17:32.000Z</time>
      </trkpt>
      <trkpt lat="47.75008" lon="-3.35791">
        <ele>5.9</ele>
        <time>2020-08-21T09:17:33.000Z</time>
      </trkpt>
      <trkpt lat="47.75007" lon="-3.3579">
        <ele>5.9</ele>
        <time>2020-08-21T09:17:34.000Z</time>
      </trkpt>
      <trkpt lat="47.75005" lon="-3.3579">
        <ele>5.9</ele>
        <time>2020-08-21T09:17:35.000Z</time>
      </trkpt>
      <trkpt lat="47.75004" lon="-3.35789">
        <ele>5.9</ele>
        <time>2020-08-21T09:17:36.000Z</time>
      </trkpt>
      <trkpt lat="47.75003" lon="-3.35789">
        <ele>5.9</ele>
        <time>2020-08-21T09:17:37.000Z</time>
      </trkpt>
      <trkpt lat="47.75001" lon="-3.35788">
        <ele>5.9</ele>
        <time>2020-08-21T09:17:38.000Z</time>
      </trkpt>
      <trkpt lat="47.75" lon="-3.35787">
        <ele>5.9</ele>
        <time>2020-08-21T09:17:39.000Z</time>
      </trkpt>
      <trkpt lat="47.74999" lon="-3.35786">
        <ele>5.9</ele>
        <time>2020-08-21T09:17:40.000Z</time>
      </trkpt>
      <trkpt lat="47.74997" lon="-3.35785">
        <ele>5.9</ele>
        <time>2020-08-21T09:17:41.000Z</time>
      </trkpt>
      <trkpt lat="47.74996" lon="-3.35784">
        <ele>5.9</ele>
        <time>2020-08-21T09:17:42.000Z</time>
      </trkpt>
      <trkpt lat="47.74995" lon="-3.35783">
        <ele>5.9</ele>
        <time>2020-08-21T09:17:43.000Z</time>
      </trkpt>
      <trkpt lat="47.74994" lon="-3.35782">
        <ele>5.9</ele>
        <time>2020-08-21T09:17:44.000Z</time>
      </trkpt>
      <trkpt lat="47.74992" lon="-3.35781">
        <ele>5.9</ele>
        <time>2020-08-21T09:17:45.000Z</time>
      </trkpt>
      <trkpt lat="47.74991" lon="-3.3578">
        <ele>5.9</ele>
        <time>2020-08-21T09:17:46.000Z</time>
      </trkpt>
      <trkpt lat="47.7499" lon="-3.3578">
        <ele>5.9</ele>
        <time>2020-08-21T09:17:47.000Z</time>
      </trkpt>
      <trkpt lat="47.74989" lon="-3.35779">
        <ele>6</ele>
        <time>2020-08-21T09:17:48.000Z</time>
      </trkpt>
      <trkpt lat="47.74988" lon="-3.35778">
        <ele>6</ele>
        <time>2020-08-21T09:17:49.000Z</time>
      </trkpt>
      <trkpt lat="47.74987" lon="-3.35777">
        <ele>6</ele>
        <time>2020-08-21T09:17:50.000Z</time>
      </trkpt>
      <trkpt lat="47.74986" lon="-3.35777">
        <ele>6</ele>
        <time>2020-08-21T09:17:51.000Z</time>
      </trkpt>
      <trkpt lat="47.74985" lon="-3.35776">
        <ele>6</ele>
        <time>2020-08-21T09:17:52.000Z</time>
      </trkpt>
      <trkpt lat="47.74984" lon="-3.35775">
        <ele>6</ele>
        <time>2020-08-21T09:17:53.000Z</time>
      </trkpt>
      <trkpt lat="47.74983" lon="-3.35775">
        <ele>6</ele>
        <time>2020-08-21T09:17:54.000Z</time>
      </trkpt>
      <trkpt lat="47.74982" lon="-3.35774">
        <ele>6</ele>
        <time>2020-08-21T09:17:55.000Z</time>
      </trkpt>
      <trkpt lat="47.74981" lon="-3.35773">
        <ele>6</ele>
        <time>2020-08-21T09:17:56.000Z</time>
      </trkpt>
      <trkpt lat="47.7498" lon="-3.35773">
        <ele>6</ele>
        <time>2020-08-21T09:17:57.000Z</time>
      </trkpt>
      <trkpt lat="47.74979" lon="-3.35772">
        <ele>6</ele>
        <time>2020-08-21T09:17:58.000Z</time>
      </trkpt>
      <trkpt lat="47.74978" lon="-3.35772">
        <ele>6.1</ele>
        <time>2020-08-21T09:17:59.000Z</time>
      </trkpt>
      <trkpt lat="47.74977" lon="-3.35771">
        <ele>6.1</ele>
        <time>2020-08-21T09:18:00.000Z</time>
      </trkpt>
      <trkpt lat="47.74976" lon="-3.3577">
        <ele>6.1</ele>
        <time>2020-08-21T09:18:01.000Z</time>
      </trkpt>
      <trkpt lat="47.74975" lon="-3.3577">
        <ele>6.1</ele>
        <time>2020-08-21T09:18:02.000Z</time>
      </trkpt>
      <trkpt lat="47.74974" lon="-3.35769">
        <ele>6.1</ele>
        <time>2020-08-21T09:18:03.000Z</time>
      </trkpt>
      <trkpt lat="47.74973" lon="-3.35768">
        <ele>6.1</ele>
        <time>2020-08-21T09:18:04.000Z</time>
      </trkpt>
      <trkpt lat="47.74972" lon="-3.35768">
        <ele>6.1</ele>
        <time>2020-08-21T09:18:05.000Z</time>
      </trkpt>
      <trkpt lat="47.74971" lon="-3.35767">
        <ele>6.1</ele>
        <time>2020-08-21T09:18:06.000Z</time>
      </trkpt>
      <trkpt lat="47.7497" lon="-3.35766">
        <ele>6.1</ele>
        <time>2020-08-21T09:18:07.000Z</time>
      </trkpt>
      <trkpt lat="47.74968" lon="-3.35766">
        <ele>6.1</ele>
        <time>2020-08-21T09:18:08.000Z</time>
      </trkpt>
      <trkpt lat="47.74967" lon="-3.35765">
        <ele>6.1</ele>
        <time>2020-08-21T09:18:09.000Z</time>
      </trkpt>
      <trkpt lat="47.74966" lon="-3.35764">
        <ele>6.1</ele>
        <time>2020-08-21T09:18:10.000Z</time>
      </trkpt>
      <trkpt lat="47.74965" lon="-3.35763">
        <ele>6.2</ele>
        <time>2020-08-21T09:18:11.000Z</time>
      </trkpt>
      <trkpt lat="47.74964" lon="-3.35763">
        <ele>6.2</ele>
        <time>2020-08-21T09:18:12.000Z</time>
      </trkpt>
      <trkpt lat="47.74963" lon="-3.35762">
        <ele>6.2</ele>
        <time>2020-08-21T09:18:13.000Z</time>
      </trkpt>
      <trkpt lat="47.74962" lon="-3.35761">
        <ele>6.2</ele>
        <time>2020-08-21T09:18:14.000Z</time>
      </trkpt>
      <trkpt lat="47.74961" lon="-3.3576">
        <ele>6.2</ele>
        <time>2020-08-21T09:18:15.000Z</time>
      </trkpt>
      <trkpt lat="47.7496" lon="-3.3576">
        <ele>6.2</ele>
        <time>2020-08-21T09:18:16.000Z</time>
      </trkpt>
      <trkpt lat="47.74959" lon="-3.35759">
        <ele>6.2</ele>
        <time>2020-08-21T09:18:17.000Z</time>
      </trkpt>
      <trkpt lat="47.74958" lon="-3.35759">
        <ele>6.2</ele>
        <time>2020-08-21T09:18:18.000Z</time>
      </trkpt>
      <trkpt lat="47.74957" lon="-3.35758">
        <ele>6.2</ele>
        <time>2020-08-21T09:18:19.000Z</time>
      </trkpt>
      <trkpt lat="47.74956" lon="-3.35758">
        <ele>6.2</ele>
        <time>2020-08-21T09:18:20.000Z</time>
      </trkpt>
      <trkpt lat="47.74955" lon="-3.35757">
        <ele>6.3</ele>
        <time>2020-08-21T09:18:21.000Z</time>
      </trkpt>
      <trkpt lat="47.74954" lon="-3.35757">
        <ele>6.3</ele>
        <time>2020-08-21T09:18:22.000Z</time>
      </trkpt>
      <trkpt lat="47.74953" lon="-3.35756">
        <ele>6.3</ele>
        <time>2020-08-21T09:18:23.000Z</time>
      </trkpt>
      <trkpt lat="47.74953" lon="-3.35756">
        <ele>6.3</ele>
        <time>2020-08-21T09:18:24.000Z</time>
      </trkpt>
      <trkpt lat="47.74952" lon="-3.35756">
        <ele>6.3</ele>
        <time>2020-08-21T09:18:25.000Z</time>
      </trkpt>
      <trkpt lat="47.74951" lon="-3.35755">
        <ele>6.3</ele>
        <time>2020-08-21T09:18:26.000Z</time>
      </trkpt>
      <trkpt lat="47.7495" lon="-3.35754">
        <ele>6.3</ele>
        <time>2020-08-21T09:18:27.000Z</time>
      </trkpt>
      <trkpt lat="47.74949" lon="-3.35753">
        <ele>6.3</ele>
        <time>2020-08-21T09:18:28.000Z</time>
      </trkpt>
      <trkpt lat="47.74947" lon="-3.35752">
        <ele>6.3</ele>
        <time>2020-08-21T09:18:29.000Z</time>
      </trkpt>
      <trkpt lat="47.74945" lon="-3.35751">
        <ele>6.3</ele>
        <time>2020-08-21T09:18:30.000Z</time>
      </trkpt>
      <trkpt lat="47.74944" lon="-3.3575">
        <ele>6.4</ele>
        <time>2020-08-21T09:18:31.000Z</time>
      </trkpt>
      <trkpt lat="47.74942" lon="-3.35749">
        <ele>6.4</ele>
        <time>2020-08-21T09:18:32.000Z</time>
      </trkpt>
      <trkpt lat="47.74941" lon="-3.35748">
        <ele>6.4</ele>
        <time>2020-08-21T09:18:33.000Z</time>
      </trkpt>
      <trkpt lat="47.74939" lon="-3.35747">
        <ele>6.4</ele>
        <time>2020-08-21T09:18:34.000Z</time>
      </trkpt>
      <trkpt lat="47.74938" lon="-3.35746">
        <ele>6.4</ele>
        <time>2020-08-21T09:18:35.000Z</time>
      </trkpt>
      <trkpt lat="47.74937" lon="-3.35746">
        <ele>6.4</ele>
        <time>2020-08-21T09:18:36.000Z</time>
      </trkpt>
      <trkpt lat="47.74936" lon="-3.35745">
        <ele>6.4</ele>
        <time>2020-08-21T09:18:37.000Z</time>
      </trkpt>
      <trkpt lat="47.74936" lon="-3.35745">
        <ele>6.4</ele>
        <time>2020-08-21T09:18:38.000Z</time>
      </trkpt>
      <trkpt lat="47.74935" lon="-3.35744">
        <ele>6.5</ele>
        <time>2020-08-21T09:18:39.000Z</time>
      </trkpt>
      <trkpt lat="47.74934" lon="-3.35744">
        <ele>6.5</ele>
        <time>2020-08-21T09:18:40.000Z</time>
      </trkpt>
      <trkpt lat="47.74933" lon="-3.35743">
        <ele>6.5</ele>
        <time>2020-08-21T09:18:41.000Z</time>
      </trkpt>
      <trkpt lat="47.74932" lon="-3.35742">
        <ele>6.5</ele>
        <time>2020-08-21T09:18:42.000Z</time>
      </trkpt>
      <trkpt lat="47.74931" lon="-3.35742">
        <ele>6.5</ele>
        <time>2020-08-21T09:18:43.000Z</time>
      </trkpt>
      <trkpt lat="47.7493" lon="-3.35741">
        <ele>6.5</ele>
        <time>2020-08-21T09:18:44.000Z</time>
      </trkpt>
      <trkpt lat="47.74929" lon="-3.35741">
        <ele>6.5</ele>
        <time>2020-08-21T09:18:45.000Z</time>
      </trkpt>
      <trkpt lat="47.74928" lon="-3.3574">
        <ele>6.5</ele>
        <time>2020-08-21T09:18:46.000Z</time>
      </trkpt>
      <trkpt lat="47.74927" lon="-3.3574">
        <ele>6.5</ele>
        <time>2020-08-21T09:18:47.000Z</time>
      </trkpt>
      <trkpt lat="47.74926" lon="-3.35739">
        <ele>6.5</ele>
        <time>2020-08-21T09:18:48.000Z</time>
      </trkpt>
      <trkpt lat="47.74925" lon="-3.35738">
        <ele>6.5</ele>
        <time>2020-08-21T09:18:49.000Z</time>
      </trkpt>
      <trkpt lat="47.74924" lon="-3.35738">
        <ele>6.6</ele>
        <time>2020-08-21T09:18:50.000Z</time>
      </trkpt>
      <trkpt lat="47.74923" lon="-3.35737">
        <ele>6.6</ele>
        <time>2020-08-21T09:18:51.000Z</time>
      </trkpt>
      <trkpt lat="47.74922" lon="-3.35736">
        <ele>6.6</ele>
        <time>2020-08-21T09:18:52.000Z</time>
      </trkpt>
      <trkpt lat="47.74921" lon="-3.35736">
        <ele>6.6</ele>
        <time>2020-08-21T09:18:53.000Z</time>
      </trkpt>
      <trkpt lat="47.7492" lon="-3.35735">
        <ele>6.6</ele>
        <time>2020-08-21T09:18:54.000Z</time>
      </trkpt>
      <trkpt lat="47.74919" lon="-3.35734">
        <ele>6.6</ele>
        <time>2020-08-21T09:18:55.000Z</time>
      </trkpt>
      <trkpt lat="47.74918" lon="-3.35733">
        <ele>6.6</ele>
        <time>2020-08-21T09:18:56.000Z</time>
      </trkpt>
      <trkpt lat="47.74917" lon="-3.35732">
        <ele>6.6</ele>
        <time>2020-08-21T09:18:57.000Z</time>
      </trkpt>
      <trkpt lat="47.74916" lon="-3.35731">
        <ele>6.6</ele>
        <time>2020-08-21T09:18:58.000Z</time>
      </trkpt>
      <trkpt lat="47.74915" lon="-3.3573">
        <ele>6.7</ele>
        <time>2020-08-21T09:18:59.000Z</time>
      </trkpt>
      <trkpt lat="47.74914" lon="-3.35729">
        <ele>6.7</ele>
        <time>2020-08-21T09:19:00.000Z</time>
      </trkpt>
      <trkpt lat="47.74913" lon="-3.35728">
        <ele>6.7</ele>
        <time>2020-08-21T09:19:01.000Z</time>
      </trkpt>
      <trkpt lat="47.74912" lon="-3.35727">
        <ele>6.8</ele>
        <time>2020-08-21T09:19:02.000Z</time>
      </trkpt>
      <trkpt lat="47.74911" lon="-3.35725">
        <ele>6.8</ele>
        <time>2020-08-21T09:19:03.000Z</time>
      </trkpt>
      <trkpt lat="47.7491" lon="-3.35724">
        <ele>6.9</ele>
        <time>2020-08-21T09:19:04.000Z</time>
      </trkpt>
      <trkpt lat="47.74909" lon="-3.35723">
        <ele>6.9</ele>
        <time>2020-08-21T09:19:05.000Z</time>
      </trkpt>
      <trkpt lat="47.74908" lon="-3.35721">
        <ele>6.9</ele>
        <time>2020-08-21T09:19:06.000Z</time>
      </trkpt>
      <trkpt lat="47.74907" lon="-3.3572">
        <ele>6.9</ele>
        <time>2020-08-21T09:19:07.000Z</time>
      </trkpt>
      <trkpt lat="47.74906" lon="-3.35718">
        <ele>7</ele>
        <time>2020-08-21T09:19:08.000Z</time>
      </trkpt>
      <trkpt lat="47.74905" lon="-3.35717">
        <ele>7</ele>
        <time>2020-08-21T09:19:09.000Z</time>
      </trkpt>
      <trkpt lat="47.74904" lon="-3.35715">
        <ele>7</ele>
        <time>2020-08-21T09:19:10.000Z</time>
      </trkpt>
      <trkpt lat="47.74903" lon="-3.35713">
        <ele>7</ele>
        <time>2020-08-21T09:19:11.000Z</time>
      </trkpt>
      <trkpt lat="47.74902" lon="-3.35711">
        <ele>7</ele>
        <time>2020-08-21T09:19:12.000Z</time>
      </trkpt>
      <trkpt lat="47.74901" lon="-3.3571">
        <ele>7</ele>
        <time>2020-08-21T09:19:13.000Z</time>
      </trkpt>
      <trkpt lat="47.749" lon="-3.35708">
        <ele>7.1</ele>
        <time>2020-08-21T09:19:14.000Z</time>
      </trkpt>
      <trkpt lat="47.74899" lon="-3.35706">
        <ele>7.1</ele>
        <time>2020-08-21T09:19:15.000Z</time>
      </trkpt>
      <trkpt lat="47.74898" lon="-3.35704">
        <ele>7.1</ele>
        <time>2020-08-21T09:19:16.000Z</time>
      </trkpt>
      <trkpt lat="47.74897" lon="-3.35702">
        <ele>7.1</ele>
        <time>2020-08-21T09:19:17.000Z</time>
      </trkpt>
      <trkpt lat="47.74896" lon="-3.35701">
        <ele>7.1</ele>
        <time>2020-08-21T09:19:18.000Z</time>
      </trkpt>
      <trkpt lat="47.74895" lon="-3.35699">
        <ele>7.2</ele>
        <time>2020-08-21T09:19:19.000Z</time>
      </trkpt>
      <trkpt lat="47.74894" lon="-3.35697">
        <ele>7.2</ele>
        <time>2020-08-21T09:19:20.000Z</time>
      </trkpt>
      <trkpt lat="47.74893" lon="-3.35696">
        <ele>7.2</ele>
        <time>2020-08-21T09:19:21.000Z</time>
      </trkpt>
      <trkpt lat="47.74892" lon="-3.35695">
        <ele>7.3</ele>
        <time>2020-08-21T09:19:22.000Z</time>
      </trkpt>
      <trkpt lat="47.7489" lon="-3.35694">
        <ele>7.3</ele>
        <time>2020-08-21T09:19:23.000Z</time>
      </trkpt>
      <trkpt lat="47.74889" lon="-3.35693">
        <ele>7.4</ele>
        <time>2020-08-21T09:19:24.000Z</time>
      </trkpt>
      <trkpt lat="47.74888" lon="-3.35692">
        <ele>7.5</ele>
        <time>2020-08-21T09:19:25.000Z</time>
      </trkpt>
      <trkpt lat="47.74886" lon="-3.35691">
        <ele>7.5</ele>
        <time>2020-08-21T09:19:26.000Z</time>
      </trkpt>
      <trkpt lat="47.74885" lon="-3.35691">
        <ele>7.6</ele>
        <time>2020-08-21T09:19:27.000Z</time>
      </trkpt>
      <trkpt lat="47.74883" lon="-3.3569">
        <ele>7.7</ele>
        <time>2020-08-21T09:19:28.000Z</time>
      </trkpt>
      <trkpt lat="47.74882" lon="-3.3569">
        <ele>7.8</ele>
        <time>2020-08-21T09:19:29.000Z</time>
      </trkpt>
      <trkpt lat="47.74881" lon="-3.35689">
        <ele>7.8</ele>
        <time>2020-08-21T09:19:30.000Z</time>
      </trkpt>
      <trkpt lat="47.74879" lon="-3.35689">
        <ele>7.9</ele>
        <time>2020-08-21T09:19:31.000Z</time>
      </trkpt>
      <trkpt lat="47.74878" lon="-3.35688">
        <ele>7.9</ele>
        <time>2020-08-21T09:19:32.000Z</time>
      </trkpt>
      <trkpt lat="47.74877" lon="-3.35687">
        <ele>8</ele>
        <time>2020-08-21T09:19:33.000Z</time>
      </trkpt>
      <trkpt lat="47.74876" lon="-3.35687">
        <ele>8.1</ele>
        <time>2020-08-21T09:19:34.000Z</time>
      </trkpt>
      <trkpt lat="47.74874" lon="-3.35686">
        <ele>8.1</ele>
        <time>2020-08-21T09:19:35.000Z</time>
      </trkpt>
      <trkpt lat="47.74873" lon="-3.35685">
        <ele>8.2</ele>
        <time>2020-08-21T09:19:36.000Z</time>
      </trkpt>
      <trkpt lat="47.74872" lon="-3.35684">
        <ele>8.2</ele>
        <time>2020-08-21T09:19:37.000Z</time>
      </trkpt>
      <trkpt lat="47.74871" lon="-3.35683">
        <ele>8.2</ele>
        <time>2020-08-21T09:19:38.000Z</time>
      </trkpt>
      <trkpt lat="47.7487" lon="-3.35682">
        <ele>8.3</ele>
        <time>2020-08-21T09:19:39.000Z</time>
      </trkpt>
      <trkpt lat="47.74869" lon="-3.35681">
        <ele>8.3</ele>
        <time>2020-08-21T09:19:40.000Z</time>
      </trkpt>
      <trkpt lat="47.74868" lon="-3.3568">
        <ele>8.3</ele>
        <time>2020-08-21T09:19:41.000Z</time>
      </trkpt>
      <trkpt lat="47.74867" lon="-3.35679">
        <ele>8.4</ele>
        <time>2020-08-21T09:19:42.000Z</time>
      </trkpt>
      <trkpt lat="47.74866" lon="-3.35678">
        <ele>8.4</ele>
        <time>2020-08-21T09:19:43.000Z</time>
      </trkpt>
      <trkpt lat="47.74865" lon="-3.35677">
        <ele>8.4</ele>
        <time>2020-08-21T09:19:44.000Z</time>
      </trkpt>
      <trkpt lat="47.74864" lon="-3.35676">
        <ele>8.5</ele>
        <time>2020-08-21T09:19:45.000Z</time>
      </trkpt>
      <trkpt lat="47.74863" lon="-3.35676">
        <ele>8.5</ele>
        <time>2020-08-21T09:19:46.000Z</time>
      </trkpt>
      <trkpt lat="47.74862" lon="-3.35675">
        <ele>8.6</ele>
        <time>2020-08-21T09:19:47.000Z</time>
      </trkpt>
      <trkpt lat="47.7486" lon="-3.35675">
        <ele>8.6</ele>
        <time>2020-08-21T09:19:48.000Z</time>
      </trkpt>
      <trkpt lat="47.74859" lon="-3.35674">
        <ele>8.7</ele>
        <time>2020-08-21T09:19:49.000Z</time>
      </trkpt>
      <trkpt lat="47.74858" lon="-3.35674">
        <ele>8.7</ele>
        <time>2020-08-21T09:19:50.000Z</time>
      </trkpt>
      <trkpt lat="47.74857" lon="-3.35673">
        <ele>8.8</ele>
        <time>2020-08-21T09:19:51.000Z</time>
      </trkpt>
      <trkpt lat="47.74856" lon="-3.35673">
        <ele>8.9</ele>
        <time>2020-08-21T09:19:52.000Z</time>
      </trkpt>
      <trkpt lat="47.74855" lon="-3.35672">
        <ele>8.9</ele>
        <time>2020-08-21T09:19:53.000Z</time>
      </trkpt>
      <trkpt lat="47.74853" lon="-3.35672">
        <ele>9</ele>
        <time>2020-08-21T09:19:54.000Z</time>
      </trkpt>
      <trkpt lat="47.74852" lon="-3.35671">
        <ele>9</ele>
        <time>2020-08-21T09:19:55.000Z</time>
      </trkpt>
      <trkpt lat="47.74851" lon="-3.35671">
        <ele>9.1</ele>
        <time>2020-08-21T09:19:56.000Z</time>
      </trkpt>
      <trkpt lat="47.7485" lon="-3.3567">
        <ele>9.1</ele>
        <time>2020-08-21T09:19:57.000Z</time>
      </trkpt>
      <trkpt lat="47.74849" lon="-3.3567">
        <ele>9.2</ele>
        <time>2020-08-21T09:19:58.000Z</time>
      </trkpt>
      <trkpt lat="47.74847" lon="-3.35669">
        <ele>9.2</ele>
        <time>2020-08-21T09:19:59.000Z</time>
      </trkpt>
      <trkpt lat="47.74846" lon="-3.35668">
        <ele>9.3</ele>
        <time>2020-08-21T09:20:00.000Z</time>
      </trkpt>
      <trkpt lat="47.74845" lon="-3.35667">
        <ele>9.3</ele>
        <time>2020-08-21T09:20:01.000Z</time>
      </trkpt>
      <trkpt lat="47.74844" lon="-3.35667">
        <ele>9.4</ele>
        <time>2020-08-21T09:20:02.000Z</time>
      </trkpt>
      <trkpt lat="47.74843" lon="-3.35666">
        <ele>9.4</ele>
        <time>2020-08-21T09:20:03.000Z</time>
      </trkpt>
      <trkpt lat="47.74842" lon="-3.35665">
        <ele>9.5</ele>
        <time>2020-08-21T09:20:04.000Z</time>
      </trkpt>
      <trkpt lat="47.74841" lon="-3.35664">
        <ele>9.5</ele>
        <time>2020-08-21T09:20:05.000Z</time>
      </trkpt>
      <trkpt lat="47.74839" lon="-3.35664">
        <ele>9.6</ele>
        <time>2020-08-21T09:20:06.000Z</time>
      </trkpt>
      <trkpt lat="47.74838" lon="-3.35663">
        <ele>9.7</ele>
        <time>2020-08-21T09:20:07.000Z</time>
      </trkpt>
      <trkpt lat="47.74837" lon="-3.35662">
        <ele>9.7</ele>
        <time>2020-08-21T09:20:08.000Z</time>
      </trkpt>
      <trkpt lat="47.74836" lon="-3.35661">
        <ele>9.8</ele>
        <time>2020-08-21T09:20:09.000Z</time>
      </trkpt>
      <trkpt lat="47.74835" lon="-3.35661">
        <ele>9.8</ele>
        <time>2020-08-21T09:20:10.000Z</time>
      </trkpt>
      <trkpt lat="47.74834" lon="-3.3566">
        <ele>9.9</ele>
        <time>2020-08-21T09:20:11.000Z</time>
      </trkpt>
      <trkpt lat="47.74833" lon="-3.35659">
        <ele>10</ele>
        <time>2020-08-21T09:20:12.000Z</time>
      </trkpt>
      <trkpt lat="47.74831" lon="-3.35659">
        <ele>10</ele>
        <time>2020-08-21T09:20:13.000Z</time>
      </trkpt>
      <trkpt lat="47.7483" lon="-3.35658">
        <ele>10.1</ele>
        <time>2020-08-21T09:20:14.000Z</time>
      </trkpt>
      <trkpt lat="47.74829" lon="-3.35658">
        <ele>10.1</ele>
        <time>2020-08-21T09:20:15.000Z</time>
      </trkpt>
      <trkpt lat="47.74828" lon="-3.35658">
        <ele>10.2</ele>
        <time>2020-08-21T09:20:16.000Z</time>
      </trkpt>
      <trkpt lat="47.74828" lon="-3.35658">
        <ele>10.2</ele>
        <time>2020-08-21T09:20:17.000Z</time>
      </trkpt>
      <trkpt lat="47.74827" lon="-3.35658">
        <ele>10.3</ele>
        <time>2020-08-21T09:20:18.000Z</time>
      </trkpt>
      <trkpt lat="47.74826" lon="-3.35658">
        <ele>10.3</ele>
        <time>2020-08-21T09:20:19.000Z</time>
      </trkpt>
      <trkpt lat="47.74825" lon="-3.35658">
        <ele>10.4</ele>
        <time>2020-08-21T09:20:20.000Z</time>
      </trkpt>
      <trkpt lat="47.74824" lon="-3.35658">
        <ele>10.4</ele>
        <time>2020-08-21T09:20:21.000Z</time>
      </trkpt>
      <trkpt lat="47.74824" lon="-3.35658">
        <ele>10.5</ele>
        <time>2020-08-21T09:20:22.000Z</time>
      </trkpt>
      <trkpt lat="47.74822" lon="-3.35657">
        <ele>10.5</ele>
        <time>2020-08-21T09:20:23.000Z</time>
      </trkpt>
      <trkpt lat="47.74821" lon="-3.35657">
        <ele>10.6</ele>
        <time>2020-08-21T09:20:24.000Z</time>
      </trkpt>
      <trkpt lat="47.7482" lon="-3.35656">
        <ele>10.7</ele>
        <time>2020-08-21T09:20:25.000Z</time>
      </trkpt>
      <trkpt lat="47.74818" lon="-3.35655">
        <ele>10.8</ele>
        <time>2020-08-21T09:20:26.000Z</time>
      </trkpt>
      <trkpt lat="47.74816" lon="-3.35654">
        <ele>10.9</ele>
        <time>2020-08-21T09:20:27.000Z</time>
      </trkpt>
      <trkpt lat="47.74814" lon="-3.35653">
        <ele>11</ele>
        <time>2020-08-21T09:20:28.000Z</time>
      </trkpt>
      <trkpt lat="47.74813" lon="-3.35652">
        <ele>11.1</ele>
        <time>2020-08-21T09:20:29.000Z</time>
      </trkpt>
      <trkpt lat="47.74812" lon="-3.35651">
        <ele>11.1</ele>
        <time>2020-08-21T09:20:30.000Z</time>
      </trkpt>
      <trkpt lat="47.7481" lon="-3.35651">
        <ele>11.2</ele>
        <time>2020-08-21T09:20:31.000Z</time>
      </trkpt>
      <trkpt lat="47.74809" lon="-3.3565">
        <ele>11.2</ele>
        <time>2020-08-21T09:20:32.000Z</time>
      </trkpt>
      <trkpt lat="47.74808" lon="-3.35649">
        <ele>11.3</ele>
        <time>2020-08-21T09:20:33.000Z</time>
      </trkpt>
      <trkpt lat="47.74807" lon="-3.35649">
        <ele>11.4</ele>
        <time>2020-08-21T09:20:34.000Z</time>
      </trkpt>
      <trkpt lat="47.74806" lon="-3.35648">
        <ele>11.4</ele>
        <time>2020-08-21T09:20:35.000Z</time>
      </trkpt>
      <trkpt lat="47.74805" lon="-3.35647">
        <ele>11.4</ele>
        <time>2020-08-21T09:20:36.000Z</time>
      </trkpt>
      <trkpt lat="47.74804" lon="-3.35646">
        <ele>11.5</ele>
        <time>2020-08-21T09:20:37.000Z</time>
      </trkpt>
      <trkpt lat="47.74803" lon="-3.35645">
        <ele>11.5</ele>
        <time>2020-08-21T09:20:38.000Z</time>
      </trkpt>
      <trkpt lat="47.74802" lon="-3.35644">
        <ele>11.6</ele>
        <time>2020-08-21T09:20:39.000Z</time>
      </trkpt>
      <trkpt lat="47.74801" lon="-3.35643">
        <ele>11.6</ele>
        <time>2020-08-21T09:20:40.000Z</time>
      </trkpt>
      <trkpt lat="47.748" lon="-3.35641">
        <ele>11.7</ele>
        <time>2020-08-21T09:20:41.000Z</time>
      </trkpt>
      <trkpt lat="47.74799" lon="-3.3564">
        <ele>11.8</ele>
        <time>2020-08-21T09:20:42.000Z</time>
      </trkpt>
      <trkpt lat="47.74798" lon="-3.35639">
        <ele>11.8</ele>
        <time>2020-08-21T09:20:43.000Z</time>
      </trkpt>
      <trkpt lat="47.74796" lon="-3.35638">
        <ele>11.9</ele>
        <time>2020-08-21T09:20:44.000Z</time>
      </trkpt>
      <trkpt lat="47.74795" lon="-3.35637">
        <ele>11.9</ele>
        <time>2020-08-21T09:20:45.000Z</time>
      </trkpt>
      <trkpt lat="47.74794" lon="-3.35636">
        <ele>12</ele>
        <time>2020-08-21T09:20:46.000Z</time>
      </trkpt>
      <trkpt lat="47.74793" lon="-3.35636">
        <ele>12.1</ele>
        <time>2020-08-21T09:20:47.000Z</time>
      </trkpt>
      <trkpt lat="47.74791" lon="-3.35635">
        <ele>12.2</ele>
        <time>2020-08-21T09:20:48.000Z</time>
      </trkpt>
      <trkpt lat="47.74789" lon="-3.35635">
        <ele>12.3</ele>
        <time>2020-08-21T09:20:49.000Z</time>
      </trkpt>
      <trkpt lat="47.74788" lon="-3.35635">
        <ele>12.3</ele>
        <time>2020-08-21T09:20:50.000Z</time>
      </trkpt>
      <trkpt lat="47.74787" lon="-3.35635">
        <ele>12.4</ele>
        <time>2020-08-21T09:20:51.000Z</time>
      </trkpt>
      <trkpt lat="47.74786" lon="-3.35635">
        <ele>12.5</ele>
        <time>2020-08-21T09:20:52.000Z</time>
      </trkpt>
      <trkpt lat="47.74785" lon="-3.35634">
        <ele>12.5</ele>
        <time>2020-08-21T09:20:53.000Z</time>
      </trkpt>
      <trkpt lat="47.74784" lon="-3.35634">
        <ele>12.6</ele>
        <time>2020-08-21T09:20:54.000Z</time>
      </trkpt>
      <trkpt lat="47.74783" lon="-3.35634">
        <ele>12.6</ele>
        <time>2020-08-21T09:20:55.000Z</time>
      </trkpt>
      <trkpt lat="47.74782" lon="-3.35633">
        <ele>12.7</ele>
        <time>2020-08-21T09:20:56.000Z</time>
      </trkpt>
      <trkpt lat="47.74781" lon="-3.35632">
        <ele>12.7</ele>
        <time>2020-08-21T09:20:57.000Z</time>
      </trkpt>
      <trkpt lat="47.7478" lon="-3.35631">
        <ele>12.8</ele>
        <time>2020-08-21T09:20:58.000Z</time>
      </trkpt>
      <trkpt lat="47.74779" lon="-3.3563">
        <ele>12.8</ele>
        <time>2020-08-21T09:20:59.000Z</time>
      </trkpt>
      <trkpt lat="47.74778" lon="-3.35629">
        <ele>12.9</ele>
        <time>2020-08-21T09:21:00.000Z</time>
      </trkpt>
      <trkpt lat="47.74777" lon="-3.35628">
        <ele>12.9</ele>
        <time>2020-08-21T09:21:01.000Z</time>
      </trkpt>
      <trkpt lat="47.74776" lon="-3.35627">
        <ele>13</ele>
        <time>2020-08-21T09:21:02.000Z</time>
      </trkpt>
      <trkpt lat="47.74775" lon="-3.35626">
        <ele>13</ele>
        <time>2020-08-21T09:21:03.000Z</time>
      </trkpt>
      <trkpt lat="47.74774" lon="-3.35624">
        <ele>13.1</ele>
        <time>2020-08-21T09:21:04.000Z</time>
      </trkpt>
      <trkpt lat="47.74773" lon="-3.35623">
        <ele>13.1</ele>
        <time>2020-08-21T09:21:05.000Z</time>
      </trkpt>
      <trkpt lat="47.74772" lon="-3.35622">
        <ele>13.2</ele>
        <time>2020-08-21T09:21:06.000Z</time>
      </trkpt>
      <trkpt lat="47.7477" lon="-3.35621">
        <ele>13.2</ele>
        <time>2020-08-21T09:21:07.000Z</time>
      </trkpt>
      <trkpt lat="47.74769" lon="-3.3562">
        <ele>13.3</ele>
        <time>2020-08-21T09:21:08.000Z</time>
      </trkpt>
      <trkpt lat="47.74768" lon="-3.35619">
        <ele>13.3</ele>
        <time>2020-08-21T09:21:09.000Z</time>
      </trkpt>
      <trkpt lat="47.74767" lon="-3.35618">
        <ele>13.4</ele>
        <time>2020-08-21T09:21:10.000Z</time>
      </trkpt>
      <trkpt lat="47.74766" lon="-3.35616">
        <ele>13.5</ele>
        <time>2020-08-21T09:21:11.000Z</time>
      </trkpt>
      <trkpt lat="47.74764" lon="-3.35615">
        <ele>13.5</ele>
        <time>2020-08-21T09:21:12.000Z</time>
      </trkpt>
      <trkpt lat="47.74763" lon="-3.35614">
        <ele>13.6</ele>
        <time>2020-08-21T09:21:13.000Z</time>
      </trkpt>
      <trkpt lat="47.74762" lon="-3.35613">
        <ele>13.7</ele>
        <time>2020-08-21T09:21:14.000Z</time>
      </trkpt>
      <trkpt lat="47.7476" lon="-3.35612">
        <ele>13.7</ele>
        <time>2020-08-21T09:21:15.000Z</time>
      </trkpt>
      <trkpt lat="47.74759" lon="-3.35611">
        <ele>13.8</ele>
        <time>2020-08-21T09:21:16.000Z</time>
      </trkpt>
      <trkpt lat="47.74758" lon="-3.3561">
        <ele>13.9</ele>
        <time>2020-08-21T09:21:17.000Z</time>
      </trkpt>
      <trkpt lat="47.74757" lon="-3.3561">
        <ele>13.9</ele>
        <time>2020-08-21T09:21:18.000Z</time>
      </trkpt>
      <trkpt lat="47.74756" lon="-3.35609">
        <ele>14</ele>
        <time>2020-08-21T09:21:19.000Z</time>
      </trkpt>
      <trkpt lat="47.74754" lon="-3.35608">
        <ele>14</ele>
        <time>2020-08-21T09:21:20.000Z</time>
      </trkpt>
      <trkpt lat="47.74753" lon="-3.35607">
        <ele>14.1</ele>
        <time>2020-08-21T09:21:21.000Z</time>
      </trkpt>
      <trkpt lat="47.74752" lon="-3.35606">
        <ele>14.2</ele>
        <time>2020-08-21T09:21:22.000Z</time>
      </trkpt>
      <trkpt lat="47.74751" lon="-3.35605">
        <ele>14.2</ele>
        <time>2020-08-21T09:21:23.000Z</time>
      </trkpt>
      <trkpt lat="47.7475" lon="-3.35604">
        <ele>14.3</ele>
        <time>2020-08-21T09:21:24.000Z</time>
      </trkpt>
      <trkpt lat="47.74749" lon="-3.35603">
        <ele>14.2</ele>
        <time>2020-08-21T09:21:25.000Z</time>
      </trkpt>
      <trkpt lat="47.74747" lon="-3.35602">
        <ele>14.2</ele>
        <time>2020-08-21T09:21:26.000Z</time>
      </trkpt>
      <trkpt lat="47.74746" lon="-3.35601">
        <ele>14.2</ele>
        <time>2020-08-21T09:21:27.000Z</time>
      </trkpt>
      <trkpt lat="47.74745" lon="-3.356">
        <ele>14.2</ele>
        <time>2020-08-21T09:21:28.000Z</time>
      </trkpt>
      <trkpt lat="47.74744" lon="-3.35599">
        <ele>14.2</ele>
        <time>2020-08-21T09:21:29.000Z</time>
      </trkpt>
      <trkpt lat="47.74743" lon="-3.35599">
        <ele>14.2</ele>
        <time>2020-08-21T09:21:30.000Z</time>
      </trkpt>
      <trkpt lat="47.74742" lon="-3.35598">
        <ele>14.2</ele>
        <time>2020-08-21T09:21:31.000Z</time>
      </trkpt>
      <trkpt lat="47.74741" lon="-3.35597">
        <ele>14.2</ele>
        <time>2020-08-21T09:21:32.000Z</time>
      </trkpt>
      <trkpt lat="47.7474" lon="-3.35596">
        <ele>14.2</ele>
        <time>2020-08-21T09:21:33.000Z</time>
      </trkpt>
      <trkpt lat="47.74739" lon="-3.35595">
        <ele>14.2</ele>
        <time>2020-08-21T09:21:34.000Z</time>
      </trkpt>
      <trkpt lat="47.74738" lon="-3.35594">
        <ele>14.2</ele>
        <time>2020-08-21T09:21:35.000Z</time>
      </trkpt>
      <trkpt lat="47.74737" lon="-3.35593">
        <ele>14.2</ele>
        <time>2020-08-21T09:21:36.000Z</time>
      </trkpt>
      <trkpt lat="47.74736" lon="-3.35592">
        <ele>14.1</ele>
        <time>2020-08-21T09:21:37.000Z</time>
      </trkpt>
      <trkpt lat="47.74735" lon="-3.35592">
        <ele>14.1</ele>
        <time>2020-08-21T09:21:38.000Z</time>
      </trkpt>
      <trkpt lat="47.74733" lon="-3.35591">
        <ele>14.1</ele>
        <time>2020-08-21T09:21:39.000Z</time>
      </trkpt>
      <trkpt lat="47.74732" lon="-3.3559">
        <ele>14.1</ele>
        <time>2020-08-21T09:21:40.000Z</time>
      </trkpt>
      <trkpt lat="47.74731" lon="-3.35589">
        <ele>14.1</ele>
        <time>2020-08-21T09:21:41.000Z</time>
      </trkpt>
      <trkpt lat="47.7473" lon="-3.35589">
        <ele>14.1</ele>
        <time>2020-08-21T09:21:42.000Z</time>
      </trkpt>
      <trkpt lat="47.74729" lon="-3.35588">
        <ele>14.1</ele>
        <time>2020-08-21T09:21:43.000Z</time>
      </trkpt>
      <trkpt lat="47.74728" lon="-3.35587">
        <ele>14.1</ele>
        <time>2020-08-21T09:21:44.000Z</time>
      </trkpt>
      <trkpt lat="47.74727" lon="-3.35586">
        <ele>14</ele>
        <time>2020-08-21T09:21:45.000Z</time>
      </trkpt>
      <trkpt lat="47.74725" lon="-3.35585">
        <ele>14</ele>
        <time>2020-08-21T09:21:46.000Z</time>
      </trkpt>
      <trkpt lat="47.74724" lon="-3.35584">
        <ele>14</ele>
        <time>2020-08-21T09:21:47.000Z</time>
      </trkpt>
      <trkpt lat="47.74723" lon="-3.35583">
        <ele>14</ele>
        <time>2020-08-21T09:21:48.000Z</time>
      </trkpt>
      <trkpt lat="47.74722" lon="-3.35582">
        <ele>13.9</ele>
        <time>2020-08-21T09:21:49.000Z</time>
      </trkpt>
      <trkpt lat="47.74721" lon="-3.35581">
        <ele>13.9</ele>
        <time>2020-08-21T09:21:50.000Z</time>
      </trkpt>
      <trkpt lat="47.74719" lon="-3.3558">
        <ele>13.8</ele>
        <time>2020-08-21T09:21:51.000Z</time>
      </trkpt>
      <trkpt lat="47.74718" lon="-3.35579">
        <ele>13.8</ele>
        <time>2020-08-21T09:21:52.000Z</time>
      </trkpt>
      <trkpt lat="47.74717" lon="-3.35578">
        <ele>13.7</ele>
        <time>2020-08-21T09:21:53.000Z</time>
      </trkpt>
      <trkpt lat="47.74716" lon="-3.35577">
        <ele>13.7</ele>
        <time>2020-08-21T09:21:54.000Z</time>
      </trkpt>
      <trkpt lat="47.74715" lon="-3.35576">
        <ele>13.7</ele>
        <time>2020-08-21T09:21:55.000Z</time>
      </trkpt>
      <trkpt lat="47.74714" lon="-3.35575">
        <ele>13.6</ele>
        <time>2020-08-21T09:21:56.000Z</time>
      </trkpt>
      <trkpt lat="47.74712" lon="-3.35574">
        <ele>13.6</ele>
        <time>2020-08-21T09:21:57.000Z</time>
      </trkpt>
      <trkpt lat="47.74711" lon="-3.35573">
        <ele>13.6</ele>
        <time>2020-08-21T09:21:58.000Z</time>
      </trkpt>
      <trkpt lat="47.7471" lon="-3.35573">
        <ele>13.6</ele>
        <time>2020-08-21T09:21:59.000Z</time>
      </trkpt>
      <trkpt lat="47.74709" lon="-3.35572">
        <ele>13.5</ele>
        <time>2020-08-21T09:22:00.000Z</time>
      </trkpt>
      <trkpt lat="47.74707" lon="-3.35572">
        <ele>13.5</ele>
        <time>2020-08-21T09:22:01.000Z</time>
      </trkpt>
      <trkpt lat="47.74706" lon="-3.35572">
        <ele>13.5</ele>
        <time>2020-08-21T09:22:02.000Z</time>
      </trkpt>
      <trkpt lat="47.74705" lon="-3.35571">
        <ele>13.5</ele>
        <time>2020-08-21T09:22:03.000Z</time>
      </trkpt>
      <trkpt lat="47.74703" lon="-3.35571">
        <ele>13.5</ele>
        <time>2020-08-21T09:22:04.000Z</time>
      </trkpt>
      <trkpt lat="47.74702" lon="-3.35571">
        <ele>13.5</ele>
        <time>2020-08-21T09:22:05.000Z</time>
      </trkpt>
      <trkpt lat="47.74701" lon="-3.35571">
        <ele>13.5</ele>
        <time>2020-08-21T09:22:06.000Z</time>
      </trkpt>
      <trkpt lat="47.74699" lon="-3.35571">
        <ele>13.5</ele>
        <time>2020-08-21T09:22:07.000Z</time>
      </trkpt>
      <trkpt lat="47.74698" lon="-3.35571">
        <ele>13.5</ele>
        <time>2020-08-21T09:22:08.000Z</time>
      </trkpt>
      <trkpt lat="47.74697" lon="-3.35571">
        <ele>13.5</ele>
        <time>2020-08-21T09:22:09.000Z</time>
      </trkpt>
      <trkpt lat="47.74695" lon="-3.3557">
        <ele>13.5</ele>
        <time>2020-08-21T09:22:10.000Z</time>
      </trkpt>
      <trkpt lat="47.74694" lon="-3.3557">
        <ele>13.5</ele>
        <time>2020-08-21T09:22:11.000Z</time>
      </trkpt>
      <trkpt lat="47.74693" lon="-3.3557">
        <ele>13.5</ele>
        <time>2020-08-21T09:22:12.000Z</time>
      </trkpt>
      <trkpt lat="47.74691" lon="-3.3557">
        <ele>13.5</ele>
        <time>2020-08-21T09:22:13.000Z</time>
      </trkpt>
      <trkpt lat="47.7469" lon="-3.3557">
        <ele>13.5</ele>
        <time>2020-08-21T09:22:14.000Z</time>
      </trkpt>
      <trkpt lat="47.74689" lon="-3.3557">
        <ele>13.5</ele>
        <time>2020-08-21T09:22:15.000Z</time>
      </trkpt>
      <trkpt lat="47.74687" lon="-3.3557">
        <ele>13.5</ele>
        <time>2020-08-21T09:22:16.000Z</time>
      </trkpt>
      <trkpt lat="47.74686" lon="-3.3557">
        <ele>13.5</ele>
        <time>2020-08-21T09:22:17.000Z</time>
      </trkpt>
      <trkpt lat="47.74685" lon="-3.3557">
        <ele>13.5</ele>
        <time>2020-08-21T09:22:18.000Z</time>
      </trkpt>
      <trkpt lat="47.74683" lon="-3.3557">
        <ele>13.5</ele>
        <time>2020-08-21T09:22:19.000Z</time>
      </trkpt>
      <trkpt lat="47.74682" lon="-3.35571">
        <ele>13.5</ele>
        <time>2020-08-21T09:22:20.000Z</time>
      </trkpt>
      <trkpt lat="47.74681" lon="-3.35571">
        <ele>13.5</ele>
        <time>2020-08-21T09:22:21.000Z</time>
      </trkpt>
      <trkpt lat="47.7468" lon="-3.35572">
        <ele>13.6</ele>
        <time>2020-08-21T09:22:22.000Z</time>
      </trkpt>
      <trkpt lat="47.74679" lon="-3.35572">
        <ele>13.6</ele>
        <time>2020-08-21T09:22:23.000Z</time>
      </trkpt>
      <trkpt lat="47.74678" lon="-3.35573">
        <ele>13.6</ele>
        <time>2020-08-21T09:22:24.000Z</time>
      </trkpt>
      <trkpt lat="47.74678" lon="-3.35573">
        <ele>13.6</ele>
        <time>2020-08-21T09:22:25.000Z</time>
      </trkpt>
      <trkpt lat="47.74677" lon="-3.35574">
        <ele>13.6</ele>
        <time>2020-08-21T09:22:26.000Z</time>
      </trkpt>
      <trkpt lat="47.74677" lon="-3.35574">
        <ele>13.7</ele>
        <time>2020-08-21T09:22:27.000Z</time>
      </trkpt>
      <trkpt lat="47.74676" lon="-3.35575">
        <ele>13.7</ele>
        <time>2020-08-21T09:22:28.000Z</time>
      </trkpt>
      <trkpt lat="47.74675" lon="-3.35576">
        <ele>13.7</ele>
        <time>2020-08-21T09:22:29.000Z</time>
      </trkpt>
      <trkpt lat="47.74674" lon="-3.35576">
        <ele>13.7</ele>
        <time>2020-08-21T09:22:30.000Z</time>
      </trkpt>
      <trkpt lat="47.74674" lon="-3.35576">
        <ele>13.7</ele>
        <time>2020-08-21T09:22:31.000Z</time>
      </trkpt>
      <trkpt lat="47.74674" lon="-3.35576">
        <ele>13.7</ele>
        <time>2020-08-21T09:22:32.000Z</time>
      </trkpt>
      <trkpt lat="47.74674" lon="-3.35577">
        <ele>13.8</ele>
        <time>2020-08-21T09:22:33.000Z</time>
      </trkpt>
      <trkpt lat="47.74673" lon="-3.35577">
        <ele>13.8</ele>
        <time>2020-08-21T09:22:34.000Z</time>
      </trkpt>
      <trkpt lat="47.74672" lon="-3.35578">
        <ele>13.8</ele>
        <time>2020-08-21T09:22:35.000Z</time>
      </trkpt>
      <trkpt lat="47.74672" lon="-3.35578">
        <ele>13.8</ele>
        <time>2020-08-21T09:22:36.000Z</time>
      </trkpt>
      <trkpt lat="47.74671" lon="-3.35579">
        <ele>13.8</ele>
        <time>2020-08-21T09:22:37.000Z</time>
      </trkpt>
      <trkpt lat="47.74671" lon="-3.35579">
        <ele>13.8</ele>
        <time>2020-08-21T09:22:38.000Z</time>
      </trkpt>
      <trkpt lat="47.7467" lon="-3.3558">
        <ele>13.9</ele>
        <time>2020-08-21T09:22:39.000Z</time>
      </trkpt>
      <trkpt lat="47.74669" lon="-3.35581">
        <ele>13.9</ele>
        <time>2020-08-21T09:22:40.000Z</time>
      </trkpt>
      <trkpt lat="47.74667" lon="-3.35582">
        <ele>14</ele>
        <time>2020-08-21T09:22:41.000Z</time>
      </trkpt>
      <trkpt lat="47.74665" lon="-3.35584">
        <ele>14</ele>
        <time>2020-08-21T09:22:42.000Z</time>
      </trkpt>
      <trkpt lat="47.74664" lon="-3.35586">
        <ele>14</ele>
        <time>2020-08-21T09:22:43.000Z</time>
      </trkpt>
      <trkpt lat="47.74662" lon="-3.35588">
        <ele>14</ele>
        <time>2020-08-21T09:22:44.000Z</time>
      </trkpt>
      <trkpt lat="47.7466" lon="-3.35589">
        <ele>14.1</ele>
        <time>2020-08-21T09:22:45.000Z</time>
      </trkpt>
      <trkpt lat="47.74658" lon="-3.35591">
        <ele>14.1</ele>
        <time>2020-08-21T09:22:46.000Z</time>
      </trkpt>
      <trkpt lat="47.74657" lon="-3.35593">
        <ele>14.1</ele>
        <time>2020-08-21T09:22:47.000Z</time>
      </trkpt>
      <trkpt lat="47.74655" lon="-3.35595">
        <ele>14.2</ele>
        <time>2020-08-21T09:22:48.000Z</time>
      </trkpt>
      <trkpt lat="47.74654" lon="-3.35597">
        <ele>14.2</ele>
        <time>2020-08-21T09:22:49.000Z</time>
      </trkpt>
      <trkpt lat="47.74653" lon="-3.35599">
        <ele>14.2</ele>
        <time>2020-08-21T09:22:50.000Z</time>
      </trkpt>
      <trkpt lat="47.74651" lon="-3.35601">
        <ele>14.3</ele>
        <time>2020-08-21T09:22:51.000Z</time>
      </trkpt>
      <trkpt lat="47.7465" lon="-3.35603">
        <ele>14.3</ele>
        <time>2020-08-21T09:22:52.000Z</time>
      </trkpt>
      <trkpt lat="47.74649" lon="-3.35605">
        <ele>14.3</ele>
        <time>2020-08-21T09:22:53.000Z</time>
      </trkpt>
      <trkpt lat="47.74648" lon="-3.35606">
        <ele>14.4</ele>
        <time>2020-08-21T09:22:54.000Z</time>
      </trkpt>
      <trkpt lat="47.74647" lon="-3.35608">
        <ele>14.4</ele>
        <time>2020-08-21T09:22:55.000Z</time>
      </trkpt>
      <trkpt lat="47.74646" lon="-3.35609">
        <ele>14.4</ele>
        <time>2020-08-21T09:22:56.000Z</time>
      </trkpt>
      <trkpt lat="47.74645" lon="-3.35611">
        <ele>14.4</ele>
        <time>2020-08-21T09:22:57.000Z</time>
      </trkpt>
      <trkpt lat="47.74644" lon="-3.35612">
        <ele>14.5</ele>
        <time>2020-08-21T09:22:58.000Z</time>
      </trkpt>
      <trkpt lat="47.74642" lon="-3.35613">
        <ele>14.5</ele>
        <time>2020-08-21T09:22:59.000Z</time>
      </trkpt>
      <trkpt lat="47.74641" lon="-3.35614">
        <ele>14.5</ele>
        <time>2020-08-21T09:23:00.000Z</time>
      </trkpt>
      <trkpt lat="47.7464" lon="-3.35615">
        <ele>14.5</ele>
        <time>2020-08-21T09:23:01.000Z</time>
      </trkpt>
      <trkpt lat="47.74639" lon="-3.35615">
        <ele>14.5</ele>
        <time>2020-08-21T09:23:02.000Z</time>
      </trkpt>
      <trkpt lat="47.74638" lon="-3.35616">
        <ele>14.5</ele>
        <time>2020-08-21T09:23:03.000Z</time>
      </trkpt>
      <trkpt lat="47.74637" lon="-3.35616">
        <ele>14.5</ele>
        <time>2020-08-21T09:23:04.000Z</time>
      </trkpt>
      <trkpt lat="47.74636" lon="-3.35617">
        <ele>14.5</ele>
        <time>2020-08-21T09:23:05.000Z</time>
      </trkpt>
      <trkpt lat="47.74635" lon="-3.35617">
        <ele>14.5</ele>
        <time>2020-08-21T09:23:06.000Z</time>
      </trkpt>
      <trkpt lat="47.74634" lon="-3.35618">
        <ele>14.4</ele>
        <time>2020-08-21T09:23:07.000Z</time>
      </trkpt>
      <trkpt lat="47.74633" lon="-3.35618">
        <ele>14.4</ele>
        <time>2020-08-21T09:23:08.000Z</time>
      </trkpt>
      <trkpt lat="47.74632" lon="-3.35618">
        <ele>14.4</ele>
        <time>2020-08-21T09:23:09.000Z</time>
      </trkpt>
      <trkpt lat="47.74631" lon="-3.35618">
        <ele>14.4</ele>
        <time>2020-08-21T09:23:10.000Z</time>
      </trkpt>
      <trkpt lat="47.7463" lon="-3.35618">
        <ele>14.4</ele>
        <time>2020-08-21T09:23:11.000Z</time>
      </trkpt>
      <trkpt lat="47.74629" lon="-3.35619">
        <ele>14.4</ele>
        <time>2020-08-21T09:23:12.000Z</time>
      </trkpt>
      <trkpt lat="47.74628" lon="-3.35619">
        <ele>14.3</ele>
        <time>2020-08-21T09:23:13.000Z</time>
      </trkpt>
      <trkpt lat="47.74627" lon="-3.35619">
        <ele>14.3</ele>
        <time>2020-08-21T09:23:14.000Z</time>
      </trkpt>
      <trkpt lat="47.74626" lon="-3.35619">
        <ele>14.3</ele>
        <time>2020-08-21T09:23:15.000Z</time>
      </trkpt>
      <trkpt lat="47.74624" lon="-3.35619">
        <ele>14.3</ele>
        <time>2020-08-21T09:23:16.000Z</time>
      </trkpt>
      <trkpt lat="47.74623" lon="-3.3562">
        <ele>14.3</ele>
        <time>2020-08-21T09:23:17.000Z</time>
      </trkpt>
      <trkpt lat="47.74622" lon="-3.3562">
        <ele>14.2</ele>
        <time>2020-08-21T09:23:18.000Z</time>
      </trkpt>
      <trkpt lat="47.74621" lon="-3.3562">
        <ele>14.2</ele>
        <time>2020-08-21T09:23:19.000Z</time>
      </trkpt>
      <trkpt lat="47.7462" lon="-3.35621">
        <ele>14.2</ele>
        <time>2020-08-21T09:23:20.000Z</time>
      </trkpt>
      <trkpt lat="47.74619" lon="-3.35621">
        <ele>14.2</ele>
        <time>2020-08-21T09:23:21.000Z</time>
      </trkpt>
      <trkpt lat="47.74618" lon="-3.35621">
        <ele>14.2</ele>
        <time>2020-08-21T09:23:22.000Z</time>
      </trkpt>
      <trkpt lat="47.74616" lon="-3.3562">
        <ele>14.1</ele>
        <time>2020-08-21T09:23:23.000Z</time>
      </trkpt>
      <trkpt lat="47.74615" lon="-3.3562">
        <ele>14.1</ele>
        <time>2020-08-21T09:23:24.000Z</time>
      </trkpt>
      <trkpt lat="47.74614" lon="-3.35619">
        <ele>14</ele>
        <time>2020-08-21T09:23:25.000Z</time>
      </trkpt>
      <trkpt lat="47.74613" lon="-3.35618">
        <ele>13.9</ele>
        <time>2020-08-21T09:23:26.000Z</time>
      </trkpt>
      <trkpt lat="47.74612" lon="-3.35617">
        <ele>13.9</ele>
        <time>2020-08-21T09:23:27.000Z</time>
      </trkpt>
      <trkpt lat="47.74611" lon="-3.35616">
        <ele>13.8</ele>
        <time>2020-08-21T09:23:28.000Z</time>
      </trkpt>
      <trkpt lat="47.7461" lon="-3.35614">
        <ele>13.8</ele>
        <time>2020-08-21T09:23:29.000Z</time>
      </trkpt>
      <trkpt lat="47.7461" lon="-3.35614">
        <ele>13.7</ele>
        <time>2020-08-21T09:23:30.000Z</time>
      </trkpt>
      <trkpt lat="47.74609" lon="-3.35613">
        <ele>13.7</ele>
        <time>2020-08-21T09:23:31.000Z</time>
      </trkpt>
      <trkpt lat="47.74609" lon="-3.35612">
        <ele>13.6</ele>
        <time>2020-08-21T09:23:32.000Z</time>
      </trkpt>
      <trkpt lat="47.74609" lon="-3.35611">
        <ele>13.6</ele>
        <time>2020-08-21T09:23:33.000Z</time>
      </trkpt>
      <trkpt lat="47.74609" lon="-3.3561">
        <ele>13.6</ele>
        <time>2020-08-21T09:23:34.000Z</time>
      </trkpt>
      <trkpt lat="47.74609" lon="-3.35609">
        <ele>13.5</ele>
        <time>2020-08-21T09:23:35.000Z</time>
      </trkpt>
      <trkpt lat="47.74609" lon="-3.35607">
        <ele>13.5</ele>
        <time>2020-08-21T09:23:36.000Z</time>
      </trkpt>
      <trkpt lat="47.74608" lon="-3.35606">
        <ele>13.4</ele>
        <time>2020-08-21T09:23:37.000Z</time>
      </trkpt>
      <trkpt lat="47.74608" lon="-3.35604">
        <ele>13.3</ele>
        <time>2020-08-21T09:23:38.000Z</time>
      </trkpt>
      <trkpt lat="47.74608" lon="-3.35602">
        <ele>13.3</ele>
        <time>2020-08-21T09:23:39.000Z</time>
      </trkpt>
      <trkpt lat="47.74607" lon="-3.356">
        <ele>13.2</ele>
        <time>2020-08-21T09:23:40.000Z</time>
      </trkpt>
      <trkpt lat="47.74607" lon="-3.35598">
        <ele>13.1</ele>
        <time>2020-08-21T09:23:41.000Z</time>
      </trkpt>
      <trkpt lat="47.74607" lon="-3.35596">
        <ele>13</ele>
        <time>2020-08-21T09:23:42.000Z</time>
      </trkpt>
      <trkpt lat="47.74606" lon="-3.35594">
        <ele>12.9</ele>
        <time>2020-08-21T09:23:43.000Z</time>
      </trkpt>
      <trkpt lat="47.74606" lon="-3.35592">
        <ele>12.9</ele>
        <time>2020-08-21T09:23:44.000Z</time>
      </trkpt>
      <trkpt lat="47.74606" lon="-3.3559">
        <ele>12.8</ele>
        <time>2020-08-21T09:23:45.000Z</time>
      </trkpt>
      <trkpt lat="47.74606" lon="-3.35588">
        <ele>12.7</ele>
        <time>2020-08-21T09:23:46.000Z</time>
      </trkpt>
      <trkpt lat="47.74606" lon="-3.35586">
        <ele>12.6</ele>
        <time>2020-08-21T09:23:47.000Z</time>
      </trkpt>
      <trkpt lat="47.74606" lon="-3.35584">
        <ele>12.6</ele>
        <time>2020-08-21T09:23:48.000Z</time>
      </trkpt>
      <trkpt lat="47.74606" lon="-3.35582">
        <ele>12.5</ele>
        <time>2020-08-21T09:23:49.000Z</time>
      </trkpt>
      <trkpt lat="47.74606" lon="-3.3558">
        <ele>12.5</ele>
        <time>2020-08-21T09:23:50.000Z</time>
      </trkpt>
      <trkpt lat="47.74605" lon="-3.35578">
        <ele>12.5</ele>
        <time>2020-08-21T09:23:51.000Z</time>
      </trkpt>
      <trkpt lat="47.74605" lon="-3.35576">
        <ele>12.5</ele>
        <time>2020-08-21T09:23:52.000Z</time>
      </trkpt>
      <trkpt lat="47.74605" lon="-3.35574">
        <ele>12.4</ele>
        <time>2020-08-21T09:23:53.000Z</time>
      </trkpt>
      <trkpt lat="47.74605" lon="-3.35572">
        <ele>12.4</ele>
        <time>2020-08-21T09:23:54.000Z</time>
      </trkpt>
      <trkpt lat="47.74604" lon="-3.3557">
        <ele>12.4</ele>
        <time>2020-08-21T09:23:55.000Z</time>
      </trkpt>
      <trkpt lat="47.74604" lon="-3.35569">
        <ele>12.4</ele>
        <time>2020-08-21T09:23:56.000Z</time>
      </trkpt>
      <trkpt lat="47.74604" lon="-3.35567">
        <ele>12.3</ele>
        <time>2020-08-21T09:23:57.000Z</time>
      </trkpt>
      <trkpt lat="47.74603" lon="-3.35565">
        <ele>12.3</ele>
        <time>2020-08-21T09:23:58.000Z</time>
      </trkpt>
      <trkpt lat="47.74602" lon="-3.35563">
        <ele>12.3</ele>
        <time>2020-08-21T09:23:59.000Z</time>
      </trkpt>
      <trkpt lat="47.74602" lon="-3.35561">
        <ele>12.3</ele>
        <time>2020-08-21T09:24:00.000Z</time>
      </trkpt>
      <trkpt lat="47.74601" lon="-3.35559">
        <ele>12.2</ele>
        <time>2020-08-21T09:24:01.000Z</time>
      </trkpt>
      <trkpt lat="47.74601" lon="-3.35557">
        <ele>12.2</ele>
        <time>2020-08-21T09:24:02.000Z</time>
      </trkpt>
      <trkpt lat="47.746" lon="-3.35555">
        <ele>12.2</ele>
        <time>2020-08-21T09:24:03.000Z</time>
      </trkpt>
      <trkpt lat="47.746" lon="-3.35552">
        <ele>12.2</ele>
        <time>2020-08-21T09:24:04.000Z</time>
      </trkpt>
      <trkpt lat="47.746" lon="-3.3555">
        <ele>12.2</ele>
        <time>2020-08-21T09:24:05.000Z</time>
      </trkpt>
      <trkpt lat="47.746" lon="-3.35548">
        <ele>12.1</ele>
        <time>2020-08-21T09:24:06.000Z</time>
      </trkpt>
      <trkpt lat="47.746" lon="-3.35546">
        <ele>12.1</ele>
        <time>2020-08-21T09:24:07.000Z</time>
      </trkpt>
      <trkpt lat="47.746" lon="-3.35544">
        <ele>12.1</ele>
        <time>2020-08-21T09:24:08.000Z</time>
      </trkpt>
      <trkpt lat="47.746" lon="-3.35542">
        <ele>12.1</ele>
        <time>2020-08-21T09:24:09.000Z</time>
      </trkpt>
      <trkpt lat="47.746" lon="-3.3554">
        <ele>12.1</ele>
        <time>2020-08-21T09:24:10.000Z</time>
      </trkpt>
      <trkpt lat="47.746" lon="-3.35538">
        <ele>12.1</ele>
        <time>2020-08-21T09:24:11.000Z</time>
      </trkpt>
      <trkpt lat="47.746" lon="-3.35536">
        <ele>12.1</ele>
        <time>2020-08-21T09:24:12.000Z</time>
      </trkpt>
      <trkpt lat="47.746" lon="-3.35534">
        <ele>12</ele>
        <time>2020-08-21T09:24:13.000Z</time>
      </trkpt>
      <trkpt lat="47.746" lon="-3.35533">
        <ele>12</ele>
        <time>2020-08-21T09:24:14.000Z</time>
      </trkpt>
      <trkpt lat="47.746" lon="-3.35531">
        <ele>12</ele>
        <time>2020-08-21T09:24:15.000Z</time>
      </trkpt>
      <trkpt lat="47.746" lon="-3.35529">
        <ele>12</ele>
        <time>2020-08-21T09:24:16.000Z</time>
      </trkpt>
      <trkpt lat="47.746" lon="-3.35527">
        <ele>12</ele>
        <time>2020-08-21T09:24:17.000Z</time>
      </trkpt>
      <trkpt lat="47.746" lon="-3.35525">
        <ele>12</ele>
        <time>2020-08-21T09:24:18.000Z</time>
      </trkpt>
      <trkpt lat="47.74599" lon="-3.35523">
        <ele>12</ele>
        <time>2020-08-21T09:24:19.000Z</time>
      </trkpt>
      <trkpt lat="47.74599" lon="-3.35522">
        <ele>12</ele>
        <time>2020-08-21T09:24:20.000Z</time>
      </trkpt>
      <trkpt lat="47.74599" lon="-3.3552">
        <ele>11.9</ele>
        <time>2020-08-21T09:24:21.000Z</time>
      </trkpt>
      <trkpt lat="47.74599" lon="-3.35518">
        <ele>11.9</ele>
        <time>2020-08-21T09:24:22.000Z</time>
      </trkpt>
      <trkpt lat="47.74598" lon="-3.35516">
        <ele>11.9</ele>
        <time>2020-08-21T09:24:23.000Z</time>
      </trkpt>
      <trkpt lat="47.74598" lon="-3.35514">
        <ele>11.9</ele>
        <time>2020-08-21T09:24:24.000Z</time>
      </trkpt>
      <trkpt lat="47.74598" lon="-3.35512">
        <ele>11.9</ele>
        <time>2020-08-21T09:24:25.000Z</time>
      </trkpt>
      <trkpt lat="47.74598" lon="-3.3551">
        <ele>11.9</ele>
        <time>2020-08-21T09:24:26.000Z</time>
      </trkpt>
      <trkpt lat="47.74599" lon="-3.35508">
        <ele>11.9</ele>
        <time>2020-08-21T09:24:27.000Z</time>
      </trkpt>
      <trkpt lat="47.74599" lon="-3.35506">
        <ele>11.9</ele>
        <time>2020-08-21T09:24:28.000Z</time>
      </trkpt>
      <trkpt lat="47.74599" lon="-3.35504">
        <ele>11.8</ele>
        <time>2020-08-21T09:24:29.000Z</time>
      </trkpt>
      <trkpt lat="47.74599" lon="-3.35503">
        <ele>11.8</ele>
        <time>2020-08-21T09:24:30.000Z</time>
      </trkpt>
      <trkpt lat="47.74599" lon="-3.35501">
        <ele>11.8</ele>
        <time>2020-08-21T09:24:31.000Z</time>
      </trkpt>
      <trkpt lat="47.74599" lon="-3.35499">
        <ele>11.8</ele>
        <time>2020-08-21T09:24:32.000Z</time>
      </trkpt>
      <trkpt lat="47.746" lon="-3.35497">
        <ele>11.7</ele>
        <time>2020-08-21T09:24:33.000Z</time>
      </trkpt>
      <trkpt lat="47.746" lon="-3.35495">
        <ele>11.7</ele>
        <time>2020-08-21T09:24:34.000Z</time>
      </trkpt>
      <trkpt lat="47.746" lon="-3.35493">
        <ele>11.7</ele>
        <time>2020-08-21T09:24:35.000Z</time>
      </trkpt>
      <trkpt lat="47.746" lon="-3.35491">
        <ele>11.6</ele>
        <time>2020-08-21T09:24:36.000Z</time>
      </trkpt>
      <trkpt lat="47.746" lon="-3.3549">
        <ele>11.6</ele>
        <time>2020-08-21T09:24:37.000Z</time>
      </trkpt>
      <trkpt lat="47.746" lon="-3.35488">
        <ele>11.5</ele>
        <time>2020-08-21T09:24:38.000Z</time>
      </trkpt>
      <trkpt lat="47.74599" lon="-3.35486">
        <ele>11.5</ele>
        <time>2020-08-21T09:24:39.000Z</time>
      </trkpt>
      <trkpt lat="47.74599" lon="-3.35484">
        <ele>11.5</ele>
        <time>2020-08-21T09:24:40.000Z</time>
      </trkpt>
      <trkpt lat="47.74599" lon="-3.35482">
        <ele>11.4</ele>
        <time>2020-08-21T09:24:41.000Z</time>
      </trkpt>
      <trkpt lat="47.74599" lon="-3.35481">
        <ele>11.4</ele>
        <time>2020-08-21T09:24:42.000Z</time>
      </trkpt>
      <trkpt lat="47.74599" lon="-3.35479">
        <ele>11.4</ele>
        <time>2020-08-21T09:24:43.000Z</time>
      </trkpt>
      <trkpt lat="47.74598" lon="-3.35477">
        <ele>11.3</ele>
        <time>2020-08-21T09:24:44.000Z</time>
      </trkpt>
      <trkpt lat="47.74598" lon="-3.35475">
        <ele>11.3</ele>
        <time>2020-08-21T09:24:45.000Z</time>
      </trkpt>
      <trkpt lat="47.74598" lon="-3.35473">
        <ele>11.3</ele>
        <time>2020-08-21T09:24:46.000Z</time>
      </trkpt>
      <trkpt lat="47.74597" lon="-3.35472">
        <ele>11.3</ele>
        <time>2020-08-21T09:24:47.000Z</time>
      </trkpt>
      <trkpt lat="47.74597" lon="-3.3547">
        <ele>11.2</ele>
        <time>2020-08-21T09:24:48.000Z</time>
      </trkpt>
      <trkpt lat="47.74596" lon="-3.35468">
        <ele>11.2</ele>
        <time>2020-08-21T09:24:49.000Z</time>
      </trkpt>
      <trkpt lat="47.74596" lon="-3.35466">
        <ele>11.2</ele>
        <time>2020-08-21T09:24:50.000Z</time>
      </trkpt>
      <trkpt lat="47.74595" lon="-3.35465">
        <ele>11.2</ele>
        <time>2020-08-21T09:24:51.000Z</time>
      </trkpt>
      <trkpt lat="47.74594" lon="-3.35463">
        <ele>11.2</ele>
        <time>2020-08-21T09:24:52.000Z</time>
      </trkpt>
      <trkpt lat="47.74593" lon="-3.35462">
        <ele>11.2</ele>
        <time>2020-08-21T09:24:53.000Z</time>
      </trkpt>
      <trkpt lat="47.74592" lon="-3.35461">
        <ele>11.2</ele>
        <time>2020-08-21T09:24:54.000Z</time>
      </trkpt>
      <trkpt lat="47.7459" lon="-3.3546">
        <ele>11.3</ele>
        <time>2020-08-21T09:24:55.000Z</time>
      </trkpt>
      <trkpt lat="47.74589" lon="-3.35459">
        <ele>11.3</ele>
        <time>2020-08-21T09:24:56.000Z</time>
      </trkpt>
      <trkpt lat="47.74588" lon="-3.35458">
        <ele>11.3</ele>
        <time>2020-08-21T09:24:57.000Z</time>
      </trkpt>
      <trkpt lat="47.74586" lon="-3.35457">
        <ele>11.4</ele>
        <time>2020-08-21T09:24:58.000Z</time>
      </trkpt>
      <trkpt lat="47.74585" lon="-3.35457">
        <ele>11.4</ele>
        <time>2020-08-21T09:24:59.000Z</time>
      </trkpt>
      <trkpt lat="47.74583" lon="-3.35456">
        <ele>11.5</ele>
        <time>2020-08-21T09:25:00.000Z</time>
      </trkpt>
      <trkpt lat="47.74582" lon="-3.35455">
        <ele>11.5</ele>
        <time>2020-08-21T09:25:01.000Z</time>
      </trkpt>
      <trkpt lat="47.74581" lon="-3.35455">
        <ele>11.4</ele>
        <time>2020-08-21T09:25:02.000Z</time>
      </trkpt>
      <trkpt lat="47.74579" lon="-3.35454">
        <ele>11.4</ele>
        <time>2020-08-21T09:25:03.000Z</time>
      </trkpt>
      <trkpt lat="47.74578" lon="-3.35454">
        <ele>11.4</ele>
        <time>2020-08-21T09:25:04.000Z</time>
      </trkpt>
      <trkpt lat="47.74576" lon="-3.35453">
        <ele>11.4</ele>
        <time>2020-08-21T09:25:05.000Z</time>
      </trkpt>
      <trkpt lat="47.74575" lon="-3.35452">
        <ele>11.4</ele>
        <time>2020-08-21T09:25:06.000Z</time>
      </trkpt>
      <trkpt lat="47.74574" lon="-3.35452">
        <ele>11.4</ele>
        <time>2020-08-21T09:25:07.000Z</time>
      </trkpt>
      <trkpt lat="47.74572" lon="-3.35451">
        <ele>11.4</ele>
        <time>2020-08-21T09:25:08.000Z</time>
      </trkpt>
      <trkpt lat="47.74571" lon="-3.35451">
        <ele>11.4</ele>
        <time>2020-08-21T09:25:09.000Z</time>
      </trkpt>
      <trkpt lat="47.74569" lon="-3.3545">
        <ele>11.4</ele>
        <time>2020-08-21T09:25:10.000Z</time>
      </trkpt>
      <trkpt lat="47.74568" lon="-3.3545">
        <ele>11.4</ele>
        <time>2020-08-21T09:25:11.000Z</time>
      </trkpt>
      <trkpt lat="47.74566" lon="-3.35449">
        <ele>11.4</ele>
        <time>2020-08-21T09:25:12.000Z</time>
      </trkpt>
      <trkpt lat="47.74565" lon="-3.35449">
        <ele>11.4</ele>
        <time>2020-08-21T09:25:13.000Z</time>
      </trkpt>
      <trkpt lat="47.74564" lon="-3.35448">
        <ele>11.3</ele>
        <time>2020-08-21T09:25:14.000Z</time>
      </trkpt>
      <trkpt lat="47.74562" lon="-3.35448">
        <ele>11.3</ele>
        <time>2020-08-21T09:25:15.000Z</time>
      </trkpt>
      <trkpt lat="47.74561" lon="-3.35447">
        <ele>11.3</ele>
        <time>2020-08-21T09:25:16.000Z</time>
      </trkpt>
      <trkpt lat="47.74559" lon="-3.35447">
        <ele>11.3</ele>
        <time>2020-08-21T09:25:17.000Z</time>
      </trkpt>
      <trkpt lat="47.74558" lon="-3.35446">
        <ele>11.3</ele>
        <time>2020-08-21T09:25:18.000Z</time>
      </trkpt>
      <trkpt lat="47.74557" lon="-3.35446">
        <ele>11.3</ele>
        <time>2020-08-21T09:25:19.000Z</time>
      </trkpt>
      <trkpt lat="47.74555" lon="-3.35445">
        <ele>11.3</ele>
        <time>2020-08-21T09:25:20.000Z</time>
      </trkpt>
      <trkpt lat="47.74554" lon="-3.35444">
        <ele>11.3</ele>
        <time>2020-08-21T09:25:21.000Z</time>
      </trkpt>
      <trkpt lat="47.74553" lon="-3.35444">
        <ele>11.3</ele>
        <time>2020-08-21T09:25:22.000Z</time>
      </trkpt>
      <trkpt lat="47.74551" lon="-3.35443">
        <ele>11.3</ele>
        <time>2020-08-21T09:25:23.000Z</time>
      </trkpt>
      <trkpt lat="47.7455" lon="-3.35442">
        <ele>11.3</ele>
        <time>2020-08-21T09:25:24.000Z</time>
      </trkpt>
      <trkpt lat="47.74549" lon="-3.35441">
        <ele>11.3</ele>
        <time>2020-08-21T09:25:25.000Z</time>
      </trkpt>
      <trkpt lat="47.74548" lon="-3.3544">
        <ele>11.3</ele>
        <time>2020-08-21T09:25:26.000Z</time>
      </trkpt>
      <trkpt lat="47.74547" lon="-3.35439">
        <ele>11.4</ele>
        <time>2020-08-21T09:25:27.000Z</time>
      </trkpt>
      <trkpt lat="47.74546" lon="-3.35438">
        <ele>11.4</ele>
        <time>2020-08-21T09:25:28.000Z</time>
      </trkpt>
      <trkpt lat="47.74546" lon="-3.35437">
        <ele>11.4</ele>
        <time>2020-08-21T09:25:29.000Z</time>
      </trkpt>
      <trkpt lat="47.74545" lon="-3.35436">
        <ele>11.4</ele>
        <time>2020-08-21T09:25:30.000Z</time>
      </trkpt>
      <trkpt lat="47.74544" lon="-3.35435">
        <ele>11.4</ele>
        <time>2020-08-21T09:25:31.000Z</time>
      </trkpt>
      <trkpt lat="47.74544" lon="-3.35433">
        <ele>11.4</ele>
        <time>2020-08-21T09:25:32.000Z</time>
      </trkpt>
      <trkpt lat="47.74543" lon="-3.35432">
        <ele>11.4</ele>
        <time>2020-08-21T09:25:33.000Z</time>
      </trkpt>
      <trkpt lat="47.74543" lon="-3.3543">
        <ele>11.4</ele>
        <time>2020-08-21T09:25:34.000Z</time>
      </trkpt>
      <trkpt lat="47.74542" lon="-3.35429">
        <ele>11.4</ele>
        <time>2020-08-21T09:25:35.000Z</time>
      </trkpt>
      <trkpt lat="47.74542" lon="-3.35427">
        <ele>11.4</ele>
        <time>2020-08-21T09:25:36.000Z</time>
      </trkpt>
      <trkpt lat="47.74542" lon="-3.35426">
        <ele>11.4</ele>
        <time>2020-08-21T09:25:37.000Z</time>
      </trkpt>
      <trkpt lat="47.74542" lon="-3.35424">
        <ele>11.5</ele>
        <time>2020-08-21T09:25:38.000Z</time>
      </trkpt>
      <trkpt lat="47.74541" lon="-3.35422">
        <ele>11.5</ele>
        <time>2020-08-21T09:25:39.000Z</time>
      </trkpt>
      <trkpt lat="47.74541" lon="-3.35421">
        <ele>11.5</ele>
        <time>2020-08-21T09:25:40.000Z</time>
      </trkpt>
      <trkpt lat="47.74541" lon="-3.35419">
        <ele>11.5</ele>
        <time>2020-08-21T09:25:41.000Z</time>
      </trkpt>
      <trkpt lat="47.74542" lon="-3.35418">
        <ele>11.5</ele>
        <time>2020-08-21T09:25:42.000Z</time>
      </trkpt>
      <trkpt lat="47.74542" lon="-3.35417">
        <ele>11.5</ele>
        <time>2020-08-21T09:25:43.000Z</time>
      </trkpt>
      <trkpt lat="47.74542" lon="-3.35415">
        <ele>11.5</ele>
        <time>2020-08-21T09:25:44.000Z</time>
      </trkpt>
      <trkpt lat="47.74542" lon="-3.35414">
        <ele>11.5</ele>
        <time>2020-08-21T09:25:45.000Z</time>
      </trkpt>
      <trkpt lat="47.74542" lon="-3.35413">
        <ele>11.4</ele>
        <time>2020-08-21T09:25:46.000Z</time>
      </trkpt>
      <trkpt lat="47.74543" lon="-3.35412">
        <ele>11.4</ele>
        <time>2020-08-21T09:25:47.000Z</time>
      </trkpt>
      <trkpt lat="47.74543" lon="-3.35411">
        <ele>11.4</ele>
        <time>2020-08-21T09:25:48.000Z</time>
      </trkpt>
      <trkpt lat="47.74543" lon="-3.3541">
        <ele>11.4</ele>
        <time>2020-08-21T09:25:49.000Z</time>
      </trkpt>
      <trkpt lat="47.74544" lon="-3.35408">
        <ele>11.4</ele>
        <time>2020-08-21T09:25:50.000Z</time>
      </trkpt>
      <trkpt lat="47.74544" lon="-3.35407">
        <ele>11.3</ele>
        <time>2020-08-21T09:25:51.000Z</time>
      </trkpt>
      <trkpt lat="47.74545" lon="-3.35406">
        <ele>11.3</ele>
        <time>2020-08-21T09:25:52.000Z</time>
      </trkpt>
      <trkpt lat="47.74545" lon="-3.35405">
        <ele>11.3</ele>
        <time>2020-08-21T09:25:53.000Z</time>
      </trkpt>
      <trkpt lat="47.74545" lon="-3.35403">
        <ele>11.3</ele>
        <time>2020-08-21T09:25:54.000Z</time>
      </trkpt>
      <trkpt lat="47.74546" lon="-3.35402">
        <ele>11.3</ele>
        <time>2020-08-21T09:25:55.000Z</time>
      </trkpt>
      <trkpt lat="47.74546" lon="-3.354">
        <ele>11.2</ele>
        <time>2020-08-21T09:25:56.000Z</time>
      </trkpt>
      <trkpt lat="47.74547" lon="-3.35399">
        <ele>11.2</ele>
        <time>2020-08-21T09:25:57.000Z</time>
      </trkpt>
      <trkpt lat="47.74547" lon="-3.35397">
        <ele>11.2</ele>
        <time>2020-08-21T09:25:58.000Z</time>
      </trkpt>
      <trkpt lat="47.74547" lon="-3.35396">
        <ele>11.2</ele>
        <time>2020-08-21T09:25:59.000Z</time>
      </trkpt>
      <trkpt lat="47.74547" lon="-3.35394">
        <ele>11.1</ele>
        <time>2020-08-21T09:26:00.000Z</time>
      </trkpt>
      <trkpt lat="47.74548" lon="-3.35393">
        <ele>11.1</ele>
        <time>2020-08-21T09:26:01.000Z</time>
      </trkpt>
      <trkpt lat="47.74548" lon="-3.35391">
        <ele>11.1</ele>
        <time>2020-08-21T09:26:02.000Z</time>
      </trkpt>
      <trkpt lat="47.74547" lon="-3.3539">
        <ele>11.1</ele>
        <time>2020-08-21T09:26:03.000Z</time>
      </trkpt>
      <trkpt lat="47.74547" lon="-3.35388">
        <ele>11</ele>
        <time>2020-08-21T09:26:04.000Z</time>
      </trkpt>
      <trkpt lat="47.74547" lon="-3.35387">
        <ele>11</ele>
        <time>2020-08-21T09:26:05.000Z</time>
      </trkpt>
      <trkpt lat="47.74546" lon="-3.35385">
        <ele>11</ele>
        <time>2020-08-21T09:26:06.000Z</time>
      </trkpt>
      <trkpt lat="47.74546" lon="-3.35384">
        <ele>11</ele>
        <time>2020-08-21T09:26:07.000Z</time>
      </trkpt>
      <trkpt lat="47.74545" lon="-3.35382">
        <ele>11</ele>
        <time>2020-08-21T09:26:08.000Z</time>
      </trkpt>
      <trkpt lat="47.74545" lon="-3.35381">
        <ele>11</ele>
        <time>2020-08-21T09:26:09.000Z</time>
      </trkpt>
      <trkpt lat="47.74544" lon="-3.3538">
        <ele>11</ele>
        <time>2020-08-21T09:26:10.000Z</time>
      </trkpt>
      <trkpt lat="47.74543" lon="-3.35379">
        <ele>11</ele>
        <time>2020-08-21T09:26:11.000Z</time>
      </trkpt>
      <trkpt lat="47.74542" lon="-3.35377">
        <ele>11</ele>
        <time>2020-08-21T09:26:12.000Z</time>
      </trkpt>
      <trkpt lat="47.74542" lon="-3.35376">
        <ele>11</ele>
        <time>2020-08-21T09:26:13.000Z</time>
      </trkpt>
      <trkpt lat="47.74541" lon="-3.35375">
        <ele>11</ele>
        <time>2020-08-21T09:26:14.000Z</time>
      </trkpt>
      <trkpt lat="47.7454" lon="-3.35373">
        <ele>11</ele>
        <time>2020-08-21T09:26:15.000Z</time>
      </trkpt>
      <trkpt lat="47.74539" lon="-3.35372">
        <ele>11</ele>
        <time>2020-08-21T09:26:16.000Z</time>
      </trkpt>
      <trkpt lat="47.74539" lon="-3.35371">
        <ele>11</ele>
        <time>2020-08-21T09:26:17.000Z</time>
      </trkpt>
      <trkpt lat="47.74538" lon="-3.3537">
        <ele>11</ele>
        <time>2020-08-21T09:26:18.000Z</time>
      </trkpt>
      <trkpt lat="47.74538" lon="-3.35368">
        <ele>11</ele>
        <time>2020-08-21T09:26:19.000Z</time>
      </trkpt>
      <trkpt lat="47.74537" lon="-3.35367">
        <ele>11</ele>
        <time>2020-08-21T09:26:20.000Z</time>
      </trkpt>
      <trkpt lat="47.74537" lon="-3.35366">
        <ele>11</ele>
        <time>2020-08-21T09:26:21.000Z</time>
      </trkpt>
      <trkpt lat="47.74537" lon="-3.35364">
        <ele>11</ele>
        <time>2020-08-21T09:26:22.000Z</time>
      </trkpt>
      <trkpt lat="47.74536" lon="-3.35363">
        <ele>11</ele>
        <time>2020-08-21T09:26:23.000Z</time>
      </trkpt>
      <trkpt lat="47.74536" lon="-3.35361">
        <ele>11</ele>
        <time>2020-08-21T09:26:24.000Z</time>
      </trkpt>
      <trkpt lat="47.74536" lon="-3.3536">
        <ele>11</ele>
        <time>2020-08-21T09:26:25.000Z</time>
      </trkpt>
      <trkpt lat="47.74536" lon="-3.35358">
        <ele>11</ele>
        <time>2020-08-21T09:26:26.000Z</time>
      </trkpt>
      <trkpt lat="47.74536" lon="-3.35356">
        <ele>10.9</ele>
        <time>2020-08-21T09:26:27.000Z</time>
      </trkpt>
      <trkpt lat="47.74536" lon="-3.35354">
        <ele>10.9</ele>
        <time>2020-08-21T09:26:28.000Z</time>
      </trkpt>
      <trkpt lat="47.74536" lon="-3.35352">
        <ele>10.9</ele>
        <time>2020-08-21T09:26:29.000Z</time>
      </trkpt>
      <trkpt lat="47.74536" lon="-3.3535">
        <ele>10.9</ele>
        <time>2020-08-21T09:26:30.000Z</time>
      </trkpt>
      <trkpt lat="47.74536" lon="-3.35348">
        <ele>10.9</ele>
        <time>2020-08-21T09:26:31.000Z</time>
      </trkpt>
      <trkpt lat="47.74536" lon="-3.35347">
        <ele>10.8</ele>
        <time>2020-08-21T09:26:32.000Z</time>
      </trkpt>
      <trkpt lat="47.74536" lon="-3.35345">
        <ele>10.8</ele>
        <time>2020-08-21T09:26:33.000Z</time>
      </trkpt>
      <trkpt lat="47.74537" lon="-3.35343">
        <ele>10.8</ele>
        <time>2020-08-21T09:26:34.000Z</time>
      </trkpt>
      <trkpt lat="47.74537" lon="-3.35341">
        <ele>10.8</ele>
        <time>2020-08-21T09:26:35.000Z</time>
      </trkpt>
      <trkpt lat="47.74537" lon="-3.35339">
        <ele>10.7</ele>
        <time>2020-08-21T09:26:36.000Z</time>
      </trkpt>
      <trkpt lat="47.74537" lon="-3.35337">
        <ele>10.7</ele>
        <time>2020-08-21T09:26:37.000Z</time>
      </trkpt>
      <trkpt lat="47.74537" lon="-3.35336">
        <ele>10.7</ele>
        <time>2020-08-21T09:26:38.000Z</time>
      </trkpt>
      <trkpt lat="47.74538" lon="-3.35335">
        <ele>10.7</ele>
        <time>2020-08-21T09:26:39.000Z</time>
      </trkpt>
      <trkpt lat="47.74538" lon="-3.35333">
        <ele>10.6</ele>
        <time>2020-08-21T09:26:40.000Z</time>
      </trkpt>
      <trkpt lat="47.74538" lon="-3.35332">
        <ele>10.6</ele>
        <time>2020-08-21T09:26:41.000Z</time>
      </trkpt>
      <trkpt lat="47.74538" lon="-3.35331">
        <ele>10.5</ele>
        <time>2020-08-21T09:26:42.000Z</time>
      </trkpt>
      <trkpt lat="47.74538" lon="-3.35329">
        <ele>10.5</ele>
        <time>2020-08-21T09:26:43.000Z</time>
      </trkpt>
      <trkpt lat="47.74538" lon="-3.35328">
        <ele>10.4</ele>
        <time>2020-08-21T09:26:44.000Z</time>
      </trkpt>
      <trkpt lat="47.74538" lon="-3.35326">
        <ele>10.3</ele>
        <time>2020-08-21T09:26:45.000Z</time>
      </trkpt>
      <trkpt lat="47.74538" lon="-3.35324">
        <ele>10.3</ele>
        <time>2020-08-21T09:26:46.000Z</time>
      </trkpt>
      <trkpt lat="47.74538" lon="-3.35323">
        <ele>10.2</ele>
        <time>2020-08-21T09:26:47.000Z</time>
      </trkpt>
      <trkpt lat="47.74537" lon="-3.35321">
        <ele>10.1</ele>
        <time>2020-08-21T09:26:48.000Z</time>
      </trkpt>
      <trkpt lat="47.74537" lon="-3.35319">
        <ele>10.1</ele>
        <time>2020-08-21T09:26:49.000Z</time>
      </trkpt>
      <trkpt lat="47.74537" lon="-3.35318">
        <ele>10</ele>
        <time>2020-08-21T09:26:50.000Z</time>
      </trkpt>
      <trkpt lat="47.74538" lon="-3.35316">
        <ele>9.9</ele>
        <time>2020-08-21T09:26:51.000Z</time>
      </trkpt>
      <trkpt lat="47.74538" lon="-3.35315">
        <ele>9.9</ele>
        <time>2020-08-21T09:26:52.000Z</time>
      </trkpt>
      <trkpt lat="47.74538" lon="-3.35314">
        <ele>9.8</ele>
        <time>2020-08-21T09:26:53.000Z</time>
      </trkpt>
      <trkpt lat="47.74538" lon="-3.35313">
        <ele>9.8</ele>
        <time>2020-08-21T09:26:54.000Z</time>
      </trkpt>
      <trkpt lat="47.74538" lon="-3.35311">
        <ele>9.7</ele>
        <time>2020-08-21T09:26:55.000Z</time>
      </trkpt>
      <trkpt lat="47.74538" lon="-3.3531">
        <ele>9.7</ele>
        <time>2020-08-21T09:26:56.000Z</time>
      </trkpt>
      <trkpt lat="47.74537" lon="-3.35309">
        <ele>9.6</ele>
        <time>2020-08-21T09:26:57.000Z</time>
      </trkpt>
      <trkpt lat="47.74537" lon="-3.35308">
        <ele>9.6</ele>
        <time>2020-08-21T09:26:58.000Z</time>
      </trkpt>
      <trkpt lat="47.74536" lon="-3.35306">
        <ele>9.5</ele>
        <time>2020-08-21T09:26:59.000Z</time>
      </trkpt>
      <trkpt lat="47.74536" lon="-3.35305">
        <ele>9.5</ele>
        <time>2020-08-21T09:27:00.000Z</time>
      </trkpt>
      <trkpt lat="47.74535" lon="-3.35304">
        <ele>9.5</ele>
        <time>2020-08-21T09:27:01.000Z</time>
      </trkpt>
      <trkpt lat="47.74534" lon="-3.35302">
        <ele>9.4</ele>
        <time>2020-08-21T09:27:02.000Z</time>
      </trkpt>
      <trkpt lat="47.74533" lon="-3.35301">
        <ele>9.4</ele>
        <time>2020-08-21T09:27:03.000Z</time>
      </trkpt>
      <trkpt lat="47.74532" lon="-3.353">
        <ele>9.4</ele>
        <time>2020-08-21T09:27:04.000Z</time>
      </trkpt>
      <trkpt lat="47.7453" lon="-3.35299">
        <ele>9.4</ele>
        <time>2020-08-21T09:27:05.000Z</time>
      </trkpt>
      <trkpt lat="47.74529" lon="-3.35298">
        <ele>9.4</ele>
        <time>2020-08-21T09:27:06.000Z</time>
      </trkpt>
      <trkpt lat="47.74528" lon="-3.35297">
        <ele>9.4</ele>
        <time>2020-08-21T09:27:07.000Z</time>
      </trkpt>
      <trkpt lat="47.74527" lon="-3.35296">
        <ele>9.4</ele>
        <time>2020-08-21T09:27:08.000Z</time>
      </trkpt>
      <trkpt lat="47.74525" lon="-3.35296">
        <ele>9.4</ele>
        <time>2020-08-21T09:27:09.000Z</time>
      </trkpt>
      <trkpt lat="47.74524" lon="-3.35296">
        <ele>9.5</ele>
        <time>2020-08-21T09:27:10.000Z</time>
      </trkpt>
      <trkpt lat="47.74523" lon="-3.35296">
        <ele>9.5</ele>
        <time>2020-08-21T09:27:11.000Z</time>
      </trkpt>
      <trkpt lat="47.74522" lon="-3.35296">
        <ele>9.6</ele>
        <time>2020-08-21T09:27:12.000Z</time>
      </trkpt>
      <trkpt lat="47.74521" lon="-3.35297">
        <ele>9.6</ele>
        <time>2020-08-21T09:27:13.000Z</time>
      </trkpt>
      <trkpt lat="47.7452" lon="-3.35298">
        <ele>9.7</ele>
        <time>2020-08-21T09:27:14.000Z</time>
      </trkpt>
      <trkpt lat="47.74519" lon="-3.35299">
        <ele>9.8</ele>
        <time>2020-08-21T09:27:15.000Z</time>
      </trkpt>
      <trkpt lat="47.74518" lon="-3.35301">
        <ele>9.9</ele>
        <time>2020-08-21T09:27:16.000Z</time>
      </trkpt>
      <trkpt lat="47.74517" lon="-3.35302">
        <ele>10</ele>
        <time>2020-08-21T09:27:17.000Z</time>
      </trkpt>
      <trkpt lat="47.74516" lon="-3.35304">
        <ele>10.1</ele>
        <time>2020-08-21T09:27:18.000Z</time>
      </trkpt>
      <trkpt lat="47.74515" lon="-3.35305">
        <ele>10.2</ele>
        <time>2020-08-21T09:27:19.000Z</time>
      </trkpt>
      <trkpt lat="47.74515" lon="-3.35307">
        <ele>10.3</ele>
        <time>2020-08-21T09:27:20.000Z</time>
      </trkpt>
      <trkpt lat="47.74514" lon="-3.35309">
        <ele>10.4</ele>
        <time>2020-08-21T09:27:21.000Z</time>
      </trkpt>
      <trkpt lat="47.74513" lon="-3.35311">
        <ele>10.5</ele>
        <time>2020-08-21T09:27:22.000Z</time>
      </trkpt>
      <trkpt lat="47.74513" lon="-3.35313">
        <ele>10.6</ele>
        <time>2020-08-21T09:27:23.000Z</time>
      </trkpt>
      <trkpt lat="47.74512" lon="-3.35314">
        <ele>10.7</ele>
        <time>2020-08-21T09:27:24.000Z</time>
      </trkpt>
      <trkpt lat="47.74511" lon="-3.35316">
        <ele>10.8</ele>
        <time>2020-08-21T09:27:25.000Z</time>
      </trkpt>
      <trkpt lat="47.74511" lon="-3.35318">
        <ele>10.9</ele>
        <time>2020-08-21T09:27:26.000Z</time>
      </trkpt>
      <trkpt lat="47.7451" lon="-3.35319">
        <ele>11</ele>
        <time>2020-08-21T09:27:27.000Z</time>
      </trkpt>
      <trkpt lat="47.74509" lon="-3.35321">
        <ele>11.1</ele>
        <time>2020-08-21T09:27:28.000Z</time>
      </trkpt>
      <trkpt lat="47.74509" lon="-3.35323">
        <ele>11.2</ele>
        <time>2020-08-21T09:27:29.000Z</time>
      </trkpt>
      <trkpt lat="47.74508" lon="-3.35324">
        <ele>11.3</ele>
        <time>2020-08-21T09:27:30.000Z</time>
      </trkpt>
      <trkpt lat="47.74508" lon="-3.35326">
        <ele>11.4</ele>
        <time>2020-08-21T09:27:31.000Z</time>
      </trkpt>
      <trkpt lat="47.74507" lon="-3.35328">
        <ele>11.5</ele>
        <time>2020-08-21T09:27:32.000Z</time>
      </trkpt>
      <trkpt lat="47.74507" lon="-3.35329">
        <ele>11.6</ele>
        <time>2020-08-21T09:27:33.000Z</time>
      </trkpt>
      <trkpt lat="47.74506" lon="-3.35331">
        <ele>11.7</ele>
        <time>2020-08-21T09:27:34.000Z</time>
      </trkpt>
      <trkpt lat="47.74506" lon="-3.35333">
        <ele>11.8</ele>
        <time>2020-08-21T09:27:35.000Z</time>
      </trkpt>
      <trkpt lat="47.74505" lon="-3.35334">
        <ele>11.8</ele>
        <time>2020-08-21T09:27:36.000Z</time>
      </trkpt>
      <trkpt lat="47.74505" lon="-3.35336">
        <ele>11.8</ele>
        <time>2020-08-21T09:27:37.000Z</time>
      </trkpt>
      <trkpt lat="47.74504" lon="-3.35338">
        <ele>11.9</ele>
        <time>2020-08-21T09:27:38.000Z</time>
      </trkpt>
      <trkpt lat="47.74504" lon="-3.35339">
        <ele>11.9</ele>
        <time>2020-08-21T09:27:39.000Z</time>
      </trkpt>
      <trkpt lat="47.74503" lon="-3.35341">
        <ele>11.9</ele>
        <time>2020-08-21T09:27:40.000Z</time>
      </trkpt>
      <trkpt lat="47.74503" lon="-3.35343">
        <ele>11.9</ele>
        <time>2020-08-21T09:27:41.000Z</time>
      </trkpt>
      <trkpt lat="47.74503" lon="-3.35344">
        <ele>11.9</ele>
        <time>2020-08-21T09:27:42.000Z</time>
      </trkpt>
      <trkpt lat="47.74502" lon="-3.35346">
        <ele>11.9</ele>
        <time>2020-08-21T09:27:43.000Z</time>
      </trkpt>
      <trkpt lat="47.74502" lon="-3.35348">
        <ele>11.9</ele>
        <time>2020-08-21T09:27:44.000Z</time>
      </trkpt>
      <trkpt lat="47.74502" lon="-3.35349">
        <ele>11.9</ele>
        <time>2020-08-21T09:27:45.000Z</time>
      </trkpt>
      <trkpt lat="47.74502" lon="-3.35351">
        <ele>11.9</ele>
        <time>2020-08-21T09:27:46.000Z</time>
      </trkpt>
      <trkpt lat="47.74502" lon="-3.35352">
        <ele>11.9</ele>
        <time>2020-08-21T09:27:47.000Z</time>
      </trkpt>
      <trkpt lat="47.74502" lon="-3.35354">
        <ele>11.9</ele>
        <time>2020-08-21T09:27:48.000Z</time>
      </trkpt>
      <trkpt lat="47.74502" lon="-3.35355">
        <ele>11.9</ele>
        <time>2020-08-21T09:27:49.000Z</time>
      </trkpt>
      <trkpt lat="47.74502" lon="-3.35357">
        <ele>11.9</ele>
        <time>2020-08-21T09:27:50.000Z</time>
      </trkpt>
      <trkpt lat="47.74502" lon="-3.35358">
        <ele>11.9</ele>
        <time>2020-08-21T09:27:51.000Z</time>
      </trkpt>
      <trkpt lat="47.74502" lon="-3.3536">
        <ele>11.9</ele>
        <time>2020-08-21T09:27:52.000Z</time>
      </trkpt>
      <trkpt lat="47.74503" lon="-3.35361">
        <ele>11.9</ele>
        <time>2020-08-21T09:27:53.000Z</time>
      </trkpt>
      <trkpt lat="47.74503" lon="-3.35363">
        <ele>11.9</ele>
        <time>2020-08-21T09:27:54.000Z</time>
      </trkpt>
      <trkpt lat="47.74503" lon="-3.35364">
        <ele>11.9</ele>
        <time>2020-08-21T09:27:55.000Z</time>
      </trkpt>
      <trkpt lat="47.74502" lon="-3.35365">
        <ele>11.9</ele>
        <time>2020-08-21T09:27:56.000Z</time>
      </trkpt>
      <trkpt lat="47.74502" lon="-3.35367">
        <ele>11.9</ele>
        <time>2020-08-21T09:27:57.000Z</time>
      </trkpt>
      <trkpt lat="47.74501" lon="-3.35367">
        <ele>12</ele>
        <time>2020-08-21T09:27:58.000Z</time>
      </trkpt>
      <trkpt lat="47.74501" lon="-3.35368">
        <ele>12</ele>
        <time>2020-08-21T09:27:59.000Z</time>
      </trkpt>
      <trkpt lat="47.745" lon="-3.35368">
        <ele>12</ele>
        <time>2020-08-21T09:28:00.000Z</time>
      </trkpt>
      <trkpt lat="47.74499" lon="-3.35368">
        <ele>11.9</ele>
        <time>2020-08-21T09:28:01.000Z</time>
      </trkpt>
      <trkpt lat="47.74499" lon="-3.35368">
        <ele>11.9</ele>
        <time>2020-08-21T09:28:02.000Z</time>
      </trkpt>
      <trkpt lat="47.74498" lon="-3.35367">
        <ele>11.8</ele>
        <time>2020-08-21T09:28:03.000Z</time>
      </trkpt>
      <trkpt lat="47.74498" lon="-3.35366">
        <ele>11.8</ele>
        <time>2020-08-21T09:28:04.000Z</time>
      </trkpt>
      <trkpt lat="47.74497" lon="-3.35364">
        <ele>11.8</ele>
        <time>2020-08-21T09:28:05.000Z</time>
      </trkpt>
      <trkpt lat="47.74497" lon="-3.35362">
        <ele>11.7</ele>
        <time>2020-08-21T09:28:06.000Z</time>
      </trkpt>
      <trkpt lat="47.74497" lon="-3.3536">
        <ele>11.7</ele>
        <time>2020-08-21T09:28:07.000Z</time>
      </trkpt>
      <trkpt lat="47.74496" lon="-3.35358">
        <ele>11.7</ele>
        <time>2020-08-21T09:28:08.000Z</time>
      </trkpt>
      <trkpt lat="47.74496" lon="-3.35357">
        <ele>11.7</ele>
        <time>2020-08-21T09:28:09.000Z</time>
      </trkpt>
      <trkpt lat="47.74496" lon="-3.35355">
        <ele>11.7</ele>
        <time>2020-08-21T09:28:10.000Z</time>
      </trkpt>
      <trkpt lat="47.74496" lon="-3.35353">
        <ele>11.7</ele>
        <time>2020-08-21T09:28:11.000Z</time>
      </trkpt>
      <trkpt lat="47.74496" lon="-3.35351">
        <ele>11.7</ele>
        <time>2020-08-21T09:28:12.000Z</time>
      </trkpt>
      <trkpt lat="47.74496" lon="-3.35349">
        <ele>11.7</ele>
        <time>2020-08-21T09:28:13.000Z</time>
      </trkpt>
      <trkpt lat="47.74496" lon="-3.35348">
        <ele>11.7</ele>
        <time>2020-08-21T09:28:14.000Z</time>
      </trkpt>
      <trkpt lat="47.74496" lon="-3.35346">
        <ele>11.7</ele>
        <time>2020-08-21T09:28:15.000Z</time>
      </trkpt>
      <trkpt lat="47.74497" lon="-3.35344">
        <ele>11.7</ele>
        <time>2020-08-21T09:28:16.000Z</time>
      </trkpt>
      <trkpt lat="47.74497" lon="-3.35342">
        <ele>11.7</ele>
        <time>2020-08-21T09:28:17.000Z</time>
      </trkpt>
      <trkpt lat="47.74497" lon="-3.3534">
        <ele>11.8</ele>
        <time>2020-08-21T09:28:18.000Z</time>
      </trkpt>
      <trkpt lat="47.74497" lon="-3.35339">
        <ele>11.8</ele>
        <time>2020-08-21T09:28:19.000Z</time>
      </trkpt>
      <trkpt lat="47.74498" lon="-3.35337">
        <ele>11.8</ele>
        <time>2020-08-21T09:28:20.000Z</time>
      </trkpt>
      <trkpt lat="47.74498" lon="-3.35335">
        <ele>11.8</ele>
        <time>2020-08-21T09:28:21.000Z</time>
      </trkpt>
      <trkpt lat="47.74498" lon="-3.35333">
        <ele>11.8</ele>
        <time>2020-08-21T09:28:22.000Z</time>
      </trkpt>
      <trkpt lat="47.74499" lon="-3.35331">
        <ele>11.8</ele>
        <time>2020-08-21T09:28:23.000Z</time>
      </trkpt>
      <trkpt lat="47.74499" lon="-3.35329">
        <ele>11.7</ele>
        <time>2020-08-21T09:28:24.000Z</time>
      </trkpt>
      <trkpt lat="47.74499" lon="-3.35328">
        <ele>11.7</ele>
        <time>2020-08-21T09:28:25.000Z</time>
      </trkpt>
      <trkpt lat="47.745" lon="-3.35326">
        <ele>11.6</ele>
        <time>2020-08-21T09:28:26.000Z</time>
      </trkpt>
      <trkpt lat="47.745" lon="-3.35324">
        <ele>11.5</ele>
        <time>2020-08-21T09:28:27.000Z</time>
      </trkpt>
      <trkpt lat="47.745" lon="-3.35322">
        <ele>11.4</ele>
        <time>2020-08-21T09:28:28.000Z</time>
      </trkpt>
      <trkpt lat="47.74501" lon="-3.3532">
        <ele>11.3</ele>
        <time>2020-08-21T09:28:29.000Z</time>
      </trkpt>
      <trkpt lat="47.74501" lon="-3.35318">
        <ele>11.2</ele>
        <time>2020-08-21T09:28:30.000Z</time>
      </trkpt>
      <trkpt lat="47.74502" lon="-3.35316">
        <ele>11.1</ele>
        <time>2020-08-21T09:28:31.000Z</time>
      </trkpt>
      <trkpt lat="47.74502" lon="-3.35314">
        <ele>11</ele>
        <time>2020-08-21T09:28:32.000Z</time>
      </trkpt>
      <trkpt lat="47.74502" lon="-3.35312">
        <ele>10.9</ele>
        <time>2020-08-21T09:28:33.000Z</time>
      </trkpt>
      <trkpt lat="47.74502" lon="-3.35311">
        <ele>10.8</ele>
        <time>2020-08-21T09:28:34.000Z</time>
      </trkpt>
      <trkpt lat="47.74502" lon="-3.35309">
        <ele>10.8</ele>
        <time>2020-08-21T09:28:35.000Z</time>
      </trkpt>
      <trkpt lat="47.74502" lon="-3.35308">
        <ele>10.7</ele>
        <time>2020-08-21T09:28:36.000Z</time>
      </trkpt>
      <trkpt lat="47.74502" lon="-3.35307">
        <ele>10.7</ele>
        <time>2020-08-21T09:28:37.000Z</time>
      </trkpt>
      <trkpt lat="47.74502" lon="-3.35306">
        <ele>10.6</ele>
        <time>2020-08-21T09:28:38.000Z</time>
      </trkpt>
      <trkpt lat="47.74502" lon="-3.35305">
        <ele>10.6</ele>
        <time>2020-08-21T09:28:39.000Z</time>
      </trkpt>
      <trkpt lat="47.74502" lon="-3.35304">
        <ele>10.5</ele>
        <time>2020-08-21T09:28:40.000Z</time>
      </trkpt>
      <trkpt lat="47.74502" lon="-3.35303">
        <ele>10.5</ele>
        <time>2020-08-21T09:28:41.000Z</time>
      </trkpt>
      <trkpt lat="47.74502" lon="-3.35301">
        <ele>10.4</ele>
        <time>2020-08-21T09:28:42.000Z</time>
      </trkpt>
      <trkpt lat="47.74502" lon="-3.353">
        <ele>10.3</ele>
        <time>2020-08-21T09:28:43.000Z</time>
      </trkpt>
      <trkpt lat="47.74503" lon="-3.35298">
        <ele>10.2</ele>
        <time>2020-08-21T09:28:44.000Z</time>
      </trkpt>
      <trkpt lat="47.74503" lon="-3.35297">
        <ele>10.1</ele>
        <time>2020-08-21T09:28:45.000Z</time>
      </trkpt>
      <trkpt lat="47.74504" lon="-3.35295">
        <ele>10</ele>
        <time>2020-08-21T09:28:46.000Z</time>
      </trkpt>
      <trkpt lat="47.74504" lon="-3.35293">
        <ele>9.9</ele>
        <time>2020-08-21T09:28:47.000Z</time>
      </trkpt>
      <trkpt lat="47.74505" lon="-3.35292">
        <ele>9.9</ele>
        <time>2020-08-21T09:28:48.000Z</time>
      </trkpt>
      <trkpt lat="47.74505" lon="-3.3529">
        <ele>9.8</ele>
        <time>2020-08-21T09:28:49.000Z</time>
      </trkpt>
      <trkpt lat="47.74506" lon="-3.35289">
        <ele>9.7</ele>
        <time>2020-08-21T09:28:50.000Z</time>
      </trkpt>
      <trkpt lat="47.74506" lon="-3.35287">
        <ele>9.6</ele>
        <time>2020-08-21T09:28:51.000Z</time>
      </trkpt>
      <trkpt lat="47.74507" lon="-3.35286">
        <ele>9.5</ele>
        <time>2020-08-21T09:28:52.000Z</time>
      </trkpt>
      <trkpt lat="47.74507" lon="-3.35285">
        <ele>9.5</ele>
        <time>2020-08-21T09:28:53.000Z</time>
      </trkpt>
      <trkpt lat="47.74507" lon="-3.35284">
        <ele>9.5</ele>
        <time>2020-08-21T09:28:54.000Z</time>
      </trkpt>
      <trkpt lat="47.74507" lon="-3.35284">
        <ele>9.4</ele>
        <time>2020-08-21T09:28:55.000Z</time>
      </trkpt>
      <trkpt lat="47.74507" lon="-3.35283">
        <ele>9.4</ele>
        <time>2020-08-21T09:28:56.000Z</time>
      </trkpt>
      <trkpt lat="47.74507" lon="-3.35282">
        <ele>9.3</ele>
        <time>2020-08-21T09:28:57.000Z</time>
      </trkpt>
      <trkpt lat="47.74507" lon="-3.35281">
        <ele>9.3</ele>
        <time>2020-08-21T09:28:58.000Z</time>
      </trkpt>
      <trkpt lat="47.74507" lon="-3.35279">
        <ele>9.2</ele>
        <time>2020-08-21T09:28:59.000Z</time>
      </trkpt>
      <trkpt lat="47.74507" lon="-3.35278">
        <ele>9.1</ele>
        <time>2020-08-21T09:29:00.000Z</time>
      </trkpt>
      <trkpt lat="47.74507" lon="-3.35276">
        <ele>9.1</ele>
        <time>2020-08-21T09:29:01.000Z</time>
      </trkpt>
      <trkpt lat="47.74506" lon="-3.35274">
        <ele>9</ele>
        <time>2020-08-21T09:29:02.000Z</time>
      </trkpt>
      <trkpt lat="47.74506" lon="-3.35272">
        <ele>8.9</ele>
        <time>2020-08-21T09:29:03.000Z</time>
      </trkpt>
      <trkpt lat="47.74506" lon="-3.3527">
        <ele>8.8</ele>
        <time>2020-08-21T09:29:04.000Z</time>
      </trkpt>
      <trkpt lat="47.74506" lon="-3.35268">
        <ele>8.7</ele>
        <time>2020-08-21T09:29:05.000Z</time>
      </trkpt>
      <trkpt lat="47.74507" lon="-3.35267">
        <ele>8.6</ele>
        <time>2020-08-21T09:29:06.000Z</time>
      </trkpt>
      <trkpt lat="47.74507" lon="-3.35265">
        <ele>8.5</ele>
        <time>2020-08-21T09:29:07.000Z</time>
      </trkpt>
      <trkpt lat="47.74507" lon="-3.35263">
        <ele>8.5</ele>
        <time>2020-08-21T09:29:08.000Z</time>
      </trkpt>
      <trkpt lat="47.74507" lon="-3.35262">
        <ele>8.4</ele>
        <time>2020-08-21T09:29:09.000Z</time>
      </trkpt>
      <trkpt lat="47.74508" lon="-3.3526">
        <ele>8.3</ele>
        <time>2020-08-21T09:29:10.000Z</time>
      </trkpt>
      <trkpt lat="47.74509" lon="-3.35258">
        <ele>8.2</ele>
        <time>2020-08-21T09:29:11.000Z</time>
      </trkpt>
      <trkpt lat="47.74509" lon="-3.35257">
        <ele>8.1</ele>
        <time>2020-08-21T09:29:12.000Z</time>
      </trkpt>
      <trkpt lat="47.74509" lon="-3.35255">
        <ele>8</ele>
        <time>2020-08-21T09:29:13.000Z</time>
      </trkpt>
      <trkpt lat="47.74509" lon="-3.35254">
        <ele>7.9</ele>
        <time>2020-08-21T09:29:14.000Z</time>
      </trkpt>
      <trkpt lat="47.74509" lon="-3.35252">
        <ele>7.9</ele>
        <time>2020-08-21T09:29:15.000Z</time>
      </trkpt>
      <trkpt lat="47.74508" lon="-3.35251">
        <ele>7.9</ele>
        <time>2020-08-21T09:29:16.000Z</time>
      </trkpt>
      <trkpt lat="47.74507" lon="-3.3525">
        <ele>7.8</ele>
        <time>2020-08-21T09:29:17.000Z</time>
      </trkpt>
      <trkpt lat="47.74505" lon="-3.35249">
        <ele>7.8</ele>
        <time>2020-08-21T09:29:18.000Z</time>
      </trkpt>
      <trkpt lat="47.74504" lon="-3.35248">
        <ele>7.9</ele>
        <time>2020-08-21T09:29:19.000Z</time>
      </trkpt>
      <trkpt lat="47.74502" lon="-3.35247">
        <ele>7.9</ele>
        <time>2020-08-21T09:29:20.000Z</time>
      </trkpt>
      <trkpt lat="47.74501" lon="-3.35246">
        <ele>7.9</ele>
        <time>2020-08-21T09:29:21.000Z</time>
      </trkpt>
      <trkpt lat="47.74499" lon="-3.35245">
        <ele>7.9</ele>
        <time>2020-08-21T09:29:22.000Z</time>
      </trkpt>
      <trkpt lat="47.74498" lon="-3.35244">
        <ele>7.8</ele>
        <time>2020-08-21T09:29:23.000Z</time>
      </trkpt>
      <trkpt lat="47.74496" lon="-3.35243">
        <ele>7.7</ele>
        <time>2020-08-21T09:29:24.000Z</time>
      </trkpt>
      <trkpt lat="47.74495" lon="-3.35243">
        <ele>7.7</ele>
        <time>2020-08-21T09:29:25.000Z</time>
      </trkpt>
      <trkpt lat="47.74494" lon="-3.35242">
        <ele>7.6</ele>
        <time>2020-08-21T09:29:26.000Z</time>
      </trkpt>
      <trkpt lat="47.74492" lon="-3.35241">
        <ele>7.5</ele>
        <time>2020-08-21T09:29:27.000Z</time>
      </trkpt>
      <trkpt lat="47.74491" lon="-3.3524">
        <ele>7.5</ele>
        <time>2020-08-21T09:29:28.000Z</time>
      </trkpt>
      <trkpt lat="47.7449" lon="-3.35239">
        <ele>7.4</ele>
        <time>2020-08-21T09:29:29.000Z</time>
      </trkpt>
      <trkpt lat="47.74488" lon="-3.35238">
        <ele>7.4</ele>
        <time>2020-08-21T09:29:30.000Z</time>
      </trkpt>
      <trkpt lat="47.74487" lon="-3.35237">
        <ele>7.3</ele>
        <time>2020-08-21T09:29:31.000Z</time>
      </trkpt>
      <trkpt lat="47.74486" lon="-3.35237">
        <ele>7.2</ele>
        <time>2020-08-21T09:29:32.000Z</time>
      </trkpt>
      <trkpt lat="47.74485" lon="-3.35236">
        <ele>7.2</ele>
        <time>2020-08-21T09:29:33.000Z</time>
      </trkpt>
      <trkpt lat="47.74483" lon="-3.35235">
        <ele>7.1</ele>
        <time>2020-08-21T09:29:34.000Z</time>
      </trkpt>
      <trkpt lat="47.74482" lon="-3.35234">
        <ele>7.1</ele>
        <time>2020-08-21T09:29:35.000Z</time>
      </trkpt>
      <trkpt lat="47.74481" lon="-3.35233">
        <ele>7.1</ele>
        <time>2020-08-21T09:29:36.000Z</time>
      </trkpt>
      <trkpt lat="47.7448" lon="-3.35233">
        <ele>7</ele>
        <time>2020-08-21T09:29:37.000Z</time>
      </trkpt>
      <trkpt lat="47.74479" lon="-3.35232">
        <ele>7</ele>
        <time>2020-08-21T09:29:38.000Z</time>
      </trkpt>
      <trkpt lat="47.74478" lon="-3.35231">
        <ele>6.9</ele>
        <time>2020-08-21T09:29:39.000Z</time>
      </trkpt>
      <trkpt lat="47.74478" lon="-3.35231">
        <ele>6.9</ele>
        <time>2020-08-21T09:29:40.000Z</time>
      </trkpt>
      <trkpt lat="47.74477" lon="-3.3523">
        <ele>6.9</ele>
        <time>2020-08-21T09:29:41.000Z</time>
      </trkpt>
      <trkpt lat="47.74476" lon="-3.35229">
        <ele>6.8</ele>
        <time>2020-08-21T09:29:42.000Z</time>
      </trkpt>
      <trkpt lat="47.74475" lon="-3.35228">
        <ele>6.8</ele>
        <time>2020-08-21T09:29:43.000Z</time>
      </trkpt>
      <trkpt lat="47.74474" lon="-3.35228">
        <ele>6.8</ele>
        <time>2020-08-21T09:29:44.000Z</time>
      </trkpt>
      <trkpt lat="47.74473" lon="-3.35227">
        <ele>6.7</ele>
        <time>2020-08-21T09:29:45.000Z</time>
      </trkpt>
      <trkpt lat="47.74472" lon="-3.35226">
        <ele>6.7</ele>
        <time>2020-08-21T09:29:46.000Z</time>
      </trkpt>
      <trkpt lat="47.74471" lon="-3.35225">
        <ele>6.7</ele>
        <time>2020-08-21T09:29:47.000Z</time>
      </trkpt>
      <trkpt lat="47.7447" lon="-3.35225">
        <ele>6.6</ele>
        <time>2020-08-21T09:29:48.000Z</time>
      </trkpt>
      <trkpt lat="47.74469" lon="-3.35224">
        <ele>6.6</ele>
        <time>2020-08-21T09:29:49.000Z</time>
      </trkpt>
      <trkpt lat="47.74468" lon="-3.35223">
        <ele>6.6</ele>
        <time>2020-08-21T09:29:50.000Z</time>
      </trkpt>
      <trkpt lat="47.74466" lon="-3.35222">
        <ele>6.5</ele>
        <time>2020-08-21T09:29:51.000Z</time>
      </trkpt>
      <trkpt lat="47.74465" lon="-3.35221">
        <ele>6.5</ele>
        <time>2020-08-21T09:29:52.000Z</time>
      </trkpt>
      <trkpt lat="47.74463" lon="-3.3522">
        <ele>6.4</ele>
        <time>2020-08-21T09:29:53.000Z</time>
      </trkpt>
      <trkpt lat="47.74462" lon="-3.35219">
        <ele>6.4</ele>
        <time>2020-08-21T09:29:54.000Z</time>
      </trkpt>
      <trkpt lat="47.74461" lon="-3.35218">
        <ele>6.4</ele>
        <time>2020-08-21T09:29:55.000Z</time>
      </trkpt>
      <trkpt lat="47.74459" lon="-3.35217">
        <ele>6.3</ele>
        <time>2020-08-21T09:29:56.000Z</time>
      </trkpt>
      <trkpt lat="47.74458" lon="-3.35216">
        <ele>6.3</ele>
        <time>2020-08-21T09:29:57.000Z</time>
      </trkpt>
      <trkpt lat="47.74456" lon="-3.35215">
        <ele>6.2</ele>
        <time>2020-08-21T09:29:58.000Z</time>
      </trkpt>
      <trkpt lat="47.74455" lon="-3.35214">
        <ele>6.2</ele>
        <time>2020-08-21T09:29:59.000Z</time>
      </trkpt>
      <trkpt lat="47.74454" lon="-3.35213">
        <ele>6.2</ele>
        <time>2020-08-21T09:30:00.000Z</time>
      </trkpt>
      <trkpt lat="47.74452" lon="-3.35213">
        <ele>6.2</ele>
        <time>2020-08-21T09:30:01.000Z</time>
      </trkpt>
      <trkpt lat="47.74451" lon="-3.35212">
        <ele>6.1</ele>
        <time>2020-08-21T09:30:02.000Z</time>
      </trkpt>
      <trkpt lat="47.7445" lon="-3.35211">
        <ele>6.1</ele>
        <time>2020-08-21T09:30:03.000Z</time>
      </trkpt>
      <trkpt lat="47.74449" lon="-3.3521">
        <ele>6.1</ele>
        <time>2020-08-21T09:30:04.000Z</time>
      </trkpt>
      <trkpt lat="47.74448" lon="-3.3521">
        <ele>6.1</ele>
        <time>2020-08-21T09:30:05.000Z</time>
      </trkpt>
      <trkpt lat="47.74447" lon="-3.35209">
        <ele>6</ele>
        <time>2020-08-21T09:30:06.000Z</time>
      </trkpt>
      <trkpt lat="47.74446" lon="-3.35208">
        <ele>6</ele>
        <time>2020-08-21T09:30:07.000Z</time>
      </trkpt>
      <trkpt lat="47.74444" lon="-3.35207">
        <ele>6</ele>
        <time>2020-08-21T09:30:08.000Z</time>
      </trkpt>
      <trkpt lat="47.74443" lon="-3.35206">
        <ele>6</ele>
        <time>2020-08-21T09:30:09.000Z</time>
      </trkpt>
      <trkpt lat="47.74442" lon="-3.35205">
        <ele>6</ele>
        <time>2020-08-21T09:30:10.000Z</time>
      </trkpt>
      <trkpt lat="47.7444" lon="-3.35204">
        <ele>5.9</ele>
        <time>2020-08-21T09:30:11.000Z</time>
      </trkpt>
      <trkpt lat="47.74439" lon="-3.35203">
        <ele>5.9</ele>
        <time>2020-08-21T09:30:12.000Z</time>
      </trkpt>
      <trkpt lat="47.74438" lon="-3.35202">
        <ele>5.9</ele>
        <time>2020-08-21T09:30:13.000Z</time>
      </trkpt>
      <trkpt lat="47.74436" lon="-3.35201">
        <ele>5.9</ele>
        <time>2020-08-21T09:30:14.000Z</time>
      </trkpt>
      <trkpt lat="47.74435" lon="-3.352">
        <ele>5.9</ele>
        <time>2020-08-21T09:30:15.000Z</time>
      </trkpt>
      <trkpt lat="47.74434" lon="-3.352">
        <ele>5.8</ele>
        <time>2020-08-21T09:30:16.000Z</time>
      </trkpt>
      <trkpt lat="47.74433" lon="-3.35199">
        <ele>5.8</ele>
        <time>2020-08-21T09:30:17.000Z</time>
      </trkpt>
      <trkpt lat="47.74432" lon="-3.35198">
        <ele>5.8</ele>
        <time>2020-08-21T09:30:18.000Z</time>
      </trkpt>
      <trkpt lat="47.74431" lon="-3.35197">
        <ele>5.8</ele>
        <time>2020-08-21T09:30:19.000Z</time>
      </trkpt>
      <trkpt lat="47.7443" lon="-3.35196">
        <ele>5.8</ele>
        <time>2020-08-21T09:30:20.000Z</time>
      </trkpt>
      <trkpt lat="47.74429" lon="-3.35196">
        <ele>5.8</ele>
        <time>2020-08-21T09:30:21.000Z</time>
      </trkpt>
      <trkpt lat="47.74428" lon="-3.35195">
        <ele>5.8</ele>
        <time>2020-08-21T09:30:22.000Z</time>
      </trkpt>
      <trkpt lat="47.74427" lon="-3.35195">
        <ele>5.8</ele>
        <time>2020-08-21T09:30:23.000Z</time>
      </trkpt>
      <trkpt lat="47.74426" lon="-3.35194">
        <ele>5.8</ele>
        <time>2020-08-21T09:30:24.000Z</time>
      </trkpt>
      <trkpt lat="47.74425" lon="-3.35193">
        <ele>5.8</ele>
        <time>2020-08-21T09:30:25.000Z</time>
      </trkpt>
      <trkpt lat="47.74424" lon="-3.35193">
        <ele>5.8</ele>
        <time>2020-08-21T09:30:26.000Z</time>
      </trkpt>
      <trkpt lat="47.74423" lon="-3.35192">
        <ele>5.8</ele>
        <time>2020-08-21T09:30:27.000Z</time>
      </trkpt>
      <trkpt lat="47.74423" lon="-3.35192">
        <ele>5.8</ele>
        <time>2020-08-21T09:30:28.000Z</time>
      </trkpt>
      <trkpt lat="47.74422" lon="-3.35191">
        <ele>5.8</ele>
        <time>2020-08-21T09:30:29.000Z</time>
      </trkpt>
      <trkpt lat="47.7442" lon="-3.35191">
        <ele>5.7</ele>
        <time>2020-08-21T09:30:30.000Z</time>
      </trkpt>
      <trkpt lat="47.74419" lon="-3.3519">
        <ele>5.7</ele>
        <time>2020-08-21T09:30:31.000Z</time>
      </trkpt>
      <trkpt lat="47.74418" lon="-3.3519">
        <ele>5.7</ele>
        <time>2020-08-21T09:30:32.000Z</time>
      </trkpt>
      <trkpt lat="47.74417" lon="-3.35189">
        <ele>5.7</ele>
        <time>2020-08-21T09:30:33.000Z</time>
      </trkpt>
      <trkpt lat="47.74416" lon="-3.35189">
        <ele>5.7</ele>
        <time>2020-08-21T09:30:34.000Z</time>
      </trkpt>
      <trkpt lat="47.74415" lon="-3.35189">
        <ele>5.6</ele>
        <time>2020-08-21T09:30:35.000Z</time>
      </trkpt>
      <trkpt lat="47.74414" lon="-3.35188">
        <ele>5.6</ele>
        <time>2020-08-21T09:30:36.000Z</time>
      </trkpt>
      <trkpt lat="47.74413" lon="-3.35188">
        <ele>5.5</ele>
        <time>2020-08-21T09:30:37.000Z</time>
      </trkpt>
      <trkpt lat="47.74412" lon="-3.35187">
        <ele>5.5</ele>
        <time>2020-08-21T09:30:38.000Z</time>
      </trkpt>
      <trkpt lat="47.7441" lon="-3.35187">
        <ele>5.4</ele>
        <time>2020-08-21T09:30:39.000Z</time>
      </trkpt>
      <trkpt lat="47.74409" lon="-3.35187">
        <ele>5.3</ele>
        <time>2020-08-21T09:30:40.000Z</time>
      </trkpt>
      <trkpt lat="47.74408" lon="-3.35186">
        <ele>5.3</ele>
        <time>2020-08-21T09:30:41.000Z</time>
      </trkpt>
      <trkpt lat="47.74407" lon="-3.35186">
        <ele>5.2</ele>
        <time>2020-08-21T09:30:42.000Z</time>
      </trkpt>
      <trkpt lat="47.74406" lon="-3.35186">
        <ele>5.1</ele>
        <time>2020-08-21T09:30:43.000Z</time>
      </trkpt>
      <trkpt lat="47.74404" lon="-3.35185">
        <ele>5.1</ele>
        <time>2020-08-21T09:30:44.000Z</time>
      </trkpt>
      <trkpt lat="47.74403" lon="-3.35185">
        <ele>5</ele>
        <time>2020-08-21T09:30:45.000Z</time>
      </trkpt>
      <trkpt lat="47.74402" lon="-3.35184">
        <ele>4.9</ele>
        <time>2020-08-21T09:30:46.000Z</time>
      </trkpt>
      <trkpt lat="47.74401" lon="-3.35184">
        <ele>4.9</ele>
        <time>2020-08-21T09:30:47.000Z</time>
      </trkpt>
      <trkpt lat="47.744" lon="-3.35183">
        <ele>4.8</ele>
        <time>2020-08-21T09:30:48.000Z</time>
      </trkpt>
      <trkpt lat="47.74399" lon="-3.35183">
        <ele>4.8</ele>
        <time>2020-08-21T09:30:49.000Z</time>
      </trkpt>
      <trkpt lat="47.74397" lon="-3.35182">
        <ele>4.7</ele>
        <time>2020-08-21T09:30:50.000Z</time>
      </trkpt>
      <trkpt lat="47.74396" lon="-3.35182">
        <ele>4.6</ele>
        <time>2020-08-21T09:30:51.000Z</time>
      </trkpt>
      <trkpt lat="47.74395" lon="-3.35182">
        <ele>4.5</ele>
        <time>2020-08-21T09:30:52.000Z</time>
      </trkpt>
      <trkpt lat="47.74393" lon="-3.35182">
        <ele>4.5</ele>
        <time>2020-08-21T09:30:53.000Z</time>
      </trkpt>
      <trkpt lat="47.74392" lon="-3.35181">
        <ele>4.4</ele>
        <time>2020-08-21T09:30:54.000Z</time>
      </trkpt>
      <trkpt lat="47.7439" lon="-3.35181">
        <ele>4.3</ele>
        <time>2020-08-21T09:30:55.000Z</time>
      </trkpt>
      <trkpt lat="47.74389" lon="-3.35181">
        <ele>4.2</ele>
        <time>2020-08-21T09:30:56.000Z</time>
      </trkpt>
      <trkpt lat="47.74387" lon="-3.3518">
        <ele>4.1</ele>
        <time>2020-08-21T09:30:57.000Z</time>
      </trkpt>
      <trkpt lat="47.74386" lon="-3.3518">
        <ele>4.1</ele>
        <time>2020-08-21T09:30:58.000Z</time>
      </trkpt>
      <trkpt lat="47.74385" lon="-3.3518">
        <ele>4</ele>
        <time>2020-08-21T09:30:59.000Z</time>
      </trkpt>
      <trkpt lat="47.74384" lon="-3.35179">
        <ele>3.9</ele>
        <time>2020-08-21T09:31:00.000Z</time>
      </trkpt>
      <trkpt lat="47.74382" lon="-3.35179">
        <ele>3.9</ele>
        <time>2020-08-21T09:31:01.000Z</time>
      </trkpt>
      <trkpt lat="47.74381" lon="-3.35178">
        <ele>3.8</ele>
        <time>2020-08-21T09:31:02.000Z</time>
      </trkpt>
      <trkpt lat="47.7438" lon="-3.35178">
        <ele>3.7</ele>
        <time>2020-08-21T09:31:03.000Z</time>
      </trkpt>
      <trkpt lat="47.74379" lon="-3.35178">
        <ele>3.6</ele>
        <time>2020-08-21T09:31:04.000Z</time>
      </trkpt>
      <trkpt lat="47.74377" lon="-3.35178">
        <ele>3.6</ele>
        <time>2020-08-21T09:31:05.000Z</time>
      </trkpt>
      <trkpt lat="47.74376" lon="-3.35178">
        <ele>3.5</ele>
        <time>2020-08-21T09:31:06.000Z</time>
      </trkpt>
      <trkpt lat="47.74375" lon="-3.35178">
        <ele>3.4</ele>
        <time>2020-08-21T09:31:07.000Z</time>
      </trkpt>
      <trkpt lat="47.74374" lon="-3.35178">
        <ele>3.3</ele>
        <time>2020-08-21T09:31:08.000Z</time>
      </trkpt>
      <trkpt lat="47.74372" lon="-3.35178">
        <ele>3.3</ele>
        <time>2020-08-21T09:31:09.000Z</time>
      </trkpt>
      <trkpt lat="47.74371" lon="-3.35179">
        <ele>3.2</ele>
        <time>2020-08-21T09:31:10.000Z</time>
      </trkpt>
      <trkpt lat="47.7437" lon="-3.35179">
        <ele>3.1</ele>
        <time>2020-08-21T09:31:11.000Z</time>
      </trkpt>
      <trkpt lat="47.74368" lon="-3.3518">
        <ele>3</ele>
        <time>2020-08-21T09:31:12.000Z</time>
      </trkpt>
      <trkpt lat="47.74367" lon="-3.35181">
        <ele>3</ele>
        <time>2020-08-21T09:31:13.000Z</time>
      </trkpt>
      <trkpt lat="47.74366" lon="-3.35182">
        <ele>2.9</ele>
        <time>2020-08-21T09:31:14.000Z</time>
      </trkpt>
      <trkpt lat="47.74365" lon="-3.35183">
        <ele>2.8</ele>
        <time>2020-08-21T09:31:15.000Z</time>
      </trkpt>
      <trkpt lat="47.74364" lon="-3.35185">
        <ele>2.7</ele>
        <time>2020-08-21T09:31:16.000Z</time>
      </trkpt>
      <trkpt lat="47.74363" lon="-3.35186">
        <ele>2.7</ele>
        <time>2020-08-21T09:31:17.000Z</time>
      </trkpt>
      <trkpt lat="47.74362" lon="-3.35187">
        <ele>2.6</ele>
        <time>2020-08-21T09:31:18.000Z</time>
      </trkpt>
      <trkpt lat="47.74361" lon="-3.35189">
        <ele>2.6</ele>
        <time>2020-08-21T09:31:19.000Z</time>
      </trkpt>
      <trkpt lat="47.7436" lon="-3.35191">
        <ele>2.5</ele>
        <time>2020-08-21T09:31:20.000Z</time>
      </trkpt>
      <trkpt lat="47.74359" lon="-3.35193">
        <ele>2.5</ele>
        <time>2020-08-21T09:31:21.000Z</time>
      </trkpt>
      <trkpt lat="47.74359" lon="-3.35195">
        <ele>2.4</ele>
        <time>2020-08-21T09:31:22.000Z</time>
      </trkpt>
      <trkpt lat="47.74358" lon="-3.35197">
        <ele>2.4</ele>
        <time>2020-08-21T09:31:23.000Z</time>
      </trkpt>
      <trkpt lat="47.74357" lon="-3.35199">
        <ele>2.3</ele>
        <time>2020-08-21T09:31:24.000Z</time>
      </trkpt>
      <trkpt lat="47.74357" lon="-3.35202">
        <ele>2.3</ele>
        <time>2020-08-21T09:31:25.000Z</time>
      </trkpt>
      <trkpt lat="47.74356" lon="-3.35204">
        <ele>2.3</ele>
        <time>2020-08-21T09:31:26.000Z</time>
      </trkpt>
      <trkpt lat="47.74356" lon="-3.35207">
        <ele>2.2</ele>
        <time>2020-08-21T09:31:27.000Z</time>
      </trkpt>
      <trkpt lat="47.74356" lon="-3.35209">
        <ele>2.2</ele>
        <time>2020-08-21T09:31:28.000Z</time>
      </trkpt>
      <trkpt lat="47.74356" lon="-3.35212">
        <ele>2.2</ele>
        <time>2020-08-21T09:31:29.000Z</time>
      </trkpt>
      <trkpt lat="47.74356" lon="-3.35214">
        <ele>2.2</ele>
        <time>2020-08-21T09:31:30.000Z</time>
      </trkpt>
      <trkpt lat="47.74356" lon="-3.35217">
        <ele>2.2</ele>
        <time>2020-08-21T09:31:31.000Z</time>
      </trkpt>
      <trkpt lat="47.74357" lon="-3.35219">
        <ele>2.2</ele>
        <time>2020-08-21T09:31:32.000Z</time>
      </trkpt>
      <trkpt lat="47.74357" lon="-3.35221">
        <ele>2.2</ele>
        <time>2020-08-21T09:31:33.000Z</time>
      </trkpt>
      <trkpt lat="47.74357" lon="-3.35224">
        <ele>2.2</ele>
        <time>2020-08-21T09:31:34.000Z</time>
      </trkpt>
      <trkpt lat="47.74357" lon="-3.35226">
        <ele>2.2</ele>
        <time>2020-08-21T09:31:35.000Z</time>
      </trkpt>
      <trkpt lat="47.74358" lon="-3.35228">
        <ele>2.2</ele>
        <time>2020-08-21T09:31:36.000Z</time>
      </trkpt>
      <trkpt lat="47.74358" lon="-3.3523">
        <ele>2.2</ele>
        <time>2020-08-21T09:31:37.000Z</time>
      </trkpt>
      <trkpt lat="47.74358" lon="-3.35232">
        <ele>2.2</ele>
        <time>2020-08-21T09:31:38.000Z</time>
      </trkpt>
      <trkpt lat="47.74358" lon="-3.35234">
        <ele>2.2</ele>
        <time>2020-08-21T09:31:39.000Z</time>
      </trkpt>
      <trkpt lat="47.74358" lon="-3.35236">
        <ele>2.3</ele>
        <time>2020-08-21T09:31:40.000Z</time>
      </trkpt>
      <trkpt lat="47.74359" lon="-3.35238">
        <ele>2.3</ele>
        <time>2020-08-21T09:31:41.000Z</time>
      </trkpt>
      <trkpt lat="47.74359" lon="-3.3524">
        <ele>2.3</ele>
        <time>2020-08-21T09:31:42.000Z</time>
      </trkpt>
      <trkpt lat="47.7436" lon="-3.35241">
        <ele>2.3</ele>
        <time>2020-08-21T09:31:43.000Z</time>
      </trkpt>
      <trkpt lat="47.7436" lon="-3.35243">
        <ele>2.3</ele>
        <time>2020-08-21T09:31:44.000Z</time>
      </trkpt>
      <trkpt lat="47.74361" lon="-3.35245">
        <ele>2.3</ele>
        <time>2020-08-21T09:31:45.000Z</time>
      </trkpt>
      <trkpt lat="47.74362" lon="-3.35246">
        <ele>2.4</ele>
        <time>2020-08-21T09:31:46.000Z</time>
      </trkpt>
      <trkpt lat="47.74362" lon="-3.35248">
        <ele>2.4</ele>
        <time>2020-08-21T09:31:47.000Z</time>
      </trkpt>
      <trkpt lat="47.74363" lon="-3.3525">
        <ele>2.4</ele>
        <time>2020-08-21T09:31:48.000Z</time>
      </trkpt>
      <trkpt lat="47.74363" lon="-3.35251">
        <ele>2.4</ele>
        <time>2020-08-21T09:31:49.000Z</time>
      </trkpt>
      <trkpt lat="47.74364" lon="-3.35253">
        <ele>2.4</ele>
        <time>2020-08-21T09:31:50.000Z</time>
      </trkpt>
      <trkpt lat="47.74364" lon="-3.35255">
        <ele>2.4</ele>
        <time>2020-08-21T09:31:51.000Z</time>
      </trkpt>
      <trkpt lat="47.74365" lon="-3.35256">
        <ele>2.4</ele>
        <time>2020-08-21T09:31:52.000Z</time>
      </trkpt>
      <trkpt lat="47.74365" lon="-3.35258">
        <ele>2.5</ele>
        <time>2020-08-21T09:31:53.000Z</time>
      </trkpt>
      <trkpt lat="47.74365" lon="-3.3526">
        <ele>2.4</ele>
        <time>2020-08-21T09:31:54.000Z</time>
      </trkpt>
      <trkpt lat="47.74365" lon="-3.35261">
        <ele>2.4</ele>
        <time>2020-08-21T09:31:55.000Z</time>
      </trkpt>
      <trkpt lat="47.74365" lon="-3.35263">
        <ele>2.4</ele>
        <time>2020-08-21T09:31:56.000Z</time>
      </trkpt>
      <trkpt lat="47.74365" lon="-3.35265">
        <ele>2.4</ele>
        <time>2020-08-21T09:31:57.000Z</time>
      </trkpt>
      <trkpt lat="47.74365" lon="-3.35267">
        <ele>2.4</ele>
        <time>2020-08-21T09:31:58.000Z</time>
      </trkpt>
      <trkpt lat="47.74365" lon="-3.35268">
        <ele>2.4</ele>
        <time>2020-08-21T09:31:59.000Z</time>
      </trkpt>
      <trkpt lat="47.74365" lon="-3.3527">
        <ele>2.4</ele>
        <time>2020-08-21T09:32:00.000Z</time>
      </trkpt>
      <trkpt lat="47.74365" lon="-3.35272">
        <ele>2.4</ele>
        <time>2020-08-21T09:32:01.000Z</time>
      </trkpt>
      <trkpt lat="47.74365" lon="-3.35274">
        <ele>2.4</ele>
        <time>2020-08-21T09:32:02.000Z</time>
      </trkpt>
      <trkpt lat="47.74366" lon="-3.35276">
        <ele>2.4</ele>
        <time>2020-08-21T09:32:03.000Z</time>
      </trkpt>
      <trkpt lat="47.74366" lon="-3.35277">
        <ele>2.3</ele>
        <time>2020-08-21T09:32:04.000Z</time>
      </trkpt>
      <trkpt lat="47.74366" lon="-3.35279">
        <ele>2.3</ele>
        <time>2020-08-21T09:32:05.000Z</time>
      </trkpt>
      <trkpt lat="47.74366" lon="-3.35281">
        <ele>2.3</ele>
        <time>2020-08-21T09:32:06.000Z</time>
      </trkpt>
      <trkpt lat="47.74366" lon="-3.35283">
        <ele>2.3</ele>
        <time>2020-08-21T09:32:07.000Z</time>
      </trkpt>
      <trkpt lat="47.74366" lon="-3.35285">
        <ele>2.3</ele>
        <time>2020-08-21T09:32:08.000Z</time>
      </trkpt>
      <trkpt lat="47.74367" lon="-3.35286">
        <ele>2.3</ele>
        <time>2020-08-21T09:32:09.000Z</time>
      </trkpt>
      <trkpt lat="47.74367" lon="-3.35288">
        <ele>2.3</ele>
        <time>2020-08-21T09:32:10.000Z</time>
      </trkpt>
      <trkpt lat="47.74367" lon="-3.35289">
        <ele>2.3</ele>
        <time>2020-08-21T09:32:11.000Z</time>
      </trkpt>
      <trkpt lat="47.74367" lon="-3.35291">
        <ele>2.3</ele>
        <time>2020-08-21T09:32:12.000Z</time>
      </trkpt>
      <trkpt lat="47.74367" lon="-3.35292">
        <ele>2.3</ele>
        <time>2020-08-21T09:32:13.000Z</time>
      </trkpt>
      <trkpt lat="47.74367" lon="-3.35293">
        <ele>2.3</ele>
        <time>2020-08-21T09:32:14.000Z</time>
      </trkpt>
      <trkpt lat="47.74367" lon="-3.35295">
        <ele>2.3</ele>
        <time>2020-08-21T09:32:15.000Z</time>
      </trkpt>
      <trkpt lat="47.74367" lon="-3.35296">
        <ele>2.3</ele>
        <time>2020-08-21T09:32:16.000Z</time>
      </trkpt>
      <trkpt lat="47.74367" lon="-3.35297">
        <ele>2.3</ele>
        <time>2020-08-21T09:32:17.000Z</time>
      </trkpt>
      <trkpt lat="47.74367" lon="-3.35298">
        <ele>2.3</ele>
        <time>2020-08-21T09:32:18.000Z</time>
      </trkpt>
      <trkpt lat="47.74368" lon="-3.35299">
        <ele>2.3</ele>
        <time>2020-08-21T09:32:19.000Z</time>
      </trkpt>
      <trkpt lat="47.74368" lon="-3.35301">
        <ele>2.3</ele>
        <time>2020-08-21T09:32:20.000Z</time>
      </trkpt>
      <trkpt lat="47.74368" lon="-3.35303">
        <ele>2.3</ele>
        <time>2020-08-21T09:32:21.000Z</time>
      </trkpt>
      <trkpt lat="47.74369" lon="-3.35304">
        <ele>2.3</ele>
        <time>2020-08-21T09:32:22.000Z</time>
      </trkpt>
      <trkpt lat="47.74369" lon="-3.35306">
        <ele>2.3</ele>
        <time>2020-08-21T09:32:23.000Z</time>
      </trkpt>
      <trkpt lat="47.74369" lon="-3.35308">
        <ele>2.3</ele>
        <time>2020-08-21T09:32:24.000Z</time>
      </trkpt>
      <trkpt lat="47.74369" lon="-3.3531">
        <ele>2.3</ele>
        <time>2020-08-21T09:32:25.000Z</time>
      </trkpt>
      <trkpt lat="47.74369" lon="-3.35312">
        <ele>2.3</ele>
        <time>2020-08-21T09:32:26.000Z</time>
      </trkpt>
      <trkpt lat="47.74369" lon="-3.35314">
        <ele>2.3</ele>
        <time>2020-08-21T09:32:27.000Z</time>
      </trkpt>
      <trkpt lat="47.74369" lon="-3.35315">
        <ele>2.3</ele>
        <time>2020-08-21T09:32:28.000Z</time>
      </trkpt>
      <trkpt lat="47.74369" lon="-3.35317">
        <ele>2.2</ele>
        <time>2020-08-21T09:32:29.000Z</time>
      </trkpt>
      <trkpt lat="47.74369" lon="-3.35318">
        <ele>2.2</ele>
        <time>2020-08-21T09:32:30.000Z</time>
      </trkpt>
      <trkpt lat="47.74369" lon="-3.35318">
        <ele>2.2</ele>
        <time>2020-08-21T09:32:31.000Z</time>
      </trkpt>
      <trkpt lat="47.74369" lon="-3.35318">
        <ele>2.2</ele>
        <time>2020-08-21T09:32:32.000Z</time>
      </trkpt>
      <trkpt lat="47.74369" lon="-3.35318">
        <ele>2.2</ele>
        <time>2020-08-21T09:32:33.000Z</time>
      </trkpt>
      <trkpt lat="47.74369" lon="-3.35319">
        <ele>2.2</ele>
        <time>2020-08-21T09:32:34.000Z</time>
      </trkpt>
      <trkpt lat="47.74369" lon="-3.3532">
        <ele>2.2</ele>
        <time>2020-08-21T09:32:35.000Z</time>
      </trkpt>
      <trkpt lat="47.74369" lon="-3.35322">
        <ele>2.2</ele>
        <time>2020-08-21T09:32:36.000Z</time>
      </trkpt>
      <trkpt lat="47.7437" lon="-3.35323">
        <ele>2.2</ele>
        <time>2020-08-21T09:32:37.000Z</time>
      </trkpt>
      <trkpt lat="47.7437" lon="-3.35325">
        <ele>2.3</ele>
        <time>2020-08-21T09:32:38.000Z</time>
      </trkpt>
      <trkpt lat="47.7437" lon="-3.35327">
        <ele>2.3</ele>
        <time>2020-08-21T09:32:39.000Z</time>
      </trkpt>
      <trkpt lat="47.74371" lon="-3.35328">
        <ele>2.3</ele>
        <time>2020-08-21T09:32:40.000Z</time>
      </trkpt>
      <trkpt lat="47.74371" lon="-3.3533">
        <ele>2.3</ele>
        <time>2020-08-21T09:32:41.000Z</time>
      </trkpt>
      <trkpt lat="47.74371" lon="-3.35331">
        <ele>2.3</ele>
        <time>2020-08-21T09:32:42.000Z</time>
      </trkpt>
      <trkpt lat="47.74371" lon="-3.35333">
        <ele>2.3</ele>
        <time>2020-08-21T09:32:43.000Z</time>
      </trkpt>
      <trkpt lat="47.74372" lon="-3.35334">
        <ele>2.3</ele>
        <time>2020-08-21T09:32:44.000Z</time>
      </trkpt>
      <trkpt lat="47.74372" lon="-3.35336">
        <ele>2.4</ele>
        <time>2020-08-21T09:32:45.000Z</time>
      </trkpt>
      <trkpt lat="47.74373" lon="-3.35337">
        <ele>2.4</ele>
        <time>2020-08-21T09:32:46.000Z</time>
      </trkpt>
      <trkpt lat="47.74373" lon="-3.35339">
        <ele>2.5</ele>
        <time>2020-08-21T09:32:47.000Z</time>
      </trkpt>
      <trkpt lat="47.74374" lon="-3.3534">
        <ele>2.5</ele>
        <time>2020-08-21T09:32:48.000Z</time>
      </trkpt>
      <trkpt lat="47.74374" lon="-3.35342">
        <ele>2.6</ele>
        <time>2020-08-21T09:32:49.000Z</time>
      </trkpt>
      <trkpt lat="47.74375" lon="-3.35343">
        <ele>2.6</ele>
        <time>2020-08-21T09:32:50.000Z</time>
      </trkpt>
      <trkpt lat="47.74376" lon="-3.35345">
        <ele>2.7</ele>
        <time>2020-08-21T09:32:51.000Z</time>
      </trkpt>
      <trkpt lat="47.74377" lon="-3.35346">
        <ele>2.7</ele>
        <time>2020-08-21T09:32:52.000Z</time>
      </trkpt>
      <trkpt lat="47.74378" lon="-3.35347">
        <ele>2.8</ele>
        <time>2020-08-21T09:32:53.000Z</time>
      </trkpt>
      <trkpt lat="47.74378" lon="-3.35349">
        <ele>2.9</ele>
        <time>2020-08-21T09:32:54.000Z</time>
      </trkpt>
      <trkpt lat="47.74379" lon="-3.3535">
        <ele>3</ele>
        <time>2020-08-21T09:32:55.000Z</time>
      </trkpt>
      <trkpt lat="47.7438" lon="-3.35352">
        <ele>3</ele>
        <time>2020-08-21T09:32:56.000Z</time>
      </trkpt>
      <trkpt lat="47.74381" lon="-3.35353">
        <ele>3.1</ele>
        <time>2020-08-21T09:32:57.000Z</time>
      </trkpt>
      <trkpt lat="47.74382" lon="-3.35355">
        <ele>3.2</ele>
        <time>2020-08-21T09:32:58.000Z</time>
      </trkpt>
      <trkpt lat="47.74383" lon="-3.35356">
        <ele>3.2</ele>
        <time>2020-08-21T09:32:59.000Z</time>
      </trkpt>
      <trkpt lat="47.74383" lon="-3.35358">
        <ele>3.3</ele>
        <time>2020-08-21T09:33:00.000Z</time>
      </trkpt>
      <trkpt lat="47.74384" lon="-3.35359">
        <ele>3.4</ele>
        <time>2020-08-21T09:33:01.000Z</time>
      </trkpt>
      <trkpt lat="47.74385" lon="-3.35361">
        <ele>3.4</ele>
        <time>2020-08-21T09:33:02.000Z</time>
      </trkpt>
      <trkpt lat="47.74386" lon="-3.35363">
        <ele>3.5</ele>
        <time>2020-08-21T09:33:03.000Z</time>
      </trkpt>
      <trkpt lat="47.74387" lon="-3.35364">
        <ele>3.6</ele>
        <time>2020-08-21T09:33:04.000Z</time>
      </trkpt>
      <trkpt lat="47.74387" lon="-3.35366">
        <ele>3.6</ele>
        <time>2020-08-21T09:33:05.000Z</time>
      </trkpt>
      <trkpt lat="47.74388" lon="-3.35367">
        <ele>3.7</ele>
        <time>2020-08-21T09:33:06.000Z</time>
      </trkpt>
      <trkpt lat="47.74389" lon="-3.35369">
        <ele>3.8</ele>
        <time>2020-08-21T09:33:07.000Z</time>
      </trkpt>
      <trkpt lat="47.7439" lon="-3.3537">
        <ele>3.8</ele>
        <time>2020-08-21T09:33:08.000Z</time>
      </trkpt>
      <trkpt lat="47.74391" lon="-3.35372">
        <ele>3.9</ele>
        <time>2020-08-21T09:33:09.000Z</time>
      </trkpt>
      <trkpt lat="47.74391" lon="-3.35373">
        <ele>4</ele>
        <time>2020-08-21T09:33:10.000Z</time>
      </trkpt>
      <trkpt lat="47.74392" lon="-3.35375">
        <ele>4</ele>
        <time>2020-08-21T09:33:11.000Z</time>
      </trkpt>
      <trkpt lat="47.74393" lon="-3.35376">
        <ele>4.1</ele>
        <time>2020-08-21T09:33:12.000Z</time>
      </trkpt>
      <trkpt lat="47.74394" lon="-3.35378">
        <ele>4.2</ele>
        <time>2020-08-21T09:33:13.000Z</time>
      </trkpt>
      <trkpt lat="47.74395" lon="-3.35379">
        <ele>4.2</ele>
        <time>2020-08-21T09:33:14.000Z</time>
      </trkpt>
      <trkpt lat="47.74396" lon="-3.35381">
        <ele>4.3</ele>
        <time>2020-08-21T09:33:15.000Z</time>
      </trkpt>
      <trkpt lat="47.74397" lon="-3.35382">
        <ele>4.4</ele>
        <time>2020-08-21T09:33:16.000Z</time>
      </trkpt>
      <trkpt lat="47.74398" lon="-3.35384">
        <ele>4.5</ele>
        <time>2020-08-21T09:33:17.000Z</time>
      </trkpt>
      <trkpt lat="47.74398" lon="-3.35385">
        <ele>4.5</ele>
        <time>2020-08-21T09:33:18.000Z</time>
      </trkpt>
      <trkpt lat="47.74399" lon="-3.35387">
        <ele>4.6</ele>
        <time>2020-08-21T09:33:19.000Z</time>
      </trkpt>
      <trkpt lat="47.744" lon="-3.35389">
        <ele>4.7</ele>
        <time>2020-08-21T09:33:20.000Z</time>
      </trkpt>
      <trkpt lat="47.74401" lon="-3.3539">
        <ele>4.7</ele>
        <time>2020-08-21T09:33:21.000Z</time>
      </trkpt>
      <trkpt lat="47.74402" lon="-3.35392">
        <ele>4.8</ele>
        <time>2020-08-21T09:33:22.000Z</time>
      </trkpt>
      <trkpt lat="47.74403" lon="-3.35394">
        <ele>4.9</ele>
        <time>2020-08-21T09:33:23.000Z</time>
      </trkpt>
      <trkpt lat="47.74403" lon="-3.35396">
        <ele>4.9</ele>
        <time>2020-08-21T09:33:24.000Z</time>
      </trkpt>
      <trkpt lat="47.74404" lon="-3.35398">
        <ele>5</ele>
        <time>2020-08-21T09:33:25.000Z</time>
      </trkpt>
      <trkpt lat="47.74405" lon="-3.35399">
        <ele>5.1</ele>
        <time>2020-08-21T09:33:26.000Z</time>
      </trkpt>
      <trkpt lat="47.74405" lon="-3.35401">
        <ele>5.1</ele>
        <time>2020-08-21T09:33:27.000Z</time>
      </trkpt>
      <trkpt lat="47.74406" lon="-3.35403">
        <ele>5.2</ele>
        <time>2020-08-21T09:33:28.000Z</time>
      </trkpt>
      <trkpt lat="47.74406" lon="-3.35405">
        <ele>5.2</ele>
        <time>2020-08-21T09:33:29.000Z</time>
      </trkpt>
      <trkpt lat="47.74407" lon="-3.35407">
        <ele>5.3</ele>
        <time>2020-08-21T09:33:30.000Z</time>
      </trkpt>
      <trkpt lat="47.74407" lon="-3.35409">
        <ele>5.3</ele>
        <time>2020-08-21T09:33:31.000Z</time>
      </trkpt>
      <trkpt lat="47.74407" lon="-3.3541">
        <ele>5.3</ele>
        <time>2020-08-21T09:33:32.000Z</time>
      </trkpt>
      <trkpt lat="47.74407" lon="-3.35412">
        <ele>5.4</ele>
        <time>2020-08-21T09:33:33.000Z</time>
      </trkpt>
      <trkpt lat="47.74407" lon="-3.35414">
        <ele>5.4</ele>
        <time>2020-08-21T09:33:34.000Z</time>
      </trkpt>
      <trkpt lat="47.74407" lon="-3.35416">
        <ele>5.4</ele>
        <time>2020-08-21T09:33:35.000Z</time>
      </trkpt>
      <trkpt lat="47.74407" lon="-3.35418">
        <ele>5.4</ele>
        <time>2020-08-21T09:33:36.000Z</time>
      </trkpt>
      <trkpt lat="47.74407" lon="-3.35419">
        <ele>5.4</ele>
        <time>2020-08-21T09:33:37.000Z</time>
      </trkpt>
      <trkpt lat="47.74407" lon="-3.35421">
        <ele>5.3</ele>
        <time>2020-08-21T09:33:38.000Z</time>
      </trkpt>
      <trkpt lat="47.74407" lon="-3.35423">
        <ele>5.3</ele>
        <time>2020-08-21T09:33:39.000Z</time>
      </trkpt>
      <trkpt lat="47.74406" lon="-3.35425">
        <ele>5.2</ele>
        <time>2020-08-21T09:33:40.000Z</time>
      </trkpt>
      <trkpt lat="47.74406" lon="-3.35426">
        <ele>5.2</ele>
        <time>2020-08-21T09:33:41.000Z</time>
      </trkpt>
      <trkpt lat="47.74406" lon="-3.35428">
        <ele>5.1</ele>
        <time>2020-08-21T09:33:42.000Z</time>
      </trkpt>
      <trkpt lat="47.74406" lon="-3.3543">
        <ele>5.1</ele>
        <time>2020-08-21T09:33:43.000Z</time>
      </trkpt>
      <trkpt lat="47.74406" lon="-3.35432">
        <ele>5.1</ele>
        <time>2020-08-21T09:33:44.000Z</time>
      </trkpt>
      <trkpt lat="47.74406" lon="-3.35434">
        <ele>5</ele>
        <time>2020-08-21T09:33:45.000Z</time>
      </trkpt>
      <trkpt lat="47.74407" lon="-3.35436">
        <ele>5</ele>
        <time>2020-08-21T09:33:46.000Z</time>
      </trkpt>
      <trkpt lat="47.74407" lon="-3.35438">
        <ele>5</ele>
        <time>2020-08-21T09:33:47.000Z</time>
      </trkpt>
      <trkpt lat="47.74407" lon="-3.35439">
        <ele>4.9</ele>
        <time>2020-08-21T09:33:48.000Z</time>
      </trkpt>
      <trkpt lat="47.74407" lon="-3.35441">
        <ele>4.9</ele>
        <time>2020-08-21T09:33:49.000Z</time>
      </trkpt>
      <trkpt lat="47.74407" lon="-3.35443">
        <ele>4.9</ele>
        <time>2020-08-21T09:33:50.000Z</time>
      </trkpt>
      <trkpt lat="47.74407" lon="-3.35445">
        <ele>4.8</ele>
        <time>2020-08-21T09:33:51.000Z</time>
      </trkpt>
      <trkpt lat="47.74408" lon="-3.35447">
        <ele>4.8</ele>
        <time>2020-08-21T09:33:52.000Z</time>
      </trkpt>
      <trkpt lat="47.74408" lon="-3.35449">
        <ele>4.8</ele>
        <time>2020-08-21T09:33:53.000Z</time>
      </trkpt>
      <trkpt lat="47.74408" lon="-3.35451">
        <ele>4.7</ele>
        <time>2020-08-21T09:33:54.000Z</time>
      </trkpt>
      <trkpt lat="47.74408" lon="-3.35453">
        <ele>4.7</ele>
        <time>2020-08-21T09:33:55.000Z</time>
      </trkpt>
      <trkpt lat="47.74408" lon="-3.35455">
        <ele>4.7</ele>
        <time>2020-08-21T09:33:56.000Z</time>
      </trkpt>
      <trkpt lat="47.74408" lon="-3.35457">
        <ele>4.6</ele>
        <time>2020-08-21T09:33:57.000Z</time>
      </trkpt>
      <trkpt lat="47.74408" lon="-3.35459">
        <ele>4.6</ele>
        <time>2020-08-21T09:33:58.000Z</time>
      </trkpt>
      <trkpt lat="47.74408" lon="-3.35461">
        <ele>4.5</ele>
        <time>2020-08-21T09:33:59.000Z</time>
      </trkpt>
      <trkpt lat="47.74408" lon="-3.35463">
        <ele>4.5</ele>
        <time>2020-08-21T09:34:00.000Z</time>
      </trkpt>
      <trkpt lat="47.74408" lon="-3.35464">
        <ele>4.5</ele>
        <time>2020-08-21T09:34:01.000Z</time>
      </trkpt>
      <trkpt lat="47.74408" lon="-3.35466">
        <ele>4.4</ele>
        <time>2020-08-21T09:34:02.000Z</time>
      </trkpt>
      <trkpt lat="47.74408" lon="-3.35468">
        <ele>4.4</ele>
        <time>2020-08-21T09:34:03.000Z</time>
      </trkpt>
      <trkpt lat="47.74408" lon="-3.3547">
        <ele>4.3</ele>
        <time>2020-08-21T09:34:04.000Z</time>
      </trkpt>
      <trkpt lat="47.74408" lon="-3.35472">
        <ele>4.3</ele>
        <time>2020-08-21T09:34:05.000Z</time>
      </trkpt>
      <trkpt lat="47.74408" lon="-3.35473">
        <ele>4.3</ele>
        <time>2020-08-21T09:34:06.000Z</time>
      </trkpt>
      <trkpt lat="47.74408" lon="-3.35475">
        <ele>4.2</ele>
        <time>2020-08-21T09:34:07.000Z</time>
      </trkpt>
      <trkpt lat="47.74408" lon="-3.35477">
        <ele>4.2</ele>
        <time>2020-08-21T09:34:08.000Z</time>
      </trkpt>
      <trkpt lat="47.74408" lon="-3.35479">
        <ele>4.2</ele>
        <time>2020-08-21T09:34:09.000Z</time>
      </trkpt>
      <trkpt lat="47.74409" lon="-3.3548">
        <ele>4.1</ele>
        <time>2020-08-21T09:34:10.000Z</time>
      </trkpt>
      <trkpt lat="47.74409" lon="-3.35482">
        <ele>4.1</ele>
        <time>2020-08-21T09:34:11.000Z</time>
      </trkpt>
      <trkpt lat="47.74409" lon="-3.35484">
        <ele>4.1</ele>
        <time>2020-08-21T09:34:12.000Z</time>
      </trkpt>
      <trkpt lat="47.74409" lon="-3.35485">
        <ele>4</ele>
        <time>2020-08-21T09:34:13.000Z</time>
      </trkpt>
      <trkpt lat="47.74409" lon="-3.35487">
        <ele>4</ele>
        <time>2020-08-21T09:34:14.000Z</time>
      </trkpt>
      <trkpt lat="47.74408" lon="-3.35488">
        <ele>4</ele>
        <time>2020-08-21T09:34:15.000Z</time>
      </trkpt>
      <trkpt lat="47.74408" lon="-3.3549">
        <ele>3.9</ele>
        <time>2020-08-21T09:34:16.000Z</time>
      </trkpt>
      <trkpt lat="47.74408" lon="-3.35492">
        <ele>3.9</ele>
        <time>2020-08-21T09:34:17.000Z</time>
      </trkpt>
      <trkpt lat="47.74408" lon="-3.35493">
        <ele>3.8</ele>
        <time>2020-08-21T09:34:18.000Z</time>
      </trkpt>
      <trkpt lat="47.74407" lon="-3.35495">
        <ele>3.8</ele>
        <time>2020-08-21T09:34:19.000Z</time>
      </trkpt>
      <trkpt lat="47.74407" lon="-3.35497">
        <ele>3.7</ele>
        <time>2020-08-21T09:34:20.000Z</time>
      </trkpt>
      <trkpt lat="47.74407" lon="-3.35498">
        <ele>3.7</ele>
        <time>2020-08-21T09:34:21.000Z</time>
      </trkpt>
      <trkpt lat="47.74407" lon="-3.355">
        <ele>3.7</ele>
        <time>2020-08-21T09:34:22.000Z</time>
      </trkpt>
      <trkpt lat="47.74407" lon="-3.35502">
        <ele>3.7</ele>
        <time>2020-08-21T09:34:23.000Z</time>
      </trkpt>
      <trkpt lat="47.74407" lon="-3.35503">
        <ele>3.7</ele>
        <time>2020-08-21T09:34:24.000Z</time>
      </trkpt>
      <trkpt lat="47.74408" lon="-3.35505">
        <ele>3.7</ele>
        <time>2020-08-21T09:34:25.000Z</time>
      </trkpt>
      <trkpt lat="47.74408" lon="-3.35506">
        <ele>3.7</ele>
        <time>2020-08-21T09:34:26.000Z</time>
      </trkpt>
      <trkpt lat="47.74409" lon="-3.35508">
        <ele>3.7</ele>
        <time>2020-08-21T09:34:27.000Z</time>
      </trkpt>
      <trkpt lat="47.7441" lon="-3.35509">
        <ele>3.8</ele>
        <time>2020-08-21T09:34:28.000Z</time>
      </trkpt>
      <trkpt lat="47.7441" lon="-3.3551">
        <ele>3.8</ele>
        <time>2020-08-21T09:34:29.000Z</time>
      </trkpt>
      <trkpt lat="47.74411" lon="-3.35512">
        <ele>3.8</ele>
        <time>2020-08-21T09:34:30.000Z</time>
      </trkpt>
      <trkpt lat="47.74412" lon="-3.35513">
        <ele>3.8</ele>
        <time>2020-08-21T09:34:31.000Z</time>
      </trkpt>
      <trkpt lat="47.74413" lon="-3.35515">
        <ele>3.9</ele>
        <time>2020-08-21T09:34:32.000Z</time>
      </trkpt>
      <trkpt lat="47.74414" lon="-3.35516">
        <ele>3.9</ele>
        <time>2020-08-21T09:34:33.000Z</time>
      </trkpt>
      <trkpt lat="47.74414" lon="-3.35518">
        <ele>3.9</ele>
        <time>2020-08-21T09:34:34.000Z</time>
      </trkpt>
      <trkpt lat="47.74415" lon="-3.3552">
        <ele>3.9</ele>
        <time>2020-08-21T09:34:35.000Z</time>
      </trkpt>
      <trkpt lat="47.74415" lon="-3.35522">
        <ele>3.9</ele>
        <time>2020-08-21T09:34:36.000Z</time>
      </trkpt>
      <trkpt lat="47.74415" lon="-3.35524">
        <ele>3.9</ele>
        <time>2020-08-21T09:34:37.000Z</time>
      </trkpt>
      <trkpt lat="47.74415" lon="-3.35527">
        <ele>3.9</ele>
        <time>2020-08-21T09:34:38.000Z</time>
      </trkpt>
      <trkpt lat="47.74415" lon="-3.35529">
        <ele>4</ele>
        <time>2020-08-21T09:34:39.000Z</time>
      </trkpt>
      <trkpt lat="47.74415" lon="-3.35531">
        <ele>4</ele>
        <time>2020-08-21T09:34:40.000Z</time>
      </trkpt>
      <trkpt lat="47.74415" lon="-3.35533">
        <ele>4</ele>
        <time>2020-08-21T09:34:41.000Z</time>
      </trkpt>
      <trkpt lat="47.74415" lon="-3.35535">
        <ele>4</ele>
        <time>2020-08-21T09:34:42.000Z</time>
      </trkpt>
      <trkpt lat="47.74416" lon="-3.35537">
        <ele>4</ele>
        <time>2020-08-21T09:34:43.000Z</time>
      </trkpt>
      <trkpt lat="47.74416" lon="-3.35539">
        <ele>4</ele>
        <time>2020-08-21T09:34:44.000Z</time>
      </trkpt>
      <trkpt lat="47.74416" lon="-3.35541">
        <ele>4</ele>
        <time>2020-08-21T09:34:45.000Z</time>
      </trkpt>
      <trkpt lat="47.74416" lon="-3.35543">
        <ele>4</ele>
        <time>2020-08-21T09:34:46.000Z</time>
      </trkpt>
      <trkpt lat="47.74416" lon="-3.35544">
        <ele>4</ele>
        <time>2020-08-21T09:34:47.000Z</time>
      </trkpt>
      <trkpt lat="47.74416" lon="-3.35546">
        <ele>4</ele>
        <time>2020-08-21T09:34:48.000Z</time>
      </trkpt>
      <trkpt lat="47.74416" lon="-3.35548">
        <ele>4</ele>
        <time>2020-08-21T09:34:49.000Z</time>
      </trkpt>
      <trkpt lat="47.74416" lon="-3.3555">
        <ele>4</ele>
        <time>2020-08-21T09:34:50.000Z</time>
      </trkpt>
      <trkpt lat="47.74416" lon="-3.35552">
        <ele>4</ele>
        <time>2020-08-21T09:34:51.000Z</time>
      </trkpt>
      <trkpt lat="47.74416" lon="-3.35554">
        <ele>4</ele>
        <time>2020-08-21T09:34:52.000Z</time>
      </trkpt>
      <trkpt lat="47.74416" lon="-3.35556">
        <ele>4</ele>
        <time>2020-08-21T09:34:53.000Z</time>
      </trkpt>
      <trkpt lat="47.74417" lon="-3.35557">
        <ele>4</ele>
        <time>2020-08-21T09:34:54.000Z</time>
      </trkpt>
      <trkpt lat="47.74417" lon="-3.35559">
        <ele>4</ele>
        <time>2020-08-21T09:34:55.000Z</time>
      </trkpt>
      <trkpt lat="47.74417" lon="-3.35561">
        <ele>4</ele>
        <time>2020-08-21T09:34:56.000Z</time>
      </trkpt>
      <trkpt lat="47.74417" lon="-3.35563">
        <ele>4</ele>
        <time>2020-08-21T09:34:57.000Z</time>
      </trkpt>
      <trkpt lat="47.74417" lon="-3.35565">
        <ele>4</ele>
        <time>2020-08-21T09:34:58.000Z</time>
      </trkpt>
      <trkpt lat="47.74417" lon="-3.35567">
        <ele>4</ele>
        <time>2020-08-21T09:34:59.000Z</time>
      </trkpt>
      <trkpt lat="47.74417" lon="-3.35569">
        <ele>4</ele>
        <time>2020-08-21T09:35:00.000Z</time>
      </trkpt>
      <trkpt lat="47.74417" lon="-3.35571">
        <ele>4</ele>
        <time>2020-08-21T09:35:01.000Z</time>
      </trkpt>
      <trkpt lat="47.74417" lon="-3.35573">
        <ele>4</ele>
        <time>2020-08-21T09:35:02.000Z</time>
      </trkpt>
      <trkpt lat="47.74417" lon="-3.35575">
        <ele>4</ele>
        <time>2020-08-21T09:35:03.000Z</time>
      </trkpt>
      <trkpt lat="47.74417" lon="-3.35577">
        <ele>4</ele>
        <time>2020-08-21T09:35:04.000Z</time>
      </trkpt>
      <trkpt lat="47.74417" lon="-3.35578">
        <ele>4</ele>
        <time>2020-08-21T09:35:05.000Z</time>
      </trkpt>
      <trkpt lat="47.74417" lon="-3.3558">
        <ele>4</ele>
        <time>2020-08-21T09:35:06.000Z</time>
      </trkpt>
      <trkpt lat="47.74417" lon="-3.35582">
        <ele>4</ele>
        <time>2020-08-21T09:35:07.000Z</time>
      </trkpt>
      <trkpt lat="47.74417" lon="-3.35584">
        <ele>4</ele>
        <time>2020-08-21T09:35:08.000Z</time>
      </trkpt>
      <trkpt lat="47.74417" lon="-3.35586">
        <ele>4</ele>
        <time>2020-08-21T09:35:09.000Z</time>
      </trkpt>
      <trkpt lat="47.74417" lon="-3.35588">
        <ele>3.9</ele>
        <time>2020-08-21T09:35:10.000Z</time>
      </trkpt>
      <trkpt lat="47.74417" lon="-3.35589">
        <ele>3.9</ele>
        <time>2020-08-21T09:35:11.000Z</time>
      </trkpt>
      <trkpt lat="47.74417" lon="-3.35591">
        <ele>3.9</ele>
        <time>2020-08-21T09:35:12.000Z</time>
      </trkpt>
      <trkpt lat="47.74418" lon="-3.35593">
        <ele>3.8</ele>
        <time>2020-08-21T09:35:13.000Z</time>
      </trkpt>
      <trkpt lat="47.74418" lon="-3.35594">
        <ele>3.8</ele>
        <time>2020-08-21T09:35:14.000Z</time>
      </trkpt>
      <trkpt lat="47.74418" lon="-3.35596">
        <ele>3.8</ele>
        <time>2020-08-21T09:35:15.000Z</time>
      </trkpt>
      <trkpt lat="47.74418" lon="-3.35597">
        <ele>3.7</ele>
        <time>2020-08-21T09:35:16.000Z</time>
      </trkpt>
      <trkpt lat="47.74419" lon="-3.35599">
        <ele>3.7</ele>
        <time>2020-08-21T09:35:17.000Z</time>
      </trkpt>
      <trkpt lat="47.74419" lon="-3.356">
        <ele>3.7</ele>
        <time>2020-08-21T09:35:18.000Z</time>
      </trkpt>
      <trkpt lat="47.74419" lon="-3.35602">
        <ele>3.7</ele>
        <time>2020-08-21T09:35:19.000Z</time>
      </trkpt>
      <trkpt lat="47.7442" lon="-3.35603">
        <ele>3.7</ele>
        <time>2020-08-21T09:35:20.000Z</time>
      </trkpt>
      <trkpt lat="47.7442" lon="-3.35605">
        <ele>3.7</ele>
        <time>2020-08-21T09:35:21.000Z</time>
      </trkpt>
      <trkpt lat="47.7442" lon="-3.35606">
        <ele>3.6</ele>
        <time>2020-08-21T09:35:22.000Z</time>
      </trkpt>
      <trkpt lat="47.74421" lon="-3.35608">
        <ele>3.6</ele>
        <time>2020-08-21T09:35:23.000Z</time>
      </trkpt>
      <trkpt lat="47.74421" lon="-3.35609">
        <ele>3.6</ele>
        <time>2020-08-21T09:35:24.000Z</time>
      </trkpt>
      <trkpt lat="47.74422" lon="-3.35611">
        <ele>3.6</ele>
        <time>2020-08-21T09:35:25.000Z</time>
      </trkpt>
      <trkpt lat="47.74422" lon="-3.35612">
        <ele>3.6</ele>
        <time>2020-08-21T09:35:26.000Z</time>
      </trkpt>
      <trkpt lat="47.74422" lon="-3.35614">
        <ele>3.6</ele>
        <time>2020-08-21T09:35:27.000Z</time>
      </trkpt>
      <trkpt lat="47.74423" lon="-3.35615">
        <ele>3.6</ele>
        <time>2020-08-21T09:35:28.000Z</time>
      </trkpt>
      <trkpt lat="47.74423" lon="-3.35617">
        <ele>3.6</ele>
        <time>2020-08-21T09:35:29.000Z</time>
      </trkpt>
      <trkpt lat="47.74424" lon="-3.35618">
        <ele>3.6</ele>
        <time>2020-08-21T09:35:30.000Z</time>
      </trkpt>
      <trkpt lat="47.74424" lon="-3.3562">
        <ele>3.6</ele>
        <time>2020-08-21T09:35:31.000Z</time>
      </trkpt>
      <trkpt lat="47.74425" lon="-3.35622">
        <ele>3.6</ele>
        <time>2020-08-21T09:35:32.000Z</time>
      </trkpt>
      <trkpt lat="47.74425" lon="-3.35623">
        <ele>3.5</ele>
        <time>2020-08-21T09:35:33.000Z</time>
      </trkpt>
      <trkpt lat="47.74426" lon="-3.35625">
        <ele>3.5</ele>
        <time>2020-08-21T09:35:34.000Z</time>
      </trkpt>
      <trkpt lat="47.74426" lon="-3.35626">
        <ele>3.5</ele>
        <time>2020-08-21T09:35:35.000Z</time>
      </trkpt>
      <trkpt lat="47.74427" lon="-3.35628">
        <ele>3.5</ele>
        <time>2020-08-21T09:35:36.000Z</time>
      </trkpt>
      <trkpt lat="47.74427" lon="-3.3563">
        <ele>3.5</ele>
        <time>2020-08-21T09:35:37.000Z</time>
      </trkpt>
      <trkpt lat="47.74428" lon="-3.35632">
        <ele>3.5</ele>
        <time>2020-08-21T09:35:38.000Z</time>
      </trkpt>
      <trkpt lat="47.74429" lon="-3.35633">
        <ele>3.5</ele>
        <time>2020-08-21T09:35:39.000Z</time>
      </trkpt>
      <trkpt lat="47.74429" lon="-3.35635">
        <ele>3.6</ele>
        <time>2020-08-21T09:35:40.000Z</time>
      </trkpt>
      <trkpt lat="47.7443" lon="-3.35637">
        <ele>3.5</ele>
        <time>2020-08-21T09:35:41.000Z</time>
      </trkpt>
      <trkpt lat="47.7443" lon="-3.35638">
        <ele>3.5</ele>
        <time>2020-08-21T09:35:42.000Z</time>
      </trkpt>
      <trkpt lat="47.74431" lon="-3.3564">
        <ele>3.5</ele>
        <time>2020-08-21T09:35:43.000Z</time>
      </trkpt>
      <trkpt lat="47.74431" lon="-3.35642">
        <ele>3.5</ele>
        <time>2020-08-21T09:35:44.000Z</time>
      </trkpt>
      <trkpt lat="47.74431" lon="-3.35643">
        <ele>3.5</ele>
        <time>2020-08-21T09:35:45.000Z</time>
      </trkpt>
      <trkpt lat="47.74432" lon="-3.35645">
        <ele>3.5</ele>
        <time>2020-08-21T09:35:46.000Z</time>
      </trkpt>
      <trkpt lat="47.74432" lon="-3.35647">
        <ele>3.5</ele>
        <time>2020-08-21T09:35:47.000Z</time>
      </trkpt>
      <trkpt lat="47.74432" lon="-3.35648">
        <ele>3.5</ele>
        <time>2020-08-21T09:35:48.000Z</time>
      </trkpt>
      <trkpt lat="47.74432" lon="-3.3565">
        <ele>3.4</ele>
        <time>2020-08-21T09:35:49.000Z</time>
      </trkpt>
      <trkpt lat="47.74432" lon="-3.35651">
        <ele>3.4</ele>
        <time>2020-08-21T09:35:50.000Z</time>
      </trkpt>
      <trkpt lat="47.74432" lon="-3.35652">
        <ele>3.4</ele>
        <time>2020-08-21T09:35:51.000Z</time>
      </trkpt>
      <trkpt lat="47.74432" lon="-3.35653">
        <ele>3.4</ele>
        <time>2020-08-21T09:35:52.000Z</time>
      </trkpt>
      <trkpt lat="47.74432" lon="-3.35653">
        <ele>3.4</ele>
        <time>2020-08-21T09:35:53.000Z</time>
      </trkpt>
      <trkpt lat="47.74432" lon="-3.35653">
        <ele>3.4</ele>
        <time>2020-08-21T09:35:54.000Z</time>
      </trkpt>
      <trkpt lat="47.74432" lon="-3.35654">
        <ele>3.4</ele>
        <time>2020-08-21T09:35:55.000Z</time>
      </trkpt>
      <trkpt lat="47.74432" lon="-3.35654">
        <ele>3.4</ele>
        <time>2020-08-21T09:35:56.000Z</time>
      </trkpt>
      <trkpt lat="47.74432" lon="-3.35654">
        <ele>3.4</ele>
        <time>2020-08-21T09:35:57.000Z</time>
      </trkpt>
      <trkpt lat="47.74432" lon="-3.35654">
        <ele>3.4</ele>
        <time>2020-08-21T09:35:58.000Z</time>
      </trkpt>
      <trkpt lat="47.74432" lon="-3.35654">
        <ele>3.4</ele>
        <time>2020-08-21T09:35:59.000Z</time>
      </trkpt>
      <trkpt lat="47.74432" lon="-3.35654">
        <ele>3.4</ele>
        <time>2020-08-21T09:36:00.000Z</time>
      </trkpt>
      <trkpt lat="47.74432" lon="-3.35654">
        <ele>3.3</ele>
        <time>2020-08-21T09:36:01.000Z</time>
      </trkpt>
      <trkpt lat="47.74432" lon="-3.35654">
        <ele>3.3</ele>
        <time>2020-08-21T09:36:02.000Z</time>
      </trkpt>
      <trkpt lat="47.74432" lon="-3.35654">
        <ele>3.3</ele>
        <time>2020-08-21T09:36:03.000Z</time>
      </trkpt>
      <trkpt lat="47.74432" lon="-3.35654">
        <ele>3.3</ele>
        <time>2020-08-21T09:36:04.000Z</time>
      </trkpt>
      <trkpt lat="47.74432" lon="-3.35654">
        <ele>3.3</ele>
        <time>2020-08-21T09:36:05.000Z</time>
      </trkpt>
      <trkpt lat="47.74432" lon="-3.35654">
        <ele>3.3</ele>
        <time>2020-08-21T09:36:06.000Z</time>
      </trkpt>
      <trkpt lat="47.74432" lon="-3.35654">
        <ele>3.3</ele>
        <time>2020-08-21T09:36:07.000Z</time>
      </trkpt>
      <trkpt lat="47.74432" lon="-3.35654">
        <ele>3.3</ele>
        <time>2020-08-21T09:36:08.000Z</time>
      </trkpt>
      <trkpt lat="47.74432" lon="-3.35654">
        <ele>3.3</ele>
        <time>2020-08-21T09:36:09.000Z</time>
      </trkpt>
      <trkpt lat="47.74432" lon="-3.35654">
        <ele>3.3</ele>
        <time>2020-08-21T09:36:10.000Z</time>
      </trkpt>
      <trkpt lat="47.74432" lon="-3.35654">
        <ele>3.3</ele>
        <time>2020-08-21T09:36:11.000Z</time>
      </trkpt>
      <trkpt lat="47.74432" lon="-3.35654">
        <ele>3.3</ele>
        <time>2020-08-21T09:36:12.000Z</time>
      </trkpt>
      <trkpt lat="47.74432" lon="-3.35654">
        <ele>3.3</ele>
        <time>2020-08-21T09:36:13.000Z</time>
      </trkpt>
      <trkpt lat="47.74432" lon="-3.35654">
        <ele>3.3</ele>
        <time>2020-08-21T09:36:14.000Z</time>
      </trkpt>
      <trkpt lat="47.74432" lon="-3.35654">
        <ele>3.3</ele>
        <time>2020-08-21T09:36:15.000Z</time>
      </trkpt>
      <trkpt lat="47.74432" lon="-3.35654">
        <ele>3.3</ele>
        <time>2020-08-21T09:36:16.000Z</time>
      </trkpt>
      <trkpt lat="47.74432" lon="-3.35654">
        <ele>3.3</ele>
        <time>2020-08-21T09:36:17.000Z</time>
      </trkpt>
      <trkpt lat="47.74432" lon="-3.35654">
        <ele>3.3</ele>
        <time>2020-08-21T09:36:18.000Z</time>
      </trkpt>
      <trkpt lat="47.74432" lon="-3.35654">
        <ele>3.3</ele>
        <time>2020-08-21T09:36:19.000Z</time>
      </trkpt>
      <trkpt lat="47.74432" lon="-3.35654">
        <ele>3.3</ele>
        <time>2020-08-21T09:36:20.000Z</time>
      </trkpt>
      <trkpt lat="47.74432" lon="-3.35654">
        <ele>3.3</ele>
        <time>2020-08-21T09:36:21.000Z</time>
      </trkpt>
      <trkpt lat="47.74432" lon="-3.35654">
        <ele>3.3</ele>
        <time>2020-08-21T09:36:22.000Z</time>
      </trkpt>
      <trkpt lat="47.74432" lon="-3.35654">
        <ele>3.3</ele>
        <time>2020-08-21T09:36:23.000Z</time>
      </trkpt>
      <trkpt lat="47.74432" lon="-3.35654">
        <ele>3.3</ele>
        <time>2020-08-21T09:36:24.000Z</time>
      </trkpt>
      <trkpt lat="47.74432" lon="-3.35654">
        <ele>3.3</ele>
        <time>2020-08-21T09:36:25.000Z</time>
      </trkpt>
      <trkpt lat="47.74432" lon="-3.35654">
        <ele>3.3</ele>
        <time>2020-08-21T09:36:26.000Z</time>
      </trkpt>
      <trkpt lat="47.74432" lon="-3.35654">
        <ele>3.3</ele>
        <time>2020-08-21T09:36:27.000Z</time>
      </trkpt>
      <trkpt lat="47.74432" lon="-3.35654">
        <ele>3.3</ele>
        <time>2020-08-21T09:36:28.000Z</time>
      </trkpt>
      <trkpt lat="47.74432" lon="-3.35654">
        <ele>3.3</ele>
        <time>2020-08-21T09:36:29.000Z</time>
      </trkpt>
      <trkpt lat="47.74432" lon="-3.35654">
        <ele>3.3</ele>
        <time>2020-08-21T09:36:30.000Z</time>
      </trkpt>
      <trkpt lat="47.74432" lon="-3.35654">
        <ele>3.3</ele>
        <time>2020-08-21T09:36:31.000Z</time>
      </trkpt>
      <trkpt lat="47.74432" lon="-3.35654">
        <ele>3.3</ele>
        <time>2020-08-21T09:36:32.000Z</time>
      </trkpt>
      <trkpt lat="47.74432" lon="-3.35654">
        <ele>3.3</ele>
        <time>2020-08-21T09:36:33.000Z</time>
      </trkpt>
      <trkpt lat="47.74432" lon="-3.35654">
        <ele>3.3</ele>
        <time>2020-08-21T09:36:34.000Z</time>
      </trkpt>
      <trkpt lat="47.74432" lon="-3.35654">
        <ele>3.3</ele>
        <time>2020-08-21T09:36:35.000Z</time>
      </trkpt>
      <trkpt lat="47.74432" lon="-3.35654">
        <ele>3.3</ele>
        <time>2020-08-21T09:36:36.000Z</time>
      </trkpt>
      <trkpt lat="47.74432" lon="-3.35654">
        <ele>3.3</ele>
        <time>2020-08-21T09:36:37.000Z</time>
      </trkpt>
      <trkpt lat="47.74432" lon="-3.35654">
        <ele>3.3</ele>
        <time>2020-08-21T09:36:38.000Z</time>
      </trkpt>
      <trkpt lat="47.74432" lon="-3.35654">
        <ele>3.3</ele>
        <time>2020-08-21T09:36:39.000Z</time>
      </trkpt>
      <trkpt lat="47.74432" lon="-3.35654">
        <ele>3.3</ele>
        <time>2020-08-21T09:36:40.000Z</time>
      </trkpt>
      <trkpt lat="47.74432" lon="-3.35654">
        <ele>3.3</ele>
        <time>2020-08-21T09:36:41.000Z</time>
      </trkpt>
      <trkpt lat="47.74432" lon="-3.35654">
        <ele>3.3</ele>
        <time>2020-08-21T09:36:42.000Z</time>
      </trkpt>
      <trkpt lat="47.74432" lon="-3.35654">
        <ele>3.3</ele>
        <time>2020-08-21T09:36:43.000Z</time>
      </trkpt>
      <trkpt lat="47.74432" lon="-3.35654">
        <ele>3.3</ele>
        <time>2020-08-21T09:36:44.000Z</time>
      </trkpt>
      <trkpt lat="47.74432" lon="-3.35654">
        <ele>3.3</ele>
        <time>2020-08-21T09:36:45.000Z</time>
      </trkpt>
      <trkpt lat="47.74432" lon="-3.35654">
        <ele>3.3</ele>
        <time>2020-08-21T09:36:46.000Z</time>
      </trkpt>
      <trkpt lat="47.74432" lon="-3.35654">
        <ele>3.3</ele>
        <time>2020-08-21T09:36:47.000Z</time>
      </trkpt>
      <trkpt lat="47.74432" lon="-3.35654">
        <ele>3.3</ele>
        <time>2020-08-21T09:36:48.000Z</time>
      </trkpt>
      <trkpt lat="47.74432" lon="-3.35654">
        <ele>3.4</ele>
        <time>2020-08-21T09:36:49.000Z</time>
      </trkpt>
      <trkpt lat="47.74432" lon="-3.35654">
        <ele>3.4</ele>
        <time>2020-08-21T09:36:50.000Z</time>
      </trkpt>
      <trkpt lat="47.74432" lon="-3.35654">
        <ele>3.4</ele>
        <time>2020-08-21T09:36:51.000Z</time>
      </trkpt>
      <trkpt lat="47.74432" lon="-3.35654">
        <ele>3.4</ele>
        <time>2020-08-21T09:36:52.000Z</time>
      </trkpt>
      <trkpt lat="47.74432" lon="-3.35654">
        <ele>3.4</ele>
        <time>2020-08-21T09:36:53.000Z</time>
      </trkpt>
      <trkpt lat="47.74432" lon="-3.35654">
        <ele>3.4</ele>
        <time>2020-08-21T09:36:54.000Z</time>
      </trkpt>
      <trkpt lat="47.74432" lon="-3.35654">
        <ele>3.4</ele>
        <time>2020-08-21T09:36:55.000Z</time>
      </trkpt>
      <trkpt lat="47.74432" lon="-3.35654">
        <ele>3.4</ele>
        <time>2020-08-21T09:36:56.000Z</time>
      </trkpt>
      <trkpt lat="47.74432" lon="-3.35654">
        <ele>3.4</ele>
        <time>2020-08-21T09:36:57.000Z</time>
      </trkpt>
      <trkpt lat="47.74432" lon="-3.35654">
        <ele>3.4</ele>
        <time>2020-08-21T09:36:58.000Z</time>
      </trkpt>
      <trkpt lat="47.74432" lon="-3.35654">
        <ele>3.4</ele>
        <time>2020-08-21T09:36:59.000Z</time>
      </trkpt>
      <trkpt lat="47.74432" lon="-3.35654">
        <ele>3.4</ele>
        <time>2020-08-21T09:37:00.000Z</time>
      </trkpt>
      <trkpt lat="47.74432" lon="-3.35654">
        <ele>3.4</ele>
        <time>2020-08-21T09:37:01.000Z</time>
      </trkpt>
      <trkpt lat="47.74432" lon="-3.35654">
        <ele>3.4</ele>
        <time>2020-08-21T09:37:02.000Z</time>
      </trkpt>
      <trkpt lat="47.74432" lon="-3.35654">
        <ele>3.3</ele>
        <time>2020-08-21T09:37:03.000Z</time>
      </trkpt>
      <trkpt lat="47.74432" lon="-3.35654">
        <ele>3.3</ele>
        <time>2020-08-21T09:37:04.000Z</time>
      </trkpt>
      <trkpt lat="47.74432" lon="-3.35654">
        <ele>3.3</ele>
        <time>2020-08-21T09:37:05.000Z</time>
      </trkpt>
      <trkpt lat="47.74432" lon="-3.35654">
        <ele>3.3</ele>
        <time>2020-08-21T09:37:06.000Z</time>
      </trkpt>
      <trkpt lat="47.74432" lon="-3.35654">
        <ele>3.3</ele>
        <time>2020-08-21T09:37:07.000Z</time>
      </trkpt>
      <trkpt lat="47.74432" lon="-3.35654">
        <ele>3.3</ele>
        <time>2020-08-21T09:37:08.000Z</time>
      </trkpt>
      <trkpt lat="47.74432" lon="-3.35654">
        <ele>3.3</ele>
        <time>2020-08-21T09:37:09.000Z</time>
      </trkpt>
      <trkpt lat="47.74432" lon="-3.35654">
        <ele>3.3</ele>
        <time>2020-08-21T09:37:10.000Z</time>
      </trkpt>
      <trkpt lat="47.74432" lon="-3.35654">
        <ele>3.3</ele>
        <time>2020-08-21T09:37:11.000Z</time>
      </trkpt>
      <trkpt lat="47.74432" lon="-3.35654">
        <ele>3.3</ele>
        <time>2020-08-21T09:37:12.000Z</time>
      </trkpt>
      <trkpt lat="47.74432" lon="-3.35654">
        <ele>3.3</ele>
        <time>2020-08-21T09:37:13.000Z</time>
      </trkpt>
      <trkpt lat="47.74432" lon="-3.35654">
        <ele>3.3</ele>
        <time>2020-08-21T09:37:14.000Z</time>
      </trkpt>
      <trkpt lat="47.74432" lon="-3.35654">
        <ele>3.3</ele>
        <time>2020-08-21T09:37:15.000Z</time>
      </trkpt>
      <trkpt lat="47.74432" lon="-3.35654">
        <ele>3.3</ele>
        <time>2020-08-21T09:37:16.000Z</time>
      </trkpt>
      <trkpt lat="47.74432" lon="-3.35654">
        <ele>3.3</ele>
        <time>2020-08-21T09:37:17.000Z</time>
      </trkpt>
      <trkpt lat="47.74432" lon="-3.35654">
        <ele>3.3</ele>
        <time>2020-08-21T09:37:18.000Z</time>
      </trkpt>
      <trkpt lat="47.74432" lon="-3.35654">
        <ele>3.3</ele>
        <time>2020-08-21T09:37:19.000Z</time>
      </trkpt>
      <trkpt lat="47.74432" lon="-3.35654">
        <ele>3.3</ele>
        <time>2020-08-21T09:37:20.000Z</time>
      </trkpt>
      <trkpt lat="47.74432" lon="-3.35654">
        <ele>3.3</ele>
        <time>2020-08-21T09:37:21.000Z</time>
      </trkpt>
      <trkpt lat="47.74432" lon="-3.35654">
        <ele>3.3</ele>
        <time>2020-08-21T09:37:22.000Z</time>
      </trkpt>
      <trkpt lat="47.74432" lon="-3.35654">
        <ele>3.3</ele>
        <time>2020-08-21T09:37:23.000Z</time>
      </trkpt>
      <trkpt lat="47.74432" lon="-3.35654">
        <ele>3.3</ele>
        <time>2020-08-21T09:37:24.000Z</time>
      </trkpt>
      <trkpt lat="47.74432" lon="-3.35654">
        <ele>3.3</ele>
        <time>2020-08-21T09:37:25.000Z</time>
      </trkpt>
      <trkpt lat="47.74432" lon="-3.35654">
        <ele>3.3</ele>
        <time>2020-08-21T09:37:26.000Z</time>
      </trkpt>
      <trkpt lat="47.74432" lon="-3.35654">
        <ele>3.3</ele>
        <time>2020-08-21T09:37:27.000Z</time>
      </trkpt>
      <trkpt lat="47.74432" lon="-3.35654">
        <ele>3.3</ele>
        <time>2020-08-21T09:37:28.000Z</time>
      </trkpt>
      <trkpt lat="47.74432" lon="-3.35654">
        <ele>3.3</ele>
        <time>2020-08-21T09:37:29.000Z</time>
      </trkpt>
      <trkpt lat="47.74431" lon="-3.35656">
        <ele>3.3</ele>
        <time>2020-08-21T09:37:30.000Z</time>
      </trkpt>
      <trkpt lat="47.74431" lon="-3.35657">
        <ele>3.2</ele>
        <time>2020-08-21T09:37:31.000Z</time>
      </trkpt>
      <trkpt lat="47.74431" lon="-3.35658">
        <ele>3.2</ele>
        <time>2020-08-21T09:37:32.000Z</time>
      </trkpt>
      <trkpt lat="47.74431" lon="-3.35659">
        <ele>3.1</ele>
        <time>2020-08-21T09:37:33.000Z</time>
      </trkpt>
      <trkpt lat="47.74431" lon="-3.3566">
        <ele>3.1</ele>
        <time>2020-08-21T09:37:34.000Z</time>
      </trkpt>
      <trkpt lat="47.74431" lon="-3.35661">
        <ele>3.1</ele>
        <time>2020-08-21T09:37:35.000Z</time>
      </trkpt>
      <trkpt lat="47.74431" lon="-3.35662">
        <ele>3.1</ele>
        <time>2020-08-21T09:37:36.000Z</time>
      </trkpt>
      <trkpt lat="47.7443" lon="-3.35663">
        <ele>3.1</ele>
        <time>2020-08-21T09:37:37.000Z</time>
      </trkpt>
      <trkpt lat="47.7443" lon="-3.35664">
        <ele>3</ele>
        <time>2020-08-21T09:37:38.000Z</time>
      </trkpt>
      <trkpt lat="47.74429" lon="-3.35664">
        <ele>2.9</ele>
        <time>2020-08-21T09:37:39.000Z</time>
      </trkpt>
      <trkpt lat="47.74428" lon="-3.35665">
        <ele>2.9</ele>
        <time>2020-08-21T09:37:40.000Z</time>
      </trkpt>
      <trkpt lat="47.74427" lon="-3.35666">
        <ele>2.8</ele>
        <time>2020-08-21T09:37:41.000Z</time>
      </trkpt>
      <trkpt lat="47.74427" lon="-3.35667">
        <ele>2.7</ele>
        <time>2020-08-21T09:37:42.000Z</time>
      </trkpt>
      <trkpt lat="47.74426" lon="-3.35667">
        <ele>2.6</ele>
        <time>2020-08-21T09:37:43.000Z</time>
      </trkpt>
      <trkpt lat="47.74425" lon="-3.35668">
        <ele>2.6</ele>
        <time>2020-08-21T09:37:44.000Z</time>
      </trkpt>
      <trkpt lat="47.74425" lon="-3.35668">
        <ele>2.6</ele>
        <time>2020-08-21T09:37:45.000Z</time>
      </trkpt>
      <trkpt lat="47.74425" lon="-3.35668">
        <ele>2.6</ele>
        <time>2020-08-21T09:37:46.000Z</time>
      </trkpt>
      <trkpt lat="47.74425" lon="-3.35668">
        <ele>2.6</ele>
        <time>2020-08-21T09:37:47.000Z</time>
      </trkpt>
      <trkpt lat="47.74425" lon="-3.35668">
        <ele>2.6</ele>
        <time>2020-08-21T09:37:48.000Z</time>
      </trkpt>
      <trkpt lat="47.74425" lon="-3.35668">
        <ele>2.6</ele>
        <time>2020-08-21T09:37:49.000Z</time>
      </trkpt>
      <trkpt lat="47.74425" lon="-3.35668">
        <ele>2.6</ele>
        <time>2020-08-21T09:37:50.000Z</time>
      </trkpt>
      <trkpt lat="47.74425" lon="-3.35668">
        <ele>2.6</ele>
        <time>2020-08-21T09:37:51.000Z</time>
      </trkpt>
      <trkpt lat="47.74425" lon="-3.35668">
        <ele>2.6</ele>
        <time>2020-08-21T09:37:52.000Z</time>
      </trkpt>
      <trkpt lat="47.74425" lon="-3.35668">
        <ele>2.6</ele>
        <time>2020-08-21T09:37:53.000Z</time>
      </trkpt>
      <trkpt lat="47.74425" lon="-3.35668">
        <ele>2.6</ele>
        <time>2020-08-21T09:37:54.000Z</time>
      </trkpt>
      <trkpt lat="47.74425" lon="-3.35668">
        <ele>2.6</ele>
        <time>2020-08-21T09:37:55.000Z</time>
      </trkpt>
      <trkpt lat="47.74425" lon="-3.35668">
        <ele>2.6</ele>
        <time>2020-08-21T09:37:56.000Z</time>
      </trkpt>
      <trkpt lat="47.74425" lon="-3.35668">
        <ele>2.6</ele>
        <time>2020-08-21T09:37:57.000Z</time>
      </trkpt>
      <trkpt lat="47.74425" lon="-3.35668">
        <ele>2.6</ele>
        <time>2020-08-21T09:37:58.000Z</time>
      </trkpt>
      <trkpt lat="47.74425" lon="-3.35668">
        <ele>2.6</ele>
        <time>2020-08-21T09:37:59.000Z</time>
      </trkpt>
      <trkpt lat="47.74425" lon="-3.35668">
        <ele>2.6</ele>
        <time>2020-08-21T09:38:00.000Z</time>
      </trkpt>
      <trkpt lat="47.74425" lon="-3.35668">
        <ele>2.6</ele>
        <time>2020-08-21T09:38:01.000Z</time>
      </trkpt>
      <trkpt lat="47.74425" lon="-3.35668">
        <ele>2.6</ele>
        <time>2020-08-21T09:38:02.000Z</time>
      </trkpt>
      <trkpt lat="47.74425" lon="-3.35668">
        <ele>2.6</ele>
        <time>2020-08-21T09:38:03.000Z</time>
      </trkpt>
      <trkpt lat="47.74425" lon="-3.35668">
        <ele>2.6</ele>
        <time>2020-08-21T09:38:04.000Z</time>
      </trkpt>
      <trkpt lat="47.74425" lon="-3.35668">
        <ele>2.6</ele>
        <time>2020-08-21T09:38:05.000Z</time>
      </trkpt>
      <trkpt lat="47.74425" lon="-3.35668">
        <ele>2.5</ele>
        <time>2020-08-21T09:38:06.000Z</time>
      </trkpt>
      <trkpt lat="47.74425" lon="-3.3567">
        <ele>2.5</ele>
        <time>2020-08-21T09:38:07.000Z</time>
      </trkpt>
      <trkpt lat="47.74424" lon="-3.35671">
        <ele>2.4</ele>
        <time>2020-08-21T09:38:08.000Z</time>
      </trkpt>
      <trkpt lat="47.74424" lon="-3.35672">
        <ele>2.4</ele>
        <time>2020-08-21T09:38:09.000Z</time>
      </trkpt>
      <trkpt lat="47.74424" lon="-3.35672">
        <ele>2.4</ele>
        <time>2020-08-21T09:38:10.000Z</time>
      </trkpt>
      <trkpt lat="47.74424" lon="-3.35672">
        <ele>2.4</ele>
        <time>2020-08-21T09:38:11.000Z</time>
      </trkpt>
      <trkpt lat="47.74424" lon="-3.35672">
        <ele>2.4</ele>
        <time>2020-08-21T09:38:12.000Z</time>
      </trkpt>
      <trkpt lat="47.74424" lon="-3.35672">
        <ele>2.4</ele>
        <time>2020-08-21T09:38:13.000Z</time>
      </trkpt>
      <trkpt lat="47.74424" lon="-3.35672">
        <ele>2.4</ele>
        <time>2020-08-21T09:38:14.000Z</time>
      </trkpt>
      <trkpt lat="47.74424" lon="-3.35672">
        <ele>2.4</ele>
        <time>2020-08-21T09:38:15.000Z</time>
      </trkpt>
      <trkpt lat="47.74424" lon="-3.35672">
        <ele>2.4</ele>
        <time>2020-08-21T09:38:16.000Z</time>
      </trkpt>
      <trkpt lat="47.74424" lon="-3.35672">
        <ele>2.4</ele>
        <time>2020-08-21T09:38:17.000Z</time>
      </trkpt>
      <trkpt lat="47.74424" lon="-3.35672">
        <ele>2.4</ele>
        <time>2020-08-21T09:38:18.000Z</time>
      </trkpt>
      <trkpt lat="47.74424" lon="-3.35672">
        <ele>2.4</ele>
        <time>2020-08-21T09:38:19.000Z</time>
      </trkpt>
      <trkpt lat="47.74424" lon="-3.35672">
        <ele>2.4</ele>
        <time>2020-08-21T09:38:20.000Z</time>
      </trkpt>
      <trkpt lat="47.74424" lon="-3.35672">
        <ele>2.4</ele>
        <time>2020-08-21T09:38:21.000Z</time>
      </trkpt>
      <trkpt lat="47.74424" lon="-3.35672">
        <ele>2.4</ele>
        <time>2020-08-21T09:38:22.000Z</time>
      </trkpt>
      <trkpt lat="47.74424" lon="-3.35672">
        <ele>2.4</ele>
        <time>2020-08-21T09:38:23.000Z</time>
      </trkpt>
      <trkpt lat="47.74424" lon="-3.35672">
        <ele>2.4</ele>
        <time>2020-08-21T09:38:24.000Z</time>
      </trkpt>
      <trkpt lat="47.74424" lon="-3.35672">
        <ele>2.4</ele>
        <time>2020-08-21T09:38:25.000Z</time>
      </trkpt>
      <trkpt lat="47.74424" lon="-3.35672">
        <ele>2.4</ele>
        <time>2020-08-21T09:38:26.000Z</time>
      </trkpt>
      <trkpt lat="47.74424" lon="-3.35672">
        <ele>2.4</ele>
        <time>2020-08-21T09:38:27.000Z</time>
      </trkpt>
      <trkpt lat="47.74424" lon="-3.35672">
        <ele>2.4</ele>
        <time>2020-08-21T09:38:28.000Z</time>
      </trkpt>
      <trkpt lat="47.74424" lon="-3.35672">
        <ele>2.4</ele>
        <time>2020-08-21T09:38:29.000Z</time>
      </trkpt>
      <trkpt lat="47.74424" lon="-3.35672">
        <ele>2.4</ele>
        <time>2020-08-21T09:38:30.000Z</time>
      </trkpt>
      <trkpt lat="47.74424" lon="-3.35672">
        <ele>2.4</ele>
        <time>2020-08-21T09:38:31.000Z</time>
      </trkpt>
      <trkpt lat="47.74424" lon="-3.35672">
        <ele>2.4</ele>
        <time>2020-08-21T09:38:32.000Z</time>
      </trkpt>
      <trkpt lat="47.74424" lon="-3.35672">
        <ele>2.4</ele>
        <time>2020-08-21T09:38:33.000Z</time>
      </trkpt>
      <trkpt lat="47.74424" lon="-3.35672">
        <ele>2.4</ele>
        <time>2020-08-21T09:38:34.000Z</time>
      </trkpt>
      <trkpt lat="47.74424" lon="-3.35672">
        <ele>2.4</ele>
        <time>2020-08-21T09:38:35.000Z</time>
      </trkpt>
      <trkpt lat="47.74424" lon="-3.35672">
        <ele>2.4</ele>
        <time>2020-08-21T09:38:36.000Z</time>
      </trkpt>
      <trkpt lat="47.74424" lon="-3.35672">
        <ele>2.4</ele>
        <time>2020-08-21T09:38:37.000Z</time>
      </trkpt>
      <trkpt lat="47.74424" lon="-3.35672">
        <ele>2.4</ele>
        <time>2020-08-21T09:38:38.000Z</time>
      </trkpt>
      <trkpt lat="47.74424" lon="-3.35672">
        <ele>2.4</ele>
        <time>2020-08-21T09:38:39.000Z</time>
      </trkpt>
      <trkpt lat="47.74424" lon="-3.35672">
        <ele>2.4</ele>
        <time>2020-08-21T09:38:40.000Z</time>
      </trkpt>
      <trkpt lat="47.74424" lon="-3.35672">
        <ele>2.4</ele>
        <time>2020-08-21T09:38:41.000Z</time>
      </trkpt>
      <trkpt lat="47.74424" lon="-3.35672">
        <ele>2.4</ele>
        <time>2020-08-21T09:38:42.000Z</time>
      </trkpt>
      <trkpt lat="47.74424" lon="-3.35672">
        <ele>2.4</ele>
        <time>2020-08-21T09:38:43.000Z</time>
      </trkpt>
      <trkpt lat="47.74424" lon="-3.35672">
        <ele>2.4</ele>
        <time>2020-08-21T09:38:44.000Z</time>
      </trkpt>
      <trkpt lat="47.74424" lon="-3.35672">
        <ele>2.4</ele>
        <time>2020-08-21T09:38:45.000Z</time>
      </trkpt>
      <trkpt lat="47.74424" lon="-3.35672">
        <ele>2.4</ele>
        <time>2020-08-21T09:38:46.000Z</time>
      </trkpt>
      <trkpt lat="47.74424" lon="-3.35672">
        <ele>2.4</ele>
        <time>2020-08-21T09:38:47.000Z</time>
      </trkpt>
      <trkpt lat="47.74424" lon="-3.35672">
        <ele>2.4</ele>
        <time>2020-08-21T09:38:48.000Z</time>
      </trkpt>
      <trkpt lat="47.74424" lon="-3.35672">
        <ele>2.4</ele>
        <time>2020-08-21T09:38:49.000Z</time>
      </trkpt>
      <trkpt lat="47.74424" lon="-3.35672">
        <ele>2.4</ele>
        <time>2020-08-21T09:38:50.000Z</time>
      </trkpt>
      <trkpt lat="47.74424" lon="-3.35672">
        <ele>2.4</ele>
        <time>2020-08-21T09:38:51.000Z</time>
      </trkpt>
      <trkpt lat="47.74424" lon="-3.35672">
        <ele>2.4</ele>
        <time>2020-08-21T09:38:52.000Z</time>
      </trkpt>
      <trkpt lat="47.74424" lon="-3.35672">
        <ele>2.4</ele>
        <time>2020-08-21T09:38:53.000Z</time>
      </trkpt>
      <trkpt lat="47.74424" lon="-3.35672">
        <ele>2.4</ele>
        <time>2020-08-21T09:38:54.000Z</time>
      </trkpt>
      <trkpt lat="47.74424" lon="-3.35672">
        <ele>2.4</ele>
        <time>2020-08-21T09:38:55.000Z</time>
      </trkpt>
      <trkpt lat="47.74424" lon="-3.35672">
        <ele>2.4</ele>
        <time>2020-08-21T09:38:56.000Z</time>
      </trkpt>
      <trkpt lat="47.74424" lon="-3.35672">
        <ele>2.4</ele>
        <time>2020-08-21T09:38:57.000Z</time>
      </trkpt>
      <trkpt lat="47.74424" lon="-3.35672">
        <ele>2.4</ele>
        <time>2020-08-21T09:38:58.000Z</time>
      </trkpt>
      <trkpt lat="47.74424" lon="-3.35672">
        <ele>2.4</ele>
        <time>2020-08-21T09:38:59.000Z</time>
      </trkpt>
      <trkpt lat="47.74424" lon="-3.35672">
        <ele>2.4</ele>
        <time>2020-08-21T09:39:00.000Z</time>
      </trkpt>
      <trkpt lat="47.74424" lon="-3.35672">
        <ele>2.4</ele>
        <time>2020-08-21T09:39:01.000Z</time>
      </trkpt>
      <trkpt lat="47.74416" lon="-3.3567">
        <ele>1.9</ele>
        <time>2020-08-21T09:39:02.000Z</time>
      </trkpt>
      <trkpt lat="47.74391" lon="-3.35661">
        <ele>2.7</ele>
        <time>2020-08-21T09:46:54.000Z</time>
      </trkpt>
      <trkpt lat="47.74391" lon="-3.35661">
        <ele>2.7</ele>
        <time>2020-08-21T09:46:55.000Z</time>
      </trkpt>
      <trkpt lat="47.74391" lon="-3.35661">
        <ele>2.7</ele>
        <time>2020-08-21T09:46:56.000Z</time>
      </trkpt>
      <trkpt lat="47.7439" lon="-3.35662">
        <ele>2.7</ele>
        <time>2020-08-21T09:46:57.000Z</time>
      </trkpt>
      <trkpt lat="47.7439" lon="-3.35662">
        <ele>2.7</ele>
        <time>2020-08-21T09:46:58.000Z</time>
      </trkpt>
      <trkpt lat="47.7439" lon="-3.35663">
        <ele>2.7</ele>
        <time>2020-08-21T09:46:59.000Z</time>
      </trkpt>
      <trkpt lat="47.74389" lon="-3.35663">
        <ele>2.7</ele>
        <time>2020-08-21T09:47:00.000Z</time>
      </trkpt>
      <trkpt lat="47.74389" lon="-3.35664">
        <ele>2.7</ele>
        <time>2020-08-21T09:47:01.000Z</time>
      </trkpt>
      <trkpt lat="47.74389" lon="-3.35665">
        <ele>2.7</ele>
        <time>2020-08-21T09:47:02.000Z</time>
      </trkpt>
      <trkpt lat="47.74389" lon="-3.35666">
        <ele>2.7</ele>
        <time>2020-08-21T09:47:03.000Z</time>
      </trkpt>
      <trkpt lat="47.74388" lon="-3.35667">
        <ele>2.7</ele>
        <time>2020-08-21T09:47:04.000Z</time>
      </trkpt>
      <trkpt lat="47.74388" lon="-3.35668">
        <ele>2.7</ele>
        <time>2020-08-21T09:47:05.000Z</time>
      </trkpt>
      <trkpt lat="47.74388" lon="-3.35669">
        <ele>2.7</ele>
        <time>2020-08-21T09:47:06.000Z</time>
      </trkpt>
      <trkpt lat="47.74388" lon="-3.3567">
        <ele>2.6</ele>
        <time>2020-08-21T09:47:07.000Z</time>
      </trkpt>
      <trkpt lat="47.74388" lon="-3.35672">
        <ele>2.6</ele>
        <time>2020-08-21T09:47:08.000Z</time>
      </trkpt>
      <trkpt lat="47.74388" lon="-3.35674">
        <ele>2.6</ele>
        <time>2020-08-21T09:47:09.000Z</time>
      </trkpt>
      <trkpt lat="47.74388" lon="-3.35675">
        <ele>2.6</ele>
        <time>2020-08-21T09:47:10.000Z</time>
      </trkpt>
      <trkpt lat="47.74388" lon="-3.35677">
        <ele>2.5</ele>
        <time>2020-08-21T09:47:11.000Z</time>
      </trkpt>
      <trkpt lat="47.74388" lon="-3.35678">
        <ele>2.5</ele>
        <time>2020-08-21T09:47:12.000Z</time>
      </trkpt>
      <trkpt lat="47.74389" lon="-3.3568">
        <ele>2.5</ele>
        <time>2020-08-21T09:47:13.000Z</time>
      </trkpt>
      <trkpt lat="47.7439" lon="-3.35681">
        <ele>2.4</ele>
        <time>2020-08-21T09:47:14.000Z</time>
      </trkpt>
      <trkpt lat="47.7439" lon="-3.35682">
        <ele>2.4</ele>
        <time>2020-08-21T09:47:15.000Z</time>
      </trkpt>
      <trkpt lat="47.74391" lon="-3.35682">
        <ele>2.3</ele>
        <time>2020-08-21T09:47:16.000Z</time>
      </trkpt>
      <trkpt lat="47.74392" lon="-3.35682">
        <ele>2.3</ele>
        <time>2020-08-21T09:47:17.000Z</time>
      </trkpt>
      <trkpt lat="47.74393" lon="-3.35682">
        <ele>2.3</ele>
        <time>2020-08-21T09:47:18.000Z</time>
      </trkpt>
      <trkpt lat="47.74394" lon="-3.35681">
        <ele>2.3</ele>
        <time>2020-08-21T09:47:19.000Z</time>
      </trkpt>
      <trkpt lat="47.74395" lon="-3.3568">
        <ele>2.3</ele>
        <time>2020-08-21T09:47:20.000Z</time>
      </trkpt>
      <trkpt lat="47.74396" lon="-3.35679">
        <ele>2.3</ele>
        <time>2020-08-21T09:47:21.000Z</time>
      </trkpt>
      <trkpt lat="47.74396" lon="-3.35677">
        <ele>2.3</ele>
        <time>2020-08-21T09:47:22.000Z</time>
      </trkpt>
      <trkpt lat="47.74396" lon="-3.35675">
        <ele>2.3</ele>
        <time>2020-08-21T09:47:23.000Z</time>
      </trkpt>
      <trkpt lat="47.74397" lon="-3.35674">
        <ele>2.4</ele>
        <time>2020-08-21T09:47:24.000Z</time>
      </trkpt>
      <trkpt lat="47.74397" lon="-3.35672">
        <ele>2.4</ele>
        <time>2020-08-21T09:47:25.000Z</time>
      </trkpt>
      <trkpt lat="47.74396" lon="-3.3567">
        <ele>2.4</ele>
        <time>2020-08-21T09:47:26.000Z</time>
      </trkpt>
      <trkpt lat="47.74396" lon="-3.35668">
        <ele>2.5</ele>
        <time>2020-08-21T09:47:27.000Z</time>
      </trkpt>
      <trkpt lat="47.74395" lon="-3.35666">
        <ele>2.5</ele>
        <time>2020-08-21T09:47:28.000Z</time>
      </trkpt>
      <trkpt lat="47.74395" lon="-3.35664">
        <ele>2.6</ele>
        <time>2020-08-21T09:47:29.000Z</time>
      </trkpt>
      <trkpt lat="47.74394" lon="-3.35661">
        <ele>2.6</ele>
        <time>2020-08-21T09:47:30.000Z</time>
      </trkpt>
      <trkpt lat="47.74394" lon="-3.35659">
        <ele>2.6</ele>
        <time>2020-08-21T09:47:31.000Z</time>
      </trkpt>
      <trkpt lat="47.74393" lon="-3.35656">
        <ele>2.7</ele>
        <time>2020-08-21T09:47:32.000Z</time>
      </trkpt>
      <trkpt lat="47.74392" lon="-3.35654">
        <ele>2.7</ele>
        <time>2020-08-21T09:47:33.000Z</time>
      </trkpt>
      <trkpt lat="47.74392" lon="-3.35651">
        <ele>2.7</ele>
        <time>2020-08-21T09:47:34.000Z</time>
      </trkpt>
      <trkpt lat="47.74391" lon="-3.35648">
        <ele>2.8</ele>
        <time>2020-08-21T09:47:35.000Z</time>
      </trkpt>
      <trkpt lat="47.74391" lon="-3.35645">
        <ele>2.8</ele>
        <time>2020-08-21T09:47:36.000Z</time>
      </trkpt>
      <trkpt lat="47.7439" lon="-3.35642">
        <ele>2.8</ele>
        <time>2020-08-21T09:47:37.000Z</time>
      </trkpt>
      <trkpt lat="47.7439" lon="-3.35639">
        <ele>2.9</ele>
        <time>2020-08-21T09:47:38.000Z</time>
      </trkpt>
      <trkpt lat="47.74389" lon="-3.35636">
        <ele>2.9</ele>
        <time>2020-08-21T09:47:39.000Z</time>
      </trkpt>
      <trkpt lat="47.74389" lon="-3.35633">
        <ele>2.9</ele>
        <time>2020-08-21T09:47:40.000Z</time>
      </trkpt>
      <trkpt lat="47.74389" lon="-3.3563">
        <ele>3</ele>
        <time>2020-08-21T09:47:41.000Z</time>
      </trkpt>
      <trkpt lat="47.74389" lon="-3.35626">
        <ele>3</ele>
        <time>2020-08-21T09:47:42.000Z</time>
      </trkpt>
      <trkpt lat="47.74388" lon="-3.35623">
        <ele>3</ele>
        <time>2020-08-21T09:47:43.000Z</time>
      </trkpt>
      <trkpt lat="47.74388" lon="-3.3562">
        <ele>3</ele>
        <time>2020-08-21T09:47:44.000Z</time>
      </trkpt>
      <trkpt lat="47.74388" lon="-3.35616">
        <ele>3.1</ele>
        <time>2020-08-21T09:47:45.000Z</time>
      </trkpt>
      <trkpt lat="47.74388" lon="-3.35613">
        <ele>3.1</ele>
        <time>2020-08-21T09:47:46.000Z</time>
      </trkpt>
      <trkpt lat="47.74388" lon="-3.35609">
        <ele>3.1</ele>
        <time>2020-08-21T09:47:47.000Z</time>
      </trkpt>
      <trkpt lat="47.74388" lon="-3.35606">
        <ele>3.1</ele>
        <time>2020-08-21T09:47:48.000Z</time>
      </trkpt>
      <trkpt lat="47.74388" lon="-3.35603">
        <ele>3.2</ele>
        <time>2020-08-21T09:47:49.000Z</time>
      </trkpt>
      <trkpt lat="47.74389" lon="-3.35599">
        <ele>3.2</ele>
        <time>2020-08-21T09:47:50.000Z</time>
      </trkpt>
      <trkpt lat="47.74389" lon="-3.35596">
        <ele>3.2</ele>
        <time>2020-08-21T09:47:51.000Z</time>
      </trkpt>
      <trkpt lat="47.74389" lon="-3.35593">
        <ele>3.3</ele>
        <time>2020-08-21T09:47:52.000Z</time>
      </trkpt>
      <trkpt lat="47.74389" lon="-3.35589">
        <ele>3.3</ele>
        <time>2020-08-21T09:47:53.000Z</time>
      </trkpt>
      <trkpt lat="47.74388" lon="-3.35586">
        <ele>3.3</ele>
        <time>2020-08-21T09:47:54.000Z</time>
      </trkpt>
      <trkpt lat="47.74388" lon="-3.35583">
        <ele>3.3</ele>
        <time>2020-08-21T09:47:55.000Z</time>
      </trkpt>
      <trkpt lat="47.74388" lon="-3.35579">
        <ele>3.3</ele>
        <time>2020-08-21T09:47:56.000Z</time>
      </trkpt>
      <trkpt lat="47.74388" lon="-3.35576">
        <ele>3.3</ele>
        <time>2020-08-21T09:47:57.000Z</time>
      </trkpt>
      <trkpt lat="47.74388" lon="-3.35573">
        <ele>3.3</ele>
        <time>2020-08-21T09:47:58.000Z</time>
      </trkpt>
      <trkpt lat="47.74387" lon="-3.3557">
        <ele>3.2</ele>
        <time>2020-08-21T09:47:59.000Z</time>
      </trkpt>
      <trkpt lat="47.74387" lon="-3.35566">
        <ele>3.2</ele>
        <time>2020-08-21T09:48:00.000Z</time>
      </trkpt>
      <trkpt lat="47.74387" lon="-3.35563">
        <ele>3.2</ele>
        <time>2020-08-21T09:48:01.000Z</time>
      </trkpt>
      <trkpt lat="47.74386" lon="-3.3556">
        <ele>3.2</ele>
        <time>2020-08-21T09:48:02.000Z</time>
      </trkpt>
      <trkpt lat="47.74386" lon="-3.35557">
        <ele>3.1</ele>
        <time>2020-08-21T09:48:03.000Z</time>
      </trkpt>
      <trkpt lat="47.74385" lon="-3.35554">
        <ele>3.1</ele>
        <time>2020-08-21T09:48:04.000Z</time>
      </trkpt>
      <trkpt lat="47.74385" lon="-3.3555">
        <ele>3.1</ele>
        <time>2020-08-21T09:48:05.000Z</time>
      </trkpt>
      <trkpt lat="47.74384" lon="-3.35547">
        <ele>3</ele>
        <time>2020-08-21T09:48:06.000Z</time>
      </trkpt>
      <trkpt lat="47.74383" lon="-3.35544">
        <ele>3</ele>
        <time>2020-08-21T09:48:07.000Z</time>
      </trkpt>
      <trkpt lat="47.74383" lon="-3.3554">
        <ele>3</ele>
        <time>2020-08-21T09:48:08.000Z</time>
      </trkpt>
      <trkpt lat="47.74382" lon="-3.35537">
        <ele>2.9</ele>
        <time>2020-08-21T09:48:09.000Z</time>
      </trkpt>
      <trkpt lat="47.74381" lon="-3.35534">
        <ele>2.9</ele>
        <time>2020-08-21T09:48:10.000Z</time>
      </trkpt>
      <trkpt lat="47.7438" lon="-3.3553">
        <ele>2.8</ele>
        <time>2020-08-21T09:48:11.000Z</time>
      </trkpt>
      <trkpt lat="47.74379" lon="-3.35527">
        <ele>2.8</ele>
        <time>2020-08-21T09:48:12.000Z</time>
      </trkpt>
      <trkpt lat="47.74379" lon="-3.35523">
        <ele>2.8</ele>
        <time>2020-08-21T09:48:13.000Z</time>
      </trkpt>
      <trkpt lat="47.74378" lon="-3.35519">
        <ele>2.7</ele>
        <time>2020-08-21T09:48:14.000Z</time>
      </trkpt>
      <trkpt lat="47.74377" lon="-3.35516">
        <ele>2.7</ele>
        <time>2020-08-21T09:48:15.000Z</time>
      </trkpt>
      <trkpt lat="47.74377" lon="-3.35512">
        <ele>2.6</ele>
        <time>2020-08-21T09:48:16.000Z</time>
      </trkpt>
      <trkpt lat="47.74376" lon="-3.35508">
        <ele>2.6</ele>
        <time>2020-08-21T09:48:17.000Z</time>
      </trkpt>
      <trkpt lat="47.74375" lon="-3.35505">
        <ele>2.5</ele>
        <time>2020-08-21T09:48:18.000Z</time>
      </trkpt>
      <trkpt lat="47.74374" lon="-3.35501">
        <ele>2.5</ele>
        <time>2020-08-21T09:48:19.000Z</time>
      </trkpt>
      <trkpt lat="47.74374" lon="-3.35497">
        <ele>2.5</ele>
        <time>2020-08-21T09:48:20.000Z</time>
      </trkpt>
      <trkpt lat="47.74373" lon="-3.35493">
        <ele>2.5</ele>
        <time>2020-08-21T09:48:21.000Z</time>
      </trkpt>
      <trkpt lat="47.74372" lon="-3.3549">
        <ele>2.5</ele>
        <time>2020-08-21T09:48:22.000Z</time>
      </trkpt>
      <trkpt lat="47.74371" lon="-3.35486">
        <ele>2.5</ele>
        <time>2020-08-21T09:48:23.000Z</time>
      </trkpt>
      <trkpt lat="47.74371" lon="-3.35482">
        <ele>2.5</ele>
        <time>2020-08-21T09:48:24.000Z</time>
      </trkpt>
      <trkpt lat="47.7437" lon="-3.35478">
        <ele>2.5</ele>
        <time>2020-08-21T09:48:25.000Z</time>
      </trkpt>
      <trkpt lat="47.74369" lon="-3.35475">
        <ele>2.5</ele>
        <time>2020-08-21T09:48:26.000Z</time>
      </trkpt>
      <trkpt lat="47.74368" lon="-3.35471">
        <ele>2.5</ele>
        <time>2020-08-21T09:48:27.000Z</time>
      </trkpt>
      <trkpt lat="47.74367" lon="-3.35467">
        <ele>2.5</ele>
        <time>2020-08-21T09:48:28.000Z</time>
      </trkpt>
      <trkpt lat="47.74366" lon="-3.35464">
        <ele>2.5</ele>
        <time>2020-08-21T09:48:29.000Z</time>
      </trkpt>
      <trkpt lat="47.74365" lon="-3.3546">
        <ele>2.5</ele>
        <time>2020-08-21T09:48:30.000Z</time>
      </trkpt>
      <trkpt lat="47.74364" lon="-3.35457">
        <ele>2.5</ele>
        <time>2020-08-21T09:48:31.000Z</time>
      </trkpt>
      <trkpt lat="47.74364" lon="-3.35453">
        <ele>2.5</ele>
        <time>2020-08-21T09:48:32.000Z</time>
      </trkpt>
      <trkpt lat="47.74363" lon="-3.3545">
        <ele>2.5</ele>
        <time>2020-08-21T09:48:33.000Z</time>
      </trkpt>
      <trkpt lat="47.74362" lon="-3.35446">
        <ele>2.5</ele>
        <time>2020-08-21T09:48:34.000Z</time>
      </trkpt>
      <trkpt lat="47.74361" lon="-3.35442">
        <ele>2.4</ele>
        <time>2020-08-21T09:48:35.000Z</time>
      </trkpt>
      <trkpt lat="47.7436" lon="-3.35439">
        <ele>2.4</ele>
        <time>2020-08-21T09:48:36.000Z</time>
      </trkpt>
      <trkpt lat="47.74359" lon="-3.35435">
        <ele>2.4</ele>
        <time>2020-08-21T09:48:37.000Z</time>
      </trkpt>
      <trkpt lat="47.74358" lon="-3.35431">
        <ele>2.4</ele>
        <time>2020-08-21T09:48:38.000Z</time>
      </trkpt>
      <trkpt lat="47.74358" lon="-3.35427">
        <ele>2.4</ele>
        <time>2020-08-21T09:48:39.000Z</time>
      </trkpt>
      <trkpt lat="47.74357" lon="-3.35424">
        <ele>2.4</ele>
        <time>2020-08-21T09:48:40.000Z</time>
      </trkpt>
      <trkpt lat="47.74356" lon="-3.3542">
        <ele>2.3</ele>
        <time>2020-08-21T09:48:41.000Z</time>
      </trkpt>
      <trkpt lat="47.74355" lon="-3.35416">
        <ele>2.3</ele>
        <time>2020-08-21T09:48:42.000Z</time>
      </trkpt>
      <trkpt lat="47.74355" lon="-3.35412">
        <ele>2.2</ele>
        <time>2020-08-21T09:48:43.000Z</time>
      </trkpt>
      <trkpt lat="47.74354" lon="-3.35408">
        <ele>2.2</ele>
        <time>2020-08-21T09:48:44.000Z</time>
      </trkpt>
      <trkpt lat="47.74354" lon="-3.35405">
        <ele>2.1</ele>
        <time>2020-08-21T09:48:45.000Z</time>
      </trkpt>
      <trkpt lat="47.74353" lon="-3.35401">
        <ele>2</ele>
        <time>2020-08-21T09:48:46.000Z</time>
      </trkpt>
      <trkpt lat="47.74352" lon="-3.35397">
        <ele>1.9</ele>
        <time>2020-08-21T09:48:47.000Z</time>
      </trkpt>
      <trkpt lat="47.74352" lon="-3.35393">
        <ele>1.8</ele>
        <time>2020-08-21T09:48:48.000Z</time>
      </trkpt>
      <trkpt lat="47.74351" lon="-3.35389">
        <ele>1.7</ele>
        <time>2020-08-21T09:48:49.000Z</time>
      </trkpt>
      <trkpt lat="47.7435" lon="-3.35386">
        <ele>1.6</ele>
        <time>2020-08-21T09:48:50.000Z</time>
      </trkpt>
      <trkpt lat="47.7435" lon="-3.35382">
        <ele>1.6</ele>
        <time>2020-08-21T09:48:51.000Z</time>
      </trkpt>
      <trkpt lat="47.74349" lon="-3.35378">
        <ele>1.5</ele>
        <time>2020-08-21T09:48:52.000Z</time>
      </trkpt>
      <trkpt lat="47.74348" lon="-3.35375">
        <ele>1.4</ele>
        <time>2020-08-21T09:48:53.000Z</time>
      </trkpt>
      <trkpt lat="47.74347" lon="-3.35371">
        <ele>1.3</ele>
        <time>2020-08-21T09:48:54.000Z</time>
      </trkpt>
      <trkpt lat="47.74347" lon="-3.35367">
        <ele>1.2</ele>
        <time>2020-08-21T09:48:55.000Z</time>
      </trkpt>
      <trkpt lat="47.74346" lon="-3.35364">
        <ele>1.1</ele>
        <time>2020-08-21T09:48:56.000Z</time>
      </trkpt>
      <trkpt lat="47.74345" lon="-3.3536">
        <ele>1</ele>
        <time>2020-08-21T09:48:57.000Z</time>
      </trkpt>
      <trkpt lat="47.74344" lon="-3.35356">
        <ele>0.9</ele>
        <time>2020-08-21T09:48:58.000Z</time>
      </trkpt>
      <trkpt lat="47.74344" lon="-3.35353">
        <ele>0.8</ele>
        <time>2020-08-21T09:48:59.000Z</time>
      </trkpt>
      <trkpt lat="47.74343" lon="-3.35349">
        <ele>0.7</ele>
        <time>2020-08-21T09:49:00.000Z</time>
      </trkpt>
      <trkpt lat="47.74342" lon="-3.35345">
        <ele>0.7</ele>
        <time>2020-08-21T09:49:01.000Z</time>
      </trkpt>
      <trkpt lat="47.74341" lon="-3.35342">
        <ele>0.6</ele>
        <time>2020-08-21T09:49:02.000Z</time>
      </trkpt>
      <trkpt lat="47.74341" lon="-3.35338">
        <ele>0.5</ele>
        <time>2020-08-21T09:49:03.000Z</time>
      </trkpt>
      <trkpt lat="47.7434" lon="-3.35334">
        <ele>0.4</ele>
        <time>2020-08-21T09:49:04.000Z</time>
      </trkpt>
      <trkpt lat="47.74339" lon="-3.3533">
        <ele>0.4</ele>
        <time>2020-08-21T09:49:05.000Z</time>
      </trkpt>
      <trkpt lat="47.74339" lon="-3.35327">
        <ele>0.4</ele>
        <time>2020-08-21T09:49:06.000Z</time>
      </trkpt>
      <trkpt lat="47.74338" lon="-3.35323">
        <ele>0.4</ele>
        <time>2020-08-21T09:49:07.000Z</time>
      </trkpt>
      <trkpt lat="47.74337" lon="-3.35319">
        <ele>0.4</ele>
        <time>2020-08-21T09:49:08.000Z</time>
      </trkpt>
      <trkpt lat="47.74337" lon="-3.35316">
        <ele>0.4</ele>
        <time>2020-08-21T09:49:09.000Z</time>
      </trkpt>
      <trkpt lat="47.74336" lon="-3.35312">
        <ele>0.4</ele>
        <time>2020-08-21T09:49:10.000Z</time>
      </trkpt>
      <trkpt lat="47.74336" lon="-3.35308">
        <ele>0.4</ele>
        <time>2020-08-21T09:49:11.000Z</time>
      </trkpt>
      <trkpt lat="47.74335" lon="-3.35305">
        <ele>0.4</ele>
        <time>2020-08-21T09:49:12.000Z</time>
      </trkpt>
      <trkpt lat="47.74334" lon="-3.35301">
        <ele>0.4</ele>
        <time>2020-08-21T09:49:13.000Z</time>
      </trkpt>
      <trkpt lat="47.74334" lon="-3.35297">
        <ele>0.5</ele>
        <time>2020-08-21T09:49:14.000Z</time>
      </trkpt>
      <trkpt lat="47.74333" lon="-3.35293">
        <ele>0.5</ele>
        <time>2020-08-21T09:49:15.000Z</time>
      </trkpt>
      <trkpt lat="47.74333" lon="-3.3529">
        <ele>0.5</ele>
        <time>2020-08-21T09:49:16.000Z</time>
      </trkpt>
      <trkpt lat="47.74332" lon="-3.35286">
        <ele>0.6</ele>
        <time>2020-08-21T09:49:17.000Z</time>
      </trkpt>
      <trkpt lat="47.74331" lon="-3.35282">
        <ele>0.7</ele>
        <time>2020-08-21T09:49:18.000Z</time>
      </trkpt>
      <trkpt lat="47.74331" lon="-3.35279">
        <ele>0.7</ele>
        <time>2020-08-21T09:49:19.000Z</time>
      </trkpt>
      <trkpt lat="47.7433" lon="-3.35275">
        <ele>0.8</ele>
        <time>2020-08-21T09:49:20.000Z</time>
      </trkpt>
      <trkpt lat="47.74329" lon="-3.35271">
        <ele>0.8</ele>
        <time>2020-08-21T09:49:21.000Z</time>
      </trkpt>
      <trkpt lat="47.74329" lon="-3.35268">
        <ele>0.9</ele>
        <time>2020-08-21T09:49:22.000Z</time>
      </trkpt>
      <trkpt lat="47.74328" lon="-3.35264">
        <ele>0.9</ele>
        <time>2020-08-21T09:49:23.000Z</time>
      </trkpt>
      <trkpt lat="47.74327" lon="-3.3526">
        <ele>1</ele>
        <time>2020-08-21T09:49:24.000Z</time>
      </trkpt>
      <trkpt lat="47.74327" lon="-3.35257">
        <ele>1</ele>
        <time>2020-08-21T09:49:25.000Z</time>
      </trkpt>
      <trkpt lat="47.74326" lon="-3.35253">
        <ele>1.1</ele>
        <time>2020-08-21T09:49:26.000Z</time>
      </trkpt>
      <trkpt lat="47.74325" lon="-3.35249">
        <ele>1.1</ele>
        <time>2020-08-21T09:49:27.000Z</time>
      </trkpt>
      <trkpt lat="47.74324" lon="-3.35246">
        <ele>1.1</ele>
        <time>2020-08-21T09:49:28.000Z</time>
      </trkpt>
      <trkpt lat="47.74323" lon="-3.35242">
        <ele>1.1</ele>
        <time>2020-08-21T09:49:29.000Z</time>
      </trkpt>
      <trkpt lat="47.74323" lon="-3.35239">
        <ele>1.1</ele>
        <time>2020-08-21T09:49:30.000Z</time>
      </trkpt>
      <trkpt lat="47.74322" lon="-3.35235">
        <ele>1.1</ele>
        <time>2020-08-21T09:49:31.000Z</time>
      </trkpt>
      <trkpt lat="47.74321" lon="-3.35231">
        <ele>1.1</ele>
        <time>2020-08-21T09:49:32.000Z</time>
      </trkpt>
      <trkpt lat="47.7432" lon="-3.35228">
        <ele>1.2</ele>
        <time>2020-08-21T09:49:33.000Z</time>
      </trkpt>
      <trkpt lat="47.7432" lon="-3.35224">
        <ele>1.2</ele>
        <time>2020-08-21T09:49:34.000Z</time>
      </trkpt>
      <trkpt lat="47.74319" lon="-3.3522">
        <ele>1.2</ele>
        <time>2020-08-21T09:49:35.000Z</time>
      </trkpt>
      <trkpt lat="47.74318" lon="-3.35217">
        <ele>1.2</ele>
        <time>2020-08-21T09:49:36.000Z</time>
      </trkpt>
      <trkpt lat="47.74317" lon="-3.35213">
        <ele>1.2</ele>
        <time>2020-08-21T09:49:37.000Z</time>
      </trkpt>
      <trkpt lat="47.74317" lon="-3.35209">
        <ele>1.2</ele>
        <time>2020-08-21T09:49:38.000Z</time>
      </trkpt>
      <trkpt lat="47.74316" lon="-3.35206">
        <ele>1.2</ele>
        <time>2020-08-21T09:49:39.000Z</time>
      </trkpt>
      <trkpt lat="47.74315" lon="-3.35202">
        <ele>1.2</ele>
        <time>2020-08-21T09:49:40.000Z</time>
      </trkpt>
      <trkpt lat="47.74314" lon="-3.35198">
        <ele>1.2</ele>
        <time>2020-08-21T09:49:41.000Z</time>
      </trkpt>
      <trkpt lat="47.74314" lon="-3.35195">
        <ele>1.2</ele>
        <time>2020-08-21T09:49:42.000Z</time>
      </trkpt>
      <trkpt lat="47.74313" lon="-3.35191">
        <ele>1.2</ele>
        <time>2020-08-21T09:49:43.000Z</time>
      </trkpt>
      <trkpt lat="47.74312" lon="-3.35187">
        <ele>1.3</ele>
        <time>2020-08-21T09:49:44.000Z</time>
      </trkpt>
      <trkpt lat="47.74312" lon="-3.35184">
        <ele>1.3</ele>
        <time>2020-08-21T09:49:45.000Z</time>
      </trkpt>
      <trkpt lat="47.74311" lon="-3.3518">
        <ele>1.3</ele>
        <time>2020-08-21T09:49:46.000Z</time>
      </trkpt>
      <trkpt lat="47.7431" lon="-3.35176">
        <ele>1.3</ele>
        <time>2020-08-21T09:49:47.000Z</time>
      </trkpt>
      <trkpt lat="47.7431" lon="-3.35172">
        <ele>1.3</ele>
        <time>2020-08-21T09:49:48.000Z</time>
      </trkpt>
      <trkpt lat="47.74309" lon="-3.35169">
        <ele>1.3</ele>
        <time>2020-08-21T09:49:49.000Z</time>
      </trkpt>
      <trkpt lat="47.74309" lon="-3.35165">
        <ele>1.3</ele>
        <time>2020-08-21T09:49:50.000Z</time>
      </trkpt>
      <trkpt lat="47.74308" lon="-3.35161">
        <ele>1.3</ele>
        <time>2020-08-21T09:49:51.000Z</time>
      </trkpt>
      <trkpt lat="47.74308" lon="-3.35157">
        <ele>1.3</ele>
        <time>2020-08-21T09:49:52.000Z</time>
      </trkpt>
      <trkpt lat="47.74307" lon="-3.35153">
        <ele>1.3</ele>
        <time>2020-08-21T09:49:53.000Z</time>
      </trkpt>
      <trkpt lat="47.74307" lon="-3.3515">
        <ele>1.3</ele>
        <time>2020-08-21T09:49:54.000Z</time>
      </trkpt>
      <trkpt lat="47.74306" lon="-3.35146">
        <ele>1.3</ele>
        <time>2020-08-21T09:49:55.000Z</time>
      </trkpt>
      <trkpt lat="47.74306" lon="-3.35142">
        <ele>1.3</ele>
        <time>2020-08-21T09:49:56.000Z</time>
      </trkpt>
      <trkpt lat="47.74305" lon="-3.35138">
        <ele>1.3</ele>
        <time>2020-08-21T09:49:57.000Z</time>
      </trkpt>
      <trkpt lat="47.74305" lon="-3.35134">
        <ele>1.3</ele>
        <time>2020-08-21T09:49:58.000Z</time>
      </trkpt>
      <trkpt lat="47.74304" lon="-3.35131">
        <ele>1.3</ele>
        <time>2020-08-21T09:49:59.000Z</time>
      </trkpt>
      <trkpt lat="47.74303" lon="-3.35127">
        <ele>1.3</ele>
        <time>2020-08-21T09:50:00.000Z</time>
      </trkpt>
      <trkpt lat="47.74303" lon="-3.35123">
        <ele>1.3</ele>
        <time>2020-08-21T09:50:01.000Z</time>
      </trkpt>
      <trkpt lat="47.74302" lon="-3.35119">
        <ele>1.2</ele>
        <time>2020-08-21T09:50:02.000Z</time>
      </trkpt>
      <trkpt lat="47.74302" lon="-3.35116">
        <ele>1.2</ele>
        <time>2020-08-21T09:50:03.000Z</time>
      </trkpt>
      <trkpt lat="47.74301" lon="-3.35112">
        <ele>1.2</ele>
        <time>2020-08-21T09:50:04.000Z</time>
      </trkpt>
      <trkpt lat="47.74301" lon="-3.35108">
        <ele>1.2</ele>
        <time>2020-08-21T09:50:05.000Z</time>
      </trkpt>
      <trkpt lat="47.74301" lon="-3.35104">
        <ele>1.1</ele>
        <time>2020-08-21T09:50:06.000Z</time>
      </trkpt>
      <trkpt lat="47.743" lon="-3.351">
        <ele>1.1</ele>
        <time>2020-08-21T09:50:07.000Z</time>
      </trkpt>
      <trkpt lat="47.743" lon="-3.35097">
        <ele>1.1</ele>
        <time>2020-08-21T09:50:08.000Z</time>
      </trkpt>
      <trkpt lat="47.743" lon="-3.35093">
        <ele>1</ele>
        <time>2020-08-21T09:50:09.000Z</time>
      </trkpt>
      <trkpt lat="47.74299" lon="-3.35089">
        <ele>1</ele>
        <time>2020-08-21T09:50:10.000Z</time>
      </trkpt>
      <trkpt lat="47.74299" lon="-3.35085">
        <ele>1</ele>
        <time>2020-08-21T09:50:11.000Z</time>
      </trkpt>
      <trkpt lat="47.74299" lon="-3.35081">
        <ele>0.9</ele>
        <time>2020-08-21T09:50:12.000Z</time>
      </trkpt>
      <trkpt lat="47.74299" lon="-3.35077">
        <ele>0.7</ele>
        <time>2020-08-21T09:50:13.000Z</time>
      </trkpt>
      <trkpt lat="47.74299" lon="-3.35073">
        <ele>0.5</ele>
        <time>2020-08-21T09:50:14.000Z</time>
      </trkpt>
      <trkpt lat="47.74299" lon="-3.35069">
        <ele>0.4</ele>
        <time>2020-08-21T09:50:15.000Z</time>
      </trkpt>
      <trkpt lat="47.74299" lon="-3.35065">
        <ele>0.2</ele>
        <time>2020-08-21T09:50:16.000Z</time>
      </trkpt>
      <trkpt lat="47.74299" lon="-3.35062">
        <ele>0.1</ele>
        <time>2020-08-21T09:50:17.000Z</time>
      </trkpt>
      <trkpt lat="47.74299" lon="-3.35058">
        <ele>3</ele>
        <time>2020-08-21T09:50:18.000Z</time>
      </trkpt>
      <trkpt lat="47.74299" lon="-3.35054">
        <ele>-0.2</ele>
        <time>2020-08-21T09:50:19.000Z</time>
      </trkpt>
      <trkpt lat="47.74299" lon="-3.3505">
        <ele>-0.3</ele>
        <time>2020-08-21T09:50:20.000Z</time>
      </trkpt>
      <trkpt lat="47.74299" lon="-3.35046">
        <ele>-0.5</ele>
        <time>2020-08-21T09:50:21.000Z</time>
      </trkpt>
      <trkpt lat="47.74299" lon="-3.35042">
        <ele>-0.6</ele>
        <time>2020-08-21T09:50:22.000Z</time>
      </trkpt>
      <trkpt lat="47.74299" lon="-3.35038">
        <ele>-0.8</ele>
        <time>2020-08-21T09:50:23.000Z</time>
      </trkpt>
      <trkpt lat="47.74299" lon="-3.35034">
        <ele>-0.9</ele>
        <time>2020-08-21T09:50:24.000Z</time>
      </trkpt>
      <trkpt lat="47.74299" lon="-3.3503">
        <ele>-1.1</ele>
        <time>2020-08-21T09:50:25.000Z</time>
      </trkpt>
      <trkpt lat="47.74299" lon="-3.35027">
        <ele>-1.2</ele>
        <time>2020-08-21T09:50:26.000Z</time>
      </trkpt>
      <trkpt lat="47.74299" lon="-3.35023">
        <ele>-1.4</ele>
        <time>2020-08-21T09:50:27.000Z</time>
      </trkpt>
      <trkpt lat="47.74299" lon="-3.35019">
        <ele>-1.5</ele>
        <time>2020-08-21T09:50:28.000Z</time>
      </trkpt>
      <trkpt lat="47.74299" lon="-3.35015">
        <ele>-1.7</ele>
        <time>2020-08-21T09:50:29.000Z</time>
      </trkpt>
      <trkpt lat="47.74299" lon="-3.35011">
        <ele>-1.8</ele>
        <time>2020-08-21T09:50:30.000Z</time>
      </trkpt>
      <trkpt lat="47.74299" lon="-3.35008">
        <ele>-2</ele>
        <time>2020-08-21T09:50:31.000Z</time>
      </trkpt>
      <trkpt lat="47.74299" lon="-3.35004">
        <ele>-2.1</ele>
        <time>2020-08-21T09:50:32.000Z</time>
      </trkpt>
      <trkpt lat="47.74299" lon="-3.35">
        <ele>-2.2</ele>
        <time>2020-08-21T09:50:33.000Z</time>
      </trkpt>
      <trkpt lat="47.74299" lon="-3.34996">
        <ele>-2.1</ele>
        <time>2020-08-21T09:50:34.000Z</time>
      </trkpt>
      <trkpt lat="47.74298" lon="-3.34992">
        <ele>-2.1</ele>
        <time>2020-08-21T09:50:35.000Z</time>
      </trkpt>
      <trkpt lat="47.74298" lon="-3.34989">
        <ele>-2</ele>
        <time>2020-08-21T09:50:36.000Z</time>
      </trkpt>
      <trkpt lat="47.74298" lon="-3.34985">
        <ele>-1.9</ele>
        <time>2020-08-21T09:50:37.000Z</time>
      </trkpt>
      <trkpt lat="47.74297" lon="-3.34981">
        <ele>-1.8</ele>
        <time>2020-08-21T09:50:38.000Z</time>
      </trkpt>
      <trkpt lat="47.74297" lon="-3.34978">
        <ele>-1.7</ele>
        <time>2020-08-21T09:50:39.000Z</time>
      </trkpt>
      <trkpt lat="47.74296" lon="-3.34974">
        <ele>-1.6</ele>
        <time>2020-08-21T09:50:40.000Z</time>
      </trkpt>
      <trkpt lat="47.74296" lon="-3.3497">
        <ele>-1.5</ele>
        <time>2020-08-21T09:50:41.000Z</time>
      </trkpt>
      <trkpt lat="47.74295" lon="-3.34967">
        <ele>-1.4</ele>
        <time>2020-08-21T09:50:42.000Z</time>
      </trkpt>
      <trkpt lat="47.74295" lon="-3.34963">
        <ele>-1.3</ele>
        <time>2020-08-21T09:50:43.000Z</time>
      </trkpt>
      <trkpt lat="47.74294" lon="-3.34959">
        <ele>-1.2</ele>
        <time>2020-08-21T09:50:44.000Z</time>
      </trkpt>
      <trkpt lat="47.74293" lon="-3.34955">
        <ele>-1.1</ele>
        <time>2020-08-21T09:50:45.000Z</time>
      </trkpt>
      <trkpt lat="47.74293" lon="-3.34952">
        <ele>-1</ele>
        <time>2020-08-21T09:50:46.000Z</time>
      </trkpt>
      <trkpt lat="47.74292" lon="-3.34948">
        <ele>-0.9</ele>
        <time>2020-08-21T09:50:47.000Z</time>
      </trkpt>
      <trkpt lat="47.74291" lon="-3.34943">
        <ele>-0.8</ele>
        <time>2020-08-21T09:50:48.000Z</time>
      </trkpt>
      <trkpt lat="47.7429" lon="-3.34939">
        <ele>-0.7</ele>
        <time>2020-08-21T09:50:49.000Z</time>
      </trkpt>
      <trkpt lat="47.7429" lon="-3.34935">
        <ele>-0.6</ele>
        <time>2020-08-21T09:50:50.000Z</time>
      </trkpt>
      <trkpt lat="47.74289" lon="-3.3493">
        <ele>-0.4</ele>
        <time>2020-08-21T09:50:51.000Z</time>
      </trkpt>
      <trkpt lat="47.74288" lon="-3.34925">
        <ele>-0.3</ele>
        <time>2020-08-21T09:50:52.000Z</time>
      </trkpt>
      <trkpt lat="47.74287" lon="-3.34921">
        <ele>-0.1</ele>
        <time>2020-08-21T09:50:53.000Z</time>
      </trkpt>
      <trkpt lat="47.74286" lon="-3.34916">
        <ele>2</ele>
        <time>2020-08-21T09:50:54.000Z</time>
      </trkpt>
      <trkpt lat="47.74285" lon="-3.34911">
        <ele>2</ele>
        <time>2020-08-21T09:50:55.000Z</time>
      </trkpt>
      <trkpt lat="47.74284" lon="-3.34906">
        <ele>2</ele>
        <time>2020-08-21T09:50:56.000Z</time>
      </trkpt>
      <trkpt lat="47.74283" lon="-3.34902">
        <ele>2</ele>
        <time>2020-08-21T09:50:57.000Z</time>
      </trkpt>
      <trkpt lat="47.74281" lon="-3.34897">
        <ele>2</ele>
        <time>2020-08-21T09:50:58.000Z</time>
      </trkpt>
      <trkpt lat="47.7428" lon="-3.34892">
        <ele>2</ele>
        <time>2020-08-21T09:50:59.000Z</time>
      </trkpt>
      <trkpt lat="47.74278" lon="-3.34888">
        <ele>2</ele>
        <time>2020-08-21T09:51:00.000Z</time>
      </trkpt>
      <trkpt lat="47.74276" lon="-3.34883">
        <ele>2</ele>
        <time>2020-08-21T09:51:01.000Z</time>
      </trkpt>
      <trkpt lat="47.74274" lon="-3.34878">
        <ele>2</ele>
        <time>2020-08-21T09:51:02.000Z</time>
      </trkpt>
      <trkpt lat="47.74272" lon="-3.34874">
        <ele>2</ele>
        <time>2020-08-21T09:51:03.000Z</time>
      </trkpt>
      <trkpt lat="47.7427" lon="-3.3487">
        <ele>2</ele>
        <time>2020-08-21T09:51:04.000Z</time>
      </trkpt>
      <trkpt lat="47.74268" lon="-3.34865">
        <ele>2</ele>
        <time>2020-08-21T09:51:05.000Z</time>
      </trkpt>
      <trkpt lat="47.74266" lon="-3.34861">
        <ele>2</ele>
        <time>2020-08-21T09:51:06.000Z</time>
      </trkpt>
      <trkpt lat="47.74264" lon="-3.34857">
        <ele>2</ele>
        <time>2020-08-21T09:51:07.000Z</time>
      </trkpt>
      <trkpt lat="47.74261" lon="-3.34853">
        <ele>2</ele>
        <time>2020-08-21T09:51:08.000Z</time>
      </trkpt>
      <trkpt lat="47.74259" lon="-3.34848">
        <ele>2</ele>
        <time>2020-08-21T09:51:09.000Z</time>
      </trkpt>
      <trkpt lat="47.74256" lon="-3.34844">
        <ele>2</ele>
        <time>2020-08-21T09:51:10.000Z</time>
      </trkpt>
      <trkpt lat="47.74253" lon="-3.3484">
        <ele>2</ele>
        <time>2020-08-21T09:51:11.000Z</time>
      </trkpt>
      <trkpt lat="47.74251" lon="-3.34836">
        <ele>2</ele>
        <time>2020-08-21T09:51:12.000Z</time>
      </trkpt>
      <trkpt lat="47.74247" lon="-3.34832">
        <ele>2</ele>
        <time>2020-08-21T09:51:13.000Z</time>
      </trkpt>
      <trkpt lat="47.74244" lon="-3.34828">
        <ele>2</ele>
        <time>2020-08-21T09:51:14.000Z</time>
      </trkpt>
      <trkpt lat="47.74241" lon="-3.34824">
        <ele>2</ele>
        <time>2020-08-21T09:51:15.000Z</time>
      </trkpt>
      <trkpt lat="47.74237" lon="-3.3482">
        <ele>2</ele>
        <time>2020-08-21T09:51:16.000Z</time>
      </trkpt>
      <trkpt lat="47.74233" lon="-3.34816">
        <ele>2</ele>
        <time>2020-08-21T09:51:17.000Z</time>
      </trkpt>
      <trkpt lat="47.74229" lon="-3.34813">
        <ele>2</ele>
        <time>2020-08-21T09:51:18.000Z</time>
      </trkpt>
      <trkpt lat="47.74225" lon="-3.34809">
        <ele>2</ele>
        <time>2020-08-21T09:51:19.000Z</time>
      </trkpt>
      <trkpt lat="47.7422" lon="-3.34806">
        <ele>2</ele>
        <time>2020-08-21T09:51:20.000Z</time>
      </trkpt>
      <trkpt lat="47.74216" lon="-3.34804">
        <ele>2</ele>
        <time>2020-08-21T09:51:21.000Z</time>
      </trkpt>
      <trkpt lat="47.74211" lon="-3.34801">
        <ele>2</ele>
        <time>2020-08-21T09:51:22.000Z</time>
      </trkpt>
      <trkpt lat="47.74206" lon="-3.34799">
        <ele>2</ele>
        <time>2020-08-21T09:51:23.000Z</time>
      </trkpt>
      <trkpt lat="47.74202" lon="-3.34796">
        <ele>2</ele>
        <time>2020-08-21T09:51:24.000Z</time>
      </trkpt>
      <trkpt lat="47.74197" lon="-3.34794">
        <ele>2</ele>
        <time>2020-08-21T09:51:25.000Z</time>
      </trkpt>
      <trkpt lat="47.74192" lon="-3.34792">
        <ele>2</ele>
        <time>2020-08-21T09:51:26.000Z</time>
      </trkpt>
      <trkpt lat="47.74187" lon="-3.3479">
        <ele>2</ele>
        <time>2020-08-21T09:51:27.000Z</time>
      </trkpt>
      <trkpt lat="47.74182" lon="-3.34789">
        <ele>2</ele>
        <time>2020-08-21T09:51:28.000Z</time>
      </trkpt>
      <trkpt lat="47.74177" lon="-3.34787">
        <ele>2</ele>
        <time>2020-08-21T09:51:29.000Z</time>
      </trkpt>
      <trkpt lat="47.74172" lon="-3.34785">
        <ele>2</ele>
        <time>2020-08-21T09:51:30.000Z</time>
      </trkpt>
      <trkpt lat="47.74167" lon="-3.34784">
        <ele>2</ele>
        <time>2020-08-21T09:51:31.000Z</time>
      </trkpt>
      <trkpt lat="47.74162" lon="-3.34782">
        <ele>2</ele>
        <time>2020-08-21T09:51:32.000Z</time>
      </trkpt>
      <trkpt lat="47.74157" lon="-3.34781">
        <ele>2</ele>
        <time>2020-08-21T09:51:33.000Z</time>
      </trkpt>
      <trkpt lat="47.74152" lon="-3.3478">
        <ele>2</ele>
        <time>2020-08-21T09:51:34.000Z</time>
      </trkpt>
      <trkpt lat="47.74147" lon="-3.34778">
        <ele>2</ele>
        <time>2020-08-21T09:51:35.000Z</time>
      </trkpt>
      <trkpt lat="47.74142" lon="-3.34777">
        <ele>2</ele>
        <time>2020-08-21T09:51:36.000Z</time>
      </trkpt>
      <trkpt lat="47.74137" lon="-3.34776">
        <ele>2</ele>
        <time>2020-08-21T09:51:37.000Z</time>
      </trkpt>
      <trkpt lat="47.74132" lon="-3.34775">
        <ele>2</ele>
        <time>2020-08-21T09:51:38.000Z</time>
      </trkpt>
      <trkpt lat="47.74127" lon="-3.34774">
        <ele>2</ele>
        <time>2020-08-21T09:51:39.000Z</time>
      </trkpt>
      <trkpt lat="47.74122" lon="-3.34773">
        <ele>2</ele>
        <time>2020-08-21T09:51:40.000Z</time>
      </trkpt>
      <trkpt lat="47.74117" lon="-3.34772">
        <ele>2</ele>
        <time>2020-08-21T09:51:41.000Z</time>
      </trkpt>
      <trkpt lat="47.74112" lon="-3.34772">
        <ele>2</ele>
        <time>2020-08-21T09:51:42.000Z</time>
      </trkpt>
      <trkpt lat="47.74107" lon="-3.34771">
        <ele>2</ele>
        <time>2020-08-21T09:51:43.000Z</time>
      </trkpt>
      <trkpt lat="47.74102" lon="-3.3477">
        <ele>2</ele>
        <time>2020-08-21T09:51:44.000Z</time>
      </trkpt>
      <trkpt lat="47.74097" lon="-3.3477">
        <ele>2</ele>
        <time>2020-08-21T09:51:45.000Z</time>
      </trkpt>
      <trkpt lat="47.74092" lon="-3.3477">
        <ele>2</ele>
        <time>2020-08-21T09:51:46.000Z</time>
      </trkpt>
      <trkpt lat="47.74086" lon="-3.34769">
        <ele>2</ele>
        <time>2020-08-21T09:51:47.000Z</time>
      </trkpt>
      <trkpt lat="47.74081" lon="-3.34769">
        <ele>2</ele>
        <time>2020-08-21T09:51:48.000Z</time>
      </trkpt>
      <trkpt lat="47.74076" lon="-3.34769">
        <ele>2</ele>
        <time>2020-08-21T09:51:49.000Z</time>
      </trkpt>
      <trkpt lat="47.74071" lon="-3.34769">
        <ele>2</ele>
        <time>2020-08-21T09:51:50.000Z</time>
      </trkpt>
      <trkpt lat="47.74066" lon="-3.34769">
        <ele>2</ele>
        <time>2020-08-21T09:51:51.000Z</time>
      </trkpt>
      <trkpt lat="47.74061" lon="-3.34769">
        <ele>2</ele>
        <time>2020-08-21T09:51:52.000Z</time>
      </trkpt>
      <trkpt lat="47.74056" lon="-3.3477">
        <ele>2</ele>
        <time>2020-08-21T09:51:53.000Z</time>
      </trkpt>
      <trkpt lat="47.74051" lon="-3.3477">
        <ele>2</ele>
        <time>2020-08-21T09:51:54.000Z</time>
      </trkpt>
      <trkpt lat="47.74046" lon="-3.34771">
        <ele>2</ele>
        <time>2020-08-21T09:51:55.000Z</time>
      </trkpt>
      <trkpt lat="47.74041" lon="-3.34771">
        <ele>2</ele>
        <time>2020-08-21T09:51:56.000Z</time>
      </trkpt>
      <trkpt lat="47.74036" lon="-3.34772">
        <ele>2</ele>
        <time>2020-08-21T09:51:57.000Z</time>
      </trkpt>
      <trkpt lat="47.74031" lon="-3.34773">
        <ele>2</ele>
        <time>2020-08-21T09:51:58.000Z</time>
      </trkpt>
      <trkpt lat="47.74026" lon="-3.34774">
        <ele>2</ele>
        <time>2020-08-21T09:51:59.000Z</time>
      </trkpt>
      <trkpt lat="47.74021" lon="-3.34775">
        <ele>2</ele>
        <time>2020-08-21T09:52:00.000Z</time>
      </trkpt>
      <trkpt lat="47.74016" lon="-3.34776">
        <ele>2</ele>
        <time>2020-08-21T09:52:01.000Z</time>
      </trkpt>
      <trkpt lat="47.74011" lon="-3.34777">
        <ele>2</ele>
        <time>2020-08-21T09:52:02.000Z</time>
      </trkpt>
      <trkpt lat="47.74006" lon="-3.34778">
        <ele>2</ele>
        <time>2020-08-21T09:52:03.000Z</time>
      </trkpt>
      <trkpt lat="47.74001" lon="-3.3478">
        <ele>2</ele>
        <time>2020-08-21T09:52:04.000Z</time>
      </trkpt>
      <trkpt lat="47.73996" lon="-3.34781">
        <ele>-0.5</ele>
        <time>2020-08-21T09:52:05.000Z</time>
      </trkpt>
      <trkpt lat="47.73991" lon="-3.34783">
        <ele>-0.5</ele>
        <time>2020-08-21T09:52:06.000Z</time>
      </trkpt>
      <trkpt lat="47.73986" lon="-3.34785">
        <ele>-0.5</ele>
        <time>2020-08-21T09:52:07.000Z</time>
      </trkpt>
      <trkpt lat="47.73981" lon="-3.34787">
        <ele>-0.5</ele>
        <time>2020-08-21T09:52:08.000Z</time>
      </trkpt>
      <trkpt lat="47.73977" lon="-3.34789">
        <ele>-0.5</ele>
        <time>2020-08-21T09:52:09.000Z</time>
      </trkpt>
      <trkpt lat="47.73972" lon="-3.34791">
        <ele>-0.5</ele>
        <time>2020-08-21T09:52:10.000Z</time>
      </trkpt>
      <trkpt lat="47.73967" lon="-3.34793">
        <ele>-0.5</ele>
        <time>2020-08-21T09:52:11.000Z</time>
      </trkpt>
      <trkpt lat="47.73962" lon="-3.34796">
        <ele>-0.5</ele>
        <time>2020-08-21T09:52:12.000Z</time>
      </trkpt>
      <trkpt lat="47.73957" lon="-3.34798">
        <ele>-0.5</ele>
        <time>2020-08-21T09:52:13.000Z</time>
      </trkpt>
      <trkpt lat="47.73953" lon="-3.34801">
        <ele>-0.5</ele>
        <time>2020-08-21T09:52:14.000Z</time>
      </trkpt>
      <trkpt lat="47.73948" lon="-3.34803">
        <ele>-0.5</ele>
        <time>2020-08-21T09:52:15.000Z</time>
      </trkpt>
      <trkpt lat="47.73943" lon="-3.34806">
        <ele>-0.5</ele>
        <time>2020-08-21T09:52:16.000Z</time>
      </trkpt>
      <trkpt lat="47.73938" lon="-3.34808">
        <ele>-0.5</ele>
        <time>2020-08-21T09:52:17.000Z</time>
      </trkpt>
      <trkpt lat="47.73933" lon="-3.3481">
        <ele>-0.5</ele>
        <time>2020-08-21T09:52:18.000Z</time>
      </trkpt>
      <trkpt lat="47.73929" lon="-3.34813">
        <ele>-0.5</ele>
        <time>2020-08-21T09:52:19.000Z</time>
      </trkpt>
      <trkpt lat="47.73924" lon="-3.34815">
        <ele>-0.5</ele>
        <time>2020-08-21T09:52:20.000Z</time>
      </trkpt>
      <trkpt lat="47.73919" lon="-3.34817">
        <ele>-0.5</ele>
        <time>2020-08-21T09:52:21.000Z</time>
      </trkpt>
      <trkpt lat="47.73914" lon="-3.34819">
        <ele>-1.5</ele>
        <time>2020-08-21T09:52:22.000Z</time>
      </trkpt>
      <trkpt lat="47.73909" lon="-3.3482">
        <ele>-1.5</ele>
        <time>2020-08-21T09:52:23.000Z</time>
      </trkpt>
      <trkpt lat="47.73905" lon="-3.34822">
        <ele>-1.5</ele>
        <time>2020-08-21T09:52:24.000Z</time>
      </trkpt>
      <trkpt lat="47.739" lon="-3.34823">
        <ele>-1.5</ele>
        <time>2020-08-21T09:52:25.000Z</time>
      </trkpt>
      <trkpt lat="47.73895" lon="-3.34824">
        <ele>-1.5</ele>
        <time>2020-08-21T09:52:26.000Z</time>
      </trkpt>
      <trkpt lat="47.7389" lon="-3.34825">
        <ele>-1.5</ele>
        <time>2020-08-21T09:52:27.000Z</time>
      </trkpt>
      <trkpt lat="47.73885" lon="-3.34826">
        <ele>-1.5</ele>
        <time>2020-08-21T09:52:28.000Z</time>
      </trkpt>
      <trkpt lat="47.7388" lon="-3.34827">
        <ele>-1.5</ele>
        <time>2020-08-21T09:52:29.000Z</time>
      </trkpt>
      <trkpt lat="47.73876" lon="-3.34828">
        <ele>-1.5</ele>
        <time>2020-08-21T09:52:30.000Z</time>
      </trkpt>
      <trkpt lat="47.73871" lon="-3.34829">
        <ele>-1.5</ele>
        <time>2020-08-21T09:52:31.000Z</time>
      </trkpt>
      <trkpt lat="47.73866" lon="-3.34829">
        <ele>-1.5</ele>
        <time>2020-08-21T09:52:32.000Z</time>
      </trkpt>
      <trkpt lat="47.73861" lon="-3.3483">
        <ele>-1.5</ele>
        <time>2020-08-21T09:52:33.000Z</time>
      </trkpt>
      <trkpt lat="47.73857" lon="-3.34831">
        <ele>-1.5</ele>
        <time>2020-08-21T09:52:34.000Z</time>
      </trkpt>
      <trkpt lat="47.73852" lon="-3.34832">
        <ele>-1.5</ele>
        <time>2020-08-21T09:52:35.000Z</time>
      </trkpt>
      <trkpt lat="47.73847" lon="-3.34832">
        <ele>-1.5</ele>
        <time>2020-08-21T09:52:36.000Z</time>
      </trkpt>
      <trkpt lat="47.73843" lon="-3.34833">
        <ele>-1.5</ele>
        <time>2020-08-21T09:52:37.000Z</time>
      </trkpt>
      <trkpt lat="47.73838" lon="-3.34834">
        <ele>4.5</ele>
        <time>2020-08-21T09:52:38.000Z</time>
      </trkpt>
      <trkpt lat="47.73834" lon="-3.34834">
        <ele>4.5</ele>
        <time>2020-08-21T09:52:39.000Z</time>
      </trkpt>
      <trkpt lat="47.73829" lon="-3.34835">
        <ele>4.2</ele>
        <time>2020-08-21T09:52:40.000Z</time>
      </trkpt>
      <trkpt lat="47.73824" lon="-3.34836">
        <ele>4.2</ele>
        <time>2020-08-21T09:52:41.000Z</time>
      </trkpt>
      <trkpt lat="47.7382" lon="-3.34836">
        <ele>4.2</ele>
        <time>2020-08-21T09:52:42.000Z</time>
      </trkpt>
      <trkpt lat="47.73815" lon="-3.34837">
        <ele>4.2</ele>
        <time>2020-08-21T09:52:43.000Z</time>
      </trkpt>
      <trkpt lat="47.73811" lon="-3.34837">
        <ele>4.2</ele>
        <time>2020-08-21T09:52:44.000Z</time>
      </trkpt>
      <trkpt lat="47.73806" lon="-3.34838">
        <ele>4.2</ele>
        <time>2020-08-21T09:52:45.000Z</time>
      </trkpt>
      <trkpt lat="47.73801" lon="-3.34839">
        <ele>4.2</ele>
        <time>2020-08-21T09:52:46.000Z</time>
      </trkpt>
      <trkpt lat="47.73797" lon="-3.34839">
        <ele>4.2</ele>
        <time>2020-08-21T09:52:47.000Z</time>
      </trkpt>
      <trkpt lat="47.73792" lon="-3.3484">
        <ele>4.2</ele>
        <time>2020-08-21T09:52:48.000Z</time>
      </trkpt>
      <trkpt lat="47.73787" lon="-3.3484">
        <ele>4.2</ele>
        <time>2020-08-21T09:52:49.000Z</time>
      </trkpt>
      <trkpt lat="47.73783" lon="-3.34841">
        <ele>4.2</ele>
        <time>2020-08-21T09:52:50.000Z</time>
      </trkpt>
      <trkpt lat="47.73778" lon="-3.34841">
        <ele>4.2</ele>
        <time>2020-08-21T09:52:51.000Z</time>
      </trkpt>
      <trkpt lat="47.73774" lon="-3.34842">
        <ele>4.2</ele>
        <time>2020-08-21T09:52:52.000Z</time>
      </trkpt>
      <trkpt lat="47.73769" lon="-3.34842">
        <ele>4.2</ele>
        <time>2020-08-21T09:52:53.000Z</time>
      </trkpt>
      <trkpt lat="47.73764" lon="-3.34843">
        <ele>4.2</ele>
        <time>2020-08-21T09:52:54.000Z</time>
      </trkpt>
      <trkpt lat="47.7376" lon="-3.34843">
        <ele>4.2</ele>
        <time>2020-08-21T09:52:55.000Z</time>
      </trkpt>
      <trkpt lat="47.73755" lon="-3.34844">
        <ele>4.2</ele>
        <time>2020-08-21T09:52:56.000Z</time>
      </trkpt>
      <trkpt lat="47.7375" lon="-3.34844">
        <ele>4.2</ele>
        <time>2020-08-21T09:52:57.000Z</time>
      </trkpt>
      <trkpt lat="47.73745" lon="-3.34844">
        <ele>1</ele>
        <time>2020-08-21T09:52:58.000Z</time>
      </trkpt>
      <trkpt lat="47.73741" lon="-3.34845">
        <ele>1</ele>
        <time>2020-08-21T09:52:59.000Z</time>
      </trkpt>
      <trkpt lat="47.73736" lon="-3.34845">
        <ele>1</ele>
        <time>2020-08-21T09:53:00.000Z</time>
      </trkpt>
      <trkpt lat="47.73731" lon="-3.34846">
        <ele>1</ele>
        <time>2020-08-21T09:53:01.000Z</time>
      </trkpt>
      <trkpt lat="47.73727" lon="-3.34847">
        <ele>1</ele>
        <time>2020-08-21T09:53:02.000Z</time>
      </trkpt>
      <trkpt lat="47.73722" lon="-3.34847">
        <ele>1</ele>
        <time>2020-08-21T09:53:03.000Z</time>
      </trkpt>
      <trkpt lat="47.73718" lon="-3.34848">
        <ele>1</ele>
        <time>2020-08-21T09:53:04.000Z</time>
      </trkpt>
      <trkpt lat="47.73713" lon="-3.34849">
        <ele>1</ele>
        <time>2020-08-21T09:53:05.000Z</time>
      </trkpt>
      <trkpt lat="47.73708" lon="-3.3485">
        <ele>1</ele>
        <time>2020-08-21T09:53:06.000Z</time>
      </trkpt>
      <trkpt lat="47.73704" lon="-3.34851">
        <ele>1</ele>
        <time>2020-08-21T09:53:07.000Z</time>
      </trkpt>
      <trkpt lat="47.73699" lon="-3.34852">
        <ele>1</ele>
        <time>2020-08-21T09:53:08.000Z</time>
      </trkpt>
      <trkpt lat="47.73695" lon="-3.34853">
        <ele>1</ele>
        <time>2020-08-21T09:53:09.000Z</time>
      </trkpt>
      <trkpt lat="47.7369" lon="-3.34854">
        <ele>1</ele>
        <time>2020-08-21T09:53:10.000Z</time>
      </trkpt>
      <trkpt lat="47.73686" lon="-3.34855">
        <ele>1</ele>
        <time>2020-08-21T09:53:11.000Z</time>
      </trkpt>
      <trkpt lat="47.73682" lon="-3.34855">
        <ele>1</ele>
        <time>2020-08-21T09:53:12.000Z</time>
      </trkpt>
      <trkpt lat="47.73677" lon="-3.34856">
        <ele>1</ele>
        <time>2020-08-21T09:53:13.000Z</time>
      </trkpt>
      <trkpt lat="47.73673" lon="-3.34857">
        <ele>1</ele>
        <time>2020-08-21T09:53:14.000Z</time>
      </trkpt>
      <trkpt lat="47.73669" lon="-3.34857">
        <ele>1</ele>
        <time>2020-08-21T09:53:15.000Z</time>
      </trkpt>
      <trkpt lat="47.73665" lon="-3.34857">
        <ele>1</ele>
        <time>2020-08-21T09:53:16.000Z</time>
      </trkpt>
      <trkpt lat="47.73661" lon="-3.34857">
        <ele>1</ele>
        <time>2020-08-21T09:53:17.000Z</time>
      </trkpt>
      <trkpt lat="47.73658" lon="-3.34857">
        <ele>1</ele>
        <time>2020-08-21T09:53:18.000Z</time>
      </trkpt>
      <trkpt lat="47.73654" lon="-3.34856">
        <ele>1</ele>
        <time>2020-08-21T09:53:19.000Z</time>
      </trkpt>
      <trkpt lat="47.7365" lon="-3.34855">
        <ele>1</ele>
        <time>2020-08-21T09:53:20.000Z</time>
      </trkpt>
      <trkpt lat="47.73647" lon="-3.34854">
        <ele>1</ele>
        <time>2020-08-21T09:53:21.000Z</time>
      </trkpt>
      <trkpt lat="47.73643" lon="-3.34853">
        <ele>1</ele>
        <time>2020-08-21T09:53:22.000Z</time>
      </trkpt>
      <trkpt lat="47.7364" lon="-3.34852">
        <ele>1</ele>
        <time>2020-08-21T09:53:23.000Z</time>
      </trkpt>
      <trkpt lat="47.73636" lon="-3.34851">
        <ele>1</ele>
        <time>2020-08-21T09:53:24.000Z</time>
      </trkpt>
      <trkpt lat="47.73633" lon="-3.34849">
        <ele>1</ele>
        <time>2020-08-21T09:53:25.000Z</time>
      </trkpt>
      <trkpt lat="47.73629" lon="-3.34848">
        <ele>1</ele>
        <time>2020-08-21T09:53:26.000Z</time>
      </trkpt>
      <trkpt lat="47.73626" lon="-3.34846">
        <ele>1</ele>
        <time>2020-08-21T09:53:27.000Z</time>
      </trkpt>
      <trkpt lat="47.73623" lon="-3.34844">
        <ele>1</ele>
        <time>2020-08-21T09:53:28.000Z</time>
      </trkpt>
      <trkpt lat="47.73619" lon="-3.34842">
        <ele>1</ele>
        <time>2020-08-21T09:53:29.000Z</time>
      </trkpt>
      <trkpt lat="47.73616" lon="-3.34841">
        <ele>1</ele>
        <time>2020-08-21T09:53:30.000Z</time>
      </trkpt>
      <trkpt lat="47.73613" lon="-3.34839">
        <ele>1</ele>
        <time>2020-08-21T09:53:31.000Z</time>
      </trkpt>
      <trkpt lat="47.73609" lon="-3.34837">
        <ele>1</ele>
        <time>2020-08-21T09:53:32.000Z</time>
      </trkpt>
      <trkpt lat="47.73606" lon="-3.34835">
        <ele>1</ele>
        <time>2020-08-21T09:53:33.000Z</time>
      </trkpt>
      <trkpt lat="47.73603" lon="-3.34834">
        <ele>1</ele>
        <time>2020-08-21T09:53:34.000Z</time>
      </trkpt>
      <trkpt lat="47.73599" lon="-3.34833">
        <ele>1</ele>
        <time>2020-08-21T09:53:35.000Z</time>
      </trkpt>
      <trkpt lat="47.73596" lon="-3.34831">
        <ele>1</ele>
        <time>2020-08-21T09:53:36.000Z</time>
      </trkpt>
      <trkpt lat="47.73593" lon="-3.3483">
        <ele>1</ele>
        <time>2020-08-21T09:53:37.000Z</time>
      </trkpt>
      <trkpt lat="47.7359" lon="-3.34828">
        <ele>1</ele>
        <time>2020-08-21T09:53:38.000Z</time>
      </trkpt>
      <trkpt lat="47.73587" lon="-3.34827">
        <ele>1</ele>
        <time>2020-08-21T09:53:39.000Z</time>
      </trkpt>
      <trkpt lat="47.73584" lon="-3.34825">
        <ele>1</ele>
        <time>2020-08-21T09:53:40.000Z</time>
      </trkpt>
      <trkpt lat="47.73581" lon="-3.34824">
        <ele>1</ele>
        <time>2020-08-21T09:53:41.000Z</time>
      </trkpt>
      <trkpt lat="47.73578" lon="-3.34822">
        <ele>1</ele>
        <time>2020-08-21T09:53:42.000Z</time>
      </trkpt>
      <trkpt lat="47.73576" lon="-3.34821">
        <ele>1</ele>
        <time>2020-08-21T09:53:43.000Z</time>
      </trkpt>
      <trkpt lat="47.73573" lon="-3.34819">
        <ele>1</ele>
        <time>2020-08-21T09:53:44.000Z</time>
      </trkpt>
      <trkpt lat="47.73571" lon="-3.34818">
        <ele>1</ele>
        <time>2020-08-21T09:53:45.000Z</time>
      </trkpt>
      <trkpt lat="47.73568" lon="-3.34817">
        <ele>1</ele>
        <time>2020-08-21T09:53:46.000Z</time>
      </trkpt>
      <trkpt lat="47.73566" lon="-3.34816">
        <ele>1</ele>
        <time>2020-08-21T09:53:47.000Z</time>
      </trkpt>
      <trkpt lat="47.73564" lon="-3.34814">
        <ele>1</ele>
        <time>2020-08-21T09:53:48.000Z</time>
      </trkpt>
      <trkpt lat="47.73562" lon="-3.34813">
        <ele>1</ele>
        <time>2020-08-21T09:53:49.000Z</time>
      </trkpt>
      <trkpt lat="47.7356" lon="-3.34812">
        <ele>1</ele>
        <time>2020-08-21T09:53:50.000Z</time>
      </trkpt>
      <trkpt lat="47.73558" lon="-3.34811">
        <ele>1</ele>
        <time>2020-08-21T09:53:51.000Z</time>
      </trkpt>
      <trkpt lat="47.73556" lon="-3.34809">
        <ele>1</ele>
        <time>2020-08-21T09:53:52.000Z</time>
      </trkpt>
      <trkpt lat="47.73554" lon="-3.34808">
        <ele>1</ele>
        <time>2020-08-21T09:53:53.000Z</time>
      </trkpt>
      <trkpt lat="47.73552" lon="-3.34806">
        <ele>1</ele>
        <time>2020-08-21T09:53:54.000Z</time>
      </trkpt>
      <trkpt lat="47.7355" lon="-3.34805">
        <ele>1</ele>
        <time>2020-08-21T09:53:55.000Z</time>
      </trkpt>
      <trkpt lat="47.73548" lon="-3.34803">
        <ele>1</ele>
        <time>2020-08-21T09:53:56.000Z</time>
      </trkpt>
      <trkpt lat="47.73547" lon="-3.34801">
        <ele>1</ele>
        <time>2020-08-21T09:53:57.000Z</time>
      </trkpt>
      <trkpt lat="47.73545" lon="-3.348">
        <ele>1</ele>
        <time>2020-08-21T09:53:58.000Z</time>
      </trkpt>
      <trkpt lat="47.73544" lon="-3.34798">
        <ele>1</ele>
        <time>2020-08-21T09:53:59.000Z</time>
      </trkpt>
      <trkpt lat="47.73542" lon="-3.34797">
        <ele>1</ele>
        <time>2020-08-21T09:54:00.000Z</time>
      </trkpt>
      <trkpt lat="47.73541" lon="-3.34795">
        <ele>1</ele>
        <time>2020-08-21T09:54:01.000Z</time>
      </trkpt>
      <trkpt lat="47.73539" lon="-3.34793">
        <ele>1</ele>
        <time>2020-08-21T09:54:02.000Z</time>
      </trkpt>
      <trkpt lat="47.73538" lon="-3.34792">
        <ele>1</ele>
        <time>2020-08-21T09:54:03.000Z</time>
      </trkpt>
      <trkpt lat="47.73537" lon="-3.3479">
        <ele>1</ele>
        <time>2020-08-21T09:54:04.000Z</time>
      </trkpt>
      <trkpt lat="47.73535" lon="-3.34789">
        <ele>1</ele>
        <time>2020-08-21T09:54:05.000Z</time>
      </trkpt>
      <trkpt lat="47.73534" lon="-3.34787">
        <ele>1</ele>
        <time>2020-08-21T09:54:06.000Z</time>
      </trkpt>
      <trkpt lat="47.73533" lon="-3.34786">
        <ele>1</ele>
        <time>2020-08-21T09:54:07.000Z</time>
      </trkpt>
      <trkpt lat="47.73531" lon="-3.34785">
        <ele>1</ele>
        <time>2020-08-21T09:54:08.000Z</time>
      </trkpt>
      <trkpt lat="47.7353" lon="-3.34783">
        <ele>1</ele>
        <time>2020-08-21T09:54:09.000Z</time>
      </trkpt>
      <trkpt lat="47.73529" lon="-3.34782">
        <ele>1</ele>
        <time>2020-08-21T09:54:10.000Z</time>
      </trkpt>
      <trkpt lat="47.73527" lon="-3.3478">
        <ele>1</ele>
        <time>2020-08-21T09:54:11.000Z</time>
      </trkpt>
      <trkpt lat="47.73526" lon="-3.34779">
        <ele>1</ele>
        <time>2020-08-21T09:54:12.000Z</time>
      </trkpt>
      <trkpt lat="47.73525" lon="-3.34777">
        <ele>1</ele>
        <time>2020-08-21T09:54:13.000Z</time>
      </trkpt>
      <trkpt lat="47.73523" lon="-3.34776">
        <ele>1</ele>
        <time>2020-08-21T09:54:14.000Z</time>
      </trkpt>
      <trkpt lat="47.73522" lon="-3.34774">
        <ele>1</ele>
        <time>2020-08-21T09:54:15.000Z</time>
      </trkpt>
      <trkpt lat="47.73521" lon="-3.34773">
        <ele>1</ele>
        <time>2020-08-21T09:54:16.000Z</time>
      </trkpt>
      <trkpt lat="47.73519" lon="-3.34772">
        <ele>1</ele>
        <time>2020-08-21T09:54:17.000Z</time>
      </trkpt>
      <trkpt lat="47.73518" lon="-3.34771">
        <ele>1</ele>
        <time>2020-08-21T09:54:18.000Z</time>
      </trkpt>
      <trkpt lat="47.73517" lon="-3.3477">
        <ele>1</ele>
        <time>2020-08-21T09:54:19.000Z</time>
      </trkpt>
      <trkpt lat="47.73516" lon="-3.3477">
        <ele>1</ele>
        <time>2020-08-21T09:54:20.000Z</time>
      </trkpt>
      <trkpt lat="47.73514" lon="-3.3477">
        <ele>1</ele>
        <time>2020-08-21T09:54:21.000Z</time>
      </trkpt>
      <trkpt lat="47.73513" lon="-3.34769">
        <ele>1</ele>
        <time>2020-08-21T09:54:22.000Z</time>
      </trkpt>
      <trkpt lat="47.73512" lon="-3.34769">
        <ele>1</ele>
        <time>2020-08-21T09:54:23.000Z</time>
      </trkpt>
      <trkpt lat="47.73511" lon="-3.34769">
        <ele>1</ele>
        <time>2020-08-21T09:54:24.000Z</time>
      </trkpt>
      <trkpt lat="47.7351" lon="-3.34768">
        <ele>1</ele>
        <time>2020-08-21T09:54:25.000Z</time>
      </trkpt>
      <trkpt lat="47.73509" lon="-3.34768">
        <ele>1</ele>
        <time>2020-08-21T09:54:26.000Z</time>
      </trkpt>
      <trkpt lat="47.73509" lon="-3.34767">
        <ele>1</ele>
        <time>2020-08-21T09:54:27.000Z</time>
      </trkpt>
      <trkpt lat="47.73508" lon="-3.34767">
        <ele>1</ele>
        <time>2020-08-21T09:54:28.000Z</time>
      </trkpt>
      <trkpt lat="47.73507" lon="-3.34766">
        <ele>1</ele>
        <time>2020-08-21T09:54:29.000Z</time>
      </trkpt>
      <trkpt lat="47.73507" lon="-3.34766">
        <ele>1</ele>
        <time>2020-08-21T09:54:30.000Z</time>
      </trkpt>
      <trkpt lat="47.73507" lon="-3.34765">
        <ele>1</ele>
        <time>2020-08-21T09:54:31.000Z</time>
      </trkpt>
      <trkpt lat="47.73506" lon="-3.34765">
        <ele>1</ele>
        <time>2020-08-21T09:54:32.000Z</time>
      </trkpt>
      <trkpt lat="47.73506" lon="-3.34764">
        <ele>1</ele>
        <time>2020-08-21T09:54:33.000Z</time>
      </trkpt>
      <trkpt lat="47.73506" lon="-3.34764">
        <ele>1</ele>
        <time>2020-08-21T09:54:34.000Z</time>
      </trkpt>
      <trkpt lat="47.73506" lon="-3.34764">
        <ele>1</ele>
        <time>2020-08-21T09:54:35.000Z</time>
      </trkpt>
      <trkpt lat="47.73506" lon="-3.34764">
        <ele>1</ele>
        <time>2020-08-21T09:54:36.000Z</time>
      </trkpt>
      <trkpt lat="47.73506" lon="-3.34763">
        <ele>1</ele>
        <time>2020-08-21T09:54:37.000Z</time>
      </trkpt>
      <trkpt lat="47.73506" lon="-3.34763">
        <ele>1</ele>
        <time>2020-08-21T09:54:38.000Z</time>
      </trkpt>
      <trkpt lat="47.73506" lon="-3.34762">
        <ele>1</ele>
        <time>2020-08-21T09:54:39.000Z</time>
      </trkpt>
      <trkpt lat="47.73506" lon="-3.3476">
        <ele>1</ele>
        <time>2020-08-21T09:54:40.000Z</time>
      </trkpt>
      <trkpt lat="47.73506" lon="-3.34759">
        <ele>1</ele>
        <time>2020-08-21T09:54:41.000Z</time>
      </trkpt>
      <trkpt lat="47.73506" lon="-3.34758">
        <ele>1</ele>
        <time>2020-08-21T09:54:42.000Z</time>
      </trkpt>
      <trkpt lat="47.73506" lon="-3.34757">
        <ele>1</ele>
        <time>2020-08-21T09:54:43.000Z</time>
      </trkpt>
      <trkpt lat="47.73506" lon="-3.34756">
        <ele>1</ele>
        <time>2020-08-21T09:54:44.000Z</time>
      </trkpt>
      <trkpt lat="47.73506" lon="-3.34756">
        <ele>1</ele>
        <time>2020-08-21T09:54:45.000Z</time>
      </trkpt>
      <trkpt lat="47.73506" lon="-3.34755">
        <ele>1</ele>
        <time>2020-08-21T09:54:46.000Z</time>
      </trkpt>
      <trkpt lat="47.73506" lon="-3.34755">
        <ele>1</ele>
        <time>2020-08-21T09:54:47.000Z</time>
      </trkpt>
      <trkpt lat="47.73506" lon="-3.34755">
        <ele>1</ele>
        <time>2020-08-21T09:54:48.000Z</time>
      </trkpt>
      <trkpt lat="47.73506" lon="-3.34755">
        <ele>1</ele>
        <time>2020-08-21T09:54:49.000Z</time>
      </trkpt>
      <trkpt lat="47.73506" lon="-3.34755">
        <ele>1</ele>
        <time>2020-08-21T09:54:50.000Z</time>
      </trkpt>
      <trkpt lat="47.73506" lon="-3.34755">
        <ele>1</ele>
        <time>2020-08-21T09:54:51.000Z</time>
      </trkpt>
      <trkpt lat="47.73506" lon="-3.34755">
        <ele>1</ele>
        <time>2020-08-21T09:54:52.000Z</time>
      </trkpt>
      <trkpt lat="47.73506" lon="-3.34755">
        <ele>1</ele>
        <time>2020-08-21T09:54:53.000Z</time>
      </trkpt>
      <trkpt lat="47.73506" lon="-3.34755">
        <ele>1</ele>
        <time>2020-08-21T09:54:54.000Z</time>
      </trkpt>
      <trkpt lat="47.73506" lon="-3.34755">
        <ele>1</ele>
        <time>2020-08-21T09:54:55.000Z</time>
      </trkpt>
      <trkpt lat="47.73506" lon="-3.34755">
        <ele>1</ele>
        <time>2020-08-21T09:54:56.000Z</time>
      </trkpt>
      <trkpt lat="47.73506" lon="-3.34755">
        <ele>1</ele>
        <time>2020-08-21T09:54:57.000Z</time>
      </trkpt>
      <trkpt lat="47.73506" lon="-3.34755">
        <ele>1</ele>
        <time>2020-08-21T09:54:58.000Z</time>
      </trkpt>
      <trkpt lat="47.73506" lon="-3.34755">
        <ele>1</ele>
        <time>2020-08-21T09:54:59.000Z</time>
      </trkpt>
      <trkpt lat="47.73506" lon="-3.34755">
        <ele>1</ele>
        <time>2020-08-21T09:55:00.000Z</time>
      </trkpt>
      <trkpt lat="47.73506" lon="-3.34755">
        <ele>1</ele>
        <time>2020-08-21T09:55:01.000Z</time>
      </trkpt>
      <trkpt lat="47.73506" lon="-3.34755">
        <ele>1</ele>
        <time>2020-08-21T09:55:02.000Z</time>
      </trkpt>
      <trkpt lat="47.73506" lon="-3.34755">
        <ele>1</ele>
        <time>2020-08-21T09:55:03.000Z</time>
      </trkpt>
      <trkpt lat="47.73506" lon="-3.34754">
        <ele>1</ele>
        <time>2020-08-21T09:55:04.000Z</time>
      </trkpt>
      <trkpt lat="47.73506" lon="-3.34754">
        <ele>1</ele>
        <time>2020-08-21T09:55:05.000Z</time>
      </trkpt>
      <trkpt lat="47.73506" lon="-3.34754">
        <ele>1</ele>
        <time>2020-08-21T09:55:06.000Z</time>
      </trkpt>
      <trkpt lat="47.73506" lon="-3.34754">
        <ele>1</ele>
        <time>2020-08-21T09:55:07.000Z</time>
      </trkpt>
      <trkpt lat="47.73506" lon="-3.34754">
        <ele>1</ele>
        <time>2020-08-21T09:55:08.000Z</time>
      </trkpt>
      <trkpt lat="47.73506" lon="-3.34754">
        <ele>1</ele>
        <time>2020-08-21T09:55:09.000Z</time>
      </trkpt>
      <trkpt lat="47.73506" lon="-3.34754">
        <ele>1</ele>
        <time>2020-08-21T09:55:10.000Z</time>
      </trkpt>
      <trkpt lat="47.73506" lon="-3.34754">
        <ele>1</ele>
        <time>2020-08-21T09:55:11.000Z</time>
      </trkpt>
      <trkpt lat="47.73506" lon="-3.34754">
        <ele>1</ele>
        <time>2020-08-21T09:55:12.000Z</time>
      </trkpt>
      <trkpt lat="47.73506" lon="-3.34754">
        <ele>1</ele>
        <time>2020-08-21T09:55:13.000Z</time>
      </trkpt>
      <trkpt lat="47.73506" lon="-3.34754">
        <ele>1</ele>
        <time>2020-08-21T09:55:14.000Z</time>
      </trkpt>
      <trkpt lat="47.73506" lon="-3.34754">
        <ele>1</ele>
        <time>2020-08-21T09:55:15.000Z</time>
      </trkpt>
      <trkpt lat="47.73506" lon="-3.34754">
        <ele>1</ele>
        <time>2020-08-21T09:55:16.000Z</time>
      </trkpt>
      <trkpt lat="47.73505" lon="-3.34753">
        <ele>1</ele>
        <time>2020-08-21T09:55:17.000Z</time>
      </trkpt>
      <trkpt lat="47.73503" lon="-3.34752">
        <ele>1</ele>
        <time>2020-08-21T09:55:18.000Z</time>
      </trkpt>
      <trkpt lat="47.73503" lon="-3.3475">
        <ele>1</ele>
        <time>2020-08-21T09:55:19.000Z</time>
      </trkpt>
      <trkpt lat="47.73503" lon="-3.34748">
        <ele>1</ele>
        <time>2020-08-21T09:55:20.000Z</time>
      </trkpt>
      <trkpt lat="47.73502" lon="-3.34746">
        <ele>1</ele>
        <time>2020-08-21T09:55:21.000Z</time>
      </trkpt>
      <trkpt lat="47.73502" lon="-3.34745">
        <ele>1</ele>
        <time>2020-08-21T09:55:22.000Z</time>
      </trkpt>
      <trkpt lat="47.73502" lon="-3.34744">
        <ele>1</ele>
        <time>2020-08-21T09:55:23.000Z</time>
      </trkpt>
      <trkpt lat="47.73501" lon="-3.34743">
        <ele>1</ele>
        <time>2020-08-21T09:55:24.000Z</time>
      </trkpt>
      <trkpt lat="47.73501" lon="-3.34743">
        <ele>1</ele>
        <time>2020-08-21T09:55:25.000Z</time>
      </trkpt>
      <trkpt lat="47.735" lon="-3.34742">
        <ele>1</ele>
        <time>2020-08-21T09:55:26.000Z</time>
      </trkpt>
      <trkpt lat="47.73499" lon="-3.34741">
        <ele>1</ele>
        <time>2020-08-21T09:55:27.000Z</time>
      </trkpt>
      <trkpt lat="47.73499" lon="-3.34741">
        <ele>1.1</ele>
        <time>2020-08-21T09:55:28.000Z</time>
      </trkpt>
      <trkpt lat="47.73498" lon="-3.3474">
        <ele>1.1</ele>
        <time>2020-08-21T09:55:29.000Z</time>
      </trkpt>
      <trkpt lat="47.73497" lon="-3.3474">
        <ele>1.2</ele>
        <time>2020-08-21T09:55:30.000Z</time>
      </trkpt>
      <trkpt lat="47.73496" lon="-3.34739">
        <ele>1.3</ele>
        <time>2020-08-21T09:55:31.000Z</time>
      </trkpt>
      <trkpt lat="47.73495" lon="-3.34739">
        <ele>1.3</ele>
        <time>2020-08-21T09:55:32.000Z</time>
      </trkpt>
      <trkpt lat="47.73494" lon="-3.34738">
        <ele>1.4</ele>
        <time>2020-08-21T09:55:33.000Z</time>
      </trkpt>
      <trkpt lat="47.73493" lon="-3.34738">
        <ele>1.5</ele>
        <time>2020-08-21T09:55:34.000Z</time>
      </trkpt>
      <trkpt lat="47.73492" lon="-3.34738">
        <ele>1.6</ele>
        <time>2020-08-21T09:55:35.000Z</time>
      </trkpt>
      <trkpt lat="47.73491" lon="-3.34738">
        <ele>1.7</ele>
        <time>2020-08-21T09:55:36.000Z</time>
      </trkpt>
      <trkpt lat="47.7349" lon="-3.34738">
        <ele>1.7</ele>
        <time>2020-08-21T09:55:37.000Z</time>
      </trkpt>
      <trkpt lat="47.73489" lon="-3.34738">
        <ele>1.8</ele>
        <time>2020-08-21T09:55:38.000Z</time>
      </trkpt>
      <trkpt lat="47.73488" lon="-3.34738">
        <ele>1.8</ele>
        <time>2020-08-21T09:55:39.000Z</time>
      </trkpt>
      <trkpt lat="47.73487" lon="-3.34738">
        <ele>1.9</ele>
        <time>2020-08-21T09:55:40.000Z</time>
      </trkpt>
      <trkpt lat="47.73487" lon="-3.34738">
        <ele>2</ele>
        <time>2020-08-21T09:55:41.000Z</time>
      </trkpt>
      <trkpt lat="47.73486" lon="-3.34738">
        <ele>2</ele>
        <time>2020-08-21T09:55:42.000Z</time>
      </trkpt>
      <trkpt lat="47.73485" lon="-3.34738">
        <ele>2.1</ele>
        <time>2020-08-21T09:55:43.000Z</time>
      </trkpt>
      <trkpt lat="47.73484" lon="-3.34738">
        <ele>2.1</ele>
        <time>2020-08-21T09:55:44.000Z</time>
      </trkpt>
      <trkpt lat="47.73483" lon="-3.34738">
        <ele>2.2</ele>
        <time>2020-08-21T09:55:45.000Z</time>
      </trkpt>
      <trkpt lat="47.73482" lon="-3.34737">
        <ele>2.2</ele>
        <time>2020-08-21T09:55:46.000Z</time>
      </trkpt>
      <trkpt lat="47.73482" lon="-3.34737">
        <ele>2.3</ele>
        <time>2020-08-21T09:55:47.000Z</time>
      </trkpt>
      <trkpt lat="47.73481" lon="-3.34737">
        <ele>2.4</ele>
        <time>2020-08-21T09:55:48.000Z</time>
      </trkpt>
      <trkpt lat="47.7348" lon="-3.34737">
        <ele>2.4</ele>
        <time>2020-08-21T09:55:49.000Z</time>
      </trkpt>
      <trkpt lat="47.73479" lon="-3.34737">
        <ele>2.5</ele>
        <time>2020-08-21T09:55:50.000Z</time>
      </trkpt>
      <trkpt lat="47.73478" lon="-3.34737">
        <ele>2.6</ele>
        <time>2020-08-21T09:55:51.000Z</time>
      </trkpt>
      <trkpt lat="47.73477" lon="-3.34737">
        <ele>2.6</ele>
        <time>2020-08-21T09:55:52.000Z</time>
      </trkpt>
      <trkpt lat="47.73476" lon="-3.34737">
        <ele>2.7</ele>
        <time>2020-08-21T09:55:53.000Z</time>
      </trkpt>
      <trkpt lat="47.73476" lon="-3.34737">
        <ele>2.7</ele>
        <time>2020-08-21T09:55:54.000Z</time>
      </trkpt>
      <trkpt lat="47.73475" lon="-3.34737">
        <ele>2.8</ele>
        <time>2020-08-21T09:55:55.000Z</time>
      </trkpt>
      <trkpt lat="47.73474" lon="-3.34737">
        <ele>2.8</ele>
        <time>2020-08-21T09:55:56.000Z</time>
      </trkpt>
      <trkpt lat="47.73473" lon="-3.34737">
        <ele>2.9</ele>
        <time>2020-08-21T09:55:57.000Z</time>
      </trkpt>
      <trkpt lat="47.73473" lon="-3.34738">
        <ele>2.9</ele>
        <time>2020-08-21T09:55:58.000Z</time>
      </trkpt>
      <trkpt lat="47.73472" lon="-3.34738">
        <ele>3</ele>
        <time>2020-08-21T09:55:59.000Z</time>
      </trkpt>
      <trkpt lat="47.73471" lon="-3.34738">
        <ele>3</ele>
        <time>2020-08-21T09:56:00.000Z</time>
      </trkpt>
      <trkpt lat="47.7347" lon="-3.34738">
        <ele>3.1</ele>
        <time>2020-08-21T09:56:01.000Z</time>
      </trkpt>
      <trkpt lat="47.7347" lon="-3.34738">
        <ele>3.1</ele>
        <time>2020-08-21T09:56:02.000Z</time>
      </trkpt>
      <trkpt lat="47.73469" lon="-3.34739">
        <ele>3.2</ele>
        <time>2020-08-21T09:56:03.000Z</time>
      </trkpt>
      <trkpt lat="47.73468" lon="-3.34739">
        <ele>3.2</ele>
        <time>2020-08-21T09:56:04.000Z</time>
      </trkpt>
      <trkpt lat="47.73467" lon="-3.3474">
        <ele>3.3</ele>
        <time>2020-08-21T09:56:05.000Z</time>
      </trkpt>
      <trkpt lat="47.73466" lon="-3.3474">
        <ele>3.3</ele>
        <time>2020-08-21T09:56:06.000Z</time>
      </trkpt>
      <trkpt lat="47.73466" lon="-3.3474">
        <ele>3.4</ele>
        <time>2020-08-21T09:56:07.000Z</time>
      </trkpt>
      <trkpt lat="47.73465" lon="-3.34741">
        <ele>3.4</ele>
        <time>2020-08-21T09:56:08.000Z</time>
      </trkpt>
      <trkpt lat="47.73464" lon="-3.34742">
        <ele>3.4</ele>
        <time>2020-08-21T09:56:09.000Z</time>
      </trkpt>
      <trkpt lat="47.73463" lon="-3.34742">
        <ele>3.5</ele>
        <time>2020-08-21T09:56:10.000Z</time>
      </trkpt>
      <trkpt lat="47.73462" lon="-3.34743">
        <ele>3.5</ele>
        <time>2020-08-21T09:56:11.000Z</time>
      </trkpt>
      <trkpt lat="47.73461" lon="-3.34744">
        <ele>3.5</ele>
        <time>2020-08-21T09:56:12.000Z</time>
      </trkpt>
      <trkpt lat="47.7346" lon="-3.34745">
        <ele>3.5</ele>
        <time>2020-08-21T09:56:13.000Z</time>
      </trkpt>
      <trkpt lat="47.7346" lon="-3.34746">
        <ele>3.5</ele>
        <time>2020-08-21T09:56:14.000Z</time>
      </trkpt>
      <trkpt lat="47.73459" lon="-3.34748">
        <ele>3.5</ele>
        <time>2020-08-21T09:56:15.000Z</time>
      </trkpt>
      <trkpt lat="47.73458" lon="-3.34749">
        <ele>3.5</ele>
        <time>2020-08-21T09:56:16.000Z</time>
      </trkpt>
      <trkpt lat="47.73458" lon="-3.34751">
        <ele>6</ele>
        <time>2020-08-21T09:56:17.000Z</time>
      </trkpt>
      <trkpt lat="47.73457" lon="-3.34752">
        <ele>6</ele>
        <time>2020-08-21T09:56:18.000Z</time>
      </trkpt>
      <trkpt lat="47.73457" lon="-3.34754">
        <ele>6</ele>
        <time>2020-08-21T09:56:19.000Z</time>
      </trkpt>
      <trkpt lat="47.73456" lon="-3.34756">
        <ele>6</ele>
        <time>2020-08-21T09:56:20.000Z</time>
      </trkpt>
      <trkpt lat="47.73456" lon="-3.34758">
        <ele>6</ele>
        <time>2020-08-21T09:56:21.000Z</time>
      </trkpt>
      <trkpt lat="47.73455" lon="-3.34759">
        <ele>6</ele>
        <time>2020-08-21T09:56:22.000Z</time>
      </trkpt>
      <trkpt lat="47.73454" lon="-3.34761">
        <ele>6</ele>
        <time>2020-08-21T09:56:23.000Z</time>
      </trkpt>
      <trkpt lat="47.73454" lon="-3.34762">
        <ele>6</ele>
        <time>2020-08-21T09:56:24.000Z</time>
      </trkpt>
      <trkpt lat="47.73453" lon="-3.34763">
        <ele>6</ele>
        <time>2020-08-21T09:56:25.000Z</time>
      </trkpt>
      <trkpt lat="47.73452" lon="-3.34764">
        <ele>6</ele>
        <time>2020-08-21T09:56:26.000Z</time>
      </trkpt>
      <trkpt lat="47.73451" lon="-3.34765">
        <ele>6</ele>
        <time>2020-08-21T09:56:27.000Z</time>
      </trkpt>
      <trkpt lat="47.7345" lon="-3.34766">
        <ele>6</ele>
        <time>2020-08-21T09:56:28.000Z</time>
      </trkpt>
      <trkpt lat="47.73449" lon="-3.34766">
        <ele>6</ele>
        <time>2020-08-21T09:56:29.000Z</time>
      </trkpt>
      <trkpt lat="47.73448" lon="-3.34766">
        <ele>6</ele>
        <time>2020-08-21T09:56:30.000Z</time>
      </trkpt>
      <trkpt lat="47.73447" lon="-3.34767">
        <ele>6</ele>
        <time>2020-08-21T09:56:31.000Z</time>
      </trkpt>
      <trkpt lat="47.73446" lon="-3.34767">
        <ele>6</ele>
        <time>2020-08-21T09:56:32.000Z</time>
      </trkpt>
      <trkpt lat="47.73445" lon="-3.34767">
        <ele>6</ele>
        <time>2020-08-21T09:56:33.000Z</time>
      </trkpt>
      <trkpt lat="47.73444" lon="-3.34766">
        <ele>6</ele>
        <time>2020-08-21T09:56:34.000Z</time>
      </trkpt>
      <trkpt lat="47.73443" lon="-3.34766">
        <ele>6</ele>
        <time>2020-08-21T09:56:35.000Z</time>
      </trkpt>
      <trkpt lat="47.73442" lon="-3.34766">
        <ele>6</ele>
        <time>2020-08-21T09:56:36.000Z</time>
      </trkpt>
      <trkpt lat="47.73441" lon="-3.34766">
        <ele>6</ele>
        <time>2020-08-21T09:56:37.000Z</time>
      </trkpt>
      <trkpt lat="47.7344" lon="-3.34766">
        <ele>6</ele>
        <time>2020-08-21T09:56:38.000Z</time>
      </trkpt>
      <trkpt lat="47.73439" lon="-3.34766">
        <ele>6</ele>
        <time>2020-08-21T09:56:39.000Z</time>
      </trkpt>
      <trkpt lat="47.73438" lon="-3.34766">
        <ele>6</ele>
        <time>2020-08-21T09:56:40.000Z</time>
      </trkpt>
      <trkpt lat="47.73436" lon="-3.34767">
        <ele>6</ele>
        <time>2020-08-21T09:56:41.000Z</time>
      </trkpt>
      <trkpt lat="47.73435" lon="-3.34767">
        <ele>6</ele>
        <time>2020-08-21T09:56:42.000Z</time>
      </trkpt>
      <trkpt lat="47.73434" lon="-3.34767">
        <ele>6</ele>
        <time>2020-08-21T09:56:43.000Z</time>
      </trkpt>
      <trkpt lat="47.73433" lon="-3.34768">
        <ele>6</ele>
        <time>2020-08-21T09:56:44.000Z</time>
      </trkpt>
      <trkpt lat="47.73432" lon="-3.34768">
        <ele>6</ele>
        <time>2020-08-21T09:56:45.000Z</time>
      </trkpt>
      <trkpt lat="47.73432" lon="-3.34768">
        <ele>6</ele>
        <time>2020-08-21T09:56:46.000Z</time>
      </trkpt>
      <trkpt lat="47.73431" lon="-3.34769">
        <ele>6</ele>
        <time>2020-08-21T09:56:47.000Z</time>
      </trkpt>
      <trkpt lat="47.73431" lon="-3.34769">
        <ele>6</ele>
        <time>2020-08-21T09:56:48.000Z</time>
      </trkpt>
      <trkpt lat="47.73431" lon="-3.34769">
        <ele>6</ele>
        <time>2020-08-21T09:56:49.000Z</time>
      </trkpt>
      <trkpt lat="47.73431" lon="-3.34769">
        <ele>6</ele>
        <time>2020-08-21T09:56:50.000Z</time>
      </trkpt>
      <trkpt lat="47.73431" lon="-3.34769">
        <ele>6</ele>
        <time>2020-08-21T09:56:51.000Z</time>
      </trkpt>
      <trkpt lat="47.73431" lon="-3.34769">
        <ele>6</ele>
        <time>2020-08-21T09:56:52.000Z</time>
      </trkpt>
      <trkpt lat="47.73432" lon="-3.34769">
        <ele>6</ele>
        <time>2020-08-21T09:56:53.000Z</time>
      </trkpt>
      <trkpt lat="47.73432" lon="-3.34769">
        <ele>6</ele>
        <time>2020-08-21T09:56:54.000Z</time>
      </trkpt>
      <trkpt lat="47.73433" lon="-3.34769">
        <ele>6</ele>
        <time>2020-08-21T09:56:55.000Z</time>
      </trkpt>
      <trkpt lat="47.73434" lon="-3.34769">
        <ele>6</ele>
        <time>2020-08-21T09:56:56.000Z</time>
      </trkpt>
      <trkpt lat="47.73434" lon="-3.34769">
        <ele>6</ele>
        <time>2020-08-21T09:56:57.000Z</time>
      </trkpt>
      <trkpt lat="47.73435" lon="-3.34769">
        <ele>6</ele>
        <time>2020-08-21T09:56:58.000Z</time>
      </trkpt>
      <trkpt lat="47.73436" lon="-3.34768">
        <ele>6</ele>
        <time>2020-08-21T09:56:59.000Z</time>
      </trkpt>
      <trkpt lat="47.73436" lon="-3.34768">
        <ele>6</ele>
        <time>2020-08-21T09:57:00.000Z</time>
      </trkpt>
      <trkpt lat="47.73437" lon="-3.34768">
        <ele>6</ele>
        <time>2020-08-21T09:57:01.000Z</time>
      </trkpt>
      <trkpt lat="47.73437" lon="-3.34768">
        <ele>6</ele>
        <time>2020-08-21T09:57:02.000Z</time>
      </trkpt>
      <trkpt lat="47.73437" lon="-3.34768">
        <ele>6</ele>
        <time>2020-08-21T09:57:03.000Z</time>
      </trkpt>
      <trkpt lat="47.73437" lon="-3.34768">
        <ele>6</ele>
        <time>2020-08-21T09:57:04.000Z</time>
      </trkpt>
      <trkpt lat="47.73437" lon="-3.34768">
        <ele>6</ele>
        <time>2020-08-21T09:57:05.000Z</time>
      </trkpt>
      <trkpt lat="47.73437" lon="-3.34768">
        <ele>6</ele>
        <time>2020-08-21T09:57:06.000Z</time>
      </trkpt>
      <trkpt lat="47.73437" lon="-3.34768">
        <ele>6</ele>
        <time>2020-08-21T09:57:07.000Z</time>
      </trkpt>
      <trkpt lat="47.73437" lon="-3.34768">
        <ele>6</ele>
        <time>2020-08-21T09:57:08.000Z</time>
      </trkpt>
      <trkpt lat="47.73437" lon="-3.34768">
        <ele>6</ele>
        <time>2020-08-21T09:57:09.000Z</time>
      </trkpt>
      <trkpt lat="47.73437" lon="-3.34768">
        <ele>6</ele>
        <time>2020-08-21T09:57:10.000Z</time>
      </trkpt>
      <trkpt lat="47.73437" lon="-3.34768">
        <ele>6</ele>
        <time>2020-08-21T09:57:11.000Z</time>
      </trkpt>
      <trkpt lat="47.73437" lon="-3.34768">
        <ele>6</ele>
        <time>2020-08-21T09:57:12.000Z</time>
      </trkpt>
      <trkpt lat="47.73437" lon="-3.34768">
        <ele>6</ele>
        <time>2020-08-21T09:57:13.000Z</time>
      </trkpt>
      <trkpt lat="47.73437" lon="-3.34768">
        <ele>6</ele>
        <time>2020-08-21T09:57:14.000Z</time>
      </trkpt>
      <trkpt lat="47.73437" lon="-3.34768">
        <ele>6</ele>
        <time>2020-08-21T09:57:15.000Z</time>
      </trkpt>
      <trkpt lat="47.73437" lon="-3.34768">
        <ele>6</ele>
        <time>2020-08-21T09:57:16.000Z</time>
      </trkpt>
      <trkpt lat="47.73437" lon="-3.34768">
        <ele>6</ele>
        <time>2020-08-21T09:57:17.000Z</time>
      </trkpt>
      <trkpt lat="47.73437" lon="-3.34768">
        <ele>6</ele>
        <time>2020-08-21T09:57:18.000Z</time>
      </trkpt>
      <trkpt lat="47.73437" lon="-3.34768">
        <ele>6</ele>
        <time>2020-08-21T09:57:19.000Z</time>
      </trkpt>
      <trkpt lat="47.73437" lon="-3.34768">
        <ele>6</ele>
        <time>2020-08-21T09:57:20.000Z</time>
      </trkpt>
      <trkpt lat="47.73437" lon="-3.34768">
        <ele>6</ele>
        <time>2020-08-21T09:57:21.000Z</time>
      </trkpt>
      <trkpt lat="47.73437" lon="-3.34768">
        <ele>6</ele>
        <time>2020-08-21T09:57:22.000Z</time>
      </trkpt>
      <trkpt lat="47.73437" lon="-3.34768">
        <ele>6</ele>
        <time>2020-08-21T09:57:23.000Z</time>
      </trkpt>
      <trkpt lat="47.73437" lon="-3.34768">
        <ele>6</ele>
        <time>2020-08-21T09:57:24.000Z</time>
      </trkpt>
      <trkpt lat="47.73437" lon="-3.34768">
        <ele>6</ele>
        <time>2020-08-21T09:57:25.000Z</time>
      </trkpt>
      <trkpt lat="47.73435" lon="-3.34765">
        <ele>6</ele>
        <time>2020-08-21T09:57:26.000Z</time>
      </trkpt>
      <trkpt lat="47.73415" lon="-3.34729">
        <ele>7.4</ele>
        <time>2020-08-21T09:57:27.000Z</time>
      </trkpt>
      <trkpt lat="47.7335" lon="-3.34617">
        <ele>9.8</ele>
        <time>2020-08-21T09:57:28.000Z</time>
      </trkpt>
      <trkpt lat="47.73284" lon="-3.34505">
        <ele>5.6</ele>
        <time>2020-08-21T09:57:29.000Z</time>
      </trkpt>
      <trkpt lat="47.73224" lon="-3.34385">
        <ele>3.9</ele>
        <time>2020-08-21T10:02:10.000Z</time>
      </trkpt>
      <trkpt lat="47.73222" lon="-3.34382">
        <ele>3.9</ele>
        <time>2020-08-21T10:02:11.000Z</time>
      </trkpt>
      <trkpt lat="47.73178" lon="-3.34311">
        <ele>3.5</ele>
        <time>2020-08-21T10:02:12.000Z</time>
      </trkpt>
      <trkpt lat="47.73167" lon="-3.34298">
        <ele>3.1</ele>
        <time>2020-08-21T10:02:13.000Z</time>
      </trkpt>
      <trkpt lat="47.73103" lon="-3.3421">
        <ele>4.4</ele>
        <time>2020-08-21T10:02:14.000Z</time>
      </trkpt>
      <trkpt lat="47.73029" lon="-3.34109">
        <ele>4.1</ele>
        <time>2020-08-21T10:02:15.000Z</time>
      </trkpt>
      <trkpt lat="47.7301" lon="-3.34089">
        <ele>4.6</ele>
        <time>2020-08-21T10:02:16.000Z</time>
      </trkpt>
      <trkpt lat="47.73006" lon="-3.34091">
        <ele>4.9</ele>
        <time>2020-08-21T10:02:17.000Z</time>
      </trkpt>
      <trkpt lat="47.73003" lon="-3.34093">
        <ele>5.1</ele>
        <time>2020-08-21T10:02:18.000Z</time>
      </trkpt>
      <trkpt lat="47.73" lon="-3.34096">
        <ele>5.3</ele>
        <time>2020-08-21T10:02:19.000Z</time>
      </trkpt>
      <trkpt lat="47.72997" lon="-3.341">
        <ele>5.4</ele>
        <time>2020-08-21T10:02:20.000Z</time>
      </trkpt>
      <trkpt lat="47.72993" lon="-3.34104">
        <ele>5.5</ele>
        <time>2020-08-21T10:02:21.000Z</time>
      </trkpt>
      <trkpt lat="47.72989" lon="-3.34108">
        <ele>5.6</ele>
        <time>2020-08-21T10:02:22.000Z</time>
      </trkpt>
      <trkpt lat="47.72984" lon="-3.34114">
        <ele>5.7</ele>
        <time>2020-08-21T10:02:23.000Z</time>
      </trkpt>
      <trkpt lat="47.72978" lon="-3.34119">
        <ele>5.9</ele>
        <time>2020-08-21T10:02:24.000Z</time>
      </trkpt>
      <trkpt lat="47.72972" lon="-3.34126">
        <ele>6</ele>
        <time>2020-08-21T10:02:25.000Z</time>
      </trkpt>
      <trkpt lat="47.72965" lon="-3.34133">
        <ele>6.2</ele>
        <time>2020-08-21T10:02:26.000Z</time>
      </trkpt>
      <trkpt lat="47.72958" lon="-3.34139">
        <ele>6.3</ele>
        <time>2020-08-21T10:02:27.000Z</time>
      </trkpt>
      <trkpt lat="47.72951" lon="-3.34146">
        <ele>6.5</ele>
        <time>2020-08-21T10:02:28.000Z</time>
      </trkpt>
      <trkpt lat="47.72944" lon="-3.34153">
        <ele>6.7</ele>
        <time>2020-08-21T10:02:29.000Z</time>
      </trkpt>
      <trkpt lat="47.72937" lon="-3.34159">
        <ele>6.8</ele>
        <time>2020-08-21T10:02:30.000Z</time>
      </trkpt>
      <trkpt lat="47.72931" lon="-3.34165">
        <ele>7</ele>
        <time>2020-08-21T10:02:31.000Z</time>
      </trkpt>
      <trkpt lat="47.72926" lon="-3.34169">
        <ele>7</ele>
        <time>2020-08-21T10:02:32.000Z</time>
      </trkpt>
      <trkpt lat="47.72922" lon="-3.34173">
        <ele>7.1</ele>
        <time>2020-08-21T10:02:33.000Z</time>
      </trkpt>
      <trkpt lat="47.72919" lon="-3.34176">
        <ele>7.1</ele>
        <time>2020-08-21T10:02:34.000Z</time>
      </trkpt>
      <trkpt lat="47.72917" lon="-3.34179">
        <ele>7.1</ele>
        <time>2020-08-21T10:02:35.000Z</time>
      </trkpt>
      <trkpt lat="47.72914" lon="-3.34181">
        <ele>7.2</ele>
        <time>2020-08-21T10:02:36.000Z</time>
      </trkpt>
      <trkpt lat="47.72912" lon="-3.34183">
        <ele>7.3</ele>
        <time>2020-08-21T10:02:37.000Z</time>
      </trkpt>
      <trkpt lat="47.72909" lon="-3.34184">
        <ele>7.3</ele>
        <time>2020-08-21T10:02:38.000Z</time>
      </trkpt>
      <trkpt lat="47.72905" lon="-3.34184">
        <ele>7.4</ele>
        <time>2020-08-21T10:02:39.000Z</time>
      </trkpt>
      <trkpt lat="47.72901" lon="-3.34182">
        <ele>7.5</ele>
        <time>2020-08-21T10:02:40.000Z</time>
      </trkpt>
      <trkpt lat="47.72896" lon="-3.34179">
        <ele>7.5</ele>
        <time>2020-08-21T10:02:41.000Z</time>
      </trkpt>
      <trkpt lat="47.72892" lon="-3.34173">
        <ele>7.6</ele>
        <time>2020-08-21T10:02:42.000Z</time>
      </trkpt>
      <trkpt lat="47.72887" lon="-3.34167">
        <ele>7.7</ele>
        <time>2020-08-21T10:02:43.000Z</time>
      </trkpt>
      <trkpt lat="47.72883" lon="-3.34159">
        <ele>7.7</ele>
        <time>2020-08-21T10:02:44.000Z</time>
      </trkpt>
      <trkpt lat="47.72878" lon="-3.34151">
        <ele>7.7</ele>
        <time>2020-08-21T10:02:45.000Z</time>
      </trkpt>
      <trkpt lat="47.72873" lon="-3.34142">
        <ele>7.8</ele>
        <time>2020-08-21T10:02:46.000Z</time>
      </trkpt>
      <trkpt lat="47.72869" lon="-3.34134">
        <ele>7.8</ele>
        <time>2020-08-21T10:02:47.000Z</time>
      </trkpt>
      <trkpt lat="47.72865" lon="-3.34127">
        <ele>7.9</ele>
        <time>2020-08-21T10:02:48.000Z</time>
      </trkpt>
      <trkpt lat="47.7286" lon="-3.34119">
        <ele>8</ele>
        <time>2020-08-21T10:02:49.000Z</time>
      </trkpt>
      <trkpt lat="47.72856" lon="-3.34112">
        <ele>8.1</ele>
        <time>2020-08-21T10:02:50.000Z</time>
      </trkpt>
      <trkpt lat="47.72852" lon="-3.34106">
        <ele>8.2</ele>
        <time>2020-08-21T10:02:51.000Z</time>
      </trkpt>
      <trkpt lat="47.72847" lon="-3.341">
        <ele>8.4</ele>
        <time>2020-08-21T10:02:52.000Z</time>
      </trkpt>
      <trkpt lat="47.72842" lon="-3.34096">
        <ele>8.6</ele>
        <time>2020-08-21T10:02:53.000Z</time>
      </trkpt>
      <trkpt lat="47.72836" lon="-3.34093">
        <ele>8.9</ele>
        <time>2020-08-21T10:02:54.000Z</time>
      </trkpt>
      <trkpt lat="47.72829" lon="-3.34092">
        <ele>9.2</ele>
        <time>2020-08-21T10:02:55.000Z</time>
      </trkpt>
      <trkpt lat="47.72822" lon="-3.34093">
        <ele>9.4</ele>
        <time>2020-08-21T10:02:56.000Z</time>
      </trkpt>
      <trkpt lat="47.72815" lon="-3.34095">
        <ele>9.6</ele>
        <time>2020-08-21T10:02:57.000Z</time>
      </trkpt>
      <trkpt lat="47.72809" lon="-3.34097">
        <ele>9.8</ele>
        <time>2020-08-21T10:02:58.000Z</time>
      </trkpt>
      <trkpt lat="47.72803" lon="-3.34098">
        <ele>10</ele>
        <time>2020-08-21T10:02:59.000Z</time>
      </trkpt>
      <trkpt lat="47.72797" lon="-3.34099">
        <ele>10.2</ele>
        <time>2020-08-21T10:03:00.000Z</time>
      </trkpt>
      <trkpt lat="47.72791" lon="-3.341">
        <ele>10.3</ele>
        <time>2020-08-21T10:03:01.000Z</time>
      </trkpt>
      <trkpt lat="47.72785" lon="-3.34102">
        <ele>10.5</ele>
        <time>2020-08-21T10:03:02.000Z</time>
      </trkpt>
      <trkpt lat="47.7278" lon="-3.34104">
        <ele>10.6</ele>
        <time>2020-08-21T10:03:03.000Z</time>
      </trkpt>
      <trkpt lat="47.72774" lon="-3.34107">
        <ele>10.7</ele>
        <time>2020-08-21T10:03:04.000Z</time>
      </trkpt>
      <trkpt lat="47.72767" lon="-3.3411">
        <ele>10.9</ele>
        <time>2020-08-21T10:03:05.000Z</time>
      </trkpt>
      <trkpt lat="47.7276" lon="-3.34113">
        <ele>11</ele>
        <time>2020-08-21T10:03:06.000Z</time>
      </trkpt>
      <trkpt lat="47.72752" lon="-3.34117">
        <ele>11.1</ele>
        <time>2020-08-21T10:03:07.000Z</time>
      </trkpt>
      <trkpt lat="47.72744" lon="-3.34121">
        <ele>11.2</ele>
        <time>2020-08-21T10:03:08.000Z</time>
      </trkpt>
      <trkpt lat="47.72737" lon="-3.34124">
        <ele>11.2</ele>
        <time>2020-08-21T10:03:09.000Z</time>
      </trkpt>
      <trkpt lat="47.72729" lon="-3.34128">
        <ele>11.2</ele>
        <time>2020-08-21T10:03:10.000Z</time>
      </trkpt>
      <trkpt lat="47.72722" lon="-3.34131">
        <ele>11.2</ele>
        <time>2020-08-21T10:03:11.000Z</time>
      </trkpt>
      <trkpt lat="47.72715" lon="-3.34133">
        <ele>11.2</ele>
        <time>2020-08-21T10:03:12.000Z</time>
      </trkpt>
      <trkpt lat="47.72709" lon="-3.34136">
        <ele>11.2</ele>
        <time>2020-08-21T10:03:13.000Z</time>
      </trkpt>
      <trkpt lat="47.72703" lon="-3.34138">
        <ele>11.3</ele>
        <time>2020-08-21T10:03:14.000Z</time>
      </trkpt>
      <trkpt lat="47.72696" lon="-3.3414">
        <ele>11.3</ele>
        <time>2020-08-21T10:03:15.000Z</time>
      </trkpt>
      <trkpt lat="47.72691" lon="-3.34141">
        <ele>11.3</ele>
        <time>2020-08-21T10:03:16.000Z</time>
      </trkpt>
      <trkpt lat="47.72685" lon="-3.34142">
        <ele>11.4</ele>
        <time>2020-08-21T10:03:17.000Z</time>
      </trkpt>
      <trkpt lat="47.72681" lon="-3.34143">
        <ele>11.4</ele>
        <time>2020-08-21T10:03:18.000Z</time>
      </trkpt>
      <trkpt lat="47.72677" lon="-3.34143">
        <ele>11.5</ele>
        <time>2020-08-21T10:03:19.000Z</time>
      </trkpt>
      <trkpt lat="47.72673" lon="-3.34143">
        <ele>11.5</ele>
        <time>2020-08-21T10:03:20.000Z</time>
      </trkpt>
      <trkpt lat="47.72671" lon="-3.34143">
        <ele>11.5</ele>
        <time>2020-08-21T10:03:21.000Z</time>
      </trkpt>
      <trkpt lat="47.7267" lon="-3.34143">
        <ele>11.5</ele>
        <time>2020-08-21T10:03:22.000Z</time>
      </trkpt>
      <trkpt lat="47.72669" lon="-3.34143">
        <ele>11.6</ele>
        <time>2020-08-21T10:03:23.000Z</time>
      </trkpt>
      <trkpt lat="47.72668" lon="-3.34142">
        <ele>11.6</ele>
        <time>2020-08-21T10:03:24.000Z</time>
      </trkpt>
      <trkpt lat="47.72668" lon="-3.34142">
        <ele>11.6</ele>
        <time>2020-08-21T10:03:25.000Z</time>
      </trkpt>
      <trkpt lat="47.72668" lon="-3.34142">
        <ele>11.6</ele>
        <time>2020-08-21T10:03:26.000Z</time>
      </trkpt>
      <trkpt lat="47.72668" lon="-3.34142">
        <ele>11.6</ele>
        <time>2020-08-21T10:03:27.000Z</time>
      </trkpt>
      <trkpt lat="47.72668" lon="-3.34142">
        <ele>11.6</ele>
        <time>2020-08-21T10:03:28.000Z</time>
      </trkpt>
      <trkpt lat="47.72668" lon="-3.34142">
        <ele>11.6</ele>
        <time>2020-08-21T10:03:29.000Z</time>
      </trkpt>
      <trkpt lat="47.72668" lon="-3.34142">
        <ele>11.6</ele>
        <time>2020-08-21T10:03:30.000Z</time>
      </trkpt>
      <trkpt lat="47.72668" lon="-3.34142">
        <ele>11.6</ele>
        <time>2020-08-21T10:03:31.000Z</time>
      </trkpt>
      <trkpt lat="47.72668" lon="-3.34142">
        <ele>11.6</ele>
        <time>2020-08-21T10:03:32.000Z</time>
      </trkpt>
      <trkpt lat="47.72668" lon="-3.34142">
        <ele>11.6</ele>
        <time>2020-08-21T10:03:33.000Z</time>
      </trkpt>
      <trkpt lat="47.72668" lon="-3.34143">
        <ele>11.6</ele>
        <time>2020-08-21T10:03:34.000Z</time>
      </trkpt>
      <trkpt lat="47.72668" lon="-3.34143">
        <ele>11.6</ele>
        <time>2020-08-21T10:03:35.000Z</time>
      </trkpt>
      <trkpt lat="47.72668" lon="-3.34143">
        <ele>11.6</ele>
        <time>2020-08-21T10:03:36.000Z</time>
      </trkpt>
      <trkpt lat="47.72667" lon="-3.34142">
        <ele>11.6</ele>
        <time>2020-08-21T10:03:37.000Z</time>
      </trkpt>
      <trkpt lat="47.72665" lon="-3.34142">
        <ele>11.5</ele>
        <time>2020-08-21T10:03:38.000Z</time>
      </trkpt>
      <trkpt lat="47.72662" lon="-3.34142">
        <ele>11.5</ele>
        <time>2020-08-21T10:03:39.000Z</time>
      </trkpt>
      <trkpt lat="47.72658" lon="-3.34141">
        <ele>11.4</ele>
        <time>2020-08-21T10:03:40.000Z</time>
      </trkpt>
      <trkpt lat="47.72654" lon="-3.3414">
        <ele>11.3</ele>
        <time>2020-08-21T10:03:41.000Z</time>
      </trkpt>
      <trkpt lat="47.72649" lon="-3.34139">
        <ele>11.2</ele>
        <time>2020-08-21T10:03:42.000Z</time>
      </trkpt>
      <trkpt lat="47.72643" lon="-3.34138">
        <ele>11</ele>
        <time>2020-08-21T10:03:43.000Z</time>
      </trkpt>
      <trkpt lat="47.72637" lon="-3.34137">
        <ele>10.9</ele>
        <time>2020-08-21T10:03:44.000Z</time>
      </trkpt>
      <trkpt lat="47.72632" lon="-3.34136">
        <ele>10.7</ele>
        <time>2020-08-21T10:03:45.000Z</time>
      </trkpt>
      <trkpt lat="47.72626" lon="-3.34134">
        <ele>10.6</ele>
        <time>2020-08-21T10:03:46.000Z</time>
      </trkpt>
      <trkpt lat="47.7262" lon="-3.34133">
        <ele>10.5</ele>
        <time>2020-08-21T10:03:47.000Z</time>
      </trkpt>
      <trkpt lat="47.72615" lon="-3.34132">
        <ele>10.3</ele>
        <time>2020-08-21T10:03:48.000Z</time>
      </trkpt>
      <trkpt lat="47.7261" lon="-3.34131">
        <ele>10.2</ele>
        <time>2020-08-21T10:03:49.000Z</time>
      </trkpt>
      <trkpt lat="47.72606" lon="-3.34131">
        <ele>10.1</ele>
        <time>2020-08-21T10:03:50.000Z</time>
      </trkpt>
      <trkpt lat="47.72601" lon="-3.3413">
        <ele>10</ele>
        <time>2020-08-21T10:03:51.000Z</time>
      </trkpt>
      <trkpt lat="47.72598" lon="-3.3413">
        <ele>9.9</ele>
        <time>2020-08-21T10:03:52.000Z</time>
      </trkpt>
      <trkpt lat="47.72594" lon="-3.34129">
        <ele>9.8</ele>
        <time>2020-08-21T10:03:53.000Z</time>
      </trkpt>
      <trkpt lat="47.7259" lon="-3.34129">
        <ele>9.6</ele>
        <time>2020-08-21T10:03:54.000Z</time>
      </trkpt>
      <trkpt lat="47.72586" lon="-3.34129">
        <ele>9.5</ele>
        <time>2020-08-21T10:03:55.000Z</time>
      </trkpt>
      <trkpt lat="47.72581" lon="-3.34128">
        <ele>9.5</ele>
        <time>2020-08-21T10:03:56.000Z</time>
      </trkpt>
      <trkpt lat="47.72576" lon="-3.34128">
        <ele>9.8</ele>
        <time>2020-08-21T10:03:57.000Z</time>
      </trkpt>
      <trkpt lat="47.72571" lon="-3.34127">
        <ele>10</ele>
        <time>2020-08-21T10:03:58.000Z</time>
      </trkpt>
      <trkpt lat="47.72565" lon="-3.34126">
        <ele>10.2</ele>
        <time>2020-08-21T10:03:59.000Z</time>
      </trkpt>
      <trkpt lat="47.72559" lon="-3.34125">
        <ele>10.5</ele>
        <time>2020-08-21T10:04:00.000Z</time>
      </trkpt>
      <trkpt lat="47.72554" lon="-3.34124">
        <ele>10.8</ele>
        <time>2020-08-21T10:04:01.000Z</time>
      </trkpt>
      <trkpt lat="47.72548" lon="-3.34123">
        <ele>11</ele>
        <time>2020-08-21T10:04:02.000Z</time>
      </trkpt>
      <trkpt lat="47.72542" lon="-3.34123">
        <ele>11.3</ele>
        <time>2020-08-21T10:04:03.000Z</time>
      </trkpt>
      <trkpt lat="47.72537" lon="-3.34123">
        <ele>11.5</ele>
        <time>2020-08-21T10:04:04.000Z</time>
      </trkpt>
      <trkpt lat="47.7253" lon="-3.34125">
        <ele>11.7</ele>
        <time>2020-08-21T10:04:05.000Z</time>
      </trkpt>
      <trkpt lat="47.72524" lon="-3.34126">
        <ele>12</ele>
        <time>2020-08-21T10:04:06.000Z</time>
      </trkpt>
      <trkpt lat="47.72517" lon="-3.34128">
        <ele>12.2</ele>
        <time>2020-08-21T10:04:07.000Z</time>
      </trkpt>
      <trkpt lat="47.7251" lon="-3.34131">
        <ele>12.5</ele>
        <time>2020-08-21T10:04:08.000Z</time>
      </trkpt>
      <trkpt lat="47.72503" lon="-3.34133">
        <ele>12.7</ele>
        <time>2020-08-21T10:04:09.000Z</time>
      </trkpt>
      <trkpt lat="47.72496" lon="-3.34136">
        <ele>12.9</ele>
        <time>2020-08-21T10:04:10.000Z</time>
      </trkpt>
      <trkpt lat="47.72489" lon="-3.34138">
        <ele>13.1</ele>
        <time>2020-08-21T10:04:11.000Z</time>
      </trkpt>
      <trkpt lat="47.72483" lon="-3.3414">
        <ele>13.3</ele>
        <time>2020-08-21T10:04:12.000Z</time>
      </trkpt>
      <trkpt lat="47.72477" lon="-3.34142">
        <ele>13.5</ele>
        <time>2020-08-21T10:04:13.000Z</time>
      </trkpt>
      <trkpt lat="47.72471" lon="-3.34144">
        <ele>13.7</ele>
        <time>2020-08-21T10:04:14.000Z</time>
      </trkpt>
      <trkpt lat="47.72465" lon="-3.34145">
        <ele>13.9</ele>
        <time>2020-08-21T10:04:15.000Z</time>
      </trkpt>
      <trkpt lat="47.72459" lon="-3.34147">
        <ele>14.1</ele>
        <time>2020-08-21T10:04:16.000Z</time>
      </trkpt>
      <trkpt lat="47.72453" lon="-3.34148">
        <ele>14.3</ele>
        <time>2020-08-21T10:04:17.000Z</time>
      </trkpt>
      <trkpt lat="47.72447" lon="-3.34149">
        <ele>14.5</ele>
        <time>2020-08-21T10:04:18.000Z</time>
      </trkpt>
      <trkpt lat="47.7244" lon="-3.3415">
        <ele>14.7</ele>
        <time>2020-08-21T10:04:19.000Z</time>
      </trkpt>
      <trkpt lat="47.72434" lon="-3.3415">
        <ele>14.9</ele>
        <time>2020-08-21T10:04:20.000Z</time>
      </trkpt>
      <trkpt lat="47.72429" lon="-3.34151">
        <ele>15.1</ele>
        <time>2020-08-21T10:04:21.000Z</time>
      </trkpt>
      <trkpt lat="47.72424" lon="-3.34151">
        <ele>15.3</ele>
        <time>2020-08-21T10:04:22.000Z</time>
      </trkpt>
      <trkpt lat="47.72419" lon="-3.34152">
        <ele>15.4</ele>
        <time>2020-08-21T10:04:23.000Z</time>
      </trkpt>
      <trkpt lat="47.72415" lon="-3.34152">
        <ele>15.6</ele>
        <time>2020-08-21T10:04:24.000Z</time>
      </trkpt>
      <trkpt lat="47.72412" lon="-3.34152">
        <ele>15.6</ele>
        <time>2020-08-21T10:04:25.000Z</time>
      </trkpt>
      <trkpt lat="47.72408" lon="-3.34152">
        <ele>15.7</ele>
        <time>2020-08-21T10:04:26.000Z</time>
      </trkpt>
      <trkpt lat="47.72405" lon="-3.34153">
        <ele>15.8</ele>
        <time>2020-08-21T10:04:27.000Z</time>
      </trkpt>
      <trkpt lat="47.72402" lon="-3.34153">
        <ele>15.8</ele>
        <time>2020-08-21T10:04:28.000Z</time>
      </trkpt>
      <trkpt lat="47.72399" lon="-3.34153">
        <ele>15.9</ele>
        <time>2020-08-21T10:04:29.000Z</time>
      </trkpt>
      <trkpt lat="47.72397" lon="-3.34153">
        <ele>15.9</ele>
        <time>2020-08-21T10:04:30.000Z</time>
      </trkpt>
      <trkpt lat="47.72394" lon="-3.34154">
        <ele>16</ele>
        <time>2020-08-21T10:04:31.000Z</time>
      </trkpt>
      <trkpt lat="47.72392" lon="-3.34154">
        <ele>16</ele>
        <time>2020-08-21T10:04:32.000Z</time>
      </trkpt>
      <trkpt lat="47.72389" lon="-3.34154">
        <ele>16.1</ele>
        <time>2020-08-21T10:04:33.000Z</time>
      </trkpt>
      <trkpt lat="47.72387" lon="-3.34154">
        <ele>16.1</ele>
        <time>2020-08-21T10:04:34.000Z</time>
      </trkpt>
      <trkpt lat="47.72384" lon="-3.34154">
        <ele>16.2</ele>
        <time>2020-08-21T10:04:35.000Z</time>
      </trkpt>
      <trkpt lat="47.72382" lon="-3.34154">
        <ele>16.2</ele>
        <time>2020-08-21T10:04:36.000Z</time>
      </trkpt>
      <trkpt lat="47.72379" lon="-3.34154">
        <ele>16.3</ele>
        <time>2020-08-21T10:04:37.000Z</time>
      </trkpt>
      <trkpt lat="47.72377" lon="-3.34154">
        <ele>16.3</ele>
        <time>2020-08-21T10:04:38.000Z</time>
      </trkpt>
      <trkpt lat="47.72374" lon="-3.34154">
        <ele>16.4</ele>
        <time>2020-08-21T10:04:39.000Z</time>
      </trkpt>
      <trkpt lat="47.72372" lon="-3.34154">
        <ele>16.5</ele>
        <time>2020-08-21T10:04:40.000Z</time>
      </trkpt>
      <trkpt lat="47.72369" lon="-3.34154">
        <ele>16.5</ele>
        <time>2020-08-21T10:04:41.000Z</time>
      </trkpt>
      <trkpt lat="47.72366" lon="-3.34153">
        <ele>16.6</ele>
        <time>2020-08-21T10:04:42.000Z</time>
      </trkpt>
      <trkpt lat="47.72364" lon="-3.34153">
        <ele>16.7</ele>
        <time>2020-08-21T10:04:43.000Z</time>
      </trkpt>
      <trkpt lat="47.72361" lon="-3.34152">
        <ele>16.7</ele>
        <time>2020-08-21T10:04:44.000Z</time>
      </trkpt>
      <trkpt lat="47.72359" lon="-3.34151">
        <ele>16.8</ele>
        <time>2020-08-21T10:04:45.000Z</time>
      </trkpt>
      <trkpt lat="47.72356" lon="-3.3415">
        <ele>16.9</ele>
        <time>2020-08-21T10:04:46.000Z</time>
      </trkpt>
      <trkpt lat="47.72354" lon="-3.34148">
        <ele>17</ele>
        <time>2020-08-21T10:04:47.000Z</time>
      </trkpt>
      <trkpt lat="47.72352" lon="-3.34146">
        <ele>17.1</ele>
        <time>2020-08-21T10:04:48.000Z</time>
      </trkpt>
      <trkpt lat="47.7235" lon="-3.34144">
        <ele>17.2</ele>
        <time>2020-08-21T10:04:49.000Z</time>
      </trkpt>
      <trkpt lat="47.72349" lon="-3.34141">
        <ele>17.3</ele>
        <time>2020-08-21T10:04:50.000Z</time>
      </trkpt>
      <trkpt lat="47.72347" lon="-3.34138">
        <ele>17.4</ele>
        <time>2020-08-21T10:04:51.000Z</time>
      </trkpt>
      <trkpt lat="47.72346" lon="-3.34135">
        <ele>17.5</ele>
        <time>2020-08-21T10:04:52.000Z</time>
      </trkpt>
      <trkpt lat="47.72345" lon="-3.34132">
        <ele>17.6</ele>
        <time>2020-08-21T10:04:53.000Z</time>
      </trkpt>
      <trkpt lat="47.72344" lon="-3.3413">
        <ele>17.7</ele>
        <time>2020-08-21T10:04:54.000Z</time>
      </trkpt>
      <trkpt lat="47.72344" lon="-3.34128">
        <ele>17.7</ele>
        <time>2020-08-21T10:04:55.000Z</time>
      </trkpt>
      <trkpt lat="47.72344" lon="-3.34127">
        <ele>17.8</ele>
        <time>2020-08-21T10:04:56.000Z</time>
      </trkpt>
      <trkpt lat="47.72343" lon="-3.34126">
        <ele>17.8</ele>
        <time>2020-08-21T10:04:57.000Z</time>
      </trkpt>
      <trkpt lat="47.72343" lon="-3.34126">
        <ele>17.8</ele>
        <time>2020-08-21T10:04:58.000Z</time>
      </trkpt>
      <trkpt lat="47.72343" lon="-3.34126">
        <ele>17.8</ele>
        <time>2020-08-21T10:04:59.000Z</time>
      </trkpt>
      <trkpt lat="47.72343" lon="-3.34126">
        <ele>17.8</ele>
        <time>2020-08-21T10:05:00.000Z</time>
      </trkpt>
      <trkpt lat="47.72343" lon="-3.34126">
        <ele>17.8</ele>
        <time>2020-08-21T10:05:01.000Z</time>
      </trkpt>
      <trkpt lat="47.72343" lon="-3.34126">
        <ele>17.8</ele>
        <time>2020-08-21T10:05:02.000Z</time>
      </trkpt>
      <trkpt lat="47.72343" lon="-3.34126">
        <ele>17.8</ele>
        <time>2020-08-21T10:05:03.000Z</time>
      </trkpt>
      <trkpt lat="47.72343" lon="-3.34126">
        <ele>17.8</ele>
        <time>2020-08-21T10:05:04.000Z</time>
      </trkpt>
      <trkpt lat="47.72343" lon="-3.34126">
        <ele>17.8</ele>
        <time>2020-08-21T10:05:05.000Z</time>
      </trkpt>
      <trkpt lat="47.72343" lon="-3.34126">
        <ele>17.8</ele>
        <time>2020-08-21T10:05:06.000Z</time>
      </trkpt>
      <trkpt lat="47.72343" lon="-3.34126">
        <ele>17.8</ele>
        <time>2020-08-21T10:05:07.000Z</time>
      </trkpt>
      <trkpt lat="47.72343" lon="-3.34126">
        <ele>17.8</ele>
        <time>2020-08-21T10:05:08.000Z</time>
      </trkpt>
      <trkpt lat="47.72343" lon="-3.34127">
        <ele>17.8</ele>
        <time>2020-08-21T10:05:09.000Z</time>
      </trkpt>
      <trkpt lat="47.72343" lon="-3.34127">
        <ele>17.8</ele>
        <time>2020-08-21T10:05:10.000Z</time>
      </trkpt>
      <trkpt lat="47.72343" lon="-3.34126">
        <ele>17.8</ele>
        <time>2020-08-21T10:05:11.000Z</time>
      </trkpt>
      <trkpt lat="47.72343" lon="-3.34125">
        <ele>17.8</ele>
        <time>2020-08-21T10:05:12.000Z</time>
      </trkpt>
      <trkpt lat="47.72343" lon="-3.34122">
        <ele>17.9</ele>
        <time>2020-08-21T10:05:13.000Z</time>
      </trkpt>
      <trkpt lat="47.72343" lon="-3.34119">
        <ele>18</ele>
        <time>2020-08-21T10:05:14.000Z</time>
      </trkpt>
      <trkpt lat="47.72342" lon="-3.34114">
        <ele>18.1</ele>
        <time>2020-08-21T10:05:15.000Z</time>
      </trkpt>
      <trkpt lat="47.72342" lon="-3.34109">
        <ele>18.2</ele>
        <time>2020-08-21T10:05:16.000Z</time>
      </trkpt>
      <trkpt lat="47.72342" lon="-3.34103">
        <ele>18.4</ele>
        <time>2020-08-21T10:05:17.000Z</time>
      </trkpt>
      <trkpt lat="47.72342" lon="-3.34096">
        <ele>18.6</ele>
        <time>2020-08-21T10:05:18.000Z</time>
      </trkpt>
      <trkpt lat="47.72341" lon="-3.34089">
        <ele>18.8</ele>
        <time>2020-08-21T10:05:19.000Z</time>
      </trkpt>
      <trkpt lat="47.72341" lon="-3.34081">
        <ele>19</ele>
        <time>2020-08-21T10:05:20.000Z</time>
      </trkpt>
      <trkpt lat="47.7234" lon="-3.34072">
        <ele>19.2</ele>
        <time>2020-08-21T10:05:21.000Z</time>
      </trkpt>
      <trkpt lat="47.72338" lon="-3.34063">
        <ele>19.4</ele>
        <time>2020-08-21T10:05:22.000Z</time>
      </trkpt>
      <trkpt lat="47.72337" lon="-3.34054">
        <ele>19.7</ele>
        <time>2020-08-21T10:05:23.000Z</time>
      </trkpt>
      <trkpt lat="47.72335" lon="-3.34045">
        <ele>19.9</ele>
        <time>2020-08-21T10:05:24.000Z</time>
      </trkpt>
      <trkpt lat="47.72333" lon="-3.34035">
        <ele>20.1</ele>
        <time>2020-08-21T10:05:25.000Z</time>
      </trkpt>
      <trkpt lat="47.7233" lon="-3.34026">
        <ele>20.3</ele>
        <time>2020-08-21T10:05:26.000Z</time>
      </trkpt>
      <trkpt lat="47.72328" lon="-3.34017">
        <ele>20.5</ele>
        <time>2020-08-21T10:05:27.000Z</time>
      </trkpt>
      <trkpt lat="47.72326" lon="-3.34008">
        <ele>20.6</ele>
        <time>2020-08-21T10:05:28.000Z</time>
      </trkpt>
      <trkpt lat="47.72324" lon="-3.34">
        <ele>20.8</ele>
        <time>2020-08-21T10:05:29.000Z</time>
      </trkpt>
      <trkpt lat="47.72323" lon="-3.33992">
        <ele>20.8</ele>
        <time>2020-08-21T10:05:30.000Z</time>
      </trkpt>
      <trkpt lat="47.72322" lon="-3.33986">
        <ele>20.9</ele>
        <time>2020-08-21T10:05:31.000Z</time>
      </trkpt>
      <trkpt lat="47.7232" lon="-3.3398">
        <ele>20.9</ele>
        <time>2020-08-21T10:05:32.000Z</time>
      </trkpt>
      <trkpt lat="47.72319" lon="-3.33975">
        <ele>21</ele>
        <time>2020-08-21T10:05:33.000Z</time>
      </trkpt>
      <trkpt lat="47.72318" lon="-3.3397">
        <ele>21</ele>
        <time>2020-08-21T10:05:34.000Z</time>
      </trkpt>
      <trkpt lat="47.72317" lon="-3.33965">
        <ele>21</ele>
        <time>2020-08-21T10:05:35.000Z</time>
      </trkpt>
      <trkpt lat="47.72316" lon="-3.33961">
        <ele>21</ele>
        <time>2020-08-21T10:05:36.000Z</time>
      </trkpt>
      <trkpt lat="47.72314" lon="-3.33957">
        <ele>21.1</ele>
        <time>2020-08-21T10:05:37.000Z</time>
      </trkpt>
      <trkpt lat="47.72313" lon="-3.33953">
        <ele>21.1</ele>
        <time>2020-08-21T10:05:38.000Z</time>
      </trkpt>
      <trkpt lat="47.72312" lon="-3.33949">
        <ele>21.1</ele>
        <time>2020-08-21T10:05:39.000Z</time>
      </trkpt>
      <trkpt lat="47.7231" lon="-3.33946">
        <ele>21.1</ele>
        <time>2020-08-21T10:05:40.000Z</time>
      </trkpt>
      <trkpt lat="47.72309" lon="-3.33943">
        <ele>21.1</ele>
        <time>2020-08-21T10:05:41.000Z</time>
      </trkpt>
      <trkpt lat="47.72307" lon="-3.3394">
        <ele>21.1</ele>
        <time>2020-08-21T10:05:42.000Z</time>
      </trkpt>
      <trkpt lat="47.72306" lon="-3.33938">
        <ele>21.1</ele>
        <time>2020-08-21T10:05:43.000Z</time>
      </trkpt>
      <trkpt lat="47.72304" lon="-3.33936">
        <ele>21.1</ele>
        <time>2020-08-21T10:05:44.000Z</time>
      </trkpt>
      <trkpt lat="47.72303" lon="-3.33935">
        <ele>21.1</ele>
        <time>2020-08-21T10:05:45.000Z</time>
      </trkpt>
      <trkpt lat="47.72302" lon="-3.33934">
        <ele>21</ele>
        <time>2020-08-21T10:05:46.000Z</time>
      </trkpt>
      <trkpt lat="47.72302" lon="-3.33933">
        <ele>21</ele>
        <time>2020-08-21T10:05:47.000Z</time>
      </trkpt>
      <trkpt lat="47.72301" lon="-3.33933">
        <ele>21</ele>
        <time>2020-08-21T10:05:48.000Z</time>
      </trkpt>
      <trkpt lat="47.72301" lon="-3.33933">
        <ele>21</ele>
        <time>2020-08-21T10:05:49.000Z</time>
      </trkpt>
      <trkpt lat="47.72301" lon="-3.33933">
        <ele>21</ele>
        <time>2020-08-21T10:05:50.000Z</time>
      </trkpt>
      <trkpt lat="47.72301" lon="-3.33933">
        <ele>21</ele>
        <time>2020-08-21T10:05:51.000Z</time>
      </trkpt>
      <trkpt lat="47.72301" lon="-3.33933">
        <ele>21</ele>
        <time>2020-08-21T10:05:52.000Z</time>
      </trkpt>
      <trkpt lat="47.72301" lon="-3.33933">
        <ele>21</ele>
        <time>2020-08-21T10:05:53.000Z</time>
      </trkpt>
      <trkpt lat="47.72301" lon="-3.33933">
        <ele>21</ele>
        <time>2020-08-21T10:05:54.000Z</time>
      </trkpt>
      <trkpt lat="47.72301" lon="-3.33933">
        <ele>21</ele>
        <time>2020-08-21T10:05:55.000Z</time>
      </trkpt>
      <trkpt lat="47.72301" lon="-3.33933">
        <ele>21</ele>
        <time>2020-08-21T10:05:56.000Z</time>
      </trkpt>
      <trkpt lat="47.72301" lon="-3.33933">
        <ele>21</ele>
        <time>2020-08-21T10:05:57.000Z</time>
      </trkpt>
      <trkpt lat="47.723" lon="-3.33932">
        <ele>21</ele>
        <time>2020-08-21T10:05:58.000Z</time>
      </trkpt>
      <trkpt lat="47.72299" lon="-3.33931">
        <ele>21</ele>
        <time>2020-08-21T10:05:59.000Z</time>
      </trkpt>
      <trkpt lat="47.72298" lon="-3.33929">
        <ele>21</ele>
        <time>2020-08-21T10:06:00.000Z</time>
      </trkpt>
      <trkpt lat="47.72297" lon="-3.33925">
        <ele>21</ele>
        <time>2020-08-21T10:06:01.000Z</time>
      </trkpt>
      <trkpt lat="47.72295" lon="-3.33921">
        <ele>21</ele>
        <time>2020-08-21T10:06:02.000Z</time>
      </trkpt>
      <trkpt lat="47.72292" lon="-3.33917">
        <ele>21</ele>
        <time>2020-08-21T10:06:03.000Z</time>
      </trkpt>
      <trkpt lat="47.72289" lon="-3.33914">
        <ele>21</ele>
        <time>2020-08-21T10:06:04.000Z</time>
      </trkpt>
      <trkpt lat="47.72286" lon="-3.33911">
        <ele>21</ele>
        <time>2020-08-21T10:06:05.000Z</time>
      </trkpt>
      <trkpt lat="47.72282" lon="-3.33909">
        <ele>20.9</ele>
        <time>2020-08-21T10:06:06.000Z</time>
      </trkpt>
      <trkpt lat="47.72277" lon="-3.33908">
        <ele>20.8</ele>
        <time>2020-08-21T10:06:07.000Z</time>
      </trkpt>
      <trkpt lat="47.72272" lon="-3.33908">
        <ele>20.7</ele>
        <time>2020-08-21T10:06:08.000Z</time>
      </trkpt>
      <trkpt lat="47.72266" lon="-3.33907">
        <ele>20.6</ele>
        <time>2020-08-21T10:06:09.000Z</time>
      </trkpt>
      <trkpt lat="47.7226" lon="-3.33907">
        <ele>20.5</ele>
        <time>2020-08-21T10:06:10.000Z</time>
      </trkpt>
      <trkpt lat="47.72253" lon="-3.33906">
        <ele>20.3</ele>
        <time>2020-08-21T10:06:11.000Z</time>
      </trkpt>
      <trkpt lat="47.72247" lon="-3.33905">
        <ele>20.2</ele>
        <time>2020-08-21T10:06:12.000Z</time>
      </trkpt>
      <trkpt lat="47.72241" lon="-3.33904">
        <ele>20.1</ele>
        <time>2020-08-21T10:06:13.000Z</time>
      </trkpt>
      <trkpt lat="47.72235" lon="-3.33904">
        <ele>20</ele>
        <time>2020-08-21T10:06:14.000Z</time>
      </trkpt>
      <trkpt lat="47.72228" lon="-3.33906">
        <ele>19.9</ele>
        <time>2020-08-21T10:06:15.000Z</time>
      </trkpt>
      <trkpt lat="47.72222" lon="-3.33909">
        <ele>19.8</ele>
        <time>2020-08-21T10:06:16.000Z</time>
      </trkpt>
      <trkpt lat="47.72216" lon="-3.33913">
        <ele>19.6</ele>
        <time>2020-08-21T10:06:17.000Z</time>
      </trkpt>
      <trkpt lat="47.72209" lon="-3.33917">
        <ele>19.5</ele>
        <time>2020-08-21T10:06:18.000Z</time>
      </trkpt>
      <trkpt lat="47.72203" lon="-3.33922">
        <ele>19.4</ele>
        <time>2020-08-21T10:06:19.000Z</time>
      </trkpt>
      <trkpt lat="47.72197" lon="-3.33927">
        <ele>19.2</ele>
        <time>2020-08-21T10:06:20.000Z</time>
      </trkpt>
      <trkpt lat="47.72192" lon="-3.33932">
        <ele>19.1</ele>
        <time>2020-08-21T10:06:21.000Z</time>
      </trkpt>
      <trkpt lat="47.72187" lon="-3.33937">
        <ele>19</ele>
        <time>2020-08-21T10:06:22.000Z</time>
      </trkpt>
      <trkpt lat="47.72182" lon="-3.33942">
        <ele>18.9</ele>
        <time>2020-08-21T10:06:23.000Z</time>
      </trkpt>
      <trkpt lat="47.72178" lon="-3.33947">
        <ele>18.8</ele>
        <time>2020-08-21T10:06:24.000Z</time>
      </trkpt>
      <trkpt lat="47.72173" lon="-3.33952">
        <ele>18.7</ele>
        <time>2020-08-21T10:06:25.000Z</time>
      </trkpt>
      <trkpt lat="47.72169" lon="-3.33958">
        <ele>18.5</ele>
        <time>2020-08-21T10:06:26.000Z</time>
      </trkpt>
      <trkpt lat="47.72164" lon="-3.33964">
        <ele>18.3</ele>
        <time>2020-08-21T10:06:27.000Z</time>
      </trkpt>
      <trkpt lat="47.72159" lon="-3.33971">
        <ele>18.1</ele>
        <time>2020-08-21T10:06:28.000Z</time>
      </trkpt>
      <trkpt lat="47.72155" lon="-3.33979">
        <ele>17.8</ele>
        <time>2020-08-21T10:06:29.000Z</time>
      </trkpt>
      <trkpt lat="47.72151" lon="-3.33988">
        <ele>17.6</ele>
        <time>2020-08-21T10:06:30.000Z</time>
      </trkpt>
      <trkpt lat="47.72146" lon="-3.33997">
        <ele>17.3</ele>
        <time>2020-08-21T10:06:31.000Z</time>
      </trkpt>
      <trkpt lat="47.72142" lon="-3.34006">
        <ele>16.9</ele>
        <time>2020-08-21T10:06:32.000Z</time>
      </trkpt>
      <trkpt lat="47.72137" lon="-3.34015">
        <ele>16.6</ele>
        <time>2020-08-21T10:06:33.000Z</time>
      </trkpt>
      <trkpt lat="47.72132" lon="-3.34024">
        <ele>16.2</ele>
        <time>2020-08-21T10:06:34.000Z</time>
      </trkpt>
      <trkpt lat="47.72127" lon="-3.34033">
        <ele>16</ele>
        <time>2020-08-21T10:06:35.000Z</time>
      </trkpt>
      <trkpt lat="47.72123" lon="-3.3404">
        <ele>15.7</ele>
        <time>2020-08-21T10:06:36.000Z</time>
      </trkpt>
      <trkpt lat="47.7212" lon="-3.34047">
        <ele>15.6</ele>
        <time>2020-08-21T10:06:37.000Z</time>
      </trkpt>
      <trkpt lat="47.72116" lon="-3.34052">
        <ele>15.4</ele>
        <time>2020-08-21T10:06:38.000Z</time>
      </trkpt>
      <trkpt lat="47.72114" lon="-3.34057">
        <ele>15.3</ele>
        <time>2020-08-21T10:06:39.000Z</time>
      </trkpt>
      <trkpt lat="47.72112" lon="-3.34061">
        <ele>15.3</ele>
        <time>2020-08-21T10:06:40.000Z</time>
      </trkpt>
      <trkpt lat="47.7211" lon="-3.34064">
        <ele>15.2</ele>
        <time>2020-08-21T10:06:41.000Z</time>
      </trkpt>
      <trkpt lat="47.72109" lon="-3.34067">
        <ele>15.2</ele>
        <time>2020-08-21T10:06:42.000Z</time>
      </trkpt>
      <trkpt lat="47.72107" lon="-3.34069">
        <ele>15.1</ele>
        <time>2020-08-21T10:06:43.000Z</time>
      </trkpt>
      <trkpt lat="47.72106" lon="-3.34071">
        <ele>15.1</ele>
        <time>2020-08-21T10:06:44.000Z</time>
      </trkpt>
      <trkpt lat="47.72104" lon="-3.34072">
        <ele>15.1</ele>
        <time>2020-08-21T10:06:45.000Z</time>
      </trkpt>
      <trkpt lat="47.72102" lon="-3.34073">
        <ele>15.1</ele>
        <time>2020-08-21T10:06:46.000Z</time>
      </trkpt>
      <trkpt lat="47.721" lon="-3.34073">
        <ele>15.1</ele>
        <time>2020-08-21T10:06:47.000Z</time>
      </trkpt>
      <trkpt lat="47.72098" lon="-3.34071">
        <ele>15.1</ele>
        <time>2020-08-21T10:06:48.000Z</time>
      </trkpt>
      <trkpt lat="47.72096" lon="-3.34069">
        <ele>15.1</ele>
        <time>2020-08-21T10:06:49.000Z</time>
      </trkpt>
      <trkpt lat="47.72094" lon="-3.34067">
        <ele>15.1</ele>
        <time>2020-08-21T10:06:50.000Z</time>
      </trkpt>
      <trkpt lat="47.72092" lon="-3.34064">
        <ele>15.1</ele>
        <time>2020-08-21T10:06:51.000Z</time>
      </trkpt>
      <trkpt lat="47.7209" lon="-3.3406">
        <ele>15.1</ele>
        <time>2020-08-21T10:06:52.000Z</time>
      </trkpt>
      <trkpt lat="47.72088" lon="-3.34056">
        <ele>15.1</ele>
        <time>2020-08-21T10:06:53.000Z</time>
      </trkpt>
      <trkpt lat="47.72085" lon="-3.34051">
        <ele>15</ele>
        <time>2020-08-21T10:06:54.000Z</time>
      </trkpt>
      <trkpt lat="47.72082" lon="-3.34044">
        <ele>14.9</ele>
        <time>2020-08-21T10:06:55.000Z</time>
      </trkpt>
      <trkpt lat="47.72078" lon="-3.34038">
        <ele>14.8</ele>
        <time>2020-08-21T10:06:56.000Z</time>
      </trkpt>
      <trkpt lat="47.72074" lon="-3.3403">
        <ele>14.7</ele>
        <time>2020-08-21T10:06:57.000Z</time>
      </trkpt>
      <trkpt lat="47.7207" lon="-3.34023">
        <ele>14.5</ele>
        <time>2020-08-21T10:06:58.000Z</time>
      </trkpt>
      <trkpt lat="47.72065" lon="-3.34014">
        <ele>14.3</ele>
        <time>2020-08-21T10:06:59.000Z</time>
      </trkpt>
      <trkpt lat="47.72059" lon="-3.34006">
        <ele>14.1</ele>
        <time>2020-08-21T10:07:00.000Z</time>
      </trkpt>
      <trkpt lat="47.72054" lon="-3.33997">
        <ele>14</ele>
        <time>2020-08-21T10:07:01.000Z</time>
      </trkpt>
      <trkpt lat="47.72048" lon="-3.33989">
        <ele>13.9</ele>
        <time>2020-08-21T10:07:02.000Z</time>
      </trkpt>
      <trkpt lat="47.72043" lon="-3.33981">
        <ele>13.8</ele>
        <time>2020-08-21T10:07:03.000Z</time>
      </trkpt>
      <trkpt lat="47.72038" lon="-3.33973">
        <ele>13.7</ele>
        <time>2020-08-21T10:07:04.000Z</time>
      </trkpt>
      <trkpt lat="47.72034" lon="-3.33966">
        <ele>13.6</ele>
        <time>2020-08-21T10:07:05.000Z</time>
      </trkpt>
      <trkpt lat="47.72029" lon="-3.33958">
        <ele>13.6</ele>
        <time>2020-08-21T10:07:06.000Z</time>
      </trkpt>
      <trkpt lat="47.72025" lon="-3.3395">
        <ele>13.5</ele>
        <time>2020-08-21T10:07:07.000Z</time>
      </trkpt>
      <trkpt lat="47.72021" lon="-3.33942">
        <ele>13.5</ele>
        <time>2020-08-21T10:07:08.000Z</time>
      </trkpt>
      <trkpt lat="47.72017" lon="-3.33933">
        <ele>13.4</ele>
        <time>2020-08-21T10:07:09.000Z</time>
      </trkpt>
      <trkpt lat="47.72014" lon="-3.33923">
        <ele>13.4</ele>
        <time>2020-08-21T10:07:10.000Z</time>
      </trkpt>
      <trkpt lat="47.7201" lon="-3.33913">
        <ele>13.3</ele>
        <time>2020-08-21T10:07:11.000Z</time>
      </trkpt>
      <trkpt lat="47.72007" lon="-3.33903">
        <ele>13.2</ele>
        <time>2020-08-21T10:07:12.000Z</time>
      </trkpt>
      <trkpt lat="47.72003" lon="-3.33893">
        <ele>13.1</ele>
        <time>2020-08-21T10:07:13.000Z</time>
      </trkpt>
      <trkpt lat="47.72001" lon="-3.33884">
        <ele>13</ele>
        <time>2020-08-21T10:07:14.000Z</time>
      </trkpt>
      <trkpt lat="47.71998" lon="-3.33876">
        <ele>12.9</ele>
        <time>2020-08-21T10:07:15.000Z</time>
      </trkpt>
      <trkpt lat="47.71997" lon="-3.3387">
        <ele>12.9</ele>
        <time>2020-08-21T10:07:16.000Z</time>
      </trkpt>
      <trkpt lat="47.71995" lon="-3.33864">
        <ele>12.9</ele>
        <time>2020-08-21T10:07:17.000Z</time>
      </trkpt>
      <trkpt lat="47.71993" lon="-3.33859">
        <ele>12.8</ele>
        <time>2020-08-21T10:07:18.000Z</time>
      </trkpt>
      <trkpt lat="47.71992" lon="-3.33853">
        <ele>12.8</ele>
        <time>2020-08-21T10:07:19.000Z</time>
      </trkpt>
      <trkpt lat="47.7199" lon="-3.33847">
        <ele>12.7</ele>
        <time>2020-08-21T10:07:20.000Z</time>
      </trkpt>
      <trkpt lat="47.71988" lon="-3.33841">
        <ele>12.7</ele>
        <time>2020-08-21T10:07:21.000Z</time>
      </trkpt>
      <trkpt lat="47.71985" lon="-3.33833">
        <ele>12.7</ele>
        <time>2020-08-21T10:07:22.000Z</time>
      </trkpt>
      <trkpt lat="47.71982" lon="-3.33823">
        <ele>12.8</ele>
        <time>2020-08-21T10:07:23.000Z</time>
      </trkpt>
      <trkpt lat="47.71979" lon="-3.33813">
        <ele>12.9</ele>
        <time>2020-08-21T10:07:24.000Z</time>
      </trkpt>
      <trkpt lat="47.71976" lon="-3.33802">
        <ele>13.1</ele>
        <time>2020-08-21T10:07:25.000Z</time>
      </trkpt>
      <trkpt lat="47.71973" lon="-3.3379">
        <ele>13.2</ele>
        <time>2020-08-21T10:07:26.000Z</time>
      </trkpt>
      <trkpt lat="47.71971" lon="-3.33777">
        <ele>13.4</ele>
        <time>2020-08-21T10:07:27.000Z</time>
      </trkpt>
      <trkpt lat="47.71969" lon="-3.33763">
        <ele>13.6</ele>
        <time>2020-08-21T10:07:28.000Z</time>
      </trkpt>
      <trkpt lat="47.71967" lon="-3.3375">
        <ele>13.8</ele>
        <time>2020-08-21T10:07:29.000Z</time>
      </trkpt>
      <trkpt lat="47.71965" lon="-3.33736">
        <ele>13.7</ele>
        <time>2020-08-21T10:07:30.000Z</time>
      </trkpt>
      <trkpt lat="47.71964" lon="-3.33722">
        <ele>13.7</ele>
        <time>2020-08-21T10:07:31.000Z</time>
      </trkpt>
      <trkpt lat="47.71963" lon="-3.33708">
        <ele>13.6</ele>
        <time>2020-08-21T10:07:32.000Z</time>
      </trkpt>
      <trkpt lat="47.71962" lon="-3.33695">
        <ele>13.6</ele>
        <time>2020-08-21T10:07:33.000Z</time>
      </trkpt>
      <trkpt lat="47.71961" lon="-3.33682">
        <ele>13.5</ele>
        <time>2020-08-21T10:07:34.000Z</time>
      </trkpt>
      <trkpt lat="47.7196" lon="-3.33669">
        <ele>13.5</ele>
        <time>2020-08-21T10:07:35.000Z</time>
      </trkpt>
      <trkpt lat="47.71959" lon="-3.33657">
        <ele>13.7</ele>
        <time>2020-08-21T10:07:36.000Z</time>
      </trkpt>
      <trkpt lat="47.71958" lon="-3.33645">
        <ele>13.9</ele>
        <time>2020-08-21T10:07:37.000Z</time>
      </trkpt>
      <trkpt lat="47.71958" lon="-3.33634">
        <ele>14.1</ele>
        <time>2020-08-21T10:07:38.000Z</time>
      </trkpt>
      <trkpt lat="47.71958" lon="-3.33623">
        <ele>14.3</ele>
        <time>2020-08-21T10:07:39.000Z</time>
      </trkpt>
      <trkpt lat="47.71957" lon="-3.33613">
        <ele>14.4</ele>
        <time>2020-08-21T10:07:40.000Z</time>
      </trkpt>
      <trkpt lat="47.71957" lon="-3.33603">
        <ele>14.6</ele>
        <time>2020-08-21T10:07:41.000Z</time>
      </trkpt>
      <trkpt lat="47.71956" lon="-3.33594">
        <ele>14.8</ele>
        <time>2020-08-21T10:07:42.000Z</time>
      </trkpt>
      <trkpt lat="47.71955" lon="-3.33586">
        <ele>14.9</ele>
        <time>2020-08-21T10:07:43.000Z</time>
      </trkpt>
      <trkpt lat="47.71954" lon="-3.33579">
        <ele>14.8</ele>
        <time>2020-08-21T10:07:44.000Z</time>
      </trkpt>
      <trkpt lat="47.71953" lon="-3.33572">
        <ele>14.7</ele>
        <time>2020-08-21T10:07:45.000Z</time>
      </trkpt>
      <trkpt lat="47.71951" lon="-3.33567">
        <ele>14.5</ele>
        <time>2020-08-21T10:07:46.000Z</time>
      </trkpt>
      <trkpt lat="47.71948" lon="-3.33563">
        <ele>14.4</ele>
        <time>2020-08-21T10:07:47.000Z</time>
      </trkpt>
      <trkpt lat="47.71946" lon="-3.33559">
        <ele>14.2</ele>
        <time>2020-08-21T10:07:48.000Z</time>
      </trkpt>
      <trkpt lat="47.71943" lon="-3.33558">
        <ele>14.1</ele>
        <time>2020-08-21T10:07:49.000Z</time>
      </trkpt>
      <trkpt lat="47.71941" lon="-3.33557">
        <ele>14</ele>
        <time>2020-08-21T10:07:50.000Z</time>
      </trkpt>
      <trkpt lat="47.71938" lon="-3.33557">
        <ele>14</ele>
        <time>2020-08-21T10:07:51.000Z</time>
      </trkpt>
      <trkpt lat="47.71935" lon="-3.33558">
        <ele>13.9</ele>
        <time>2020-08-21T10:07:52.000Z</time>
      </trkpt>
      <trkpt lat="47.71932" lon="-3.3356">
        <ele>13.8</ele>
        <time>2020-08-21T10:07:53.000Z</time>
      </trkpt>
      <trkpt lat="47.71929" lon="-3.33562">
        <ele>13.8</ele>
        <time>2020-08-21T10:07:54.000Z</time>
      </trkpt>
      <trkpt lat="47.71926" lon="-3.33564">
        <ele>13.8</ele>
        <time>2020-08-21T10:07:55.000Z</time>
      </trkpt>
      <trkpt lat="47.71924" lon="-3.33566">
        <ele>13.8</ele>
        <time>2020-08-21T10:07:56.000Z</time>
      </trkpt>
      <trkpt lat="47.71922" lon="-3.33567">
        <ele>13.7</ele>
        <time>2020-08-21T10:07:57.000Z</time>
      </trkpt>
      <trkpt lat="47.7192" lon="-3.33569">
        <ele>13.7</ele>
        <time>2020-08-21T10:07:58.000Z</time>
      </trkpt>
      <trkpt lat="47.71919" lon="-3.33569">
        <ele>13.7</ele>
        <time>2020-08-21T10:07:59.000Z</time>
      </trkpt>
      <trkpt lat="47.71919" lon="-3.33569">
        <ele>13.7</ele>
        <time>2020-08-21T10:08:00.000Z</time>
      </trkpt>
      <trkpt lat="47.71919" lon="-3.33569">
        <ele>13.7</ele>
        <time>2020-08-21T10:08:01.000Z</time>
      </trkpt>
      <trkpt lat="47.71919" lon="-3.33569">
        <ele>13.7</ele>
        <time>2020-08-21T10:08:02.000Z</time>
      </trkpt>
      <trkpt lat="47.71919" lon="-3.33569">
        <ele>13.7</ele>
        <time>2020-08-21T10:08:03.000Z</time>
      </trkpt>
      <trkpt lat="47.71919" lon="-3.33569">
        <ele>13.7</ele>
        <time>2020-08-21T10:08:04.000Z</time>
      </trkpt>
      <trkpt lat="47.71919" lon="-3.33569">
        <ele>13.7</ele>
        <time>2020-08-21T10:08:05.000Z</time>
      </trkpt>
      <trkpt lat="47.71919" lon="-3.33569">
        <ele>13.7</ele>
        <time>2020-08-21T10:08:06.000Z</time>
      </trkpt>
      <trkpt lat="47.71919" lon="-3.33569">
        <ele>13.7</ele>
        <time>2020-08-21T10:08:07.000Z</time>
      </trkpt>
      <trkpt lat="47.71919" lon="-3.33569">
        <ele>13.7</ele>
        <time>2020-08-21T10:08:08.000Z</time>
      </trkpt>
      <trkpt lat="47.71919" lon="-3.33568">
        <ele>13.7</ele>
        <time>2020-08-21T10:08:09.000Z</time>
      </trkpt>
      <trkpt lat="47.71919" lon="-3.33568">
        <ele>13.7</ele>
        <time>2020-08-21T10:08:10.000Z</time>
      </trkpt>
      <trkpt lat="47.71919" lon="-3.33569">
        <ele>13.7</ele>
        <time>2020-08-21T10:08:11.000Z</time>
      </trkpt>
      <trkpt lat="47.71917" lon="-3.3357">
        <ele>13.7</ele>
        <time>2020-08-21T10:08:12.000Z</time>
      </trkpt>
      <trkpt lat="47.71915" lon="-3.33572">
        <ele>13.7</ele>
        <time>2020-08-21T10:08:13.000Z</time>
      </trkpt>
      <trkpt lat="47.71912" lon="-3.33574">
        <ele>13.8</ele>
        <time>2020-08-21T10:08:14.000Z</time>
      </trkpt>
      <trkpt lat="47.71908" lon="-3.33576">
        <ele>13.9</ele>
        <time>2020-08-21T10:08:15.000Z</time>
      </trkpt>
      <trkpt lat="47.71904" lon="-3.3358">
        <ele>14.1</ele>
        <time>2020-08-21T10:08:16.000Z</time>
      </trkpt>
      <trkpt lat="47.71898" lon="-3.33583">
        <ele>14.2</ele>
        <time>2020-08-21T10:08:17.000Z</time>
      </trkpt>
      <trkpt lat="47.71893" lon="-3.33588">
        <ele>14.2</ele>
        <time>2020-08-21T10:08:18.000Z</time>
      </trkpt>
      <trkpt lat="47.71886" lon="-3.33592">
        <ele>14.3</ele>
        <time>2020-08-21T10:08:19.000Z</time>
      </trkpt>
      <trkpt lat="47.71879" lon="-3.33597">
        <ele>14.3</ele>
        <time>2020-08-21T10:08:20.000Z</time>
      </trkpt>
      <trkpt lat="47.71871" lon="-3.33602">
        <ele>14.3</ele>
        <time>2020-08-21T10:08:21.000Z</time>
      </trkpt>
      <trkpt lat="47.71863" lon="-3.33608">
        <ele>14.4</ele>
        <time>2020-08-21T10:08:22.000Z</time>
      </trkpt>
      <trkpt lat="47.71854" lon="-3.33614">
        <ele>14.4</ele>
        <time>2020-08-21T10:08:23.000Z</time>
      </trkpt>
      <trkpt lat="47.71845" lon="-3.33621">
        <ele>14.4</ele>
        <time>2020-08-21T10:08:24.000Z</time>
      </trkpt>
      <trkpt lat="47.71836" lon="-3.33629">
        <ele>14.4</ele>
        <time>2020-08-21T10:08:25.000Z</time>
      </trkpt>
      <trkpt lat="47.71826" lon="-3.33638">
        <ele>14.5</ele>
        <time>2020-08-21T10:08:26.000Z</time>
      </trkpt>
      <trkpt lat="47.71817" lon="-3.33648">
        <ele>14.7</ele>
        <time>2020-08-21T10:08:27.000Z</time>
      </trkpt>
      <trkpt lat="47.71807" lon="-3.3366">
        <ele>14.9</ele>
        <time>2020-08-21T10:08:28.000Z</time>
      </trkpt>
      <trkpt lat="47.71798" lon="-3.33672">
        <ele>15.1</ele>
        <time>2020-08-21T10:08:29.000Z</time>
      </trkpt>
      <trkpt lat="47.71789" lon="-3.33686">
        <ele>15.1</ele>
        <time>2020-08-21T10:08:30.000Z</time>
      </trkpt>
      <trkpt lat="47.7178" lon="-3.337">
        <ele>15.1</ele>
        <time>2020-08-21T10:08:31.000Z</time>
      </trkpt>
      <trkpt lat="47.71771" lon="-3.33715">
        <ele>15.1</ele>
        <time>2020-08-21T10:08:32.000Z</time>
      </trkpt>
      <trkpt lat="47.71762" lon="-3.3373">
        <ele>15.1</ele>
        <time>2020-08-21T10:08:33.000Z</time>
      </trkpt>
      <trkpt lat="47.71753" lon="-3.33745">
        <ele>15</ele>
        <time>2020-08-21T10:08:34.000Z</time>
      </trkpt>
      <trkpt lat="47.71745" lon="-3.3376">
        <ele>14.1</ele>
        <time>2020-08-21T10:08:35.000Z</time>
      </trkpt>
      <trkpt lat="47.71736" lon="-3.33775">
        <ele>12.8</ele>
        <time>2020-08-21T10:08:36.000Z</time>
      </trkpt>
      <trkpt lat="47.71727" lon="-3.3379">
        <ele>11.8</ele>
        <time>2020-08-21T10:08:37.000Z</time>
      </trkpt>
      <trkpt lat="47.71718" lon="-3.33805">
        <ele>10.8</ele>
        <time>2020-08-21T10:08:38.000Z</time>
      </trkpt>
      <trkpt lat="47.71709" lon="-3.33819">
        <ele>10</ele>
        <time>2020-08-21T10:08:39.000Z</time>
      </trkpt>
      <trkpt lat="47.717" lon="-3.33832">
        <ele>9.4</ele>
        <time>2020-08-21T10:08:40.000Z</time>
      </trkpt>
      <trkpt lat="47.71691" lon="-3.33846">
        <ele>9</ele>
        <time>2020-08-21T10:08:41.000Z</time>
      </trkpt>
      <trkpt lat="47.71681" lon="-3.33859">
        <ele>8.6</ele>
        <time>2020-08-21T10:08:42.000Z</time>
      </trkpt>
      <trkpt lat="47.71672" lon="-3.33872">
        <ele>8.1</ele>
        <time>2020-08-21T10:08:43.000Z</time>
      </trkpt>
      <trkpt lat="47.71662" lon="-3.33884">
        <ele>7.7</ele>
        <time>2020-08-21T10:08:44.000Z</time>
      </trkpt>
      <trkpt lat="47.71653" lon="-3.33897">
        <ele>7.2</ele>
        <time>2020-08-21T10:08:45.000Z</time>
      </trkpt>
      <trkpt lat="47.71644" lon="-3.33909">
        <ele>6.9</ele>
        <time>2020-08-21T10:08:46.000Z</time>
      </trkpt>
      <trkpt lat="47.71635" lon="-3.3392">
        <ele>6.5</ele>
        <time>2020-08-21T10:08:47.000Z</time>
      </trkpt>
      <trkpt lat="47.71626" lon="-3.33931">
        <ele>6.1</ele>
        <time>2020-08-21T10:08:48.000Z</time>
      </trkpt>
      <trkpt lat="47.71618" lon="-3.33942">
        <ele>5.7</ele>
        <time>2020-08-21T10:08:49.000Z</time>
      </trkpt>
      <trkpt lat="47.7161" lon="-3.33952">
        <ele>5.5</ele>
        <time>2020-08-21T10:08:50.000Z</time>
      </trkpt>
      <trkpt lat="47.71602" lon="-3.33961">
        <ele>5.3</ele>
        <time>2020-08-21T10:08:51.000Z</time>
      </trkpt>
      <trkpt lat="47.71595" lon="-3.33969">
        <ele>5.3</ele>
        <time>2020-08-21T10:08:52.000Z</time>
      </trkpt>
      <trkpt lat="47.71589" lon="-3.33977">
        <ele>5.2</ele>
        <time>2020-08-21T10:08:53.000Z</time>
      </trkpt>
      <trkpt lat="47.71584" lon="-3.33984">
        <ele>5.2</ele>
        <time>2020-08-21T10:08:54.000Z</time>
      </trkpt>
      <trkpt lat="47.7158" lon="-3.33991">
        <ele>5.3</ele>
        <time>2020-08-21T10:08:55.000Z</time>
      </trkpt>
      <trkpt lat="47.71576" lon="-3.33997">
        <ele>5.4</ele>
        <time>2020-08-21T10:08:56.000Z</time>
      </trkpt>
      <trkpt lat="47.71573" lon="-3.34002">
        <ele>5.5</ele>
        <time>2020-08-21T10:08:57.000Z</time>
      </trkpt>
      <trkpt lat="47.71569" lon="-3.34007">
        <ele>5.7</ele>
        <time>2020-08-21T10:08:58.000Z</time>
      </trkpt>
      <trkpt lat="47.71565" lon="-3.34012">
        <ele>5.8</ele>
        <time>2020-08-21T10:08:59.000Z</time>
      </trkpt>
      <trkpt lat="47.7156" lon="-3.34017">
        <ele>6</ele>
        <time>2020-08-21T10:09:00.000Z</time>
      </trkpt>
      <trkpt lat="47.71555" lon="-3.34022">
        <ele>6.2</ele>
        <time>2020-08-21T10:09:01.000Z</time>
      </trkpt>
      <trkpt lat="47.71551" lon="-3.34027">
        <ele>6.3</ele>
        <time>2020-08-21T10:09:02.000Z</time>
      </trkpt>
      <trkpt lat="47.71548" lon="-3.34033">
        <ele>6.4</ele>
        <time>2020-08-21T10:09:03.000Z</time>
      </trkpt>
      <trkpt lat="47.71545" lon="-3.34038">
        <ele>6.4</ele>
        <time>2020-08-21T10:09:04.000Z</time>
      </trkpt>
      <trkpt lat="47.71543" lon="-3.34042">
        <ele>6.5</ele>
        <time>2020-08-21T10:09:05.000Z</time>
      </trkpt>
      <trkpt lat="47.71541" lon="-3.34045">
        <ele>6.5</ele>
        <time>2020-08-21T10:09:06.000Z</time>
      </trkpt>
      <trkpt lat="47.7154" lon="-3.34048">
        <ele>6.5</ele>
        <time>2020-08-21T10:09:07.000Z</time>
      </trkpt>
      <trkpt lat="47.71539" lon="-3.34049">
        <ele>6.5</ele>
        <time>2020-08-21T10:09:08.000Z</time>
      </trkpt>
      <trkpt lat="47.71539" lon="-3.3405">
        <ele>6.5</ele>
        <time>2020-08-21T10:09:09.000Z</time>
      </trkpt>
      <trkpt lat="47.71539" lon="-3.34049">
        <ele>6.5</ele>
        <time>2020-08-21T10:09:10.000Z</time>
      </trkpt>
      <trkpt lat="47.71539" lon="-3.34049">
        <ele>6.5</ele>
        <time>2020-08-21T10:09:11.000Z</time>
      </trkpt>
      <trkpt lat="47.71539" lon="-3.34049">
        <ele>6.5</ele>
        <time>2020-08-21T10:09:12.000Z</time>
      </trkpt>
      <trkpt lat="47.71539" lon="-3.34048">
        <ele>6.5</ele>
        <time>2020-08-21T10:09:13.000Z</time>
      </trkpt>
      <trkpt lat="47.7154" lon="-3.34048">
        <ele>6.5</ele>
        <time>2020-08-21T10:09:14.000Z</time>
      </trkpt>
      <trkpt lat="47.7154" lon="-3.34048">
        <ele>6.5</ele>
        <time>2020-08-21T10:09:15.000Z</time>
      </trkpt>
      <trkpt lat="47.71539" lon="-3.34048">
        <ele>6.5</ele>
        <time>2020-08-21T10:09:16.000Z</time>
      </trkpt>
      <trkpt lat="47.71539" lon="-3.34048">
        <ele>6.5</ele>
        <time>2020-08-21T10:09:17.000Z</time>
      </trkpt>
      <trkpt lat="47.71539" lon="-3.34049">
        <ele>6.5</ele>
        <time>2020-08-21T10:09:18.000Z</time>
      </trkpt>
      <trkpt lat="47.71538" lon="-3.34049">
        <ele>6.5</ele>
        <time>2020-08-21T10:09:19.000Z</time>
      </trkpt>
      <trkpt lat="47.71537" lon="-3.3405">
        <ele>6.6</ele>
        <time>2020-08-21T10:09:20.000Z</time>
      </trkpt>
      <trkpt lat="47.71536" lon="-3.34051">
        <ele>6.6</ele>
        <time>2020-08-21T10:09:21.000Z</time>
      </trkpt>
      <trkpt lat="47.71534" lon="-3.34054">
        <ele>6.6</ele>
        <time>2020-08-21T10:09:22.000Z</time>
      </trkpt>
      <trkpt lat="47.71532" lon="-3.34057">
        <ele>6.6</ele>
        <time>2020-08-21T10:09:23.000Z</time>
      </trkpt>
      <trkpt lat="47.71529" lon="-3.34061">
        <ele>6.6</ele>
        <time>2020-08-21T10:09:24.000Z</time>
      </trkpt>
      <trkpt lat="47.71526" lon="-3.34066">
        <ele>6.7</ele>
        <time>2020-08-21T10:09:25.000Z</time>
      </trkpt>
      <trkpt lat="47.71523" lon="-3.34072">
        <ele>6.6</ele>
        <time>2020-08-21T10:09:26.000Z</time>
      </trkpt>
      <trkpt lat="47.71519" lon="-3.34079">
        <ele>6.6</ele>
        <time>2020-08-21T10:09:27.000Z</time>
      </trkpt>
      <trkpt lat="47.71515" lon="-3.34086">
        <ele>6.5</ele>
        <time>2020-08-21T10:09:28.000Z</time>
      </trkpt>
      <trkpt lat="47.71511" lon="-3.34094">
        <ele>6.4</ele>
        <time>2020-08-21T10:09:29.000Z</time>
      </trkpt>
      <trkpt lat="47.71506" lon="-3.34102">
        <ele>6.2</ele>
        <time>2020-08-21T10:09:30.000Z</time>
      </trkpt>
      <trkpt lat="47.715" lon="-3.34111">
        <ele>6</ele>
        <time>2020-08-21T10:09:31.000Z</time>
      </trkpt>
      <trkpt lat="47.71494" lon="-3.34121">
        <ele>6</ele>
        <time>2020-08-21T10:09:32.000Z</time>
      </trkpt>
      <trkpt lat="47.71487" lon="-3.3413">
        <ele>5.9</ele>
        <time>2020-08-21T10:09:33.000Z</time>
      </trkpt>
      <trkpt lat="47.7148" lon="-3.34139">
        <ele>5.9</ele>
        <time>2020-08-21T10:09:34.000Z</time>
      </trkpt>
      <trkpt lat="47.71474" lon="-3.34147">
        <ele>5.9</ele>
        <time>2020-08-21T10:09:35.000Z</time>
      </trkpt>
      <trkpt lat="47.71469" lon="-3.34155">
        <ele>5.9</ele>
        <time>2020-08-21T10:09:36.000Z</time>
      </trkpt>
      <trkpt lat="47.71463" lon="-3.34162">
        <ele>5.9</ele>
        <time>2020-08-21T10:09:37.000Z</time>
      </trkpt>
      <trkpt lat="47.71458" lon="-3.34168">
        <ele>6</ele>
        <time>2020-08-21T10:09:38.000Z</time>
      </trkpt>
      <trkpt lat="47.71452" lon="-3.34175">
        <ele>6.3</ele>
        <time>2020-08-21T10:09:39.000Z</time>
      </trkpt>
      <trkpt lat="47.71446" lon="-3.34182">
        <ele>6.7</ele>
        <time>2020-08-21T10:09:40.000Z</time>
      </trkpt>
      <trkpt lat="47.71439" lon="-3.34189">
        <ele>7</ele>
        <time>2020-08-21T10:09:41.000Z</time>
      </trkpt>
      <trkpt lat="47.71431" lon="-3.34196">
        <ele>7.4</ele>
        <time>2020-08-21T10:09:42.000Z</time>
      </trkpt>
      <trkpt lat="47.71423" lon="-3.34204">
        <ele>7.7</ele>
        <time>2020-08-21T10:09:43.000Z</time>
      </trkpt>
      <trkpt lat="47.71415" lon="-3.34211">
        <ele>8.1</ele>
        <time>2020-08-21T10:09:44.000Z</time>
      </trkpt>
      <trkpt lat="47.71406" lon="-3.34219">
        <ele>8.3</ele>
        <time>2020-08-21T10:09:45.000Z</time>
      </trkpt>
      <trkpt lat="47.71398" lon="-3.34227">
        <ele>8.5</ele>
        <time>2020-08-21T10:09:46.000Z</time>
      </trkpt>
      <trkpt lat="47.71389" lon="-3.34235">
        <ele>8.7</ele>
        <time>2020-08-21T10:09:47.000Z</time>
      </trkpt>
      <trkpt lat="47.71381" lon="-3.34242">
        <ele>8.9</ele>
        <time>2020-08-21T10:09:48.000Z</time>
      </trkpt>
      <trkpt lat="47.71373" lon="-3.3425">
        <ele>9.1</ele>
        <time>2020-08-21T10:09:49.000Z</time>
      </trkpt>
      <trkpt lat="47.71365" lon="-3.34256">
        <ele>9.2</ele>
        <time>2020-08-21T10:09:50.000Z</time>
      </trkpt>
      <trkpt lat="47.71357" lon="-3.34263">
        <ele>9.2</ele>
        <time>2020-08-21T10:09:51.000Z</time>
      </trkpt>
      <trkpt lat="47.71349" lon="-3.34268">
        <ele>9.3</ele>
        <time>2020-08-21T10:09:52.000Z</time>
      </trkpt>
      <trkpt lat="47.71342" lon="-3.34274">
        <ele>9.3</ele>
        <time>2020-08-21T10:09:53.000Z</time>
      </trkpt>
      <trkpt lat="47.71334" lon="-3.34279">
        <ele>9.3</ele>
        <time>2020-08-21T10:09:54.000Z</time>
      </trkpt>
      <trkpt lat="47.71326" lon="-3.34284">
        <ele>9.4</ele>
        <time>2020-08-21T10:09:55.000Z</time>
      </trkpt>
      <trkpt lat="47.71318" lon="-3.34289">
        <ele>9.4</ele>
        <time>2020-08-21T10:09:56.000Z</time>
      </trkpt>
      <trkpt lat="47.7131" lon="-3.34293">
        <ele>9.5</ele>
        <time>2020-08-21T10:09:57.000Z</time>
      </trkpt>
      <trkpt lat="47.71302" lon="-3.34298">
        <ele>9.6</ele>
        <time>2020-08-21T10:09:58.000Z</time>
      </trkpt>
      <trkpt lat="47.71294" lon="-3.34302">
        <ele>9.7</ele>
        <time>2020-08-21T10:09:59.000Z</time>
      </trkpt>
      <trkpt lat="47.71285" lon="-3.34307">
        <ele>9.8</ele>
        <time>2020-08-21T10:10:00.000Z</time>
      </trkpt>
      <trkpt lat="47.71277" lon="-3.34312">
        <ele>9.9</ele>
        <time>2020-08-21T10:10:01.000Z</time>
      </trkpt>
      <trkpt lat="47.71269" lon="-3.34316">
        <ele>10</ele>
        <time>2020-08-21T10:10:02.000Z</time>
      </trkpt>
      <trkpt lat="47.7126" lon="-3.34321">
        <ele>10.1</ele>
        <time>2020-08-21T10:10:03.000Z</time>
      </trkpt>
      <trkpt lat="47.71253" lon="-3.34325">
        <ele>10.1</ele>
        <time>2020-08-21T10:10:04.000Z</time>
      </trkpt>
      <trkpt lat="47.71245" lon="-3.3433">
        <ele>10.3</ele>
        <time>2020-08-21T10:10:05.000Z</time>
      </trkpt>
      <trkpt lat="47.71238" lon="-3.34334">
        <ele>10.4</ele>
        <time>2020-08-21T10:10:06.000Z</time>
      </trkpt>
      <trkpt lat="47.71231" lon="-3.34338">
        <ele>10.7</ele>
        <time>2020-08-21T10:10:07.000Z</time>
      </trkpt>
      <trkpt lat="47.71225" lon="-3.34342">
        <ele>11</ele>
        <time>2020-08-21T10:10:08.000Z</time>
      </trkpt>
      <trkpt lat="47.71219" lon="-3.34345">
        <ele>11.2</ele>
        <time>2020-08-21T10:10:09.000Z</time>
      </trkpt>
      <trkpt lat="47.71214" lon="-3.34348">
        <ele>11.4</ele>
        <time>2020-08-21T10:10:10.000Z</time>
      </trkpt>
      <trkpt lat="47.71209" lon="-3.34351">
        <ele>11.6</ele>
        <time>2020-08-21T10:10:11.000Z</time>
      </trkpt>
      <trkpt lat="47.71206" lon="-3.34353">
        <ele>11.7</ele>
        <time>2020-08-21T10:10:12.000Z</time>
      </trkpt>
      <trkpt lat="47.71203" lon="-3.34355">
        <ele>11.8</ele>
        <time>2020-08-21T10:10:13.000Z</time>
      </trkpt>
      <trkpt lat="47.71201" lon="-3.34356">
        <ele>11.9</ele>
        <time>2020-08-21T10:10:14.000Z</time>
      </trkpt>
      <trkpt lat="47.712" lon="-3.34357">
        <ele>11.9</ele>
        <time>2020-08-21T10:10:15.000Z</time>
      </trkpt>
      <trkpt lat="47.71199" lon="-3.34357">
        <ele>11.9</ele>
        <time>2020-08-21T10:10:16.000Z</time>
      </trkpt>
      <trkpt lat="47.71199" lon="-3.34357">
        <ele>12</ele>
        <time>2020-08-21T10:10:17.000Z</time>
      </trkpt>
      <trkpt lat="47.71199" lon="-3.34357">
        <ele>11.9</ele>
        <time>2020-08-21T10:10:18.000Z</time>
      </trkpt>
      <trkpt lat="47.71199" lon="-3.34357">
        <ele>11.9</ele>
        <time>2020-08-21T10:10:19.000Z</time>
      </trkpt>
      <trkpt lat="47.71199" lon="-3.34357">
        <ele>11.9</ele>
        <time>2020-08-21T10:10:20.000Z</time>
      </trkpt>
      <trkpt lat="47.71199" lon="-3.34357">
        <ele>11.9</ele>
        <time>2020-08-21T10:10:21.000Z</time>
      </trkpt>
      <trkpt lat="47.71199" lon="-3.34357">
        <ele>11.9</ele>
        <time>2020-08-21T10:10:22.000Z</time>
      </trkpt>
      <trkpt lat="47.71199" lon="-3.34357">
        <ele>11.9</ele>
        <time>2020-08-21T10:10:23.000Z</time>
      </trkpt>
      <trkpt lat="47.71199" lon="-3.34357">
        <ele>11.9</ele>
        <time>2020-08-21T10:10:24.000Z</time>
      </trkpt>
      <trkpt lat="47.71199" lon="-3.34357">
        <ele>12</ele>
        <time>2020-08-21T10:10:25.000Z</time>
      </trkpt>
      <trkpt lat="47.71198" lon="-3.34358">
        <ele>12</ele>
        <time>2020-08-21T10:10:26.000Z</time>
      </trkpt>
      <trkpt lat="47.71197" lon="-3.34358">
        <ele>12</ele>
        <time>2020-08-21T10:10:27.000Z</time>
      </trkpt>
      <trkpt lat="47.71196" lon="-3.34359">
        <ele>12.1</ele>
        <time>2020-08-21T10:10:28.000Z</time>
      </trkpt>
      <trkpt lat="47.71193" lon="-3.34361">
        <ele>12.1</ele>
        <time>2020-08-21T10:10:29.000Z</time>
      </trkpt>
      <trkpt lat="47.7119" lon="-3.34363">
        <ele>12.3</ele>
        <time>2020-08-21T10:10:30.000Z</time>
      </trkpt>
      <trkpt lat="47.71186" lon="-3.34366">
        <ele>12.4</ele>
        <time>2020-08-21T10:10:31.000Z</time>
      </trkpt>
      <trkpt lat="47.71181" lon="-3.34369">
        <ele>12.6</ele>
        <time>2020-08-21T10:10:32.000Z</time>
      </trkpt>
      <trkpt lat="47.71174" lon="-3.34373">
        <ele>12.8</ele>
        <time>2020-08-21T10:10:33.000Z</time>
      </trkpt>
      <trkpt lat="47.71168" lon="-3.34378">
        <ele>13</ele>
        <time>2020-08-21T10:10:34.000Z</time>
      </trkpt>
      <trkpt lat="47.7116" lon="-3.34383">
        <ele>12.8</ele>
        <time>2020-08-21T10:10:35.000Z</time>
      </trkpt>
      <trkpt lat="47.71153" lon="-3.34388">
        <ele>12.6</ele>
        <time>2020-08-21T10:10:36.000Z</time>
      </trkpt>
      <trkpt lat="47.71145" lon="-3.34393">
        <ele>12.4</ele>
        <time>2020-08-21T10:10:37.000Z</time>
      </trkpt>
      <trkpt lat="47.71136" lon="-3.34399">
        <ele>12.2</ele>
        <time>2020-08-21T10:10:38.000Z</time>
      </trkpt>
      <trkpt lat="47.71128" lon="-3.34405">
        <ele>12</ele>
        <time>2020-08-21T10:10:39.000Z</time>
      </trkpt>
      <trkpt lat="47.71119" lon="-3.34411">
        <ele>11.8</ele>
        <time>2020-08-21T10:10:40.000Z</time>
      </trkpt>
      <trkpt lat="47.71109" lon="-3.34417">
        <ele>11.6</ele>
        <time>2020-08-21T10:10:41.000Z</time>
      </trkpt>
      <trkpt lat="47.71099" lon="-3.34423">
        <ele>11.4</ele>
        <time>2020-08-21T10:10:42.000Z</time>
      </trkpt>
      <trkpt lat="47.71089" lon="-3.34428">
        <ele>11.3</ele>
        <time>2020-08-21T10:10:43.000Z</time>
      </trkpt>
      <trkpt lat="47.71079" lon="-3.34434">
        <ele>11.1</ele>
        <time>2020-08-21T10:10:44.000Z</time>
      </trkpt>
      <trkpt lat="47.71069" lon="-3.3444">
        <ele>10.8</ele>
        <time>2020-08-21T10:10:45.000Z</time>
      </trkpt>
      <trkpt lat="47.71059" lon="-3.34445">
        <ele>10.6</ele>
        <time>2020-08-21T10:10:46.000Z</time>
      </trkpt>
      <trkpt lat="47.71049" lon="-3.34451">
        <ele>10.3</ele>
        <time>2020-08-21T10:10:47.000Z</time>
      </trkpt>
      <trkpt lat="47.7104" lon="-3.34457">
        <ele>10.2</ele>
        <time>2020-08-21T10:10:48.000Z</time>
      </trkpt>
      <trkpt lat="47.71031" lon="-3.34462">
        <ele>10</ele>
        <time>2020-08-21T10:10:49.000Z</time>
      </trkpt>
      <trkpt lat="47.71023" lon="-3.34469">
        <ele>9.9</ele>
        <time>2020-08-21T10:10:50.000Z</time>
      </trkpt>
      <trkpt lat="47.71016" lon="-3.34475">
        <ele>9.8</ele>
        <time>2020-08-21T10:10:51.000Z</time>
      </trkpt>
      <trkpt lat="47.71009" lon="-3.34483">
        <ele>9.8</ele>
        <time>2020-08-21T10:10:52.000Z</time>
      </trkpt>
      <trkpt lat="47.71002" lon="-3.3449">
        <ele>9.8</ele>
        <time>2020-08-21T10:10:53.000Z</time>
      </trkpt>
      <trkpt lat="47.70996" lon="-3.34498">
        <ele>9.8</ele>
        <time>2020-08-21T10:10:54.000Z</time>
      </trkpt>
      <trkpt lat="47.70991" lon="-3.34506">
        <ele>9.5</ele>
        <time>2020-08-21T10:10:55.000Z</time>
      </trkpt>
      <trkpt lat="47.70987" lon="-3.34513">
        <ele>9.2</ele>
        <time>2020-08-21T10:10:56.000Z</time>
      </trkpt>
      <trkpt lat="47.70983" lon="-3.3452">
        <ele>9</ele>
        <time>2020-08-21T10:10:57.000Z</time>
      </trkpt>
      <trkpt lat="47.7098" lon="-3.34526">
        <ele>8.8</ele>
        <time>2020-08-21T10:10:58.000Z</time>
      </trkpt>
      <trkpt lat="47.70977" lon="-3.34531">
        <ele>8.6</ele>
        <time>2020-08-21T10:10:59.000Z</time>
      </trkpt>
      <trkpt lat="47.70975" lon="-3.34535">
        <ele>8.5</ele>
        <time>2020-08-21T10:11:00.000Z</time>
      </trkpt>
      <trkpt lat="47.70973" lon="-3.34539">
        <ele>8.4</ele>
        <time>2020-08-21T10:11:01.000Z</time>
      </trkpt>
      <trkpt lat="47.70971" lon="-3.34543">
        <ele>8.3</ele>
        <time>2020-08-21T10:11:02.000Z</time>
      </trkpt>
      <trkpt lat="47.70969" lon="-3.34546">
        <ele>8.2</ele>
        <time>2020-08-21T10:11:03.000Z</time>
      </trkpt>
      <trkpt lat="47.70967" lon="-3.3455">
        <ele>8.1</ele>
        <time>2020-08-21T10:11:04.000Z</time>
      </trkpt>
      <trkpt lat="47.70966" lon="-3.34553">
        <ele>8</ele>
        <time>2020-08-21T10:11:05.000Z</time>
      </trkpt>
      <trkpt lat="47.70964" lon="-3.34556">
        <ele>7.9</ele>
        <time>2020-08-21T10:11:06.000Z</time>
      </trkpt>
      <trkpt lat="47.70962" lon="-3.3456">
        <ele>7.8</ele>
        <time>2020-08-21T10:11:07.000Z</time>
      </trkpt>
      <trkpt lat="47.7096" lon="-3.34563">
        <ele>7.7</ele>
        <time>2020-08-21T10:11:08.000Z</time>
      </trkpt>
      <trkpt lat="47.70959" lon="-3.34567">
        <ele>7.6</ele>
        <time>2020-08-21T10:11:09.000Z</time>
      </trkpt>
      <trkpt lat="47.70957" lon="-3.3457">
        <ele>7.5</ele>
        <time>2020-08-21T10:11:10.000Z</time>
      </trkpt>
      <trkpt lat="47.70956" lon="-3.34573">
        <ele>7.5</ele>
        <time>2020-08-21T10:11:11.000Z</time>
      </trkpt>
      <trkpt lat="47.70955" lon="-3.34576">
        <ele>7.4</ele>
        <time>2020-08-21T10:11:12.000Z</time>
      </trkpt>
      <trkpt lat="47.70954" lon="-3.34578">
        <ele>7.4</ele>
        <time>2020-08-21T10:11:13.000Z</time>
      </trkpt>
      <trkpt lat="47.70953" lon="-3.3458">
        <ele>7.3</ele>
        <time>2020-08-21T10:11:14.000Z</time>
      </trkpt>
      <trkpt lat="47.70952" lon="-3.34582">
        <ele>7.3</ele>
        <time>2020-08-21T10:11:15.000Z</time>
      </trkpt>
      <trkpt lat="47.70952" lon="-3.34582">
        <ele>7.3</ele>
        <time>2020-08-21T10:11:16.000Z</time>
      </trkpt>
      <trkpt lat="47.70952" lon="-3.34583">
        <ele>7.3</ele>
        <time>2020-08-21T10:11:17.000Z</time>
      </trkpt>
      <trkpt lat="47.70952" lon="-3.34583">
        <ele>7.3</ele>
        <time>2020-08-21T10:11:18.000Z</time>
      </trkpt>
      <trkpt lat="47.70952" lon="-3.34583">
        <ele>7.3</ele>
        <time>2020-08-21T10:11:19.000Z</time>
      </trkpt>
      <trkpt lat="47.70952" lon="-3.34582">
        <ele>7.3</ele>
        <time>2020-08-21T10:11:20.000Z</time>
      </trkpt>
      <trkpt lat="47.70952" lon="-3.34582">
        <ele>7.3</ele>
        <time>2020-08-21T10:11:21.000Z</time>
      </trkpt>
      <trkpt lat="47.70952" lon="-3.34582">
        <ele>7.3</ele>
        <time>2020-08-21T10:11:22.000Z</time>
      </trkpt>
      <trkpt lat="47.70952" lon="-3.34582">
        <ele>7.3</ele>
        <time>2020-08-21T10:11:23.000Z</time>
      </trkpt>
      <trkpt lat="47.70952" lon="-3.34582">
        <ele>7.3</ele>
        <time>2020-08-21T10:11:24.000Z</time>
      </trkpt>
      <trkpt lat="47.70952" lon="-3.34582">
        <ele>7.3</ele>
        <time>2020-08-21T10:11:25.000Z</time>
      </trkpt>
      <trkpt lat="47.70952" lon="-3.34582">
        <ele>7.3</ele>
        <time>2020-08-21T10:11:26.000Z</time>
      </trkpt>
      <trkpt lat="47.70952" lon="-3.34582">
        <ele>7.3</ele>
        <time>2020-08-21T10:11:27.000Z</time>
      </trkpt>
      <trkpt lat="47.70952" lon="-3.34582">
        <ele>7.3</ele>
        <time>2020-08-21T10:11:28.000Z</time>
      </trkpt>
      <trkpt lat="47.70952" lon="-3.34582">
        <ele>7.3</ele>
        <time>2020-08-21T10:11:29.000Z</time>
      </trkpt>
      <trkpt lat="47.70952" lon="-3.34582">
        <ele>7.3</ele>
        <time>2020-08-21T10:11:30.000Z</time>
      </trkpt>
      <trkpt lat="47.70952" lon="-3.34582">
        <ele>7.3</ele>
        <time>2020-08-21T10:11:31.000Z</time>
      </trkpt>
      <trkpt lat="47.70952" lon="-3.34582">
        <ele>7.3</ele>
        <time>2020-08-21T10:11:32.000Z</time>
      </trkpt>
      <trkpt lat="47.70952" lon="-3.34583">
        <ele>7.3</ele>
        <time>2020-08-21T10:11:33.000Z</time>
      </trkpt>
      <trkpt lat="47.70951" lon="-3.34585">
        <ele>7.2</ele>
        <time>2020-08-21T10:11:34.000Z</time>
      </trkpt>
      <trkpt lat="47.7095" lon="-3.34588">
        <ele>7.2</ele>
        <time>2020-08-21T10:11:35.000Z</time>
      </trkpt>
      <trkpt lat="47.70947" lon="-3.34593">
        <ele>7.1</ele>
        <time>2020-08-21T10:11:36.000Z</time>
      </trkpt>
      <trkpt lat="47.70945" lon="-3.34597">
        <ele>7</ele>
        <time>2020-08-21T10:11:37.000Z</time>
      </trkpt>
      <trkpt lat="47.70943" lon="-3.34602">
        <ele>7</ele>
        <time>2020-08-21T10:11:38.000Z</time>
      </trkpt>
      <trkpt lat="47.70941" lon="-3.34607">
        <ele>6.9</ele>
        <time>2020-08-21T10:11:39.000Z</time>
      </trkpt>
      <trkpt lat="47.7094" lon="-3.34611">
        <ele>6.8</ele>
        <time>2020-08-21T10:11:40.000Z</time>
      </trkpt>
      <trkpt lat="47.70938" lon="-3.34616">
        <ele>6.8</ele>
        <time>2020-08-21T10:11:41.000Z</time>
      </trkpt>
      <trkpt lat="47.70937" lon="-3.34621">
        <ele>6.7</ele>
        <time>2020-08-21T10:11:42.000Z</time>
      </trkpt>
      <trkpt lat="47.70936" lon="-3.34627">
        <ele>6.7</ele>
        <time>2020-08-21T10:11:43.000Z</time>
      </trkpt>
      <trkpt lat="47.70936" lon="-3.34632">
        <ele>6.7</ele>
        <time>2020-08-21T10:11:44.000Z</time>
      </trkpt>
      <trkpt lat="47.70936" lon="-3.34637">
        <ele>6.7</ele>
        <time>2020-08-21T10:11:45.000Z</time>
      </trkpt>
      <trkpt lat="47.70935" lon="-3.34642">
        <ele>6.7</ele>
        <time>2020-08-21T10:11:46.000Z</time>
      </trkpt>
      <trkpt lat="47.70933" lon="-3.34647">
        <ele>6.6</ele>
        <time>2020-08-21T10:11:47.000Z</time>
      </trkpt>
      <trkpt lat="47.7093" lon="-3.34652">
        <ele>6.5</ele>
        <time>2020-08-21T10:11:48.000Z</time>
      </trkpt>
      <trkpt lat="47.70927" lon="-3.34657">
        <ele>6.4</ele>
        <time>2020-08-21T10:11:49.000Z</time>
      </trkpt>
      <trkpt lat="47.70923" lon="-3.34661">
        <ele>6.2</ele>
        <time>2020-08-21T10:11:50.000Z</time>
      </trkpt>
      <trkpt lat="47.70918" lon="-3.34667">
        <ele>6.1</ele>
        <time>2020-08-21T10:11:51.000Z</time>
      </trkpt>
      <trkpt lat="47.70914" lon="-3.34672">
        <ele>6.1</ele>
        <time>2020-08-21T10:11:52.000Z</time>
      </trkpt>
      <trkpt lat="47.7091" lon="-3.34679">
        <ele>6.1</ele>
        <time>2020-08-21T10:11:53.000Z</time>
      </trkpt>
      <trkpt lat="47.70906" lon="-3.34687">
        <ele>6.2</ele>
        <time>2020-08-21T10:11:54.000Z</time>
      </trkpt>
      <trkpt lat="47.70903" lon="-3.34697">
        <ele>6.2</ele>
        <time>2020-08-21T10:11:55.000Z</time>
      </trkpt>
      <trkpt lat="47.709" lon="-3.34708">
        <ele>6.3</ele>
        <time>2020-08-21T10:11:56.000Z</time>
      </trkpt>
      <trkpt lat="47.70897" lon="-3.3472">
        <ele>6.3</ele>
        <time>2020-08-21T10:11:57.000Z</time>
      </trkpt>
      <trkpt lat="47.70895" lon="-3.34733">
        <ele>6.4</ele>
        <time>2020-08-21T10:11:58.000Z</time>
      </trkpt>
      <trkpt lat="47.70893" lon="-3.34746">
        <ele>6.4</ele>
        <time>2020-08-21T10:11:59.000Z</time>
      </trkpt>
      <trkpt lat="47.70891" lon="-3.34759">
        <ele>6.2</ele>
        <time>2020-08-21T10:12:00.000Z</time>
      </trkpt>
      <trkpt lat="47.70888" lon="-3.34771">
        <ele>6</ele>
        <time>2020-08-21T10:12:01.000Z</time>
      </trkpt>
      <trkpt lat="47.70886" lon="-3.34783">
        <ele>5.8</ele>
        <time>2020-08-21T10:12:02.000Z</time>
      </trkpt>
      <trkpt lat="47.70883" lon="-3.34795">
        <ele>5.6</ele>
        <time>2020-08-21T10:12:03.000Z</time>
      </trkpt>
      <trkpt lat="47.7088" lon="-3.34807">
        <ele>5.4</ele>
        <time>2020-08-21T10:12:04.000Z</time>
      </trkpt>
      <trkpt lat="47.70876" lon="-3.34819">
        <ele>5.2</ele>
        <time>2020-08-21T10:12:05.000Z</time>
      </trkpt>
      <trkpt lat="47.70873" lon="-3.34831">
        <ele>5</ele>
        <time>2020-08-21T10:12:06.000Z</time>
      </trkpt>
      <trkpt lat="47.70869" lon="-3.34844">
        <ele>5</ele>
        <time>2020-08-21T10:12:07.000Z</time>
      </trkpt>
      <trkpt lat="47.70864" lon="-3.34857">
        <ele>5</ele>
        <time>2020-08-21T10:12:08.000Z</time>
      </trkpt>
      <trkpt lat="47.7086" lon="-3.3487">
        <ele>5</ele>
        <time>2020-08-21T10:12:09.000Z</time>
      </trkpt>
      <trkpt lat="47.70856" lon="-3.34883">
        <ele>5</ele>
        <time>2020-08-21T10:12:10.000Z</time>
      </trkpt>
      <trkpt lat="47.70851" lon="-3.34897">
        <ele>5</ele>
        <time>2020-08-21T10:12:11.000Z</time>
      </trkpt>
      <trkpt lat="47.70846" lon="-3.3491">
        <ele>5</ele>
        <time>2020-08-21T10:12:12.000Z</time>
      </trkpt>
      <trkpt lat="47.70842" lon="-3.34923">
        <ele>5</ele>
        <time>2020-08-21T10:12:13.000Z</time>
      </trkpt>
      <trkpt lat="47.70837" lon="-3.34936">
        <ele>5</ele>
        <time>2020-08-21T10:12:14.000Z</time>
      </trkpt>
      <trkpt lat="47.70833" lon="-3.34949">
        <ele>5</ele>
        <time>2020-08-21T10:12:15.000Z</time>
      </trkpt>
      <trkpt lat="47.70828" lon="-3.34962">
        <ele>5.1</ele>
        <time>2020-08-21T10:12:16.000Z</time>
      </trkpt>
      <trkpt lat="47.70824" lon="-3.34974">
        <ele>5.2</ele>
        <time>2020-08-21T10:12:17.000Z</time>
      </trkpt>
      <trkpt lat="47.7082" lon="-3.34986">
        <ele>5.3</ele>
        <time>2020-08-21T10:12:18.000Z</time>
      </trkpt>
      <trkpt lat="47.70817" lon="-3.34997">
        <ele>5.4</ele>
        <time>2020-08-21T10:12:19.000Z</time>
      </trkpt>
      <trkpt lat="47.70813" lon="-3.35008">
        <ele>5.4</ele>
        <time>2020-08-21T10:12:20.000Z</time>
      </trkpt>
      <trkpt lat="47.7081" lon="-3.35019">
        <ele>5.3</ele>
        <time>2020-08-21T10:12:21.000Z</time>
      </trkpt>
      <trkpt lat="47.70806" lon="-3.35029">
        <ele>5.3</ele>
        <time>2020-08-21T10:12:22.000Z</time>
      </trkpt>
      <trkpt lat="47.70803" lon="-3.35039">
        <ele>5.3</ele>
        <time>2020-08-21T10:12:23.000Z</time>
      </trkpt>
      <trkpt lat="47.708" lon="-3.35048">
        <ele>5.2</ele>
        <time>2020-08-21T10:12:24.000Z</time>
      </trkpt>
      <trkpt lat="47.70798" lon="-3.35057">
        <ele>5.2</ele>
        <time>2020-08-21T10:12:25.000Z</time>
      </trkpt>
      <trkpt lat="47.70795" lon="-3.35065">
        <ele>5.1</ele>
        <time>2020-08-21T10:12:26.000Z</time>
      </trkpt>
      <trkpt lat="47.70793" lon="-3.35073">
        <ele>5.1</ele>
        <time>2020-08-21T10:12:27.000Z</time>
      </trkpt>
      <trkpt lat="47.7079" lon="-3.3508">
        <ele>5.1</ele>
        <time>2020-08-21T10:12:28.000Z</time>
      </trkpt>
      <trkpt lat="47.70788" lon="-3.35087">
        <ele>5</ele>
        <time>2020-08-21T10:12:29.000Z</time>
      </trkpt>
      <trkpt lat="47.70788" lon="-3.35094">
        <ele>4.9</ele>
        <time>2020-08-21T10:12:30.000Z</time>
      </trkpt>
      <trkpt lat="47.70788" lon="-3.351">
        <ele>4.8</ele>
        <time>2020-08-21T10:12:31.000Z</time>
      </trkpt>
      <trkpt lat="47.70789" lon="-3.35106">
        <ele>4.7</ele>
        <time>2020-08-21T10:12:32.000Z</time>
      </trkpt>
      <trkpt lat="47.7079" lon="-3.35113">
        <ele>4.5</ele>
        <time>2020-08-21T10:12:33.000Z</time>
      </trkpt>
      <trkpt lat="47.70791" lon="-3.3512">
        <ele>4.4</ele>
        <time>2020-08-21T10:12:34.000Z</time>
      </trkpt>
      <trkpt lat="47.70792" lon="-3.35127">
        <ele>4.2</ele>
        <time>2020-08-21T10:12:35.000Z</time>
      </trkpt>
      <trkpt lat="47.70792" lon="-3.35135">
        <ele>4.1</ele>
        <time>2020-08-21T10:12:36.000Z</time>
      </trkpt>
      <trkpt lat="47.70791" lon="-3.35143">
        <ele>3.9</ele>
        <time>2020-08-21T10:12:37.000Z</time>
      </trkpt>
      <trkpt lat="47.7079" lon="-3.35152">
        <ele>3.9</ele>
        <time>2020-08-21T10:12:38.000Z</time>
      </trkpt>
      <trkpt lat="47.70788" lon="-3.3516">
        <ele>3.8</ele>
        <time>2020-08-21T10:12:39.000Z</time>
      </trkpt>
      <trkpt lat="47.70785" lon="-3.35168">
        <ele>3.9</ele>
        <time>2020-08-21T10:12:40.000Z</time>
      </trkpt>
      <trkpt lat="47.70783" lon="-3.35176">
        <ele>4.2</ele>
        <time>2020-08-21T10:12:41.000Z</time>
      </trkpt>
      <trkpt lat="47.7078" lon="-3.35184">
        <ele>4.4</ele>
        <time>2020-08-21T10:12:42.000Z</time>
      </trkpt>
      <trkpt lat="47.70778" lon="-3.35191">
        <ele>4.6</ele>
        <time>2020-08-21T10:12:43.000Z</time>
      </trkpt>
      <trkpt lat="47.70776" lon="-3.35198">
        <ele>4.8</ele>
        <time>2020-08-21T10:12:44.000Z</time>
      </trkpt>
      <trkpt lat="47.70774" lon="-3.35206">
        <ele>5</ele>
        <time>2020-08-21T10:12:45.000Z</time>
      </trkpt>
      <trkpt lat="47.70772" lon="-3.35214">
        <ele>5.3</ele>
        <time>2020-08-21T10:12:46.000Z</time>
      </trkpt>
      <trkpt lat="47.70771" lon="-3.35223">
        <ele>5.4</ele>
        <time>2020-08-21T10:12:47.000Z</time>
      </trkpt>
      <trkpt lat="47.7077" lon="-3.35232">
        <ele>5.6</ele>
        <time>2020-08-21T10:12:48.000Z</time>
      </trkpt>
      <trkpt lat="47.7077" lon="-3.35242">
        <ele>5.7</ele>
        <time>2020-08-21T10:12:49.000Z</time>
      </trkpt>
      <trkpt lat="47.70772" lon="-3.35253">
        <ele>5.8</ele>
        <time>2020-08-21T10:12:50.000Z</time>
      </trkpt>
      <trkpt lat="47.70775" lon="-3.35264">
        <ele>6.3</ele>
        <time>2020-08-21T10:12:51.000Z</time>
      </trkpt>
      <trkpt lat="47.70779" lon="-3.35275">
        <ele>6.6</ele>
        <time>2020-08-21T10:12:52.000Z</time>
      </trkpt>
      <trkpt lat="47.70785" lon="-3.35285">
        <ele>6.8</ele>
        <time>2020-08-21T10:12:53.000Z</time>
      </trkpt>
      <trkpt lat="47.70791" lon="-3.35295">
        <ele>6.8</ele>
        <time>2020-08-21T10:12:54.000Z</time>
      </trkpt>
      <trkpt lat="47.70797" lon="-3.35304">
        <ele>6.6</ele>
        <time>2020-08-21T10:12:55.000Z</time>
      </trkpt>
      <trkpt lat="47.70802" lon="-3.35312">
        <ele>6.5</ele>
        <time>2020-08-21T10:12:56.000Z</time>
      </trkpt>
      <trkpt lat="47.70807" lon="-3.35319">
        <ele>6.2</ele>
        <time>2020-08-21T10:12:57.000Z</time>
      </trkpt>
      <trkpt lat="47.70812" lon="-3.35325">
        <ele>6</ele>
        <time>2020-08-21T10:12:58.000Z</time>
      </trkpt>
      <trkpt lat="47.70817" lon="-3.35332">
        <ele>5.8</ele>
        <time>2020-08-21T10:12:59.000Z</time>
      </trkpt>
      <trkpt lat="47.70821" lon="-3.35338">
        <ele>5.7</ele>
        <time>2020-08-21T10:13:00.000Z</time>
      </trkpt>
      <trkpt lat="47.70825" lon="-3.35345">
        <ele>5.7</ele>
        <time>2020-08-21T10:13:01.000Z</time>
      </trkpt>
      <trkpt lat="47.70829" lon="-3.35352">
        <ele>5.8</ele>
        <time>2020-08-21T10:13:02.000Z</time>
      </trkpt>
      <trkpt lat="47.70834" lon="-3.35359">
        <ele>5.8</ele>
        <time>2020-08-21T10:13:03.000Z</time>
      </trkpt>
      <trkpt lat="47.70839" lon="-3.35366">
        <ele>6.1</ele>
        <time>2020-08-21T10:13:04.000Z</time>
      </trkpt>
      <trkpt lat="47.70846" lon="-3.35374">
        <ele>6.3</ele>
        <time>2020-08-21T10:13:05.000Z</time>
      </trkpt>
      <trkpt lat="47.70853" lon="-3.35382">
        <ele>6.5</ele>
        <time>2020-08-21T10:13:06.000Z</time>
      </trkpt>
      <trkpt lat="47.7086" lon="-3.3539">
        <ele>6.8</ele>
        <time>2020-08-21T10:13:07.000Z</time>
      </trkpt>
      <trkpt lat="47.70867" lon="-3.35398">
        <ele>7</ele>
        <time>2020-08-21T10:13:08.000Z</time>
      </trkpt>
      <trkpt lat="47.70875" lon="-3.35405">
        <ele>7.2</ele>
        <time>2020-08-21T10:13:09.000Z</time>
      </trkpt>
      <trkpt lat="47.70882" lon="-3.35413">
        <ele>7.4</ele>
        <time>2020-08-21T10:13:10.000Z</time>
      </trkpt>
      <trkpt lat="47.70889" lon="-3.35421">
        <ele>7.6</ele>
        <time>2020-08-21T10:13:11.000Z</time>
      </trkpt>
      <trkpt lat="47.70896" lon="-3.35428">
        <ele>7.7</ele>
        <time>2020-08-21T10:13:12.000Z</time>
      </trkpt>
      <trkpt lat="47.70903" lon="-3.35436">
        <ele>7.8</ele>
        <time>2020-08-21T10:13:13.000Z</time>
      </trkpt>
      <trkpt lat="47.70909" lon="-3.35443">
        <ele>7.9</ele>
        <time>2020-08-21T10:13:14.000Z</time>
      </trkpt>
      <trkpt lat="47.70916" lon="-3.3545">
        <ele>8</ele>
        <time>2020-08-21T10:13:15.000Z</time>
      </trkpt>
      <trkpt lat="47.70922" lon="-3.35457">
        <ele>8</ele>
        <time>2020-08-21T10:13:16.000Z</time>
      </trkpt>
      <trkpt lat="47.70929" lon="-3.35464">
        <ele>7.8</ele>
        <time>2020-08-21T10:13:17.000Z</time>
      </trkpt>
      <trkpt lat="47.70935" lon="-3.35471">
        <ele>7.7</ele>
        <time>2020-08-21T10:13:18.000Z</time>
      </trkpt>
      <trkpt lat="47.70941" lon="-3.35477">
        <ele>7.5</ele>
        <time>2020-08-21T10:13:19.000Z</time>
      </trkpt>
      <trkpt lat="47.70946" lon="-3.35484">
        <ele>7.3</ele>
        <time>2020-08-21T10:13:20.000Z</time>
      </trkpt>
      <trkpt lat="47.70952" lon="-3.3549">
        <ele>7.1</ele>
        <time>2020-08-21T10:13:21.000Z</time>
      </trkpt>
      <trkpt lat="47.70957" lon="-3.35496">
        <ele>6.9</ele>
        <time>2020-08-21T10:13:22.000Z</time>
      </trkpt>
      <trkpt lat="47.70963" lon="-3.35501">
        <ele>6.6</ele>
        <time>2020-08-21T10:13:23.000Z</time>
      </trkpt>
      <trkpt lat="47.70968" lon="-3.35507">
        <ele>6.4</ele>
        <time>2020-08-21T10:13:24.000Z</time>
      </trkpt>
      <trkpt lat="47.70973" lon="-3.35512">
        <ele>6.2</ele>
        <time>2020-08-21T10:13:25.000Z</time>
      </trkpt>
      <trkpt lat="47.70978" lon="-3.35517">
        <ele>6</ele>
        <time>2020-08-21T10:13:26.000Z</time>
      </trkpt>
      <trkpt lat="47.70982" lon="-3.35522">
        <ele>5.9</ele>
        <time>2020-08-21T10:13:27.000Z</time>
      </trkpt>
      <trkpt lat="47.70986" lon="-3.35526">
        <ele>5.7</ele>
        <time>2020-08-21T10:13:28.000Z</time>
      </trkpt>
      <trkpt lat="47.7099" lon="-3.3553">
        <ele>5.6</ele>
        <time>2020-08-21T10:13:29.000Z</time>
      </trkpt>
      <trkpt lat="47.70994" lon="-3.35534">
        <ele>5.5</ele>
        <time>2020-08-21T10:13:30.000Z</time>
      </trkpt>
      <trkpt lat="47.70997" lon="-3.35537">
        <ele>5.5</ele>
        <time>2020-08-21T10:13:31.000Z</time>
      </trkpt>
      <trkpt lat="47.71" lon="-3.35541">
        <ele>5.4</ele>
        <time>2020-08-21T10:13:32.000Z</time>
      </trkpt>
      <trkpt lat="47.71003" lon="-3.35545">
        <ele>5.5</ele>
        <time>2020-08-21T10:13:33.000Z</time>
      </trkpt>
      <trkpt lat="47.71007" lon="-3.35549">
        <ele>5.4</ele>
        <time>2020-08-21T10:13:34.000Z</time>
      </trkpt>
      <trkpt lat="47.71011" lon="-3.35554">
        <ele>5.4</ele>
        <time>2020-08-21T10:13:35.000Z</time>
      </trkpt>
      <trkpt lat="47.71015" lon="-3.35559">
        <ele>5.4</ele>
        <time>2020-08-21T10:13:36.000Z</time>
      </trkpt>
      <trkpt lat="47.71019" lon="-3.35564">
        <ele>5.3</ele>
        <time>2020-08-21T10:13:37.000Z</time>
      </trkpt>
      <trkpt lat="47.71023" lon="-3.3557">
        <ele>5.2</ele>
        <time>2020-08-21T10:13:38.000Z</time>
      </trkpt>
      <trkpt lat="47.71028" lon="-3.35575">
        <ele>5</ele>
        <time>2020-08-21T10:13:39.000Z</time>
      </trkpt>
      <trkpt lat="47.71032" lon="-3.35581">
        <ele>4.8</ele>
        <time>2020-08-21T10:13:40.000Z</time>
      </trkpt>
      <trkpt lat="47.71036" lon="-3.35586">
        <ele>4.7</ele>
        <time>2020-08-21T10:13:41.000Z</time>
      </trkpt>
      <trkpt lat="47.7104" lon="-3.35591">
        <ele>4.6</ele>
        <time>2020-08-21T10:13:42.000Z</time>
      </trkpt>
      <trkpt lat="47.71044" lon="-3.35596">
        <ele>4.5</ele>
        <time>2020-08-21T10:13:43.000Z</time>
      </trkpt>
      <trkpt lat="47.71048" lon="-3.35602">
        <ele>4.5</ele>
        <time>2020-08-21T10:13:44.000Z</time>
      </trkpt>
      <trkpt lat="47.71051" lon="-3.35607">
        <ele>4.4</ele>
        <time>2020-08-21T10:13:45.000Z</time>
      </trkpt>
      <trkpt lat="47.71055" lon="-3.35612">
        <ele>4.4</ele>
        <time>2020-08-21T10:13:46.000Z</time>
      </trkpt>
      <trkpt lat="47.71058" lon="-3.35617">
        <ele>4.5</ele>
        <time>2020-08-21T10:13:47.000Z</time>
      </trkpt>
      <trkpt lat="47.71062" lon="-3.35622">
        <ele>4.5</ele>
        <time>2020-08-21T10:13:48.000Z</time>
      </trkpt>
      <trkpt lat="47.71065" lon="-3.35628">
        <ele>4.6</ele>
        <time>2020-08-21T10:13:49.000Z</time>
      </trkpt>
      <trkpt lat="47.71068" lon="-3.35633">
        <ele>4.7</ele>
        <time>2020-08-21T10:13:50.000Z</time>
      </trkpt>
      <trkpt lat="47.71071" lon="-3.35638">
        <ele>4.8</ele>
        <time>2020-08-21T10:13:51.000Z</time>
      </trkpt>
      <trkpt lat="47.71074" lon="-3.35642">
        <ele>4.9</ele>
        <time>2020-08-21T10:13:52.000Z</time>
      </trkpt>
      <trkpt lat="47.71077" lon="-3.35647">
        <ele>5</ele>
        <time>2020-08-21T10:13:53.000Z</time>
      </trkpt>
      <trkpt lat="47.7108" lon="-3.35651">
        <ele>5.1</ele>
        <time>2020-08-21T10:13:54.000Z</time>
      </trkpt>
      <trkpt lat="47.71082" lon="-3.35654">
        <ele>5.2</ele>
        <time>2020-08-21T10:13:55.000Z</time>
      </trkpt>
      <trkpt lat="47.71084" lon="-3.35658">
        <ele>5.3</ele>
        <time>2020-08-21T10:13:56.000Z</time>
      </trkpt>
      <trkpt lat="47.71086" lon="-3.35661">
        <ele>5.4</ele>
        <time>2020-08-21T10:13:57.000Z</time>
      </trkpt>
      <trkpt lat="47.71088" lon="-3.35664">
        <ele>5.5</ele>
        <time>2020-08-21T10:13:58.000Z</time>
      </trkpt>
      <trkpt lat="47.71089" lon="-3.35666">
        <ele>5.5</ele>
        <time>2020-08-21T10:13:59.000Z</time>
      </trkpt>
      <trkpt lat="47.71091" lon="-3.35668">
        <ele>6</ele>
        <time>2020-08-21T10:14:00.000Z</time>
      </trkpt>
      <trkpt lat="47.71092" lon="-3.3567">
        <ele>6</ele>
        <time>2020-08-21T10:14:01.000Z</time>
      </trkpt>
      <trkpt lat="47.71093" lon="-3.35671">
        <ele>6</ele>
        <time>2020-08-21T10:14:02.000Z</time>
      </trkpt>
      <trkpt lat="47.71094" lon="-3.35672">
        <ele>6</ele>
        <time>2020-08-21T10:14:03.000Z</time>
      </trkpt>
      <trkpt lat="47.71095" lon="-3.35673">
        <ele>6</ele>
        <time>2020-08-21T10:14:04.000Z</time>
      </trkpt>
      <trkpt lat="47.71095" lon="-3.35674">
        <ele>6</ele>
        <time>2020-08-21T10:14:05.000Z</time>
      </trkpt>
      <trkpt lat="47.71096" lon="-3.35674">
        <ele>6</ele>
        <time>2020-08-21T10:14:06.000Z</time>
      </trkpt>
      <trkpt lat="47.71097" lon="-3.35675">
        <ele>6</ele>
        <time>2020-08-21T10:14:07.000Z</time>
      </trkpt>
      <trkpt lat="47.71097" lon="-3.35675">
        <ele>6</ele>
        <time>2020-08-21T10:14:08.000Z</time>
      </trkpt>
      <trkpt lat="47.71097" lon="-3.35675">
        <ele>6</ele>
        <time>2020-08-21T10:14:09.000Z</time>
      </trkpt>
      <trkpt lat="47.71097" lon="-3.35675">
        <ele>6</ele>
        <time>2020-08-21T10:14:10.000Z</time>
      </trkpt>
      <trkpt lat="47.71097" lon="-3.35675">
        <ele>6</ele>
        <time>2020-08-21T10:14:11.000Z</time>
      </trkpt>
      <trkpt lat="47.71097" lon="-3.35675">
        <ele>6</ele>
        <time>2020-08-21T10:14:12.000Z</time>
      </trkpt>
      <trkpt lat="47.71097" lon="-3.35675">
        <ele>6</ele>
        <time>2020-08-21T10:14:13.000Z</time>
      </trkpt>
      <trkpt lat="47.71097" lon="-3.35675">
        <ele>6</ele>
        <time>2020-08-21T10:14:14.000Z</time>
      </trkpt>
      <trkpt lat="47.71097" lon="-3.35675">
        <ele>6</ele>
        <time>2020-08-21T10:14:15.000Z</time>
      </trkpt>
      <trkpt lat="47.71097" lon="-3.35675">
        <ele>6</ele>
        <time>2020-08-21T10:14:16.000Z</time>
      </trkpt>
      <trkpt lat="47.71097" lon="-3.35675">
        <ele>6</ele>
        <time>2020-08-21T10:14:17.000Z</time>
      </trkpt>
      <trkpt lat="47.71098" lon="-3.35675">
        <ele>6</ele>
        <time>2020-08-21T10:14:18.000Z</time>
      </trkpt>
      <trkpt lat="47.71098" lon="-3.35675">
        <ele>6</ele>
        <time>2020-08-21T10:14:19.000Z</time>
      </trkpt>
      <trkpt lat="47.71098" lon="-3.35675">
        <ele>6</ele>
        <time>2020-08-21T10:14:20.000Z</time>
      </trkpt>
      <trkpt lat="47.71098" lon="-3.35675">
        <ele>6</ele>
        <time>2020-08-21T10:14:21.000Z</time>
      </trkpt>
      <trkpt lat="47.71098" lon="-3.35675">
        <ele>6</ele>
        <time>2020-08-21T10:14:22.000Z</time>
      </trkpt>
      <trkpt lat="47.71098" lon="-3.35675">
        <ele>6</ele>
        <time>2020-08-21T10:14:23.000Z</time>
      </trkpt>
      <trkpt lat="47.71098" lon="-3.35675">
        <ele>6</ele>
        <time>2020-08-21T10:14:24.000Z</time>
      </trkpt>
      <trkpt lat="47.71099" lon="-3.35675">
        <ele>6</ele>
        <time>2020-08-21T10:14:25.000Z</time>
      </trkpt>
      <trkpt lat="47.711" lon="-3.35676">
        <ele>6</ele>
        <time>2020-08-21T10:14:26.000Z</time>
      </trkpt>
      <trkpt lat="47.71102" lon="-3.35676">
        <ele>6</ele>
        <time>2020-08-21T10:14:27.000Z</time>
      </trkpt>
      <trkpt lat="47.71103" lon="-3.35676">
        <ele>6</ele>
        <time>2020-08-21T10:14:28.000Z</time>
      </trkpt>
      <trkpt lat="47.71105" lon="-3.35676">
        <ele>6</ele>
        <time>2020-08-21T10:14:29.000Z</time>
      </trkpt>
      <trkpt lat="47.71106" lon="-3.35675">
        <ele>6</ele>
        <time>2020-08-21T10:14:30.000Z</time>
      </trkpt>
      <trkpt lat="47.71107" lon="-3.35674">
        <ele>6</ele>
        <time>2020-08-21T10:14:31.000Z</time>
      </trkpt>
      <trkpt lat="47.71108" lon="-3.35674">
        <ele>6</ele>
        <time>2020-08-21T10:14:32.000Z</time>
      </trkpt>
      <trkpt lat="47.71109" lon="-3.35673">
        <ele>6</ele>
        <time>2020-08-21T10:14:33.000Z</time>
      </trkpt>
      <trkpt lat="47.7111" lon="-3.35672">
        <ele>6</ele>
        <time>2020-08-21T10:14:34.000Z</time>
      </trkpt>
      <trkpt lat="47.71111" lon="-3.35672">
        <ele>6</ele>
        <time>2020-08-21T10:14:35.000Z</time>
      </trkpt>
      <trkpt lat="47.71112" lon="-3.35671">
        <ele>6</ele>
        <time>2020-08-21T10:14:36.000Z</time>
      </trkpt>
      <trkpt lat="47.71113" lon="-3.35671">
        <ele>6</ele>
        <time>2020-08-21T10:14:37.000Z</time>
      </trkpt>
      <trkpt lat="47.71114" lon="-3.3567">
        <ele>6</ele>
        <time>2020-08-21T10:14:38.000Z</time>
      </trkpt>
      <trkpt lat="47.71114" lon="-3.3567">
        <ele>6</ele>
        <time>2020-08-21T10:14:39.000Z</time>
      </trkpt>
      <trkpt lat="47.71114" lon="-3.3567">
        <ele>6</ele>
        <time>2020-08-21T10:14:40.000Z</time>
      </trkpt>
      <trkpt lat="47.71115" lon="-3.3567">
        <ele>6</ele>
        <time>2020-08-21T10:14:41.000Z</time>
      </trkpt>
      <trkpt lat="47.71115" lon="-3.3567">
        <ele>6</ele>
        <time>2020-08-21T10:14:42.000Z</time>
      </trkpt>
      <trkpt lat="47.71115" lon="-3.3567">
        <ele>6</ele>
        <time>2020-08-21T10:14:43.000Z</time>
      </trkpt>
      <trkpt lat="47.71115" lon="-3.3567">
        <ele>6</ele>
        <time>2020-08-21T10:14:44.000Z</time>
      </trkpt>
      <trkpt lat="47.71117" lon="-3.35669">
        <ele>6</ele>
        <time>2020-08-21T10:14:45.000Z</time>
      </trkpt>
      <trkpt lat="47.71119" lon="-3.35668">
        <ele>6</ele>
        <time>2020-08-21T10:14:46.000Z</time>
      </trkpt>
      <trkpt lat="47.71121" lon="-3.35667">
        <ele>3.3</ele>
        <time>2020-08-21T10:14:47.000Z</time>
      </trkpt>
      <trkpt lat="47.71123" lon="-3.35666">
        <ele>3.1</ele>
        <time>2020-08-21T10:14:48.000Z</time>
      </trkpt>
      <trkpt lat="47.71125" lon="-3.35665">
        <ele>2.9</ele>
        <time>2020-08-21T10:14:49.000Z</time>
      </trkpt>
      <trkpt lat="47.71127" lon="-3.35664">
        <ele>2.7</ele>
        <time>2020-08-21T10:14:50.000Z</time>
      </trkpt>
      <trkpt lat="47.71129" lon="-3.35663">
        <ele>2.5</ele>
        <time>2020-08-21T10:14:51.000Z</time>
      </trkpt>
      <trkpt lat="47.71131" lon="-3.35662">
        <ele>2.3</ele>
        <time>2020-08-21T10:14:52.000Z</time>
      </trkpt>
      <trkpt lat="47.71132" lon="-3.35661">
        <ele>2.2</ele>
        <time>2020-08-21T10:14:53.000Z</time>
      </trkpt>
      <trkpt lat="47.71133" lon="-3.3566">
        <ele>2</ele>
        <time>2020-08-21T10:14:54.000Z</time>
      </trkpt>
      <trkpt lat="47.71134" lon="-3.35659">
        <ele>1.9</ele>
        <time>2020-08-21T10:14:55.000Z</time>
      </trkpt>
      <trkpt lat="47.71135" lon="-3.35659">
        <ele>1.8</ele>
        <time>2020-08-21T10:14:56.000Z</time>
      </trkpt>
      <trkpt lat="47.71136" lon="-3.35658">
        <ele>1.7</ele>
        <time>2020-08-21T10:14:57.000Z</time>
      </trkpt>
      <trkpt lat="47.71136" lon="-3.35657">
        <ele>1.6</ele>
        <time>2020-08-21T10:14:58.000Z</time>
      </trkpt>
      <trkpt lat="47.71138" lon="-3.35657">
        <ele>1.5</ele>
        <time>2020-08-21T10:14:59.000Z</time>
      </trkpt>
      <trkpt lat="47.71139" lon="-3.35656">
        <ele>1.4</ele>
        <time>2020-08-21T10:15:00.000Z</time>
      </trkpt>
      <trkpt lat="47.7114" lon="-3.35656">
        <ele>1.3</ele>
        <time>2020-08-21T10:15:01.000Z</time>
      </trkpt>
      <trkpt lat="47.71142" lon="-3.35656">
        <ele>1.2</ele>
        <time>2020-08-21T10:15:02.000Z</time>
      </trkpt>
      <trkpt lat="47.71143" lon="-3.35656">
        <ele>1.1</ele>
        <time>2020-08-21T10:15:03.000Z</time>
      </trkpt>
      <trkpt lat="47.71144" lon="-3.35656">
        <ele>1</ele>
        <time>2020-08-21T10:15:04.000Z</time>
      </trkpt>
      <trkpt lat="47.71145" lon="-3.35656">
        <ele>1</ele>
        <time>2020-08-21T10:15:05.000Z</time>
      </trkpt>
      <trkpt lat="47.71145" lon="-3.35656">
        <ele>0.9</ele>
        <time>2020-08-21T10:15:06.000Z</time>
      </trkpt>
      <trkpt lat="47.71146" lon="-3.35656">
        <ele>0.9</ele>
        <time>2020-08-21T10:15:07.000Z</time>
      </trkpt>
      <trkpt lat="47.71146" lon="-3.35656">
        <ele>0.9</ele>
        <time>2020-08-21T10:15:08.000Z</time>
      </trkpt>
      <trkpt lat="47.71146" lon="-3.35656">
        <ele>0.9</ele>
        <time>2020-08-21T10:15:09.000Z</time>
      </trkpt>
      <trkpt lat="47.71146" lon="-3.35655">
        <ele>0.9</ele>
        <time>2020-08-21T10:15:10.000Z</time>
      </trkpt>
      <trkpt lat="47.71146" lon="-3.35655">
        <ele>0.9</ele>
        <time>2020-08-21T10:15:11.000Z</time>
      </trkpt>
      <trkpt lat="47.71147" lon="-3.35655">
        <ele>0.8</ele>
        <time>2020-08-21T10:15:12.000Z</time>
      </trkpt>
      <trkpt lat="47.71148" lon="-3.35655">
        <ele>0.7</ele>
        <time>2020-08-21T10:15:13.000Z</time>
      </trkpt>
      <trkpt lat="47.7115" lon="-3.35655">
        <ele>0.6</ele>
        <time>2020-08-21T10:15:14.000Z</time>
      </trkpt>
      <trkpt lat="47.71151" lon="-3.35655">
        <ele>0.5</ele>
        <time>2020-08-21T10:15:15.000Z</time>
      </trkpt>
      <trkpt lat="47.71152" lon="-3.35654">
        <ele>0.4</ele>
        <time>2020-08-21T10:15:16.000Z</time>
      </trkpt>
      <trkpt lat="47.71153" lon="-3.35653">
        <ele>0.3</ele>
        <time>2020-08-21T10:15:17.000Z</time>
      </trkpt>
      <trkpt lat="47.71153" lon="-3.35653">
        <ele>0.2</ele>
        <time>2020-08-21T10:15:18.000Z</time>
      </trkpt>
      <trkpt lat="47.71154" lon="-3.35652">
        <ele>0.2</ele>
        <time>2020-08-21T10:15:19.000Z</time>
      </trkpt>
      <trkpt lat="47.71154" lon="-3.35652">
        <ele>0.2</ele>
        <time>2020-08-21T10:15:20.000Z</time>
      </trkpt>
      <trkpt lat="47.71154" lon="-3.35652">
        <ele>0.2</ele>
        <time>2020-08-21T10:15:21.000Z</time>
      </trkpt>
      <trkpt lat="47.71154" lon="-3.35652">
        <ele>0.1</ele>
        <time>2020-08-21T10:15:22.000Z</time>
      </trkpt>
      <trkpt lat="47.71155" lon="-3.35652">
        <ele>0.1</ele>
        <time>2020-08-21T10:15:23.000Z</time>
      </trkpt>
      <trkpt lat="47.71156" lon="-3.35651">
        <ele>6</ele>
        <time>2020-08-21T10:15:24.000Z</time>
      </trkpt>
      <trkpt lat="47.71158" lon="-3.3565">
        <ele>-0.2</ele>
        <time>2020-08-21T10:15:25.000Z</time>
      </trkpt>
      <trkpt lat="47.7116" lon="-3.35649">
        <ele>-0.4</ele>
        <time>2020-08-21T10:15:26.000Z</time>
      </trkpt>
      <trkpt lat="47.71162" lon="-3.35647">
        <ele>-0.6</ele>
        <time>2020-08-21T10:15:27.000Z</time>
      </trkpt>
      <trkpt lat="47.71163" lon="-3.35646">
        <ele>-0.8</ele>
        <time>2020-08-21T10:15:28.000Z</time>
      </trkpt>
      <trkpt lat="47.71164" lon="-3.35646">
        <ele>-0.8</ele>
        <time>2020-08-21T10:15:29.000Z</time>
      </trkpt>
      <trkpt lat="47.71164" lon="-3.35646">
        <ele>-0.9</ele>
        <time>2020-08-21T10:15:30.000Z</time>
      </trkpt>
      <trkpt lat="47.71164" lon="-3.35646">
        <ele>-0.9</ele>
        <time>2020-08-21T10:15:31.000Z</time>
      </trkpt>
      <trkpt lat="47.71164" lon="-3.35646">
        <ele>-0.9</ele>
        <time>2020-08-21T10:15:32.000Z</time>
      </trkpt>
      <trkpt lat="47.71164" lon="-3.35646">
        <ele>-0.9</ele>
        <time>2020-08-21T10:15:33.000Z</time>
      </trkpt>
      <trkpt lat="47.71164" lon="-3.35646">
        <ele>-0.9</ele>
        <time>2020-08-21T10:15:34.000Z</time>
      </trkpt>
      <trkpt lat="47.71164" lon="-3.35646">
        <ele>-0.9</ele>
        <time>2020-08-21T10:15:35.000Z</time>
      </trkpt>
      <trkpt lat="47.71164" lon="-3.35646">
        <ele>-0.9</ele>
        <time>2020-08-21T10:15:36.000Z</time>
      </trkpt>
      <trkpt lat="47.71164" lon="-3.35646">
        <ele>-0.9</ele>
        <time>2020-08-21T10:15:37.000Z</time>
      </trkpt>
      <trkpt lat="47.71164" lon="-3.35646">
        <ele>-0.9</ele>
        <time>2020-08-21T10:15:38.000Z</time>
      </trkpt>
      <trkpt lat="47.71164" lon="-3.35646">
        <ele>-0.9</ele>
        <time>2020-08-21T10:15:39.000Z</time>
      </trkpt>
      <trkpt lat="47.71164" lon="-3.35646">
        <ele>-0.9</ele>
        <time>2020-08-21T10:15:40.000Z</time>
      </trkpt>
      <trkpt lat="47.71164" lon="-3.35646">
        <ele>-0.9</ele>
        <time>2020-08-21T10:15:41.000Z</time>
      </trkpt>
      <trkpt lat="47.71164" lon="-3.35646">
        <ele>-0.9</ele>
        <time>2020-08-21T10:15:42.000Z</time>
      </trkpt>
      <trkpt lat="47.71164" lon="-3.35646">
        <ele>-0.9</ele>
        <time>2020-08-21T10:15:43.000Z</time>
      </trkpt>
      <trkpt lat="47.71164" lon="-3.35646">
        <ele>-0.9</ele>
        <time>2020-08-21T10:15:44.000Z</time>
      </trkpt>
      <trkpt lat="47.71164" lon="-3.35646">
        <ele>-0.9</ele>
        <time>2020-08-21T10:15:45.000Z</time>
      </trkpt>
      <trkpt lat="47.71164" lon="-3.35646">
        <ele>-0.9</ele>
        <time>2020-08-21T10:15:46.000Z</time>
      </trkpt>
      <trkpt lat="47.71164" lon="-3.35646">
        <ele>-0.9</ele>
        <time>2020-08-21T10:15:47.000Z</time>
      </trkpt>
      <trkpt lat="47.71164" lon="-3.35646">
        <ele>-0.9</ele>
        <time>2020-08-21T10:15:48.000Z</time>
      </trkpt>
      <trkpt lat="47.71164" lon="-3.35646">
        <ele>-0.9</ele>
        <time>2020-08-21T10:15:49.000Z</time>
      </trkpt>
      <trkpt lat="47.71164" lon="-3.35646">
        <ele>-0.9</ele>
        <time>2020-08-21T10:15:50.000Z</time>
      </trkpt>
      <trkpt lat="47.71164" lon="-3.35646">
        <ele>-0.9</ele>
        <time>2020-08-21T10:15:51.000Z</time>
      </trkpt>
      <trkpt lat="47.71164" lon="-3.35646">
        <ele>-0.9</ele>
        <time>2020-08-21T10:15:52.000Z</time>
      </trkpt>
      <trkpt lat="47.71164" lon="-3.35646">
        <ele>-0.9</ele>
        <time>2020-08-21T10:15:53.000Z</time>
      </trkpt>
      <trkpt lat="47.71164" lon="-3.35646">
        <ele>-0.9</ele>
        <time>2020-08-21T10:15:54.000Z</time>
      </trkpt>
      <trkpt lat="47.71164" lon="-3.35646">
        <ele>-0.9</ele>
        <time>2020-08-21T10:15:55.000Z</time>
      </trkpt>
      <trkpt lat="47.71164" lon="-3.35646">
        <ele>-0.9</ele>
        <time>2020-08-21T10:15:56.000Z</time>
      </trkpt>
      <trkpt lat="47.71164" lon="-3.35646">
        <ele>-0.9</ele>
        <time>2020-08-21T10:15:57.000Z</time>
      </trkpt>
      <trkpt lat="47.71164" lon="-3.35646">
        <ele>-0.9</ele>
        <time>2020-08-21T10:15:58.000Z</time>
      </trkpt>
      <trkpt lat="47.71164" lon="-3.35646">
        <ele>-0.9</ele>
        <time>2020-08-21T10:15:59.000Z</time>
      </trkpt>
      <trkpt lat="47.71164" lon="-3.35646">
        <ele>-0.9</ele>
        <time>2020-08-21T10:16:00.000Z</time>
      </trkpt>
      <trkpt lat="47.71164" lon="-3.35646">
        <ele>-0.9</ele>
        <time>2020-08-21T10:16:01.000Z</time>
      </trkpt>
      <trkpt lat="47.71164" lon="-3.35646">
        <ele>-0.9</ele>
        <time>2020-08-21T10:16:02.000Z</time>
      </trkpt>
      <trkpt lat="47.71164" lon="-3.35646">
        <ele>-0.9</ele>
        <time>2020-08-21T10:16:03.000Z</time>
      </trkpt>
      <trkpt lat="47.71164" lon="-3.35646">
        <ele>-0.9</ele>
        <time>2020-08-21T10:16:04.000Z</time>
      </trkpt>
      <trkpt lat="47.71164" lon="-3.35646">
        <ele>-0.9</ele>
        <time>2020-08-21T10:16:05.000Z</time>
      </trkpt>
      <trkpt lat="47.71164" lon="-3.35646">
        <ele>-0.9</ele>
        <time>2020-08-21T10:16:06.000Z</time>
      </trkpt>
      <trkpt lat="47.71164" lon="-3.35646">
        <ele>-0.9</ele>
        <time>2020-08-21T10:16:07.000Z</time>
      </trkpt>
      <trkpt lat="47.71164" lon="-3.35646">
        <ele>-0.9</ele>
        <time>2020-08-21T10:16:08.000Z</time>
      </trkpt>
      <trkpt lat="47.71164" lon="-3.35646">
        <ele>-0.9</ele>
        <time>2020-08-21T10:16:09.000Z</time>
      </trkpt>
      <trkpt lat="47.71164" lon="-3.35646">
        <ele>-0.9</ele>
        <time>2020-08-21T10:16:10.000Z</time>
      </trkpt>
      <trkpt lat="47.71164" lon="-3.35646">
        <ele>-0.9</ele>
        <time>2020-08-21T10:16:11.000Z</time>
      </trkpt>
      <trkpt lat="47.71164" lon="-3.35646">
        <ele>-0.9</ele>
        <time>2020-08-21T10:16:12.000Z</time>
      </trkpt>
      <trkpt lat="47.71164" lon="-3.35646">
        <ele>-0.9</ele>
        <time>2020-08-21T10:16:13.000Z</time>
      </trkpt>
      <trkpt lat="47.71164" lon="-3.35646">
        <ele>-0.9</ele>
        <time>2020-08-21T10:16:14.000Z</time>
      </trkpt>
      <trkpt lat="47.71164" lon="-3.35646">
        <ele>-0.9</ele>
        <time>2020-08-21T10:16:15.000Z</time>
      </trkpt>
      <trkpt lat="47.71164" lon="-3.35646">
        <ele>-0.9</ele>
        <time>2020-08-21T10:16:16.000Z</time>
      </trkpt>
      <trkpt lat="47.71164" lon="-3.35646">
        <ele>-0.9</ele>
        <time>2020-08-21T10:16:17.000Z</time>
      </trkpt>
      <trkpt lat="47.71164" lon="-3.35646">
        <ele>-0.9</ele>
        <time>2020-08-21T10:16:18.000Z</time>
      </trkpt>
      <trkpt lat="47.71164" lon="-3.35646">
        <ele>-0.9</ele>
        <time>2020-08-21T10:16:19.000Z</time>
      </trkpt>
      <trkpt lat="47.71164" lon="-3.35646">
        <ele>-0.9</ele>
        <time>2020-08-21T10:16:20.000Z</time>
      </trkpt>
      <trkpt lat="47.71164" lon="-3.35646">
        <ele>-0.9</ele>
        <time>2020-08-21T10:16:21.000Z</time>
      </trkpt>
      <trkpt lat="47.71164" lon="-3.35646">
        <ele>-0.9</ele>
        <time>2020-08-21T10:16:22.000Z</time>
      </trkpt>
      <trkpt lat="47.71164" lon="-3.35646">
        <ele>-0.9</ele>
        <time>2020-08-21T10:16:23.000Z</time>
      </trkpt>
      <trkpt lat="47.71164" lon="-3.35646">
        <ele>-0.9</ele>
        <time>2020-08-21T10:16:24.000Z</time>
      </trkpt>
      <trkpt lat="47.71164" lon="-3.35646">
        <ele>-0.9</ele>
        <time>2020-08-21T10:16:25.000Z</time>
      </trkpt>
      <trkpt lat="47.71164" lon="-3.35646">
        <ele>-0.9</ele>
        <time>2020-08-21T10:16:26.000Z</time>
      </trkpt>
      <trkpt lat="47.71164" lon="-3.35646">
        <ele>-0.9</ele>
        <time>2020-08-21T10:16:27.000Z</time>
      </trkpt>
      <trkpt lat="47.71164" lon="-3.35646">
        <ele>-0.9</ele>
        <time>2020-08-21T10:16:28.000Z</time>
      </trkpt>
      <trkpt lat="47.71164" lon="-3.35646">
        <ele>-0.9</ele>
        <time>2020-08-21T10:16:29.000Z</time>
      </trkpt>
      <trkpt lat="47.71164" lon="-3.35646">
        <ele>-0.9</ele>
        <time>2020-08-21T10:16:30.000Z</time>
      </trkpt>
      <trkpt lat="47.71164" lon="-3.35646">
        <ele>-0.9</ele>
        <time>2020-08-21T10:16:31.000Z</time>
      </trkpt>
      <trkpt lat="47.71164" lon="-3.35646">
        <ele>-0.9</ele>
        <time>2020-08-21T10:16:32.000Z</time>
      </trkpt>
      <trkpt lat="47.71164" lon="-3.35646">
        <ele>-0.9</ele>
        <time>2020-08-21T10:16:33.000Z</time>
      </trkpt>
      <trkpt lat="47.71164" lon="-3.35646">
        <ele>-0.9</ele>
        <time>2020-08-21T10:16:34.000Z</time>
      </trkpt>
      <trkpt lat="47.71164" lon="-3.35646">
        <ele>-0.9</ele>
        <time>2020-08-21T10:16:35.000Z</time>
      </trkpt>
      <trkpt lat="47.71164" lon="-3.35646">
        <ele>-0.9</ele>
        <time>2020-08-21T10:16:36.000Z</time>
      </trkpt>
      <trkpt lat="47.71164" lon="-3.35646">
        <ele>-0.9</ele>
        <time>2020-08-21T10:16:37.000Z</time>
      </trkpt>
      <trkpt lat="47.71164" lon="-3.35646">
        <ele>-0.9</ele>
        <time>2020-08-21T10:16:38.000Z</time>
      </trkpt>
      <trkpt lat="47.71164" lon="-3.35646">
        <ele>-0.9</ele>
        <time>2020-08-21T10:16:39.000Z</time>
      </trkpt>
      <trkpt lat="47.71164" lon="-3.35646">
        <ele>-0.9</ele>
        <time>2020-08-21T10:16:40.000Z</time>
      </trkpt>
      <trkpt lat="47.71164" lon="-3.35646">
        <ele>-0.9</ele>
        <time>2020-08-21T10:16:41.000Z</time>
      </trkpt>
      <trkpt lat="47.71164" lon="-3.35646">
        <ele>-0.9</ele>
        <time>2020-08-21T10:16:42.000Z</time>
      </trkpt>
      <trkpt lat="47.71164" lon="-3.35646">
        <ele>-0.9</ele>
        <time>2020-08-21T10:16:43.000Z</time>
      </trkpt>
      <trkpt lat="47.71164" lon="-3.35646">
        <ele>-0.9</ele>
        <time>2020-08-21T10:16:44.000Z</time>
      </trkpt>
      <trkpt lat="47.71164" lon="-3.35646">
        <ele>-0.9</ele>
        <time>2020-08-21T10:16:45.000Z</time>
      </trkpt>
      <trkpt lat="47.71164" lon="-3.35646">
        <ele>-0.9</ele>
        <time>2020-08-21T10:16:46.000Z</time>
      </trkpt>
      <trkpt lat="47.71164" lon="-3.35646">
        <ele>-0.9</ele>
        <time>2020-08-21T10:16:47.000Z</time>
      </trkpt>
      <trkpt lat="47.71164" lon="-3.35646">
        <ele>-0.9</ele>
        <time>2020-08-21T10:16:48.000Z</time>
      </trkpt>
      <trkpt lat="47.71164" lon="-3.35646">
        <ele>-0.9</ele>
        <time>2020-08-21T10:16:49.000Z</time>
      </trkpt>
      <trkpt lat="47.71164" lon="-3.35646">
        <ele>-0.9</ele>
        <time>2020-08-21T10:16:50.000Z</time>
      </trkpt>
      <trkpt lat="47.71164" lon="-3.35646">
        <ele>-0.9</ele>
        <time>2020-08-21T10:16:51.000Z</time>
      </trkpt>
      <trkpt lat="47.71164" lon="-3.35646">
        <ele>-0.9</ele>
        <time>2020-08-21T10:16:52.000Z</time>
      </trkpt>
      <trkpt lat="47.71164" lon="-3.35646">
        <ele>-0.9</ele>
        <time>2020-08-21T10:16:53.000Z</time>
      </trkpt>
      <trkpt lat="47.71164" lon="-3.35646">
        <ele>-0.9</ele>
        <time>2020-08-21T10:16:54.000Z</time>
      </trkpt>
      <trkpt lat="47.71164" lon="-3.35646">
        <ele>-0.9</ele>
        <time>2020-08-21T10:16:55.000Z</time>
      </trkpt>
      <trkpt lat="47.71164" lon="-3.35646">
        <ele>-0.9</ele>
        <time>2020-08-21T10:16:56.000Z</time>
      </trkpt>
      <trkpt lat="47.71164" lon="-3.35646">
        <ele>-0.9</ele>
        <time>2020-08-21T10:16:57.000Z</time>
      </trkpt>
      <trkpt lat="47.71164" lon="-3.35646">
        <ele>-0.9</ele>
        <time>2020-08-21T10:16:58.000Z</time>
      </trkpt>
      <trkpt lat="47.71164" lon="-3.35646">
        <ele>-0.9</ele>
        <time>2020-08-21T10:16:59.000Z</time>
      </trkpt>
      <trkpt lat="47.71164" lon="-3.35646">
        <ele>-0.9</ele>
        <time>2020-08-21T10:17:00.000Z</time>
      </trkpt>
      <trkpt lat="47.71164" lon="-3.35646">
        <ele>-0.9</ele>
        <time>2020-08-21T10:17:01.000Z</time>
      </trkpt>
      <trkpt lat="47.71164" lon="-3.35646">
        <ele>-0.9</ele>
        <time>2020-08-21T10:17:02.000Z</time>
      </trkpt>
      <trkpt lat="47.71164" lon="-3.35646">
        <ele>-0.9</ele>
        <time>2020-08-21T10:17:03.000Z</time>
      </trkpt>
      <trkpt lat="47.71164" lon="-3.35646">
        <ele>-0.9</ele>
        <time>2020-08-21T10:17:04.000Z</time>
      </trkpt>
      <trkpt lat="47.71164" lon="-3.35646">
        <ele>-0.9</ele>
        <time>2020-08-21T10:17:05.000Z</time>
      </trkpt>
      <trkpt lat="47.71164" lon="-3.35646">
        <ele>-0.9</ele>
        <time>2020-08-21T10:17:06.000Z</time>
      </trkpt>
      <trkpt lat="47.71164" lon="-3.35646">
        <ele>-0.9</ele>
        <time>2020-08-21T10:17:07.000Z</time>
      </trkpt>
      <trkpt lat="47.71164" lon="-3.35646">
        <ele>-0.9</ele>
        <time>2020-08-21T10:17:08.000Z</time>
      </trkpt>
      <trkpt lat="47.71164" lon="-3.35646">
        <ele>-0.9</ele>
        <time>2020-08-21T10:17:09.000Z</time>
      </trkpt>
      <trkpt lat="47.71164" lon="-3.35646">
        <ele>-0.9</ele>
        <time>2020-08-21T10:17:10.000Z</time>
      </trkpt>
      <trkpt lat="47.71164" lon="-3.35646">
        <ele>-0.9</ele>
        <time>2020-08-21T10:17:11.000Z</time>
      </trkpt>
      <trkpt lat="47.71164" lon="-3.35646">
        <ele>-0.9</ele>
        <time>2020-08-21T10:17:12.000Z</time>
      </trkpt>
      <trkpt lat="47.71164" lon="-3.35646">
        <ele>-0.9</ele>
        <time>2020-08-21T10:17:13.000Z</time>
      </trkpt>
      <trkpt lat="47.71164" lon="-3.35646">
        <ele>-0.9</ele>
        <time>2020-08-21T10:17:14.000Z</time>
      </trkpt>
      <trkpt lat="47.71164" lon="-3.35646">
        <ele>-0.9</ele>
        <time>2020-08-21T10:17:15.000Z</time>
      </trkpt>
      <trkpt lat="47.71164" lon="-3.35646">
        <ele>-0.9</ele>
        <time>2020-08-21T10:17:16.000Z</time>
      </trkpt>
      <trkpt lat="47.71164" lon="-3.35646">
        <ele>-0.9</ele>
        <time>2020-08-21T10:17:17.000Z</time>
      </trkpt>
      <trkpt lat="47.71164" lon="-3.35646">
        <ele>-0.9</ele>
        <time>2020-08-21T10:17:18.000Z</time>
      </trkpt>
      <trkpt lat="47.71164" lon="-3.35646">
        <ele>-0.9</ele>
        <time>2020-08-21T10:17:19.000Z</time>
      </trkpt>
      <trkpt lat="47.71164" lon="-3.35646">
        <ele>-0.9</ele>
        <time>2020-08-21T10:17:20.000Z</time>
      </trkpt>
      <trkpt lat="47.71164" lon="-3.35646">
        <ele>-0.9</ele>
        <time>2020-08-21T10:17:21.000Z</time>
      </trkpt>
      <trkpt lat="47.71164" lon="-3.35646">
        <ele>-0.9</ele>
        <time>2020-08-21T10:17:22.000Z</time>
      </trkpt>
      <trkpt lat="47.71164" lon="-3.35646">
        <ele>-0.9</ele>
        <time>2020-08-21T10:17:23.000Z</time>
      </trkpt>
      <trkpt lat="47.71164" lon="-3.35646">
        <ele>-0.9</ele>
        <time>2020-08-21T10:17:24.000Z</time>
      </trkpt>
      <trkpt lat="47.71164" lon="-3.35646">
        <ele>-0.9</ele>
        <time>2020-08-21T10:17:25.000Z</time>
      </trkpt>
      <trkpt lat="47.71164" lon="-3.35646">
        <ele>-0.9</ele>
        <time>2020-08-21T10:17:26.000Z</time>
      </trkpt>
      <trkpt lat="47.71164" lon="-3.35646">
        <ele>-0.9</ele>
        <time>2020-08-21T10:17:27.000Z</time>
      </trkpt>
      <trkpt lat="47.71164" lon="-3.35646">
        <ele>-0.9</ele>
        <time>2020-08-21T10:17:28.000Z</time>
      </trkpt>
      <trkpt lat="47.71164" lon="-3.35646">
        <ele>-0.9</ele>
        <time>2020-08-21T10:17:29.000Z</time>
      </trkpt>
      <trkpt lat="47.71164" lon="-3.35646">
        <ele>-0.9</ele>
        <time>2020-08-21T10:17:30.000Z</time>
      </trkpt>
      <trkpt lat="47.71164" lon="-3.35646">
        <ele>-0.9</ele>
        <time>2020-08-21T10:17:31.000Z</time>
      </trkpt>
      <trkpt lat="47.71164" lon="-3.35646">
        <ele>-0.9</ele>
        <time>2020-08-21T10:17:32.000Z</time>
      </trkpt>
      <trkpt lat="47.71164" lon="-3.35646">
        <ele>-0.9</ele>
        <time>2020-08-21T10:17:33.000Z</time>
      </trkpt>
      <trkpt lat="47.71164" lon="-3.35646">
        <ele>-0.9</ele>
        <time>2020-08-21T10:17:34.000Z</time>
      </trkpt>
      <trkpt lat="47.71164" lon="-3.35646">
        <ele>-0.9</ele>
        <time>2020-08-21T10:17:35.000Z</time>
      </trkpt>
      <trkpt lat="47.71164" lon="-3.35646">
        <ele>-0.9</ele>
        <time>2020-08-21T10:17:36.000Z</time>
      </trkpt>
      <trkpt lat="47.71164" lon="-3.35646">
        <ele>-0.9</ele>
        <time>2020-08-21T10:17:37.000Z</time>
      </trkpt>
      <trkpt lat="47.71164" lon="-3.35646">
        <ele>-0.9</ele>
        <time>2020-08-21T10:17:38.000Z</time>
      </trkpt>
      <trkpt lat="47.71164" lon="-3.35646">
        <ele>-0.9</ele>
        <time>2020-08-21T10:17:39.000Z</time>
      </trkpt>
      <trkpt lat="47.71164" lon="-3.35646">
        <ele>-0.9</ele>
        <time>2020-08-21T10:17:40.000Z</time>
      </trkpt>
      <trkpt lat="47.71164" lon="-3.35646">
        <ele>-0.9</ele>
        <time>2020-08-21T10:17:41.000Z</time>
      </trkpt>
      <trkpt lat="47.71164" lon="-3.35646">
        <ele>-0.8</ele>
        <time>2020-08-21T10:17:42.000Z</time>
      </trkpt>
      <trkpt lat="47.71164" lon="-3.35646">
        <ele>-0.8</ele>
        <time>2020-08-21T10:17:43.000Z</time>
      </trkpt>
      <trkpt lat="47.71164" lon="-3.35646">
        <ele>-0.8</ele>
        <time>2020-08-21T10:17:44.000Z</time>
      </trkpt>
      <trkpt lat="47.7116" lon="-3.35655">
        <ele>-0.2</ele>
        <time>2020-08-21T10:17:45.000Z</time>
      </trkpt>
      <trkpt lat="47.7116" lon="-3.35657">
        <ele>6</ele>
        <time>2020-08-21T10:17:46.000Z</time>
      </trkpt>
      <trkpt lat="47.7116" lon="-3.35657">
        <ele>6</ele>
        <time>2020-08-21T10:17:47.000Z</time>
      </trkpt>
      <trkpt lat="47.7116" lon="-3.35657">
        <ele>6</ele>
        <time>2020-08-21T10:17:48.000Z</time>
      </trkpt>
      <trkpt lat="47.7116" lon="-3.35657">
        <ele>6</ele>
        <time>2020-08-21T10:17:49.000Z</time>
      </trkpt>
      <trkpt lat="47.7116" lon="-3.35657">
        <ele>6</ele>
        <time>2020-08-21T10:17:50.000Z</time>
      </trkpt>
      <trkpt lat="47.7116" lon="-3.35657">
        <ele>6</ele>
        <time>2020-08-21T10:17:51.000Z</time>
      </trkpt>
      <trkpt lat="47.7116" lon="-3.35657">
        <ele>6</ele>
        <time>2020-08-21T10:17:52.000Z</time>
      </trkpt>
      <trkpt lat="47.7116" lon="-3.35657">
        <ele>6</ele>
        <time>2020-08-21T10:17:53.000Z</time>
      </trkpt>
      <trkpt lat="47.7116" lon="-3.35657">
        <ele>6</ele>
        <time>2020-08-21T10:17:54.000Z</time>
      </trkpt>
      <trkpt lat="47.7116" lon="-3.35657">
        <ele>6</ele>
        <time>2020-08-21T10:17:55.000Z</time>
      </trkpt>
      <trkpt lat="47.7116" lon="-3.35657">
        <ele>6</ele>
        <time>2020-08-21T10:17:56.000Z</time>
      </trkpt>
      <trkpt lat="47.7116" lon="-3.35657">
        <ele>6</ele>
        <time>2020-08-21T10:17:57.000Z</time>
      </trkpt>
      <trkpt lat="47.7116" lon="-3.35657">
        <ele>6</ele>
        <time>2020-08-21T10:17:58.000Z</time>
      </trkpt>
      <trkpt lat="47.7116" lon="-3.35657">
        <ele>6</ele>
        <time>2020-08-21T10:17:59.000Z</time>
      </trkpt>
      <trkpt lat="47.7116" lon="-3.35657">
        <ele>6</ele>
        <time>2020-08-21T10:18:00.000Z</time>
      </trkpt>
      <trkpt lat="47.7116" lon="-3.35657">
        <ele>6</ele>
        <time>2020-08-21T10:18:01.000Z</time>
      </trkpt>
      <trkpt lat="47.7116" lon="-3.35657">
        <ele>6</ele>
        <time>2020-08-21T10:18:02.000Z</time>
      </trkpt>
      <trkpt lat="47.7116" lon="-3.35657">
        <ele>6</ele>
        <time>2020-08-21T10:18:03.000Z</time>
      </trkpt>
      <trkpt lat="47.7116" lon="-3.35657">
        <ele>6</ele>
        <time>2020-08-21T10:18:04.000Z</time>
      </trkpt>
      <trkpt lat="47.7116" lon="-3.35657">
        <ele>6</ele>
        <time>2020-08-21T10:18:05.000Z</time>
      </trkpt>
      <trkpt lat="47.7116" lon="-3.35657">
        <ele>6</ele>
        <time>2020-08-21T10:18:06.000Z</time>
      </trkpt>
      <trkpt lat="47.7116" lon="-3.35657">
        <ele>6</ele>
        <time>2020-08-21T10:18:07.000Z</time>
      </trkpt>
      <trkpt lat="47.7116" lon="-3.35657">
        <ele>6</ele>
        <time>2020-08-21T10:18:08.000Z</time>
      </trkpt>
      <trkpt lat="47.7116" lon="-3.35657">
        <ele>6</ele>
        <time>2020-08-21T10:18:09.000Z</time>
      </trkpt>
      <trkpt lat="47.7116" lon="-3.35657">
        <ele>6</ele>
        <time>2020-08-21T10:18:10.000Z</time>
      </trkpt>
      <trkpt lat="47.7116" lon="-3.35657">
        <ele>6</ele>
        <time>2020-08-21T10:18:11.000Z</time>
      </trkpt>
      <trkpt lat="47.7116" lon="-3.35657">
        <ele>6</ele>
        <time>2020-08-21T10:18:12.000Z</time>
      </trkpt>
      <trkpt lat="47.7116" lon="-3.35657">
        <ele>6</ele>
        <time>2020-08-21T10:18:13.000Z</time>
      </trkpt>
      <trkpt lat="47.7116" lon="-3.35657">
        <ele>6</ele>
        <time>2020-08-21T10:18:14.000Z</time>
      </trkpt>
      <trkpt lat="47.7116" lon="-3.35657">
        <ele>6</ele>
        <time>2020-08-21T10:18:15.000Z</time>
      </trkpt>
      <trkpt lat="47.7116" lon="-3.35657">
        <ele>6</ele>
        <time>2020-08-21T10:18:16.000Z</time>
      </trkpt>
      <trkpt lat="47.7116" lon="-3.35657">
        <ele>6</ele>
        <time>2020-08-21T10:18:17.000Z</time>
      </trkpt>
      <trkpt lat="47.7116" lon="-3.35657">
        <ele>6</ele>
        <time>2020-08-21T10:18:18.000Z</time>
      </trkpt>
      <trkpt lat="47.7116" lon="-3.35657">
        <ele>6</ele>
        <time>2020-08-21T10:18:19.000Z</time>
      </trkpt>
      <trkpt lat="47.7116" lon="-3.35657">
        <ele>6</ele>
        <time>2020-08-21T10:18:20.000Z</time>
      </trkpt>
      <trkpt lat="47.7116" lon="-3.35657">
        <ele>6</ele>
        <time>2020-08-21T10:18:21.000Z</time>
      </trkpt>
      <trkpt lat="47.7116" lon="-3.35657">
        <ele>6</ele>
        <time>2020-08-21T10:18:22.000Z</time>
      </trkpt>
      <trkpt lat="47.7116" lon="-3.35657">
        <ele>6</ele>
        <time>2020-08-21T10:18:23.000Z</time>
      </trkpt>
      <trkpt lat="47.71159" lon="-3.35657">
        <ele>6</ele>
        <time>2020-08-21T10:18:24.000Z</time>
      </trkpt>
      <trkpt lat="47.71159" lon="-3.35657">
        <ele>6</ele>
        <time>2020-08-21T10:18:25.000Z</time>
      </trkpt>
      <trkpt lat="47.71159" lon="-3.35657">
        <ele>6</ele>
        <time>2020-08-21T10:18:26.000Z</time>
      </trkpt>
      <trkpt lat="47.71159" lon="-3.35657">
        <ele>6</ele>
        <time>2020-08-21T10:18:27.000Z</time>
      </trkpt>
      <trkpt lat="47.71159" lon="-3.35657">
        <ele>6</ele>
        <time>2020-08-21T10:18:28.000Z</time>
      </trkpt>
      <trkpt lat="47.71159" lon="-3.35657">
        <ele>6</ele>
        <time>2020-08-21T10:18:29.000Z</time>
      </trkpt>
      <trkpt lat="47.71159" lon="-3.35657">
        <ele>6</ele>
        <time>2020-08-21T10:18:30.000Z</time>
      </trkpt>
      <trkpt lat="47.71159" lon="-3.35657">
        <ele>6</ele>
        <time>2020-08-21T10:18:31.000Z</time>
      </trkpt>
      <trkpt lat="47.71159" lon="-3.35657">
        <ele>6</ele>
        <time>2020-08-21T10:18:32.000Z</time>
      </trkpt>
      <trkpt lat="47.71159" lon="-3.35657">
        <ele>6</ele>
        <time>2020-08-21T10:18:33.000Z</time>
      </trkpt>
      <trkpt lat="47.71159" lon="-3.35657">
        <ele>6</ele>
        <time>2020-08-21T10:18:34.000Z</time>
      </trkpt>
      <trkpt lat="47.71159" lon="-3.35657">
        <ele>6</ele>
        <time>2020-08-21T10:18:35.000Z</time>
      </trkpt>
      <trkpt lat="47.71159" lon="-3.35657">
        <ele>6</ele>
        <time>2020-08-21T10:18:36.000Z</time>
      </trkpt>
      <trkpt lat="47.71159" lon="-3.35657">
        <ele>6</ele>
        <time>2020-08-21T10:18:37.000Z</time>
      </trkpt>
      <trkpt lat="47.71158" lon="-3.35656">
        <ele>0.1</ele>
        <time>2020-08-21T10:18:38.000Z</time>
      </trkpt>
      <trkpt lat="47.71151" lon="-3.35655">
        <ele>0.5</ele>
        <time>2020-08-21T10:18:39.000Z</time>
      </trkpt>
      <trkpt lat="47.7115" lon="-3.35656">
        <ele>0.7</ele>
        <time>2020-08-21T10:18:40.000Z</time>
      </trkpt>
      <trkpt lat="47.71149" lon="-3.35657">
        <ele>0.8</ele>
        <time>2020-08-21T10:18:41.000Z</time>
      </trkpt>
      <trkpt lat="47.71148" lon="-3.35657">
        <ele>0.9</ele>
        <time>2020-08-21T10:18:42.000Z</time>
      </trkpt>
      <trkpt lat="47.71147" lon="-3.35657">
        <ele>0.9</ele>
        <time>2020-08-21T10:18:43.000Z</time>
      </trkpt>
      <trkpt lat="47.71147" lon="-3.35657">
        <ele>0.9</ele>
        <time>2020-08-21T10:18:44.000Z</time>
      </trkpt>
      <trkpt lat="47.71147" lon="-3.35657">
        <ele>0.9</ele>
        <time>2020-08-21T10:18:45.000Z</time>
      </trkpt>
      <trkpt lat="47.71146" lon="-3.35657">
        <ele>1</ele>
        <time>2020-08-21T10:18:46.000Z</time>
      </trkpt>
      <trkpt lat="47.71144" lon="-3.35657">
        <ele>1.1</ele>
        <time>2020-08-21T10:18:47.000Z</time>
      </trkpt>
      <trkpt lat="47.71143" lon="-3.35656">
        <ele>1.1</ele>
        <time>2020-08-21T10:18:48.000Z</time>
      </trkpt>
      <trkpt lat="47.71142" lon="-3.35656">
        <ele>1.2</ele>
        <time>2020-08-21T10:18:49.000Z</time>
      </trkpt>
      <trkpt lat="47.71141" lon="-3.35656">
        <ele>1.3</ele>
        <time>2020-08-21T10:18:50.000Z</time>
      </trkpt>
      <trkpt lat="47.71139" lon="-3.35656">
        <ele>1.4</ele>
        <time>2020-08-21T10:18:51.000Z</time>
      </trkpt>
      <trkpt lat="47.71138" lon="-3.35656">
        <ele>1.4</ele>
        <time>2020-08-21T10:18:52.000Z</time>
      </trkpt>
      <trkpt lat="47.71137" lon="-3.35656">
        <ele>1.5</ele>
        <time>2020-08-21T10:18:53.000Z</time>
      </trkpt>
      <trkpt lat="47.71137" lon="-3.35656">
        <ele>1.5</ele>
        <time>2020-08-21T10:18:54.000Z</time>
      </trkpt>
      <trkpt lat="47.71136" lon="-3.35656">
        <ele>1.6</ele>
        <time>2020-08-21T10:18:55.000Z</time>
      </trkpt>
      <trkpt lat="47.71136" lon="-3.35656">
        <ele>1.6</ele>
        <time>2020-08-21T10:18:56.000Z</time>
      </trkpt>
      <trkpt lat="47.71136" lon="-3.35656">
        <ele>1.6</ele>
        <time>2020-08-21T10:18:57.000Z</time>
      </trkpt>
      <trkpt lat="47.71136" lon="-3.35656">
        <ele>1.6</ele>
        <time>2020-08-21T10:18:58.000Z</time>
      </trkpt>
      <trkpt lat="47.71136" lon="-3.35656">
        <ele>1.6</ele>
        <time>2020-08-21T10:18:59.000Z</time>
      </trkpt>
      <trkpt lat="47.71136" lon="-3.35656">
        <ele>1.6</ele>
        <time>2020-08-21T10:19:00.000Z</time>
      </trkpt>
      <trkpt lat="47.71136" lon="-3.35656">
        <ele>1.6</ele>
        <time>2020-08-21T10:19:01.000Z</time>
      </trkpt>
      <trkpt lat="47.71136" lon="-3.35656">
        <ele>1.6</ele>
        <time>2020-08-21T10:19:02.000Z</time>
      </trkpt>
      <trkpt lat="47.71136" lon="-3.35656">
        <ele>1.6</ele>
        <time>2020-08-21T10:19:03.000Z</time>
      </trkpt>
      <trkpt lat="47.71136" lon="-3.35656">
        <ele>1.6</ele>
        <time>2020-08-21T10:19:04.000Z</time>
      </trkpt>
      <trkpt lat="47.71136" lon="-3.35656">
        <ele>1.6</ele>
        <time>2020-08-21T10:19:05.000Z</time>
      </trkpt>
      <trkpt lat="47.71136" lon="-3.35656">
        <ele>1.6</ele>
        <time>2020-08-21T10:19:06.000Z</time>
      </trkpt>
      <trkpt lat="47.71135" lon="-3.35657">
        <ele>1.7</ele>
        <time>2020-08-21T10:19:07.000Z</time>
      </trkpt>
      <trkpt lat="47.71133" lon="-3.35657">
        <ele>1.9</ele>
        <time>2020-08-21T10:19:08.000Z</time>
      </trkpt>
      <trkpt lat="47.7113" lon="-3.35659">
        <ele>2.2</ele>
        <time>2020-08-21T10:19:09.000Z</time>
      </trkpt>
      <trkpt lat="47.71127" lon="-3.35662">
        <ele>2.6</ele>
        <time>2020-08-21T10:19:10.000Z</time>
      </trkpt>
      <trkpt lat="47.71124" lon="-3.35663">
        <ele>2.8</ele>
        <time>2020-08-21T10:19:11.000Z</time>
      </trkpt>
      <trkpt lat="47.71123" lon="-3.35664">
        <ele>3</ele>
        <time>2020-08-21T10:19:12.000Z</time>
      </trkpt>
      <trkpt lat="47.71123" lon="-3.35664">
        <ele>3</ele>
        <time>2020-08-21T10:19:13.000Z</time>
      </trkpt>
      <trkpt lat="47.71122" lon="-3.35665">
        <ele>3.1</ele>
        <time>2020-08-21T10:19:14.000Z</time>
      </trkpt>
      <trkpt lat="47.71122" lon="-3.35665">
        <ele>3.1</ele>
        <time>2020-08-21T10:19:15.000Z</time>
      </trkpt>
      <trkpt lat="47.71122" lon="-3.35665">
        <ele>3.1</ele>
        <time>2020-08-21T10:19:16.000Z</time>
      </trkpt>
      <trkpt lat="47.71122" lon="-3.35665">
        <ele>3.1</ele>
        <time>2020-08-21T10:19:17.000Z</time>
      </trkpt>
      <trkpt lat="47.71122" lon="-3.35665">
        <ele>3.1</ele>
        <time>2020-08-21T10:19:18.000Z</time>
      </trkpt>
      <trkpt lat="47.71122" lon="-3.35665">
        <ele>3.1</ele>
        <time>2020-08-21T10:19:19.000Z</time>
      </trkpt>
      <trkpt lat="47.71122" lon="-3.35665">
        <ele>3.1</ele>
        <time>2020-08-21T10:19:20.000Z</time>
      </trkpt>
      <trkpt lat="47.71121" lon="-3.35666">
        <ele>3.2</ele>
        <time>2020-08-21T10:19:21.000Z</time>
      </trkpt>
      <trkpt lat="47.71116" lon="-3.35671">
        <ele>6</ele>
        <time>2020-08-21T10:19:22.000Z</time>
      </trkpt>
      <trkpt lat="47.71114" lon="-3.35673">
        <ele>6</ele>
        <time>2020-08-21T10:19:23.000Z</time>
      </trkpt>
      <trkpt lat="47.71113" lon="-3.35674">
        <ele>6</ele>
        <time>2020-08-21T10:19:24.000Z</time>
      </trkpt>
      <trkpt lat="47.71113" lon="-3.35675">
        <ele>6</ele>
        <time>2020-08-21T10:19:25.000Z</time>
      </trkpt>
      <trkpt lat="47.71112" lon="-3.35675">
        <ele>6</ele>
        <time>2020-08-21T10:19:26.000Z</time>
      </trkpt>
      <trkpt lat="47.71112" lon="-3.35675">
        <ele>6</ele>
        <time>2020-08-21T10:19:27.000Z</time>
      </trkpt>
      <trkpt lat="47.71112" lon="-3.35675">
        <ele>6</ele>
        <time>2020-08-21T10:19:28.000Z</time>
      </trkpt>
      <trkpt lat="47.71112" lon="-3.35675">
        <ele>6</ele>
        <time>2020-08-21T10:19:29.000Z</time>
      </trkpt>
      <trkpt lat="47.71112" lon="-3.35675">
        <ele>6</ele>
        <time>2020-08-21T10:19:30.000Z</time>
      </trkpt>
      <trkpt lat="47.71112" lon="-3.35675">
        <ele>6</ele>
        <time>2020-08-21T10:19:31.000Z</time>
      </trkpt>
      <trkpt lat="47.71112" lon="-3.35675">
        <ele>6</ele>
        <time>2020-08-21T10:19:32.000Z</time>
      </trkpt>
      <trkpt lat="47.71112" lon="-3.35675">
        <ele>6</ele>
        <time>2020-08-21T10:19:33.000Z</time>
      </trkpt>
      <trkpt lat="47.71112" lon="-3.35675">
        <ele>6</ele>
        <time>2020-08-21T10:19:34.000Z</time>
      </trkpt>
      <trkpt lat="47.71112" lon="-3.35675">
        <ele>6</ele>
        <time>2020-08-21T10:19:35.000Z</time>
      </trkpt>
      <trkpt lat="47.71112" lon="-3.35675">
        <ele>6</ele>
        <time>2020-08-21T10:19:36.000Z</time>
      </trkpt>
      <trkpt lat="47.71112" lon="-3.35675">
        <ele>6</ele>
        <time>2020-08-21T10:19:37.000Z</time>
      </trkpt>
      <trkpt lat="47.71112" lon="-3.35675">
        <ele>6</ele>
        <time>2020-08-21T10:19:38.000Z</time>
      </trkpt>
      <trkpt lat="47.71112" lon="-3.35675">
        <ele>6</ele>
        <time>2020-08-21T10:19:39.000Z</time>
      </trkpt>
      <trkpt lat="47.71112" lon="-3.35675">
        <ele>6</ele>
        <time>2020-08-21T10:19:40.000Z</time>
      </trkpt>
      <trkpt lat="47.71111" lon="-3.35676">
        <ele>6</ele>
        <time>2020-08-21T10:19:41.000Z</time>
      </trkpt>
      <trkpt lat="47.7111" lon="-3.35676">
        <ele>6</ele>
        <time>2020-08-21T10:19:42.000Z</time>
      </trkpt>
      <trkpt lat="47.71107" lon="-3.35678">
        <ele>6</ele>
        <time>2020-08-21T10:19:43.000Z</time>
      </trkpt>
      <trkpt lat="47.71106" lon="-3.35679">
        <ele>6</ele>
        <time>2020-08-21T10:19:44.000Z</time>
      </trkpt>
      <trkpt lat="47.71104" lon="-3.35679">
        <ele>6</ele>
        <time>2020-08-21T10:19:45.000Z</time>
      </trkpt>
      <trkpt lat="47.71103" lon="-3.3568">
        <ele>6</ele>
        <time>2020-08-21T10:19:46.000Z</time>
      </trkpt>
      <trkpt lat="47.71103" lon="-3.3568">
        <ele>6</ele>
        <time>2020-08-21T10:19:47.000Z</time>
      </trkpt>
      <trkpt lat="47.71103" lon="-3.3568">
        <ele>6</ele>
        <time>2020-08-21T10:19:48.000Z</time>
      </trkpt>
      <trkpt lat="47.71103" lon="-3.3568">
        <ele>6</ele>
        <time>2020-08-21T10:19:49.000Z</time>
      </trkpt>
      <trkpt lat="47.71103" lon="-3.3568">
        <ele>6</ele>
        <time>2020-08-21T10:19:50.000Z</time>
      </trkpt>
      <trkpt lat="47.71103" lon="-3.3568">
        <ele>6</ele>
        <time>2020-08-21T10:19:51.000Z</time>
      </trkpt>
      <trkpt lat="47.71103" lon="-3.3568">
        <ele>6</ele>
        <time>2020-08-21T10:19:52.000Z</time>
      </trkpt>
      <trkpt lat="47.71103" lon="-3.3568">
        <ele>6</ele>
        <time>2020-08-21T10:19:53.000Z</time>
      </trkpt>
      <trkpt lat="47.71103" lon="-3.3568">
        <ele>6</ele>
        <time>2020-08-21T10:19:54.000Z</time>
      </trkpt>
      <trkpt lat="47.71103" lon="-3.3568">
        <ele>6</ele>
        <time>2020-08-21T10:19:55.000Z</time>
      </trkpt>
      <trkpt lat="47.71103" lon="-3.3568">
        <ele>6</ele>
        <time>2020-08-21T10:19:56.000Z</time>
      </trkpt>
      <trkpt lat="47.71103" lon="-3.3568">
        <ele>6</ele>
        <time>2020-08-21T10:19:57.000Z</time>
      </trkpt>
      <trkpt lat="47.71103" lon="-3.3568">
        <ele>6</ele>
        <time>2020-08-21T10:19:58.000Z</time>
      </trkpt>
      <trkpt lat="47.71103" lon="-3.3568">
        <ele>6</ele>
        <time>2020-08-21T10:19:59.000Z</time>
      </trkpt>
      <trkpt lat="47.71103" lon="-3.3568">
        <ele>6</ele>
        <time>2020-08-21T10:20:00.000Z</time>
      </trkpt>
      <trkpt lat="47.71103" lon="-3.3568">
        <ele>6</ele>
        <time>2020-08-21T10:20:01.000Z</time>
      </trkpt>
      <trkpt lat="47.71103" lon="-3.3568">
        <ele>6</ele>
        <time>2020-08-21T10:20:02.000Z</time>
      </trkpt>
      <trkpt lat="47.71103" lon="-3.3568">
        <ele>6</ele>
        <time>2020-08-21T10:20:03.000Z</time>
      </trkpt>
      <trkpt lat="47.71103" lon="-3.3568">
        <ele>6</ele>
        <time>2020-08-21T10:20:04.000Z</time>
      </trkpt>
      <trkpt lat="47.71103" lon="-3.3568">
        <ele>6</ele>
        <time>2020-08-21T10:20:05.000Z</time>
      </trkpt>
      <trkpt lat="47.71103" lon="-3.3568">
        <ele>6</ele>
        <time>2020-08-21T10:20:06.000Z</time>
      </trkpt>
      <trkpt lat="47.71103" lon="-3.3568">
        <ele>6</ele>
        <time>2020-08-21T10:20:07.000Z</time>
      </trkpt>
      <trkpt lat="47.71103" lon="-3.3568">
        <ele>6</ele>
        <time>2020-08-21T10:20:08.000Z</time>
      </trkpt>
      <trkpt lat="47.71103" lon="-3.3568">
        <ele>6</ele>
        <time>2020-08-21T10:20:09.000Z</time>
      </trkpt>
      <trkpt lat="47.71103" lon="-3.3568">
        <ele>6</ele>
        <time>2020-08-21T10:20:10.000Z</time>
      </trkpt>
      <trkpt lat="47.71103" lon="-3.3568">
        <ele>6</ele>
        <time>2020-08-21T10:20:11.000Z</time>
      </trkpt>
      <trkpt lat="47.71103" lon="-3.3568">
        <ele>6</ele>
        <time>2020-08-21T10:20:12.000Z</time>
      </trkpt>
      <trkpt lat="47.71104" lon="-3.35681">
        <ele>6</ele>
        <time>2020-08-21T10:20:13.000Z</time>
      </trkpt>
      <trkpt lat="47.71104" lon="-3.35682">
        <ele>6</ele>
        <time>2020-08-21T10:20:14.000Z</time>
      </trkpt>
      <trkpt lat="47.71105" lon="-3.35683">
        <ele>6</ele>
        <time>2020-08-21T10:20:15.000Z</time>
      </trkpt>
      <trkpt lat="47.71106" lon="-3.35685">
        <ele>6</ele>
        <time>2020-08-21T10:20:16.000Z</time>
      </trkpt>
      <trkpt lat="47.71107" lon="-3.35687">
        <ele>6</ele>
        <time>2020-08-21T10:20:17.000Z</time>
      </trkpt>
      <trkpt lat="47.71107" lon="-3.35688">
        <ele>6</ele>
        <time>2020-08-21T10:20:18.000Z</time>
      </trkpt>
      <trkpt lat="47.71108" lon="-3.3569">
        <ele>6</ele>
        <time>2020-08-21T10:20:19.000Z</time>
      </trkpt>
      <trkpt lat="47.71109" lon="-3.3569">
        <ele>6</ele>
        <time>2020-08-21T10:20:20.000Z</time>
      </trkpt>
      <trkpt lat="47.71109" lon="-3.35691">
        <ele>6</ele>
        <time>2020-08-21T10:20:21.000Z</time>
      </trkpt>
      <trkpt lat="47.71109" lon="-3.35691">
        <ele>6</ele>
        <time>2020-08-21T10:20:22.000Z</time>
      </trkpt>
      <trkpt lat="47.71109" lon="-3.35691">
        <ele>6</ele>
        <time>2020-08-21T10:20:23.000Z</time>
      </trkpt>
      <trkpt lat="47.7111" lon="-3.35691">
        <ele>6</ele>
        <time>2020-08-21T10:20:24.000Z</time>
      </trkpt>
      <trkpt lat="47.7111" lon="-3.35691">
        <ele>6</ele>
        <time>2020-08-21T10:20:25.000Z</time>
      </trkpt>
      <trkpt lat="47.7111" lon="-3.35691">
        <ele>6</ele>
        <time>2020-08-21T10:20:26.000Z</time>
      </trkpt>
      <trkpt lat="47.7111" lon="-3.35691">
        <ele>6</ele>
        <time>2020-08-21T10:20:27.000Z</time>
      </trkpt>
      <trkpt lat="47.7111" lon="-3.35691">
        <ele>6</ele>
        <time>2020-08-21T10:20:28.000Z</time>
      </trkpt>
      <trkpt lat="47.7111" lon="-3.35691">
        <ele>6</ele>
        <time>2020-08-21T10:20:29.000Z</time>
      </trkpt>
      <trkpt lat="47.7111" lon="-3.35691">
        <ele>6</ele>
        <time>2020-08-21T10:20:30.000Z</time>
      </trkpt>
      <trkpt lat="47.7111" lon="-3.35691">
        <ele>6</ele>
        <time>2020-08-21T10:20:31.000Z</time>
      </trkpt>
      <trkpt lat="47.7111" lon="-3.35691">
        <ele>6</ele>
        <time>2020-08-21T10:20:32.000Z</time>
      </trkpt>
      <trkpt lat="47.7111" lon="-3.35691">
        <ele>6</ele>
        <time>2020-08-21T10:20:33.000Z</time>
      </trkpt>
      <trkpt lat="47.7111" lon="-3.35691">
        <ele>6</ele>
        <time>2020-08-21T10:20:34.000Z</time>
      </trkpt>
      <trkpt lat="47.7111" lon="-3.35692">
        <ele>6</ele>
        <time>2020-08-21T10:20:35.000Z</time>
      </trkpt>
      <trkpt lat="47.7111" lon="-3.35693">
        <ele>6</ele>
        <time>2020-08-21T10:20:36.000Z</time>
      </trkpt>
      <trkpt lat="47.71111" lon="-3.35694">
        <ele>6</ele>
        <time>2020-08-21T10:20:37.000Z</time>
      </trkpt>
      <trkpt lat="47.71111" lon="-3.35696">
        <ele>6</ele>
        <time>2020-08-21T10:20:38.000Z</time>
      </trkpt>
      <trkpt lat="47.71112" lon="-3.35699">
        <ele>6</ele>
        <time>2020-08-21T10:20:39.000Z</time>
      </trkpt>
      <trkpt lat="47.71113" lon="-3.35702">
        <ele>6</ele>
        <time>2020-08-21T10:20:40.000Z</time>
      </trkpt>
      <trkpt lat="47.71114" lon="-3.35703">
        <ele>6</ele>
        <time>2020-08-21T10:20:41.000Z</time>
      </trkpt>
      <trkpt lat="47.71115" lon="-3.35704">
        <ele>6</ele>
        <time>2020-08-21T10:20:42.000Z</time>
      </trkpt>
      <trkpt lat="47.71115" lon="-3.35705">
        <ele>6</ele>
        <time>2020-08-21T10:20:43.000Z</time>
      </trkpt>
      <trkpt lat="47.71115" lon="-3.35705">
        <ele>6</ele>
        <time>2020-08-21T10:20:44.000Z</time>
      </trkpt>
      <trkpt lat="47.71115" lon="-3.35705">
        <ele>6</ele>
        <time>2020-08-21T10:20:45.000Z</time>
      </trkpt>
      <trkpt lat="47.71115" lon="-3.35705">
        <ele>6</ele>
        <time>2020-08-21T10:20:46.000Z</time>
      </trkpt>
      <trkpt lat="47.71115" lon="-3.35705">
        <ele>6</ele>
        <time>2020-08-21T10:20:47.000Z</time>
      </trkpt>
      <trkpt lat="47.71115" lon="-3.35705">
        <ele>6</ele>
        <time>2020-08-21T10:20:48.000Z</time>
      </trkpt>
      <trkpt lat="47.71115" lon="-3.35705">
        <ele>6</ele>
        <time>2020-08-21T10:20:49.000Z</time>
      </trkpt>
      <trkpt lat="47.71115" lon="-3.35705">
        <ele>6</ele>
        <time>2020-08-21T10:20:50.000Z</time>
      </trkpt>
      <trkpt lat="47.71115" lon="-3.35705">
        <ele>6</ele>
        <time>2020-08-21T10:20:51.000Z</time>
      </trkpt>
      <trkpt lat="47.71115" lon="-3.35705">
        <ele>6</ele>
        <time>2020-08-21T10:20:52.000Z</time>
      </trkpt>
      <trkpt lat="47.71115" lon="-3.35705">
        <ele>6</ele>
        <time>2020-08-21T10:20:53.000Z</time>
      </trkpt>
      <trkpt lat="47.71115" lon="-3.35705">
        <ele>6</ele>
        <time>2020-08-21T10:20:54.000Z</time>
      </trkpt>
      <trkpt lat="47.71115" lon="-3.35705">
        <ele>6</ele>
        <time>2020-08-21T10:20:55.000Z</time>
      </trkpt>
      <trkpt lat="47.71115" lon="-3.35705">
        <ele>6</ele>
        <time>2020-08-21T10:20:56.000Z</time>
      </trkpt>
      <trkpt lat="47.71115" lon="-3.35705">
        <ele>6</ele>
        <time>2020-08-21T10:20:57.000Z</time>
      </trkpt>
      <trkpt lat="47.71115" lon="-3.35705">
        <ele>6</ele>
        <time>2020-08-21T10:20:58.000Z</time>
      </trkpt>
      <trkpt lat="47.71115" lon="-3.35705">
        <ele>6</ele>
        <time>2020-08-21T10:20:59.000Z</time>
      </trkpt>
      <trkpt lat="47.71115" lon="-3.35705">
        <ele>6</ele>
        <time>2020-08-21T10:21:00.000Z</time>
      </trkpt>
      <trkpt lat="47.71115" lon="-3.35705">
        <ele>6</ele>
        <time>2020-08-21T10:21:01.000Z</time>
      </trkpt>
      <trkpt lat="47.71115" lon="-3.35705">
        <ele>6</ele>
        <time>2020-08-21T10:21:02.000Z</time>
      </trkpt>
      <trkpt lat="47.71115" lon="-3.35705">
        <ele>6</ele>
        <time>2020-08-21T10:21:03.000Z</time>
      </trkpt>
      <trkpt lat="47.71115" lon="-3.35705">
        <ele>6</ele>
        <time>2020-08-21T10:21:04.000Z</time>
      </trkpt>
      <trkpt lat="47.71115" lon="-3.35705">
        <ele>6</ele>
        <time>2020-08-21T10:21:05.000Z</time>
      </trkpt>
      <trkpt lat="47.71115" lon="-3.35705">
        <ele>6</ele>
        <time>2020-08-21T10:21:06.000Z</time>
      </trkpt>
      <trkpt lat="47.71115" lon="-3.35705">
        <ele>6</ele>
        <time>2020-08-21T10:21:07.000Z</time>
      </trkpt>
      <trkpt lat="47.71115" lon="-3.35705">
        <ele>6</ele>
        <time>2020-08-21T10:21:08.000Z</time>
      </trkpt>
      <trkpt lat="47.71115" lon="-3.35705">
        <ele>6</ele>
        <time>2020-08-21T10:21:09.000Z</time>
      </trkpt>
      <trkpt lat="47.71115" lon="-3.35705">
        <ele>6</ele>
        <time>2020-08-21T10:21:10.000Z</time>
      </trkpt>
      <trkpt lat="47.71115" lon="-3.35705">
        <ele>6</ele>
        <time>2020-08-21T10:21:11.000Z</time>
      </trkpt>
      <trkpt lat="47.71115" lon="-3.35705">
        <ele>6</ele>
        <time>2020-08-21T10:21:12.000Z</time>
      </trkpt>
      <trkpt lat="47.71115" lon="-3.35705">
        <ele>6</ele>
        <time>2020-08-21T10:21:13.000Z</time>
      </trkpt>
      <trkpt lat="47.71115" lon="-3.35705">
        <ele>6</ele>
        <time>2020-08-21T10:21:14.000Z</time>
      </trkpt>
      <trkpt lat="47.71115" lon="-3.35705">
        <ele>6</ele>
        <time>2020-08-21T10:21:15.000Z</time>
      </trkpt>
      <trkpt lat="47.71115" lon="-3.35705">
        <ele>6</ele>
        <time>2020-08-21T10:21:16.000Z</time>
      </trkpt>
      <trkpt lat="47.71115" lon="-3.35704">
        <ele>6</ele>
        <time>2020-08-21T10:21:17.000Z</time>
      </trkpt>
      <trkpt lat="47.71115" lon="-3.35704">
        <ele>6</ele>
        <time>2020-08-21T10:21:18.000Z</time>
      </trkpt>
      <trkpt lat="47.71114" lon="-3.35704">
        <ele>6</ele>
        <time>2020-08-21T10:21:19.000Z</time>
      </trkpt>
      <trkpt lat="47.71114" lon="-3.35703">
        <ele>6</ele>
        <time>2020-08-21T10:21:20.000Z</time>
      </trkpt>
      <trkpt lat="47.71114" lon="-3.35702">
        <ele>6</ele>
        <time>2020-08-21T10:21:21.000Z</time>
      </trkpt>
      <trkpt lat="47.71113" lon="-3.35701">
        <ele>6</ele>
        <time>2020-08-21T10:21:22.000Z</time>
      </trkpt>
      <trkpt lat="47.71113" lon="-3.35701">
        <ele>6</ele>
        <time>2020-08-21T10:21:23.000Z</time>
      </trkpt>
      <trkpt lat="47.71113" lon="-3.357">
        <ele>6</ele>
        <time>2020-08-21T10:21:24.000Z</time>
      </trkpt>
      <trkpt lat="47.71113" lon="-3.35698">
        <ele>6</ele>
        <time>2020-08-21T10:21:25.000Z</time>
      </trkpt>
      <trkpt lat="47.71113" lon="-3.35696">
        <ele>6</ele>
        <time>2020-08-21T10:21:26.000Z</time>
      </trkpt>
      <trkpt lat="47.71112" lon="-3.35695">
        <ele>6</ele>
        <time>2020-08-21T10:21:27.000Z</time>
      </trkpt>
      <trkpt lat="47.71112" lon="-3.35694">
        <ele>6</ele>
        <time>2020-08-21T10:21:28.000Z</time>
      </trkpt>
      <trkpt lat="47.71111" lon="-3.35694">
        <ele>6</ele>
        <time>2020-08-21T10:21:29.000Z</time>
      </trkpt>
      <trkpt lat="47.71111" lon="-3.35693">
        <ele>6</ele>
        <time>2020-08-21T10:21:30.000Z</time>
      </trkpt>
      <trkpt lat="47.71111" lon="-3.35693">
        <ele>6</ele>
        <time>2020-08-21T10:21:31.000Z</time>
      </trkpt>
      <trkpt lat="47.71111" lon="-3.35693">
        <ele>6</ele>
        <time>2020-08-21T10:21:32.000Z</time>
      </trkpt>
      <trkpt lat="47.71111" lon="-3.35693">
        <ele>6</ele>
        <time>2020-08-21T10:21:33.000Z</time>
      </trkpt>
      <trkpt lat="47.71111" lon="-3.35693">
        <ele>6</ele>
        <time>2020-08-21T10:21:34.000Z</time>
      </trkpt>
      <trkpt lat="47.71111" lon="-3.35693">
        <ele>6</ele>
        <time>2020-08-21T10:21:35.000Z</time>
      </trkpt>
      <trkpt lat="47.71111" lon="-3.35693">
        <ele>6</ele>
        <time>2020-08-21T10:21:36.000Z</time>
      </trkpt>
      <trkpt lat="47.71111" lon="-3.35693">
        <ele>6</ele>
        <time>2020-08-21T10:21:37.000Z</time>
      </trkpt>
      <trkpt lat="47.71111" lon="-3.35693">
        <ele>6</ele>
        <time>2020-08-21T10:21:38.000Z</time>
      </trkpt>
      <trkpt lat="47.71111" lon="-3.35693">
        <ele>6</ele>
        <time>2020-08-21T10:21:39.000Z</time>
      </trkpt>
      <trkpt lat="47.71111" lon="-3.35693">
        <ele>6</ele>
        <time>2020-08-21T10:21:40.000Z</time>
      </trkpt>
      <trkpt lat="47.71111" lon="-3.35693">
        <ele>6</ele>
        <time>2020-08-21T10:21:41.000Z</time>
      </trkpt>
      <trkpt lat="47.71111" lon="-3.35693">
        <ele>6</ele>
        <time>2020-08-21T10:21:42.000Z</time>
      </trkpt>
      <trkpt lat="47.71111" lon="-3.35693">
        <ele>6</ele>
        <time>2020-08-21T10:21:43.000Z</time>
      </trkpt>
      <trkpt lat="47.71111" lon="-3.35693">
        <ele>6</ele>
        <time>2020-08-21T10:21:44.000Z</time>
      </trkpt>
      <trkpt lat="47.71111" lon="-3.35693">
        <ele>6</ele>
        <time>2020-08-21T10:21:45.000Z</time>
      </trkpt>
      <trkpt lat="47.71111" lon="-3.35693">
        <ele>6</ele>
        <time>2020-08-21T10:21:46.000Z</time>
      </trkpt>
      <trkpt lat="47.71111" lon="-3.35693">
        <ele>6</ele>
        <time>2020-08-21T10:21:47.000Z</time>
      </trkpt>
      <trkpt lat="47.71111" lon="-3.35693">
        <ele>6</ele>
        <time>2020-08-21T10:21:48.000Z</time>
      </trkpt>
      <trkpt lat="47.71111" lon="-3.35693">
        <ele>6</ele>
        <time>2020-08-21T10:21:49.000Z</time>
      </trkpt>
      <trkpt lat="47.71111" lon="-3.35693">
        <ele>6</ele>
        <time>2020-08-21T10:21:50.000Z</time>
      </trkpt>
      <trkpt lat="47.71111" lon="-3.35693">
        <ele>6</ele>
        <time>2020-08-21T10:21:51.000Z</time>
      </trkpt>
      <trkpt lat="47.71111" lon="-3.35693">
        <ele>6</ele>
        <time>2020-08-21T10:21:52.000Z</time>
      </trkpt>
      <trkpt lat="47.71111" lon="-3.35693">
        <ele>6</ele>
        <time>2020-08-21T10:21:53.000Z</time>
      </trkpt>
      <trkpt lat="47.71111" lon="-3.35693">
        <ele>6</ele>
        <time>2020-08-21T10:21:54.000Z</time>
      </trkpt>
      <trkpt lat="47.71111" lon="-3.35693">
        <ele>6</ele>
        <time>2020-08-21T10:21:55.000Z</time>
      </trkpt>
      <trkpt lat="47.71111" lon="-3.35693">
        <ele>6</ele>
        <time>2020-08-21T10:21:56.000Z</time>
      </trkpt>
      <trkpt lat="47.71111" lon="-3.35693">
        <ele>6</ele>
        <time>2020-08-21T10:21:57.000Z</time>
      </trkpt>
      <trkpt lat="47.7111" lon="-3.35693">
        <ele>6</ele>
        <time>2020-08-21T10:21:58.000Z</time>
      </trkpt>
      <trkpt lat="47.71109" lon="-3.35692">
        <ele>6</ele>
        <time>2020-08-21T10:21:59.000Z</time>
      </trkpt>
      <trkpt lat="47.71109" lon="-3.35691">
        <ele>6</ele>
        <time>2020-08-21T10:22:00.000Z</time>
      </trkpt>
      <trkpt lat="47.71108" lon="-3.35691">
        <ele>6</ele>
        <time>2020-08-21T10:22:01.000Z</time>
      </trkpt>
      <trkpt lat="47.71107" lon="-3.35691">
        <ele>6</ele>
        <time>2020-08-21T10:22:02.000Z</time>
      </trkpt>
      <trkpt lat="47.71105" lon="-3.35692">
        <ele>6</ele>
        <time>2020-08-21T10:22:03.000Z</time>
      </trkpt>
      <trkpt lat="47.71104" lon="-3.35693">
        <ele>6</ele>
        <time>2020-08-21T10:22:04.000Z</time>
      </trkpt>
      <trkpt lat="47.71104" lon="-3.35693">
        <ele>6</ele>
        <time>2020-08-21T10:22:05.000Z</time>
      </trkpt>
      <trkpt lat="47.71103" lon="-3.35694">
        <ele>6</ele>
        <time>2020-08-21T10:22:06.000Z</time>
      </trkpt>
      <trkpt lat="47.71103" lon="-3.35694">
        <ele>6</ele>
        <time>2020-08-21T10:22:07.000Z</time>
      </trkpt>
      <trkpt lat="47.71102" lon="-3.35695">
        <ele>6</ele>
        <time>2020-08-21T10:22:08.000Z</time>
      </trkpt>
      <trkpt lat="47.711" lon="-3.35696">
        <ele>6</ele>
        <time>2020-08-21T10:22:09.000Z</time>
      </trkpt>
      <trkpt lat="47.71099" lon="-3.35698">
        <ele>6</ele>
        <time>2020-08-21T10:22:10.000Z</time>
      </trkpt>
      <trkpt lat="47.71097" lon="-3.357">
        <ele>6</ele>
        <time>2020-08-21T10:22:11.000Z</time>
      </trkpt>
      <trkpt lat="47.71096" lon="-3.35701">
        <ele>6</ele>
        <time>2020-08-21T10:22:12.000Z</time>
      </trkpt>
      <trkpt lat="47.71095" lon="-3.35703">
        <ele>6</ele>
        <time>2020-08-21T10:22:13.000Z</time>
      </trkpt>
      <trkpt lat="47.71094" lon="-3.35704">
        <ele>6</ele>
        <time>2020-08-21T10:22:14.000Z</time>
      </trkpt>
      <trkpt lat="47.71094" lon="-3.35704">
        <ele>6</ele>
        <time>2020-08-21T10:22:15.000Z</time>
      </trkpt>
      <trkpt lat="47.71093" lon="-3.35705">
        <ele>6</ele>
        <time>2020-08-21T10:22:16.000Z</time>
      </trkpt>
      <trkpt lat="47.71093" lon="-3.35706">
        <ele>6</ele>
        <time>2020-08-21T10:22:17.000Z</time>
      </trkpt>
      <trkpt lat="47.71092" lon="-3.35708">
        <ele>6</ele>
        <time>2020-08-21T10:22:18.000Z</time>
      </trkpt>
      <trkpt lat="47.71091" lon="-3.3571">
        <ele>7</ele>
        <time>2020-08-21T10:22:19.000Z</time>
      </trkpt>
      <trkpt lat="47.71091" lon="-3.35712">
        <ele>7</ele>
        <time>2020-08-21T10:22:20.000Z</time>
      </trkpt>
      <trkpt lat="47.7109" lon="-3.35716">
        <ele>7</ele>
        <time>2020-08-21T10:22:21.000Z</time>
      </trkpt>
      <trkpt lat="47.7109" lon="-3.35719">
        <ele>7</ele>
        <time>2020-08-21T10:22:22.000Z</time>
      </trkpt>
      <trkpt lat="47.7109" lon="-3.35721">
        <ele>7</ele>
        <time>2020-08-21T10:22:23.000Z</time>
      </trkpt>
      <trkpt lat="47.7109" lon="-3.35721">
        <ele>7</ele>
        <time>2020-08-21T10:22:24.000Z</time>
      </trkpt>
      <trkpt lat="47.7109" lon="-3.35722">
        <ele>7</ele>
        <time>2020-08-21T10:22:25.000Z</time>
      </trkpt>
      <trkpt lat="47.7109" lon="-3.35722">
        <ele>7</ele>
        <time>2020-08-21T10:22:26.000Z</time>
      </trkpt>
      <trkpt lat="47.7109" lon="-3.35722">
        <ele>7</ele>
        <time>2020-08-21T10:22:27.000Z</time>
      </trkpt>
      <trkpt lat="47.7109" lon="-3.35722">
        <ele>7</ele>
        <time>2020-08-21T10:22:28.000Z</time>
      </trkpt>
      <trkpt lat="47.7109" lon="-3.35722">
        <ele>7</ele>
        <time>2020-08-21T10:22:29.000Z</time>
      </trkpt>
      <trkpt lat="47.71089" lon="-3.35722">
        <ele>7</ele>
        <time>2020-08-21T10:22:30.000Z</time>
      </trkpt>
      <trkpt lat="47.71089" lon="-3.35723">
        <ele>7</ele>
        <time>2020-08-21T10:22:31.000Z</time>
      </trkpt>
      <trkpt lat="47.71089" lon="-3.35724">
        <ele>7</ele>
        <time>2020-08-21T10:22:32.000Z</time>
      </trkpt>
      <trkpt lat="47.71088" lon="-3.35726">
        <ele>7</ele>
        <time>2020-08-21T10:22:33.000Z</time>
      </trkpt>
      <trkpt lat="47.71088" lon="-3.3573">
        <ele>7</ele>
        <time>2020-08-21T10:22:34.000Z</time>
      </trkpt>
      <trkpt lat="47.71088" lon="-3.35733">
        <ele>7</ele>
        <time>2020-08-21T10:22:35.000Z</time>
      </trkpt>
      <trkpt lat="47.71088" lon="-3.35735">
        <ele>7</ele>
        <time>2020-08-21T10:22:36.000Z</time>
      </trkpt>
      <trkpt lat="47.71087" lon="-3.35738">
        <ele>7</ele>
        <time>2020-08-21T10:22:37.000Z</time>
      </trkpt>
      <trkpt lat="47.71087" lon="-3.3574">
        <ele>7</ele>
        <time>2020-08-21T10:22:38.000Z</time>
      </trkpt>
      <trkpt lat="47.71086" lon="-3.35742">
        <ele>7</ele>
        <time>2020-08-21T10:22:39.000Z</time>
      </trkpt>
      <trkpt lat="47.71086" lon="-3.35743">
        <ele>7</ele>
        <time>2020-08-21T10:22:40.000Z</time>
      </trkpt>
      <trkpt lat="47.71085" lon="-3.35744">
        <ele>7</ele>
        <time>2020-08-21T10:22:41.000Z</time>
      </trkpt>
      <trkpt lat="47.71085" lon="-3.35745">
        <ele>7</ele>
        <time>2020-08-21T10:22:42.000Z</time>
      </trkpt>
      <trkpt lat="47.71085" lon="-3.35746">
        <ele>7</ele>
        <time>2020-08-21T10:22:43.000Z</time>
      </trkpt>
      <trkpt lat="47.71085" lon="-3.35747">
        <ele>7</ele>
        <time>2020-08-21T10:22:44.000Z</time>
      </trkpt>
      <trkpt lat="47.71085" lon="-3.35747">
        <ele>7</ele>
        <time>2020-08-21T10:22:45.000Z</time>
      </trkpt>
      <trkpt lat="47.71084" lon="-3.35747">
        <ele>7</ele>
        <time>2020-08-21T10:22:46.000Z</time>
      </trkpt>
      <trkpt lat="47.71084" lon="-3.35748">
        <ele>7</ele>
        <time>2020-08-21T10:22:47.000Z</time>
      </trkpt>
      <trkpt lat="47.71084" lon="-3.35748">
        <ele>7</ele>
        <time>2020-08-21T10:22:48.000Z</time>
      </trkpt>
      <trkpt lat="47.71084" lon="-3.35748">
        <ele>7</ele>
        <time>2020-08-21T10:22:49.000Z</time>
      </trkpt>
      <trkpt lat="47.71084" lon="-3.35748">
        <ele>7</ele>
        <time>2020-08-21T10:22:50.000Z</time>
      </trkpt>
      <trkpt lat="47.71084" lon="-3.35748">
        <ele>7</ele>
        <time>2020-08-21T10:22:51.000Z</time>
      </trkpt>
      <trkpt lat="47.71084" lon="-3.35748">
        <ele>7</ele>
        <time>2020-08-21T10:22:52.000Z</time>
      </trkpt>
      <trkpt lat="47.71084" lon="-3.35748">
        <ele>7</ele>
        <time>2020-08-21T10:22:53.000Z</time>
      </trkpt>
      <trkpt lat="47.71084" lon="-3.35748">
        <ele>7</ele>
        <time>2020-08-21T10:22:54.000Z</time>
      </trkpt>
      <trkpt lat="47.71084" lon="-3.35748">
        <ele>7</ele>
        <time>2020-08-21T10:22:55.000Z</time>
      </trkpt>
      <trkpt lat="47.71084" lon="-3.35748">
        <ele>7</ele>
        <time>2020-08-21T10:22:56.000Z</time>
      </trkpt>
      <trkpt lat="47.71084" lon="-3.35749">
        <ele>7</ele>
        <time>2020-08-21T10:22:57.000Z</time>
      </trkpt>
      <trkpt lat="47.71084" lon="-3.35749">
        <ele>7</ele>
        <time>2020-08-21T10:22:58.000Z</time>
      </trkpt>
      <trkpt lat="47.71084" lon="-3.35749">
        <ele>7</ele>
        <time>2020-08-21T10:22:59.000Z</time>
      </trkpt>
      <trkpt lat="47.71084" lon="-3.3575">
        <ele>7</ele>
        <time>2020-08-21T10:23:00.000Z</time>
      </trkpt>
      <trkpt lat="47.71084" lon="-3.35752">
        <ele>7</ele>
        <time>2020-08-21T10:23:01.000Z</time>
      </trkpt>
      <trkpt lat="47.71083" lon="-3.35755">
        <ele>7</ele>
        <time>2020-08-21T10:23:02.000Z</time>
      </trkpt>
      <trkpt lat="47.71083" lon="-3.35757">
        <ele>7</ele>
        <time>2020-08-21T10:23:03.000Z</time>
      </trkpt>
      <trkpt lat="47.71082" lon="-3.35759">
        <ele>7</ele>
        <time>2020-08-21T10:23:04.000Z</time>
      </trkpt>
      <trkpt lat="47.71082" lon="-3.35761">
        <ele>7</ele>
        <time>2020-08-21T10:23:05.000Z</time>
      </trkpt>
      <trkpt lat="47.71081" lon="-3.35762">
        <ele>7</ele>
        <time>2020-08-21T10:23:06.000Z</time>
      </trkpt>
      <trkpt lat="47.71081" lon="-3.35763">
        <ele>7</ele>
        <time>2020-08-21T10:23:07.000Z</time>
      </trkpt>
      <trkpt lat="47.71081" lon="-3.35763">
        <ele>7</ele>
        <time>2020-08-21T10:23:08.000Z</time>
      </trkpt>
      <trkpt lat="47.71081" lon="-3.35764">
        <ele>7</ele>
        <time>2020-08-21T10:23:09.000Z</time>
      </trkpt>
      <trkpt lat="47.71081" lon="-3.35764">
        <ele>7</ele>
        <time>2020-08-21T10:23:10.000Z</time>
      </trkpt>
      <trkpt lat="47.71081" lon="-3.35764">
        <ele>7</ele>
        <time>2020-08-21T10:23:11.000Z</time>
      </trkpt>
      <trkpt lat="47.71081" lon="-3.35764">
        <ele>7</ele>
        <time>2020-08-21T10:23:12.000Z</time>
      </trkpt>
      <trkpt lat="47.71081" lon="-3.35764">
        <ele>7</ele>
        <time>2020-08-21T10:23:13.000Z</time>
      </trkpt>
      <trkpt lat="47.71081" lon="-3.35764">
        <ele>7</ele>
        <time>2020-08-21T10:23:14.000Z</time>
      </trkpt>
      <trkpt lat="47.71081" lon="-3.35764">
        <ele>7</ele>
        <time>2020-08-21T10:23:15.000Z</time>
      </trkpt>
      <trkpt lat="47.71081" lon="-3.35764">
        <ele>7</ele>
        <time>2020-08-21T10:23:16.000Z</time>
      </trkpt>
      <trkpt lat="47.71081" lon="-3.35764">
        <ele>7</ele>
        <time>2020-08-21T10:23:17.000Z</time>
      </trkpt>
      <trkpt lat="47.71081" lon="-3.35764">
        <ele>7</ele>
        <time>2020-08-21T10:23:18.000Z</time>
      </trkpt>
      <trkpt lat="47.71081" lon="-3.35764">
        <ele>7</ele>
        <time>2020-08-21T10:23:19.000Z</time>
      </trkpt>
      <trkpt lat="47.71081" lon="-3.35764">
        <ele>7</ele>
        <time>2020-08-21T10:23:20.000Z</time>
      </trkpt>
      <trkpt lat="47.71081" lon="-3.35765">
        <ele>7</ele>
        <time>2020-08-21T10:23:21.000Z</time>
      </trkpt>
      <trkpt lat="47.71081" lon="-3.35767">
        <ele>7</ele>
        <time>2020-08-21T10:23:22.000Z</time>
      </trkpt>
      <trkpt lat="47.7108" lon="-3.35771">
        <ele>7</ele>
        <time>2020-08-21T10:23:23.000Z</time>
      </trkpt>
      <trkpt lat="47.71079" lon="-3.35774">
        <ele>7</ele>
        <time>2020-08-21T10:23:24.000Z</time>
      </trkpt>
      <trkpt lat="47.71078" lon="-3.35777">
        <ele>7</ele>
        <time>2020-08-21T10:23:25.000Z</time>
      </trkpt>
      <trkpt lat="47.71078" lon="-3.35779">
        <ele>7</ele>
        <time>2020-08-21T10:23:26.000Z</time>
      </trkpt>
      <trkpt lat="47.71077" lon="-3.35781">
        <ele>7</ele>
        <time>2020-08-21T10:23:27.000Z</time>
      </trkpt>
      <trkpt lat="47.71077" lon="-3.35783">
        <ele>7</ele>
        <time>2020-08-21T10:23:28.000Z</time>
      </trkpt>
      <trkpt lat="47.71077" lon="-3.35784">
        <ele>7</ele>
        <time>2020-08-21T10:23:29.000Z</time>
      </trkpt>
      <trkpt lat="47.71076" lon="-3.35785">
        <ele>7</ele>
        <time>2020-08-21T10:23:30.000Z</time>
      </trkpt>
      <trkpt lat="47.71076" lon="-3.35787">
        <ele>7</ele>
        <time>2020-08-21T10:23:31.000Z</time>
      </trkpt>
      <trkpt lat="47.71076" lon="-3.35788">
        <ele>7</ele>
        <time>2020-08-21T10:23:32.000Z</time>
      </trkpt>
      <trkpt lat="47.71075" lon="-3.3579">
        <ele>7</ele>
        <time>2020-08-21T10:23:33.000Z</time>
      </trkpt>
      <trkpt lat="47.71074" lon="-3.35792">
        <ele>7</ele>
        <time>2020-08-21T10:23:34.000Z</time>
      </trkpt>
      <trkpt lat="47.71073" lon="-3.35794">
        <ele>7</ele>
        <time>2020-08-21T10:23:35.000Z</time>
      </trkpt>
      <trkpt lat="47.71073" lon="-3.35796">
        <ele>7</ele>
        <time>2020-08-21T10:23:36.000Z</time>
      </trkpt>
      <trkpt lat="47.71072" lon="-3.35797">
        <ele>7</ele>
        <time>2020-08-21T10:23:37.000Z</time>
      </trkpt>
      <trkpt lat="47.71072" lon="-3.35798">
        <ele>7</ele>
        <time>2020-08-21T10:23:38.000Z</time>
      </trkpt>
      <trkpt lat="47.71072" lon="-3.358">
        <ele>7</ele>
        <time>2020-08-21T10:23:39.000Z</time>
      </trkpt>
      <trkpt lat="47.71071" lon="-3.35802">
        <ele>7</ele>
        <time>2020-08-21T10:23:40.000Z</time>
      </trkpt>
      <trkpt lat="47.71071" lon="-3.35803">
        <ele>7</ele>
        <time>2020-08-21T10:23:41.000Z</time>
      </trkpt>
      <trkpt lat="47.7107" lon="-3.35805">
        <ele>7</ele>
        <time>2020-08-21T10:23:42.000Z</time>
      </trkpt>
      <trkpt lat="47.71069" lon="-3.35807">
        <ele>7</ele>
        <time>2020-08-21T10:23:43.000Z</time>
      </trkpt>
      <trkpt lat="47.71068" lon="-3.35809">
        <ele>7</ele>
        <time>2020-08-21T10:23:44.000Z</time>
      </trkpt>
      <trkpt lat="47.71067" lon="-3.3581">
        <ele>7</ele>
        <time>2020-08-21T10:23:45.000Z</time>
      </trkpt>
      <trkpt lat="47.71066" lon="-3.35811">
        <ele>7</ele>
        <time>2020-08-21T10:23:46.000Z</time>
      </trkpt>
      <trkpt lat="47.71065" lon="-3.35812">
        <ele>7</ele>
        <time>2020-08-21T10:23:47.000Z</time>
      </trkpt>
      <trkpt lat="47.71064" lon="-3.35813">
        <ele>7</ele>
        <time>2020-08-21T10:23:48.000Z</time>
      </trkpt>
      <trkpt lat="47.71064" lon="-3.35814">
        <ele>7</ele>
        <time>2020-08-21T10:23:49.000Z</time>
      </trkpt>
      <trkpt lat="47.71064" lon="-3.35814">
        <ele>5</ele>
        <time>2020-08-21T10:23:50.000Z</time>
      </trkpt>
      <trkpt lat="47.71063" lon="-3.35814">
        <ele>5</ele>
        <time>2020-08-21T10:23:51.000Z</time>
      </trkpt>
      <trkpt lat="47.71063" lon="-3.35814">
        <ele>5</ele>
        <time>2020-08-21T10:23:52.000Z</time>
      </trkpt>
      <trkpt lat="47.71063" lon="-3.35814">
        <ele>5</ele>
        <time>2020-08-21T10:23:53.000Z</time>
      </trkpt>
      <trkpt lat="47.71063" lon="-3.35814">
        <ele>5</ele>
        <time>2020-08-21T10:23:54.000Z</time>
      </trkpt>
      <trkpt lat="47.71063" lon="-3.35814">
        <ele>5</ele>
        <time>2020-08-21T10:23:55.000Z</time>
      </trkpt>
      <trkpt lat="47.71063" lon="-3.35814">
        <ele>5</ele>
        <time>2020-08-21T10:23:56.000Z</time>
      </trkpt>
      <trkpt lat="47.71063" lon="-3.35814">
        <ele>5</ele>
        <time>2020-08-21T10:23:57.000Z</time>
      </trkpt>
      <trkpt lat="47.71063" lon="-3.35814">
        <ele>5</ele>
        <time>2020-08-21T10:23:58.000Z</time>
      </trkpt>
      <trkpt lat="47.71062" lon="-3.35815">
        <ele>5</ele>
        <time>2020-08-21T10:23:59.000Z</time>
      </trkpt>
      <trkpt lat="47.7106" lon="-3.35815">
        <ele>5</ele>
        <time>2020-08-21T10:24:00.000Z</time>
      </trkpt>
      <trkpt lat="47.71059" lon="-3.35815">
        <ele>5</ele>
        <time>2020-08-21T10:24:01.000Z</time>
      </trkpt>
      <trkpt lat="47.71057" lon="-3.35815">
        <ele>5</ele>
        <time>2020-08-21T10:24:02.000Z</time>
      </trkpt>
      <trkpt lat="47.71056" lon="-3.35814">
        <ele>5</ele>
        <time>2020-08-21T10:24:03.000Z</time>
      </trkpt>
      <trkpt lat="47.71054" lon="-3.35814">
        <ele>5</ele>
        <time>2020-08-21T10:24:04.000Z</time>
      </trkpt>
      <trkpt lat="47.71053" lon="-3.35813">
        <ele>5</ele>
        <time>2020-08-21T10:24:05.000Z</time>
      </trkpt>
      <trkpt lat="47.71051" lon="-3.35812">
        <ele>5</ele>
        <time>2020-08-21T10:24:06.000Z</time>
      </trkpt>
      <trkpt lat="47.7105" lon="-3.35812">
        <ele>5</ele>
        <time>2020-08-21T10:24:07.000Z</time>
      </trkpt>
      <trkpt lat="47.71049" lon="-3.35811">
        <ele>5</ele>
        <time>2020-08-21T10:24:08.000Z</time>
      </trkpt>
      <trkpt lat="47.71049" lon="-3.35811">
        <ele>5</ele>
        <time>2020-08-21T10:24:09.000Z</time>
      </trkpt>
      <trkpt lat="47.71048" lon="-3.35811">
        <ele>5</ele>
        <time>2020-08-21T10:24:10.000Z</time>
      </trkpt>
      <trkpt lat="47.71048" lon="-3.3581">
        <ele>5</ele>
        <time>2020-08-21T10:24:11.000Z</time>
      </trkpt>
      <trkpt lat="47.71047" lon="-3.3581">
        <ele>5</ele>
        <time>2020-08-21T10:24:12.000Z</time>
      </trkpt>
      <trkpt lat="47.71047" lon="-3.3581">
        <ele>5</ele>
        <time>2020-08-21T10:24:13.000Z</time>
      </trkpt>
      <trkpt lat="47.71047" lon="-3.3581">
        <ele>5</ele>
        <time>2020-08-21T10:24:14.000Z</time>
      </trkpt>
      <trkpt lat="47.71047" lon="-3.3581">
        <ele>5</ele>
        <time>2020-08-21T10:24:15.000Z</time>
      </trkpt>
      <trkpt lat="47.71047" lon="-3.3581">
        <ele>5</ele>
        <time>2020-08-21T10:24:16.000Z</time>
      </trkpt>
      <trkpt lat="47.71045" lon="-3.3581">
        <ele>5</ele>
        <time>2020-08-21T10:24:17.000Z</time>
      </trkpt>
      <trkpt lat="47.71039" lon="-3.35808">
        <ele>5</ele>
        <time>2020-08-21T10:24:18.000Z</time>
      </trkpt>
      <trkpt lat="47.71038" lon="-3.35808">
        <ele>5</ele>
        <time>2020-08-21T10:24:19.000Z</time>
      </trkpt>
      <trkpt lat="47.71037" lon="-3.35807">
        <ele>5</ele>
        <time>2020-08-21T10:24:20.000Z</time>
      </trkpt>
      <trkpt lat="47.71035" lon="-3.35807">
        <ele>5</ele>
        <time>2020-08-21T10:24:21.000Z</time>
      </trkpt>
      <trkpt lat="47.71034" lon="-3.35807">
        <ele>5</ele>
        <time>2020-08-21T10:24:22.000Z</time>
      </trkpt>
      <trkpt lat="47.71033" lon="-3.35807">
        <ele>5</ele>
        <time>2020-08-21T10:24:23.000Z</time>
      </trkpt>
      <trkpt lat="47.71033" lon="-3.35806">
        <ele>5</ele>
        <time>2020-08-21T10:24:24.000Z</time>
      </trkpt>
      <trkpt lat="47.71032" lon="-3.35806">
        <ele>5</ele>
        <time>2020-08-21T10:24:25.000Z</time>
      </trkpt>
      <trkpt lat="47.71032" lon="-3.35806">
        <ele>5</ele>
        <time>2020-08-21T10:24:26.000Z</time>
      </trkpt>
      <trkpt lat="47.71032" lon="-3.35806">
        <ele>5</ele>
        <time>2020-08-21T10:24:27.000Z</time>
      </trkpt>
      <trkpt lat="47.71032" lon="-3.35806">
        <ele>5</ele>
        <time>2020-08-21T10:24:28.000Z</time>
      </trkpt>
      <trkpt lat="47.71032" lon="-3.35806">
        <ele>5</ele>
        <time>2020-08-21T10:24:29.000Z</time>
      </trkpt>
      <trkpt lat="47.71032" lon="-3.35807">
        <ele>5</ele>
        <time>2020-08-21T10:24:30.000Z</time>
      </trkpt>
      <trkpt lat="47.71031" lon="-3.35807">
        <ele>5</ele>
        <time>2020-08-21T10:24:31.000Z</time>
      </trkpt>
      <trkpt lat="47.71031" lon="-3.35807">
        <ele>5</ele>
        <time>2020-08-21T10:24:32.000Z</time>
      </trkpt>
      <trkpt lat="47.7103" lon="-3.35807">
        <ele>5</ele>
        <time>2020-08-21T10:24:33.000Z</time>
      </trkpt>
      <trkpt lat="47.71029" lon="-3.35808">
        <ele>5</ele>
        <time>2020-08-21T10:24:34.000Z</time>
      </trkpt>
      <trkpt lat="47.71027" lon="-3.35808">
        <ele>5</ele>
        <time>2020-08-21T10:24:35.000Z</time>
      </trkpt>
      <trkpt lat="47.71025" lon="-3.35808">
        <ele>5</ele>
        <time>2020-08-21T10:24:36.000Z</time>
      </trkpt>
      <trkpt lat="47.71023" lon="-3.35808">
        <ele>5</ele>
        <time>2020-08-21T10:24:37.000Z</time>
      </trkpt>
      <trkpt lat="47.71022" lon="-3.35809">
        <ele>5</ele>
        <time>2020-08-21T10:24:38.000Z</time>
      </trkpt>
      <trkpt lat="47.71021" lon="-3.3581">
        <ele>5</ele>
        <time>2020-08-21T10:24:39.000Z</time>
      </trkpt>
      <trkpt lat="47.7102" lon="-3.35811">
        <ele>5</ele>
        <time>2020-08-21T10:24:40.000Z</time>
      </trkpt>
      <trkpt lat="47.71019" lon="-3.35813">
        <ele>5</ele>
        <time>2020-08-21T10:24:41.000Z</time>
      </trkpt>
      <trkpt lat="47.71018" lon="-3.35814">
        <ele>5</ele>
        <time>2020-08-21T10:24:42.000Z</time>
      </trkpt>
      <trkpt lat="47.71017" lon="-3.35816">
        <ele>5</ele>
        <time>2020-08-21T10:24:43.000Z</time>
      </trkpt>
      <trkpt lat="47.71017" lon="-3.35817">
        <ele>5</ele>
        <time>2020-08-21T10:24:44.000Z</time>
      </trkpt>
      <trkpt lat="47.71016" lon="-3.35819">
        <ele>5</ele>
        <time>2020-08-21T10:24:45.000Z</time>
      </trkpt>
      <trkpt lat="47.71015" lon="-3.3582">
        <ele>5</ele>
        <time>2020-08-21T10:24:46.000Z</time>
      </trkpt>
      <trkpt lat="47.71014" lon="-3.35821">
        <ele>5</ele>
        <time>2020-08-21T10:24:47.000Z</time>
      </trkpt>
      <trkpt lat="47.71013" lon="-3.35823">
        <ele>5</ele>
        <time>2020-08-21T10:24:48.000Z</time>
      </trkpt>
      <trkpt lat="47.71012" lon="-3.35824">
        <ele>5</ele>
        <time>2020-08-21T10:24:49.000Z</time>
      </trkpt>
      <trkpt lat="47.71011" lon="-3.35825">
        <ele>5</ele>
        <time>2020-08-21T10:24:50.000Z</time>
      </trkpt>
      <trkpt lat="47.71009" lon="-3.35827">
        <ele>5</ele>
        <time>2020-08-21T10:24:51.000Z</time>
      </trkpt>
      <trkpt lat="47.71008" lon="-3.35828">
        <ele>5</ele>
        <time>2020-08-21T10:24:52.000Z</time>
      </trkpt>
      <trkpt lat="47.71007" lon="-3.3583">
        <ele>5</ele>
        <time>2020-08-21T10:24:53.000Z</time>
      </trkpt>
      <trkpt lat="47.71005" lon="-3.35831">
        <ele>5</ele>
        <time>2020-08-21T10:24:54.000Z</time>
      </trkpt>
      <trkpt lat="47.71004" lon="-3.35832">
        <ele>5</ele>
        <time>2020-08-21T10:24:55.000Z</time>
      </trkpt>
      <trkpt lat="47.71003" lon="-3.35833">
        <ele>5</ele>
        <time>2020-08-21T10:24:56.000Z</time>
      </trkpt>
      <trkpt lat="47.71001" lon="-3.35834">
        <ele>5</ele>
        <time>2020-08-21T10:24:57.000Z</time>
      </trkpt>
      <trkpt lat="47.71" lon="-3.35835">
        <ele>4.9</ele>
        <time>2020-08-21T10:24:58.000Z</time>
      </trkpt>
      <trkpt lat="47.70999" lon="-3.35836">
        <ele>4.9</ele>
        <time>2020-08-21T10:24:59.000Z</time>
      </trkpt>
      <trkpt lat="47.70997" lon="-3.35838">
        <ele>4.8</ele>
        <time>2020-08-21T10:25:00.000Z</time>
      </trkpt>
      <trkpt lat="47.70996" lon="-3.35839">
        <ele>4.7</ele>
        <time>2020-08-21T10:25:01.000Z</time>
      </trkpt>
      <trkpt lat="47.70996" lon="-3.35841">
        <ele>4.6</ele>
        <time>2020-08-21T10:25:02.000Z</time>
      </trkpt>
      <trkpt lat="47.70995" lon="-3.35843">
        <ele>4.5</ele>
        <time>2020-08-21T10:25:03.000Z</time>
      </trkpt>
      <trkpt lat="47.70994" lon="-3.35845">
        <ele>4.4</ele>
        <time>2020-08-21T10:25:04.000Z</time>
      </trkpt>
      <trkpt lat="47.70994" lon="-3.35847">
        <ele>4.4</ele>
        <time>2020-08-21T10:25:05.000Z</time>
      </trkpt>
      <trkpt lat="47.70994" lon="-3.35849">
        <ele>4.3</ele>
        <time>2020-08-21T10:25:06.000Z</time>
      </trkpt>
      <trkpt lat="47.70993" lon="-3.3585">
        <ele>4.2</ele>
        <time>2020-08-21T10:25:07.000Z</time>
      </trkpt>
      <trkpt lat="47.70993" lon="-3.35851">
        <ele>4.1</ele>
        <time>2020-08-21T10:25:08.000Z</time>
      </trkpt>
      <trkpt lat="47.70993" lon="-3.35852">
        <ele>4.1</ele>
        <time>2020-08-21T10:25:09.000Z</time>
      </trkpt>
      <trkpt lat="47.70993" lon="-3.35853">
        <ele>4.1</ele>
        <time>2020-08-21T10:25:10.000Z</time>
      </trkpt>
      <trkpt lat="47.70993" lon="-3.35853">
        <ele>4.1</ele>
        <time>2020-08-21T10:25:11.000Z</time>
      </trkpt>
      <trkpt lat="47.70993" lon="-3.35853">
        <ele>4.1</ele>
        <time>2020-08-21T10:25:12.000Z</time>
      </trkpt>
      <trkpt lat="47.70993" lon="-3.35853">
        <ele>4.1</ele>
        <time>2020-08-21T10:25:13.000Z</time>
      </trkpt>
      <trkpt lat="47.70993" lon="-3.35854">
        <ele>4.1</ele>
        <time>2020-08-21T10:25:14.000Z</time>
      </trkpt>
      <trkpt lat="47.70993" lon="-3.35854">
        <ele>4</ele>
        <time>2020-08-21T10:25:15.000Z</time>
      </trkpt>
      <trkpt lat="47.70993" lon="-3.35855">
        <ele>4</ele>
        <time>2020-08-21T10:25:16.000Z</time>
      </trkpt>
      <trkpt lat="47.70992" lon="-3.35857">
        <ele>3.9</ele>
        <time>2020-08-21T10:25:17.000Z</time>
      </trkpt>
      <trkpt lat="47.70991" lon="-3.35861">
        <ele>3.7</ele>
        <time>2020-08-21T10:25:18.000Z</time>
      </trkpt>
      <trkpt lat="47.70991" lon="-3.35865">
        <ele>3.5</ele>
        <time>2020-08-21T10:25:19.000Z</time>
      </trkpt>
      <trkpt lat="47.7099" lon="-3.35867">
        <ele>3.4</ele>
        <time>2020-08-21T10:25:20.000Z</time>
      </trkpt>
      <trkpt lat="47.7099" lon="-3.35868">
        <ele>3.4</ele>
        <time>2020-08-21T10:25:21.000Z</time>
      </trkpt>
      <trkpt lat="47.7099" lon="-3.35869">
        <ele>3.4</ele>
        <time>2020-08-21T10:25:22.000Z</time>
      </trkpt>
      <trkpt lat="47.70989" lon="-3.35869">
        <ele>3.3</ele>
        <time>2020-08-21T10:25:23.000Z</time>
      </trkpt>
      <trkpt lat="47.70989" lon="-3.3587">
        <ele>3.3</ele>
        <time>2020-08-21T10:25:24.000Z</time>
      </trkpt>
      <trkpt lat="47.70989" lon="-3.35871">
        <ele>3.3</ele>
        <time>2020-08-21T10:25:25.000Z</time>
      </trkpt>
      <trkpt lat="47.70988" lon="-3.35871">
        <ele>3.3</ele>
        <time>2020-08-21T10:25:26.000Z</time>
      </trkpt>
      <trkpt lat="47.70988" lon="-3.35872">
        <ele>3.2</ele>
        <time>2020-08-21T10:25:27.000Z</time>
      </trkpt>
      <trkpt lat="47.70986" lon="-3.35874">
        <ele>3.1</ele>
        <time>2020-08-21T10:25:28.000Z</time>
      </trkpt>
      <trkpt lat="47.70984" lon="-3.35878">
        <ele>3</ele>
        <time>2020-08-21T10:25:29.000Z</time>
      </trkpt>
      <trkpt lat="47.70983" lon="-3.35881">
        <ele>2.8</ele>
        <time>2020-08-21T10:25:30.000Z</time>
      </trkpt>
      <trkpt lat="47.70981" lon="-3.35884">
        <ele>2.7</ele>
        <time>2020-08-21T10:25:31.000Z</time>
      </trkpt>
      <trkpt lat="47.7098" lon="-3.35886">
        <ele>2.6</ele>
        <time>2020-08-21T10:25:32.000Z</time>
      </trkpt>
      <trkpt lat="47.70979" lon="-3.35887">
        <ele>2.6</ele>
        <time>2020-08-21T10:25:33.000Z</time>
      </trkpt>
      <trkpt lat="47.70978" lon="-3.35888">
        <ele>2.6</ele>
        <time>2020-08-21T10:25:34.000Z</time>
      </trkpt>
      <trkpt lat="47.70977" lon="-3.35889">
        <ele>2.5</ele>
        <time>2020-08-21T10:25:35.000Z</time>
      </trkpt>
      <trkpt lat="47.70976" lon="-3.35891">
        <ele>2.4</ele>
        <time>2020-08-21T10:25:36.000Z</time>
      </trkpt>
      <trkpt lat="47.70975" lon="-3.35893">
        <ele>2.4</ele>
        <time>2020-08-21T10:25:37.000Z</time>
      </trkpt>
      <trkpt lat="47.70973" lon="-3.35894">
        <ele>2.3</ele>
        <time>2020-08-21T10:25:38.000Z</time>
      </trkpt>
      <trkpt lat="47.70972" lon="-3.35896">
        <ele>2.2</ele>
        <time>2020-08-21T10:25:39.000Z</time>
      </trkpt>
      <trkpt lat="47.70971" lon="-3.35897">
        <ele>2.2</ele>
        <time>2020-08-21T10:25:40.000Z</time>
      </trkpt>
      <trkpt lat="47.7097" lon="-3.35899">
        <ele>2.2</ele>
        <time>2020-08-21T10:25:41.000Z</time>
      </trkpt>
      <trkpt lat="47.7097" lon="-3.35899">
        <ele>2.1</ele>
        <time>2020-08-21T10:25:42.000Z</time>
      </trkpt>
      <trkpt lat="47.70969" lon="-3.359">
        <ele>2.1</ele>
        <time>2020-08-21T10:25:43.000Z</time>
      </trkpt>
      <trkpt lat="47.70969" lon="-3.359">
        <ele>2.1</ele>
        <time>2020-08-21T10:25:44.000Z</time>
      </trkpt>
      <trkpt lat="47.70969" lon="-3.359">
        <ele>2.1</ele>
        <time>2020-08-21T10:25:45.000Z</time>
      </trkpt>
      <trkpt lat="47.70969" lon="-3.359">
        <ele>2.1</ele>
        <time>2020-08-21T10:25:46.000Z</time>
      </trkpt>
      <trkpt lat="47.70969" lon="-3.35901">
        <ele>2.1</ele>
        <time>2020-08-21T10:25:47.000Z</time>
      </trkpt>
      <trkpt lat="47.70968" lon="-3.35901">
        <ele>2</ele>
        <time>2020-08-21T10:25:48.000Z</time>
      </trkpt>
      <trkpt lat="47.70967" lon="-3.35903">
        <ele>2</ele>
        <time>2020-08-21T10:25:49.000Z</time>
      </trkpt>
      <trkpt lat="47.70966" lon="-3.35906">
        <ele>1.9</ele>
        <time>2020-08-21T10:25:50.000Z</time>
      </trkpt>
      <trkpt lat="47.70964" lon="-3.35909">
        <ele>1.8</ele>
        <time>2020-08-21T10:25:51.000Z</time>
      </trkpt>
      <trkpt lat="47.70963" lon="-3.35911">
        <ele>1.7</ele>
        <time>2020-08-21T10:25:52.000Z</time>
      </trkpt>
      <trkpt lat="47.70961" lon="-3.35913">
        <ele>1.6</ele>
        <time>2020-08-21T10:25:53.000Z</time>
      </trkpt>
      <trkpt lat="47.7096" lon="-3.35915">
        <ele>1.5</ele>
        <time>2020-08-21T10:25:54.000Z</time>
      </trkpt>
      <trkpt lat="47.70959" lon="-3.35917">
        <ele>1</ele>
        <time>2020-08-21T10:25:55.000Z</time>
      </trkpt>
      <trkpt lat="47.70958" lon="-3.35918">
        <ele>2</ele>
        <time>2020-08-21T10:25:56.000Z</time>
      </trkpt>
      <trkpt lat="47.70957" lon="-3.35919">
        <ele>2</ele>
        <time>2020-08-21T10:25:57.000Z</time>
      </trkpt>
      <trkpt lat="47.70956" lon="-3.3592">
        <ele>2</ele>
        <time>2020-08-21T10:25:58.000Z</time>
      </trkpt>
      <trkpt lat="47.70956" lon="-3.35921">
        <ele>2</ele>
        <time>2020-08-21T10:25:59.000Z</time>
      </trkpt>
      <trkpt lat="47.70955" lon="-3.35921">
        <ele>2</ele>
        <time>2020-08-21T10:26:00.000Z</time>
      </trkpt>
      <trkpt lat="47.70955" lon="-3.35921">
        <ele>2</ele>
        <time>2020-08-21T10:26:01.000Z</time>
      </trkpt>
      <trkpt lat="47.70955" lon="-3.35921">
        <ele>2</ele>
        <time>2020-08-21T10:26:02.000Z</time>
      </trkpt>
      <trkpt lat="47.70955" lon="-3.35921">
        <ele>2</ele>
        <time>2020-08-21T10:26:03.000Z</time>
      </trkpt>
      <trkpt lat="47.70955" lon="-3.35921">
        <ele>2</ele>
        <time>2020-08-21T10:26:04.000Z</time>
      </trkpt>
      <trkpt lat="47.70955" lon="-3.35921">
        <ele>2</ele>
        <time>2020-08-21T10:26:05.000Z</time>
      </trkpt>
      <trkpt lat="47.70955" lon="-3.35922">
        <ele>2</ele>
        <time>2020-08-21T10:26:06.000Z</time>
      </trkpt>
      <trkpt lat="47.70955" lon="-3.35922">
        <ele>2</ele>
        <time>2020-08-21T10:26:07.000Z</time>
      </trkpt>
      <trkpt lat="47.70955" lon="-3.35922">
        <ele>2</ele>
        <time>2020-08-21T10:26:08.000Z</time>
      </trkpt>
      <trkpt lat="47.70954" lon="-3.35923">
        <ele>2</ele>
        <time>2020-08-21T10:26:09.000Z</time>
      </trkpt>
      <trkpt lat="47.70954" lon="-3.35924">
        <ele>2</ele>
        <time>2020-08-21T10:26:10.000Z</time>
      </trkpt>
      <trkpt lat="47.70951" lon="-3.35928">
        <ele>2</ele>
        <time>2020-08-21T10:26:11.000Z</time>
      </trkpt>
      <trkpt lat="47.7095" lon="-3.3593">
        <ele>2</ele>
        <time>2020-08-21T10:26:12.000Z</time>
      </trkpt>
      <trkpt lat="47.70948" lon="-3.35932">
        <ele>2</ele>
        <time>2020-08-21T10:26:13.000Z</time>
      </trkpt>
      <trkpt lat="47.70947" lon="-3.35933">
        <ele>2</ele>
        <time>2020-08-21T10:26:14.000Z</time>
      </trkpt>
      <trkpt lat="47.70945" lon="-3.35935">
        <ele>2</ele>
        <time>2020-08-21T10:26:15.000Z</time>
      </trkpt>
      <trkpt lat="47.70944" lon="-3.35937">
        <ele>2</ele>
        <time>2020-08-21T10:26:16.000Z</time>
      </trkpt>
      <trkpt lat="47.70943" lon="-3.35938">
        <ele>2</ele>
        <time>2020-08-21T10:26:17.000Z</time>
      </trkpt>
      <trkpt lat="47.70942" lon="-3.35939">
        <ele>2</ele>
        <time>2020-08-21T10:26:18.000Z</time>
      </trkpt>
      <trkpt lat="47.70941" lon="-3.35941">
        <ele>2</ele>
        <time>2020-08-21T10:26:19.000Z</time>
      </trkpt>
      <trkpt lat="47.70939" lon="-3.35942">
        <ele>2</ele>
        <time>2020-08-21T10:26:20.000Z</time>
      </trkpt>
      <trkpt lat="47.70938" lon="-3.35943">
        <ele>2</ele>
        <time>2020-08-21T10:26:21.000Z</time>
      </trkpt>
      <trkpt lat="47.70937" lon="-3.35945">
        <ele>2</ele>
        <time>2020-08-21T10:26:22.000Z</time>
      </trkpt>
      <trkpt lat="47.70936" lon="-3.35946">
        <ele>2</ele>
        <time>2020-08-21T10:26:23.000Z</time>
      </trkpt>
      <trkpt lat="47.70935" lon="-3.35947">
        <ele>2</ele>
        <time>2020-08-21T10:26:24.000Z</time>
      </trkpt>
      <trkpt lat="47.70934" lon="-3.35948">
        <ele>2</ele>
        <time>2020-08-21T10:26:25.000Z</time>
      </trkpt>
      <trkpt lat="47.70933" lon="-3.3595">
        <ele>2</ele>
        <time>2020-08-21T10:26:26.000Z</time>
      </trkpt>
      <trkpt lat="47.70932" lon="-3.35951">
        <ele>2</ele>
        <time>2020-08-21T10:26:27.000Z</time>
      </trkpt>
      <trkpt lat="47.70931" lon="-3.35952">
        <ele>2</ele>
        <time>2020-08-21T10:26:28.000Z</time>
      </trkpt>
      <trkpt lat="47.7093" lon="-3.35954">
        <ele>2</ele>
        <time>2020-08-21T10:26:29.000Z</time>
      </trkpt>
      <trkpt lat="47.70929" lon="-3.35955">
        <ele>2</ele>
        <time>2020-08-21T10:26:30.000Z</time>
      </trkpt>
      <trkpt lat="47.70928" lon="-3.35956">
        <ele>2</ele>
        <time>2020-08-21T10:26:31.000Z</time>
      </trkpt>
      <trkpt lat="47.70927" lon="-3.35958">
        <ele>2</ele>
        <time>2020-08-21T10:26:32.000Z</time>
      </trkpt>
      <trkpt lat="47.70926" lon="-3.35959">
        <ele>1.7</ele>
        <time>2020-08-21T10:26:33.000Z</time>
      </trkpt>
      <trkpt lat="47.70925" lon="-3.35961">
        <ele>1.7</ele>
        <time>2020-08-21T10:26:34.000Z</time>
      </trkpt>
      <trkpt lat="47.70924" lon="-3.35962">
        <ele>1.7</ele>
        <time>2020-08-21T10:26:35.000Z</time>
      </trkpt>
      <trkpt lat="47.70922" lon="-3.35963">
        <ele>1.7</ele>
        <time>2020-08-21T10:26:36.000Z</time>
      </trkpt>
      <trkpt lat="47.70921" lon="-3.35965">
        <ele>1.7</ele>
        <time>2020-08-21T10:26:37.000Z</time>
      </trkpt>
      <trkpt lat="47.7092" lon="-3.35966">
        <ele>1.7</ele>
        <time>2020-08-21T10:26:38.000Z</time>
      </trkpt>
      <trkpt lat="47.70919" lon="-3.35968">
        <ele>1.7</ele>
        <time>2020-08-21T10:26:39.000Z</time>
      </trkpt>
      <trkpt lat="47.70918" lon="-3.35969">
        <ele>1.7</ele>
        <time>2020-08-21T10:26:40.000Z</time>
      </trkpt>
      <trkpt lat="47.70917" lon="-3.3597">
        <ele>1.6</ele>
        <time>2020-08-21T10:26:41.000Z</time>
      </trkpt>
      <trkpt lat="47.70916" lon="-3.35971">
        <ele>0.7</ele>
        <time>2020-08-21T10:26:42.000Z</time>
      </trkpt>
      <trkpt lat="47.70915" lon="-3.35972">
        <ele>0.7</ele>
        <time>2020-08-21T10:26:43.000Z</time>
      </trkpt>
      <trkpt lat="47.70915" lon="-3.35973">
        <ele>0.7</ele>
        <time>2020-08-21T10:26:44.000Z</time>
      </trkpt>
      <trkpt lat="47.70914" lon="-3.35974">
        <ele>0.7</ele>
        <time>2020-08-21T10:26:45.000Z</time>
      </trkpt>
      <trkpt lat="47.70913" lon="-3.35975">
        <ele>0.7</ele>
        <time>2020-08-21T10:26:46.000Z</time>
      </trkpt>
      <trkpt lat="47.70913" lon="-3.35975">
        <ele>0.7</ele>
        <time>2020-08-21T10:26:47.000Z</time>
      </trkpt>
      <trkpt lat="47.70912" lon="-3.35976">
        <ele>0.7</ele>
        <time>2020-08-21T10:26:48.000Z</time>
      </trkpt>
      <trkpt lat="47.70911" lon="-3.35977">
        <ele>0.7</ele>
        <time>2020-08-21T10:26:49.000Z</time>
      </trkpt>
      <trkpt lat="47.7091" lon="-3.35978">
        <ele>0.7</ele>
        <time>2020-08-21T10:26:50.000Z</time>
      </trkpt>
      <trkpt lat="47.70909" lon="-3.35979">
        <ele>0.7</ele>
        <time>2020-08-21T10:26:51.000Z</time>
      </trkpt>
      <trkpt lat="47.70908" lon="-3.35981">
        <ele>0.7</ele>
        <time>2020-08-21T10:26:52.000Z</time>
      </trkpt>
      <trkpt lat="47.70907" lon="-3.35982">
        <ele>0.6</ele>
        <time>2020-08-21T10:26:53.000Z</time>
      </trkpt>
      <trkpt lat="47.70906" lon="-3.35984">
        <ele>0.6</ele>
        <time>2020-08-21T10:26:54.000Z</time>
      </trkpt>
      <trkpt lat="47.70905" lon="-3.35985">
        <ele>0.6</ele>
        <time>2020-08-21T10:26:55.000Z</time>
      </trkpt>
      <trkpt lat="47.70904" lon="-3.35987">
        <ele>0.6</ele>
        <time>2020-08-21T10:26:56.000Z</time>
      </trkpt>
      <trkpt lat="47.70903" lon="-3.35988">
        <ele>0.6</ele>
        <time>2020-08-21T10:26:57.000Z</time>
      </trkpt>
      <trkpt lat="47.70902" lon="-3.35989">
        <ele>0.6</ele>
        <time>2020-08-21T10:26:58.000Z</time>
      </trkpt>
      <trkpt lat="47.709" lon="-3.35991">
        <ele>0.6</ele>
        <time>2020-08-21T10:26:59.000Z</time>
      </trkpt>
      <trkpt lat="47.70899" lon="-3.35992">
        <ele>0.6</ele>
        <time>2020-08-21T10:27:00.000Z</time>
      </trkpt>
      <trkpt lat="47.70898" lon="-3.35993">
        <ele>0.6</ele>
        <time>2020-08-21T10:27:01.000Z</time>
      </trkpt>
      <trkpt lat="47.70897" lon="-3.35994">
        <ele>0.6</ele>
        <time>2020-08-21T10:27:02.000Z</time>
      </trkpt>
      <trkpt lat="47.70896" lon="-3.35996">
        <ele>0.6</ele>
        <time>2020-08-21T10:27:03.000Z</time>
      </trkpt>
      <trkpt lat="47.70895" lon="-3.35996">
        <ele>0.6</ele>
        <time>2020-08-21T10:27:04.000Z</time>
      </trkpt>
      <trkpt lat="47.70894" lon="-3.35997">
        <ele>0.6</ele>
        <time>2020-08-21T10:27:05.000Z</time>
      </trkpt>
      <trkpt lat="47.70893" lon="-3.35998">
        <ele>0.6</ele>
        <time>2020-08-21T10:27:06.000Z</time>
      </trkpt>
      <trkpt lat="47.70893" lon="-3.35998">
        <ele>0.6</ele>
        <time>2020-08-21T10:27:07.000Z</time>
      </trkpt>
      <trkpt lat="47.70893" lon="-3.35999">
        <ele>0.6</ele>
        <time>2020-08-21T10:27:08.000Z</time>
      </trkpt>
      <trkpt lat="47.70893" lon="-3.35999">
        <ele>0.6</ele>
        <time>2020-08-21T10:27:09.000Z</time>
      </trkpt>
      <trkpt lat="47.70892" lon="-3.35999">
        <ele>0.6</ele>
        <time>2020-08-21T10:27:10.000Z</time>
      </trkpt>
      <trkpt lat="47.70892" lon="-3.36">
        <ele>0.6</ele>
        <time>2020-08-21T10:27:11.000Z</time>
      </trkpt>
      <trkpt lat="47.70891" lon="-3.36001">
        <ele>0.6</ele>
        <time>2020-08-21T10:27:12.000Z</time>
      </trkpt>
      <trkpt lat="47.7089" lon="-3.36002">
        <ele>0.7</ele>
        <time>2020-08-21T10:27:13.000Z</time>
      </trkpt>
      <trkpt lat="47.70889" lon="-3.36004">
        <ele>0.7</ele>
        <time>2020-08-21T10:27:14.000Z</time>
      </trkpt>
      <trkpt lat="47.70888" lon="-3.36005">
        <ele>0.8</ele>
        <time>2020-08-21T10:27:15.000Z</time>
      </trkpt>
      <trkpt lat="47.70887" lon="-3.36006">
        <ele>0.8</ele>
        <time>2020-08-21T10:27:16.000Z</time>
      </trkpt>
      <trkpt lat="47.70886" lon="-3.36007">
        <ele>0.9</ele>
        <time>2020-08-21T10:27:17.000Z</time>
      </trkpt>
      <trkpt lat="47.70886" lon="-3.36007">
        <ele>0.9</ele>
        <time>2020-08-21T10:27:18.000Z</time>
      </trkpt>
      <trkpt lat="47.70886" lon="-3.36007">
        <ele>0.9</ele>
        <time>2020-08-21T10:27:19.000Z</time>
      </trkpt>
      <trkpt lat="47.70885" lon="-3.36008">
        <ele>0.9</ele>
        <time>2020-08-21T10:27:20.000Z</time>
      </trkpt>
      <trkpt lat="47.70884" lon="-3.36009">
        <ele>1</ele>
        <time>2020-08-21T10:27:21.000Z</time>
      </trkpt>
      <trkpt lat="47.70881" lon="-3.36012">
        <ele>1.1</ele>
        <time>2020-08-21T10:27:22.000Z</time>
      </trkpt>
      <trkpt lat="47.70879" lon="-3.36015">
        <ele>1.2</ele>
        <time>2020-08-21T10:27:23.000Z</time>
      </trkpt>
      <trkpt lat="47.70877" lon="-3.36016">
        <ele>1.2</ele>
        <time>2020-08-21T10:27:24.000Z</time>
      </trkpt>
      <trkpt lat="47.70876" lon="-3.36018">
        <ele>1.3</ele>
        <time>2020-08-21T10:27:25.000Z</time>
      </trkpt>
      <trkpt lat="47.70875" lon="-3.36019">
        <ele>1.3</ele>
        <time>2020-08-21T10:27:26.000Z</time>
      </trkpt>
      <trkpt lat="47.70874" lon="-3.3602">
        <ele>1.4</ele>
        <time>2020-08-21T10:27:27.000Z</time>
      </trkpt>
      <trkpt lat="47.70872" lon="-3.36021">
        <ele>1.4</ele>
        <time>2020-08-21T10:27:28.000Z</time>
      </trkpt>
      <trkpt lat="47.70872" lon="-3.36023">
        <ele>1.5</ele>
        <time>2020-08-21T10:27:29.000Z</time>
      </trkpt>
      <trkpt lat="47.70871" lon="-3.36024">
        <ele>1.5</ele>
        <time>2020-08-21T10:27:30.000Z</time>
      </trkpt>
      <trkpt lat="47.7087" lon="-3.36025">
        <ele>1.6</ele>
        <time>2020-08-21T10:27:31.000Z</time>
      </trkpt>
      <trkpt lat="47.70869" lon="-3.36026">
        <ele>1.6</ele>
        <time>2020-08-21T10:27:32.000Z</time>
      </trkpt>
      <trkpt lat="47.70868" lon="-3.36027">
        <ele>1.6</ele>
        <time>2020-08-21T10:27:33.000Z</time>
      </trkpt>
      <trkpt lat="47.70867" lon="-3.36028">
        <ele>1.7</ele>
        <time>2020-08-21T10:27:34.000Z</time>
      </trkpt>
      <trkpt lat="47.70866" lon="-3.3603">
        <ele>1.7</ele>
        <time>2020-08-21T10:27:35.000Z</time>
      </trkpt>
      <trkpt lat="47.70865" lon="-3.36031">
        <ele>1.7</ele>
        <time>2020-08-21T10:27:36.000Z</time>
      </trkpt>
      <trkpt lat="47.70864" lon="-3.36032">
        <ele>1.8</ele>
        <time>2020-08-21T10:27:37.000Z</time>
      </trkpt>
      <trkpt lat="47.70863" lon="-3.36033">
        <ele>1.8</ele>
        <time>2020-08-21T10:27:38.000Z</time>
      </trkpt>
      <trkpt lat="47.70863" lon="-3.36034">
        <ele>1.8</ele>
        <time>2020-08-21T10:27:39.000Z</time>
      </trkpt>
      <trkpt lat="47.70862" lon="-3.36035">
        <ele>1.9</ele>
        <time>2020-08-21T10:27:40.000Z</time>
      </trkpt>
      <trkpt lat="47.70862" lon="-3.36035">
        <ele>1.9</ele>
        <time>2020-08-21T10:27:41.000Z</time>
      </trkpt>
      <trkpt lat="47.70861" lon="-3.36035">
        <ele>1.9</ele>
        <time>2020-08-21T10:27:42.000Z</time>
      </trkpt>
      <trkpt lat="47.70861" lon="-3.36035">
        <ele>1.9</ele>
        <time>2020-08-21T10:27:43.000Z</time>
      </trkpt>
      <trkpt lat="47.70861" lon="-3.36035">
        <ele>1.9</ele>
        <time>2020-08-21T10:27:44.000Z</time>
      </trkpt>
      <trkpt lat="47.70861" lon="-3.36035">
        <ele>1.9</ele>
        <time>2020-08-21T10:27:45.000Z</time>
      </trkpt>
      <trkpt lat="47.7086" lon="-3.36036">
        <ele>1.9</ele>
        <time>2020-08-21T10:27:46.000Z</time>
      </trkpt>
      <trkpt lat="47.70859" lon="-3.36037">
        <ele>2</ele>
        <time>2020-08-21T10:27:47.000Z</time>
      </trkpt>
      <trkpt lat="47.70858" lon="-3.36039">
        <ele>2</ele>
        <time>2020-08-21T10:27:48.000Z</time>
      </trkpt>
      <trkpt lat="47.70857" lon="-3.3604">
        <ele>2</ele>
        <time>2020-08-21T10:27:49.000Z</time>
      </trkpt>
      <trkpt lat="47.70856" lon="-3.36041">
        <ele>2.1</ele>
        <time>2020-08-21T10:27:50.000Z</time>
      </trkpt>
      <trkpt lat="47.70855" lon="-3.36042">
        <ele>2.1</ele>
        <time>2020-08-21T10:27:51.000Z</time>
      </trkpt>
      <trkpt lat="47.70854" lon="-3.36043">
        <ele>2.1</ele>
        <time>2020-08-21T10:27:52.000Z</time>
      </trkpt>
      <trkpt lat="47.70916" lon="-3.36245">
        <ele>4.9</ele>
        <time>2020-08-21T12:47:43.000Z</time>
      </trkpt>
      <trkpt lat="47.70916" lon="-3.36245">
        <ele>4.9</ele>
        <time>2020-08-21T12:47:43.000Z</time>
      </trkpt>
      <trkpt lat="47.70916" lon="-3.36244">
        <ele>4.8</ele>
        <time>2020-08-21T12:47:44.000Z</time>
      </trkpt>
      <trkpt lat="47.70915" lon="-3.36243">
        <ele>4.7</ele>
        <time>2020-08-21T12:47:45.000Z</time>
      </trkpt>
      <trkpt lat="47.70915" lon="-3.36242">
        <ele>4.7</ele>
        <time>2020-08-21T12:47:46.000Z</time>
      </trkpt>
      <trkpt lat="47.70915" lon="-3.3624">
        <ele>4.6</ele>
        <time>2020-08-21T12:47:47.000Z</time>
      </trkpt>
      <trkpt lat="47.70914" lon="-3.36239">
        <ele>4.6</ele>
        <time>2020-08-21T12:47:48.000Z</time>
      </trkpt>
      <trkpt lat="47.70914" lon="-3.36238">
        <ele>4.5</ele>
        <time>2020-08-21T12:47:49.000Z</time>
      </trkpt>
      <trkpt lat="47.70914" lon="-3.36237">
        <ele>4.5</ele>
        <time>2020-08-21T12:47:50.000Z</time>
      </trkpt>
      <trkpt lat="47.70913" lon="-3.36235">
        <ele>4.4</ele>
        <time>2020-08-21T12:47:51.000Z</time>
      </trkpt>
      <trkpt lat="47.70913" lon="-3.36234">
        <ele>4.4</ele>
        <time>2020-08-21T12:47:52.000Z</time>
      </trkpt>
      <trkpt lat="47.70913" lon="-3.36233">
        <ele>4.3</ele>
        <time>2020-08-21T12:47:53.000Z</time>
      </trkpt>
      <trkpt lat="47.70913" lon="-3.36231">
        <ele>4.3</ele>
        <time>2020-08-21T12:47:54.000Z</time>
      </trkpt>
      <trkpt lat="47.70912" lon="-3.3623">
        <ele>4.3</ele>
        <time>2020-08-21T12:47:55.000Z</time>
      </trkpt>
      <trkpt lat="47.70912" lon="-3.36228">
        <ele>4.2</ele>
        <time>2020-08-21T12:47:56.000Z</time>
      </trkpt>
      <trkpt lat="47.70912" lon="-3.36227">
        <ele>4.2</ele>
        <time>2020-08-21T12:47:57.000Z</time>
      </trkpt>
      <trkpt lat="47.70912" lon="-3.36225">
        <ele>4.1</ele>
        <time>2020-08-21T12:47:58.000Z</time>
      </trkpt>
      <trkpt lat="47.70912" lon="-3.36224">
        <ele>4.1</ele>
        <time>2020-08-21T12:47:59.000Z</time>
      </trkpt>
      <trkpt lat="47.70912" lon="-3.36223">
        <ele>4.1</ele>
        <time>2020-08-21T12:48:00.000Z</time>
      </trkpt>
      <trkpt lat="47.70912" lon="-3.36221">
        <ele>4</ele>
        <time>2020-08-21T12:48:01.000Z</time>
      </trkpt>
      <trkpt lat="47.70912" lon="-3.3622">
        <ele>4</ele>
        <time>2020-08-21T12:48:02.000Z</time>
      </trkpt>
      <trkpt lat="47.70912" lon="-3.36218">
        <ele>4</ele>
        <time>2020-08-21T12:48:03.000Z</time>
      </trkpt>
      <trkpt lat="47.70911" lon="-3.36217">
        <ele>3.9</ele>
        <time>2020-08-21T12:48:04.000Z</time>
      </trkpt>
      <trkpt lat="47.70911" lon="-3.36215">
        <ele>3.9</ele>
        <time>2020-08-21T12:48:05.000Z</time>
      </trkpt>
      <trkpt lat="47.70911" lon="-3.36214">
        <ele>3.9</ele>
        <time>2020-08-21T12:48:06.000Z</time>
      </trkpt>
      <trkpt lat="47.70911" lon="-3.36212">
        <ele>3.8</ele>
        <time>2020-08-21T12:48:07.000Z</time>
      </trkpt>
      <trkpt lat="47.70911" lon="-3.36211">
        <ele>3.8</ele>
        <time>2020-08-21T12:48:08.000Z</time>
      </trkpt>
      <trkpt lat="47.70911" lon="-3.36209">
        <ele>3.8</ele>
        <time>2020-08-21T12:48:09.000Z</time>
      </trkpt>
      <trkpt lat="47.70911" lon="-3.36208">
        <ele>3.7</ele>
        <time>2020-08-21T12:48:10.000Z</time>
      </trkpt>
      <trkpt lat="47.70911" lon="-3.36206">
        <ele>3.7</ele>
        <time>2020-08-21T12:48:11.000Z</time>
      </trkpt>
      <trkpt lat="47.70911" lon="-3.36205">
        <ele>3.7</ele>
        <time>2020-08-21T12:48:12.000Z</time>
      </trkpt>
      <trkpt lat="47.70911" lon="-3.36203">
        <ele>3.6</ele>
        <time>2020-08-21T12:48:13.000Z</time>
      </trkpt>
      <trkpt lat="47.70911" lon="-3.36202">
        <ele>3.6</ele>
        <time>2020-08-21T12:48:14.000Z</time>
      </trkpt>
      <trkpt lat="47.70911" lon="-3.36201">
        <ele>3.6</ele>
        <time>2020-08-21T12:48:15.000Z</time>
      </trkpt>
      <trkpt lat="47.70911" lon="-3.36199">
        <ele>3.5</ele>
        <time>2020-08-21T12:48:16.000Z</time>
      </trkpt>
      <trkpt lat="47.70911" lon="-3.36198">
        <ele>3.5</ele>
        <time>2020-08-21T12:48:17.000Z</time>
      </trkpt>
      <trkpt lat="47.70911" lon="-3.36196">
        <ele>3.5</ele>
        <time>2020-08-21T12:48:18.000Z</time>
      </trkpt>
      <trkpt lat="47.7091" lon="-3.36195">
        <ele>3.4</ele>
        <time>2020-08-21T12:48:19.000Z</time>
      </trkpt>
      <trkpt lat="47.7091" lon="-3.36194">
        <ele>3.4</ele>
        <time>2020-08-21T12:48:20.000Z</time>
      </trkpt>
      <trkpt lat="47.7091" lon="-3.36192">
        <ele>3.4</ele>
        <time>2020-08-21T12:48:21.000Z</time>
      </trkpt>
      <trkpt lat="47.7091" lon="-3.36191">
        <ele>3.3</ele>
        <time>2020-08-21T12:48:22.000Z</time>
      </trkpt>
      <trkpt lat="47.7091" lon="-3.36189">
        <ele>3.3</ele>
        <time>2020-08-21T12:48:23.000Z</time>
      </trkpt>
      <trkpt lat="47.7091" lon="-3.36188">
        <ele>3.3</ele>
        <time>2020-08-21T12:48:24.000Z</time>
      </trkpt>
      <trkpt lat="47.7091" lon="-3.36186">
        <ele>3.2</ele>
        <time>2020-08-21T12:48:25.000Z</time>
      </trkpt>
      <trkpt lat="47.7091" lon="-3.36185">
        <ele>3.2</ele>
        <time>2020-08-21T12:48:26.000Z</time>
      </trkpt>
      <trkpt lat="47.7091" lon="-3.36183">
        <ele>3.2</ele>
        <time>2020-08-21T12:48:27.000Z</time>
      </trkpt>
      <trkpt lat="47.7091" lon="-3.36182">
        <ele>3.1</ele>
        <time>2020-08-21T12:48:28.000Z</time>
      </trkpt>
      <trkpt lat="47.7091" lon="-3.3618">
        <ele>3.1</ele>
        <time>2020-08-21T12:48:29.000Z</time>
      </trkpt>
      <trkpt lat="47.7091" lon="-3.36179">
        <ele>3.1</ele>
        <time>2020-08-21T12:48:30.000Z</time>
      </trkpt>
      <trkpt lat="47.7091" lon="-3.36177">
        <ele>3</ele>
        <time>2020-08-21T12:48:31.000Z</time>
      </trkpt>
      <trkpt lat="47.70909" lon="-3.36175">
        <ele>3</ele>
        <time>2020-08-21T12:48:32.000Z</time>
      </trkpt>
      <trkpt lat="47.70909" lon="-3.36174">
        <ele>3</ele>
        <time>2020-08-21T12:48:33.000Z</time>
      </trkpt>
      <trkpt lat="47.70909" lon="-3.36172">
        <ele>2.9</ele>
        <time>2020-08-21T12:48:34.000Z</time>
      </trkpt>
      <trkpt lat="47.70909" lon="-3.3617">
        <ele>2.9</ele>
        <time>2020-08-21T12:48:35.000Z</time>
      </trkpt>
      <trkpt lat="47.70909" lon="-3.36168">
        <ele>2.9</ele>
        <time>2020-08-21T12:48:36.000Z</time>
      </trkpt>
      <trkpt lat="47.70909" lon="-3.36167">
        <ele>2.8</ele>
        <time>2020-08-21T12:48:37.000Z</time>
      </trkpt>
      <trkpt lat="47.70909" lon="-3.36165">
        <ele>2.8</ele>
        <time>2020-08-21T12:48:38.000Z</time>
      </trkpt>
      <trkpt lat="47.70909" lon="-3.36163">
        <ele>2.8</ele>
        <time>2020-08-21T12:48:39.000Z</time>
      </trkpt>
      <trkpt lat="47.70909" lon="-3.36162">
        <ele>2.8</ele>
        <time>2020-08-21T12:48:40.000Z</time>
      </trkpt>
      <trkpt lat="47.70909" lon="-3.3616">
        <ele>2.8</ele>
        <time>2020-08-21T12:48:41.000Z</time>
      </trkpt>
      <trkpt lat="47.70909" lon="-3.36158">
        <ele>2.7</ele>
        <time>2020-08-21T12:48:42.000Z</time>
      </trkpt>
      <trkpt lat="47.70909" lon="-3.36157">
        <ele>2.7</ele>
        <time>2020-08-21T12:48:43.000Z</time>
      </trkpt>
      <trkpt lat="47.70908" lon="-3.36155">
        <ele>2.7</ele>
        <time>2020-08-21T12:48:44.000Z</time>
      </trkpt>
      <trkpt lat="47.70908" lon="-3.36154">
        <ele>2.7</ele>
        <time>2020-08-21T12:48:45.000Z</time>
      </trkpt>
      <trkpt lat="47.70908" lon="-3.36152">
        <ele>2.7</ele>
        <time>2020-08-21T12:48:46.000Z</time>
      </trkpt>
      <trkpt lat="47.70908" lon="-3.36151">
        <ele>2.7</ele>
        <time>2020-08-21T12:48:47.000Z</time>
      </trkpt>
      <trkpt lat="47.70908" lon="-3.36149">
        <ele>2.7</ele>
        <time>2020-08-21T12:48:48.000Z</time>
      </trkpt>
      <trkpt lat="47.70909" lon="-3.36148">
        <ele>2.6</ele>
        <time>2020-08-21T12:48:49.000Z</time>
      </trkpt>
      <trkpt lat="47.70909" lon="-3.36146">
        <ele>2.6</ele>
        <time>2020-08-21T12:48:50.000Z</time>
      </trkpt>
      <trkpt lat="47.70909" lon="-3.36145">
        <ele>2.6</ele>
        <time>2020-08-21T12:48:51.000Z</time>
      </trkpt>
      <trkpt lat="47.70909" lon="-3.36143">
        <ele>2.6</ele>
        <time>2020-08-21T12:48:52.000Z</time>
      </trkpt>
      <trkpt lat="47.7091" lon="-3.36142">
        <ele>2.6</ele>
        <time>2020-08-21T12:48:53.000Z</time>
      </trkpt>
      <trkpt lat="47.7091" lon="-3.36141">
        <ele>2.6</ele>
        <time>2020-08-21T12:48:54.000Z</time>
      </trkpt>
      <trkpt lat="47.7091" lon="-3.36139">
        <ele>2.6</ele>
        <time>2020-08-21T12:48:55.000Z</time>
      </trkpt>
      <trkpt lat="47.70911" lon="-3.36138">
        <ele>2.6</ele>
        <time>2020-08-21T12:48:56.000Z</time>
      </trkpt>
      <trkpt lat="47.70911" lon="-3.36136">
        <ele>2.6</ele>
        <time>2020-08-21T12:48:57.000Z</time>
      </trkpt>
      <trkpt lat="47.70912" lon="-3.36135">
        <ele>2.6</ele>
        <time>2020-08-21T12:48:58.000Z</time>
      </trkpt>
      <trkpt lat="47.70912" lon="-3.36134">
        <ele>2.6</ele>
        <time>2020-08-21T12:48:59.000Z</time>
      </trkpt>
      <trkpt lat="47.70912" lon="-3.36132">
        <ele>2.5</ele>
        <time>2020-08-21T12:49:00.000Z</time>
      </trkpt>
      <trkpt lat="47.70913" lon="-3.36131">
        <ele>2.5</ele>
        <time>2020-08-21T12:49:01.000Z</time>
      </trkpt>
      <trkpt lat="47.70913" lon="-3.36129">
        <ele>2.5</ele>
        <time>2020-08-21T12:49:02.000Z</time>
      </trkpt>
      <trkpt lat="47.70914" lon="-3.36128">
        <ele>2.5</ele>
        <time>2020-08-21T12:49:03.000Z</time>
      </trkpt>
      <trkpt lat="47.70914" lon="-3.36126">
        <ele>2.5</ele>
        <time>2020-08-21T12:49:04.000Z</time>
      </trkpt>
      <trkpt lat="47.70914" lon="-3.36125">
        <ele>2.5</ele>
        <time>2020-08-21T12:49:05.000Z</time>
      </trkpt>
      <trkpt lat="47.70914" lon="-3.36123">
        <ele>2.5</ele>
        <time>2020-08-21T12:49:06.000Z</time>
      </trkpt>
      <trkpt lat="47.70915" lon="-3.36121">
        <ele>2.4</ele>
        <time>2020-08-21T12:49:07.000Z</time>
      </trkpt>
      <trkpt lat="47.70915" lon="-3.3612">
        <ele>2.4</ele>
        <time>2020-08-21T12:49:08.000Z</time>
      </trkpt>
      <trkpt lat="47.70915" lon="-3.36118">
        <ele>2.4</ele>
        <time>2020-08-21T12:49:09.000Z</time>
      </trkpt>
      <trkpt lat="47.70915" lon="-3.36117">
        <ele>2.4</ele>
        <time>2020-08-21T12:49:10.000Z</time>
      </trkpt>
      <trkpt lat="47.70915" lon="-3.36115">
        <ele>2.4</ele>
        <time>2020-08-21T12:49:11.000Z</time>
      </trkpt>
      <trkpt lat="47.70915" lon="-3.36114">
        <ele>2.4</ele>
        <time>2020-08-21T12:49:12.000Z</time>
      </trkpt>
      <trkpt lat="47.70915" lon="-3.36112">
        <ele>2.3</ele>
        <time>2020-08-21T12:49:13.000Z</time>
      </trkpt>
      <trkpt lat="47.70914" lon="-3.36111">
        <ele>2.3</ele>
        <time>2020-08-21T12:49:14.000Z</time>
      </trkpt>
      <trkpt lat="47.70914" lon="-3.3611">
        <ele>2.3</ele>
        <time>2020-08-21T12:49:15.000Z</time>
      </trkpt>
      <trkpt lat="47.70914" lon="-3.36108">
        <ele>2.3</ele>
        <time>2020-08-21T12:49:16.000Z</time>
      </trkpt>
      <trkpt lat="47.70914" lon="-3.36107">
        <ele>2.3</ele>
        <time>2020-08-21T12:49:17.000Z</time>
      </trkpt>
      <trkpt lat="47.70913" lon="-3.36105">
        <ele>2.3</ele>
        <time>2020-08-21T12:49:18.000Z</time>
      </trkpt>
      <trkpt lat="47.70913" lon="-3.36104">
        <ele>2.3</ele>
        <time>2020-08-21T12:49:19.000Z</time>
      </trkpt>
      <trkpt lat="47.70913" lon="-3.36103">
        <ele>2.2</ele>
        <time>2020-08-21T12:49:20.000Z</time>
      </trkpt>
      <trkpt lat="47.70913" lon="-3.36102">
        <ele>2.2</ele>
        <time>2020-08-21T12:49:21.000Z</time>
      </trkpt>
      <trkpt lat="47.70912" lon="-3.361">
        <ele>2.2</ele>
        <time>2020-08-21T12:49:22.000Z</time>
      </trkpt>
      <trkpt lat="47.70912" lon="-3.36099">
        <ele>2.2</ele>
        <time>2020-08-21T12:49:23.000Z</time>
      </trkpt>
      <trkpt lat="47.70912" lon="-3.36098">
        <ele>2.2</ele>
        <time>2020-08-21T12:49:24.000Z</time>
      </trkpt>
      <trkpt lat="47.70912" lon="-3.36097">
        <ele>2.2</ele>
        <time>2020-08-21T12:49:25.000Z</time>
      </trkpt>
      <trkpt lat="47.70912" lon="-3.36095">
        <ele>2.2</ele>
        <time>2020-08-21T12:49:26.000Z</time>
      </trkpt>
      <trkpt lat="47.70912" lon="-3.36094">
        <ele>2.2</ele>
        <time>2020-08-21T12:49:27.000Z</time>
      </trkpt>
      <trkpt lat="47.70912" lon="-3.36093">
        <ele>2.2</ele>
        <time>2020-08-21T12:49:28.000Z</time>
      </trkpt>
      <trkpt lat="47.70912" lon="-3.36091">
        <ele>2.1</ele>
        <time>2020-08-21T12:49:29.000Z</time>
      </trkpt>
      <trkpt lat="47.70912" lon="-3.3609">
        <ele>2.1</ele>
        <time>2020-08-21T12:49:30.000Z</time>
      </trkpt>
      <trkpt lat="47.70912" lon="-3.36088">
        <ele>2.1</ele>
        <time>2020-08-21T12:49:31.000Z</time>
      </trkpt>
      <trkpt lat="47.70912" lon="-3.36087">
        <ele>2.1</ele>
        <time>2020-08-21T12:49:32.000Z</time>
      </trkpt>
      <trkpt lat="47.70912" lon="-3.36085">
        <ele>2.1</ele>
        <time>2020-08-21T12:49:33.000Z</time>
      </trkpt>
      <trkpt lat="47.70912" lon="-3.36084">
        <ele>2.1</ele>
        <time>2020-08-21T12:49:34.000Z</time>
      </trkpt>
      <trkpt lat="47.70912" lon="-3.36082">
        <ele>2</ele>
        <time>2020-08-21T12:49:35.000Z</time>
      </trkpt>
      <trkpt lat="47.70912" lon="-3.36081">
        <ele>2</ele>
        <time>2020-08-21T12:49:36.000Z</time>
      </trkpt>
      <trkpt lat="47.70912" lon="-3.36079">
        <ele>2</ele>
        <time>2020-08-21T12:49:37.000Z</time>
      </trkpt>
      <trkpt lat="47.70913" lon="-3.36078">
        <ele>1.9</ele>
        <time>2020-08-21T12:49:38.000Z</time>
      </trkpt>
      <trkpt lat="47.70913" lon="-3.36076">
        <ele>1.9</ele>
        <time>2020-08-21T12:49:39.000Z</time>
      </trkpt>
      <trkpt lat="47.70913" lon="-3.36074">
        <ele>1.8</ele>
        <time>2020-08-21T12:49:40.000Z</time>
      </trkpt>
      <trkpt lat="47.70913" lon="-3.36073">
        <ele>1.8</ele>
        <time>2020-08-21T12:49:41.000Z</time>
      </trkpt>
      <trkpt lat="47.70914" lon="-3.36071">
        <ele>1.8</ele>
        <time>2020-08-21T12:49:42.000Z</time>
      </trkpt>
      <trkpt lat="47.70914" lon="-3.3607">
        <ele>1.7</ele>
        <time>2020-08-21T12:49:43.000Z</time>
      </trkpt>
      <trkpt lat="47.70914" lon="-3.36068">
        <ele>1.7</ele>
        <time>2020-08-21T12:49:44.000Z</time>
      </trkpt>
      <trkpt lat="47.70915" lon="-3.36067">
        <ele>1.6</ele>
        <time>2020-08-21T12:49:45.000Z</time>
      </trkpt>
      <trkpt lat="47.70915" lon="-3.36065">
        <ele>1.6</ele>
        <time>2020-08-21T12:49:46.000Z</time>
      </trkpt>
      <trkpt lat="47.70915" lon="-3.36064">
        <ele>1.6</ele>
        <time>2020-08-21T12:49:47.000Z</time>
      </trkpt>
      <trkpt lat="47.70916" lon="-3.36062">
        <ele>1.5</ele>
        <time>2020-08-21T12:49:48.000Z</time>
      </trkpt>
      <trkpt lat="47.70916" lon="-3.36061">
        <ele>1.5</ele>
        <time>2020-08-21T12:49:49.000Z</time>
      </trkpt>
      <trkpt lat="47.70916" lon="-3.36059">
        <ele>1.4</ele>
        <time>2020-08-21T12:49:50.000Z</time>
      </trkpt>
      <trkpt lat="47.70917" lon="-3.36058">
        <ele>1.4</ele>
        <time>2020-08-21T12:49:51.000Z</time>
      </trkpt>
      <trkpt lat="47.70917" lon="-3.36057">
        <ele>2</ele>
        <time>2020-08-21T12:49:52.000Z</time>
      </trkpt>
      <trkpt lat="47.70917" lon="-3.36055">
        <ele>2</ele>
        <time>2020-08-21T12:49:53.000Z</time>
      </trkpt>
      <trkpt lat="47.70918" lon="-3.36054">
        <ele>2</ele>
        <time>2020-08-21T12:49:54.000Z</time>
      </trkpt>
      <trkpt lat="47.70918" lon="-3.36053">
        <ele>2</ele>
        <time>2020-08-21T12:49:55.000Z</time>
      </trkpt>
      <trkpt lat="47.70919" lon="-3.36051">
        <ele>2</ele>
        <time>2020-08-21T12:49:56.000Z</time>
      </trkpt>
      <trkpt lat="47.70919" lon="-3.3605">
        <ele>2</ele>
        <time>2020-08-21T12:49:57.000Z</time>
      </trkpt>
      <trkpt lat="47.7092" lon="-3.36049">
        <ele>2</ele>
        <time>2020-08-21T12:49:58.000Z</time>
      </trkpt>
      <trkpt lat="47.7092" lon="-3.36048">
        <ele>2</ele>
        <time>2020-08-21T12:49:59.000Z</time>
      </trkpt>
      <trkpt lat="47.7092" lon="-3.36047">
        <ele>2</ele>
        <time>2020-08-21T12:50:00.000Z</time>
      </trkpt>
      <trkpt lat="47.70921" lon="-3.36045">
        <ele>2</ele>
        <time>2020-08-21T12:50:01.000Z</time>
      </trkpt>
      <trkpt lat="47.70921" lon="-3.36044">
        <ele>2</ele>
        <time>2020-08-21T12:50:02.000Z</time>
      </trkpt>
      <trkpt lat="47.70922" lon="-3.36043">
        <ele>2</ele>
        <time>2020-08-21T12:50:03.000Z</time>
      </trkpt>
      <trkpt lat="47.70922" lon="-3.36042">
        <ele>2</ele>
        <time>2020-08-21T12:50:04.000Z</time>
      </trkpt>
      <trkpt lat="47.70923" lon="-3.36041">
        <ele>2</ele>
        <time>2020-08-21T12:50:05.000Z</time>
      </trkpt>
      <trkpt lat="47.70923" lon="-3.36039">
        <ele>2</ele>
        <time>2020-08-21T12:50:06.000Z</time>
      </trkpt>
      <trkpt lat="47.70923" lon="-3.36038">
        <ele>2</ele>
        <time>2020-08-21T12:50:07.000Z</time>
      </trkpt>
      <trkpt lat="47.70924" lon="-3.36037">
        <ele>2</ele>
        <time>2020-08-21T12:50:08.000Z</time>
      </trkpt>
      <trkpt lat="47.70924" lon="-3.36036">
        <ele>2</ele>
        <time>2020-08-21T12:50:09.000Z</time>
      </trkpt>
      <trkpt lat="47.70924" lon="-3.36034">
        <ele>2</ele>
        <time>2020-08-21T12:50:10.000Z</time>
      </trkpt>
      <trkpt lat="47.70925" lon="-3.36033">
        <ele>2</ele>
        <time>2020-08-21T12:50:11.000Z</time>
      </trkpt>
      <trkpt lat="47.70925" lon="-3.36031">
        <ele>2</ele>
        <time>2020-08-21T12:50:12.000Z</time>
      </trkpt>
      <trkpt lat="47.70925" lon="-3.3603">
        <ele>2</ele>
        <time>2020-08-21T12:50:13.000Z</time>
      </trkpt>
      <trkpt lat="47.70926" lon="-3.36029">
        <ele>2</ele>
        <time>2020-08-21T12:50:14.000Z</time>
      </trkpt>
      <trkpt lat="47.70926" lon="-3.36027">
        <ele>2</ele>
        <time>2020-08-21T12:50:15.000Z</time>
      </trkpt>
      <trkpt lat="47.70926" lon="-3.36026">
        <ele>2</ele>
        <time>2020-08-21T12:50:16.000Z</time>
      </trkpt>
      <trkpt lat="47.70927" lon="-3.36024">
        <ele>2</ele>
        <time>2020-08-21T12:50:17.000Z</time>
      </trkpt>
      <trkpt lat="47.70927" lon="-3.36023">
        <ele>2</ele>
        <time>2020-08-21T12:50:18.000Z</time>
      </trkpt>
      <trkpt lat="47.70928" lon="-3.36021">
        <ele>2</ele>
        <time>2020-08-21T12:50:19.000Z</time>
      </trkpt>
      <trkpt lat="47.70928" lon="-3.3602">
        <ele>2</ele>
        <time>2020-08-21T12:50:20.000Z</time>
      </trkpt>
      <trkpt lat="47.70928" lon="-3.36018">
        <ele>2</ele>
        <time>2020-08-21T12:50:21.000Z</time>
      </trkpt>
      <trkpt lat="47.70929" lon="-3.36017">
        <ele>2</ele>
        <time>2020-08-21T12:50:22.000Z</time>
      </trkpt>
      <trkpt lat="47.70929" lon="-3.36015">
        <ele>2</ele>
        <time>2020-08-21T12:50:23.000Z</time>
      </trkpt>
      <trkpt lat="47.7093" lon="-3.36014">
        <ele>2</ele>
        <time>2020-08-21T12:50:24.000Z</time>
      </trkpt>
      <trkpt lat="47.70931" lon="-3.36012">
        <ele>2</ele>
        <time>2020-08-21T12:50:25.000Z</time>
      </trkpt>
      <trkpt lat="47.70931" lon="-3.36011">
        <ele>2</ele>
        <time>2020-08-21T12:50:26.000Z</time>
      </trkpt>
      <trkpt lat="47.70932" lon="-3.36009">
        <ele>2</ele>
        <time>2020-08-21T12:50:27.000Z</time>
      </trkpt>
      <trkpt lat="47.70932" lon="-3.36008">
        <ele>2</ele>
        <time>2020-08-21T12:50:28.000Z</time>
      </trkpt>
      <trkpt lat="47.70933" lon="-3.36006">
        <ele>2</ele>
        <time>2020-08-21T12:50:29.000Z</time>
      </trkpt>
      <trkpt lat="47.70934" lon="-3.36005">
        <ele>2</ele>
        <time>2020-08-21T12:50:30.000Z</time>
      </trkpt>
      <trkpt lat="47.70934" lon="-3.36004">
        <ele>2</ele>
        <time>2020-08-21T12:50:31.000Z</time>
      </trkpt>
      <trkpt lat="47.70935" lon="-3.36002">
        <ele>2</ele>
        <time>2020-08-21T12:50:32.000Z</time>
      </trkpt>
      <trkpt lat="47.70936" lon="-3.36001">
        <ele>2</ele>
        <time>2020-08-21T12:50:33.000Z</time>
      </trkpt>
      <trkpt lat="47.70936" lon="-3.35999">
        <ele>1.6</ele>
        <time>2020-08-21T12:50:34.000Z</time>
      </trkpt>
      <trkpt lat="47.70937" lon="-3.35998">
        <ele>1.6</ele>
        <time>2020-08-21T12:50:35.000Z</time>
      </trkpt>
      <trkpt lat="47.70937" lon="-3.35997">
        <ele>1.6</ele>
        <time>2020-08-21T12:50:36.000Z</time>
      </trkpt>
      <trkpt lat="47.70938" lon="-3.35995">
        <ele>1.6</ele>
        <time>2020-08-21T12:50:37.000Z</time>
      </trkpt>
      <trkpt lat="47.70938" lon="-3.35994">
        <ele>1.6</ele>
        <time>2020-08-21T12:50:38.000Z</time>
      </trkpt>
      <trkpt lat="47.70939" lon="-3.35993">
        <ele>1.6</ele>
        <time>2020-08-21T12:50:39.000Z</time>
      </trkpt>
      <trkpt lat="47.70939" lon="-3.35991">
        <ele>1.6</ele>
        <time>2020-08-21T12:50:40.000Z</time>
      </trkpt>
      <trkpt lat="47.7094" lon="-3.3599">
        <ele>1.6</ele>
        <time>2020-08-21T12:50:41.000Z</time>
      </trkpt>
      <trkpt lat="47.7094" lon="-3.35988">
        <ele>1.6</ele>
        <time>2020-08-21T12:50:42.000Z</time>
      </trkpt>
      <trkpt lat="47.70941" lon="-3.35987">
        <ele>1.6</ele>
        <time>2020-08-21T12:50:43.000Z</time>
      </trkpt>
      <trkpt lat="47.70941" lon="-3.35986">
        <ele>1.6</ele>
        <time>2020-08-21T12:50:44.000Z</time>
      </trkpt>
      <trkpt lat="47.70941" lon="-3.35984">
        <ele>1.6</ele>
        <time>2020-08-21T12:50:45.000Z</time>
      </trkpt>
      <trkpt lat="47.70942" lon="-3.35983">
        <ele>1.6</ele>
        <time>2020-08-21T12:50:46.000Z</time>
      </trkpt>
      <trkpt lat="47.70942" lon="-3.35981">
        <ele>1.6</ele>
        <time>2020-08-21T12:50:47.000Z</time>
      </trkpt>
      <trkpt lat="47.70942" lon="-3.3598">
        <ele>1.6</ele>
        <time>2020-08-21T12:50:48.000Z</time>
      </trkpt>
      <trkpt lat="47.70943" lon="-3.35978">
        <ele>1.6</ele>
        <time>2020-08-21T12:50:49.000Z</time>
      </trkpt>
      <trkpt lat="47.70943" lon="-3.35977">
        <ele>1.6</ele>
        <time>2020-08-21T12:50:50.000Z</time>
      </trkpt>
      <trkpt lat="47.70943" lon="-3.35975">
        <ele>1.6</ele>
        <time>2020-08-21T12:50:51.000Z</time>
      </trkpt>
      <trkpt lat="47.70944" lon="-3.35974">
        <ele>1.6</ele>
        <time>2020-08-21T12:50:52.000Z</time>
      </trkpt>
      <trkpt lat="47.70944" lon="-3.35972">
        <ele>1.6</ele>
        <time>2020-08-21T12:50:53.000Z</time>
      </trkpt>
      <trkpt lat="47.70945" lon="-3.35971">
        <ele>1.6</ele>
        <time>2020-08-21T12:50:54.000Z</time>
      </trkpt>
      <trkpt lat="47.70945" lon="-3.35969">
        <ele>1.6</ele>
        <time>2020-08-21T12:50:55.000Z</time>
      </trkpt>
      <trkpt lat="47.70946" lon="-3.35968">
        <ele>1.6</ele>
        <time>2020-08-21T12:50:56.000Z</time>
      </trkpt>
      <trkpt lat="47.70946" lon="-3.35966">
        <ele>1.6</ele>
        <time>2020-08-21T12:50:57.000Z</time>
      </trkpt>
      <trkpt lat="47.70947" lon="-3.35964">
        <ele>1.6</ele>
        <time>2020-08-21T12:50:58.000Z</time>
      </trkpt>
      <trkpt lat="47.70947" lon="-3.35963">
        <ele>1.6</ele>
        <time>2020-08-21T12:50:59.000Z</time>
      </trkpt>
      <trkpt lat="47.70948" lon="-3.35961">
        <ele>1.6</ele>
        <time>2020-08-21T12:51:00.000Z</time>
      </trkpt>
      <trkpt lat="47.70948" lon="-3.3596">
        <ele>1.6</ele>
        <time>2020-08-21T12:51:01.000Z</time>
      </trkpt>
      <trkpt lat="47.70949" lon="-3.35958">
        <ele>2</ele>
        <time>2020-08-21T12:51:02.000Z</time>
      </trkpt>
      <trkpt lat="47.70949" lon="-3.35956">
        <ele>2</ele>
        <time>2020-08-21T12:51:03.000Z</time>
      </trkpt>
      <trkpt lat="47.7095" lon="-3.35955">
        <ele>2</ele>
        <time>2020-08-21T12:51:04.000Z</time>
      </trkpt>
      <trkpt lat="47.7095" lon="-3.35953">
        <ele>2</ele>
        <time>2020-08-21T12:51:05.000Z</time>
      </trkpt>
      <trkpt lat="47.70951" lon="-3.35952">
        <ele>2</ele>
        <time>2020-08-21T12:51:06.000Z</time>
      </trkpt>
      <trkpt lat="47.70951" lon="-3.3595">
        <ele>2</ele>
        <time>2020-08-21T12:51:07.000Z</time>
      </trkpt>
      <trkpt lat="47.70951" lon="-3.35949">
        <ele>2</ele>
        <time>2020-08-21T12:51:08.000Z</time>
      </trkpt>
      <trkpt lat="47.70952" lon="-3.35947">
        <ele>2</ele>
        <time>2020-08-21T12:51:09.000Z</time>
      </trkpt>
      <trkpt lat="47.70952" lon="-3.35946">
        <ele>2</ele>
        <time>2020-08-21T12:51:10.000Z</time>
      </trkpt>
      <trkpt lat="47.70952" lon="-3.35944">
        <ele>2</ele>
        <time>2020-08-21T12:51:11.000Z</time>
      </trkpt>
      <trkpt lat="47.70953" lon="-3.35943">
        <ele>2</ele>
        <time>2020-08-21T12:51:12.000Z</time>
      </trkpt>
      <trkpt lat="47.70953" lon="-3.35942">
        <ele>2</ele>
        <time>2020-08-21T12:51:13.000Z</time>
      </trkpt>
      <trkpt lat="47.70953" lon="-3.3594">
        <ele>2</ele>
        <time>2020-08-21T12:51:14.000Z</time>
      </trkpt>
      <trkpt lat="47.70953" lon="-3.35939">
        <ele>2</ele>
        <time>2020-08-21T12:51:15.000Z</time>
      </trkpt>
      <trkpt lat="47.70954" lon="-3.35938">
        <ele>2</ele>
        <time>2020-08-21T12:51:16.000Z</time>
      </trkpt>
      <trkpt lat="47.70954" lon="-3.35936">
        <ele>2</ele>
        <time>2020-08-21T12:51:17.000Z</time>
      </trkpt>
      <trkpt lat="47.70954" lon="-3.35935">
        <ele>2</ele>
        <time>2020-08-21T12:51:18.000Z</time>
      </trkpt>
      <trkpt lat="47.70955" lon="-3.35934">
        <ele>2</ele>
        <time>2020-08-21T12:51:19.000Z</time>
      </trkpt>
      <trkpt lat="47.70955" lon="-3.35932">
        <ele>2</ele>
        <time>2020-08-21T12:51:20.000Z</time>
      </trkpt>
      <trkpt lat="47.70956" lon="-3.35931">
        <ele>2</ele>
        <time>2020-08-21T12:51:21.000Z</time>
      </trkpt>
      <trkpt lat="47.70956" lon="-3.3593">
        <ele>2</ele>
        <time>2020-08-21T12:51:22.000Z</time>
      </trkpt>
      <trkpt lat="47.70957" lon="-3.35928">
        <ele>2</ele>
        <time>2020-08-21T12:51:23.000Z</time>
      </trkpt>
      <trkpt lat="47.70957" lon="-3.35927">
        <ele>2</ele>
        <time>2020-08-21T12:51:24.000Z</time>
      </trkpt>
      <trkpt lat="47.70958" lon="-3.35926">
        <ele>2</ele>
        <time>2020-08-21T12:51:25.000Z</time>
      </trkpt>
      <trkpt lat="47.70959" lon="-3.35924">
        <ele>1</ele>
        <time>2020-08-21T12:51:26.000Z</time>
      </trkpt>
      <trkpt lat="47.70959" lon="-3.35923">
        <ele>1</ele>
        <time>2020-08-21T12:51:27.000Z</time>
      </trkpt>
      <trkpt lat="47.7096" lon="-3.35922">
        <ele>1</ele>
        <time>2020-08-21T12:51:28.000Z</time>
      </trkpt>
      <trkpt lat="47.70961" lon="-3.35921">
        <ele>1</ele>
        <time>2020-08-21T12:51:29.000Z</time>
      </trkpt>
      <trkpt lat="47.70962" lon="-3.35919">
        <ele>1</ele>
        <time>2020-08-21T12:51:30.000Z</time>
      </trkpt>
      <trkpt lat="47.70962" lon="-3.35918">
        <ele>1</ele>
        <time>2020-08-21T12:51:31.000Z</time>
      </trkpt>
      <trkpt lat="47.70963" lon="-3.35917">
        <ele>1</ele>
        <time>2020-08-21T12:51:32.000Z</time>
      </trkpt>
      <trkpt lat="47.70964" lon="-3.35915">
        <ele>1.5</ele>
        <time>2020-08-21T12:51:33.000Z</time>
      </trkpt>
      <trkpt lat="47.70965" lon="-3.35914">
        <ele>1.5</ele>
        <time>2020-08-21T12:51:34.000Z</time>
      </trkpt>
      <trkpt lat="47.70965" lon="-3.35913">
        <ele>1.6</ele>
        <time>2020-08-21T12:51:35.000Z</time>
      </trkpt>
      <trkpt lat="47.70966" lon="-3.35912">
        <ele>1.6</ele>
        <time>2020-08-21T12:51:36.000Z</time>
      </trkpt>
      <trkpt lat="47.70967" lon="-3.3591">
        <ele>1.7</ele>
        <time>2020-08-21T12:51:37.000Z</time>
      </trkpt>
      <trkpt lat="47.70967" lon="-3.35909">
        <ele>1.7</ele>
        <time>2020-08-21T12:51:38.000Z</time>
      </trkpt>
      <trkpt lat="47.70968" lon="-3.35908">
        <ele>1.8</ele>
        <time>2020-08-21T12:51:39.000Z</time>
      </trkpt>
      <trkpt lat="47.70969" lon="-3.35907">
        <ele>1.8</ele>
        <time>2020-08-21T12:51:40.000Z</time>
      </trkpt>
      <trkpt lat="47.7097" lon="-3.35905">
        <ele>1.9</ele>
        <time>2020-08-21T12:51:41.000Z</time>
      </trkpt>
      <trkpt lat="47.7097" lon="-3.35904">
        <ele>1.9</ele>
        <time>2020-08-21T12:51:42.000Z</time>
      </trkpt>
      <trkpt lat="47.70971" lon="-3.35903">
        <ele>1.9</ele>
        <time>2020-08-21T12:51:43.000Z</time>
      </trkpt>
      <trkpt lat="47.70972" lon="-3.35902">
        <ele>2</ele>
        <time>2020-08-21T12:51:44.000Z</time>
      </trkpt>
      <trkpt lat="47.70973" lon="-3.35901">
        <ele>2</ele>
        <time>2020-08-21T12:51:45.000Z</time>
      </trkpt>
      <trkpt lat="47.70973" lon="-3.359">
        <ele>2.1</ele>
        <time>2020-08-21T12:51:46.000Z</time>
      </trkpt>
      <trkpt lat="47.70974" lon="-3.35899">
        <ele>2.1</ele>
        <time>2020-08-21T12:51:47.000Z</time>
      </trkpt>
      <trkpt lat="47.70975" lon="-3.35897">
        <ele>2.2</ele>
        <time>2020-08-21T12:51:48.000Z</time>
      </trkpt>
      <trkpt lat="47.70975" lon="-3.35896">
        <ele>2.2</ele>
        <time>2020-08-21T12:51:49.000Z</time>
      </trkpt>
      <trkpt lat="47.70976" lon="-3.35895">
        <ele>2.2</ele>
        <time>2020-08-21T12:51:50.000Z</time>
      </trkpt>
      <trkpt lat="47.70977" lon="-3.35894">
        <ele>2.3</ele>
        <time>2020-08-21T12:51:51.000Z</time>
      </trkpt>
      <trkpt lat="47.70978" lon="-3.35893">
        <ele>2.3</ele>
        <time>2020-08-21T12:51:52.000Z</time>
      </trkpt>
      <trkpt lat="47.70978" lon="-3.35892">
        <ele>2.4</ele>
        <time>2020-08-21T12:51:53.000Z</time>
      </trkpt>
      <trkpt lat="47.70979" lon="-3.35891">
        <ele>2.4</ele>
        <time>2020-08-21T12:51:54.000Z</time>
      </trkpt>
      <trkpt lat="47.7098" lon="-3.3589">
        <ele>2.4</ele>
        <time>2020-08-21T12:51:55.000Z</time>
      </trkpt>
      <trkpt lat="47.70981" lon="-3.35889">
        <ele>2.5</ele>
        <time>2020-08-21T12:51:56.000Z</time>
      </trkpt>
      <trkpt lat="47.70981" lon="-3.35888">
        <ele>2.5</ele>
        <time>2020-08-21T12:51:57.000Z</time>
      </trkpt>
      <trkpt lat="47.70982" lon="-3.35887">
        <ele>2.5</ele>
        <time>2020-08-21T12:51:58.000Z</time>
      </trkpt>
      <trkpt lat="47.70983" lon="-3.35886">
        <ele>2.6</ele>
        <time>2020-08-21T12:51:59.000Z</time>
      </trkpt>
      <trkpt lat="47.70984" lon="-3.35885">
        <ele>2.6</ele>
        <time>2020-08-21T12:52:00.000Z</time>
      </trkpt>
      <trkpt lat="47.70985" lon="-3.35884">
        <ele>2.7</ele>
        <time>2020-08-21T12:52:01.000Z</time>
      </trkpt>
      <trkpt lat="47.70985" lon="-3.35883">
        <ele>2.7</ele>
        <time>2020-08-21T12:52:02.000Z</time>
      </trkpt>
      <trkpt lat="47.70986" lon="-3.35882">
        <ele>2.8</ele>
        <time>2020-08-21T12:52:03.000Z</time>
      </trkpt>
      <trkpt lat="47.70987" lon="-3.35881">
        <ele>2.8</ele>
        <time>2020-08-21T12:52:04.000Z</time>
      </trkpt>
      <trkpt lat="47.70988" lon="-3.3588">
        <ele>2.8</ele>
        <time>2020-08-21T12:52:05.000Z</time>
      </trkpt>
      <trkpt lat="47.70988" lon="-3.35879">
        <ele>2.9</ele>
        <time>2020-08-21T12:52:06.000Z</time>
      </trkpt>
      <trkpt lat="47.70989" lon="-3.35878">
        <ele>2.9</ele>
        <time>2020-08-21T12:52:07.000Z</time>
      </trkpt>
      <trkpt lat="47.7099" lon="-3.35877">
        <ele>3</ele>
        <time>2020-08-21T12:52:08.000Z</time>
      </trkpt>
      <trkpt lat="47.7099" lon="-3.35875">
        <ele>3</ele>
        <time>2020-08-21T12:52:09.000Z</time>
      </trkpt>
      <trkpt lat="47.70991" lon="-3.35874">
        <ele>3.1</ele>
        <time>2020-08-21T12:52:10.000Z</time>
      </trkpt>
      <trkpt lat="47.70992" lon="-3.35873">
        <ele>3.2</ele>
        <time>2020-08-21T12:52:11.000Z</time>
      </trkpt>
      <trkpt lat="47.70992" lon="-3.35871">
        <ele>3.2</ele>
        <time>2020-08-21T12:52:12.000Z</time>
      </trkpt>
      <trkpt lat="47.70993" lon="-3.3587">
        <ele>3.3</ele>
        <time>2020-08-21T12:52:13.000Z</time>
      </trkpt>
      <trkpt lat="47.70994" lon="-3.35869">
        <ele>3.3</ele>
        <time>2020-08-21T12:52:14.000Z</time>
      </trkpt>
      <trkpt lat="47.70994" lon="-3.35867">
        <ele>3.4</ele>
        <time>2020-08-21T12:52:15.000Z</time>
      </trkpt>
      <trkpt lat="47.70995" lon="-3.35866">
        <ele>3.5</ele>
        <time>2020-08-21T12:52:16.000Z</time>
      </trkpt>
      <trkpt lat="47.70995" lon="-3.35865">
        <ele>3.5</ele>
        <time>2020-08-21T12:52:17.000Z</time>
      </trkpt>
      <trkpt lat="47.70996" lon="-3.35863">
        <ele>3.6</ele>
        <time>2020-08-21T12:52:18.000Z</time>
      </trkpt>
      <trkpt lat="47.70996" lon="-3.35862">
        <ele>3.7</ele>
        <time>2020-08-21T12:52:19.000Z</time>
      </trkpt>
      <trkpt lat="47.70997" lon="-3.3586">
        <ele>3.7</ele>
        <time>2020-08-21T12:52:20.000Z</time>
      </trkpt>
      <trkpt lat="47.70997" lon="-3.35859">
        <ele>3.8</ele>
        <time>2020-08-21T12:52:21.000Z</time>
      </trkpt>
      <trkpt lat="47.70998" lon="-3.35857">
        <ele>3.9</ele>
        <time>2020-08-21T12:52:22.000Z</time>
      </trkpt>
      <trkpt lat="47.70998" lon="-3.35855">
        <ele>3.9</ele>
        <time>2020-08-21T12:52:23.000Z</time>
      </trkpt>
      <trkpt lat="47.70998" lon="-3.35854">
        <ele>4</ele>
        <time>2020-08-21T12:52:24.000Z</time>
      </trkpt>
      <trkpt lat="47.70999" lon="-3.35852">
        <ele>4.1</ele>
        <time>2020-08-21T12:52:25.000Z</time>
      </trkpt>
      <trkpt lat="47.70999" lon="-3.35851">
        <ele>4.2</ele>
        <time>2020-08-21T12:52:26.000Z</time>
      </trkpt>
      <trkpt lat="47.70999" lon="-3.35849">
        <ele>4.2</ele>
        <time>2020-08-21T12:52:27.000Z</time>
      </trkpt>
      <trkpt lat="47.71" lon="-3.35848">
        <ele>4.3</ele>
        <time>2020-08-21T12:52:28.000Z</time>
      </trkpt>
      <trkpt lat="47.71" lon="-3.35846">
        <ele>4.4</ele>
        <time>2020-08-21T12:52:29.000Z</time>
      </trkpt>
      <trkpt lat="47.71" lon="-3.35845">
        <ele>5</ele>
        <time>2020-08-21T12:52:30.000Z</time>
      </trkpt>
      <trkpt lat="47.71" lon="-3.35844">
        <ele>5</ele>
        <time>2020-08-21T12:52:31.000Z</time>
      </trkpt>
      <trkpt lat="47.71001" lon="-3.35842">
        <ele>5</ele>
        <time>2020-08-21T12:52:32.000Z</time>
      </trkpt>
      <trkpt lat="47.71001" lon="-3.35841">
        <ele>5</ele>
        <time>2020-08-21T12:52:33.000Z</time>
      </trkpt>
      <trkpt lat="47.71001" lon="-3.3584">
        <ele>5</ele>
        <time>2020-08-21T12:52:34.000Z</time>
      </trkpt>
      <trkpt lat="47.71001" lon="-3.35838">
        <ele>5</ele>
        <time>2020-08-21T12:52:35.000Z</time>
      </trkpt>
      <trkpt lat="47.71002" lon="-3.35837">
        <ele>5</ele>
        <time>2020-08-21T12:52:36.000Z</time>
      </trkpt>
      <trkpt lat="47.71002" lon="-3.35836">
        <ele>5</ele>
        <time>2020-08-21T12:52:37.000Z</time>
      </trkpt>
      <trkpt lat="47.71002" lon="-3.35835">
        <ele>5</ele>
        <time>2020-08-21T12:52:38.000Z</time>
      </trkpt>
      <trkpt lat="47.71003" lon="-3.35834">
        <ele>5</ele>
        <time>2020-08-21T12:52:39.000Z</time>
      </trkpt>
      <trkpt lat="47.71003" lon="-3.35833">
        <ele>5</ele>
        <time>2020-08-21T12:52:40.000Z</time>
      </trkpt>
      <trkpt lat="47.71004" lon="-3.35832">
        <ele>5</ele>
        <time>2020-08-21T12:52:41.000Z</time>
      </trkpt>
      <trkpt lat="47.71004" lon="-3.35831">
        <ele>5</ele>
        <time>2020-08-21T12:52:42.000Z</time>
      </trkpt>
      <trkpt lat="47.71005" lon="-3.3583">
        <ele>5</ele>
        <time>2020-08-21T12:52:43.000Z</time>
      </trkpt>
      <trkpt lat="47.71006" lon="-3.35829">
        <ele>5</ele>
        <time>2020-08-21T12:52:44.000Z</time>
      </trkpt>
      <trkpt lat="47.71007" lon="-3.35828">
        <ele>5</ele>
        <time>2020-08-21T12:52:45.000Z</time>
      </trkpt>
      <trkpt lat="47.71008" lon="-3.35827">
        <ele>5</ele>
        <time>2020-08-21T12:52:46.000Z</time>
      </trkpt>
      <trkpt lat="47.71009" lon="-3.35826">
        <ele>5</ele>
        <time>2020-08-21T12:52:47.000Z</time>
      </trkpt>
      <trkpt lat="47.71009" lon="-3.35826">
        <ele>5</ele>
        <time>2020-08-21T12:52:48.000Z</time>
      </trkpt>
      <trkpt lat="47.7101" lon="-3.35825">
        <ele>5</ele>
        <time>2020-08-21T12:52:49.000Z</time>
      </trkpt>
      <trkpt lat="47.71011" lon="-3.35824">
        <ele>5</ele>
        <time>2020-08-21T12:52:50.000Z</time>
      </trkpt>
      <trkpt lat="47.71012" lon="-3.35823">
        <ele>5</ele>
        <time>2020-08-21T12:52:51.000Z</time>
      </trkpt>
      <trkpt lat="47.71012" lon="-3.35822">
        <ele>5</ele>
        <time>2020-08-21T12:52:52.000Z</time>
      </trkpt>
      <trkpt lat="47.71013" lon="-3.35821">
        <ele>5</ele>
        <time>2020-08-21T12:52:53.000Z</time>
      </trkpt>
      <trkpt lat="47.71014" lon="-3.3582">
        <ele>5</ele>
        <time>2020-08-21T12:52:54.000Z</time>
      </trkpt>
      <trkpt lat="47.71015" lon="-3.35819">
        <ele>5</ele>
        <time>2020-08-21T12:52:55.000Z</time>
      </trkpt>
      <trkpt lat="47.71015" lon="-3.35818">
        <ele>5</ele>
        <time>2020-08-21T12:52:56.000Z</time>
      </trkpt>
      <trkpt lat="47.71016" lon="-3.35816">
        <ele>5</ele>
        <time>2020-08-21T12:52:57.000Z</time>
      </trkpt>
      <trkpt lat="47.71016" lon="-3.35815">
        <ele>5</ele>
        <time>2020-08-21T12:52:58.000Z</time>
      </trkpt>
      <trkpt lat="47.71017" lon="-3.35815">
        <ele>5</ele>
        <time>2020-08-21T12:52:59.000Z</time>
      </trkpt>
      <trkpt lat="47.71017" lon="-3.35815">
        <ele>5</ele>
        <time>2020-08-21T12:53:00.000Z</time>
      </trkpt>
      <trkpt lat="47.71017" lon="-3.35814">
        <ele>5</ele>
        <time>2020-08-21T12:53:01.000Z</time>
      </trkpt>
      <trkpt lat="47.71017" lon="-3.35814">
        <ele>5</ele>
        <time>2020-08-21T12:53:02.000Z</time>
      </trkpt>
      <trkpt lat="47.71018" lon="-3.35813">
        <ele>5</ele>
        <time>2020-08-21T12:53:03.000Z</time>
      </trkpt>
      <trkpt lat="47.71018" lon="-3.35813">
        <ele>5</ele>
        <time>2020-08-21T12:53:04.000Z</time>
      </trkpt>
      <trkpt lat="47.71018" lon="-3.35812">
        <ele>5</ele>
        <time>2020-08-21T12:53:05.000Z</time>
      </trkpt>
      <trkpt lat="47.71019" lon="-3.35811">
        <ele>5</ele>
        <time>2020-08-21T12:53:06.000Z</time>
      </trkpt>
      <trkpt lat="47.71019" lon="-3.3581">
        <ele>5</ele>
        <time>2020-08-21T12:53:07.000Z</time>
      </trkpt>
      <trkpt lat="47.7102" lon="-3.35809">
        <ele>5</ele>
        <time>2020-08-21T12:53:08.000Z</time>
      </trkpt>
      <trkpt lat="47.7102" lon="-3.35807">
        <ele>5</ele>
        <time>2020-08-21T12:53:09.000Z</time>
      </trkpt>
      <trkpt lat="47.71021" lon="-3.35806">
        <ele>5</ele>
        <time>2020-08-21T12:53:10.000Z</time>
      </trkpt>
      <trkpt lat="47.71021" lon="-3.35805">
        <ele>5</ele>
        <time>2020-08-21T12:53:11.000Z</time>
      </trkpt>
      <trkpt lat="47.71022" lon="-3.35804">
        <ele>5</ele>
        <time>2020-08-21T12:53:12.000Z</time>
      </trkpt>
      <trkpt lat="47.71022" lon="-3.35803">
        <ele>5</ele>
        <time>2020-08-21T12:53:13.000Z</time>
      </trkpt>
      <trkpt lat="47.71023" lon="-3.35801">
        <ele>5</ele>
        <time>2020-08-21T12:53:14.000Z</time>
      </trkpt>
      <trkpt lat="47.71024" lon="-3.358">
        <ele>5</ele>
        <time>2020-08-21T12:53:15.000Z</time>
      </trkpt>
      <trkpt lat="47.71025" lon="-3.35799">
        <ele>5</ele>
        <time>2020-08-21T12:53:16.000Z</time>
      </trkpt>
      <trkpt lat="47.71025" lon="-3.35799">
        <ele>5</ele>
        <time>2020-08-21T12:53:17.000Z</time>
      </trkpt>
      <trkpt lat="47.71026" lon="-3.35798">
        <ele>5</ele>
        <time>2020-08-21T12:53:18.000Z</time>
      </trkpt>
      <trkpt lat="47.71027" lon="-3.35797">
        <ele>5</ele>
        <time>2020-08-21T12:53:19.000Z</time>
      </trkpt>
      <trkpt lat="47.71028" lon="-3.35797">
        <ele>5</ele>
        <time>2020-08-21T12:53:20.000Z</time>
      </trkpt>
      <trkpt lat="47.71029" lon="-3.35796">
        <ele>5</ele>
        <time>2020-08-21T12:53:21.000Z</time>
      </trkpt>
      <trkpt lat="47.7103" lon="-3.35796">
        <ele>5</ele>
        <time>2020-08-21T12:53:22.000Z</time>
      </trkpt>
      <trkpt lat="47.71031" lon="-3.35795">
        <ele>5</ele>
        <time>2020-08-21T12:53:23.000Z</time>
      </trkpt>
      <trkpt lat="47.71032" lon="-3.35795">
        <ele>5</ele>
        <time>2020-08-21T12:53:24.000Z</time>
      </trkpt>
      <trkpt lat="47.71033" lon="-3.35794">
        <ele>5</ele>
        <time>2020-08-21T12:53:25.000Z</time>
      </trkpt>
      <trkpt lat="47.71034" lon="-3.35794">
        <ele>5</ele>
        <time>2020-08-21T12:53:26.000Z</time>
      </trkpt>
      <trkpt lat="47.71035" lon="-3.35793">
        <ele>5</ele>
        <time>2020-08-21T12:53:27.000Z</time>
      </trkpt>
      <trkpt lat="47.71036" lon="-3.35793">
        <ele>5</ele>
        <time>2020-08-21T12:53:28.000Z</time>
      </trkpt>
      <trkpt lat="47.71037" lon="-3.35793">
        <ele>5</ele>
        <time>2020-08-21T12:53:29.000Z</time>
      </trkpt>
      <trkpt lat="47.71038" lon="-3.35792">
        <ele>5</ele>
        <time>2020-08-21T12:53:30.000Z</time>
      </trkpt>
      <trkpt lat="47.71039" lon="-3.35792">
        <ele>10</ele>
        <time>2020-08-21T12:53:31.000Z</time>
      </trkpt>
      <trkpt lat="47.71039" lon="-3.35791">
        <ele>10</ele>
        <time>2020-08-21T12:53:32.000Z</time>
      </trkpt>
      <trkpt lat="47.7104" lon="-3.3579">
        <ele>10</ele>
        <time>2020-08-21T12:53:33.000Z</time>
      </trkpt>
      <trkpt lat="47.71041" lon="-3.3579">
        <ele>10</ele>
        <time>2020-08-21T12:53:34.000Z</time>
      </trkpt>
      <trkpt lat="47.71042" lon="-3.35789">
        <ele>10</ele>
        <time>2020-08-21T12:53:35.000Z</time>
      </trkpt>
      <trkpt lat="47.71042" lon="-3.35788">
        <ele>7</ele>
        <time>2020-08-21T12:53:36.000Z</time>
      </trkpt>
      <trkpt lat="47.71043" lon="-3.35787">
        <ele>7</ele>
        <time>2020-08-21T12:53:37.000Z</time>
      </trkpt>
      <trkpt lat="47.71044" lon="-3.35786">
        <ele>7</ele>
        <time>2020-08-21T12:53:38.000Z</time>
      </trkpt>
      <trkpt lat="47.71045" lon="-3.35785">
        <ele>7</ele>
        <time>2020-08-21T12:53:39.000Z</time>
      </trkpt>
      <trkpt lat="47.71045" lon="-3.35785">
        <ele>7</ele>
        <time>2020-08-21T12:53:40.000Z</time>
      </trkpt>
      <trkpt lat="47.71046" lon="-3.35784">
        <ele>7</ele>
        <time>2020-08-21T12:53:41.000Z</time>
      </trkpt>
      <trkpt lat="47.71047" lon="-3.35783">
        <ele>7</ele>
        <time>2020-08-21T12:53:42.000Z</time>
      </trkpt>
      <trkpt lat="47.71048" lon="-3.35782">
        <ele>7</ele>
        <time>2020-08-21T12:53:43.000Z</time>
      </trkpt>
      <trkpt lat="47.71049" lon="-3.35781">
        <ele>7</ele>
        <time>2020-08-21T12:53:44.000Z</time>
      </trkpt>
      <trkpt lat="47.71049" lon="-3.3578">
        <ele>7</ele>
        <time>2020-08-21T12:53:45.000Z</time>
      </trkpt>
      <trkpt lat="47.7105" lon="-3.35779">
        <ele>7</ele>
        <time>2020-08-21T12:53:46.000Z</time>
      </trkpt>
      <trkpt lat="47.71051" lon="-3.35778">
        <ele>7</ele>
        <time>2020-08-21T12:53:47.000Z</time>
      </trkpt>
      <trkpt lat="47.71052" lon="-3.35777">
        <ele>7</ele>
        <time>2020-08-21T12:53:48.000Z</time>
      </trkpt>
      <trkpt lat="47.71053" lon="-3.35776">
        <ele>7</ele>
        <time>2020-08-21T12:53:49.000Z</time>
      </trkpt>
      <trkpt lat="47.71054" lon="-3.35775">
        <ele>7</ele>
        <time>2020-08-21T12:53:50.000Z</time>
      </trkpt>
      <trkpt lat="47.71055" lon="-3.35774">
        <ele>7</ele>
        <time>2020-08-21T12:53:51.000Z</time>
      </trkpt>
      <trkpt lat="47.71056" lon="-3.35773">
        <ele>7</ele>
        <time>2020-08-21T12:53:52.000Z</time>
      </trkpt>
      <trkpt lat="47.71057" lon="-3.35772">
        <ele>7</ele>
        <time>2020-08-21T12:53:53.000Z</time>
      </trkpt>
      <trkpt lat="47.71058" lon="-3.35771">
        <ele>7</ele>
        <time>2020-08-21T12:53:54.000Z</time>
      </trkpt>
      <trkpt lat="47.71059" lon="-3.3577">
        <ele>7</ele>
        <time>2020-08-21T12:53:55.000Z</time>
      </trkpt>
      <trkpt lat="47.7106" lon="-3.35769">
        <ele>7</ele>
        <time>2020-08-21T12:53:56.000Z</time>
      </trkpt>
      <trkpt lat="47.71061" lon="-3.35769">
        <ele>7</ele>
        <time>2020-08-21T12:53:57.000Z</time>
      </trkpt>
      <trkpt lat="47.71062" lon="-3.35768">
        <ele>7</ele>
        <time>2020-08-21T12:53:58.000Z</time>
      </trkpt>
      <trkpt lat="47.71062" lon="-3.35767">
        <ele>7</ele>
        <time>2020-08-21T12:53:59.000Z</time>
      </trkpt>
      <trkpt lat="47.71063" lon="-3.35767">
        <ele>7</ele>
        <time>2020-08-21T12:54:00.000Z</time>
      </trkpt>
      <trkpt lat="47.71064" lon="-3.35767">
        <ele>7</ele>
        <time>2020-08-21T12:54:01.000Z</time>
      </trkpt>
      <trkpt lat="47.71064" lon="-3.35766">
        <ele>7</ele>
        <time>2020-08-21T12:54:02.000Z</time>
      </trkpt>
      <trkpt lat="47.71065" lon="-3.35766">
        <ele>7</ele>
        <time>2020-08-21T12:54:03.000Z</time>
      </trkpt>
      <trkpt lat="47.71066" lon="-3.35765">
        <ele>7</ele>
        <time>2020-08-21T12:54:04.000Z</time>
      </trkpt>
      <trkpt lat="47.71066" lon="-3.35765">
        <ele>7</ele>
        <time>2020-08-21T12:54:05.000Z</time>
      </trkpt>
      <trkpt lat="47.71067" lon="-3.35764">
        <ele>7</ele>
        <time>2020-08-21T12:54:06.000Z</time>
      </trkpt>
      <trkpt lat="47.71067" lon="-3.35764">
        <ele>7</ele>
        <time>2020-08-21T12:54:07.000Z</time>
      </trkpt>
      <trkpt lat="47.71068" lon="-3.35763">
        <ele>7</ele>
        <time>2020-08-21T12:54:08.000Z</time>
      </trkpt>
      <trkpt lat="47.71069" lon="-3.35763">
        <ele>7</ele>
        <time>2020-08-21T12:54:09.000Z</time>
      </trkpt>
      <trkpt lat="47.71069" lon="-3.35762">
        <ele>7</ele>
        <time>2020-08-21T12:54:10.000Z</time>
      </trkpt>
      <trkpt lat="47.7107" lon="-3.35761">
        <ele>7</ele>
        <time>2020-08-21T12:54:11.000Z</time>
      </trkpt>
      <trkpt lat="47.71071" lon="-3.3576">
        <ele>7</ele>
        <time>2020-08-21T12:54:12.000Z</time>
      </trkpt>
      <trkpt lat="47.71071" lon="-3.35759">
        <ele>7</ele>
        <time>2020-08-21T12:54:13.000Z</time>
      </trkpt>
      <trkpt lat="47.71072" lon="-3.35758">
        <ele>7</ele>
        <time>2020-08-21T12:54:14.000Z</time>
      </trkpt>
      <trkpt lat="47.71073" lon="-3.35757">
        <ele>7</ele>
        <time>2020-08-21T12:54:15.000Z</time>
      </trkpt>
      <trkpt lat="47.71074" lon="-3.35756">
        <ele>7</ele>
        <time>2020-08-21T12:54:16.000Z</time>
      </trkpt>
      <trkpt lat="47.71074" lon="-3.35755">
        <ele>7</ele>
        <time>2020-08-21T12:54:17.000Z</time>
      </trkpt>
      <trkpt lat="47.71075" lon="-3.35754">
        <ele>7</ele>
        <time>2020-08-21T12:54:18.000Z</time>
      </trkpt>
      <trkpt lat="47.71076" lon="-3.35752">
        <ele>7</ele>
        <time>2020-08-21T12:54:19.000Z</time>
      </trkpt>
      <trkpt lat="47.71077" lon="-3.35751">
        <ele>7</ele>
        <time>2020-08-21T12:54:20.000Z</time>
      </trkpt>
      <trkpt lat="47.71077" lon="-3.3575">
        <ele>7.2</ele>
        <time>2020-08-21T12:54:21.000Z</time>
      </trkpt>
      <trkpt lat="47.71078" lon="-3.35748">
        <ele>7.2</ele>
        <time>2020-08-21T12:54:22.000Z</time>
      </trkpt>
      <trkpt lat="47.71079" lon="-3.35747">
        <ele>7.1</ele>
        <time>2020-08-21T12:54:23.000Z</time>
      </trkpt>
      <trkpt lat="47.71079" lon="-3.35745">
        <ele>7.1</ele>
        <time>2020-08-21T12:54:24.000Z</time>
      </trkpt>
      <trkpt lat="47.7108" lon="-3.35744">
        <ele>7</ele>
        <time>2020-08-21T12:54:25.000Z</time>
      </trkpt>
      <trkpt lat="47.71081" lon="-3.35742">
        <ele>7</ele>
        <time>2020-08-21T12:54:26.000Z</time>
      </trkpt>
      <trkpt lat="47.71081" lon="-3.35741">
        <ele>7</ele>
        <time>2020-08-21T12:54:27.000Z</time>
      </trkpt>
      <trkpt lat="47.71082" lon="-3.35739">
        <ele>6.9</ele>
        <time>2020-08-21T12:54:28.000Z</time>
      </trkpt>
      <trkpt lat="47.71082" lon="-3.35738">
        <ele>6.9</ele>
        <time>2020-08-21T12:54:29.000Z</time>
      </trkpt>
      <trkpt lat="47.71083" lon="-3.35736">
        <ele>6.9</ele>
        <time>2020-08-21T12:54:30.000Z</time>
      </trkpt>
      <trkpt lat="47.71083" lon="-3.35735">
        <ele>6.8</ele>
        <time>2020-08-21T12:54:31.000Z</time>
      </trkpt>
      <trkpt lat="47.71084" lon="-3.35733">
        <ele>7</ele>
        <time>2020-08-21T12:54:32.000Z</time>
      </trkpt>
      <trkpt lat="47.71084" lon="-3.35732">
        <ele>7</ele>
        <time>2020-08-21T12:54:33.000Z</time>
      </trkpt>
      <trkpt lat="47.71085" lon="-3.3573">
        <ele>7</ele>
        <time>2020-08-21T12:54:34.000Z</time>
      </trkpt>
      <trkpt lat="47.71085" lon="-3.35729">
        <ele>7</ele>
        <time>2020-08-21T12:54:35.000Z</time>
      </trkpt>
      <trkpt lat="47.71085" lon="-3.35727">
        <ele>7</ele>
        <time>2020-08-21T12:54:36.000Z</time>
      </trkpt>
      <trkpt lat="47.71086" lon="-3.35726">
        <ele>7</ele>
        <time>2020-08-21T12:54:37.000Z</time>
      </trkpt>
      <trkpt lat="47.71086" lon="-3.35724">
        <ele>7</ele>
        <time>2020-08-21T12:54:38.000Z</time>
      </trkpt>
      <trkpt lat="47.71086" lon="-3.35723">
        <ele>7</ele>
        <time>2020-08-21T12:54:39.000Z</time>
      </trkpt>
      <trkpt lat="47.71087" lon="-3.35721">
        <ele>7</ele>
        <time>2020-08-21T12:54:40.000Z</time>
      </trkpt>
      <trkpt lat="47.71087" lon="-3.3572">
        <ele>7</ele>
        <time>2020-08-21T12:54:41.000Z</time>
      </trkpt>
      <trkpt lat="47.71087" lon="-3.35718">
        <ele>7</ele>
        <time>2020-08-21T12:54:42.000Z</time>
      </trkpt>
      <trkpt lat="47.71088" lon="-3.35717">
        <ele>7</ele>
        <time>2020-08-21T12:54:43.000Z</time>
      </trkpt>
      <trkpt lat="47.71088" lon="-3.35715">
        <ele>7</ele>
        <time>2020-08-21T12:54:44.000Z</time>
      </trkpt>
      <trkpt lat="47.71088" lon="-3.35714">
        <ele>7</ele>
        <time>2020-08-21T12:54:45.000Z</time>
      </trkpt>
      <trkpt lat="47.71089" lon="-3.35712">
        <ele>7</ele>
        <time>2020-08-21T12:54:46.000Z</time>
      </trkpt>
      <trkpt lat="47.71089" lon="-3.3571">
        <ele>7</ele>
        <time>2020-08-21T12:54:47.000Z</time>
      </trkpt>
      <trkpt lat="47.7109" lon="-3.35709">
        <ele>7</ele>
        <time>2020-08-21T12:54:48.000Z</time>
      </trkpt>
      <trkpt lat="47.7109" lon="-3.35707">
        <ele>6</ele>
        <time>2020-08-21T12:54:49.000Z</time>
      </trkpt>
      <trkpt lat="47.7109" lon="-3.35706">
        <ele>6</ele>
        <time>2020-08-21T12:54:50.000Z</time>
      </trkpt>
      <trkpt lat="47.71091" lon="-3.35704">
        <ele>6</ele>
        <time>2020-08-21T12:54:51.000Z</time>
      </trkpt>
      <trkpt lat="47.71091" lon="-3.35703">
        <ele>6</ele>
        <time>2020-08-21T12:54:52.000Z</time>
      </trkpt>
      <trkpt lat="47.71092" lon="-3.35701">
        <ele>6</ele>
        <time>2020-08-21T12:54:53.000Z</time>
      </trkpt>
      <trkpt lat="47.71093" lon="-3.357">
        <ele>6</ele>
        <time>2020-08-21T12:54:54.000Z</time>
      </trkpt>
      <trkpt lat="47.71093" lon="-3.35698">
        <ele>6</ele>
        <time>2020-08-21T12:54:55.000Z</time>
      </trkpt>
      <trkpt lat="47.71094" lon="-3.35697">
        <ele>6</ele>
        <time>2020-08-21T12:54:56.000Z</time>
      </trkpt>
      <trkpt lat="47.71094" lon="-3.35696">
        <ele>6</ele>
        <time>2020-08-21T12:54:57.000Z</time>
      </trkpt>
      <trkpt lat="47.71095" lon="-3.35694">
        <ele>6</ele>
        <time>2020-08-21T12:54:58.000Z</time>
      </trkpt>
      <trkpt lat="47.71095" lon="-3.35693">
        <ele>6</ele>
        <time>2020-08-21T12:54:59.000Z</time>
      </trkpt>
      <trkpt lat="47.71096" lon="-3.35692">
        <ele>6</ele>
        <time>2020-08-21T12:55:00.000Z</time>
      </trkpt>
      <trkpt lat="47.71097" lon="-3.35691">
        <ele>6</ele>
        <time>2020-08-21T12:55:01.000Z</time>
      </trkpt>
      <trkpt lat="47.71097" lon="-3.3569">
        <ele>6</ele>
        <time>2020-08-21T12:55:02.000Z</time>
      </trkpt>
      <trkpt lat="47.71098" lon="-3.35689">
        <ele>6</ele>
        <time>2020-08-21T12:55:03.000Z</time>
      </trkpt>
      <trkpt lat="47.71099" lon="-3.35688">
        <ele>6</ele>
        <time>2020-08-21T12:55:04.000Z</time>
      </trkpt>
      <trkpt lat="47.71099" lon="-3.35688">
        <ele>6</ele>
        <time>2020-08-21T12:55:05.000Z</time>
      </trkpt>
      <trkpt lat="47.711" lon="-3.35687">
        <ele>6</ele>
        <time>2020-08-21T12:55:06.000Z</time>
      </trkpt>
      <trkpt lat="47.71101" lon="-3.35687">
        <ele>6</ele>
        <time>2020-08-21T12:55:07.000Z</time>
      </trkpt>
      <trkpt lat="47.71102" lon="-3.35687">
        <ele>6</ele>
        <time>2020-08-21T12:55:08.000Z</time>
      </trkpt>
      <trkpt lat="47.71103" lon="-3.35687">
        <ele>6</ele>
        <time>2020-08-21T12:55:09.000Z</time>
      </trkpt>
      <trkpt lat="47.71104" lon="-3.35687">
        <ele>6</ele>
        <time>2020-08-21T12:55:10.000Z</time>
      </trkpt>
      <trkpt lat="47.71105" lon="-3.35687">
        <ele>6</ele>
        <time>2020-08-21T12:55:11.000Z</time>
      </trkpt>
      <trkpt lat="47.71106" lon="-3.35687">
        <ele>6</ele>
        <time>2020-08-21T12:55:12.000Z</time>
      </trkpt>
      <trkpt lat="47.71107" lon="-3.35688">
        <ele>6</ele>
        <time>2020-08-21T12:55:13.000Z</time>
      </trkpt>
      <trkpt lat="47.71108" lon="-3.35688">
        <ele>6</ele>
        <time>2020-08-21T12:55:14.000Z</time>
      </trkpt>
      <trkpt lat="47.71109" lon="-3.35689">
        <ele>6</ele>
        <time>2020-08-21T12:55:15.000Z</time>
      </trkpt>
      <trkpt lat="47.7111" lon="-3.35689">
        <ele>6</ele>
        <time>2020-08-21T12:55:16.000Z</time>
      </trkpt>
      <trkpt lat="47.71111" lon="-3.35689">
        <ele>6</ele>
        <time>2020-08-21T12:55:17.000Z</time>
      </trkpt>
      <trkpt lat="47.71112" lon="-3.35689">
        <ele>6</ele>
        <time>2020-08-21T12:55:18.000Z</time>
      </trkpt>
      <trkpt lat="47.71113" lon="-3.35689">
        <ele>6</ele>
        <time>2020-08-21T12:55:19.000Z</time>
      </trkpt>
      <trkpt lat="47.71113" lon="-3.35689">
        <ele>6</ele>
        <time>2020-08-21T12:55:20.000Z</time>
      </trkpt>
      <trkpt lat="47.71114" lon="-3.35689">
        <ele>6</ele>
        <time>2020-08-21T12:55:21.000Z</time>
      </trkpt>
      <trkpt lat="47.71115" lon="-3.35688">
        <ele>6</ele>
        <time>2020-08-21T12:55:22.000Z</time>
      </trkpt>
      <trkpt lat="47.71115" lon="-3.35687">
        <ele>6</ele>
        <time>2020-08-21T12:55:23.000Z</time>
      </trkpt>
      <trkpt lat="47.71115" lon="-3.35687">
        <ele>6</ele>
        <time>2020-08-21T12:55:24.000Z</time>
      </trkpt>
      <trkpt lat="47.71116" lon="-3.35686">
        <ele>6</ele>
        <time>2020-08-21T12:55:25.000Z</time>
      </trkpt>
      <trkpt lat="47.71116" lon="-3.35686">
        <ele>6</ele>
        <time>2020-08-21T12:55:26.000Z</time>
      </trkpt>
      <trkpt lat="47.71116" lon="-3.35685">
        <ele>6</ele>
        <time>2020-08-21T12:55:27.000Z</time>
      </trkpt>
      <trkpt lat="47.71116" lon="-3.35685">
        <ele>6</ele>
        <time>2020-08-21T12:55:28.000Z</time>
      </trkpt>
      <trkpt lat="47.71116" lon="-3.35684">
        <ele>6</ele>
        <time>2020-08-21T12:55:29.000Z</time>
      </trkpt>
      <trkpt lat="47.71116" lon="-3.35684">
        <ele>6</ele>
        <time>2020-08-21T12:55:30.000Z</time>
      </trkpt>
      <trkpt lat="47.71116" lon="-3.35684">
        <ele>6</ele>
        <time>2020-08-21T12:55:31.000Z</time>
      </trkpt>
      <trkpt lat="47.71117" lon="-3.35683">
        <ele>6</ele>
        <time>2020-08-21T12:55:32.000Z</time>
      </trkpt>
      <trkpt lat="47.71117" lon="-3.35682">
        <ele>6</ele>
        <time>2020-08-21T12:55:33.000Z</time>
      </trkpt>
      <trkpt lat="47.71118" lon="-3.35681">
        <ele>6</ele>
        <time>2020-08-21T12:55:34.000Z</time>
      </trkpt>
      <trkpt lat="47.71119" lon="-3.3568">
        <ele>6</ele>
        <time>2020-08-21T12:55:35.000Z</time>
      </trkpt>
      <trkpt lat="47.7112" lon="-3.35679">
        <ele>6</ele>
        <time>2020-08-21T12:55:36.000Z</time>
      </trkpt>
      <trkpt lat="47.71121" lon="-3.35678">
        <ele>6</ele>
        <time>2020-08-21T12:55:37.000Z</time>
      </trkpt>
      <trkpt lat="47.71129" lon="-3.3567">
        <ele>6.3</ele>
        <time>2020-08-21T12:55:38.000Z</time>
      </trkpt>
      <trkpt lat="47.71156" lon="-3.35645">
        <ele>-0.3</ele>
        <time>2020-08-21T12:55:39.000Z</time>
      </trkpt>
      <trkpt lat="47.71156" lon="-3.35645">
        <ele>-0.3</ele>
        <time>2020-08-21T12:57:16.000Z</time>
      </trkpt>
      <trkpt lat="47.71161" lon="-3.3564">
        <ele>-0.9</ele>
        <time>2020-08-21T12:57:17.000Z</time>
      </trkpt>
      <trkpt lat="47.71161" lon="-3.3564">
        <ele>-0.9</ele>
        <time>2020-08-21T12:58:27.000Z</time>
      </trkpt>
      <trkpt lat="47.71161" lon="-3.3564">
        <ele>-0.9</ele>
        <time>2020-08-21T12:58:28.000Z</time>
      </trkpt>
      <trkpt lat="47.71161" lon="-3.3564">
        <ele>-1</ele>
        <time>2020-08-21T12:58:29.000Z</time>
      </trkpt>
      <trkpt lat="47.71161" lon="-3.3564">
        <ele>-1</ele>
        <time>2020-08-21T12:58:30.000Z</time>
      </trkpt>
      <trkpt lat="47.71162" lon="-3.3564">
        <ele>-1</ele>
        <time>2020-08-21T12:58:31.000Z</time>
      </trkpt>
      <trkpt lat="47.71162" lon="-3.3564">
        <ele>-0.9</ele>
        <time>2020-08-21T12:58:32.000Z</time>
      </trkpt>
      <trkpt lat="47.71162" lon="-3.35641">
        <ele>-0.9</ele>
        <time>2020-08-21T12:58:33.000Z</time>
      </trkpt>
      <trkpt lat="47.71161" lon="-3.35641">
        <ele>-0.9</ele>
        <time>2020-08-21T12:58:34.000Z</time>
      </trkpt>
      <trkpt lat="47.71161" lon="-3.35641">
        <ele>-0.9</ele>
        <time>2020-08-21T12:58:35.000Z</time>
      </trkpt>
      <trkpt lat="47.71161" lon="-3.35641">
        <ele>-0.9</ele>
        <time>2020-08-21T12:58:36.000Z</time>
      </trkpt>
      <trkpt lat="47.7116" lon="-3.35641">
        <ele>-0.8</ele>
        <time>2020-08-21T12:58:37.000Z</time>
      </trkpt>
      <trkpt lat="47.7116" lon="-3.35641">
        <ele>-0.8</ele>
        <time>2020-08-21T12:58:38.000Z</time>
      </trkpt>
      <trkpt lat="47.7116" lon="-3.3564">
        <ele>-0.8</ele>
        <time>2020-08-21T12:58:39.000Z</time>
      </trkpt>
      <trkpt lat="47.71159" lon="-3.3564">
        <ele>-0.8</ele>
        <time>2020-08-21T12:58:40.000Z</time>
      </trkpt>
      <trkpt lat="47.71159" lon="-3.35639">
        <ele>-0.9</ele>
        <time>2020-08-21T12:58:41.000Z</time>
      </trkpt>
      <trkpt lat="47.71159" lon="-3.35638">
        <ele>-0.9</ele>
        <time>2020-08-21T12:58:42.000Z</time>
      </trkpt>
      <trkpt lat="47.71159" lon="-3.35637">
        <ele>-1</ele>
        <time>2020-08-21T12:58:43.000Z</time>
      </trkpt>
      <trkpt lat="47.71159" lon="-3.35636">
        <ele>-1</ele>
        <time>2020-08-21T12:58:44.000Z</time>
      </trkpt>
      <trkpt lat="47.71159" lon="-3.35635">
        <ele>-1.1</ele>
        <time>2020-08-21T12:58:45.000Z</time>
      </trkpt>
      <trkpt lat="47.71159" lon="-3.35634">
        <ele>-1.1</ele>
        <time>2020-08-21T12:58:46.000Z</time>
      </trkpt>
      <trkpt lat="47.71159" lon="-3.35633">
        <ele>-1.2</ele>
        <time>2020-08-21T12:58:47.000Z</time>
      </trkpt>
      <trkpt lat="47.71159" lon="-3.35633">
        <ele>-1.2</ele>
        <time>2020-08-21T12:58:48.000Z</time>
      </trkpt>
      <trkpt lat="47.7116" lon="-3.35632">
        <ele>-1.2</ele>
        <time>2020-08-21T12:58:49.000Z</time>
      </trkpt>
      <trkpt lat="47.7116" lon="-3.35632">
        <ele>-1.2</ele>
        <time>2020-08-21T12:58:50.000Z</time>
      </trkpt>
      <trkpt lat="47.7116" lon="-3.35632">
        <ele>-1.2</ele>
        <time>2020-08-21T12:58:51.000Z</time>
      </trkpt>
      <trkpt lat="47.7116" lon="-3.35632">
        <ele>-1.2</ele>
        <time>2020-08-21T12:58:52.000Z</time>
      </trkpt>
      <trkpt lat="47.7116" lon="-3.35632">
        <ele>-1.2</ele>
        <time>2020-08-21T12:58:53.000Z</time>
      </trkpt>
      <trkpt lat="47.7116" lon="-3.35632">
        <ele>-1.2</ele>
        <time>2020-08-21T12:58:54.000Z</time>
      </trkpt>
      <trkpt lat="47.7116" lon="-3.35632">
        <ele>-1.2</ele>
        <time>2020-08-21T12:58:55.000Z</time>
      </trkpt>
      <trkpt lat="47.7116" lon="-3.35632">
        <ele>-1.2</ele>
        <time>2020-08-21T12:58:56.000Z</time>
      </trkpt>
      <trkpt lat="47.71159" lon="-3.35631">
        <ele>-1.2</ele>
        <time>2020-08-21T12:58:57.000Z</time>
      </trkpt>
      <trkpt lat="47.71159" lon="-3.35631">
        <ele>-1.3</ele>
        <time>2020-08-21T12:58:58.000Z</time>
      </trkpt>
      <trkpt lat="47.71159" lon="-3.3563">
        <ele>-1.3</ele>
        <time>2020-08-21T12:58:59.000Z</time>
      </trkpt>
      <trkpt lat="47.71158" lon="-3.35629">
        <ele>-1.3</ele>
        <time>2020-08-21T12:59:00.000Z</time>
      </trkpt>
      <trkpt lat="47.71158" lon="-3.35628">
        <ele>-1.3</ele>
        <time>2020-08-21T12:59:01.000Z</time>
      </trkpt>
      <trkpt lat="47.71158" lon="-3.35627">
        <ele>-1.3</ele>
        <time>2020-08-21T12:59:02.000Z</time>
      </trkpt>
      <trkpt lat="47.71157" lon="-3.35626">
        <ele>-1.4</ele>
        <time>2020-08-21T12:59:03.000Z</time>
      </trkpt>
      <trkpt lat="47.71157" lon="-3.35625">
        <ele>-1.4</ele>
        <time>2020-08-21T12:59:04.000Z</time>
      </trkpt>
      <trkpt lat="47.71157" lon="-3.35624">
        <ele>-1.4</ele>
        <time>2020-08-21T12:59:05.000Z</time>
      </trkpt>
      <trkpt lat="47.71156" lon="-3.35624">
        <ele>-1.5</ele>
        <time>2020-08-21T12:59:06.000Z</time>
      </trkpt>
      <trkpt lat="47.71156" lon="-3.35623">
        <ele>-1.5</ele>
        <time>2020-08-21T12:59:07.000Z</time>
      </trkpt>
      <trkpt lat="47.71156" lon="-3.35622">
        <ele>-1.5</ele>
        <time>2020-08-21T12:59:08.000Z</time>
      </trkpt>
      <trkpt lat="47.71156" lon="-3.35621">
        <ele>-1.6</ele>
        <time>2020-08-21T12:59:09.000Z</time>
      </trkpt>
      <trkpt lat="47.71156" lon="-3.3562">
        <ele>-1.6</ele>
        <time>2020-08-21T12:59:10.000Z</time>
      </trkpt>
      <trkpt lat="47.71157" lon="-3.35619">
        <ele>-1.7</ele>
        <time>2020-08-21T12:59:11.000Z</time>
      </trkpt>
      <trkpt lat="47.71157" lon="-3.35619">
        <ele>-1.7</ele>
        <time>2020-08-21T12:59:12.000Z</time>
      </trkpt>
      <trkpt lat="47.71157" lon="-3.35618">
        <ele>-1.8</ele>
        <time>2020-08-21T12:59:13.000Z</time>
      </trkpt>
      <trkpt lat="47.71158" lon="-3.35617">
        <ele>-1.9</ele>
        <time>2020-08-21T12:59:14.000Z</time>
      </trkpt>
      <trkpt lat="47.71158" lon="-3.35617">
        <ele>-1.9</ele>
        <time>2020-08-21T12:59:15.000Z</time>
      </trkpt>
      <trkpt lat="47.71159" lon="-3.35616">
        <ele>-2</ele>
        <time>2020-08-21T12:59:16.000Z</time>
      </trkpt>
      <trkpt lat="47.7116" lon="-3.35616">
        <ele>-2.1</ele>
        <time>2020-08-21T12:59:17.000Z</time>
      </trkpt>
      <trkpt lat="47.7116" lon="-3.35615">
        <ele>-2.1</ele>
        <time>2020-08-21T12:59:18.000Z</time>
      </trkpt>
      <trkpt lat="47.71161" lon="-3.35614">
        <ele>-2.2</ele>
        <time>2020-08-21T12:59:19.000Z</time>
      </trkpt>
      <trkpt lat="47.71162" lon="-3.35614">
        <ele>-2.3</ele>
        <time>2020-08-21T12:59:20.000Z</time>
      </trkpt>
      <trkpt lat="47.71163" lon="-3.35613">
        <ele>-2.3</ele>
        <time>2020-08-21T12:59:21.000Z</time>
      </trkpt>
      <trkpt lat="47.71164" lon="-3.35613">
        <ele>-2.4</ele>
        <time>2020-08-21T12:59:22.000Z</time>
      </trkpt>
      <trkpt lat="47.71164" lon="-3.35612">
        <ele>-2.5</ele>
        <time>2020-08-21T12:59:23.000Z</time>
      </trkpt>
      <trkpt lat="47.71165" lon="-3.35612">
        <ele>-2.6</ele>
        <time>2020-08-21T12:59:24.000Z</time>
      </trkpt>
      <trkpt lat="47.71166" lon="-3.35611">
        <ele>-2.6</ele>
        <time>2020-08-21T12:59:25.000Z</time>
      </trkpt>
      <trkpt lat="47.71167" lon="-3.3561">
        <ele>-4</ele>
        <time>2020-08-21T12:59:26.000Z</time>
      </trkpt>
      <trkpt lat="47.71168" lon="-3.3561">
        <ele>-4</ele>
        <time>2020-08-21T12:59:27.000Z</time>
      </trkpt>
      <trkpt lat="47.71169" lon="-3.35609">
        <ele>-4</ele>
        <time>2020-08-21T12:59:28.000Z</time>
      </trkpt>
      <trkpt lat="47.7117" lon="-3.35608">
        <ele>-4</ele>
        <time>2020-08-21T12:59:29.000Z</time>
      </trkpt>
      <trkpt lat="47.7117" lon="-3.35607">
        <ele>-4</ele>
        <time>2020-08-21T12:59:30.000Z</time>
      </trkpt>
      <trkpt lat="47.71171" lon="-3.35606">
        <ele>-4</ele>
        <time>2020-08-21T12:59:31.000Z</time>
      </trkpt>
      <trkpt lat="47.71172" lon="-3.35604">
        <ele>-4</ele>
        <time>2020-08-21T12:59:32.000Z</time>
      </trkpt>
      <trkpt lat="47.71173" lon="-3.35603">
        <ele>-4</ele>
        <time>2020-08-21T12:59:33.000Z</time>
      </trkpt>
      <trkpt lat="47.71173" lon="-3.35602">
        <ele>-4</ele>
        <time>2020-08-21T12:59:34.000Z</time>
      </trkpt>
      <trkpt lat="47.71174" lon="-3.356">
        <ele>-4</ele>
        <time>2020-08-21T12:59:35.000Z</time>
      </trkpt>
      <trkpt lat="47.71174" lon="-3.35599">
        <ele>-4</ele>
        <time>2020-08-21T12:59:36.000Z</time>
      </trkpt>
      <trkpt lat="47.71175" lon="-3.35598">
        <ele>-4</ele>
        <time>2020-08-21T12:59:37.000Z</time>
      </trkpt>
      <trkpt lat="47.71175" lon="-3.35597">
        <ele>-4</ele>
        <time>2020-08-21T12:59:38.000Z</time>
      </trkpt>
      <trkpt lat="47.71175" lon="-3.35596">
        <ele>-4</ele>
        <time>2020-08-21T12:59:39.000Z</time>
      </trkpt>
      <trkpt lat="47.71175" lon="-3.35595">
        <ele>-4</ele>
        <time>2020-08-21T12:59:40.000Z</time>
      </trkpt>
      <trkpt lat="47.71175" lon="-3.35595">
        <ele>-4</ele>
        <time>2020-08-21T12:59:41.000Z</time>
      </trkpt>
      <trkpt lat="47.71175" lon="-3.35594">
        <ele>-4</ele>
        <time>2020-08-21T12:59:42.000Z</time>
      </trkpt>
      <trkpt lat="47.71175" lon="-3.35593">
        <ele>-4</ele>
        <time>2020-08-21T12:59:43.000Z</time>
      </trkpt>
      <trkpt lat="47.71175" lon="-3.35593">
        <ele>-4</ele>
        <time>2020-08-21T12:59:44.000Z</time>
      </trkpt>
      <trkpt lat="47.71175" lon="-3.35592">
        <ele>-4</ele>
        <time>2020-08-21T12:59:45.000Z</time>
      </trkpt>
      <trkpt lat="47.71175" lon="-3.35592">
        <ele>-4</ele>
        <time>2020-08-21T12:59:46.000Z</time>
      </trkpt>
      <trkpt lat="47.71175" lon="-3.35591">
        <ele>-4</ele>
        <time>2020-08-21T12:59:47.000Z</time>
      </trkpt>
      <trkpt lat="47.71175" lon="-3.35591">
        <ele>-4</ele>
        <time>2020-08-21T12:59:48.000Z</time>
      </trkpt>
      <trkpt lat="47.71175" lon="-3.3559">
        <ele>-4</ele>
        <time>2020-08-21T12:59:49.000Z</time>
      </trkpt>
      <trkpt lat="47.71175" lon="-3.3559">
        <ele>-4</ele>
        <time>2020-08-21T12:59:50.000Z</time>
      </trkpt>
      <trkpt lat="47.71175" lon="-3.3559">
        <ele>-4</ele>
        <time>2020-08-21T12:59:51.000Z</time>
      </trkpt>
      <trkpt lat="47.71174" lon="-3.35589">
        <ele>-4</ele>
        <time>2020-08-21T12:59:52.000Z</time>
      </trkpt>
      <trkpt lat="47.71174" lon="-3.35589">
        <ele>-4</ele>
        <time>2020-08-21T12:59:53.000Z</time>
      </trkpt>
      <trkpt lat="47.71174" lon="-3.35589">
        <ele>-4</ele>
        <time>2020-08-21T12:59:54.000Z</time>
      </trkpt>
      <trkpt lat="47.71174" lon="-3.35589">
        <ele>-4</ele>
        <time>2020-08-21T12:59:55.000Z</time>
      </trkpt>
      <trkpt lat="47.71174" lon="-3.35589">
        <ele>-4</ele>
        <time>2020-08-21T12:59:56.000Z</time>
      </trkpt>
      <trkpt lat="47.71174" lon="-3.35589">
        <ele>-4</ele>
        <time>2020-08-21T12:59:57.000Z</time>
      </trkpt>
      <trkpt lat="47.71173" lon="-3.35589">
        <ele>-4</ele>
        <time>2020-08-21T12:59:58.000Z</time>
      </trkpt>
      <trkpt lat="47.71173" lon="-3.35589">
        <ele>-4</ele>
        <time>2020-08-21T12:59:59.000Z</time>
      </trkpt>
      <trkpt lat="47.71173" lon="-3.35589">
        <ele>-4</ele>
        <time>2020-08-21T13:00:00.000Z</time>
      </trkpt>
      <trkpt lat="47.71173" lon="-3.35589">
        <ele>-4</ele>
        <time>2020-08-21T13:00:01.000Z</time>
      </trkpt>
      <trkpt lat="47.71173" lon="-3.35589">
        <ele>-4</ele>
        <time>2020-08-21T13:00:02.000Z</time>
      </trkpt>
      <trkpt lat="47.71173" lon="-3.35589">
        <ele>-4</ele>
        <time>2020-08-21T13:00:03.000Z</time>
      </trkpt>
      <trkpt lat="47.71173" lon="-3.35589">
        <ele>-4</ele>
        <time>2020-08-21T13:00:04.000Z</time>
      </trkpt>
      <trkpt lat="47.71173" lon="-3.35589">
        <ele>-4</ele>
        <time>2020-08-21T13:00:05.000Z</time>
      </trkpt>
      <trkpt lat="47.71173" lon="-3.35589">
        <ele>-4</ele>
        <time>2020-08-21T13:00:06.000Z</time>
      </trkpt>
      <trkpt lat="47.71173" lon="-3.35589">
        <ele>-4</ele>
        <time>2020-08-21T13:00:07.000Z</time>
      </trkpt>
      <trkpt lat="47.71173" lon="-3.35589">
        <ele>-4</ele>
        <time>2020-08-21T13:00:08.000Z</time>
      </trkpt>
      <trkpt lat="47.71173" lon="-3.35589">
        <ele>-4</ele>
        <time>2020-08-21T13:00:09.000Z</time>
      </trkpt>
      <trkpt lat="47.71173" lon="-3.35589">
        <ele>-4</ele>
        <time>2020-08-21T13:00:10.000Z</time>
      </trkpt>
      <trkpt lat="47.71173" lon="-3.35589">
        <ele>-4</ele>
        <time>2020-08-21T13:00:11.000Z</time>
      </trkpt>
      <trkpt lat="47.71173" lon="-3.35589">
        <ele>-4</ele>
        <time>2020-08-21T13:00:12.000Z</time>
      </trkpt>
      <trkpt lat="47.71173" lon="-3.35589">
        <ele>-4</ele>
        <time>2020-08-21T13:00:13.000Z</time>
      </trkpt>
      <trkpt lat="47.71173" lon="-3.35589">
        <ele>-4</ele>
        <time>2020-08-21T13:00:14.000Z</time>
      </trkpt>
      <trkpt lat="47.71173" lon="-3.35589">
        <ele>-4</ele>
        <time>2020-08-21T13:00:15.000Z</time>
      </trkpt>
      <trkpt lat="47.71173" lon="-3.35589">
        <ele>-4</ele>
        <time>2020-08-21T13:00:16.000Z</time>
      </trkpt>
      <trkpt lat="47.71173" lon="-3.35589">
        <ele>-4</ele>
        <time>2020-08-21T13:00:17.000Z</time>
      </trkpt>
      <trkpt lat="47.71173" lon="-3.35589">
        <ele>-4</ele>
        <time>2020-08-21T13:00:18.000Z</time>
      </trkpt>
      <trkpt lat="47.71173" lon="-3.35589">
        <ele>-4</ele>
        <time>2020-08-21T13:00:19.000Z</time>
      </trkpt>
      <trkpt lat="47.71173" lon="-3.35589">
        <ele>-4</ele>
        <time>2020-08-21T13:00:20.000Z</time>
      </trkpt>
      <trkpt lat="47.71173" lon="-3.35589">
        <ele>-4</ele>
        <time>2020-08-21T13:00:21.000Z</time>
      </trkpt>
      <trkpt lat="47.71173" lon="-3.35589">
        <ele>-4</ele>
        <time>2020-08-21T13:00:22.000Z</time>
      </trkpt>
      <trkpt lat="47.71173" lon="-3.35589">
        <ele>-4</ele>
        <time>2020-08-21T13:00:23.000Z</time>
      </trkpt>
      <trkpt lat="47.71173" lon="-3.35589">
        <ele>-4</ele>
        <time>2020-08-21T13:00:24.000Z</time>
      </trkpt>
      <trkpt lat="47.71173" lon="-3.35589">
        <ele>-4</ele>
        <time>2020-08-21T13:00:25.000Z</time>
      </trkpt>
      <trkpt lat="47.71173" lon="-3.35589">
        <ele>-4</ele>
        <time>2020-08-21T13:00:26.000Z</time>
      </trkpt>
      <trkpt lat="47.71173" lon="-3.35589">
        <ele>-4</ele>
        <time>2020-08-21T13:00:27.000Z</time>
      </trkpt>
      <trkpt lat="47.71173" lon="-3.35589">
        <ele>-4</ele>
        <time>2020-08-21T13:00:28.000Z</time>
      </trkpt>
      <trkpt lat="47.71173" lon="-3.35589">
        <ele>-4</ele>
        <time>2020-08-21T13:00:29.000Z</time>
      </trkpt>
      <trkpt lat="47.71173" lon="-3.35589">
        <ele>-4</ele>
        <time>2020-08-21T13:00:30.000Z</time>
      </trkpt>
      <trkpt lat="47.71173" lon="-3.35589">
        <ele>-4</ele>
        <time>2020-08-21T13:00:31.000Z</time>
      </trkpt>
      <trkpt lat="47.71173" lon="-3.35589">
        <ele>-4</ele>
        <time>2020-08-21T13:00:32.000Z</time>
      </trkpt>
      <trkpt lat="47.71173" lon="-3.35589">
        <ele>-4</ele>
        <time>2020-08-21T13:00:33.000Z</time>
      </trkpt>
      <trkpt lat="47.71173" lon="-3.35589">
        <ele>-4</ele>
        <time>2020-08-21T13:00:34.000Z</time>
      </trkpt>
      <trkpt lat="47.71173" lon="-3.35589">
        <ele>-4</ele>
        <time>2020-08-21T13:00:35.000Z</time>
      </trkpt>
      <trkpt lat="47.71173" lon="-3.35589">
        <ele>-4</ele>
        <time>2020-08-21T13:00:36.000Z</time>
      </trkpt>
      <trkpt lat="47.71173" lon="-3.35589">
        <ele>-4</ele>
        <time>2020-08-21T13:00:37.000Z</time>
      </trkpt>
      <trkpt lat="47.71173" lon="-3.35589">
        <ele>-4</ele>
        <time>2020-08-21T13:00:38.000Z</time>
      </trkpt>
      <trkpt lat="47.71173" lon="-3.35589">
        <ele>-4</ele>
        <time>2020-08-21T13:00:39.000Z</time>
      </trkpt>
      <trkpt lat="47.71173" lon="-3.35589">
        <ele>-4</ele>
        <time>2020-08-21T13:00:40.000Z</time>
      </trkpt>
      <trkpt lat="47.71173" lon="-3.35589">
        <ele>-4</ele>
        <time>2020-08-21T13:00:41.000Z</time>
      </trkpt>
      <trkpt lat="47.71173" lon="-3.35589">
        <ele>-4</ele>
        <time>2020-08-21T13:00:42.000Z</time>
      </trkpt>
      <trkpt lat="47.71173" lon="-3.35589">
        <ele>-4</ele>
        <time>2020-08-21T13:00:43.000Z</time>
      </trkpt>
      <trkpt lat="47.71173" lon="-3.35589">
        <ele>-4</ele>
        <time>2020-08-21T13:00:44.000Z</time>
      </trkpt>
      <trkpt lat="47.71173" lon="-3.35589">
        <ele>-4</ele>
        <time>2020-08-21T13:00:45.000Z</time>
      </trkpt>
      <trkpt lat="47.71173" lon="-3.35589">
        <ele>-4</ele>
        <time>2020-08-21T13:00:46.000Z</time>
      </trkpt>
      <trkpt lat="47.71173" lon="-3.35589">
        <ele>-4</ele>
        <time>2020-08-21T13:00:47.000Z</time>
      </trkpt>
      <trkpt lat="47.71173" lon="-3.35589">
        <ele>-4</ele>
        <time>2020-08-21T13:00:48.000Z</time>
      </trkpt>
      <trkpt lat="47.71173" lon="-3.35589">
        <ele>-4</ele>
        <time>2020-08-21T13:00:49.000Z</time>
      </trkpt>
      <trkpt lat="47.71173" lon="-3.35589">
        <ele>-4</ele>
        <time>2020-08-21T13:00:50.000Z</time>
      </trkpt>
      <trkpt lat="47.71173" lon="-3.35589">
        <ele>-4</ele>
        <time>2020-08-21T13:00:51.000Z</time>
      </trkpt>
      <trkpt lat="47.71173" lon="-3.35589">
        <ele>-4</ele>
        <time>2020-08-21T13:00:52.000Z</time>
      </trkpt>
      <trkpt lat="47.71173" lon="-3.35589">
        <ele>-4</ele>
        <time>2020-08-21T13:00:53.000Z</time>
      </trkpt>
      <trkpt lat="47.71173" lon="-3.35589">
        <ele>-4</ele>
        <time>2020-08-21T13:00:54.000Z</time>
      </trkpt>
      <trkpt lat="47.71173" lon="-3.35589">
        <ele>-4</ele>
        <time>2020-08-21T13:00:55.000Z</time>
      </trkpt>
      <trkpt lat="47.71173" lon="-3.35589">
        <ele>-4</ele>
        <time>2020-08-21T13:00:56.000Z</time>
      </trkpt>
      <trkpt lat="47.71173" lon="-3.35589">
        <ele>-4</ele>
        <time>2020-08-21T13:00:57.000Z</time>
      </trkpt>
      <trkpt lat="47.71173" lon="-3.35589">
        <ele>-4</ele>
        <time>2020-08-21T13:00:58.000Z</time>
      </trkpt>
      <trkpt lat="47.71173" lon="-3.35589">
        <ele>-4</ele>
        <time>2020-08-21T13:00:59.000Z</time>
      </trkpt>
      <trkpt lat="47.71173" lon="-3.35589">
        <ele>-4</ele>
        <time>2020-08-21T13:01:00.000Z</time>
      </trkpt>
      <trkpt lat="47.71173" lon="-3.35589">
        <ele>-4</ele>
        <time>2020-08-21T13:01:01.000Z</time>
      </trkpt>
      <trkpt lat="47.71173" lon="-3.35589">
        <ele>-4</ele>
        <time>2020-08-21T13:01:02.000Z</time>
      </trkpt>
      <trkpt lat="47.71173" lon="-3.35589">
        <ele>-4</ele>
        <time>2020-08-21T13:01:03.000Z</time>
      </trkpt>
      <trkpt lat="47.71173" lon="-3.35589">
        <ele>-4</ele>
        <time>2020-08-21T13:01:04.000Z</time>
      </trkpt>
      <trkpt lat="47.71173" lon="-3.35589">
        <ele>-4</ele>
        <time>2020-08-21T13:01:05.000Z</time>
      </trkpt>
      <trkpt lat="47.71173" lon="-3.35589">
        <ele>-4</ele>
        <time>2020-08-21T13:01:06.000Z</time>
      </trkpt>
      <trkpt lat="47.71173" lon="-3.35589">
        <ele>-4</ele>
        <time>2020-08-21T13:01:07.000Z</time>
      </trkpt>
      <trkpt lat="47.71173" lon="-3.35589">
        <ele>-4</ele>
        <time>2020-08-21T13:01:08.000Z</time>
      </trkpt>
      <trkpt lat="47.71173" lon="-3.35588">
        <ele>-4</ele>
        <time>2020-08-21T13:01:09.000Z</time>
      </trkpt>
      <trkpt lat="47.71173" lon="-3.35588">
        <ele>-4</ele>
        <time>2020-08-21T13:01:10.000Z</time>
      </trkpt>
      <trkpt lat="47.71173" lon="-3.35588">
        <ele>-4</ele>
        <time>2020-08-21T13:01:11.000Z</time>
      </trkpt>
      <trkpt lat="47.71174" lon="-3.35588">
        <ele>-4</ele>
        <time>2020-08-21T13:01:12.000Z</time>
      </trkpt>
      <trkpt lat="47.71174" lon="-3.35588">
        <ele>-4</ele>
        <time>2020-08-21T13:01:13.000Z</time>
      </trkpt>
      <trkpt lat="47.71174" lon="-3.35587">
        <ele>-4</ele>
        <time>2020-08-21T13:01:14.000Z</time>
      </trkpt>
      <trkpt lat="47.71174" lon="-3.35587">
        <ele>-4</ele>
        <time>2020-08-21T13:01:15.000Z</time>
      </trkpt>
      <trkpt lat="47.71175" lon="-3.35586">
        <ele>-4</ele>
        <time>2020-08-21T13:01:16.000Z</time>
      </trkpt>
      <trkpt lat="47.71175" lon="-3.35586">
        <ele>-4</ele>
        <time>2020-08-21T13:01:17.000Z</time>
      </trkpt>
      <trkpt lat="47.71176" lon="-3.35585">
        <ele>-4</ele>
        <time>2020-08-21T13:01:18.000Z</time>
      </trkpt>
      <trkpt lat="47.71176" lon="-3.35584">
        <ele>-4</ele>
        <time>2020-08-21T13:01:19.000Z</time>
      </trkpt>
      <trkpt lat="47.71177" lon="-3.35583">
        <ele>-4</ele>
        <time>2020-08-21T13:01:20.000Z</time>
      </trkpt>
      <trkpt lat="47.71178" lon="-3.35582">
        <ele>-4</ele>
        <time>2020-08-21T13:01:21.000Z</time>
      </trkpt>
      <trkpt lat="47.71178" lon="-3.35581">
        <ele>-4</ele>
        <time>2020-08-21T13:01:22.000Z</time>
      </trkpt>
      <trkpt lat="47.71179" lon="-3.3558">
        <ele>-4</ele>
        <time>2020-08-21T13:01:23.000Z</time>
      </trkpt>
      <trkpt lat="47.7118" lon="-3.35578">
        <ele>-4</ele>
        <time>2020-08-21T13:01:24.000Z</time>
      </trkpt>
      <trkpt lat="47.71182" lon="-3.35577">
        <ele>-4</ele>
        <time>2020-08-21T13:01:25.000Z</time>
      </trkpt>
      <trkpt lat="47.71183" lon="-3.35575">
        <ele>-4</ele>
        <time>2020-08-21T13:01:26.000Z</time>
      </trkpt>
      <trkpt lat="47.71184" lon="-3.35574">
        <ele>-4</ele>
        <time>2020-08-21T13:01:27.000Z</time>
      </trkpt>
      <trkpt lat="47.71186" lon="-3.35572">
        <ele>-4</ele>
        <time>2020-08-21T13:01:28.000Z</time>
      </trkpt>
      <trkpt lat="47.71187" lon="-3.35571">
        <ele>-4</ele>
        <time>2020-08-21T13:01:29.000Z</time>
      </trkpt>
      <trkpt lat="47.71189" lon="-3.35569">
        <ele>-4</ele>
        <time>2020-08-21T13:01:30.000Z</time>
      </trkpt>
      <trkpt lat="47.71191" lon="-3.35567">
        <ele>-4</ele>
        <time>2020-08-21T13:01:31.000Z</time>
      </trkpt>
      <trkpt lat="47.71193" lon="-3.35565">
        <ele>-4</ele>
        <time>2020-08-21T13:01:32.000Z</time>
      </trkpt>
      <trkpt lat="47.71195" lon="-3.35562">
        <ele>-4</ele>
        <time>2020-08-21T13:01:33.000Z</time>
      </trkpt>
      <trkpt lat="47.71197" lon="-3.3556">
        <ele>-4</ele>
        <time>2020-08-21T13:01:34.000Z</time>
      </trkpt>
      <trkpt lat="47.71199" lon="-3.35557">
        <ele>-4</ele>
        <time>2020-08-21T13:01:35.000Z</time>
      </trkpt>
      <trkpt lat="47.712" lon="-3.35554">
        <ele>-4</ele>
        <time>2020-08-21T13:01:36.000Z</time>
      </trkpt>
      <trkpt lat="47.71202" lon="-3.35552">
        <ele>-4</ele>
        <time>2020-08-21T13:01:37.000Z</time>
      </trkpt>
      <trkpt lat="47.71203" lon="-3.35549">
        <ele>-4</ele>
        <time>2020-08-21T13:01:38.000Z</time>
      </trkpt>
      <trkpt lat="47.71205" lon="-3.35547">
        <ele>-4</ele>
        <time>2020-08-21T13:01:39.000Z</time>
      </trkpt>
      <trkpt lat="47.71206" lon="-3.35546">
        <ele>-4</ele>
        <time>2020-08-21T13:01:40.000Z</time>
      </trkpt>
      <trkpt lat="47.71207" lon="-3.35544">
        <ele>-4</ele>
        <time>2020-08-21T13:01:41.000Z</time>
      </trkpt>
      <trkpt lat="47.71207" lon="-3.35542">
        <ele>-4</ele>
        <time>2020-08-21T13:01:42.000Z</time>
      </trkpt>
      <trkpt lat="47.71208" lon="-3.3554">
        <ele>-4</ele>
        <time>2020-08-21T13:01:43.000Z</time>
      </trkpt>
      <trkpt lat="47.71208" lon="-3.35539">
        <ele>-4</ele>
        <time>2020-08-21T13:01:44.000Z</time>
      </trkpt>
      <trkpt lat="47.71209" lon="-3.35537">
        <ele>-4</ele>
        <time>2020-08-21T13:01:45.000Z</time>
      </trkpt>
      <trkpt lat="47.71209" lon="-3.35536">
        <ele>-4</ele>
        <time>2020-08-21T13:01:46.000Z</time>
      </trkpt>
      <trkpt lat="47.71209" lon="-3.35535">
        <ele>-4</ele>
        <time>2020-08-21T13:01:47.000Z</time>
      </trkpt>
      <trkpt lat="47.7121" lon="-3.35534">
        <ele>-4</ele>
        <time>2020-08-21T13:01:48.000Z</time>
      </trkpt>
      <trkpt lat="47.7121" lon="-3.35533">
        <ele>-4</ele>
        <time>2020-08-21T13:01:49.000Z</time>
      </trkpt>
      <trkpt lat="47.7121" lon="-3.35532">
        <ele>-4</ele>
        <time>2020-08-21T13:01:50.000Z</time>
      </trkpt>
      <trkpt lat="47.7121" lon="-3.35532">
        <ele>-4</ele>
        <time>2020-08-21T13:01:51.000Z</time>
      </trkpt>
      <trkpt lat="47.7121" lon="-3.35532">
        <ele>-4</ele>
        <time>2020-08-21T13:01:52.000Z</time>
      </trkpt>
      <trkpt lat="47.7121" lon="-3.35532">
        <ele>-4</ele>
        <time>2020-08-21T13:01:53.000Z</time>
      </trkpt>
      <trkpt lat="47.7121" lon="-3.35532">
        <ele>-4</ele>
        <time>2020-08-21T13:01:54.000Z</time>
      </trkpt>
      <trkpt lat="47.7121" lon="-3.35533">
        <ele>-4</ele>
        <time>2020-08-21T13:01:55.000Z</time>
      </trkpt>
      <trkpt lat="47.71209" lon="-3.35534">
        <ele>-4</ele>
        <time>2020-08-21T13:01:56.000Z</time>
      </trkpt>
      <trkpt lat="47.71209" lon="-3.35535">
        <ele>-4</ele>
        <time>2020-08-21T13:01:57.000Z</time>
      </trkpt>
      <trkpt lat="47.71209" lon="-3.35537">
        <ele>-4</ele>
        <time>2020-08-21T13:01:58.000Z</time>
      </trkpt>
      <trkpt lat="47.71209" lon="-3.35539">
        <ele>-4</ele>
        <time>2020-08-21T13:01:59.000Z</time>
      </trkpt>
      <trkpt lat="47.71209" lon="-3.3554">
        <ele>-4</ele>
        <time>2020-08-21T13:02:00.000Z</time>
      </trkpt>
      <trkpt lat="47.71209" lon="-3.35542">
        <ele>-4</ele>
        <time>2020-08-21T13:02:01.000Z</time>
      </trkpt>
      <trkpt lat="47.71209" lon="-3.35545">
        <ele>-4</ele>
        <time>2020-08-21T13:02:02.000Z</time>
      </trkpt>
      <trkpt lat="47.71209" lon="-3.35547">
        <ele>-4</ele>
        <time>2020-08-21T13:02:03.000Z</time>
      </trkpt>
      <trkpt lat="47.7121" lon="-3.35549">
        <ele>-4</ele>
        <time>2020-08-21T13:02:04.000Z</time>
      </trkpt>
      <trkpt lat="47.7121" lon="-3.35552">
        <ele>-4</ele>
        <time>2020-08-21T13:02:05.000Z</time>
      </trkpt>
      <trkpt lat="47.71211" lon="-3.35554">
        <ele>-4</ele>
        <time>2020-08-21T13:02:06.000Z</time>
      </trkpt>
      <trkpt lat="47.71212" lon="-3.35557">
        <ele>-4</ele>
        <time>2020-08-21T13:02:07.000Z</time>
      </trkpt>
      <trkpt lat="47.71213" lon="-3.35559">
        <ele>-4</ele>
        <time>2020-08-21T13:02:08.000Z</time>
      </trkpt>
      <trkpt lat="47.71214" lon="-3.35562">
        <ele>-4</ele>
        <time>2020-08-21T13:02:09.000Z</time>
      </trkpt>
      <trkpt lat="47.71215" lon="-3.35565">
        <ele>-4</ele>
        <time>2020-08-21T13:02:10.000Z</time>
      </trkpt>
      <trkpt lat="47.71216" lon="-3.35568">
        <ele>-4</ele>
        <time>2020-08-21T13:02:11.000Z</time>
      </trkpt>
      <trkpt lat="47.71217" lon="-3.35571">
        <ele>-4</ele>
        <time>2020-08-21T13:02:12.000Z</time>
      </trkpt>
      <trkpt lat="47.71219" lon="-3.35573">
        <ele>-4</ele>
        <time>2020-08-21T13:02:13.000Z</time>
      </trkpt>
      <trkpt lat="47.7122" lon="-3.35576">
        <ele>-4</ele>
        <time>2020-08-21T13:02:14.000Z</time>
      </trkpt>
      <trkpt lat="47.71222" lon="-3.35579">
        <ele>-4</ele>
        <time>2020-08-21T13:02:15.000Z</time>
      </trkpt>
      <trkpt lat="47.71224" lon="-3.35582">
        <ele>-4</ele>
        <time>2020-08-21T13:02:16.000Z</time>
      </trkpt>
      <trkpt lat="47.71225" lon="-3.35585">
        <ele>-4</ele>
        <time>2020-08-21T13:02:17.000Z</time>
      </trkpt>
      <trkpt lat="47.71227" lon="-3.35588">
        <ele>-4</ele>
        <time>2020-08-21T13:02:18.000Z</time>
      </trkpt>
      <trkpt lat="47.71229" lon="-3.3559">
        <ele>-4</ele>
        <time>2020-08-21T13:02:19.000Z</time>
      </trkpt>
      <trkpt lat="47.71231" lon="-3.35593">
        <ele>-4</ele>
        <time>2020-08-21T13:02:20.000Z</time>
      </trkpt>
      <trkpt lat="47.71234" lon="-3.35596">
        <ele>-4</ele>
        <time>2020-08-21T13:02:21.000Z</time>
      </trkpt>
      <trkpt lat="47.71236" lon="-3.35599">
        <ele>-4</ele>
        <time>2020-08-21T13:02:22.000Z</time>
      </trkpt>
      <trkpt lat="47.71238" lon="-3.35602">
        <ele>-4</ele>
        <time>2020-08-21T13:02:23.000Z</time>
      </trkpt>
      <trkpt lat="47.7124" lon="-3.35605">
        <ele>-4</ele>
        <time>2020-08-21T13:02:24.000Z</time>
      </trkpt>
      <trkpt lat="47.71242" lon="-3.35608">
        <ele>-4</ele>
        <time>2020-08-21T13:02:25.000Z</time>
      </trkpt>
      <trkpt lat="47.71245" lon="-3.3561">
        <ele>-4</ele>
        <time>2020-08-21T13:02:26.000Z</time>
      </trkpt>
      <trkpt lat="47.71247" lon="-3.35613">
        <ele>-4</ele>
        <time>2020-08-21T13:02:27.000Z</time>
      </trkpt>
      <trkpt lat="47.71249" lon="-3.35616">
        <ele>-4</ele>
        <time>2020-08-21T13:02:28.000Z</time>
      </trkpt>
      <trkpt lat="47.71251" lon="-3.3562">
        <ele>-2</ele>
        <time>2020-08-21T13:02:29.000Z</time>
      </trkpt>
      <trkpt lat="47.71254" lon="-3.35623">
        <ele>-2</ele>
        <time>2020-08-21T13:02:30.000Z</time>
      </trkpt>
      <trkpt lat="47.71256" lon="-3.35626">
        <ele>-2</ele>
        <time>2020-08-21T13:02:31.000Z</time>
      </trkpt>
      <trkpt lat="47.71258" lon="-3.35629">
        <ele>-2</ele>
        <time>2020-08-21T13:02:32.000Z</time>
      </trkpt>
      <trkpt lat="47.7126" lon="-3.35632">
        <ele>-2</ele>
        <time>2020-08-21T13:02:33.000Z</time>
      </trkpt>
      <trkpt lat="47.71262" lon="-3.35636">
        <ele>-2</ele>
        <time>2020-08-21T13:02:34.000Z</time>
      </trkpt>
      <trkpt lat="47.71263" lon="-3.35639">
        <ele>-2</ele>
        <time>2020-08-21T13:02:35.000Z</time>
      </trkpt>
      <trkpt lat="47.71265" lon="-3.35643">
        <ele>-2</ele>
        <time>2020-08-21T13:02:36.000Z</time>
      </trkpt>
      <trkpt lat="47.71267" lon="-3.35646">
        <ele>-2</ele>
        <time>2020-08-21T13:02:37.000Z</time>
      </trkpt>
      <trkpt lat="47.71269" lon="-3.3565">
        <ele>-2</ele>
        <time>2020-08-21T13:02:38.000Z</time>
      </trkpt>
      <trkpt lat="47.71271" lon="-3.35654">
        <ele>-2</ele>
        <time>2020-08-21T13:02:39.000Z</time>
      </trkpt>
      <trkpt lat="47.71272" lon="-3.35657">
        <ele>-2</ele>
        <time>2020-08-21T13:02:40.000Z</time>
      </trkpt>
      <trkpt lat="47.71274" lon="-3.35661">
        <ele>-2</ele>
        <time>2020-08-21T13:02:41.000Z</time>
      </trkpt>
      <trkpt lat="47.71276" lon="-3.35665">
        <ele>-2</ele>
        <time>2020-08-21T13:02:42.000Z</time>
      </trkpt>
      <trkpt lat="47.71277" lon="-3.35669">
        <ele>-2</ele>
        <time>2020-08-21T13:02:43.000Z</time>
      </trkpt>
      <trkpt lat="47.71279" lon="-3.35673">
        <ele>-2</ele>
        <time>2020-08-21T13:02:44.000Z</time>
      </trkpt>
      <trkpt lat="47.7128" lon="-3.35677">
        <ele>-2</ele>
        <time>2020-08-21T13:02:45.000Z</time>
      </trkpt>
      <trkpt lat="47.71282" lon="-3.35681">
        <ele>-2</ele>
        <time>2020-08-21T13:02:46.000Z</time>
      </trkpt>
      <trkpt lat="47.71283" lon="-3.35685">
        <ele>-2</ele>
        <time>2020-08-21T13:02:47.000Z</time>
      </trkpt>
      <trkpt lat="47.71285" lon="-3.3569">
        <ele>-2</ele>
        <time>2020-08-21T13:02:48.000Z</time>
      </trkpt>
      <trkpt lat="47.71286" lon="-3.35694">
        <ele>-2</ele>
        <time>2020-08-21T13:02:49.000Z</time>
      </trkpt>
      <trkpt lat="47.71288" lon="-3.35698">
        <ele>-2</ele>
        <time>2020-08-21T13:02:50.000Z</time>
      </trkpt>
      <trkpt lat="47.71289" lon="-3.35703">
        <ele>-2</ele>
        <time>2020-08-21T13:02:51.000Z</time>
      </trkpt>
      <trkpt lat="47.71291" lon="-3.35707">
        <ele>-2</ele>
        <time>2020-08-21T13:02:52.000Z</time>
      </trkpt>
      <trkpt lat="47.71292" lon="-3.35712">
        <ele>-2</ele>
        <time>2020-08-21T13:02:53.000Z</time>
      </trkpt>
      <trkpt lat="47.71294" lon="-3.35716">
        <ele>-2</ele>
        <time>2020-08-21T13:02:54.000Z</time>
      </trkpt>
      <trkpt lat="47.71295" lon="-3.35721">
        <ele>-2</ele>
        <time>2020-08-21T13:02:55.000Z</time>
      </trkpt>
      <trkpt lat="47.71297" lon="-3.35725">
        <ele>-2</ele>
        <time>2020-08-21T13:02:56.000Z</time>
      </trkpt>
      <trkpt lat="47.71298" lon="-3.3573">
        <ele>-2</ele>
        <time>2020-08-21T13:02:57.000Z</time>
      </trkpt>
      <trkpt lat="47.713" lon="-3.35735">
        <ele>-2</ele>
        <time>2020-08-21T13:02:58.000Z</time>
      </trkpt>
      <trkpt lat="47.71301" lon="-3.3574">
        <ele>-2</ele>
        <time>2020-08-21T13:02:59.000Z</time>
      </trkpt>
      <trkpt lat="47.71303" lon="-3.35745">
        <ele>-2</ele>
        <time>2020-08-21T13:03:00.000Z</time>
      </trkpt>
      <trkpt lat="47.71304" lon="-3.3575">
        <ele>-2</ele>
        <time>2020-08-21T13:03:01.000Z</time>
      </trkpt>
      <trkpt lat="47.71305" lon="-3.35755">
        <time>2020-08-21T13:03:02.000Z</time>
      </trkpt>
      <trkpt lat="47.71307" lon="-3.3576">
        <time>2020-08-21T13:03:03.000Z</time>
      </trkpt>
      <trkpt lat="47.71308" lon="-3.35765">
        <time>2020-08-21T13:03:04.000Z</time>
      </trkpt>
      <trkpt lat="47.7131" lon="-3.3577">
        <time>2020-08-21T13:03:05.000Z</time>
      </trkpt>
      <trkpt lat="47.71311" lon="-3.35775">
        <time>2020-08-21T13:03:06.000Z</time>
      </trkpt>
      <trkpt lat="47.71313" lon="-3.3578">
        <time>2020-08-21T13:03:07.000Z</time>
      </trkpt>
      <trkpt lat="47.71314" lon="-3.35786">
        <time>2020-08-21T13:03:08.000Z</time>
      </trkpt>
      <trkpt lat="47.71315" lon="-3.35791">
        <time>2020-08-21T13:03:09.000Z</time>
      </trkpt>
      <trkpt lat="47.71317" lon="-3.35796">
        <time>2020-08-21T13:03:10.000Z</time>
      </trkpt>
      <trkpt lat="47.71318" lon="-3.35801">
        <time>2020-08-21T13:03:11.000Z</time>
      </trkpt>
      <trkpt lat="47.71319" lon="-3.35807">
        <time>2020-08-21T13:03:12.000Z</time>
      </trkpt>
      <trkpt lat="47.7132" lon="-3.35812">
        <time>2020-08-21T13:03:13.000Z</time>
      </trkpt>
      <trkpt lat="47.71321" lon="-3.35817">
        <time>2020-08-21T13:03:14.000Z</time>
      </trkpt>
      <trkpt lat="47.71322" lon="-3.35823">
        <time>2020-08-21T13:03:15.000Z</time>
      </trkpt>
      <trkpt lat="47.71323" lon="-3.35828">
        <time>2020-08-21T13:03:16.000Z</time>
      </trkpt>
      <trkpt lat="47.71324" lon="-3.35833">
        <time>2020-08-21T13:03:17.000Z</time>
      </trkpt>
      <trkpt lat="47.71324" lon="-3.35839">
        <ele>4.3</ele>
        <time>2020-08-21T13:03:18.000Z</time>
      </trkpt>
      <trkpt lat="47.71325" lon="-3.35844">
        <ele>4.3</ele>
        <time>2020-08-21T13:03:19.000Z</time>
      </trkpt>
      <trkpt lat="47.71326" lon="-3.35849">
        <ele>4.3</ele>
        <time>2020-08-21T13:03:20.000Z</time>
      </trkpt>
      <trkpt lat="47.71326" lon="-3.35855">
        <ele>4.3</ele>
        <time>2020-08-21T13:03:21.000Z</time>
      </trkpt>
      <trkpt lat="47.71327" lon="-3.3586">
        <ele>4.3</ele>
        <time>2020-08-21T13:03:22.000Z</time>
      </trkpt>
      <trkpt lat="47.71328" lon="-3.35865">
        <ele>4.3</ele>
        <time>2020-08-21T13:03:23.000Z</time>
      </trkpt>
      <trkpt lat="47.71328" lon="-3.35871">
        <ele>4.3</ele>
        <time>2020-08-21T13:03:24.000Z</time>
      </trkpt>
      <trkpt lat="47.71329" lon="-3.35876">
        <ele>4.3</ele>
        <time>2020-08-21T13:03:25.000Z</time>
      </trkpt>
      <trkpt lat="47.7133" lon="-3.35881">
        <ele>4.3</ele>
        <time>2020-08-21T13:03:26.000Z</time>
      </trkpt>
      <trkpt lat="47.7133" lon="-3.35886">
        <ele>4.3</ele>
        <time>2020-08-21T13:03:27.000Z</time>
      </trkpt>
      <trkpt lat="47.71331" lon="-3.35892">
        <ele>4.3</ele>
        <time>2020-08-21T13:03:28.000Z</time>
      </trkpt>
      <trkpt lat="47.71332" lon="-3.35897">
        <ele>4.3</ele>
        <time>2020-08-21T13:03:29.000Z</time>
      </trkpt>
      <trkpt lat="47.71333" lon="-3.35902">
        <ele>4.3</ele>
        <time>2020-08-21T13:03:30.000Z</time>
      </trkpt>
      <trkpt lat="47.71334" lon="-3.35907">
        <time>2020-08-21T13:03:31.000Z</time>
      </trkpt>
      <trkpt lat="47.71335" lon="-3.35912">
        <time>2020-08-21T13:03:32.000Z</time>
      </trkpt>
      <trkpt lat="47.71337" lon="-3.35917">
        <ele>4.3</ele>
        <time>2020-08-21T13:03:33.000Z</time>
      </trkpt>
      <trkpt lat="47.71338" lon="-3.35922">
        <ele>4.3</ele>
        <time>2020-08-21T13:03:34.000Z</time>
      </trkpt>
      <trkpt lat="47.71339" lon="-3.35927">
        <ele>4.3</ele>
        <time>2020-08-21T13:03:35.000Z</time>
      </trkpt>
      <trkpt lat="47.71341" lon="-3.35932">
        <ele>4.3</ele>
        <time>2020-08-21T13:03:36.000Z</time>
      </trkpt>
      <trkpt lat="47.71342" lon="-3.35937">
        <ele>4.3</ele>
        <time>2020-08-21T13:03:37.000Z</time>
      </trkpt>
      <trkpt lat="47.71344" lon="-3.35941">
        <ele>4.3</ele>
        <time>2020-08-21T13:03:38.000Z</time>
      </trkpt>
      <trkpt lat="47.71346" lon="-3.35946">
        <ele>4.3</ele>
        <time>2020-08-21T13:03:39.000Z</time>
      </trkpt>
      <trkpt lat="47.71348" lon="-3.3595">
        <ele>4.3</ele>
        <time>2020-08-21T13:03:40.000Z</time>
      </trkpt>
      <trkpt lat="47.7135" lon="-3.35955">
        <ele>4.3</ele>
        <time>2020-08-21T13:03:41.000Z</time>
      </trkpt>
      <trkpt lat="47.71352" lon="-3.35959">
        <ele>4.3</ele>
        <time>2020-08-21T13:03:42.000Z</time>
      </trkpt>
      <trkpt lat="47.71354" lon="-3.35963">
        <ele>4.3</ele>
        <time>2020-08-21T13:03:43.000Z</time>
      </trkpt>
      <trkpt lat="47.71357" lon="-3.35967">
        <ele>4.3</ele>
        <time>2020-08-21T13:03:44.000Z</time>
      </trkpt>
      <trkpt lat="47.71359" lon="-3.35971">
        <ele>4.3</ele>
        <time>2020-08-21T13:03:45.000Z</time>
      </trkpt>
      <trkpt lat="47.71362" lon="-3.35974">
        <ele>4.3</ele>
        <time>2020-08-21T13:03:46.000Z</time>
      </trkpt>
      <trkpt lat="47.71364" lon="-3.35978">
        <ele>4.3</ele>
        <time>2020-08-21T13:03:47.000Z</time>
      </trkpt>
      <trkpt lat="47.71367" lon="-3.35981">
        <ele>4.3</ele>
        <time>2020-08-21T13:03:48.000Z</time>
      </trkpt>
      <trkpt lat="47.7137" lon="-3.35985">
        <ele>4.3</ele>
        <time>2020-08-21T13:03:49.000Z</time>
      </trkpt>
      <trkpt lat="47.71373" lon="-3.35988">
        <ele>4.3</ele>
        <time>2020-08-21T13:03:50.000Z</time>
      </trkpt>
      <trkpt lat="47.71376" lon="-3.35991">
        <ele>4.3</ele>
        <time>2020-08-21T13:03:51.000Z</time>
      </trkpt>
      <trkpt lat="47.71379" lon="-3.35994">
        <ele>4.3</ele>
        <time>2020-08-21T13:03:52.000Z</time>
      </trkpt>
      <trkpt lat="47.71382" lon="-3.35997">
        <ele>4.3</ele>
        <time>2020-08-21T13:03:53.000Z</time>
      </trkpt>
      <trkpt lat="47.71385" lon="-3.36">
        <ele>4.3</ele>
        <time>2020-08-21T13:03:54.000Z</time>
      </trkpt>
      <trkpt lat="47.71388" lon="-3.36002">
        <ele>5.5</ele>
        <time>2020-08-21T13:03:55.000Z</time>
      </trkpt>
      <trkpt lat="47.71392" lon="-3.36005">
        <ele>5.5</ele>
        <time>2020-08-21T13:03:56.000Z</time>
      </trkpt>
      <trkpt lat="47.71395" lon="-3.36007">
        <ele>5.5</ele>
        <time>2020-08-21T13:03:57.000Z</time>
      </trkpt>
      <trkpt lat="47.71398" lon="-3.36009">
        <ele>5.5</ele>
        <time>2020-08-21T13:03:58.000Z</time>
      </trkpt>
      <trkpt lat="47.71401" lon="-3.36012">
        <ele>5.5</ele>
        <time>2020-08-21T13:03:59.000Z</time>
      </trkpt>
      <trkpt lat="47.71405" lon="-3.36014">
        <ele>5.5</ele>
        <time>2020-08-21T13:04:00.000Z</time>
      </trkpt>
      <trkpt lat="47.71408" lon="-3.36016">
        <ele>5.5</ele>
        <time>2020-08-21T13:04:01.000Z</time>
      </trkpt>
      <trkpt lat="47.71411" lon="-3.36018">
        <ele>5.5</ele>
        <time>2020-08-21T13:04:02.000Z</time>
      </trkpt>
      <trkpt lat="47.71415" lon="-3.3602">
        <ele>5.5</ele>
        <time>2020-08-21T13:04:03.000Z</time>
      </trkpt>
      <trkpt lat="47.71418" lon="-3.36022">
        <ele>5</ele>
        <time>2020-08-21T13:04:04.000Z</time>
      </trkpt>
      <trkpt lat="47.71421" lon="-3.36024">
        <ele>5</ele>
        <time>2020-08-21T13:04:05.000Z</time>
      </trkpt>
      <trkpt lat="47.71425" lon="-3.36026">
        <ele>5</ele>
        <time>2020-08-21T13:04:06.000Z</time>
      </trkpt>
      <trkpt lat="47.71428" lon="-3.36028">
        <ele>5</ele>
        <time>2020-08-21T13:04:07.000Z</time>
      </trkpt>
      <trkpt lat="47.71431" lon="-3.36029">
        <ele>5</ele>
        <time>2020-08-21T13:04:08.000Z</time>
      </trkpt>
      <trkpt lat="47.71435" lon="-3.36031">
        <ele>5</ele>
        <time>2020-08-21T13:04:09.000Z</time>
      </trkpt>
      <trkpt lat="47.71438" lon="-3.36033">
        <ele>5</ele>
        <time>2020-08-21T13:04:10.000Z</time>
      </trkpt>
      <trkpt lat="47.71441" lon="-3.36035">
        <ele>5</ele>
        <time>2020-08-21T13:04:11.000Z</time>
      </trkpt>
      <trkpt lat="47.71445" lon="-3.36038">
        <ele>5</ele>
        <time>2020-08-21T13:04:12.000Z</time>
      </trkpt>
      <trkpt lat="47.71448" lon="-3.3604">
        <ele>5</ele>
        <time>2020-08-21T13:04:13.000Z</time>
      </trkpt>
      <trkpt lat="47.71451" lon="-3.36042">
        <ele>5</ele>
        <time>2020-08-21T13:04:14.000Z</time>
      </trkpt>
      <trkpt lat="47.71455" lon="-3.36044">
        <ele>5</ele>
        <time>2020-08-21T13:04:15.000Z</time>
      </trkpt>
      <trkpt lat="47.71458" lon="-3.36047">
        <ele>5</ele>
        <time>2020-08-21T13:04:16.000Z</time>
      </trkpt>
      <trkpt lat="47.71461" lon="-3.36049">
        <ele>5</ele>
        <time>2020-08-21T13:04:17.000Z</time>
      </trkpt>
      <trkpt lat="47.71464" lon="-3.36051">
        <ele>5</ele>
        <time>2020-08-21T13:04:18.000Z</time>
      </trkpt>
      <trkpt lat="47.71468" lon="-3.36054">
        <ele>5</ele>
        <time>2020-08-21T13:04:19.000Z</time>
      </trkpt>
      <trkpt lat="47.71471" lon="-3.36056">
        <ele>5</ele>
        <time>2020-08-21T13:04:20.000Z</time>
      </trkpt>
      <trkpt lat="47.71474" lon="-3.36059">
        <ele>5</ele>
        <time>2020-08-21T13:04:21.000Z</time>
      </trkpt>
      <trkpt lat="47.71477" lon="-3.36062">
        <ele>5</ele>
        <time>2020-08-21T13:04:22.000Z</time>
      </trkpt>
      <trkpt lat="47.7148" lon="-3.36064">
        <ele>5</ele>
        <time>2020-08-21T13:04:23.000Z</time>
      </trkpt>
      <trkpt lat="47.71484" lon="-3.36067">
        <ele>5</ele>
        <time>2020-08-21T13:04:24.000Z</time>
      </trkpt>
      <trkpt lat="47.71487" lon="-3.3607">
        <ele>5</ele>
        <time>2020-08-21T13:04:25.000Z</time>
      </trkpt>
      <trkpt lat="47.7149" lon="-3.36073">
        <ele>5</ele>
        <time>2020-08-21T13:04:26.000Z</time>
      </trkpt>
      <trkpt lat="47.71493" lon="-3.36075">
        <ele>5</ele>
        <time>2020-08-21T13:04:27.000Z</time>
      </trkpt>
      <trkpt lat="47.71496" lon="-3.36078">
        <ele>5</ele>
        <time>2020-08-21T13:04:28.000Z</time>
      </trkpt>
      <trkpt lat="47.71499" lon="-3.36081">
        <ele>5</ele>
        <time>2020-08-21T13:04:29.000Z</time>
      </trkpt>
      <trkpt lat="47.71502" lon="-3.36084">
        <ele>5.3</ele>
        <time>2020-08-21T13:04:30.000Z</time>
      </trkpt>
      <trkpt lat="47.71504" lon="-3.36088">
        <ele>5.3</ele>
        <time>2020-08-21T13:04:31.000Z</time>
      </trkpt>
      <trkpt lat="47.71507" lon="-3.36091">
        <ele>5.3</ele>
        <time>2020-08-21T13:04:32.000Z</time>
      </trkpt>
      <trkpt lat="47.7151" lon="-3.36094">
        <ele>5.3</ele>
        <time>2020-08-21T13:04:33.000Z</time>
      </trkpt>
      <trkpt lat="47.71513" lon="-3.36097">
        <ele>5.3</ele>
        <time>2020-08-21T13:04:34.000Z</time>
      </trkpt>
      <trkpt lat="47.71515" lon="-3.36101">
        <ele>5.3</ele>
        <time>2020-08-21T13:04:35.000Z</time>
      </trkpt>
      <trkpt lat="47.71518" lon="-3.36104">
        <ele>5.3</ele>
        <time>2020-08-21T13:04:36.000Z</time>
      </trkpt>
      <trkpt lat="47.71521" lon="-3.36107">
        <ele>5.3</ele>
        <time>2020-08-21T13:04:37.000Z</time>
      </trkpt>
      <trkpt lat="47.71524" lon="-3.36111">
        <ele>5.3</ele>
        <time>2020-08-21T13:04:38.000Z</time>
      </trkpt>
      <trkpt lat="47.71526" lon="-3.36114">
        <ele>5.3</ele>
        <time>2020-08-21T13:04:39.000Z</time>
      </trkpt>
      <trkpt lat="47.71529" lon="-3.36117">
        <ele>5.3</ele>
        <time>2020-08-21T13:04:40.000Z</time>
      </trkpt>
      <trkpt lat="47.71532" lon="-3.3612">
        <ele>5.3</ele>
        <time>2020-08-21T13:04:41.000Z</time>
      </trkpt>
      <trkpt lat="47.71535" lon="-3.36123">
        <ele>5.3</ele>
        <time>2020-08-21T13:04:42.000Z</time>
      </trkpt>
      <trkpt lat="47.71538" lon="-3.36126">
        <ele>5.3</ele>
        <time>2020-08-21T13:04:43.000Z</time>
      </trkpt>
      <trkpt lat="47.71541" lon="-3.36129">
        <ele>5.3</ele>
        <time>2020-08-21T13:04:44.000Z</time>
      </trkpt>
      <trkpt lat="47.71544" lon="-3.36132">
        <ele>5.3</ele>
        <time>2020-08-21T13:04:45.000Z</time>
      </trkpt>
      <trkpt lat="47.71547" lon="-3.36135">
        <ele>5.3</ele>
        <time>2020-08-21T13:04:46.000Z</time>
      </trkpt>
      <trkpt lat="47.7155" lon="-3.36137">
        <ele>5.3</ele>
        <time>2020-08-21T13:04:47.000Z</time>
      </trkpt>
      <trkpt lat="47.71553" lon="-3.3614">
        <ele>5.3</ele>
        <time>2020-08-21T13:04:48.000Z</time>
      </trkpt>
      <trkpt lat="47.71557" lon="-3.36143">
        <ele>5.3</ele>
        <time>2020-08-21T13:04:49.000Z</time>
      </trkpt>
      <trkpt lat="47.7156" lon="-3.36146">
        <ele>5.3</ele>
        <time>2020-08-21T13:04:50.000Z</time>
      </trkpt>
      <trkpt lat="47.71563" lon="-3.36149">
        <ele>5.3</ele>
        <time>2020-08-21T13:04:51.000Z</time>
      </trkpt>
      <trkpt lat="47.71566" lon="-3.36151">
        <ele>5.3</ele>
        <time>2020-08-21T13:04:52.000Z</time>
      </trkpt>
      <trkpt lat="47.71569" lon="-3.36154">
        <ele>5.3</ele>
        <time>2020-08-21T13:04:53.000Z</time>
      </trkpt>
      <trkpt lat="47.71572" lon="-3.36157">
        <ele>5.3</ele>
        <time>2020-08-21T13:04:54.000Z</time>
      </trkpt>
      <trkpt lat="47.71575" lon="-3.3616">
        <ele>5.3</ele>
        <time>2020-08-21T13:04:55.000Z</time>
      </trkpt>
      <trkpt lat="47.71578" lon="-3.36163">
        <ele>5.3</ele>
        <time>2020-08-21T13:04:56.000Z</time>
      </trkpt>
      <trkpt lat="47.71581" lon="-3.36166">
        <ele>5.3</ele>
        <time>2020-08-21T13:04:57.000Z</time>
      </trkpt>
      <trkpt lat="47.71584" lon="-3.36168">
        <ele>-3</ele>
        <time>2020-08-21T13:04:58.000Z</time>
      </trkpt>
      <trkpt lat="47.71588" lon="-3.36171">
        <ele>-3</ele>
        <time>2020-08-21T13:04:59.000Z</time>
      </trkpt>
      <trkpt lat="47.71591" lon="-3.36173">
        <ele>-3</ele>
        <time>2020-08-21T13:05:00.000Z</time>
      </trkpt>
      <trkpt lat="47.71595" lon="-3.36176">
        <ele>-3</ele>
        <time>2020-08-21T13:05:01.000Z</time>
      </trkpt>
      <trkpt lat="47.71599" lon="-3.36178">
        <ele>-3</ele>
        <time>2020-08-21T13:05:02.000Z</time>
      </trkpt>
      <trkpt lat="47.71603" lon="-3.36179">
        <ele>-3</ele>
        <time>2020-08-21T13:05:03.000Z</time>
      </trkpt>
      <trkpt lat="47.71607" lon="-3.36181">
        <ele>-3</ele>
        <time>2020-08-21T13:05:04.000Z</time>
      </trkpt>
      <trkpt lat="47.71611" lon="-3.36182">
        <ele>-3</ele>
        <time>2020-08-21T13:05:05.000Z</time>
      </trkpt>
      <trkpt lat="47.71615" lon="-3.36184">
        <ele>-3</ele>
        <time>2020-08-21T13:05:06.000Z</time>
      </trkpt>
      <trkpt lat="47.71619" lon="-3.36185">
        <ele>-3</ele>
        <time>2020-08-21T13:05:07.000Z</time>
      </trkpt>
      <trkpt lat="47.71623" lon="-3.36187">
        <ele>-3</ele>
        <time>2020-08-21T13:05:08.000Z</time>
      </trkpt>
      <trkpt lat="47.71627" lon="-3.36188">
        <ele>-3</ele>
        <time>2020-08-21T13:05:09.000Z</time>
      </trkpt>
      <trkpt lat="47.71631" lon="-3.36189">
        <ele>-3</ele>
        <time>2020-08-21T13:05:10.000Z</time>
      </trkpt>
      <trkpt lat="47.71635" lon="-3.36191">
        <ele>-3</ele>
        <time>2020-08-21T13:05:11.000Z</time>
      </trkpt>
      <trkpt lat="47.7164" lon="-3.36193">
        <ele>-3</ele>
        <time>2020-08-21T13:05:12.000Z</time>
      </trkpt>
      <trkpt lat="47.71644" lon="-3.36194">
        <ele>-3</ele>
        <time>2020-08-21T13:05:13.000Z</time>
      </trkpt>
      <trkpt lat="47.71648" lon="-3.36196">
        <ele>-3</ele>
        <time>2020-08-21T13:05:14.000Z</time>
      </trkpt>
      <trkpt lat="47.71652" lon="-3.36197">
        <ele>-3</ele>
        <time>2020-08-21T13:05:15.000Z</time>
      </trkpt>
      <trkpt lat="47.71656" lon="-3.36199">
        <ele>-3</ele>
        <time>2020-08-21T13:05:16.000Z</time>
      </trkpt>
      <trkpt lat="47.7166" lon="-3.36201">
        <ele>-3</ele>
        <time>2020-08-21T13:05:17.000Z</time>
      </trkpt>
      <trkpt lat="47.71664" lon="-3.36203">
        <ele>-3</ele>
        <time>2020-08-21T13:05:18.000Z</time>
      </trkpt>
      <trkpt lat="47.71668" lon="-3.36204">
        <ele>-3</ele>
        <time>2020-08-21T13:05:19.000Z</time>
      </trkpt>
      <trkpt lat="47.71672" lon="-3.36206">
        <ele>-3</ele>
        <time>2020-08-21T13:05:20.000Z</time>
      </trkpt>
      <trkpt lat="47.71676" lon="-3.36208">
        <ele>-3</ele>
        <time>2020-08-21T13:05:21.000Z</time>
      </trkpt>
      <trkpt lat="47.7168" lon="-3.3621">
        <ele>-3</ele>
        <time>2020-08-21T13:05:22.000Z</time>
      </trkpt>
      <trkpt lat="47.71685" lon="-3.36211">
        <ele>-3</ele>
        <time>2020-08-21T13:05:23.000Z</time>
      </trkpt>
      <trkpt lat="47.71689" lon="-3.36213">
        <ele>-3</ele>
        <time>2020-08-21T13:05:24.000Z</time>
      </trkpt>
      <trkpt lat="47.71693" lon="-3.36215">
        <ele>-3</ele>
        <time>2020-08-21T13:05:25.000Z</time>
      </trkpt>
      <trkpt lat="47.71697" lon="-3.36217">
        <ele>-3</ele>
        <time>2020-08-21T13:05:26.000Z</time>
      </trkpt>
      <trkpt lat="47.71701" lon="-3.36218">
        <ele>-3</ele>
        <time>2020-08-21T13:05:27.000Z</time>
      </trkpt>
      <trkpt lat="47.71705" lon="-3.3622">
        <ele>-3</ele>
        <time>2020-08-21T13:05:28.000Z</time>
      </trkpt>
      <trkpt lat="47.71709" lon="-3.36223">
        <ele>-3</ele>
        <time>2020-08-21T13:05:29.000Z</time>
      </trkpt>
      <trkpt lat="47.71713" lon="-3.36225">
        <ele>-3</ele>
        <time>2020-08-21T13:05:30.000Z</time>
      </trkpt>
      <trkpt lat="47.71717" lon="-3.36227">
        <ele>-3</ele>
        <time>2020-08-21T13:05:31.000Z</time>
      </trkpt>
      <trkpt lat="47.7172" lon="-3.3623">
        <ele>-3</ele>
        <time>2020-08-21T13:05:32.000Z</time>
      </trkpt>
      <trkpt lat="47.71724" lon="-3.36233">
        <ele>-3</ele>
        <time>2020-08-21T13:05:33.000Z</time>
      </trkpt>
      <trkpt lat="47.71727" lon="-3.36236">
        <ele>-3</ele>
        <time>2020-08-21T13:05:34.000Z</time>
      </trkpt>
      <trkpt lat="47.7173" lon="-3.36239">
        <ele>-3</ele>
        <time>2020-08-21T13:05:35.000Z</time>
      </trkpt>
      <trkpt lat="47.71734" lon="-3.36243">
        <ele>-3</ele>
        <time>2020-08-21T13:05:36.000Z</time>
      </trkpt>
      <trkpt lat="47.71737" lon="-3.36246">
        <ele>-3</ele>
        <time>2020-08-21T13:05:37.000Z</time>
      </trkpt>
      <trkpt lat="47.7174" lon="-3.36249">
        <ele>-3</ele>
        <time>2020-08-21T13:05:38.000Z</time>
      </trkpt>
      <trkpt lat="47.71744" lon="-3.36252">
        <ele>-3</ele>
        <time>2020-08-21T13:05:39.000Z</time>
      </trkpt>
      <trkpt lat="47.71747" lon="-3.36255">
        <ele>-3</ele>
        <time>2020-08-21T13:05:40.000Z</time>
      </trkpt>
      <trkpt lat="47.7175" lon="-3.36257">
        <ele>-3</ele>
        <time>2020-08-21T13:05:41.000Z</time>
      </trkpt>
      <trkpt lat="47.71754" lon="-3.3626">
        <ele>-3</ele>
        <time>2020-08-21T13:05:42.000Z</time>
      </trkpt>
      <trkpt lat="47.71757" lon="-3.36263">
        <ele>-3</ele>
        <time>2020-08-21T13:05:43.000Z</time>
      </trkpt>
      <trkpt lat="47.7176" lon="-3.36266">
        <ele>-3</ele>
        <time>2020-08-21T13:05:44.000Z</time>
      </trkpt>
      <trkpt lat="47.71764" lon="-3.36268">
        <ele>-3</ele>
        <time>2020-08-21T13:05:45.000Z</time>
      </trkpt>
      <trkpt lat="47.71768" lon="-3.36271">
        <ele>-3</ele>
        <time>2020-08-21T13:05:46.000Z</time>
      </trkpt>
      <trkpt lat="47.71771" lon="-3.36273">
        <ele>-3</ele>
        <time>2020-08-21T13:05:47.000Z</time>
      </trkpt>
      <trkpt lat="47.71775" lon="-3.36276">
        <ele>-3</ele>
        <time>2020-08-21T13:05:48.000Z</time>
      </trkpt>
      <trkpt lat="47.71778" lon="-3.36278">
        <ele>-3</ele>
        <time>2020-08-21T13:05:49.000Z</time>
      </trkpt>
      <trkpt lat="47.71782" lon="-3.36281">
        <ele>-3</ele>
        <time>2020-08-21T13:05:50.000Z</time>
      </trkpt>
      <trkpt lat="47.71786" lon="-3.36283">
        <ele>-3</ele>
        <time>2020-08-21T13:05:51.000Z</time>
      </trkpt>
      <trkpt lat="47.71789" lon="-3.36286">
        <ele>-3</ele>
        <time>2020-08-21T13:05:52.000Z</time>
      </trkpt>
      <trkpt lat="47.71793" lon="-3.36288">
        <ele>-3</ele>
        <time>2020-08-21T13:05:53.000Z</time>
      </trkpt>
      <trkpt lat="47.71797" lon="-3.36291">
        <ele>-3</ele>
        <time>2020-08-21T13:05:54.000Z</time>
      </trkpt>
      <trkpt lat="47.718" lon="-3.36294">
        <ele>-3</ele>
        <time>2020-08-21T13:05:55.000Z</time>
      </trkpt>
      <trkpt lat="47.71804" lon="-3.36296">
        <ele>-3</ele>
        <time>2020-08-21T13:05:56.000Z</time>
      </trkpt>
      <trkpt lat="47.71808" lon="-3.36299">
        <ele>-3</ele>
        <time>2020-08-21T13:05:57.000Z</time>
      </trkpt>
      <trkpt lat="47.71811" lon="-3.36301">
        <ele>-3</ele>
        <time>2020-08-21T13:05:58.000Z</time>
      </trkpt>
      <trkpt lat="47.71815" lon="-3.36304">
        <ele>-3</ele>
        <time>2020-08-21T13:05:59.000Z</time>
      </trkpt>
      <trkpt lat="47.71819" lon="-3.36306">
        <ele>-3</ele>
        <time>2020-08-21T13:06:00.000Z</time>
      </trkpt>
      <trkpt lat="47.71822" lon="-3.36309">
        <ele>-3</ele>
        <time>2020-08-21T13:06:01.000Z</time>
      </trkpt>
      <trkpt lat="47.71826" lon="-3.36311">
        <ele>-3</ele>
        <time>2020-08-21T13:06:02.000Z</time>
      </trkpt>
      <trkpt lat="47.7183" lon="-3.36314">
        <ele>-3</ele>
        <time>2020-08-21T13:06:03.000Z</time>
      </trkpt>
      <trkpt lat="47.71833" lon="-3.36316">
        <ele>-3</ele>
        <time>2020-08-21T13:06:04.000Z</time>
      </trkpt>
      <trkpt lat="47.71837" lon="-3.36319">
        <ele>-3</ele>
        <time>2020-08-21T13:06:05.000Z</time>
      </trkpt>
      <trkpt lat="47.71841" lon="-3.36321">
        <ele>-3</ele>
        <time>2020-08-21T13:06:06.000Z</time>
      </trkpt>
      <trkpt lat="47.71844" lon="-3.36324">
        <ele>-3</ele>
        <time>2020-08-21T13:06:07.000Z</time>
      </trkpt>
      <trkpt lat="47.71848" lon="-3.36326">
        <ele>-3</ele>
        <time>2020-08-21T13:06:08.000Z</time>
      </trkpt>
      <trkpt lat="47.71852" lon="-3.36328">
        <ele>-3</ele>
        <time>2020-08-21T13:06:09.000Z</time>
      </trkpt>
      <trkpt lat="47.71856" lon="-3.36331">
        <ele>-3</ele>
        <time>2020-08-21T13:06:10.000Z</time>
      </trkpt>
      <trkpt lat="47.71859" lon="-3.36333">
        <ele>-3</ele>
        <time>2020-08-21T13:06:11.000Z</time>
      </trkpt>
      <trkpt lat="47.71863" lon="-3.36335">
        <ele>-3</ele>
        <time>2020-08-21T13:06:12.000Z</time>
      </trkpt>
      <trkpt lat="47.71867" lon="-3.36338">
        <ele>-3</ele>
        <time>2020-08-21T13:06:13.000Z</time>
      </trkpt>
      <trkpt lat="47.71871" lon="-3.3634">
        <ele>-3</ele>
        <time>2020-08-21T13:06:14.000Z</time>
      </trkpt>
      <trkpt lat="47.71875" lon="-3.36342">
        <ele>-3</ele>
        <time>2020-08-21T13:06:15.000Z</time>
      </trkpt>
      <trkpt lat="47.71878" lon="-3.36344">
        <ele>-3</ele>
        <time>2020-08-21T13:06:16.000Z</time>
      </trkpt>
      <trkpt lat="47.71882" lon="-3.36346">
        <ele>-3</ele>
        <time>2020-08-21T13:06:17.000Z</time>
      </trkpt>
      <trkpt lat="47.71886" lon="-3.36348">
        <ele>-3</ele>
        <time>2020-08-21T13:06:18.000Z</time>
      </trkpt>
      <trkpt lat="47.7189" lon="-3.3635">
        <ele>-3</ele>
        <time>2020-08-21T13:06:19.000Z</time>
      </trkpt>
      <trkpt lat="47.71894" lon="-3.36352">
        <ele>-3</ele>
        <time>2020-08-21T13:06:20.000Z</time>
      </trkpt>
      <trkpt lat="47.71898" lon="-3.36354">
        <ele>-3</ele>
        <time>2020-08-21T13:06:21.000Z</time>
      </trkpt>
      <trkpt lat="47.71902" lon="-3.36356">
        <ele>-3</ele>
        <time>2020-08-21T13:06:22.000Z</time>
      </trkpt>
      <trkpt lat="47.71905" lon="-3.36358">
        <ele>-3</ele>
        <time>2020-08-21T13:06:23.000Z</time>
      </trkpt>
      <trkpt lat="47.71909" lon="-3.36359">
        <ele>-3</ele>
        <time>2020-08-21T13:06:24.000Z</time>
      </trkpt>
      <trkpt lat="47.71913" lon="-3.36361">
        <ele>-3</ele>
        <time>2020-08-21T13:06:25.000Z</time>
      </trkpt>
      <trkpt lat="47.71917" lon="-3.36363">
        <ele>-3</ele>
        <time>2020-08-21T13:06:26.000Z</time>
      </trkpt>
      <trkpt lat="47.71921" lon="-3.36364">
        <ele>-3</ele>
        <time>2020-08-21T13:06:27.000Z</time>
      </trkpt>
      <trkpt lat="47.71925" lon="-3.36366">
        <ele>-3</ele>
        <time>2020-08-21T13:06:28.000Z</time>
      </trkpt>
      <trkpt lat="47.71929" lon="-3.36367">
        <ele>-3</ele>
        <time>2020-08-21T13:06:29.000Z</time>
      </trkpt>
      <trkpt lat="47.71933" lon="-3.36368">
        <ele>-3</ele>
        <time>2020-08-21T13:06:30.000Z</time>
      </trkpt>
      <trkpt lat="47.71937" lon="-3.3637">
        <ele>-3</ele>
        <time>2020-08-21T13:06:31.000Z</time>
      </trkpt>
      <trkpt lat="47.71941" lon="-3.36371">
        <ele>-3</ele>
        <time>2020-08-21T13:06:32.000Z</time>
      </trkpt>
      <trkpt lat="47.71945" lon="-3.36372">
        <ele>-3</ele>
        <time>2020-08-21T13:06:33.000Z</time>
      </trkpt>
      <trkpt lat="47.71949" lon="-3.36373">
        <ele>-3</ele>
        <time>2020-08-21T13:06:34.000Z</time>
      </trkpt>
      <trkpt lat="47.71953" lon="-3.36374">
        <ele>-3</ele>
        <time>2020-08-21T13:06:35.000Z</time>
      </trkpt>
      <trkpt lat="47.71957" lon="-3.36375">
        <ele>-3</ele>
        <time>2020-08-21T13:06:36.000Z</time>
      </trkpt>
      <trkpt lat="47.71961" lon="-3.36376">
        <ele>-3</ele>
        <time>2020-08-21T13:06:37.000Z</time>
      </trkpt>
      <trkpt lat="47.71965" lon="-3.36377">
        <ele>-3</ele>
        <time>2020-08-21T13:06:38.000Z</time>
      </trkpt>
      <trkpt lat="47.71969" lon="-3.36378">
        <ele>-3</ele>
        <time>2020-08-21T13:06:39.000Z</time>
      </trkpt>
      <trkpt lat="47.71973" lon="-3.36379">
        <ele>-3</ele>
        <time>2020-08-21T13:06:40.000Z</time>
      </trkpt>
      <trkpt lat="47.71977" lon="-3.3638">
        <ele>-3</ele>
        <time>2020-08-21T13:06:41.000Z</time>
      </trkpt>
      <trkpt lat="47.71981" lon="-3.36381">
        <ele>-3</ele>
        <time>2020-08-21T13:06:42.000Z</time>
      </trkpt>
      <trkpt lat="47.71985" lon="-3.36382">
        <ele>-3</ele>
        <time>2020-08-21T13:06:43.000Z</time>
      </trkpt>
      <trkpt lat="47.71989" lon="-3.36384">
        <ele>-3</ele>
        <time>2020-08-21T13:06:44.000Z</time>
      </trkpt>
      <trkpt lat="47.71993" lon="-3.36385">
        <ele>-3</ele>
        <time>2020-08-21T13:06:45.000Z</time>
      </trkpt>
      <trkpt lat="47.71997" lon="-3.36387">
        <ele>-3</ele>
        <time>2020-08-21T13:06:46.000Z</time>
      </trkpt>
      <trkpt lat="47.72001" lon="-3.36388">
        <ele>-3</ele>
        <time>2020-08-21T13:06:47.000Z</time>
      </trkpt>
      <trkpt lat="47.72005" lon="-3.3639">
        <ele>-3</ele>
        <time>2020-08-21T13:06:48.000Z</time>
      </trkpt>
      <trkpt lat="47.72009" lon="-3.36391">
        <ele>-3</ele>
        <time>2020-08-21T13:06:49.000Z</time>
      </trkpt>
      <trkpt lat="47.72013" lon="-3.36392">
        <ele>-3</ele>
        <time>2020-08-21T13:06:50.000Z</time>
      </trkpt>
      <trkpt lat="47.72016" lon="-3.36394">
        <ele>-3</ele>
        <time>2020-08-21T13:06:51.000Z</time>
      </trkpt>
      <trkpt lat="47.7202" lon="-3.36395">
        <ele>-3</ele>
        <time>2020-08-21T13:06:52.000Z</time>
      </trkpt>
      <trkpt lat="47.72024" lon="-3.36396">
        <ele>-3</ele>
        <time>2020-08-21T13:06:53.000Z</time>
      </trkpt>
      <trkpt lat="47.72028" lon="-3.36397">
        <ele>-3</ele>
        <time>2020-08-21T13:06:54.000Z</time>
      </trkpt>
      <trkpt lat="47.72032" lon="-3.36398">
        <ele>-3</ele>
        <time>2020-08-21T13:06:55.000Z</time>
      </trkpt>
      <trkpt lat="47.72036" lon="-3.36399">
        <ele>-3</ele>
        <time>2020-08-21T13:06:56.000Z</time>
      </trkpt>
      <trkpt lat="47.7204" lon="-3.364">
        <ele>-3</ele>
        <time>2020-08-21T13:06:57.000Z</time>
      </trkpt>
      <trkpt lat="47.72044" lon="-3.36401">
        <ele>-3</ele>
        <time>2020-08-21T13:06:58.000Z</time>
      </trkpt>
      <trkpt lat="47.72048" lon="-3.36401">
        <ele>-3</ele>
        <time>2020-08-21T13:06:59.000Z</time>
      </trkpt>
      <trkpt lat="47.72052" lon="-3.36402">
        <ele>-3</ele>
        <time>2020-08-21T13:07:00.000Z</time>
      </trkpt>
      <trkpt lat="47.72056" lon="-3.36403">
        <ele>-3</ele>
        <time>2020-08-21T13:07:01.000Z</time>
      </trkpt>
      <trkpt lat="47.7206" lon="-3.36403">
        <ele>-3</ele>
        <time>2020-08-21T13:07:02.000Z</time>
      </trkpt>
      <trkpt lat="47.72064" lon="-3.36404">
        <ele>-3</ele>
        <time>2020-08-21T13:07:03.000Z</time>
      </trkpt>
      <trkpt lat="47.72068" lon="-3.36404">
        <ele>-3</ele>
        <time>2020-08-21T13:07:04.000Z</time>
      </trkpt>
      <trkpt lat="47.72072" lon="-3.36404">
        <ele>-3</ele>
        <time>2020-08-21T13:07:05.000Z</time>
      </trkpt>
      <trkpt lat="47.72076" lon="-3.36405">
        <ele>-3</ele>
        <time>2020-08-21T13:07:06.000Z</time>
      </trkpt>
      <trkpt lat="47.7208" lon="-3.36405">
        <ele>-3</ele>
        <time>2020-08-21T13:07:07.000Z</time>
      </trkpt>
      <trkpt lat="47.72084" lon="-3.36405">
        <time>2020-08-21T13:07:08.000Z</time>
      </trkpt>
      <trkpt lat="47.72088" lon="-3.36406">
        <time>2020-08-21T13:07:09.000Z</time>
      </trkpt>
      <trkpt lat="47.72092" lon="-3.36406">
        <time>2020-08-21T13:07:10.000Z</time>
      </trkpt>
      <trkpt lat="47.72096" lon="-3.36406">
        <time>2020-08-21T13:07:11.000Z</time>
      </trkpt>
      <trkpt lat="47.721" lon="-3.36406">
        <time>2020-08-21T13:07:12.000Z</time>
      </trkpt>
      <trkpt lat="47.72105" lon="-3.36406">
        <time>2020-08-21T13:07:13.000Z</time>
      </trkpt>
      <trkpt lat="47.72109" lon="-3.36406">
        <time>2020-08-21T13:07:14.000Z</time>
      </trkpt>
      <trkpt lat="47.72113" lon="-3.36406">
        <time>2020-08-21T13:07:15.000Z</time>
      </trkpt>
      <trkpt lat="47.72117" lon="-3.36406">
        <time>2020-08-21T13:07:16.000Z</time>
      </trkpt>
      <trkpt lat="47.72121" lon="-3.36405">
        <time>2020-08-21T13:07:17.000Z</time>
      </trkpt>
      <trkpt lat="47.72125" lon="-3.36405">
        <time>2020-08-21T13:07:18.000Z</time>
      </trkpt>
      <trkpt lat="47.72129" lon="-3.36405">
        <time>2020-08-21T13:07:19.000Z</time>
      </trkpt>
      <trkpt lat="47.72133" lon="-3.36404">
        <time>2020-08-21T13:07:20.000Z</time>
      </trkpt>
      <trkpt lat="47.72137" lon="-3.36404">
        <time>2020-08-21T13:07:21.000Z</time>
      </trkpt>
      <trkpt lat="47.72141" lon="-3.36403">
        <time>2020-08-21T13:07:22.000Z</time>
      </trkpt>
      <trkpt lat="47.72145" lon="-3.36402">
        <time>2020-08-21T13:07:23.000Z</time>
      </trkpt>
      <trkpt lat="47.72149" lon="-3.36402">
        <time>2020-08-21T13:07:24.000Z</time>
      </trkpt>
      <trkpt lat="47.72153" lon="-3.36401">
        <time>2020-08-21T13:07:25.000Z</time>
      </trkpt>
      <trkpt lat="47.72158" lon="-3.364">
        <time>2020-08-21T13:07:26.000Z</time>
      </trkpt>
      <trkpt lat="47.72162" lon="-3.36399">
        <time>2020-08-21T13:07:27.000Z</time>
      </trkpt>
      <trkpt lat="47.72166" lon="-3.36398">
        <time>2020-08-21T13:07:28.000Z</time>
      </trkpt>
      <trkpt lat="47.7217" lon="-3.36397">
        <ele>1.5</ele>
        <time>2020-08-21T13:07:29.000Z</time>
      </trkpt>
      <trkpt lat="47.72174" lon="-3.36396">
        <ele>1.5</ele>
        <time>2020-08-21T13:07:30.000Z</time>
      </trkpt>
      <trkpt lat="47.72178" lon="-3.36395">
        <ele>1.5</ele>
        <time>2020-08-21T13:07:31.000Z</time>
      </trkpt>
      <trkpt lat="47.72182" lon="-3.36394">
        <ele>1.5</ele>
        <time>2020-08-21T13:07:32.000Z</time>
      </trkpt>
      <trkpt lat="47.72186" lon="-3.36393">
        <ele>1.5</ele>
        <time>2020-08-21T13:07:33.000Z</time>
      </trkpt>
      <trkpt lat="47.7219" lon="-3.36392">
        <ele>1.5</ele>
        <time>2020-08-21T13:07:34.000Z</time>
      </trkpt>
      <trkpt lat="47.72194" lon="-3.36391">
        <ele>1.5</ele>
        <time>2020-08-21T13:07:35.000Z</time>
      </trkpt>
      <trkpt lat="47.72198" lon="-3.3639">
        <ele>1.5</ele>
        <time>2020-08-21T13:07:36.000Z</time>
      </trkpt>
      <trkpt lat="47.72202" lon="-3.36389">
        <ele>1.5</ele>
        <time>2020-08-21T13:07:37.000Z</time>
      </trkpt>
      <trkpt lat="47.72206" lon="-3.36388">
        <ele>1.5</ele>
        <time>2020-08-21T13:07:38.000Z</time>
      </trkpt>
      <trkpt lat="47.72209" lon="-3.36388">
        <ele>1.5</ele>
        <time>2020-08-21T13:07:39.000Z</time>
      </trkpt>
      <trkpt lat="47.72213" lon="-3.36387">
        <ele>1.5</ele>
        <time>2020-08-21T13:07:40.000Z</time>
      </trkpt>
      <trkpt lat="47.72217" lon="-3.36386">
        <ele>1.5</ele>
        <time>2020-08-21T13:07:41.000Z</time>
      </trkpt>
      <trkpt lat="47.72221" lon="-3.36386">
        <ele>1.5</ele>
        <time>2020-08-21T13:07:42.000Z</time>
      </trkpt>
      <trkpt lat="47.72225" lon="-3.36386">
        <ele>1.5</ele>
        <time>2020-08-21T13:07:43.000Z</time>
      </trkpt>
      <trkpt lat="47.72229" lon="-3.36386">
        <ele>1.5</ele>
        <time>2020-08-21T13:07:44.000Z</time>
      </trkpt>
      <trkpt lat="47.72233" lon="-3.36386">
        <ele>1.5</ele>
        <time>2020-08-21T13:07:45.000Z</time>
      </trkpt>
      <trkpt lat="47.72237" lon="-3.36386">
        <ele>1.5</ele>
        <time>2020-08-21T13:07:46.000Z</time>
      </trkpt>
      <trkpt lat="47.7224" lon="-3.36387">
        <ele>1.5</ele>
        <time>2020-08-21T13:07:47.000Z</time>
      </trkpt>
      <trkpt lat="47.72244" lon="-3.36387">
        <ele>1.5</ele>
        <time>2020-08-21T13:07:48.000Z</time>
      </trkpt>
      <trkpt lat="47.72248" lon="-3.36388">
        <ele>1.5</ele>
        <time>2020-08-21T13:07:49.000Z</time>
      </trkpt>
      <trkpt lat="47.72252" lon="-3.3639">
        <ele>6</ele>
        <time>2020-08-21T13:07:50.000Z</time>
      </trkpt>
      <trkpt lat="47.72256" lon="-3.36391">
        <ele>6</ele>
        <time>2020-08-21T13:07:51.000Z</time>
      </trkpt>
      <trkpt lat="47.72259" lon="-3.36392">
        <ele>6</ele>
        <time>2020-08-21T13:07:52.000Z</time>
      </trkpt>
      <trkpt lat="47.72263" lon="-3.36393">
        <ele>6</ele>
        <time>2020-08-21T13:07:53.000Z</time>
      </trkpt>
      <trkpt lat="47.72267" lon="-3.36394">
        <ele>6</ele>
        <time>2020-08-21T13:07:54.000Z</time>
      </trkpt>
      <trkpt lat="47.72271" lon="-3.36396">
        <ele>6</ele>
        <time>2020-08-21T13:07:55.000Z</time>
      </trkpt>
      <trkpt lat="47.72275" lon="-3.36396">
        <ele>6</ele>
        <time>2020-08-21T13:07:56.000Z</time>
      </trkpt>
      <trkpt lat="47.72279" lon="-3.36397">
        <ele>6</ele>
        <time>2020-08-21T13:07:57.000Z</time>
      </trkpt>
      <trkpt lat="47.72283" lon="-3.36398">
        <ele>6</ele>
        <time>2020-08-21T13:07:58.000Z</time>
      </trkpt>
      <trkpt lat="47.72288" lon="-3.36398">
        <ele>6</ele>
        <time>2020-08-21T13:07:59.000Z</time>
      </trkpt>
      <trkpt lat="47.72292" lon="-3.36398">
        <ele>6</ele>
        <time>2020-08-21T13:08:00.000Z</time>
      </trkpt>
      <trkpt lat="47.72296" lon="-3.36398">
        <ele>6</ele>
        <time>2020-08-21T13:08:01.000Z</time>
      </trkpt>
      <trkpt lat="47.723" lon="-3.36398">
        <ele>6</ele>
        <time>2020-08-21T13:08:02.000Z</time>
      </trkpt>
      <trkpt lat="47.72304" lon="-3.36397">
        <ele>6</ele>
        <time>2020-08-21T13:08:03.000Z</time>
      </trkpt>
      <trkpt lat="47.72308" lon="-3.36397">
        <ele>6</ele>
        <time>2020-08-21T13:08:04.000Z</time>
      </trkpt>
      <trkpt lat="47.72313" lon="-3.36396">
        <ele>6</ele>
        <time>2020-08-21T13:08:05.000Z</time>
      </trkpt>
      <trkpt lat="47.72317" lon="-3.36395">
        <ele>6</ele>
        <time>2020-08-21T13:08:06.000Z</time>
      </trkpt>
      <trkpt lat="47.72321" lon="-3.36395">
        <ele>6</ele>
        <time>2020-08-21T13:08:07.000Z</time>
      </trkpt>
      <trkpt lat="47.72325" lon="-3.36393">
        <ele>6</ele>
        <time>2020-08-21T13:08:08.000Z</time>
      </trkpt>
      <trkpt lat="47.72329" lon="-3.36392">
        <ele>6</ele>
        <time>2020-08-21T13:08:09.000Z</time>
      </trkpt>
      <trkpt lat="47.72333" lon="-3.36391">
        <ele>6</ele>
        <time>2020-08-21T13:08:10.000Z</time>
      </trkpt>
      <trkpt lat="47.72337" lon="-3.36389">
        <ele>3.8</ele>
        <time>2020-08-21T13:08:11.000Z</time>
      </trkpt>
      <trkpt lat="47.72342" lon="-3.36388">
        <ele>3.8</ele>
        <time>2020-08-21T13:08:12.000Z</time>
      </trkpt>
      <trkpt lat="47.72346" lon="-3.36386">
        <ele>3.8</ele>
        <time>2020-08-21T13:08:13.000Z</time>
      </trkpt>
      <trkpt lat="47.7235" lon="-3.36384">
        <ele>3.8</ele>
        <time>2020-08-21T13:08:14.000Z</time>
      </trkpt>
      <trkpt lat="47.72354" lon="-3.36383">
        <ele>3.8</ele>
        <time>2020-08-21T13:08:15.000Z</time>
      </trkpt>
      <trkpt lat="47.72358" lon="-3.36381">
        <ele>3.8</ele>
        <time>2020-08-21T13:08:16.000Z</time>
      </trkpt>
      <trkpt lat="47.72362" lon="-3.36379">
        <ele>3.8</ele>
        <time>2020-08-21T13:08:17.000Z</time>
      </trkpt>
      <trkpt lat="47.72366" lon="-3.36377">
        <ele>3.8</ele>
        <time>2020-08-21T13:08:18.000Z</time>
      </trkpt>
      <trkpt lat="47.7237" lon="-3.36374">
        <ele>3.8</ele>
        <time>2020-08-21T13:08:19.000Z</time>
      </trkpt>
      <trkpt lat="47.72375" lon="-3.36372">
        <ele>3.8</ele>
        <time>2020-08-21T13:08:20.000Z</time>
      </trkpt>
      <trkpt lat="47.72379" lon="-3.3637">
        <ele>3.8</ele>
        <time>2020-08-21T13:08:21.000Z</time>
      </trkpt>
      <trkpt lat="47.72383" lon="-3.36367">
        <ele>3.8</ele>
        <time>2020-08-21T13:08:22.000Z</time>
      </trkpt>
      <trkpt lat="47.72387" lon="-3.36365">
        <ele>3.8</ele>
        <time>2020-08-21T13:08:23.000Z</time>
      </trkpt>
      <trkpt lat="47.72391" lon="-3.36363">
        <ele>3.8</ele>
        <time>2020-08-21T13:08:24.000Z</time>
      </trkpt>
      <trkpt lat="47.72395" lon="-3.3636">
        <ele>3.8</ele>
        <time>2020-08-21T13:08:25.000Z</time>
      </trkpt>
      <trkpt lat="47.72399" lon="-3.36358">
        <ele>3.8</ele>
        <time>2020-08-21T13:08:26.000Z</time>
      </trkpt>
      <trkpt lat="47.72403" lon="-3.36355">
        <ele>3.8</ele>
        <time>2020-08-21T13:08:27.000Z</time>
      </trkpt>
      <trkpt lat="47.72407" lon="-3.36352">
        <ele>3.8</ele>
        <time>2020-08-21T13:08:28.000Z</time>
      </trkpt>
      <trkpt lat="47.72411" lon="-3.3635">
        <ele>3.8</ele>
        <time>2020-08-21T13:08:29.000Z</time>
      </trkpt>
      <trkpt lat="47.72415" lon="-3.36347">
        <ele>3.8</ele>
        <time>2020-08-21T13:08:30.000Z</time>
      </trkpt>
      <trkpt lat="47.72419" lon="-3.36344">
        <ele>2.5</ele>
        <time>2020-08-21T13:08:31.000Z</time>
      </trkpt>
      <trkpt lat="47.72423" lon="-3.36341">
        <ele>2.5</ele>
        <time>2020-08-21T13:08:32.000Z</time>
      </trkpt>
      <trkpt lat="47.72427" lon="-3.36339">
        <ele>2.5</ele>
        <time>2020-08-21T13:08:33.000Z</time>
      </trkpt>
      <trkpt lat="47.72431" lon="-3.36336">
        <ele>2.5</ele>
        <time>2020-08-21T13:08:34.000Z</time>
      </trkpt>
      <trkpt lat="47.72435" lon="-3.36333">
        <ele>3</ele>
        <time>2020-08-21T13:08:35.000Z</time>
      </trkpt>
      <trkpt lat="47.72439" lon="-3.3633">
        <ele>3</ele>
        <time>2020-08-21T13:08:36.000Z</time>
      </trkpt>
      <trkpt lat="47.72443" lon="-3.36328">
        <ele>3</ele>
        <time>2020-08-21T13:08:37.000Z</time>
      </trkpt>
      <trkpt lat="47.72447" lon="-3.36325">
        <ele>3</ele>
        <time>2020-08-21T13:08:38.000Z</time>
      </trkpt>
      <trkpt lat="47.72451" lon="-3.36322">
        <ele>3</ele>
        <time>2020-08-21T13:08:39.000Z</time>
      </trkpt>
      <trkpt lat="47.72455" lon="-3.36319">
        <ele>3</ele>
        <time>2020-08-21T13:08:40.000Z</time>
      </trkpt>
      <trkpt lat="47.72459" lon="-3.36316">
        <ele>3</ele>
        <time>2020-08-21T13:08:41.000Z</time>
      </trkpt>
      <trkpt lat="47.72463" lon="-3.36314">
        <ele>3</ele>
        <time>2020-08-21T13:08:42.000Z</time>
      </trkpt>
      <trkpt lat="47.72467" lon="-3.36311">
        <ele>3</ele>
        <time>2020-08-21T13:08:43.000Z</time>
      </trkpt>
      <trkpt lat="47.72471" lon="-3.36308">
        <ele>3</ele>
        <time>2020-08-21T13:08:44.000Z</time>
      </trkpt>
      <trkpt lat="47.72475" lon="-3.36305">
        <ele>3</ele>
        <time>2020-08-21T13:08:45.000Z</time>
      </trkpt>
      <trkpt lat="47.72479" lon="-3.36303">
        <ele>3</ele>
        <time>2020-08-21T13:08:46.000Z</time>
      </trkpt>
      <trkpt lat="47.72483" lon="-3.363">
        <ele>3</ele>
        <time>2020-08-21T13:08:47.000Z</time>
      </trkpt>
      <trkpt lat="47.72487" lon="-3.36297">
        <ele>3</ele>
        <time>2020-08-21T13:08:48.000Z</time>
      </trkpt>
      <trkpt lat="47.72491" lon="-3.36295">
        <ele>3</ele>
        <time>2020-08-21T13:08:49.000Z</time>
      </trkpt>
      <trkpt lat="47.72495" lon="-3.36292">
        <ele>3</ele>
        <time>2020-08-21T13:08:50.000Z</time>
      </trkpt>
      <trkpt lat="47.72499" lon="-3.36289">
        <ele>3</ele>
        <time>2020-08-21T13:08:51.000Z</time>
      </trkpt>
      <trkpt lat="47.72503" lon="-3.36286">
        <ele>3.2</ele>
        <time>2020-08-21T13:08:52.000Z</time>
      </trkpt>
      <trkpt lat="47.72507" lon="-3.36283">
        <ele>3.2</ele>
        <time>2020-08-21T13:08:53.000Z</time>
      </trkpt>
      <trkpt lat="47.72511" lon="-3.3628">
        <ele>3.2</ele>
        <time>2020-08-21T13:08:54.000Z</time>
      </trkpt>
      <trkpt lat="47.72515" lon="-3.36277">
        <ele>3.2</ele>
        <time>2020-08-21T13:08:55.000Z</time>
      </trkpt>
      <trkpt lat="47.72519" lon="-3.36274">
        <ele>3.2</ele>
        <time>2020-08-21T13:08:56.000Z</time>
      </trkpt>
      <trkpt lat="47.72523" lon="-3.36271">
        <ele>3.2</ele>
        <time>2020-08-21T13:08:57.000Z</time>
      </trkpt>
      <trkpt lat="47.72527" lon="-3.36267">
        <ele>3.2</ele>
        <time>2020-08-21T13:08:58.000Z</time>
      </trkpt>
      <trkpt lat="47.7253" lon="-3.36264">
        <ele>3.2</ele>
        <time>2020-08-21T13:08:59.000Z</time>
      </trkpt>
      <trkpt lat="47.72534" lon="-3.3626">
        <ele>3.2</ele>
        <time>2020-08-21T13:09:00.000Z</time>
      </trkpt>
      <trkpt lat="47.72538" lon="-3.36257">
        <ele>3.2</ele>
        <time>2020-08-21T13:09:01.000Z</time>
      </trkpt>
      <trkpt lat="47.72541" lon="-3.36253">
        <ele>3.2</ele>
        <time>2020-08-21T13:09:02.000Z</time>
      </trkpt>
      <trkpt lat="47.72545" lon="-3.36249">
        <ele>6</ele>
        <time>2020-08-21T13:09:03.000Z</time>
      </trkpt>
      <trkpt lat="47.72548" lon="-3.36245">
        <ele>6</ele>
        <time>2020-08-21T13:09:04.000Z</time>
      </trkpt>
      <trkpt lat="47.72552" lon="-3.36242">
        <ele>6</ele>
        <time>2020-08-21T13:09:05.000Z</time>
      </trkpt>
      <trkpt lat="47.72555" lon="-3.36238">
        <ele>6</ele>
        <time>2020-08-21T13:09:06.000Z</time>
      </trkpt>
      <trkpt lat="47.72559" lon="-3.36234">
        <ele>6</ele>
        <time>2020-08-21T13:09:07.000Z</time>
      </trkpt>
      <trkpt lat="47.72563" lon="-3.3623">
        <ele>6</ele>
        <time>2020-08-21T13:09:08.000Z</time>
      </trkpt>
      <trkpt lat="47.72566" lon="-3.36226">
        <ele>6</ele>
        <time>2020-08-21T13:09:09.000Z</time>
      </trkpt>
      <trkpt lat="47.7257" lon="-3.36223">
        <ele>6</ele>
        <time>2020-08-21T13:09:10.000Z</time>
      </trkpt>
      <trkpt lat="47.72573" lon="-3.36219">
        <ele>6</ele>
        <time>2020-08-21T13:09:11.000Z</time>
      </trkpt>
      <trkpt lat="47.72577" lon="-3.36215">
        <ele>6</ele>
        <time>2020-08-21T13:09:12.000Z</time>
      </trkpt>
      <trkpt lat="47.72581" lon="-3.36211">
        <ele>6</ele>
        <time>2020-08-21T13:09:13.000Z</time>
      </trkpt>
      <trkpt lat="47.72584" lon="-3.36207">
        <ele>2</ele>
        <time>2020-08-21T13:09:14.000Z</time>
      </trkpt>
      <trkpt lat="47.72588" lon="-3.36203">
        <ele>2</ele>
        <time>2020-08-21T13:09:15.000Z</time>
      </trkpt>
      <trkpt lat="47.72591" lon="-3.36199">
        <ele>2</ele>
        <time>2020-08-21T13:09:16.000Z</time>
      </trkpt>
      <trkpt lat="47.72595" lon="-3.36194">
        <ele>2</ele>
        <time>2020-08-21T13:09:17.000Z</time>
      </trkpt>
      <trkpt lat="47.72598" lon="-3.3619">
        <ele>2</ele>
        <time>2020-08-21T13:09:18.000Z</time>
      </trkpt>
      <trkpt lat="47.72601" lon="-3.36185">
        <ele>2</ele>
        <time>2020-08-21T13:09:19.000Z</time>
      </trkpt>
      <trkpt lat="47.72605" lon="-3.36181">
        <ele>2</ele>
        <time>2020-08-21T13:09:20.000Z</time>
      </trkpt>
      <trkpt lat="47.72608" lon="-3.36176">
        <ele>2</ele>
        <time>2020-08-21T13:09:21.000Z</time>
      </trkpt>
      <trkpt lat="47.72611" lon="-3.36172">
        <ele>2</ele>
        <time>2020-08-21T13:09:22.000Z</time>
      </trkpt>
      <trkpt lat="47.72615" lon="-3.36167">
        <ele>2</ele>
        <time>2020-08-21T13:09:23.000Z</time>
      </trkpt>
      <trkpt lat="47.72618" lon="-3.36162">
        <ele>4</ele>
        <time>2020-08-21T13:09:24.000Z</time>
      </trkpt>
      <trkpt lat="47.72621" lon="-3.36157">
        <ele>4</ele>
        <time>2020-08-21T13:09:25.000Z</time>
      </trkpt>
      <trkpt lat="47.72624" lon="-3.36153">
        <ele>4</ele>
        <time>2020-08-21T13:09:26.000Z</time>
      </trkpt>
      <trkpt lat="47.72628" lon="-3.36148">
        <ele>4</ele>
        <time>2020-08-21T13:09:27.000Z</time>
      </trkpt>
      <trkpt lat="47.72631" lon="-3.36143">
        <ele>4</ele>
        <time>2020-08-21T13:09:28.000Z</time>
      </trkpt>
      <trkpt lat="47.72634" lon="-3.36138">
        <ele>4</ele>
        <time>2020-08-21T13:09:29.000Z</time>
      </trkpt>
      <trkpt lat="47.72637" lon="-3.36134">
        <ele>4</ele>
        <time>2020-08-21T13:09:30.000Z</time>
      </trkpt>
      <trkpt lat="47.72641" lon="-3.36129">
        <ele>4</ele>
        <time>2020-08-21T13:09:31.000Z</time>
      </trkpt>
      <trkpt lat="47.72644" lon="-3.36124">
        <ele>4</ele>
        <time>2020-08-21T13:09:32.000Z</time>
      </trkpt>
      <trkpt lat="47.72648" lon="-3.3612">
        <ele>4</ele>
        <time>2020-08-21T13:09:33.000Z</time>
      </trkpt>
      <trkpt lat="47.72651" lon="-3.36115">
        <ele>4</ele>
        <time>2020-08-21T13:09:34.000Z</time>
      </trkpt>
      <trkpt lat="47.72654" lon="-3.36111">
        <ele>4</ele>
        <time>2020-08-21T13:09:35.000Z</time>
      </trkpt>
      <trkpt lat="47.72658" lon="-3.36106">
        <ele>4</ele>
        <time>2020-08-21T13:09:36.000Z</time>
      </trkpt>
      <trkpt lat="47.72661" lon="-3.36102">
        <ele>4</ele>
        <time>2020-08-21T13:09:37.000Z</time>
      </trkpt>
      <trkpt lat="47.72665" lon="-3.36098">
        <ele>4</ele>
        <time>2020-08-21T13:09:38.000Z</time>
      </trkpt>
      <trkpt lat="47.72668" lon="-3.36093">
        <ele>3.7</ele>
        <time>2020-08-21T13:09:39.000Z</time>
      </trkpt>
      <trkpt lat="47.72672" lon="-3.36089">
        <ele>3.7</ele>
        <time>2020-08-21T13:09:40.000Z</time>
      </trkpt>
      <trkpt lat="47.72676" lon="-3.36085">
        <ele>3.7</ele>
        <time>2020-08-21T13:09:41.000Z</time>
      </trkpt>
      <trkpt lat="47.72679" lon="-3.36081">
        <ele>2.3</ele>
        <time>2020-08-21T13:09:42.000Z</time>
      </trkpt>
      <trkpt lat="47.72683" lon="-3.36076">
        <ele>2.3</ele>
        <time>2020-08-21T13:09:43.000Z</time>
      </trkpt>
      <trkpt lat="47.72686" lon="-3.36072">
        <ele>2.3</ele>
        <time>2020-08-21T13:09:44.000Z</time>
      </trkpt>
      <trkpt lat="47.7269" lon="-3.36068">
        <ele>2.3</ele>
        <time>2020-08-21T13:09:45.000Z</time>
      </trkpt>
      <trkpt lat="47.72694" lon="-3.36064">
        <ele>2.3</ele>
        <time>2020-08-21T13:09:46.000Z</time>
      </trkpt>
      <trkpt lat="47.72698" lon="-3.3606">
        <ele>2.3</ele>
        <time>2020-08-21T13:09:47.000Z</time>
      </trkpt>
      <trkpt lat="47.72701" lon="-3.36056">
        <ele>2.3</ele>
        <time>2020-08-21T13:09:48.000Z</time>
      </trkpt>
      <trkpt lat="47.72705" lon="-3.36052">
        <ele>2.3</ele>
        <time>2020-08-21T13:09:49.000Z</time>
      </trkpt>
      <trkpt lat="47.72709" lon="-3.36048">
        <ele>2.3</ele>
        <time>2020-08-21T13:09:50.000Z</time>
      </trkpt>
      <trkpt lat="47.72713" lon="-3.36044">
        <ele>2.3</ele>
        <time>2020-08-21T13:09:51.000Z</time>
      </trkpt>
      <trkpt lat="47.72716" lon="-3.3604">
        <ele>2.3</ele>
        <time>2020-08-21T13:09:52.000Z</time>
      </trkpt>
      <trkpt lat="47.7272" lon="-3.36036">
        <ele>2.3</ele>
        <time>2020-08-21T13:09:53.000Z</time>
      </trkpt>
      <trkpt lat="47.72724" lon="-3.36032">
        <ele>2.3</ele>
        <time>2020-08-21T13:09:54.000Z</time>
      </trkpt>
      <trkpt lat="47.72727" lon="-3.36028">
        <ele>2.3</ele>
        <time>2020-08-21T13:09:55.000Z</time>
      </trkpt>
      <trkpt lat="47.72731" lon="-3.36024">
        <ele>2.3</ele>
        <time>2020-08-21T13:09:56.000Z</time>
      </trkpt>
      <trkpt lat="47.72735" lon="-3.3602">
        <ele>2.3</ele>
        <time>2020-08-21T13:09:57.000Z</time>
      </trkpt>
      <trkpt lat="47.72738" lon="-3.36016">
        <ele>2.3</ele>
        <time>2020-08-21T13:09:58.000Z</time>
      </trkpt>
      <trkpt lat="47.72742" lon="-3.36011">
        <ele>2.3</ele>
        <time>2020-08-21T13:09:59.000Z</time>
      </trkpt>
      <trkpt lat="47.72746" lon="-3.36007">
        <ele>2.3</ele>
        <time>2020-08-21T13:10:00.000Z</time>
      </trkpt>
      <trkpt lat="47.72749" lon="-3.36002">
        <ele>2.3</ele>
        <time>2020-08-21T13:10:01.000Z</time>
      </trkpt>
      <trkpt lat="47.72753" lon="-3.35998">
        <ele>2</ele>
        <time>2020-08-21T13:10:02.000Z</time>
      </trkpt>
      <trkpt lat="47.72756" lon="-3.35993">
        <ele>2</ele>
        <time>2020-08-21T13:10:03.000Z</time>
      </trkpt>
      <trkpt lat="47.7276" lon="-3.35988">
        <ele>2</ele>
        <time>2020-08-21T13:10:04.000Z</time>
      </trkpt>
      <trkpt lat="47.72763" lon="-3.35984">
        <ele>2</ele>
        <time>2020-08-21T13:10:05.000Z</time>
      </trkpt>
      <trkpt lat="47.72767" lon="-3.35979">
        <ele>2</ele>
        <time>2020-08-21T13:10:06.000Z</time>
      </trkpt>
      <trkpt lat="47.7277" lon="-3.35974">
        <ele>2</ele>
        <time>2020-08-21T13:10:07.000Z</time>
      </trkpt>
      <trkpt lat="47.72774" lon="-3.35969">
        <ele>2</ele>
        <time>2020-08-21T13:10:08.000Z</time>
      </trkpt>
      <trkpt lat="47.72777" lon="-3.35964">
        <ele>2</ele>
        <time>2020-08-21T13:10:09.000Z</time>
      </trkpt>
      <trkpt lat="47.72781" lon="-3.3596">
        <ele>2</ele>
        <time>2020-08-21T13:10:10.000Z</time>
      </trkpt>
      <trkpt lat="47.72784" lon="-3.35955">
        <ele>2</ele>
        <time>2020-08-21T13:10:11.000Z</time>
      </trkpt>
      <trkpt lat="47.72787" lon="-3.3595">
        <ele>2</ele>
        <time>2020-08-21T13:10:12.000Z</time>
      </trkpt>
      <trkpt lat="47.72791" lon="-3.35945">
        <ele>2</ele>
        <time>2020-08-21T13:10:13.000Z</time>
      </trkpt>
      <trkpt lat="47.72794" lon="-3.3594">
        <ele>2</ele>
        <time>2020-08-21T13:10:14.000Z</time>
      </trkpt>
      <trkpt lat="47.72798" lon="-3.35936">
        <ele>2</ele>
        <time>2020-08-21T13:10:15.000Z</time>
      </trkpt>
      <trkpt lat="47.72801" lon="-3.35931">
        <ele>2</ele>
        <time>2020-08-21T13:10:16.000Z</time>
      </trkpt>
      <trkpt lat="47.72804" lon="-3.35926">
        <ele>2</ele>
        <time>2020-08-21T13:10:17.000Z</time>
      </trkpt>
      <trkpt lat="47.72808" lon="-3.35921">
        <ele>2</ele>
        <time>2020-08-21T13:10:18.000Z</time>
      </trkpt>
      <trkpt lat="47.72811" lon="-3.35917">
        <ele>1.5</ele>
        <time>2020-08-21T13:10:19.000Z</time>
      </trkpt>
      <trkpt lat="47.72815" lon="-3.35912">
        <ele>1.5</ele>
        <time>2020-08-21T13:10:20.000Z</time>
      </trkpt>
      <trkpt lat="47.72818" lon="-3.35907">
        <ele>1.5</ele>
        <time>2020-08-21T13:10:21.000Z</time>
      </trkpt>
      <trkpt lat="47.72821" lon="-3.35902">
        <ele>1.5</ele>
        <time>2020-08-21T13:10:22.000Z</time>
      </trkpt>
      <trkpt lat="47.72825" lon="-3.35898">
        <ele>1.5</ele>
        <time>2020-08-21T13:10:23.000Z</time>
      </trkpt>
      <trkpt lat="47.72828" lon="-3.35893">
        <ele>1.5</ele>
        <time>2020-08-21T13:10:24.000Z</time>
      </trkpt>
      <trkpt lat="47.72832" lon="-3.35888">
        <ele>1.5</ele>
        <time>2020-08-21T13:10:25.000Z</time>
      </trkpt>
      <trkpt lat="47.72835" lon="-3.35883">
        <ele>3.8</ele>
        <time>2020-08-21T13:10:26.000Z</time>
      </trkpt>
      <trkpt lat="47.72838" lon="-3.35878">
        <ele>3.8</ele>
        <time>2020-08-21T13:10:27.000Z</time>
      </trkpt>
      <trkpt lat="47.72842" lon="-3.35873">
        <ele>3.8</ele>
        <time>2020-08-21T13:10:28.000Z</time>
      </trkpt>
      <trkpt lat="47.72845" lon="-3.35869">
        <ele>3.8</ele>
        <time>2020-08-21T13:10:29.000Z</time>
      </trkpt>
      <trkpt lat="47.72849" lon="-3.35864">
        <ele>3.8</ele>
        <time>2020-08-21T13:10:30.000Z</time>
      </trkpt>
      <trkpt lat="47.72852" lon="-3.35859">
        <ele>3.8</ele>
        <time>2020-08-21T13:10:31.000Z</time>
      </trkpt>
      <trkpt lat="47.72855" lon="-3.35854">
        <ele>3.8</ele>
        <time>2020-08-21T13:10:32.000Z</time>
      </trkpt>
      <trkpt lat="47.72859" lon="-3.35849">
        <ele>3.8</ele>
        <time>2020-08-21T13:10:33.000Z</time>
      </trkpt>
      <trkpt lat="47.72862" lon="-3.35844">
        <ele>3.8</ele>
        <time>2020-08-21T13:10:34.000Z</time>
      </trkpt>
      <trkpt lat="47.72866" lon="-3.35839">
        <ele>3.8</ele>
        <time>2020-08-21T13:10:35.000Z</time>
      </trkpt>
      <trkpt lat="47.72869" lon="-3.35834">
        <ele>3.8</ele>
        <time>2020-08-21T13:10:36.000Z</time>
      </trkpt>
      <trkpt lat="47.72872" lon="-3.35829">
        <ele>4</ele>
        <time>2020-08-21T13:10:37.000Z</time>
      </trkpt>
      <trkpt lat="47.72876" lon="-3.35824">
        <ele>4</ele>
        <time>2020-08-21T13:10:38.000Z</time>
      </trkpt>
      <trkpt lat="47.72879" lon="-3.35819">
        <ele>4</ele>
        <time>2020-08-21T13:10:39.000Z</time>
      </trkpt>
      <trkpt lat="47.72883" lon="-3.35814">
        <ele>4</ele>
        <time>2020-08-21T13:10:40.000Z</time>
      </trkpt>
      <trkpt lat="47.72886" lon="-3.35809">
        <ele>4</ele>
        <time>2020-08-21T13:10:41.000Z</time>
      </trkpt>
      <trkpt lat="47.7289" lon="-3.35804">
        <ele>4</ele>
        <time>2020-08-21T13:10:42.000Z</time>
      </trkpt>
      <trkpt lat="47.72893" lon="-3.35799">
        <ele>4</ele>
        <time>2020-08-21T13:10:43.000Z</time>
      </trkpt>
      <trkpt lat="47.72896" lon="-3.35794">
        <ele>4</ele>
        <time>2020-08-21T13:10:44.000Z</time>
      </trkpt>
      <trkpt lat="47.729" lon="-3.35789">
        <ele>4</ele>
        <time>2020-08-21T13:10:45.000Z</time>
      </trkpt>
      <trkpt lat="47.72903" lon="-3.35784">
        <ele>4</ele>
        <time>2020-08-21T13:10:46.000Z</time>
      </trkpt>
      <trkpt lat="47.72907" lon="-3.35779">
        <ele>4</ele>
        <time>2020-08-21T13:10:47.000Z</time>
      </trkpt>
      <trkpt lat="47.7291" lon="-3.35774">
        <ele>4</ele>
        <time>2020-08-21T13:10:48.000Z</time>
      </trkpt>
      <trkpt lat="47.72914" lon="-3.35769">
        <ele>4</ele>
        <time>2020-08-21T13:10:49.000Z</time>
      </trkpt>
      <trkpt lat="47.72917" lon="-3.35764">
        <ele>8</ele>
        <time>2020-08-21T13:10:50.000Z</time>
      </trkpt>
      <trkpt lat="47.72921" lon="-3.35759">
        <ele>8</ele>
        <time>2020-08-21T13:10:51.000Z</time>
      </trkpt>
      <trkpt lat="47.72924" lon="-3.35754">
        <ele>8</ele>
        <time>2020-08-21T13:10:52.000Z</time>
      </trkpt>
      <trkpt lat="47.72927" lon="-3.35749">
        <ele>5.3</ele>
        <time>2020-08-21T13:10:53.000Z</time>
      </trkpt>
      <trkpt lat="47.72931" lon="-3.35744">
        <ele>5.3</ele>
        <time>2020-08-21T13:10:54.000Z</time>
      </trkpt>
      <trkpt lat="47.72935" lon="-3.3574">
        <ele>5.3</ele>
        <time>2020-08-21T13:10:55.000Z</time>
      </trkpt>
      <trkpt lat="47.72938" lon="-3.35735">
        <ele>5.3</ele>
        <time>2020-08-21T13:10:56.000Z</time>
      </trkpt>
      <trkpt lat="47.72942" lon="-3.3573">
        <ele>5.3</ele>
        <time>2020-08-21T13:10:57.000Z</time>
      </trkpt>
      <trkpt lat="47.72945" lon="-3.35725">
        <ele>5.3</ele>
        <time>2020-08-21T13:10:58.000Z</time>
      </trkpt>
      <trkpt lat="47.72949" lon="-3.35721">
        <ele>5.3</ele>
        <time>2020-08-21T13:10:59.000Z</time>
      </trkpt>
      <trkpt lat="47.72952" lon="-3.35716">
        <ele>5.3</ele>
        <time>2020-08-21T13:11:00.000Z</time>
      </trkpt>
      <trkpt lat="47.72956" lon="-3.35711">
        <ele>5.3</ele>
        <time>2020-08-21T13:11:01.000Z</time>
      </trkpt>
      <trkpt lat="47.7296" lon="-3.35707">
        <ele>5.3</ele>
        <time>2020-08-21T13:11:02.000Z</time>
      </trkpt>
      <trkpt lat="47.72963" lon="-3.35702">
        <ele>5.3</ele>
        <time>2020-08-21T13:11:03.000Z</time>
      </trkpt>
      <trkpt lat="47.72967" lon="-3.35697">
        <ele>5.3</ele>
        <time>2020-08-21T13:11:04.000Z</time>
      </trkpt>
      <trkpt lat="47.72971" lon="-3.35693">
        <ele>5.3</ele>
        <time>2020-08-21T13:11:05.000Z</time>
      </trkpt>
      <trkpt lat="47.72974" lon="-3.35689">
        <ele>5.3</ele>
        <time>2020-08-21T13:11:06.000Z</time>
      </trkpt>
      <trkpt lat="47.72978" lon="-3.35684">
        <ele>5.3</ele>
        <time>2020-08-21T13:11:07.000Z</time>
      </trkpt>
      <trkpt lat="47.72982" lon="-3.3568">
        <ele>5.3</ele>
        <time>2020-08-21T13:11:08.000Z</time>
      </trkpt>
      <trkpt lat="47.72986" lon="-3.35676">
        <ele>5.3</ele>
        <time>2020-08-21T13:11:09.000Z</time>
      </trkpt>
      <trkpt lat="47.7299" lon="-3.35672">
        <ele>5.3</ele>
        <time>2020-08-21T13:11:10.000Z</time>
      </trkpt>
      <trkpt lat="47.72994" lon="-3.35667">
        <ele>5.3</ele>
        <time>2020-08-21T13:11:11.000Z</time>
      </trkpt>
      <trkpt lat="47.72998" lon="-3.35663">
        <ele>5</ele>
        <time>2020-08-21T13:11:12.000Z</time>
      </trkpt>
      <trkpt lat="47.73002" lon="-3.35659">
        <ele>7.3</ele>
        <time>2020-08-21T13:11:13.000Z</time>
      </trkpt>
      <trkpt lat="47.73005" lon="-3.35655">
        <ele>7.3</ele>
        <time>2020-08-21T13:11:14.000Z</time>
      </trkpt>
      <trkpt lat="47.73009" lon="-3.35651">
        <ele>7.3</ele>
        <time>2020-08-21T13:11:15.000Z</time>
      </trkpt>
      <trkpt lat="47.73014" lon="-3.35647">
        <ele>7.3</ele>
        <time>2020-08-21T13:11:16.000Z</time>
      </trkpt>
      <trkpt lat="47.73018" lon="-3.35644">
        <ele>7.3</ele>
        <time>2020-08-21T13:11:17.000Z</time>
      </trkpt>
      <trkpt lat="47.73022" lon="-3.3564">
        <ele>7.3</ele>
        <time>2020-08-21T13:11:18.000Z</time>
      </trkpt>
      <trkpt lat="47.73026" lon="-3.35636">
        <ele>7.3</ele>
        <time>2020-08-21T13:11:19.000Z</time>
      </trkpt>
      <trkpt lat="47.7303" lon="-3.35632">
        <ele>7.3</ele>
        <time>2020-08-21T13:11:20.000Z</time>
      </trkpt>
      <trkpt lat="47.73034" lon="-3.35628">
        <ele>7.3</ele>
        <time>2020-08-21T13:11:21.000Z</time>
      </trkpt>
      <trkpt lat="47.73038" lon="-3.35625">
        <ele>7.3</ele>
        <time>2020-08-21T13:11:22.000Z</time>
      </trkpt>
      <trkpt lat="47.73042" lon="-3.35621">
        <ele>7.3</ele>
        <time>2020-08-21T13:11:23.000Z</time>
      </trkpt>
      <trkpt lat="47.73046" lon="-3.35617">
        <ele>7.3</ele>
        <time>2020-08-21T13:11:24.000Z</time>
      </trkpt>
      <trkpt lat="47.7305" lon="-3.35614">
        <ele>7.3</ele>
        <time>2020-08-21T13:11:25.000Z</time>
      </trkpt>
      <trkpt lat="47.73054" lon="-3.3561">
        <ele>7.3</ele>
        <time>2020-08-21T13:11:26.000Z</time>
      </trkpt>
      <trkpt lat="47.73058" lon="-3.35606">
        <ele>7.3</ele>
        <time>2020-08-21T13:11:27.000Z</time>
      </trkpt>
      <trkpt lat="47.73063" lon="-3.35602">
        <ele>7.3</ele>
        <time>2020-08-21T13:11:28.000Z</time>
      </trkpt>
      <trkpt lat="47.73067" lon="-3.35599">
        <ele>7.3</ele>
        <time>2020-08-21T13:11:29.000Z</time>
      </trkpt>
      <trkpt lat="47.73071" lon="-3.35595">
        <ele>7.3</ele>
        <time>2020-08-21T13:11:30.000Z</time>
      </trkpt>
      <trkpt lat="47.73075" lon="-3.35591">
        <ele>7.3</ele>
        <time>2020-08-21T13:11:31.000Z</time>
      </trkpt>
      <trkpt lat="47.73079" lon="-3.35587">
        <ele>7.3</ele>
        <time>2020-08-21T13:11:32.000Z</time>
      </trkpt>
      <trkpt lat="47.73083" lon="-3.35584">
        <ele>7.3</ele>
        <time>2020-08-21T13:11:33.000Z</time>
      </trkpt>
      <trkpt lat="47.73087" lon="-3.3558">
        <ele>8</ele>
        <time>2020-08-21T13:11:34.000Z</time>
      </trkpt>
      <trkpt lat="47.73091" lon="-3.35576">
        <ele>8</ele>
        <time>2020-08-21T13:11:35.000Z</time>
      </trkpt>
      <trkpt lat="47.73095" lon="-3.35572">
        <ele>8</ele>
        <time>2020-08-21T13:11:36.000Z</time>
      </trkpt>
      <trkpt lat="47.73099" lon="-3.35568">
        <ele>8</ele>
        <time>2020-08-21T13:11:37.000Z</time>
      </trkpt>
      <trkpt lat="47.73103" lon="-3.35564">
        <ele>8</ele>
        <time>2020-08-21T13:11:38.000Z</time>
      </trkpt>
      <trkpt lat="47.73107" lon="-3.3556">
        <ele>8</ele>
        <time>2020-08-21T13:11:39.000Z</time>
      </trkpt>
      <trkpt lat="47.73111" lon="-3.35556">
        <ele>8</ele>
        <time>2020-08-21T13:11:40.000Z</time>
      </trkpt>
      <trkpt lat="47.73115" lon="-3.35552">
        <ele>8</ele>
        <time>2020-08-21T13:11:41.000Z</time>
      </trkpt>
      <trkpt lat="47.73118" lon="-3.35548">
        <ele>8</ele>
        <time>2020-08-21T13:11:42.000Z</time>
      </trkpt>
      <trkpt lat="47.73122" lon="-3.35544">
        <ele>8</ele>
        <time>2020-08-21T13:11:43.000Z</time>
      </trkpt>
      <trkpt lat="47.73126" lon="-3.3554">
        <ele>8</ele>
        <time>2020-08-21T13:11:44.000Z</time>
      </trkpt>
      <trkpt lat="47.7313" lon="-3.35536">
        <ele>8</ele>
        <time>2020-08-21T13:11:45.000Z</time>
      </trkpt>
      <trkpt lat="47.73134" lon="-3.35532">
        <ele>8</ele>
        <time>2020-08-21T13:11:46.000Z</time>
      </trkpt>
      <trkpt lat="47.73138" lon="-3.35529">
        <ele>8</ele>
        <time>2020-08-21T13:11:47.000Z</time>
      </trkpt>
      <trkpt lat="47.73142" lon="-3.35525">
        <ele>8</ele>
        <time>2020-08-21T13:11:48.000Z</time>
      </trkpt>
      <trkpt lat="47.73147" lon="-3.35521">
        <ele>8</ele>
        <time>2020-08-21T13:11:49.000Z</time>
      </trkpt>
      <trkpt lat="47.73151" lon="-3.35517">
        <ele>8</ele>
        <time>2020-08-21T13:11:50.000Z</time>
      </trkpt>
      <trkpt lat="47.73155" lon="-3.35514">
        <ele>8</ele>
        <time>2020-08-21T13:11:51.000Z</time>
      </trkpt>
      <trkpt lat="47.73159" lon="-3.3551">
        <ele>8</ele>
        <time>2020-08-21T13:11:52.000Z</time>
      </trkpt>
      <trkpt lat="47.73163" lon="-3.35506">
        <ele>8</ele>
        <time>2020-08-21T13:11:53.000Z</time>
      </trkpt>
      <trkpt lat="47.73167" lon="-3.35502">
        <ele>8</ele>
        <time>2020-08-21T13:11:54.000Z</time>
      </trkpt>
      <trkpt lat="47.73171" lon="-3.35498">
        <ele>10.7</ele>
        <time>2020-08-21T13:11:55.000Z</time>
      </trkpt>
      <trkpt lat="47.73175" lon="-3.35495">
        <ele>10.7</ele>
        <time>2020-08-21T13:11:56.000Z</time>
      </trkpt>
      <trkpt lat="47.73179" lon="-3.35491">
        <ele>10.7</ele>
        <time>2020-08-21T13:11:57.000Z</time>
      </trkpt>
      <trkpt lat="47.73183" lon="-3.35487">
        <ele>10.7</ele>
        <time>2020-08-21T13:11:58.000Z</time>
      </trkpt>
      <trkpt lat="47.73187" lon="-3.35483">
        <ele>10.7</ele>
        <time>2020-08-21T13:11:59.000Z</time>
      </trkpt>
      <trkpt lat="47.73191" lon="-3.35479">
        <ele>10.7</ele>
        <time>2020-08-21T13:12:00.000Z</time>
      </trkpt>
      <trkpt lat="47.73195" lon="-3.35475">
        <ele>10.7</ele>
        <time>2020-08-21T13:12:01.000Z</time>
      </trkpt>
      <trkpt lat="47.73199" lon="-3.35471">
        <ele>10.7</ele>
        <time>2020-08-21T13:12:02.000Z</time>
      </trkpt>
      <trkpt lat="47.73203" lon="-3.35467">
        <ele>10.7</ele>
        <time>2020-08-21T13:12:03.000Z</time>
      </trkpt>
      <trkpt lat="47.73207" lon="-3.35462">
        <ele>10.7</ele>
        <time>2020-08-21T13:12:04.000Z</time>
      </trkpt>
      <trkpt lat="47.73211" lon="-3.35458">
        <ele>10.7</ele>
        <time>2020-08-21T13:12:05.000Z</time>
      </trkpt>
      <trkpt lat="47.73215" lon="-3.35454">
        <ele>10.7</ele>
        <time>2020-08-21T13:12:06.000Z</time>
      </trkpt>
      <trkpt lat="47.73218" lon="-3.3545">
        <ele>10.7</ele>
        <time>2020-08-21T13:12:07.000Z</time>
      </trkpt>
      <trkpt lat="47.73222" lon="-3.35446">
        <ele>10.7</ele>
        <time>2020-08-21T13:12:08.000Z</time>
      </trkpt>
      <trkpt lat="47.73226" lon="-3.35442">
        <ele>10.7</ele>
        <time>2020-08-21T13:12:09.000Z</time>
      </trkpt>
      <trkpt lat="47.7323" lon="-3.35438">
        <ele>10.7</ele>
        <time>2020-08-21T13:12:10.000Z</time>
      </trkpt>
      <trkpt lat="47.73234" lon="-3.35433">
        <ele>10.7</ele>
        <time>2020-08-21T13:12:11.000Z</time>
      </trkpt>
      <trkpt lat="47.73238" lon="-3.35429">
        <ele>10.7</ele>
        <time>2020-08-21T13:12:12.000Z</time>
      </trkpt>
      <trkpt lat="47.73242" lon="-3.35425">
        <ele>10.7</ele>
        <time>2020-08-21T13:12:13.000Z</time>
      </trkpt>
      <trkpt lat="47.73247" lon="-3.35421">
        <ele>10.7</ele>
        <time>2020-08-21T13:12:14.000Z</time>
      </trkpt>
      <trkpt lat="47.73251" lon="-3.35417">
        <ele>14</ele>
        <time>2020-08-21T13:12:15.000Z</time>
      </trkpt>
      <trkpt lat="47.73255" lon="-3.35413">
        <ele>11.5</ele>
        <time>2020-08-21T13:12:16.000Z</time>
      </trkpt>
      <trkpt lat="47.73259" lon="-3.35409">
        <ele>11.5</ele>
        <time>2020-08-21T13:12:17.000Z</time>
      </trkpt>
      <trkpt lat="47.73263" lon="-3.35405">
        <ele>11.5</ele>
        <time>2020-08-21T13:12:18.000Z</time>
      </trkpt>
      <trkpt lat="47.73267" lon="-3.35401">
        <ele>11.5</ele>
        <time>2020-08-21T13:12:19.000Z</time>
      </trkpt>
      <trkpt lat="47.73271" lon="-3.35397">
        <ele>11.5</ele>
        <time>2020-08-21T13:12:20.000Z</time>
      </trkpt>
      <trkpt lat="47.73275" lon="-3.35393">
        <ele>11.5</ele>
        <time>2020-08-21T13:12:21.000Z</time>
      </trkpt>
      <trkpt lat="47.73279" lon="-3.35389">
        <ele>11.5</ele>
        <time>2020-08-21T13:12:22.000Z</time>
      </trkpt>
      <trkpt lat="47.73283" lon="-3.35385">
        <ele>11.5</ele>
        <time>2020-08-21T13:12:23.000Z</time>
      </trkpt>
      <trkpt lat="47.73287" lon="-3.35381">
        <ele>11.5</ele>
        <time>2020-08-21T13:12:24.000Z</time>
      </trkpt>
      <trkpt lat="47.73292" lon="-3.35377">
        <ele>11.5</ele>
        <time>2020-08-21T13:12:25.000Z</time>
      </trkpt>
      <trkpt lat="47.73296" lon="-3.35373">
        <ele>11.5</ele>
        <time>2020-08-21T13:12:26.000Z</time>
      </trkpt>
      <trkpt lat="47.733" lon="-3.3537">
        <ele>11.5</ele>
        <time>2020-08-21T13:12:27.000Z</time>
      </trkpt>
      <trkpt lat="47.73304" lon="-3.35366">
        <ele>11.5</ele>
        <time>2020-08-21T13:12:28.000Z</time>
      </trkpt>
      <trkpt lat="47.73308" lon="-3.35362">
        <ele>11.5</ele>
        <time>2020-08-21T13:12:29.000Z</time>
      </trkpt>
      <trkpt lat="47.73312" lon="-3.35358">
        <ele>11.5</ele>
        <time>2020-08-21T13:12:30.000Z</time>
      </trkpt>
      <trkpt lat="47.73316" lon="-3.35355">
        <ele>11.5</ele>
        <time>2020-08-21T13:12:31.000Z</time>
      </trkpt>
      <trkpt lat="47.73321" lon="-3.35351">
        <ele>11.5</ele>
        <time>2020-08-21T13:12:32.000Z</time>
      </trkpt>
      <trkpt lat="47.73325" lon="-3.35347">
        <ele>11.5</ele>
        <time>2020-08-21T13:12:33.000Z</time>
      </trkpt>
      <trkpt lat="47.73329" lon="-3.35343">
        <ele>11.5</ele>
        <time>2020-08-21T13:12:34.000Z</time>
      </trkpt>
      <trkpt lat="47.73333" lon="-3.3534">
        <ele>11.5</ele>
        <time>2020-08-21T13:12:35.000Z</time>
      </trkpt>
      <trkpt lat="47.73337" lon="-3.35336">
        <ele>11</ele>
        <time>2020-08-21T13:12:36.000Z</time>
      </trkpt>
      <trkpt lat="47.73341" lon="-3.35332">
        <ele>9.5</ele>
        <time>2020-08-21T13:12:37.000Z</time>
      </trkpt>
      <trkpt lat="47.73345" lon="-3.35328">
        <ele>9.5</ele>
        <time>2020-08-21T13:12:38.000Z</time>
      </trkpt>
      <trkpt lat="47.7335" lon="-3.35325">
        <ele>9.5</ele>
        <time>2020-08-21T13:12:39.000Z</time>
      </trkpt>
      <trkpt lat="47.73354" lon="-3.35321">
        <ele>9.5</ele>
        <time>2020-08-21T13:12:40.000Z</time>
      </trkpt>
      <trkpt lat="47.73358" lon="-3.35317">
        <ele>9.5</ele>
        <time>2020-08-21T13:12:41.000Z</time>
      </trkpt>
      <trkpt lat="47.73362" lon="-3.35313">
        <ele>9.5</ele>
        <time>2020-08-21T13:12:42.000Z</time>
      </trkpt>
      <trkpt lat="47.73366" lon="-3.35309">
        <ele>9.5</ele>
        <time>2020-08-21T13:12:43.000Z</time>
      </trkpt>
      <trkpt lat="47.7337" lon="-3.35305">
        <ele>9.5</ele>
        <time>2020-08-21T13:12:44.000Z</time>
      </trkpt>
      <trkpt lat="47.73374" lon="-3.35301">
        <ele>9.5</ele>
        <time>2020-08-21T13:12:45.000Z</time>
      </trkpt>
      <trkpt lat="47.73378" lon="-3.35298">
        <ele>9.5</ele>
        <time>2020-08-21T13:12:46.000Z</time>
      </trkpt>
      <trkpt lat="47.73383" lon="-3.35294">
        <ele>9.5</ele>
        <time>2020-08-21T13:12:47.000Z</time>
      </trkpt>
      <trkpt lat="47.73387" lon="-3.3529">
        <ele>9.5</ele>
        <time>2020-08-21T13:12:48.000Z</time>
      </trkpt>
      <trkpt lat="47.73391" lon="-3.35286">
        <ele>9.5</ele>
        <time>2020-08-21T13:12:49.000Z</time>
      </trkpt>
      <trkpt lat="47.73395" lon="-3.35282">
        <ele>9.5</ele>
        <time>2020-08-21T13:12:50.000Z</time>
      </trkpt>
      <trkpt lat="47.73399" lon="-3.35278">
        <ele>9.5</ele>
        <time>2020-08-21T13:12:51.000Z</time>
      </trkpt>
      <trkpt lat="47.73403" lon="-3.35274">
        <ele>9.5</ele>
        <time>2020-08-21T13:12:52.000Z</time>
      </trkpt>
      <trkpt lat="47.73407" lon="-3.3527">
        <ele>9.5</ele>
        <time>2020-08-21T13:12:53.000Z</time>
      </trkpt>
      <trkpt lat="47.73411" lon="-3.35266">
        <ele>9.5</ele>
        <time>2020-08-21T13:12:54.000Z</time>
      </trkpt>
      <trkpt lat="47.73415" lon="-3.35262">
        <ele>9.5</ele>
        <time>2020-08-21T13:12:55.000Z</time>
      </trkpt>
      <trkpt lat="47.73419" lon="-3.35257">
        <ele>8.2</ele>
        <time>2020-08-21T13:12:56.000Z</time>
      </trkpt>
      <trkpt lat="47.73423" lon="-3.35253">
        <ele>8.2</ele>
        <time>2020-08-21T13:12:57.000Z</time>
      </trkpt>
      <trkpt lat="47.73427" lon="-3.35249">
        <ele>7.7</ele>
        <time>2020-08-21T13:12:58.000Z</time>
      </trkpt>
      <trkpt lat="47.73431" lon="-3.35245">
        <ele>7.7</ele>
        <time>2020-08-21T13:12:59.000Z</time>
      </trkpt>
      <trkpt lat="47.73435" lon="-3.35241">
        <ele>7.7</ele>
        <time>2020-08-21T13:13:00.000Z</time>
      </trkpt>
      <trkpt lat="47.73439" lon="-3.35237">
        <ele>7.7</ele>
        <time>2020-08-21T13:13:01.000Z</time>
      </trkpt>
      <trkpt lat="47.73443" lon="-3.35232">
        <ele>7.7</ele>
        <time>2020-08-21T13:13:02.000Z</time>
      </trkpt>
      <trkpt lat="47.73447" lon="-3.35228">
        <ele>7.7</ele>
        <time>2020-08-21T13:13:03.000Z</time>
      </trkpt>
      <trkpt lat="47.73451" lon="-3.35224">
        <ele>7.7</ele>
        <time>2020-08-21T13:13:04.000Z</time>
      </trkpt>
      <trkpt lat="47.73455" lon="-3.35219">
        <ele>7.7</ele>
        <time>2020-08-21T13:13:05.000Z</time>
      </trkpt>
      <trkpt lat="47.73458" lon="-3.35215">
        <ele>7.7</ele>
        <time>2020-08-21T13:13:06.000Z</time>
      </trkpt>
      <trkpt lat="47.73462" lon="-3.35211">
        <ele>7.7</ele>
        <time>2020-08-21T13:13:07.000Z</time>
      </trkpt>
      <trkpt lat="47.73466" lon="-3.35206">
        <ele>7.7</ele>
        <time>2020-08-21T13:13:08.000Z</time>
      </trkpt>
      <trkpt lat="47.7347" lon="-3.35202">
        <ele>7.7</ele>
        <time>2020-08-21T13:13:09.000Z</time>
      </trkpt>
      <trkpt lat="47.73474" lon="-3.35197">
        <ele>7.7</ele>
        <time>2020-08-21T13:13:10.000Z</time>
      </trkpt>
      <trkpt lat="47.73477" lon="-3.35193">
        <ele>7.7</ele>
        <time>2020-08-21T13:13:11.000Z</time>
      </trkpt>
      <trkpt lat="47.73481" lon="-3.35188">
        <ele>7.7</ele>
        <time>2020-08-21T13:13:12.000Z</time>
      </trkpt>
      <trkpt lat="47.73485" lon="-3.35184">
        <ele>7.7</ele>
        <time>2020-08-21T13:13:13.000Z</time>
      </trkpt>
      <trkpt lat="47.73489" lon="-3.35179">
        <ele>7.7</ele>
        <time>2020-08-21T13:13:14.000Z</time>
      </trkpt>
      <trkpt lat="47.73492" lon="-3.35175">
        <ele>7.7</ele>
        <time>2020-08-21T13:13:15.000Z</time>
      </trkpt>
      <trkpt lat="47.73496" lon="-3.3517">
        <ele>7.7</ele>
        <time>2020-08-21T13:13:16.000Z</time>
      </trkpt>
      <trkpt lat="47.735" lon="-3.35166">
        <ele>7</ele>
        <time>2020-08-21T13:13:17.000Z</time>
      </trkpt>
      <trkpt lat="47.73503" lon="-3.35161">
        <ele>8.3</ele>
        <time>2020-08-21T13:13:18.000Z</time>
      </trkpt>
      <trkpt lat="47.73507" lon="-3.35156">
        <ele>8.3</ele>
        <time>2020-08-21T13:13:19.000Z</time>
      </trkpt>
      <trkpt lat="47.73511" lon="-3.35152">
        <ele>8.3</ele>
        <time>2020-08-21T13:13:20.000Z</time>
      </trkpt>
      <trkpt lat="47.73514" lon="-3.35147">
        <ele>8.3</ele>
        <time>2020-08-21T13:13:21.000Z</time>
      </trkpt>
      <trkpt lat="47.73518" lon="-3.35143">
        <ele>8.3</ele>
        <time>2020-08-21T13:13:22.000Z</time>
      </trkpt>
      <trkpt lat="47.73522" lon="-3.35138">
        <ele>8.3</ele>
        <time>2020-08-21T13:13:23.000Z</time>
      </trkpt>
      <trkpt lat="47.73526" lon="-3.35134">
        <ele>8.3</ele>
        <time>2020-08-21T13:13:24.000Z</time>
      </trkpt>
      <trkpt lat="47.73529" lon="-3.35129">
        <ele>8.3</ele>
        <time>2020-08-21T13:13:25.000Z</time>
      </trkpt>
      <trkpt lat="47.73533" lon="-3.35125">
        <ele>8.3</ele>
        <time>2020-08-21T13:13:26.000Z</time>
      </trkpt>
      <trkpt lat="47.73537" lon="-3.3512">
        <ele>8.3</ele>
        <time>2020-08-21T13:13:27.000Z</time>
      </trkpt>
      <trkpt lat="47.7354" lon="-3.35116">
        <ele>8.3</ele>
        <time>2020-08-21T13:13:28.000Z</time>
      </trkpt>
      <trkpt lat="47.73544" lon="-3.35112">
        <ele>8.3</ele>
        <time>2020-08-21T13:13:29.000Z</time>
      </trkpt>
      <trkpt lat="47.73548" lon="-3.35107">
        <ele>8.3</ele>
        <time>2020-08-21T13:13:30.000Z</time>
      </trkpt>
      <trkpt lat="47.73552" lon="-3.35103">
        <ele>8.3</ele>
        <time>2020-08-21T13:13:31.000Z</time>
      </trkpt>
      <trkpt lat="47.73555" lon="-3.35099">
        <ele>8.3</ele>
        <time>2020-08-21T13:13:32.000Z</time>
      </trkpt>
      <trkpt lat="47.73559" lon="-3.35094">
        <ele>8.3</ele>
        <time>2020-08-21T13:13:33.000Z</time>
      </trkpt>
      <trkpt lat="47.73563" lon="-3.3509">
        <ele>8.3</ele>
        <time>2020-08-21T13:13:34.000Z</time>
      </trkpt>
      <trkpt lat="47.73567" lon="-3.35086">
        <ele>8.3</ele>
        <time>2020-08-21T13:13:35.000Z</time>
      </trkpt>
      <trkpt lat="47.73571" lon="-3.35081">
        <ele>4.8</ele>
        <time>2020-08-21T13:13:36.000Z</time>
      </trkpt>
      <trkpt lat="47.73574" lon="-3.35077">
        <ele>4.8</ele>
        <time>2020-08-21T13:13:37.000Z</time>
      </trkpt>
      <trkpt lat="47.73578" lon="-3.35073">
        <ele>4.8</ele>
        <time>2020-08-21T13:13:38.000Z</time>
      </trkpt>
      <trkpt lat="47.73582" lon="-3.35069">
        <ele>4.8</ele>
        <time>2020-08-21T13:13:39.000Z</time>
      </trkpt>
      <trkpt lat="47.73586" lon="-3.35065">
        <ele>6</ele>
        <time>2020-08-21T13:13:40.000Z</time>
      </trkpt>
      <trkpt lat="47.7359" lon="-3.35061">
        <ele>6</ele>
        <time>2020-08-21T13:13:41.000Z</time>
      </trkpt>
      <trkpt lat="47.73594" lon="-3.35057">
        <ele>6</ele>
        <time>2020-08-21T13:13:42.000Z</time>
      </trkpt>
      <trkpt lat="47.73598" lon="-3.35053">
        <ele>6</ele>
        <time>2020-08-21T13:13:43.000Z</time>
      </trkpt>
      <trkpt lat="47.73602" lon="-3.35049">
        <ele>6</ele>
        <time>2020-08-21T13:13:44.000Z</time>
      </trkpt>
      <trkpt lat="47.73606" lon="-3.35045">
        <ele>6</ele>
        <time>2020-08-21T13:13:45.000Z</time>
      </trkpt>
      <trkpt lat="47.73609" lon="-3.35041">
        <ele>6</ele>
        <time>2020-08-21T13:13:46.000Z</time>
      </trkpt>
      <trkpt lat="47.73613" lon="-3.35037">
        <ele>6</ele>
        <time>2020-08-21T13:13:47.000Z</time>
      </trkpt>
      <trkpt lat="47.73617" lon="-3.35033">
        <ele>6</ele>
        <time>2020-08-21T13:13:48.000Z</time>
      </trkpt>
      <trkpt lat="47.73621" lon="-3.35029">
        <ele>6</ele>
        <time>2020-08-21T13:13:49.000Z</time>
      </trkpt>
      <trkpt lat="47.73625" lon="-3.35025">
        <ele>6</ele>
        <time>2020-08-21T13:13:50.000Z</time>
      </trkpt>
      <trkpt lat="47.73629" lon="-3.35022">
        <ele>6</ele>
        <time>2020-08-21T13:13:51.000Z</time>
      </trkpt>
      <trkpt lat="47.73633" lon="-3.35018">
        <ele>6</ele>
        <time>2020-08-21T13:13:52.000Z</time>
      </trkpt>
      <trkpt lat="47.73637" lon="-3.35014">
        <ele>6</ele>
        <time>2020-08-21T13:13:53.000Z</time>
      </trkpt>
      <trkpt lat="47.73641" lon="-3.35011">
        <ele>6</ele>
        <time>2020-08-21T13:13:54.000Z</time>
      </trkpt>
      <trkpt lat="47.73646" lon="-3.35007">
        <ele>6</ele>
        <time>2020-08-21T13:13:55.000Z</time>
      </trkpt>
      <trkpt lat="47.7365" lon="-3.35004">
        <ele>6</ele>
        <time>2020-08-21T13:13:56.000Z</time>
      </trkpt>
      <trkpt lat="47.73654" lon="-3.35">
        <ele>6</ele>
        <time>2020-08-21T13:13:57.000Z</time>
      </trkpt>
      <trkpt lat="47.73658" lon="-3.34997">
        <ele>3.5</ele>
        <time>2020-08-21T13:13:58.000Z</time>
      </trkpt>
      <trkpt lat="47.73662" lon="-3.34993">
        <ele>3.5</ele>
        <time>2020-08-21T13:13:59.000Z</time>
      </trkpt>
      <trkpt lat="47.73666" lon="-3.3499">
        <ele>3.5</ele>
        <time>2020-08-21T13:14:00.000Z</time>
      </trkpt>
      <trkpt lat="47.7367" lon="-3.34986">
        <ele>1</ele>
        <time>2020-08-21T13:14:01.000Z</time>
      </trkpt>
      <trkpt lat="47.73674" lon="-3.34983">
        <ele>1</ele>
        <time>2020-08-21T13:14:02.000Z</time>
      </trkpt>
      <trkpt lat="47.73678" lon="-3.3498">
        <ele>1</ele>
        <time>2020-08-21T13:14:03.000Z</time>
      </trkpt>
      <trkpt lat="47.73682" lon="-3.34977">
        <ele>1</ele>
        <time>2020-08-21T13:14:04.000Z</time>
      </trkpt>
      <trkpt lat="47.73687" lon="-3.34973">
        <ele>1</ele>
        <time>2020-08-21T13:14:05.000Z</time>
      </trkpt>
      <trkpt lat="47.73691" lon="-3.3497">
        <ele>1</ele>
        <time>2020-08-21T13:14:06.000Z</time>
      </trkpt>
      <trkpt lat="47.73695" lon="-3.34967">
        <ele>1</ele>
        <time>2020-08-21T13:14:07.000Z</time>
      </trkpt>
      <trkpt lat="47.73699" lon="-3.34964">
        <ele>1</ele>
        <time>2020-08-21T13:14:08.000Z</time>
      </trkpt>
      <trkpt lat="47.73703" lon="-3.34961">
        <ele>1</ele>
        <time>2020-08-21T13:14:09.000Z</time>
      </trkpt>
      <trkpt lat="47.73707" lon="-3.34958">
        <ele>1</ele>
        <time>2020-08-21T13:14:10.000Z</time>
      </trkpt>
      <trkpt lat="47.73712" lon="-3.34955">
        <ele>1</ele>
        <time>2020-08-21T13:14:11.000Z</time>
      </trkpt>
      <trkpt lat="47.73716" lon="-3.34952">
        <ele>1</ele>
        <time>2020-08-21T13:14:12.000Z</time>
      </trkpt>
      <trkpt lat="47.7372" lon="-3.34949">
        <ele>1</ele>
        <time>2020-08-21T13:14:13.000Z</time>
      </trkpt>
      <trkpt lat="47.73724" lon="-3.34946">
        <ele>1</ele>
        <time>2020-08-21T13:14:14.000Z</time>
      </trkpt>
      <trkpt lat="47.73728" lon="-3.34943">
        <ele>1</ele>
        <time>2020-08-21T13:14:15.000Z</time>
      </trkpt>
      <trkpt lat="47.73733" lon="-3.3494">
        <ele>1</ele>
        <time>2020-08-21T13:14:16.000Z</time>
      </trkpt>
      <trkpt lat="47.73737" lon="-3.34938">
        <ele>1</ele>
        <time>2020-08-21T13:14:17.000Z</time>
      </trkpt>
      <trkpt lat="47.73741" lon="-3.34935">
        <ele>1</ele>
        <time>2020-08-21T13:14:18.000Z</time>
      </trkpt>
      <trkpt lat="47.73745" lon="-3.34932">
        <ele>1</ele>
        <time>2020-08-21T13:14:19.000Z</time>
      </trkpt>
      <trkpt lat="47.7375" lon="-3.34929">
        <ele>1</ele>
        <time>2020-08-21T13:14:20.000Z</time>
      </trkpt>
      <trkpt lat="47.73754" lon="-3.34927">
        <ele>5</ele>
        <time>2020-08-21T13:14:21.000Z</time>
      </trkpt>
      <trkpt lat="47.73758" lon="-3.34924">
        <ele>5</ele>
        <time>2020-08-21T13:14:22.000Z</time>
      </trkpt>
      <trkpt lat="47.73762" lon="-3.34921">
        <ele>5</ele>
        <time>2020-08-21T13:14:23.000Z</time>
      </trkpt>
      <trkpt lat="47.73767" lon="-3.34918">
        <ele>5</ele>
        <time>2020-08-21T13:14:24.000Z</time>
      </trkpt>
      <trkpt lat="47.73771" lon="-3.34916">
        <ele>4.2</ele>
        <time>2020-08-21T13:14:25.000Z</time>
      </trkpt>
      <trkpt lat="47.73775" lon="-3.34913">
        <ele>4.2</ele>
        <time>2020-08-21T13:14:26.000Z</time>
      </trkpt>
      <trkpt lat="47.73779" lon="-3.3491">
        <ele>4.2</ele>
        <time>2020-08-21T13:14:27.000Z</time>
      </trkpt>
      <trkpt lat="47.73783" lon="-3.34908">
        <ele>4.2</ele>
        <time>2020-08-21T13:14:28.000Z</time>
      </trkpt>
      <trkpt lat="47.73788" lon="-3.34905">
        <ele>4.2</ele>
        <time>2020-08-21T13:14:29.000Z</time>
      </trkpt>
      <trkpt lat="47.73792" lon="-3.34902">
        <ele>4.2</ele>
        <time>2020-08-21T13:14:30.000Z</time>
      </trkpt>
      <trkpt lat="47.73796" lon="-3.349">
        <ele>4.2</ele>
        <time>2020-08-21T13:14:31.000Z</time>
      </trkpt>
      <trkpt lat="47.738" lon="-3.34897">
        <ele>4.2</ele>
        <time>2020-08-21T13:14:32.000Z</time>
      </trkpt>
      <trkpt lat="47.73805" lon="-3.34894">
        <ele>4.2</ele>
        <time>2020-08-21T13:14:33.000Z</time>
      </trkpt>
      <trkpt lat="47.73809" lon="-3.34892">
        <ele>4.2</ele>
        <time>2020-08-21T13:14:34.000Z</time>
      </trkpt>
      <trkpt lat="47.73813" lon="-3.34889">
        <ele>4.2</ele>
        <time>2020-08-21T13:14:35.000Z</time>
      </trkpt>
      <trkpt lat="47.73817" lon="-3.34886">
        <ele>4.2</ele>
        <time>2020-08-21T13:14:36.000Z</time>
      </trkpt>
      <trkpt lat="47.73822" lon="-3.34884">
        <ele>4.2</ele>
        <time>2020-08-21T13:14:37.000Z</time>
      </trkpt>
      <trkpt lat="47.73826" lon="-3.34881">
        <ele>4.2</ele>
        <time>2020-08-21T13:14:38.000Z</time>
      </trkpt>
      <trkpt lat="47.7383" lon="-3.34878">
        <ele>4.2</ele>
        <time>2020-08-21T13:14:39.000Z</time>
      </trkpt>
      <trkpt lat="47.73834" lon="-3.34876">
        <ele>4.5</ele>
        <time>2020-08-21T13:14:40.000Z</time>
      </trkpt>
      <trkpt lat="47.73839" lon="-3.34873">
        <ele>4.5</ele>
        <time>2020-08-21T13:14:41.000Z</time>
      </trkpt>
      <trkpt lat="47.73843" lon="-3.34871">
        <ele>4.5</ele>
        <time>2020-08-21T13:14:42.000Z</time>
      </trkpt>
      <trkpt lat="47.73847" lon="-3.34868">
        <ele>4.5</ele>
        <time>2020-08-21T13:14:43.000Z</time>
      </trkpt>
      <trkpt lat="47.73851" lon="-3.34866">
        <ele>4.5</ele>
        <time>2020-08-21T13:14:44.000Z</time>
      </trkpt>
      <trkpt lat="47.73856" lon="-3.34863">
        <ele>4.5</ele>
        <time>2020-08-21T13:14:45.000Z</time>
      </trkpt>
      <trkpt lat="47.7386" lon="-3.34861">
        <ele>4.5</ele>
        <time>2020-08-21T13:14:46.000Z</time>
      </trkpt>
      <trkpt lat="47.73864" lon="-3.34858">
        <ele>4.5</ele>
        <time>2020-08-21T13:14:47.000Z</time>
      </trkpt>
      <trkpt lat="47.73868" lon="-3.34856">
        <ele>4.5</ele>
        <time>2020-08-21T13:14:48.000Z</time>
      </trkpt>
      <trkpt lat="47.73873" lon="-3.34854">
        <ele>4.5</ele>
        <time>2020-08-21T13:14:49.000Z</time>
      </trkpt>
      <trkpt lat="47.73877" lon="-3.34851">
        <ele>4.5</ele>
        <time>2020-08-21T13:14:50.000Z</time>
      </trkpt>
      <trkpt lat="47.73881" lon="-3.34849">
        <ele>4.5</ele>
        <time>2020-08-21T13:14:51.000Z</time>
      </trkpt>
      <trkpt lat="47.73885" lon="-3.34847">
        <ele>4.5</ele>
        <time>2020-08-21T13:14:52.000Z</time>
      </trkpt>
      <trkpt lat="47.7389" lon="-3.34845">
        <ele>4.5</ele>
        <time>2020-08-21T13:14:53.000Z</time>
      </trkpt>
      <trkpt lat="47.73894" lon="-3.34843">
        <ele>4.5</ele>
        <time>2020-08-21T13:14:54.000Z</time>
      </trkpt>
      <trkpt lat="47.73898" lon="-3.3484">
        <ele>4.5</ele>
        <time>2020-08-21T13:14:55.000Z</time>
      </trkpt>
      <trkpt lat="47.73902" lon="-3.34838">
        <ele>4.5</ele>
        <time>2020-08-21T13:14:56.000Z</time>
      </trkpt>
      <trkpt lat="47.73907" lon="-3.34836">
        <ele>4.5</ele>
        <time>2020-08-21T13:14:57.000Z</time>
      </trkpt>
      <trkpt lat="47.73911" lon="-3.34834">
        <ele>4.5</ele>
        <time>2020-08-21T13:14:58.000Z</time>
      </trkpt>
      <trkpt lat="47.73915" lon="-3.34832">
        <ele>-1.5</ele>
        <time>2020-08-21T13:14:59.000Z</time>
      </trkpt>
      <trkpt lat="47.73919" lon="-3.3483">
        <ele>-0.5</ele>
        <time>2020-08-21T13:15:00.000Z</time>
      </trkpt>
      <trkpt lat="47.73924" lon="-3.34828">
        <ele>-0.5</ele>
        <time>2020-08-21T13:15:01.000Z</time>
      </trkpt>
      <trkpt lat="47.73928" lon="-3.34826">
        <ele>-0.5</ele>
        <time>2020-08-21T13:15:02.000Z</time>
      </trkpt>
      <trkpt lat="47.73932" lon="-3.34823">
        <ele>-0.5</ele>
        <time>2020-08-21T13:15:03.000Z</time>
      </trkpt>
      <trkpt lat="47.73937" lon="-3.34821">
        <ele>-0.5</ele>
        <time>2020-08-21T13:15:04.000Z</time>
      </trkpt>
      <trkpt lat="47.73941" lon="-3.34819">
        <ele>-0.5</ele>
        <time>2020-08-21T13:15:05.000Z</time>
      </trkpt>
      <trkpt lat="47.73945" lon="-3.34817">
        <ele>-0.5</ele>
        <time>2020-08-21T13:15:06.000Z</time>
      </trkpt>
      <trkpt lat="47.73949" lon="-3.34815">
        <ele>-0.5</ele>
        <time>2020-08-21T13:15:07.000Z</time>
      </trkpt>
      <trkpt lat="47.73954" lon="-3.34813">
        <ele>-0.5</ele>
        <time>2020-08-21T13:15:08.000Z</time>
      </trkpt>
      <trkpt lat="47.73958" lon="-3.34811">
        <ele>-0.5</ele>
        <time>2020-08-21T13:15:09.000Z</time>
      </trkpt>
      <trkpt lat="47.73962" lon="-3.34809">
        <ele>-0.5</ele>
        <time>2020-08-21T13:15:10.000Z</time>
      </trkpt>
      <trkpt lat="47.73967" lon="-3.34807">
        <ele>-0.5</ele>
        <time>2020-08-21T13:15:11.000Z</time>
      </trkpt>
      <trkpt lat="47.73971" lon="-3.34805">
        <ele>-0.5</ele>
        <time>2020-08-21T13:15:12.000Z</time>
      </trkpt>
      <trkpt lat="47.73975" lon="-3.34804">
        <ele>-0.5</ele>
        <time>2020-08-21T13:15:13.000Z</time>
      </trkpt>
      <trkpt lat="47.7398" lon="-3.34802">
        <ele>-0.5</ele>
        <time>2020-08-21T13:15:14.000Z</time>
      </trkpt>
      <trkpt lat="47.73984" lon="-3.348">
        <ele>-0.5</ele>
        <time>2020-08-21T13:15:15.000Z</time>
      </trkpt>
      <trkpt lat="47.73988" lon="-3.34798">
        <ele>-0.5</ele>
        <time>2020-08-21T13:15:16.000Z</time>
      </trkpt>
      <trkpt lat="47.73993" lon="-3.34797">
        <ele>-0.5</ele>
        <time>2020-08-21T13:15:17.000Z</time>
      </trkpt>
      <trkpt lat="47.73997" lon="-3.34795">
        <ele>-0.5</ele>
        <time>2020-08-21T13:15:18.000Z</time>
      </trkpt>
      <trkpt lat="47.74001" lon="-3.34793">
        <ele>2</ele>
        <time>2020-08-21T13:15:19.000Z</time>
      </trkpt>
      <trkpt lat="47.74006" lon="-3.34792">
        <ele>2</ele>
        <time>2020-08-21T13:15:20.000Z</time>
      </trkpt>
      <trkpt lat="47.7401" lon="-3.3479">
        <ele>2</ele>
        <time>2020-08-21T13:15:21.000Z</time>
      </trkpt>
      <trkpt lat="47.74014" lon="-3.34789">
        <ele>2</ele>
        <time>2020-08-21T13:15:22.000Z</time>
      </trkpt>
      <trkpt lat="47.74019" lon="-3.34787">
        <ele>2</ele>
        <time>2020-08-21T13:15:23.000Z</time>
      </trkpt>
      <trkpt lat="47.74023" lon="-3.34786">
        <ele>2</ele>
        <time>2020-08-21T13:15:24.000Z</time>
      </trkpt>
      <trkpt lat="47.74028" lon="-3.34785">
        <ele>2</ele>
        <time>2020-08-21T13:15:25.000Z</time>
      </trkpt>
      <trkpt lat="47.74032" lon="-3.34783">
        <ele>2</ele>
        <time>2020-08-21T13:15:26.000Z</time>
      </trkpt>
      <trkpt lat="47.74036" lon="-3.34782">
        <ele>2</ele>
        <time>2020-08-21T13:15:27.000Z</time>
      </trkpt>
      <trkpt lat="47.74041" lon="-3.34781">
        <ele>2</ele>
        <time>2020-08-21T13:15:28.000Z</time>
      </trkpt>
      <trkpt lat="47.74045" lon="-3.3478">
        <ele>2</ele>
        <time>2020-08-21T13:15:29.000Z</time>
      </trkpt>
      <trkpt lat="47.74049" lon="-3.34779">
        <ele>2</ele>
        <time>2020-08-21T13:15:30.000Z</time>
      </trkpt>
      <trkpt lat="47.74054" lon="-3.34778">
        <ele>2</ele>
        <time>2020-08-21T13:15:31.000Z</time>
      </trkpt>
      <trkpt lat="47.74058" lon="-3.34777">
        <ele>2</ele>
        <time>2020-08-21T13:15:32.000Z</time>
      </trkpt>
      <trkpt lat="47.74063" lon="-3.34776">
        <ele>2</ele>
        <time>2020-08-21T13:15:33.000Z</time>
      </trkpt>
      <trkpt lat="47.74067" lon="-3.34775">
        <ele>2</ele>
        <time>2020-08-21T13:15:34.000Z</time>
      </trkpt>
      <trkpt lat="47.74071" lon="-3.34774">
        <ele>2</ele>
        <time>2020-08-21T13:15:35.000Z</time>
      </trkpt>
      <trkpt lat="47.74076" lon="-3.34774">
        <ele>2</ele>
        <time>2020-08-21T13:15:36.000Z</time>
      </trkpt>
      <trkpt lat="47.7408" lon="-3.34773">
        <ele>2</ele>
        <time>2020-08-21T13:15:37.000Z</time>
      </trkpt>
      <trkpt lat="47.74084" lon="-3.34773">
        <ele>2</ele>
        <time>2020-08-21T13:15:38.000Z</time>
      </trkpt>
      <trkpt lat="47.74088" lon="-3.34772">
        <ele>2</ele>
        <time>2020-08-21T13:15:39.000Z</time>
      </trkpt>
      <trkpt lat="47.74093" lon="-3.34772">
        <ele>2</ele>
        <time>2020-08-21T13:15:40.000Z</time>
      </trkpt>
      <trkpt lat="47.74097" lon="-3.34772">
        <ele>2</ele>
        <time>2020-08-21T13:15:41.000Z</time>
      </trkpt>
      <trkpt lat="47.74101" lon="-3.34772">
        <ele>2</ele>
        <time>2020-08-21T13:15:42.000Z</time>
      </trkpt>
      <trkpt lat="47.74105" lon="-3.34772">
        <ele>2</ele>
        <time>2020-08-21T13:15:43.000Z</time>
      </trkpt>
      <trkpt lat="47.74109" lon="-3.34772">
        <ele>2</ele>
        <time>2020-08-21T13:15:44.000Z</time>
      </trkpt>
      <trkpt lat="47.74113" lon="-3.34772">
        <ele>2</ele>
        <time>2020-08-21T13:15:45.000Z</time>
      </trkpt>
      <trkpt lat="47.74117" lon="-3.34773">
        <ele>2</ele>
        <time>2020-08-21T13:15:46.000Z</time>
      </trkpt>
      <trkpt lat="47.74121" lon="-3.34773">
        <ele>2</ele>
        <time>2020-08-21T13:15:47.000Z</time>
      </trkpt>
      <trkpt lat="47.74125" lon="-3.34774">
        <ele>2</ele>
        <time>2020-08-21T13:15:48.000Z</time>
      </trkpt>
      <trkpt lat="47.74129" lon="-3.34774">
        <ele>2</ele>
        <time>2020-08-21T13:15:49.000Z</time>
      </trkpt>
      <trkpt lat="47.74133" lon="-3.34775">
        <ele>2</ele>
        <time>2020-08-21T13:15:50.000Z</time>
      </trkpt>
      <trkpt lat="47.74137" lon="-3.34776">
        <ele>2</ele>
        <time>2020-08-21T13:15:51.000Z</time>
      </trkpt>
      <trkpt lat="47.74141" lon="-3.34777">
        <ele>2</ele>
        <time>2020-08-21T13:15:52.000Z</time>
      </trkpt>
      <trkpt lat="47.74145" lon="-3.34778">
        <ele>2</ele>
        <time>2020-08-21T13:15:53.000Z</time>
      </trkpt>
      <trkpt lat="47.74149" lon="-3.34779">
        <ele>2</ele>
        <time>2020-08-21T13:15:54.000Z</time>
      </trkpt>
      <trkpt lat="47.74152" lon="-3.3478">
        <ele>2</ele>
        <time>2020-08-21T13:15:55.000Z</time>
      </trkpt>
      <trkpt lat="47.74156" lon="-3.34781">
        <ele>2</ele>
        <time>2020-08-21T13:15:56.000Z</time>
      </trkpt>
      <trkpt lat="47.7416" lon="-3.34782">
        <ele>2</ele>
        <time>2020-08-21T13:15:57.000Z</time>
      </trkpt>
      <trkpt lat="47.74164" lon="-3.34783">
        <ele>2</ele>
        <time>2020-08-21T13:15:58.000Z</time>
      </trkpt>
      <trkpt lat="47.74168" lon="-3.34784">
        <ele>2</ele>
        <time>2020-08-21T13:15:59.000Z</time>
      </trkpt>
      <trkpt lat="47.74172" lon="-3.34785">
        <ele>2</ele>
        <time>2020-08-21T13:16:00.000Z</time>
      </trkpt>
      <trkpt lat="47.74176" lon="-3.34786">
        <ele>2</ele>
        <time>2020-08-21T13:16:01.000Z</time>
      </trkpt>
      <trkpt lat="47.7418" lon="-3.34787">
        <ele>2</ele>
        <time>2020-08-21T13:16:02.000Z</time>
      </trkpt>
      <trkpt lat="47.74184" lon="-3.34788">
        <ele>2</ele>
        <time>2020-08-21T13:16:03.000Z</time>
      </trkpt>
      <trkpt lat="47.74188" lon="-3.34789">
        <ele>2</ele>
        <time>2020-08-21T13:16:04.000Z</time>
      </trkpt>
      <trkpt lat="47.74192" lon="-3.3479">
        <ele>2</ele>
        <time>2020-08-21T13:16:05.000Z</time>
      </trkpt>
      <trkpt lat="47.74196" lon="-3.34792">
        <ele>2</ele>
        <time>2020-08-21T13:16:06.000Z</time>
      </trkpt>
      <trkpt lat="47.742" lon="-3.34793">
        <ele>2</ele>
        <time>2020-08-21T13:16:07.000Z</time>
      </trkpt>
      <trkpt lat="47.74204" lon="-3.34794">
        <ele>2</ele>
        <time>2020-08-21T13:16:08.000Z</time>
      </trkpt>
      <trkpt lat="47.74208" lon="-3.34795">
        <ele>2</ele>
        <time>2020-08-21T13:16:09.000Z</time>
      </trkpt>
      <trkpt lat="47.74212" lon="-3.34796">
        <ele>2</ele>
        <time>2020-08-21T13:16:10.000Z</time>
      </trkpt>
      <trkpt lat="47.74215" lon="-3.34798">
        <ele>2</ele>
        <time>2020-08-21T13:16:11.000Z</time>
      </trkpt>
      <trkpt lat="47.74219" lon="-3.34799">
        <ele>2</ele>
        <time>2020-08-21T13:16:12.000Z</time>
      </trkpt>
      <trkpt lat="47.74222" lon="-3.348">
        <ele>2</ele>
        <time>2020-08-21T13:16:13.000Z</time>
      </trkpt>
      <trkpt lat="47.74225" lon="-3.34801">
        <ele>2</ele>
        <time>2020-08-21T13:16:14.000Z</time>
      </trkpt>
      <trkpt lat="47.74228" lon="-3.34803">
        <ele>2</ele>
        <time>2020-08-21T13:16:15.000Z</time>
      </trkpt>
      <trkpt lat="47.74231" lon="-3.34804">
        <ele>2</ele>
        <time>2020-08-21T13:16:16.000Z</time>
      </trkpt>
      <trkpt lat="47.74234" lon="-3.34806">
        <ele>2</ele>
        <time>2020-08-21T13:16:17.000Z</time>
      </trkpt>
      <trkpt lat="47.74237" lon="-3.34807">
        <ele>2</ele>
        <time>2020-08-21T13:16:18.000Z</time>
      </trkpt>
      <trkpt lat="47.74239" lon="-3.34808">
        <ele>2</ele>
        <time>2020-08-21T13:16:19.000Z</time>
      </trkpt>
      <trkpt lat="47.74241" lon="-3.3481">
        <ele>2</ele>
        <time>2020-08-21T13:16:20.000Z</time>
      </trkpt>
      <trkpt lat="47.74244" lon="-3.34811">
        <ele>2</ele>
        <time>2020-08-21T13:16:21.000Z</time>
      </trkpt>
      <trkpt lat="47.74246" lon="-3.34813">
        <ele>2</ele>
        <time>2020-08-21T13:16:22.000Z</time>
      </trkpt>
      <trkpt lat="47.74248" lon="-3.34814">
        <ele>2</ele>
        <time>2020-08-21T13:16:23.000Z</time>
      </trkpt>
      <trkpt lat="47.7425" lon="-3.34815">
        <ele>2</ele>
        <time>2020-08-21T13:16:24.000Z</time>
      </trkpt>
      <trkpt lat="47.74251" lon="-3.34817">
        <ele>2</ele>
        <time>2020-08-21T13:16:25.000Z</time>
      </trkpt>
      <trkpt lat="47.74253" lon="-3.34818">
        <ele>2</ele>
        <time>2020-08-21T13:16:26.000Z</time>
      </trkpt>
      <trkpt lat="47.74255" lon="-3.34819">
        <ele>2</ele>
        <time>2020-08-21T13:16:27.000Z</time>
      </trkpt>
      <trkpt lat="47.74256" lon="-3.34821">
        <ele>2</ele>
        <time>2020-08-21T13:16:28.000Z</time>
      </trkpt>
      <trkpt lat="47.74258" lon="-3.34822">
        <ele>2</ele>
        <time>2020-08-21T13:16:29.000Z</time>
      </trkpt>
      <trkpt lat="47.74259" lon="-3.34823">
        <ele>2</ele>
        <time>2020-08-21T13:16:30.000Z</time>
      </trkpt>
      <trkpt lat="47.7426" lon="-3.34824">
        <ele>2</ele>
        <time>2020-08-21T13:16:31.000Z</time>
      </trkpt>
      <trkpt lat="47.74262" lon="-3.34826">
        <ele>2</ele>
        <time>2020-08-21T13:16:32.000Z</time>
      </trkpt>
      <trkpt lat="47.74263" lon="-3.34827">
        <ele>2</ele>
        <time>2020-08-21T13:16:33.000Z</time>
      </trkpt>
      <trkpt lat="47.74264" lon="-3.34828">
        <ele>2</ele>
        <time>2020-08-21T13:16:34.000Z</time>
      </trkpt>
      <trkpt lat="47.74265" lon="-3.34829">
        <ele>2</ele>
        <time>2020-08-21T13:16:35.000Z</time>
      </trkpt>
      <trkpt lat="47.74266" lon="-3.3483">
        <ele>2</ele>
        <time>2020-08-21T13:16:36.000Z</time>
      </trkpt>
      <trkpt lat="47.74267" lon="-3.34831">
        <ele>2</ele>
        <time>2020-08-21T13:16:37.000Z</time>
      </trkpt>
      <trkpt lat="47.74268" lon="-3.34832">
        <ele>2</ele>
        <time>2020-08-21T13:16:38.000Z</time>
      </trkpt>
      <trkpt lat="47.74269" lon="-3.34833">
        <ele>2</ele>
        <time>2020-08-21T13:16:39.000Z</time>
      </trkpt>
      <trkpt lat="47.7427" lon="-3.34834">
        <ele>2</ele>
        <time>2020-08-21T13:16:40.000Z</time>
      </trkpt>
      <trkpt lat="47.74271" lon="-3.34835">
        <ele>2</ele>
        <time>2020-08-21T13:16:41.000Z</time>
      </trkpt>
      <trkpt lat="47.74271" lon="-3.34836">
        <ele>2</ele>
        <time>2020-08-21T13:16:42.000Z</time>
      </trkpt>
      <trkpt lat="47.74272" lon="-3.34837">
        <ele>2</ele>
        <time>2020-08-21T13:16:43.000Z</time>
      </trkpt>
      <trkpt lat="47.74273" lon="-3.34838">
        <ele>2</ele>
        <time>2020-08-21T13:16:44.000Z</time>
      </trkpt>
      <trkpt lat="47.74274" lon="-3.34839">
        <ele>2</ele>
        <time>2020-08-21T13:16:45.000Z</time>
      </trkpt>
      <trkpt lat="47.74275" lon="-3.3484">
        <ele>2</ele>
        <time>2020-08-21T13:16:46.000Z</time>
      </trkpt>
      <trkpt lat="47.74275" lon="-3.34841">
        <ele>2</ele>
        <time>2020-08-21T13:16:47.000Z</time>
      </trkpt>
      <trkpt lat="47.74276" lon="-3.34841">
        <ele>2</ele>
        <time>2020-08-21T13:16:48.000Z</time>
      </trkpt>
      <trkpt lat="47.74277" lon="-3.34842">
        <ele>2</ele>
        <time>2020-08-21T13:16:49.000Z</time>
      </trkpt>
      <trkpt lat="47.74277" lon="-3.34843">
        <ele>2</ele>
        <time>2020-08-21T13:16:50.000Z</time>
      </trkpt>
      <trkpt lat="47.74278" lon="-3.34844">
        <ele>2</ele>
        <time>2020-08-21T13:16:51.000Z</time>
      </trkpt>
      <trkpt lat="47.74279" lon="-3.34844">
        <ele>2</ele>
        <time>2020-08-21T13:16:52.000Z</time>
      </trkpt>
      <trkpt lat="47.74279" lon="-3.34845">
        <ele>2</ele>
        <time>2020-08-21T13:16:53.000Z</time>
      </trkpt>
      <trkpt lat="47.7428" lon="-3.34846">
        <ele>2</ele>
        <time>2020-08-21T13:16:54.000Z</time>
      </trkpt>
      <trkpt lat="47.7428" lon="-3.34846">
        <ele>2</ele>
        <time>2020-08-21T13:16:55.000Z</time>
      </trkpt>
      <trkpt lat="47.74281" lon="-3.34847">
        <ele>2</ele>
        <time>2020-08-21T13:16:56.000Z</time>
      </trkpt>
      <trkpt lat="47.74282" lon="-3.34847">
        <ele>2</ele>
        <time>2020-08-21T13:16:57.000Z</time>
      </trkpt>
      <trkpt lat="47.74282" lon="-3.34848">
        <ele>2</ele>
        <time>2020-08-21T13:16:58.000Z</time>
      </trkpt>
      <trkpt lat="47.74283" lon="-3.34849">
        <ele>2</ele>
        <time>2020-08-21T13:16:59.000Z</time>
      </trkpt>
      <trkpt lat="47.74283" lon="-3.34849">
        <ele>2</ele>
        <time>2020-08-21T13:17:00.000Z</time>
      </trkpt>
      <trkpt lat="47.74284" lon="-3.3485">
        <ele>2</ele>
        <time>2020-08-21T13:17:01.000Z</time>
      </trkpt>
      <trkpt lat="47.74284" lon="-3.3485">
        <ele>2</ele>
        <time>2020-08-21T13:17:02.000Z</time>
      </trkpt>
      <trkpt lat="47.74285" lon="-3.34851">
        <ele>2</ele>
        <time>2020-08-21T13:17:03.000Z</time>
      </trkpt>
      <trkpt lat="47.74285" lon="-3.34851">
        <ele>2</ele>
        <time>2020-08-21T13:17:04.000Z</time>
      </trkpt>
      <trkpt lat="47.74286" lon="-3.34852">
        <ele>2</ele>
        <time>2020-08-21T13:17:05.000Z</time>
      </trkpt>
      <trkpt lat="47.74286" lon="-3.34852">
        <ele>2</ele>
        <time>2020-08-21T13:17:06.000Z</time>
      </trkpt>
      <trkpt lat="47.74286" lon="-3.34853">
        <ele>2</ele>
        <time>2020-08-21T13:17:07.000Z</time>
      </trkpt>
      <trkpt lat="47.74287" lon="-3.34853">
        <ele>2</ele>
        <time>2020-08-21T13:17:08.000Z</time>
      </trkpt>
      <trkpt lat="47.74287" lon="-3.34854">
        <ele>2</ele>
        <time>2020-08-21T13:17:09.000Z</time>
      </trkpt>
      <trkpt lat="47.74288" lon="-3.34854">
        <ele>2</ele>
        <time>2020-08-21T13:17:10.000Z</time>
      </trkpt>
      <trkpt lat="47.74288" lon="-3.34855">
        <ele>2</ele>
        <time>2020-08-21T13:17:11.000Z</time>
      </trkpt>
      <trkpt lat="47.74288" lon="-3.34855">
        <ele>2</ele>
        <time>2020-08-21T13:17:12.000Z</time>
      </trkpt>
      <trkpt lat="47.74289" lon="-3.34856">
        <ele>2</ele>
        <time>2020-08-21T13:17:13.000Z</time>
      </trkpt>
      <trkpt lat="47.74289" lon="-3.34856">
        <ele>2</ele>
        <time>2020-08-21T13:17:14.000Z</time>
      </trkpt>
      <trkpt lat="47.7429" lon="-3.34856">
        <ele>2</ele>
        <time>2020-08-21T13:17:15.000Z</time>
      </trkpt>
      <trkpt lat="47.7429" lon="-3.34857">
        <ele>2</ele>
        <time>2020-08-21T13:17:16.000Z</time>
      </trkpt>
      <trkpt lat="47.7429" lon="-3.34857">
        <ele>2</ele>
        <time>2020-08-21T13:17:17.000Z</time>
      </trkpt>
      <trkpt lat="47.74291" lon="-3.34857">
        <ele>2</ele>
        <time>2020-08-21T13:17:18.000Z</time>
      </trkpt>
      <trkpt lat="47.74291" lon="-3.34858">
        <ele>2</ele>
        <time>2020-08-21T13:17:19.000Z</time>
      </trkpt>
      <trkpt lat="47.74291" lon="-3.34858">
        <ele>2</ele>
        <time>2020-08-21T13:17:20.000Z</time>
      </trkpt>
      <trkpt lat="47.74292" lon="-3.34858">
        <ele>2</ele>
        <time>2020-08-21T13:17:21.000Z</time>
      </trkpt>
      <trkpt lat="47.74292" lon="-3.34859">
        <ele>2</ele>
        <time>2020-08-21T13:17:22.000Z</time>
      </trkpt>
      <trkpt lat="47.74292" lon="-3.34859">
        <ele>2</ele>
        <time>2020-08-21T13:17:23.000Z</time>
      </trkpt>
      <trkpt lat="47.74293" lon="-3.34859">
        <ele>2</ele>
        <time>2020-08-21T13:17:24.000Z</time>
      </trkpt>
      <trkpt lat="47.74293" lon="-3.34859">
        <ele>2</ele>
        <time>2020-08-21T13:17:25.000Z</time>
      </trkpt>
      <trkpt lat="47.74293" lon="-3.3486">
        <ele>2</ele>
        <time>2020-08-21T13:17:26.000Z</time>
      </trkpt>
      <trkpt lat="47.74294" lon="-3.3486">
        <ele>2</ele>
        <time>2020-08-21T13:17:27.000Z</time>
      </trkpt>
      <trkpt lat="47.74294" lon="-3.3486">
        <ele>2</ele>
        <time>2020-08-21T13:17:28.000Z</time>
      </trkpt>
      <trkpt lat="47.74294" lon="-3.3486">
        <ele>2</ele>
        <time>2020-08-21T13:17:29.000Z</time>
      </trkpt>
      <trkpt lat="47.74294" lon="-3.3486">
        <ele>2</ele>
        <time>2020-08-21T13:17:30.000Z</time>
      </trkpt>
      <trkpt lat="47.74295" lon="-3.34861">
        <ele>2</ele>
        <time>2020-08-21T13:17:31.000Z</time>
      </trkpt>
      <trkpt lat="47.74295" lon="-3.34861">
        <ele>2</ele>
        <time>2020-08-21T13:17:32.000Z</time>
      </trkpt>
      <trkpt lat="47.74295" lon="-3.34861">
        <ele>2</ele>
        <time>2020-08-21T13:17:33.000Z</time>
      </trkpt>
      <trkpt lat="47.74295" lon="-3.34861">
        <ele>2</ele>
        <time>2020-08-21T13:17:34.000Z</time>
      </trkpt>
      <trkpt lat="47.74296" lon="-3.34861">
        <ele>2</ele>
        <time>2020-08-21T13:17:35.000Z</time>
      </trkpt>
      <trkpt lat="47.74296" lon="-3.34862">
        <ele>2</ele>
        <time>2020-08-21T13:17:36.000Z</time>
      </trkpt>
      <trkpt lat="47.74296" lon="-3.34862">
        <ele>2</ele>
        <time>2020-08-21T13:17:37.000Z</time>
      </trkpt>
      <trkpt lat="47.74297" lon="-3.34862">
        <ele>2</ele>
        <time>2020-08-21T13:17:38.000Z</time>
      </trkpt>
      <trkpt lat="47.74297" lon="-3.34862">
        <ele>2</ele>
        <time>2020-08-21T13:17:39.000Z</time>
      </trkpt>
      <trkpt lat="47.74297" lon="-3.34863">
        <ele>2</ele>
        <time>2020-08-21T13:17:40.000Z</time>
      </trkpt>
      <trkpt lat="47.74298" lon="-3.34863">
        <ele>2</ele>
        <time>2020-08-21T13:17:41.000Z</time>
      </trkpt>
      <trkpt lat="47.74298" lon="-3.34863">
        <ele>2</ele>
        <time>2020-08-21T13:17:42.000Z</time>
      </trkpt>
      <trkpt lat="47.74299" lon="-3.34863">
        <ele>2</ele>
        <time>2020-08-21T13:17:43.000Z</time>
      </trkpt>
      <trkpt lat="47.74299" lon="-3.34864">
        <ele>2</ele>
        <time>2020-08-21T13:17:44.000Z</time>
      </trkpt>
      <trkpt lat="47.743" lon="-3.34864">
        <ele>2</ele>
        <time>2020-08-21T13:17:45.000Z</time>
      </trkpt>
      <trkpt lat="47.743" lon="-3.34864">
        <ele>2</ele>
        <time>2020-08-21T13:17:46.000Z</time>
      </trkpt>
      <trkpt lat="47.74301" lon="-3.34864">
        <ele>2</ele>
        <time>2020-08-21T13:17:47.000Z</time>
      </trkpt>
      <trkpt lat="47.74301" lon="-3.34864">
        <ele>2</ele>
        <time>2020-08-21T13:17:48.000Z</time>
      </trkpt>
      <trkpt lat="47.74302" lon="-3.34864">
        <ele>2</ele>
        <time>2020-08-21T13:17:49.000Z</time>
      </trkpt>
      <trkpt lat="47.74302" lon="-3.34865">
        <ele>2</ele>
        <time>2020-08-21T13:17:50.000Z</time>
      </trkpt>
      <trkpt lat="47.74303" lon="-3.34865">
        <ele>2</ele>
        <time>2020-08-21T13:17:51.000Z</time>
      </trkpt>
      <trkpt lat="47.74303" lon="-3.34865">
        <ele>2</ele>
        <time>2020-08-21T13:17:52.000Z</time>
      </trkpt>
      <trkpt lat="47.74304" lon="-3.34865">
        <ele>2</ele>
        <time>2020-08-21T13:17:53.000Z</time>
      </trkpt>
      <trkpt lat="47.74304" lon="-3.34865">
        <ele>2</ele>
        <time>2020-08-21T13:17:54.000Z</time>
      </trkpt>
      <trkpt lat="47.74304" lon="-3.34865">
        <ele>2</ele>
        <time>2020-08-21T13:17:55.000Z</time>
      </trkpt>
      <trkpt lat="47.74305" lon="-3.34865">
        <ele>2</ele>
        <time>2020-08-21T13:17:56.000Z</time>
      </trkpt>
      <trkpt lat="47.74305" lon="-3.34865">
        <ele>2</ele>
        <time>2020-08-21T13:17:57.000Z</time>
      </trkpt>
      <trkpt lat="47.74306" lon="-3.34865">
        <ele>2</ele>
        <time>2020-08-21T13:17:58.000Z</time>
      </trkpt>
      <trkpt lat="47.74306" lon="-3.34865">
        <ele>2</ele>
        <time>2020-08-21T13:17:59.000Z</time>
      </trkpt>
      <trkpt lat="47.74307" lon="-3.34865">
        <ele>2</ele>
        <time>2020-08-21T13:18:00.000Z</time>
      </trkpt>
      <trkpt lat="47.74307" lon="-3.34865">
        <ele>2</ele>
        <time>2020-08-21T13:18:01.000Z</time>
      </trkpt>
      <trkpt lat="47.74308" lon="-3.34865">
        <ele>2</ele>
        <time>2020-08-21T13:18:02.000Z</time>
      </trkpt>
      <trkpt lat="47.74308" lon="-3.34865">
        <ele>2</ele>
        <time>2020-08-21T13:18:03.000Z</time>
      </trkpt>
      <trkpt lat="47.74309" lon="-3.34866">
        <ele>2</ele>
        <time>2020-08-21T13:18:04.000Z</time>
      </trkpt>
      <trkpt lat="47.74309" lon="-3.34866">
        <ele>2</ele>
        <time>2020-08-21T13:18:05.000Z</time>
      </trkpt>
      <trkpt lat="47.7431" lon="-3.34866">
        <ele>2</ele>
        <time>2020-08-21T13:18:06.000Z</time>
      </trkpt>
      <trkpt lat="47.7431" lon="-3.34866">
        <ele>2</ele>
        <time>2020-08-21T13:18:07.000Z</time>
      </trkpt>
      <trkpt lat="47.74311" lon="-3.34866">
        <ele>2</ele>
        <time>2020-08-21T13:18:08.000Z</time>
      </trkpt>
      <trkpt lat="47.74311" lon="-3.34866">
        <ele>2</ele>
        <time>2020-08-21T13:18:09.000Z</time>
      </trkpt>
      <trkpt lat="47.74311" lon="-3.34866">
        <ele>2</ele>
        <time>2020-08-21T13:18:10.000Z</time>
      </trkpt>
      <trkpt lat="47.74312" lon="-3.34866">
        <ele>2</ele>
        <time>2020-08-21T13:18:11.000Z</time>
      </trkpt>
      <trkpt lat="47.74312" lon="-3.34867">
        <ele>2</ele>
        <time>2020-08-21T13:18:12.000Z</time>
      </trkpt>
      <trkpt lat="47.74313" lon="-3.34867">
        <ele>2</ele>
        <time>2020-08-21T13:18:13.000Z</time>
      </trkpt>
      <trkpt lat="47.74313" lon="-3.34867">
        <ele>2</ele>
        <time>2020-08-21T13:18:14.000Z</time>
      </trkpt>
      <trkpt lat="47.74314" lon="-3.34867">
        <ele>2</ele>
        <time>2020-08-21T13:18:15.000Z</time>
      </trkpt>
      <trkpt lat="47.74314" lon="-3.34866">
        <ele>2</ele>
        <time>2020-08-21T13:18:16.000Z</time>
      </trkpt>
      <trkpt lat="47.74314" lon="-3.34866">
        <ele>2</ele>
        <time>2020-08-21T13:18:17.000Z</time>
      </trkpt>
      <trkpt lat="47.74315" lon="-3.34866">
        <ele>2</ele>
        <time>2020-08-21T13:18:18.000Z</time>
      </trkpt>
      <trkpt lat="47.74315" lon="-3.34866">
        <ele>2</ele>
        <time>2020-08-21T13:18:19.000Z</time>
      </trkpt>
      <trkpt lat="47.74315" lon="-3.34865">
        <ele>2</ele>
        <time>2020-08-21T13:18:20.000Z</time>
      </trkpt>
      <trkpt lat="47.74315" lon="-3.34865">
        <ele>2</ele>
        <time>2020-08-21T13:18:21.000Z</time>
      </trkpt>
      <trkpt lat="47.74316" lon="-3.34864">
        <ele>2</ele>
        <time>2020-08-21T13:18:22.000Z</time>
      </trkpt>
      <trkpt lat="47.74316" lon="-3.34864">
        <ele>2</ele>
        <time>2020-08-21T13:18:23.000Z</time>
      </trkpt>
      <trkpt lat="47.74316" lon="-3.34864">
        <ele>2</ele>
        <time>2020-08-21T13:18:24.000Z</time>
      </trkpt>
      <trkpt lat="47.74317" lon="-3.34864">
        <ele>2</ele>
        <time>2020-08-21T13:18:25.000Z</time>
      </trkpt>
      <trkpt lat="47.74317" lon="-3.34863">
        <ele>2</ele>
        <time>2020-08-21T13:18:26.000Z</time>
      </trkpt>
      <trkpt lat="47.74317" lon="-3.34863">
        <ele>2</ele>
        <time>2020-08-21T13:18:27.000Z</time>
      </trkpt>
      <trkpt lat="47.74318" lon="-3.34863">
        <ele>2</ele>
        <time>2020-08-21T13:18:28.000Z</time>
      </trkpt>
      <trkpt lat="47.74318" lon="-3.34863">
        <ele>2</ele>
        <time>2020-08-21T13:18:29.000Z</time>
      </trkpt>
      <trkpt lat="47.74319" lon="-3.34863">
        <ele>2</ele>
        <time>2020-08-21T13:18:30.000Z</time>
      </trkpt>
      <trkpt lat="47.74319" lon="-3.34863">
        <ele>2</ele>
        <time>2020-08-21T13:18:31.000Z</time>
      </trkpt>
      <trkpt lat="47.7432" lon="-3.34863">
        <ele>2</ele>
        <time>2020-08-21T13:18:32.000Z</time>
      </trkpt>
      <trkpt lat="47.7432" lon="-3.34863">
        <ele>2</ele>
        <time>2020-08-21T13:18:33.000Z</time>
      </trkpt>
      <trkpt lat="47.74321" lon="-3.34863">
        <ele>2</ele>
        <time>2020-08-21T13:18:34.000Z</time>
      </trkpt>
      <trkpt lat="47.74321" lon="-3.34863">
        <ele>2</ele>
        <time>2020-08-21T13:18:35.000Z</time>
      </trkpt>
      <trkpt lat="47.74322" lon="-3.34864">
        <ele>2</ele>
        <time>2020-08-21T13:18:36.000Z</time>
      </trkpt>
      <trkpt lat="47.74322" lon="-3.34864">
        <ele>2</ele>
        <time>2020-08-21T13:18:37.000Z</time>
      </trkpt>
      <trkpt lat="47.74323" lon="-3.34864">
        <ele>2</ele>
        <time>2020-08-21T13:18:38.000Z</time>
      </trkpt>
      <trkpt lat="47.74324" lon="-3.34864">
        <ele>2</ele>
        <time>2020-08-21T13:18:39.000Z</time>
      </trkpt>
      <trkpt lat="47.74324" lon="-3.34865">
        <ele>2</ele>
        <time>2020-08-21T13:18:40.000Z</time>
      </trkpt>
      <trkpt lat="47.74325" lon="-3.34865">
        <ele>2</ele>
        <time>2020-08-21T13:18:41.000Z</time>
      </trkpt>
      <trkpt lat="47.74326" lon="-3.34866">
        <ele>2</ele>
        <time>2020-08-21T13:18:42.000Z</time>
      </trkpt>
      <trkpt lat="47.74326" lon="-3.34866">
        <ele>2</ele>
        <time>2020-08-21T13:18:43.000Z</time>
      </trkpt>
      <trkpt lat="47.74327" lon="-3.34867">
        <ele>2</ele>
        <time>2020-08-21T13:18:44.000Z</time>
      </trkpt>
      <trkpt lat="47.74328" lon="-3.34867">
        <ele>2</ele>
        <time>2020-08-21T13:18:45.000Z</time>
      </trkpt>
      <trkpt lat="47.74328" lon="-3.34868">
        <ele>2</ele>
        <time>2020-08-21T13:18:46.000Z</time>
      </trkpt>
      <trkpt lat="47.74329" lon="-3.34868">
        <ele>2</ele>
        <time>2020-08-21T13:18:47.000Z</time>
      </trkpt>
      <trkpt lat="47.7433" lon="-3.34869">
        <ele>2</ele>
        <time>2020-08-21T13:18:48.000Z</time>
      </trkpt>
      <trkpt lat="47.7433" lon="-3.34869">
        <ele>2</ele>
        <time>2020-08-21T13:18:49.000Z</time>
      </trkpt>
      <trkpt lat="47.74331" lon="-3.3487">
        <ele>2</ele>
        <time>2020-08-21T13:18:50.000Z</time>
      </trkpt>
      <trkpt lat="47.74332" lon="-3.3487">
        <ele>2</ele>
        <time>2020-08-21T13:18:51.000Z</time>
      </trkpt>
      <trkpt lat="47.74332" lon="-3.34871">
        <ele>2</ele>
        <time>2020-08-21T13:18:52.000Z</time>
      </trkpt>
      <trkpt lat="47.74333" lon="-3.34871">
        <ele>2</ele>
        <time>2020-08-21T13:18:53.000Z</time>
      </trkpt>
      <trkpt lat="47.74334" lon="-3.34872">
        <ele>2</ele>
        <time>2020-08-21T13:18:54.000Z</time>
      </trkpt>
      <trkpt lat="47.74334" lon="-3.34872">
        <ele>2</ele>
        <time>2020-08-21T13:18:55.000Z</time>
      </trkpt>
      <trkpt lat="47.74335" lon="-3.34873">
        <ele>2</ele>
        <time>2020-08-21T13:18:56.000Z</time>
      </trkpt>
      <trkpt lat="47.74335" lon="-3.34873">
        <ele>2</ele>
        <time>2020-08-21T13:18:57.000Z</time>
      </trkpt>
      <trkpt lat="47.74336" lon="-3.34873">
        <ele>2</ele>
        <time>2020-08-21T13:18:58.000Z</time>
      </trkpt>
      <trkpt lat="47.74336" lon="-3.34874">
        <ele>2</ele>
        <time>2020-08-21T13:18:59.000Z</time>
      </trkpt>
      <trkpt lat="47.74337" lon="-3.34874">
        <ele>2</ele>
        <time>2020-08-21T13:19:00.000Z</time>
      </trkpt>
      <trkpt lat="47.74337" lon="-3.34874">
        <ele>2</ele>
        <time>2020-08-21T13:19:01.000Z</time>
      </trkpt>
      <trkpt lat="47.74338" lon="-3.34875">
        <ele>2</ele>
        <time>2020-08-21T13:19:02.000Z</time>
      </trkpt>
      <trkpt lat="47.74338" lon="-3.34875">
        <ele>2</ele>
        <time>2020-08-21T13:19:03.000Z</time>
      </trkpt>
      <trkpt lat="47.74338" lon="-3.34875">
        <ele>2</ele>
        <time>2020-08-21T13:19:04.000Z</time>
      </trkpt>
      <trkpt lat="47.74339" lon="-3.34875">
        <ele>2</ele>
        <time>2020-08-21T13:19:05.000Z</time>
      </trkpt>
      <trkpt lat="47.74339" lon="-3.34875">
        <ele>2</ele>
        <time>2020-08-21T13:19:06.000Z</time>
      </trkpt>
      <trkpt lat="47.74339" lon="-3.34876">
        <ele>2</ele>
        <time>2020-08-21T13:19:07.000Z</time>
      </trkpt>
      <trkpt lat="47.74339" lon="-3.34876">
        <ele>2</ele>
        <time>2020-08-21T13:19:08.000Z</time>
      </trkpt>
      <trkpt lat="47.74339" lon="-3.34876">
        <ele>2</ele>
        <time>2020-08-21T13:19:09.000Z</time>
      </trkpt>
      <trkpt lat="47.74339" lon="-3.34876">
        <ele>2</ele>
        <time>2020-08-21T13:19:10.000Z</time>
      </trkpt>
      <trkpt lat="47.74339" lon="-3.34876">
        <ele>2</ele>
        <time>2020-08-21T13:19:11.000Z</time>
      </trkpt>
      <trkpt lat="47.74339" lon="-3.34876">
        <ele>2</ele>
        <time>2020-08-21T13:19:12.000Z</time>
      </trkpt>
      <trkpt lat="47.74339" lon="-3.34876">
        <ele>2</ele>
        <time>2020-08-21T13:19:13.000Z</time>
      </trkpt>
      <trkpt lat="47.74339" lon="-3.34876">
        <ele>2</ele>
        <time>2020-08-21T13:19:14.000Z</time>
      </trkpt>
      <trkpt lat="47.74339" lon="-3.34876">
        <ele>2</ele>
        <time>2020-08-21T13:19:15.000Z</time>
      </trkpt>
      <trkpt lat="47.74339" lon="-3.34876">
        <ele>2</ele>
        <time>2020-08-21T13:19:16.000Z</time>
      </trkpt>
      <trkpt lat="47.74339" lon="-3.34876">
        <ele>2</ele>
        <time>2020-08-21T13:19:17.000Z</time>
      </trkpt>
      <trkpt lat="47.74339" lon="-3.34876">
        <ele>2</ele>
        <time>2020-08-21T13:19:18.000Z</time>
      </trkpt>
      <trkpt lat="47.74339" lon="-3.34876">
        <ele>2</ele>
        <time>2020-08-21T13:19:19.000Z</time>
      </trkpt>
      <trkpt lat="47.74339" lon="-3.34876">
        <ele>2</ele>
        <time>2020-08-21T13:19:20.000Z</time>
      </trkpt>
      <trkpt lat="47.7434" lon="-3.34876">
        <ele>2</ele>
        <time>2020-08-21T13:19:21.000Z</time>
      </trkpt>
      <trkpt lat="47.7434" lon="-3.34876">
        <ele>2</ele>
        <time>2020-08-21T13:19:22.000Z</time>
      </trkpt>
      <trkpt lat="47.7434" lon="-3.34876">
        <ele>2</ele>
        <time>2020-08-21T13:19:23.000Z</time>
      </trkpt>
      <trkpt lat="47.7434" lon="-3.34876">
        <ele>2</ele>
        <time>2020-08-21T13:19:24.000Z</time>
      </trkpt>
      <trkpt lat="47.7434" lon="-3.34876">
        <ele>2</ele>
        <time>2020-08-21T13:19:25.000Z</time>
      </trkpt>
      <trkpt lat="47.7434" lon="-3.34876">
        <ele>2</ele>
        <time>2020-08-21T13:19:26.000Z</time>
      </trkpt>
      <trkpt lat="47.7434" lon="-3.34876">
        <ele>2</ele>
        <time>2020-08-21T13:19:27.000Z</time>
      </trkpt>
      <trkpt lat="47.7434" lon="-3.34876">
        <ele>2</ele>
        <time>2020-08-21T13:19:28.000Z</time>
      </trkpt>
      <trkpt lat="47.7434" lon="-3.34876">
        <ele>2</ele>
        <time>2020-08-21T13:19:29.000Z</time>
      </trkpt>
      <trkpt lat="47.7434" lon="-3.34877">
        <ele>2</ele>
        <time>2020-08-21T13:19:30.000Z</time>
      </trkpt>
      <trkpt lat="47.74341" lon="-3.34877">
        <ele>2</ele>
        <time>2020-08-21T13:19:31.000Z</time>
      </trkpt>
      <trkpt lat="47.74342" lon="-3.34877">
        <ele>2</ele>
        <time>2020-08-21T13:19:32.000Z</time>
      </trkpt>
      <trkpt lat="47.74343" lon="-3.34877">
        <ele>2</ele>
        <time>2020-08-21T13:19:33.000Z</time>
      </trkpt>
      <trkpt lat="47.74344" lon="-3.34877">
        <ele>2</ele>
        <time>2020-08-21T13:19:34.000Z</time>
      </trkpt>
      <trkpt lat="47.74344" lon="-3.34876">
        <ele>2</ele>
        <time>2020-08-21T13:19:35.000Z</time>
      </trkpt>
      <trkpt lat="47.74344" lon="-3.34875">
        <ele>2</ele>
        <time>2020-08-21T13:19:36.000Z</time>
      </trkpt>
      <trkpt lat="47.74344" lon="-3.34874">
        <ele>2</ele>
        <time>2020-08-21T13:19:37.000Z</time>
      </trkpt>
      <trkpt lat="47.74345" lon="-3.34873">
        <ele>2</ele>
        <time>2020-08-21T13:19:38.000Z</time>
      </trkpt>
      <trkpt lat="47.74345" lon="-3.34872">
        <ele>2</ele>
        <time>2020-08-21T13:19:39.000Z</time>
      </trkpt>
      <trkpt lat="47.74345" lon="-3.3487">
        <ele>2</ele>
        <time>2020-08-21T13:19:40.000Z</time>
      </trkpt>
      <trkpt lat="47.74345" lon="-3.34869">
        <ele>2</ele>
        <time>2020-08-21T13:19:41.000Z</time>
      </trkpt>
      <trkpt lat="47.74345" lon="-3.34868">
        <ele>2</ele>
        <time>2020-08-21T13:19:42.000Z</time>
      </trkpt>
      <trkpt lat="47.74345" lon="-3.34866">
        <ele>2</ele>
        <time>2020-08-21T13:19:43.000Z</time>
      </trkpt>
      <trkpt lat="47.74345" lon="-3.34864">
        <ele>2</ele>
        <time>2020-08-21T13:19:44.000Z</time>
      </trkpt>
      <trkpt lat="47.74345" lon="-3.34863">
        <ele>2</ele>
        <time>2020-08-21T13:19:45.000Z</time>
      </trkpt>
      <trkpt lat="47.74346" lon="-3.34862">
        <ele>2</ele>
        <time>2020-08-21T13:19:46.000Z</time>
      </trkpt>
      <trkpt lat="47.74346" lon="-3.3486">
        <ele>2</ele>
        <time>2020-08-21T13:19:47.000Z</time>
      </trkpt>
      <trkpt lat="47.74346" lon="-3.34859">
        <ele>2</ele>
        <time>2020-08-21T13:19:48.000Z</time>
      </trkpt>
      <trkpt lat="47.74347" lon="-3.34858">
        <ele>2</ele>
        <time>2020-08-21T13:19:49.000Z</time>
      </trkpt>
      <trkpt lat="47.74347" lon="-3.34857">
        <ele>2</ele>
        <time>2020-08-21T13:19:50.000Z</time>
      </trkpt>
      <trkpt lat="47.74347" lon="-3.34856">
        <ele>2</ele>
        <time>2020-08-21T13:19:51.000Z</time>
      </trkpt>
      <trkpt lat="47.74348" lon="-3.34855">
        <ele>2</ele>
        <time>2020-08-21T13:19:52.000Z</time>
      </trkpt>
      <trkpt lat="47.74349" lon="-3.34855">
        <ele>2</ele>
        <time>2020-08-21T13:19:53.000Z</time>
      </trkpt>
      <trkpt lat="47.74349" lon="-3.34854">
        <ele>2</ele>
        <time>2020-08-21T13:19:54.000Z</time>
      </trkpt>
      <trkpt lat="47.7435" lon="-3.34854">
        <ele>2</ele>
        <time>2020-08-21T13:19:55.000Z</time>
      </trkpt>
      <trkpt lat="47.7435" lon="-3.34854">
        <ele>2</ele>
        <time>2020-08-21T13:19:56.000Z</time>
      </trkpt>
      <trkpt lat="47.74351" lon="-3.34854">
        <ele>2</ele>
        <time>2020-08-21T13:19:57.000Z</time>
      </trkpt>
      <trkpt lat="47.74352" lon="-3.34854">
        <ele>2</ele>
        <time>2020-08-21T13:19:58.000Z</time>
      </trkpt>
      <trkpt lat="47.74352" lon="-3.34854">
        <ele>2</ele>
        <time>2020-08-21T13:19:59.000Z</time>
      </trkpt>
      <trkpt lat="47.74353" lon="-3.34855">
        <ele>2</ele>
        <time>2020-08-21T13:20:00.000Z</time>
      </trkpt>
      <trkpt lat="47.74354" lon="-3.34856">
        <ele>2</ele>
        <time>2020-08-21T13:20:01.000Z</time>
      </trkpt>
      <trkpt lat="47.74354" lon="-3.34856">
        <ele>2</ele>
        <time>2020-08-21T13:20:02.000Z</time>
      </trkpt>
      <trkpt lat="47.74355" lon="-3.34857">
        <ele>2</ele>
        <time>2020-08-21T13:20:03.000Z</time>
      </trkpt>
      <trkpt lat="47.74355" lon="-3.34859">
        <ele>2</ele>
        <time>2020-08-21T13:20:04.000Z</time>
      </trkpt>
      <trkpt lat="47.74356" lon="-3.3486">
        <ele>2</ele>
        <time>2020-08-21T13:20:05.000Z</time>
      </trkpt>
      <trkpt lat="47.74356" lon="-3.34861">
        <ele>2</ele>
        <time>2020-08-21T13:20:06.000Z</time>
      </trkpt>
      <trkpt lat="47.74357" lon="-3.34863">
        <ele>2</ele>
        <time>2020-08-21T13:20:07.000Z</time>
      </trkpt>
      <trkpt lat="47.74357" lon="-3.34865">
        <ele>2</ele>
        <time>2020-08-21T13:20:08.000Z</time>
      </trkpt>
      <trkpt lat="47.74357" lon="-3.34866">
        <ele>2</ele>
        <time>2020-08-21T13:20:09.000Z</time>
      </trkpt>
      <trkpt lat="47.74357" lon="-3.34868">
        <ele>2</ele>
        <time>2020-08-21T13:20:10.000Z</time>
      </trkpt>
      <trkpt lat="47.74357" lon="-3.34869">
        <ele>2</ele>
        <time>2020-08-21T13:20:11.000Z</time>
      </trkpt>
      <trkpt lat="47.74357" lon="-3.34871">
        <ele>2</ele>
        <time>2020-08-21T13:20:12.000Z</time>
      </trkpt>
      <trkpt lat="47.74357" lon="-3.34872">
        <ele>2</ele>
        <time>2020-08-21T13:20:13.000Z</time>
      </trkpt>
      <trkpt lat="47.74357" lon="-3.34874">
        <ele>2</ele>
        <time>2020-08-21T13:20:14.000Z</time>
      </trkpt>
      <trkpt lat="47.74357" lon="-3.34875">
        <ele>2</ele>
        <time>2020-08-21T13:20:15.000Z</time>
      </trkpt>
      <trkpt lat="47.74356" lon="-3.34877">
        <ele>2</ele>
        <time>2020-08-21T13:20:16.000Z</time>
      </trkpt>
      <trkpt lat="47.74356" lon="-3.34878">
        <ele>2</ele>
        <time>2020-08-21T13:20:17.000Z</time>
      </trkpt>
      <trkpt lat="47.74356" lon="-3.3488">
        <ele>2</ele>
        <time>2020-08-21T13:20:18.000Z</time>
      </trkpt>
      <trkpt lat="47.74355" lon="-3.34881">
        <ele>2</ele>
        <time>2020-08-21T13:20:19.000Z</time>
      </trkpt>
      <trkpt lat="47.74355" lon="-3.34883">
        <ele>2</ele>
        <time>2020-08-21T13:20:20.000Z</time>
      </trkpt>
      <trkpt lat="47.74355" lon="-3.34884">
        <ele>2</ele>
        <time>2020-08-21T13:20:21.000Z</time>
      </trkpt>
      <trkpt lat="47.74354" lon="-3.34885">
        <ele>2</ele>
        <time>2020-08-21T13:20:22.000Z</time>
      </trkpt>
      <trkpt lat="47.74354" lon="-3.34887">
        <ele>2</ele>
        <time>2020-08-21T13:20:23.000Z</time>
      </trkpt>
      <trkpt lat="47.74354" lon="-3.34888">
        <ele>2</ele>
        <time>2020-08-21T13:20:24.000Z</time>
      </trkpt>
      <trkpt lat="47.74354" lon="-3.34889">
        <ele>2</ele>
        <time>2020-08-21T13:20:25.000Z</time>
      </trkpt>
      <trkpt lat="47.74353" lon="-3.34891">
        <ele>2</ele>
        <time>2020-08-21T13:20:26.000Z</time>
      </trkpt>
      <trkpt lat="47.74353" lon="-3.34892">
        <ele>2</ele>
        <time>2020-08-21T13:20:27.000Z</time>
      </trkpt>
      <trkpt lat="47.74353" lon="-3.34893">
        <ele>2</ele>
        <time>2020-08-21T13:20:28.000Z</time>
      </trkpt>
      <trkpt lat="47.74353" lon="-3.34894">
        <ele>2</ele>
        <time>2020-08-21T13:20:29.000Z</time>
      </trkpt>
      <trkpt lat="47.74353" lon="-3.34895">
        <ele>2</ele>
        <time>2020-08-21T13:20:30.000Z</time>
      </trkpt>
      <trkpt lat="47.74353" lon="-3.34896">
        <ele>2</ele>
        <time>2020-08-21T13:20:31.000Z</time>
      </trkpt>
      <trkpt lat="47.74353" lon="-3.34896">
        <ele>2</ele>
        <time>2020-08-21T13:20:32.000Z</time>
      </trkpt>
      <trkpt lat="47.74353" lon="-3.34897">
        <ele>2</ele>
        <time>2020-08-21T13:20:33.000Z</time>
      </trkpt>
      <trkpt lat="47.74353" lon="-3.34898">
        <ele>2</ele>
        <time>2020-08-21T13:20:34.000Z</time>
      </trkpt>
      <trkpt lat="47.74354" lon="-3.34898">
        <ele>2</ele>
        <time>2020-08-21T13:20:35.000Z</time>
      </trkpt>
      <trkpt lat="47.74354" lon="-3.34899">
        <ele>2</ele>
        <time>2020-08-21T13:20:36.000Z</time>
      </trkpt>
      <trkpt lat="47.74354" lon="-3.34899">
        <ele>2</ele>
        <time>2020-08-21T13:20:37.000Z</time>
      </trkpt>
      <trkpt lat="47.74354" lon="-3.349">
        <ele>2</ele>
        <time>2020-08-21T13:20:38.000Z</time>
      </trkpt>
      <trkpt lat="47.74354" lon="-3.34901">
        <ele>2</ele>
        <time>2020-08-21T13:20:39.000Z</time>
      </trkpt>
      <trkpt lat="47.74354" lon="-3.34902">
        <ele>2</ele>
        <time>2020-08-21T13:20:40.000Z</time>
      </trkpt>
      <trkpt lat="47.74354" lon="-3.34903">
        <ele>2</ele>
        <time>2020-08-21T13:20:41.000Z</time>
      </trkpt>
      <trkpt lat="47.74354" lon="-3.34904">
        <ele>2</ele>
        <time>2020-08-21T13:20:42.000Z</time>
      </trkpt>
      <trkpt lat="47.74354" lon="-3.34905">
        <ele>2</ele>
        <time>2020-08-21T13:20:43.000Z</time>
      </trkpt>
      <trkpt lat="47.74354" lon="-3.34907">
        <ele>2</ele>
        <time>2020-08-21T13:20:44.000Z</time>
      </trkpt>
      <trkpt lat="47.74354" lon="-3.34908">
        <ele>2</ele>
        <time>2020-08-21T13:20:45.000Z</time>
      </trkpt>
      <trkpt lat="47.74353" lon="-3.34909">
        <ele>2</ele>
        <time>2020-08-21T13:20:46.000Z</time>
      </trkpt>
      <trkpt lat="47.74353" lon="-3.34911">
        <ele>2</ele>
        <time>2020-08-21T13:20:47.000Z</time>
      </trkpt>
      <trkpt lat="47.74353" lon="-3.34912">
        <ele>2</ele>
        <time>2020-08-21T13:20:48.000Z</time>
      </trkpt>
      <trkpt lat="47.74353" lon="-3.34913">
        <ele>2</ele>
        <time>2020-08-21T13:20:49.000Z</time>
      </trkpt>
      <trkpt lat="47.74352" lon="-3.34914">
        <ele>2</ele>
        <time>2020-08-21T13:20:50.000Z</time>
      </trkpt>
      <trkpt lat="47.74352" lon="-3.34916">
        <ele>2</ele>
        <time>2020-08-21T13:20:51.000Z</time>
      </trkpt>
      <trkpt lat="47.74352" lon="-3.34917">
        <ele>2</ele>
        <time>2020-08-21T13:20:52.000Z</time>
      </trkpt>
      <trkpt lat="47.74352" lon="-3.34918">
        <ele>2</ele>
        <time>2020-08-21T13:20:53.000Z</time>
      </trkpt>
      <trkpt lat="47.74351" lon="-3.34919">
        <ele>2</ele>
        <time>2020-08-21T13:20:54.000Z</time>
      </trkpt>
      <trkpt lat="47.74351" lon="-3.3492">
        <ele>2</ele>
        <time>2020-08-21T13:20:55.000Z</time>
      </trkpt>
      <trkpt lat="47.74351" lon="-3.34921">
        <ele>2</ele>
        <time>2020-08-21T13:20:56.000Z</time>
      </trkpt>
      <trkpt lat="47.7435" lon="-3.34922">
        <ele>-0.1</ele>
        <time>2020-08-21T13:20:57.000Z</time>
      </trkpt>
      <trkpt lat="47.7435" lon="-3.34923">
        <ele>-0.1</ele>
        <time>2020-08-21T13:20:58.000Z</time>
      </trkpt>
      <trkpt lat="47.7435" lon="-3.34924">
        <ele>-0.1</ele>
        <time>2020-08-21T13:20:59.000Z</time>
      </trkpt>
      <trkpt lat="47.74349" lon="-3.34925">
        <ele>-0.1</ele>
        <time>2020-08-21T13:21:00.000Z</time>
      </trkpt>
      <trkpt lat="47.74349" lon="-3.34926">
        <ele>-0.1</ele>
        <time>2020-08-21T13:21:01.000Z</time>
      </trkpt>
      <trkpt lat="47.74349" lon="-3.34926">
        <ele>-0.1</ele>
        <time>2020-08-21T13:21:02.000Z</time>
      </trkpt>
      <trkpt lat="47.74348" lon="-3.34927">
        <ele>-0.1</ele>
        <time>2020-08-21T13:21:03.000Z</time>
      </trkpt>
      <trkpt lat="47.74348" lon="-3.34928">
        <ele>-0.1</ele>
        <time>2020-08-21T13:21:04.000Z</time>
      </trkpt>
      <trkpt lat="47.74347" lon="-3.34929">
        <ele>-0.1</ele>
        <time>2020-08-21T13:21:05.000Z</time>
      </trkpt>
      <trkpt lat="47.74347" lon="-3.34929">
        <ele>-0.1</ele>
        <time>2020-08-21T13:21:06.000Z</time>
      </trkpt>
      <trkpt lat="47.74346" lon="-3.3493">
        <ele>-0.1</ele>
        <time>2020-08-21T13:21:07.000Z</time>
      </trkpt>
      <trkpt lat="47.74346" lon="-3.3493">
        <ele>-0.1</ele>
        <time>2020-08-21T13:21:08.000Z</time>
      </trkpt>
      <trkpt lat="47.74345" lon="-3.34931">
        <ele>-0.1</ele>
        <time>2020-08-21T13:21:09.000Z</time>
      </trkpt>
      <trkpt lat="47.74345" lon="-3.34931">
        <ele>-0.2</ele>
        <time>2020-08-21T13:21:10.000Z</time>
      </trkpt>
      <trkpt lat="47.74344" lon="-3.34932">
        <ele>-0.2</ele>
        <time>2020-08-21T13:21:11.000Z</time>
      </trkpt>
      <trkpt lat="47.74343" lon="-3.34932">
        <ele>-0.2</ele>
        <time>2020-08-21T13:21:12.000Z</time>
      </trkpt>
      <trkpt lat="47.74342" lon="-3.34933">
        <ele>-0.2</ele>
        <time>2020-08-21T13:21:13.000Z</time>
      </trkpt>
      <trkpt lat="47.74341" lon="-3.34933">
        <ele>-0.2</ele>
        <time>2020-08-21T13:21:14.000Z</time>
      </trkpt>
      <trkpt lat="47.7434" lon="-3.34933">
        <ele>-0.2</ele>
        <time>2020-08-21T13:21:15.000Z</time>
      </trkpt>
      <trkpt lat="47.74339" lon="-3.34934">
        <ele>-0.2</ele>
        <time>2020-08-21T13:21:16.000Z</time>
      </trkpt>
      <trkpt lat="47.74338" lon="-3.34934">
        <ele>-0.2</ele>
        <time>2020-08-21T13:21:17.000Z</time>
      </trkpt>
      <trkpt lat="47.74337" lon="-3.34934">
        <ele>-0.2</ele>
        <time>2020-08-21T13:21:18.000Z</time>
      </trkpt>
      <trkpt lat="47.74336" lon="-3.34935">
        <ele>-0.2</ele>
        <time>2020-08-21T13:21:19.000Z</time>
      </trkpt>
      <trkpt lat="47.74335" lon="-3.34935">
        <ele>-0.2</ele>
        <time>2020-08-21T13:21:20.000Z</time>
      </trkpt>
      <trkpt lat="47.74334" lon="-3.34936">
        <ele>-0.2</ele>
        <time>2020-08-21T13:21:21.000Z</time>
      </trkpt>
      <trkpt lat="47.74333" lon="-3.34936">
        <ele>-0.2</ele>
        <time>2020-08-21T13:21:22.000Z</time>
      </trkpt>
      <trkpt lat="47.74331" lon="-3.34937">
        <ele>-0.3</ele>
        <time>2020-08-21T13:21:23.000Z</time>
      </trkpt>
      <trkpt lat="47.7433" lon="-3.34938">
        <ele>-0.3</ele>
        <time>2020-08-21T13:21:24.000Z</time>
      </trkpt>
      <trkpt lat="47.74329" lon="-3.34939">
        <ele>-0.3</ele>
        <time>2020-08-21T13:21:25.000Z</time>
      </trkpt>
      <trkpt lat="47.74328" lon="-3.3494">
        <ele>-0.3</ele>
        <time>2020-08-21T13:21:26.000Z</time>
      </trkpt>
      <trkpt lat="47.74326" lon="-3.34942">
        <ele>-0.4</ele>
        <time>2020-08-21T13:21:27.000Z</time>
      </trkpt>
      <trkpt lat="47.74325" lon="-3.34944">
        <ele>-0.4</ele>
        <time>2020-08-21T13:21:28.000Z</time>
      </trkpt>
      <trkpt lat="47.74324" lon="-3.34945">
        <ele>-0.5</ele>
        <time>2020-08-21T13:21:29.000Z</time>
      </trkpt>
      <trkpt lat="47.74323" lon="-3.34947">
        <ele>-0.5</ele>
        <time>2020-08-21T13:21:30.000Z</time>
      </trkpt>
      <trkpt lat="47.74322" lon="-3.34949">
        <ele>-0.5</ele>
        <time>2020-08-21T13:21:31.000Z</time>
      </trkpt>
      <trkpt lat="47.74321" lon="-3.34952">
        <ele>-0.6</ele>
        <time>2020-08-21T13:21:32.000Z</time>
      </trkpt>
      <trkpt lat="47.74321" lon="-3.34954">
        <ele>-0.7</ele>
        <time>2020-08-21T13:21:33.000Z</time>
      </trkpt>
      <trkpt lat="47.7432" lon="-3.34956">
        <ele>-0.7</ele>
        <time>2020-08-21T13:21:34.000Z</time>
      </trkpt>
      <trkpt lat="47.74319" lon="-3.34959">
        <ele>-0.8</ele>
        <time>2020-08-21T13:21:35.000Z</time>
      </trkpt>
      <trkpt lat="47.74318" lon="-3.34962">
        <ele>-0.8</ele>
        <time>2020-08-21T13:21:36.000Z</time>
      </trkpt>
      <trkpt lat="47.74317" lon="-3.34964">
        <ele>-0.9</ele>
        <time>2020-08-21T13:21:37.000Z</time>
      </trkpt>
      <trkpt lat="47.74316" lon="-3.34967">
        <ele>-1</ele>
        <time>2020-08-21T13:21:38.000Z</time>
      </trkpt>
      <trkpt lat="47.74316" lon="-3.3497">
        <ele>-1</ele>
        <time>2020-08-21T13:21:39.000Z</time>
      </trkpt>
      <trkpt lat="47.74315" lon="-3.34972">
        <ele>-1.1</ele>
        <time>2020-08-21T13:21:40.000Z</time>
      </trkpt>
      <trkpt lat="47.74314" lon="-3.34975">
        <ele>-1.2</ele>
        <time>2020-08-21T13:21:41.000Z</time>
      </trkpt>
      <trkpt lat="47.74313" lon="-3.34978">
        <ele>-1.3</ele>
        <time>2020-08-21T13:21:42.000Z</time>
      </trkpt>
      <trkpt lat="47.74312" lon="-3.3498">
        <ele>-1.4</ele>
        <time>2020-08-21T13:21:43.000Z</time>
      </trkpt>
      <trkpt lat="47.74311" lon="-3.34983">
        <ele>-1.4</ele>
        <time>2020-08-21T13:21:44.000Z</time>
      </trkpt>
      <trkpt lat="47.7431" lon="-3.34985">
        <ele>-1.5</ele>
        <time>2020-08-21T13:21:45.000Z</time>
      </trkpt>
      <trkpt lat="47.74308" lon="-3.34988">
        <ele>-1.6</ele>
        <time>2020-08-21T13:21:46.000Z</time>
      </trkpt>
      <trkpt lat="47.74307" lon="-3.3499">
        <ele>-1.7</ele>
        <time>2020-08-21T13:21:47.000Z</time>
      </trkpt>
      <trkpt lat="47.74306" lon="-3.34993">
        <ele>-1.8</ele>
        <time>2020-08-21T13:21:48.000Z</time>
      </trkpt>
      <trkpt lat="47.74305" lon="-3.34995">
        <ele>-1.9</ele>
        <time>2020-08-21T13:21:49.000Z</time>
      </trkpt>
      <trkpt lat="47.74304" lon="-3.34998">
        <ele>-2</ele>
        <time>2020-08-21T13:21:50.000Z</time>
      </trkpt>
      <trkpt lat="47.74303" lon="-3.35">
        <ele>-2.1</ele>
        <time>2020-08-21T13:21:51.000Z</time>
      </trkpt>
      <trkpt lat="47.74303" lon="-3.35003">
        <ele>-2</ele>
        <time>2020-08-21T13:21:52.000Z</time>
      </trkpt>
      <trkpt lat="47.74302" lon="-3.35006">
        <ele>-1.9</ele>
        <time>2020-08-21T13:21:53.000Z</time>
      </trkpt>
      <trkpt lat="47.74302" lon="-3.35009">
        <ele>-1.8</ele>
        <time>2020-08-21T13:21:54.000Z</time>
      </trkpt>
      <trkpt lat="47.74301" lon="-3.35012">
        <ele>-1.7</ele>
        <time>2020-08-21T13:21:55.000Z</time>
      </trkpt>
      <trkpt lat="47.74301" lon="-3.35015">
        <ele>-1.6</ele>
        <time>2020-08-21T13:21:56.000Z</time>
      </trkpt>
      <trkpt lat="47.74301" lon="-3.35018">
        <ele>-1.5</ele>
        <time>2020-08-21T13:21:57.000Z</time>
      </trkpt>
      <trkpt lat="47.74301" lon="-3.35021">
        <ele>-1.4</ele>
        <time>2020-08-21T13:21:58.000Z</time>
      </trkpt>
      <trkpt lat="47.74301" lon="-3.35024">
        <ele>-1.3</ele>
        <time>2020-08-21T13:21:59.000Z</time>
      </trkpt>
      <trkpt lat="47.743" lon="-3.35027">
        <ele>-1.1</ele>
        <time>2020-08-21T13:22:00.000Z</time>
      </trkpt>
      <trkpt lat="47.743" lon="-3.3503">
        <ele>-1</ele>
        <time>2020-08-21T13:22:01.000Z</time>
      </trkpt>
      <trkpt lat="47.743" lon="-3.35034">
        <ele>-0.9</ele>
        <time>2020-08-21T13:22:02.000Z</time>
      </trkpt>
      <trkpt lat="47.743" lon="-3.35037">
        <ele>-0.8</ele>
        <time>2020-08-21T13:22:03.000Z</time>
      </trkpt>
      <trkpt lat="47.743" lon="-3.3504">
        <ele>-0.7</ele>
        <time>2020-08-21T13:22:04.000Z</time>
      </trkpt>
      <trkpt lat="47.743" lon="-3.35044">
        <ele>-0.5</ele>
        <time>2020-08-21T13:22:05.000Z</time>
      </trkpt>
      <trkpt lat="47.743" lon="-3.35047">
        <ele>-0.4</ele>
        <time>2020-08-21T13:22:06.000Z</time>
      </trkpt>
      <trkpt lat="47.743" lon="-3.3505">
        <ele>-0.3</ele>
        <time>2020-08-21T13:22:07.000Z</time>
      </trkpt>
      <trkpt lat="47.743" lon="-3.35054">
        <ele>-0.2</ele>
        <time>2020-08-21T13:22:08.000Z</time>
      </trkpt>
      <trkpt lat="47.743" lon="-3.35057">
        <ele>3</ele>
        <time>2020-08-21T13:22:09.000Z</time>
      </trkpt>
      <trkpt lat="47.743" lon="-3.3506">
        <ele>0.1</ele>
        <time>2020-08-21T13:22:10.000Z</time>
      </trkpt>
      <trkpt lat="47.743" lon="-3.35064">
        <ele>0.3</ele>
        <time>2020-08-21T13:22:11.000Z</time>
      </trkpt>
      <trkpt lat="47.743" lon="-3.35067">
        <ele>0.4</ele>
        <time>2020-08-21T13:22:12.000Z</time>
      </trkpt>
      <trkpt lat="47.743" lon="-3.35071">
        <ele>0.5</ele>
        <time>2020-08-21T13:22:13.000Z</time>
      </trkpt>
      <trkpt lat="47.74301" lon="-3.35074">
        <ele>0.7</ele>
        <time>2020-08-21T13:22:14.000Z</time>
      </trkpt>
      <trkpt lat="47.74301" lon="-3.35078">
        <ele>0.8</ele>
        <time>2020-08-21T13:22:15.000Z</time>
      </trkpt>
      <trkpt lat="47.74301" lon="-3.35081">
        <ele>1</ele>
        <time>2020-08-21T13:22:16.000Z</time>
      </trkpt>
      <trkpt lat="47.74301" lon="-3.35085">
        <ele>1.1</ele>
        <time>2020-08-21T13:22:17.000Z</time>
      </trkpt>
      <trkpt lat="47.74302" lon="-3.35088">
        <ele>1.1</ele>
        <time>2020-08-21T13:22:18.000Z</time>
      </trkpt>
      <trkpt lat="47.74302" lon="-3.35092">
        <ele>1.1</ele>
        <time>2020-08-21T13:22:19.000Z</time>
      </trkpt>
      <trkpt lat="47.74302" lon="-3.35096">
        <ele>1.2</ele>
        <time>2020-08-21T13:22:20.000Z</time>
      </trkpt>
      <trkpt lat="47.74303" lon="-3.35099">
        <ele>1.2</ele>
        <time>2020-08-21T13:22:21.000Z</time>
      </trkpt>
      <trkpt lat="47.74303" lon="-3.35103">
        <ele>1.2</ele>
        <time>2020-08-21T13:22:22.000Z</time>
      </trkpt>
      <trkpt lat="47.74303" lon="-3.35106">
        <ele>1.2</ele>
        <time>2020-08-21T13:22:23.000Z</time>
      </trkpt>
      <trkpt lat="47.74304" lon="-3.3511">
        <ele>1.3</ele>
        <time>2020-08-21T13:22:24.000Z</time>
      </trkpt>
      <trkpt lat="47.74304" lon="-3.35114">
        <ele>1.3</ele>
        <time>2020-08-21T13:22:25.000Z</time>
      </trkpt>
      <trkpt lat="47.74305" lon="-3.35117">
        <ele>1.3</ele>
        <time>2020-08-21T13:22:26.000Z</time>
      </trkpt>
      <trkpt lat="47.74305" lon="-3.35121">
        <ele>1.3</ele>
        <time>2020-08-21T13:22:27.000Z</time>
      </trkpt>
      <trkpt lat="47.74305" lon="-3.35125">
        <ele>1.3</ele>
        <time>2020-08-21T13:22:28.000Z</time>
      </trkpt>
      <trkpt lat="47.74306" lon="-3.35128">
        <ele>1.3</ele>
        <time>2020-08-21T13:22:29.000Z</time>
      </trkpt>
      <trkpt lat="47.74306" lon="-3.35132">
        <ele>1.3</ele>
        <time>2020-08-21T13:22:30.000Z</time>
      </trkpt>
      <trkpt lat="47.74307" lon="-3.35136">
        <ele>1.3</ele>
        <time>2020-08-21T13:22:31.000Z</time>
      </trkpt>
      <trkpt lat="47.74307" lon="-3.3514">
        <ele>1.3</ele>
        <time>2020-08-21T13:22:32.000Z</time>
      </trkpt>
      <trkpt lat="47.74308" lon="-3.35143">
        <ele>1.3</ele>
        <time>2020-08-21T13:22:33.000Z</time>
      </trkpt>
      <trkpt lat="47.74308" lon="-3.35147">
        <ele>1.3</ele>
        <time>2020-08-21T13:22:34.000Z</time>
      </trkpt>
      <trkpt lat="47.74308" lon="-3.35151">
        <ele>1.3</ele>
        <time>2020-08-21T13:22:35.000Z</time>
      </trkpt>
      <trkpt lat="47.74309" lon="-3.35154">
        <ele>1.3</ele>
        <time>2020-08-21T13:22:36.000Z</time>
      </trkpt>
      <trkpt lat="47.74309" lon="-3.35158">
        <ele>1.3</ele>
        <time>2020-08-21T13:22:37.000Z</time>
      </trkpt>
      <trkpt lat="47.7431" lon="-3.35162">
        <ele>1.3</ele>
        <time>2020-08-21T13:22:38.000Z</time>
      </trkpt>
      <trkpt lat="47.74311" lon="-3.35165">
        <ele>1.3</ele>
        <time>2020-08-21T13:22:39.000Z</time>
      </trkpt>
      <trkpt lat="47.74311" lon="-3.35169">
        <ele>1.3</ele>
        <time>2020-08-21T13:22:40.000Z</time>
      </trkpt>
      <trkpt lat="47.74312" lon="-3.35173">
        <ele>1.3</ele>
        <time>2020-08-21T13:22:41.000Z</time>
      </trkpt>
      <trkpt lat="47.74312" lon="-3.35176">
        <ele>1.3</ele>
        <time>2020-08-21T13:22:42.000Z</time>
      </trkpt>
      <trkpt lat="47.74313" lon="-3.3518">
        <ele>1.2</ele>
        <time>2020-08-21T13:22:43.000Z</time>
      </trkpt>
      <trkpt lat="47.74314" lon="-3.35183">
        <ele>1.2</ele>
        <time>2020-08-21T13:22:44.000Z</time>
      </trkpt>
      <trkpt lat="47.74314" lon="-3.35187">
        <ele>1.2</ele>
        <time>2020-08-21T13:22:45.000Z</time>
      </trkpt>
      <trkpt lat="47.74315" lon="-3.3519">
        <ele>1.2</ele>
        <time>2020-08-21T13:22:46.000Z</time>
      </trkpt>
      <trkpt lat="47.74316" lon="-3.35194">
        <ele>1.2</ele>
        <time>2020-08-21T13:22:47.000Z</time>
      </trkpt>
      <trkpt lat="47.74317" lon="-3.35197">
        <ele>1.2</ele>
        <time>2020-08-21T13:22:48.000Z</time>
      </trkpt>
      <trkpt lat="47.74317" lon="-3.35201">
        <ele>1.2</ele>
        <time>2020-08-21T13:22:49.000Z</time>
      </trkpt>
      <trkpt lat="47.74318" lon="-3.35204">
        <ele>1.2</ele>
        <time>2020-08-21T13:22:50.000Z</time>
      </trkpt>
      <trkpt lat="47.74319" lon="-3.35208">
        <ele>1.2</ele>
        <time>2020-08-21T13:22:51.000Z</time>
      </trkpt>
      <trkpt lat="47.7432" lon="-3.35211">
        <ele>1.2</ele>
        <time>2020-08-21T13:22:52.000Z</time>
      </trkpt>
      <trkpt lat="47.7432" lon="-3.35215">
        <ele>1.2</ele>
        <time>2020-08-21T13:22:53.000Z</time>
      </trkpt>
      <trkpt lat="47.74321" lon="-3.35218">
        <ele>1.1</ele>
        <time>2020-08-21T13:22:54.000Z</time>
      </trkpt>
      <trkpt lat="47.74322" lon="-3.35222">
        <ele>1.1</ele>
        <time>2020-08-21T13:22:55.000Z</time>
      </trkpt>
      <trkpt lat="47.74322" lon="-3.35225">
        <ele>1.1</ele>
        <time>2020-08-21T13:22:56.000Z</time>
      </trkpt>
      <trkpt lat="47.74323" lon="-3.35229">
        <ele>1.1</ele>
        <time>2020-08-21T13:22:57.000Z</time>
      </trkpt>
      <trkpt lat="47.74324" lon="-3.35232">
        <ele>1.1</ele>
        <time>2020-08-21T13:22:58.000Z</time>
      </trkpt>
      <trkpt lat="47.74324" lon="-3.35236">
        <ele>1.1</ele>
        <time>2020-08-21T13:22:59.000Z</time>
      </trkpt>
      <trkpt lat="47.74325" lon="-3.35239">
        <ele>1.1</ele>
        <time>2020-08-21T13:23:00.000Z</time>
      </trkpt>
      <trkpt lat="47.74325" lon="-3.35243">
        <ele>1.1</ele>
        <time>2020-08-21T13:23:01.000Z</time>
      </trkpt>
      <trkpt lat="47.74326" lon="-3.35246">
        <ele>1.1</ele>
        <time>2020-08-21T13:23:02.000Z</time>
      </trkpt>
      <trkpt lat="47.74326" lon="-3.3525">
        <ele>1.1</ele>
        <time>2020-08-21T13:23:03.000Z</time>
      </trkpt>
      <trkpt lat="47.74327" lon="-3.35253">
        <ele>1</ele>
        <time>2020-08-21T13:23:04.000Z</time>
      </trkpt>
      <trkpt lat="47.74327" lon="-3.35257">
        <ele>1</ele>
        <time>2020-08-21T13:23:05.000Z</time>
      </trkpt>
      <trkpt lat="47.74328" lon="-3.3526">
        <ele>1</ele>
        <time>2020-08-21T13:23:06.000Z</time>
      </trkpt>
      <trkpt lat="47.74328" lon="-3.35263">
        <ele>0.9</ele>
        <time>2020-08-21T13:23:07.000Z</time>
      </trkpt>
      <trkpt lat="47.74329" lon="-3.35267">
        <ele>0.9</ele>
        <time>2020-08-21T13:23:08.000Z</time>
      </trkpt>
      <trkpt lat="47.74329" lon="-3.3527">
        <ele>0.8</ele>
        <time>2020-08-21T13:23:09.000Z</time>
      </trkpt>
      <trkpt lat="47.7433" lon="-3.35274">
        <ele>0.8</ele>
        <time>2020-08-21T13:23:10.000Z</time>
      </trkpt>
      <trkpt lat="47.7433" lon="-3.35277">
        <ele>0.7</ele>
        <time>2020-08-21T13:23:11.000Z</time>
      </trkpt>
      <trkpt lat="47.74331" lon="-3.3528">
        <ele>0.7</ele>
        <time>2020-08-21T13:23:12.000Z</time>
      </trkpt>
      <trkpt lat="47.74331" lon="-3.35284">
        <ele>0.6</ele>
        <time>2020-08-21T13:23:13.000Z</time>
      </trkpt>
      <trkpt lat="47.74332" lon="-3.35287">
        <ele>0.6</ele>
        <time>2020-08-21T13:23:14.000Z</time>
      </trkpt>
      <trkpt lat="47.74332" lon="-3.3529">
        <ele>0.5</ele>
        <time>2020-08-21T13:23:15.000Z</time>
      </trkpt>
      <trkpt lat="47.74333" lon="-3.35294">
        <ele>0.5</ele>
        <time>2020-08-21T13:23:16.000Z</time>
      </trkpt>
      <trkpt lat="47.74333" lon="-3.35297">
        <ele>0.4</ele>
        <time>2020-08-21T13:23:17.000Z</time>
      </trkpt>
      <trkpt lat="47.74334" lon="-3.35301">
        <ele>0.4</ele>
        <time>2020-08-21T13:23:18.000Z</time>
      </trkpt>
      <trkpt lat="47.74335" lon="-3.35304">
        <ele>0.4</ele>
        <time>2020-08-21T13:23:19.000Z</time>
      </trkpt>
      <trkpt lat="47.74335" lon="-3.35307">
        <ele>0.4</ele>
        <time>2020-08-21T13:23:20.000Z</time>
      </trkpt>
      <trkpt lat="47.74336" lon="-3.35311">
        <ele>0.4</ele>
        <time>2020-08-21T13:23:21.000Z</time>
      </trkpt>
      <trkpt lat="47.74336" lon="-3.35314">
        <ele>0.4</ele>
        <time>2020-08-21T13:23:22.000Z</time>
      </trkpt>
      <trkpt lat="47.74337" lon="-3.35318">
        <ele>0.4</ele>
        <time>2020-08-21T13:23:23.000Z</time>
      </trkpt>
      <trkpt lat="47.74338" lon="-3.35321">
        <ele>0.4</ele>
        <time>2020-08-21T13:23:24.000Z</time>
      </trkpt>
      <trkpt lat="47.74338" lon="-3.35325">
        <ele>0.4</ele>
        <time>2020-08-21T13:23:25.000Z</time>
      </trkpt>
      <trkpt lat="47.74339" lon="-3.35328">
        <ele>0.4</ele>
        <time>2020-08-21T13:23:26.000Z</time>
      </trkpt>
      <trkpt lat="47.7434" lon="-3.35331">
        <ele>0.4</ele>
        <time>2020-08-21T13:23:27.000Z</time>
      </trkpt>
      <trkpt lat="47.74341" lon="-3.35335">
        <ele>0.5</ele>
        <time>2020-08-21T13:23:28.000Z</time>
      </trkpt>
      <trkpt lat="47.74342" lon="-3.35338">
        <ele>0.6</ele>
        <time>2020-08-21T13:23:29.000Z</time>
      </trkpt>
      <trkpt lat="47.74343" lon="-3.35342">
        <ele>0.7</ele>
        <time>2020-08-21T13:23:30.000Z</time>
      </trkpt>
      <trkpt lat="47.74344" lon="-3.35345">
        <ele>0.8</ele>
        <time>2020-08-21T13:23:31.000Z</time>
      </trkpt>
      <trkpt lat="47.74344" lon="-3.35349">
        <ele>0.8</ele>
        <time>2020-08-21T13:23:32.000Z</time>
      </trkpt>
      <trkpt lat="47.74345" lon="-3.35352">
        <ele>0.9</ele>
        <time>2020-08-21T13:23:33.000Z</time>
      </trkpt>
      <trkpt lat="47.74346" lon="-3.35356">
        <ele>1</ele>
        <time>2020-08-21T13:23:34.000Z</time>
      </trkpt>
      <trkpt lat="47.74346" lon="-3.3536">
        <ele>1.1</ele>
        <time>2020-08-21T13:23:35.000Z</time>
      </trkpt>
      <trkpt lat="47.74347" lon="-3.35363">
        <ele>1.2</ele>
        <time>2020-08-21T13:23:36.000Z</time>
      </trkpt>
      <trkpt lat="47.74348" lon="-3.35367">
        <ele>1.3</ele>
        <time>2020-08-21T13:23:37.000Z</time>
      </trkpt>
      <trkpt lat="47.74348" lon="-3.35371">
        <ele>1.3</ele>
        <time>2020-08-21T13:23:38.000Z</time>
      </trkpt>
      <trkpt lat="47.74349" lon="-3.35374">
        <ele>1.4</ele>
        <time>2020-08-21T13:23:39.000Z</time>
      </trkpt>
      <trkpt lat="47.74349" lon="-3.35378">
        <ele>1.5</ele>
        <time>2020-08-21T13:23:40.000Z</time>
      </trkpt>
      <trkpt lat="47.7435" lon="-3.35382">
        <ele>1.6</ele>
        <time>2020-08-21T13:23:41.000Z</time>
      </trkpt>
      <trkpt lat="47.74351" lon="-3.35385">
        <ele>1.7</ele>
        <time>2020-08-21T13:23:42.000Z</time>
      </trkpt>
      <trkpt lat="47.74351" lon="-3.35389">
        <ele>1.7</ele>
        <time>2020-08-21T13:23:43.000Z</time>
      </trkpt>
      <trkpt lat="47.74352" lon="-3.35392">
        <ele>1.8</ele>
        <time>2020-08-21T13:23:44.000Z</time>
      </trkpt>
      <trkpt lat="47.74353" lon="-3.35396">
        <ele>1.9</ele>
        <time>2020-08-21T13:23:45.000Z</time>
      </trkpt>
      <trkpt lat="47.74354" lon="-3.354">
        <ele>2</ele>
        <time>2020-08-21T13:23:46.000Z</time>
      </trkpt>
      <trkpt lat="47.74354" lon="-3.35403">
        <ele>2.1</ele>
        <time>2020-08-21T13:23:47.000Z</time>
      </trkpt>
      <trkpt lat="47.74355" lon="-3.35407">
        <ele>2.2</ele>
        <time>2020-08-21T13:23:48.000Z</time>
      </trkpt>
      <trkpt lat="47.74356" lon="-3.35411">
        <ele>2.3</ele>
        <time>2020-08-21T13:23:49.000Z</time>
      </trkpt>
      <trkpt lat="47.74357" lon="-3.35414">
        <ele>2.4</ele>
        <time>2020-08-21T13:23:50.000Z</time>
      </trkpt>
      <trkpt lat="47.74358" lon="-3.35418">
        <ele>2.4</ele>
        <time>2020-08-21T13:23:51.000Z</time>
      </trkpt>
      <trkpt lat="47.74358" lon="-3.35422">
        <ele>2.5</ele>
        <time>2020-08-21T13:23:52.000Z</time>
      </trkpt>
      <trkpt lat="47.74359" lon="-3.35425">
        <ele>2.5</ele>
        <time>2020-08-21T13:23:53.000Z</time>
      </trkpt>
      <trkpt lat="47.7436" lon="-3.35429">
        <ele>2.5</ele>
        <time>2020-08-21T13:23:54.000Z</time>
      </trkpt>
      <trkpt lat="47.74361" lon="-3.35432">
        <ele>2.5</ele>
        <time>2020-08-21T13:23:55.000Z</time>
      </trkpt>
      <trkpt lat="47.74362" lon="-3.35436">
        <ele>2.5</ele>
        <time>2020-08-21T13:23:56.000Z</time>
      </trkpt>
      <trkpt lat="47.74362" lon="-3.3544">
        <ele>2.6</ele>
        <time>2020-08-21T13:23:57.000Z</time>
      </trkpt>
      <trkpt lat="47.74363" lon="-3.35443">
        <ele>2.6</ele>
        <time>2020-08-21T13:23:58.000Z</time>
      </trkpt>
      <trkpt lat="47.74364" lon="-3.35447">
        <ele>2.6</ele>
        <time>2020-08-21T13:23:59.000Z</time>
      </trkpt>
      <trkpt lat="47.74365" lon="-3.35451">
        <ele>2.6</ele>
        <time>2020-08-21T13:24:00.000Z</time>
      </trkpt>
      <trkpt lat="47.74366" lon="-3.35454">
        <ele>2.6</ele>
        <time>2020-08-21T13:24:01.000Z</time>
      </trkpt>
      <trkpt lat="47.74366" lon="-3.35458">
        <ele>2.6</ele>
        <time>2020-08-21T13:24:02.000Z</time>
      </trkpt>
      <trkpt lat="47.74367" lon="-3.35461">
        <ele>2.6</ele>
        <time>2020-08-21T13:24:03.000Z</time>
      </trkpt>
      <trkpt lat="47.74368" lon="-3.35465">
        <ele>2.6</ele>
        <time>2020-08-21T13:24:04.000Z</time>
      </trkpt>
      <trkpt lat="47.74368" lon="-3.35469">
        <ele>2.6</ele>
        <time>2020-08-21T13:24:05.000Z</time>
      </trkpt>
      <trkpt lat="47.74369" lon="-3.35472">
        <ele>2.6</ele>
        <time>2020-08-21T13:24:06.000Z</time>
      </trkpt>
      <trkpt lat="47.7437" lon="-3.35476">
        <ele>2.6</ele>
        <time>2020-08-21T13:24:07.000Z</time>
      </trkpt>
      <trkpt lat="47.74371" lon="-3.35479">
        <ele>2.6</ele>
        <time>2020-08-21T13:24:08.000Z</time>
      </trkpt>
      <trkpt lat="47.74371" lon="-3.35483">
        <ele>2.5</ele>
        <time>2020-08-21T13:24:09.000Z</time>
      </trkpt>
      <trkpt lat="47.74372" lon="-3.35487">
        <ele>2.5</ele>
        <time>2020-08-21T13:24:10.000Z</time>
      </trkpt>
      <trkpt lat="47.74372" lon="-3.3549">
        <ele>2.5</ele>
        <time>2020-08-21T13:24:11.000Z</time>
      </trkpt>
      <trkpt lat="47.74373" lon="-3.35494">
        <ele>2.5</ele>
        <time>2020-08-21T13:24:12.000Z</time>
      </trkpt>
      <trkpt lat="47.74374" lon="-3.35498">
        <ele>2.5</ele>
        <time>2020-08-21T13:24:13.000Z</time>
      </trkpt>
      <trkpt lat="47.74374" lon="-3.35501">
        <ele>2.5</ele>
        <time>2020-08-21T13:24:14.000Z</time>
      </trkpt>
      <trkpt lat="47.74375" lon="-3.35505">
        <ele>2.5</ele>
        <time>2020-08-21T13:24:15.000Z</time>
      </trkpt>
      <trkpt lat="47.74375" lon="-3.35509">
        <ele>2.6</ele>
        <time>2020-08-21T13:24:16.000Z</time>
      </trkpt>
      <trkpt lat="47.74376" lon="-3.35512">
        <ele>2.6</ele>
        <time>2020-08-21T13:24:17.000Z</time>
      </trkpt>
      <trkpt lat="47.74377" lon="-3.35516">
        <ele>2.6</ele>
        <time>2020-08-21T13:24:18.000Z</time>
      </trkpt>
      <trkpt lat="47.74377" lon="-3.35519">
        <ele>2.7</ele>
        <time>2020-08-21T13:24:19.000Z</time>
      </trkpt>
      <trkpt lat="47.74378" lon="-3.35523">
        <ele>2.7</ele>
        <time>2020-08-21T13:24:20.000Z</time>
      </trkpt>
      <trkpt lat="47.74378" lon="-3.35527">
        <ele>2.8</ele>
        <time>2020-08-21T13:24:21.000Z</time>
      </trkpt>
      <trkpt lat="47.74379" lon="-3.3553">
        <ele>2.8</ele>
        <time>2020-08-21T13:24:22.000Z</time>
      </trkpt>
      <trkpt lat="47.74379" lon="-3.35534">
        <ele>2.8</ele>
        <time>2020-08-21T13:24:23.000Z</time>
      </trkpt>
      <trkpt lat="47.7438" lon="-3.35537">
        <ele>2.9</ele>
        <time>2020-08-21T13:24:24.000Z</time>
      </trkpt>
      <trkpt lat="47.74381" lon="-3.35541">
        <ele>2.9</ele>
        <time>2020-08-21T13:24:25.000Z</time>
      </trkpt>
      <trkpt lat="47.74381" lon="-3.35544">
        <ele>2.9</ele>
        <time>2020-08-21T13:24:26.000Z</time>
      </trkpt>
      <trkpt lat="47.74382" lon="-3.35548">
        <ele>3</ele>
        <time>2020-08-21T13:24:27.000Z</time>
      </trkpt>
      <trkpt lat="47.74382" lon="-3.35551">
        <ele>3</ele>
        <time>2020-08-21T13:24:28.000Z</time>
      </trkpt>
      <trkpt lat="47.74383" lon="-3.35555">
        <ele>3.1</ele>
        <time>2020-08-21T13:24:29.000Z</time>
      </trkpt>
      <trkpt lat="47.74383" lon="-3.35558">
        <ele>3.1</ele>
        <time>2020-08-21T13:24:30.000Z</time>
      </trkpt>
      <trkpt lat="47.74384" lon="-3.35562">
        <ele>3.1</ele>
        <time>2020-08-21T13:24:31.000Z</time>
      </trkpt>
      <trkpt lat="47.74385" lon="-3.35565">
        <ele>3.1</ele>
        <time>2020-08-21T13:24:32.000Z</time>
      </trkpt>
      <trkpt lat="47.74385" lon="-3.35568">
        <ele>3.2</ele>
        <time>2020-08-21T13:24:33.000Z</time>
      </trkpt>
      <trkpt lat="47.74385" lon="-3.35572">
        <ele>3.2</ele>
        <time>2020-08-21T13:24:34.000Z</time>
      </trkpt>
      <trkpt lat="47.74386" lon="-3.35575">
        <ele>3.2</ele>
        <time>2020-08-21T13:24:35.000Z</time>
      </trkpt>
      <trkpt lat="47.74386" lon="-3.35578">
        <ele>3.2</ele>
        <time>2020-08-21T13:24:36.000Z</time>
      </trkpt>
      <trkpt lat="47.74387" lon="-3.35581">
        <ele>3.3</ele>
        <time>2020-08-21T13:24:37.000Z</time>
      </trkpt>
      <trkpt lat="47.74387" lon="-3.35584">
        <ele>3.3</ele>
        <time>2020-08-21T13:24:38.000Z</time>
      </trkpt>
      <trkpt lat="47.74387" lon="-3.35588">
        <ele>3.3</ele>
        <time>2020-08-21T13:24:39.000Z</time>
      </trkpt>
      <trkpt lat="47.74387" lon="-3.35591">
        <ele>3.2</ele>
        <time>2020-08-21T13:24:40.000Z</time>
      </trkpt>
      <trkpt lat="47.74388" lon="-3.35594">
        <ele>3.2</ele>
        <time>2020-08-21T13:24:41.000Z</time>
      </trkpt>
      <trkpt lat="47.74388" lon="-3.35597">
        <ele>3.2</ele>
        <time>2020-08-21T13:24:42.000Z</time>
      </trkpt>
      <trkpt lat="47.74388" lon="-3.356">
        <ele>3.2</ele>
        <time>2020-08-21T13:24:43.000Z</time>
      </trkpt>
      <trkpt lat="47.74388" lon="-3.35603">
        <ele>3.2</ele>
        <time>2020-08-21T13:24:44.000Z</time>
      </trkpt>
      <trkpt lat="47.74389" lon="-3.35606">
        <ele>3.1</ele>
        <time>2020-08-21T13:24:45.000Z</time>
      </trkpt>
      <trkpt lat="47.74389" lon="-3.3561">
        <ele>3.1</ele>
        <time>2020-08-21T13:24:46.000Z</time>
      </trkpt>
      <trkpt lat="47.74389" lon="-3.35613">
        <ele>3.1</ele>
        <time>2020-08-21T13:24:47.000Z</time>
      </trkpt>
      <trkpt lat="47.7439" lon="-3.35616">
        <ele>3.1</ele>
        <time>2020-08-21T13:24:48.000Z</time>
      </trkpt>
      <trkpt lat="47.7439" lon="-3.35619">
        <ele>3.1</ele>
        <time>2020-08-21T13:24:49.000Z</time>
      </trkpt>
      <trkpt lat="47.7439" lon="-3.35622">
        <ele>3</ele>
        <time>2020-08-21T13:24:50.000Z</time>
      </trkpt>
      <trkpt lat="47.74391" lon="-3.35625">
        <ele>3</ele>
        <time>2020-08-21T13:24:51.000Z</time>
      </trkpt>
      <trkpt lat="47.74391" lon="-3.35627">
        <ele>3</ele>
        <time>2020-08-21T13:24:52.000Z</time>
      </trkpt>
      <trkpt lat="47.74391" lon="-3.3563">
        <ele>3</ele>
        <time>2020-08-21T13:24:53.000Z</time>
      </trkpt>
      <trkpt lat="47.74391" lon="-3.35632">
        <ele>2.9</ele>
        <time>2020-08-21T13:24:54.000Z</time>
      </trkpt>
      <trkpt lat="47.74391" lon="-3.35634">
        <ele>2.9</ele>
        <time>2020-08-21T13:24:55.000Z</time>
      </trkpt>
      <trkpt lat="47.74391" lon="-3.35635">
        <ele>2.9</ele>
        <time>2020-08-21T13:24:56.000Z</time>
      </trkpt>
      <trkpt lat="47.7439" lon="-3.35636">
        <ele>2.9</ele>
        <time>2020-08-21T13:24:57.000Z</time>
      </trkpt>
      <trkpt lat="47.7439" lon="-3.35636">
        <ele>2.9</ele>
        <time>2020-08-21T13:24:58.000Z</time>
      </trkpt>
      <trkpt lat="47.7439" lon="-3.35636">
        <ele>2.9</ele>
        <time>2020-08-21T13:24:59.000Z</time>
      </trkpt>
      <trkpt lat="47.74389" lon="-3.35637">
        <ele>2.9</ele>
        <time>2020-08-21T13:25:00.000Z</time>
      </trkpt>
      <trkpt lat="47.74389" lon="-3.35637">
        <ele>2.9</ele>
        <time>2020-08-21T13:25:01.000Z</time>
      </trkpt>
      <trkpt lat="47.74388" lon="-3.35637">
        <ele>2.9</ele>
        <time>2020-08-21T13:25:02.000Z</time>
      </trkpt>
      <trkpt lat="47.74388" lon="-3.35637">
        <ele>2.9</ele>
        <time>2020-08-21T13:25:03.000Z</time>
      </trkpt>
      <trkpt lat="47.74388" lon="-3.35637">
        <ele>2.9</ele>
        <time>2020-08-21T13:25:04.000Z</time>
      </trkpt>
      <trkpt lat="47.74387" lon="-3.35638">
        <ele>2.9</ele>
        <time>2020-08-21T13:25:05.000Z</time>
      </trkpt>
      <trkpt lat="47.74387" lon="-3.35638">
        <ele>2.9</ele>
        <time>2020-08-21T13:25:06.000Z</time>
      </trkpt>
      <trkpt lat="47.74387" lon="-3.35639">
        <ele>2.9</ele>
        <time>2020-08-21T13:25:07.000Z</time>
      </trkpt>
      <trkpt lat="47.74387" lon="-3.3564">
        <ele>2.9</ele>
        <time>2020-08-21T13:25:08.000Z</time>
      </trkpt>
      <trkpt lat="47.74387" lon="-3.35641">
        <ele>2.9</ele>
        <time>2020-08-21T13:25:09.000Z</time>
      </trkpt>
      <trkpt lat="47.74388" lon="-3.35642">
        <ele>2.9</ele>
        <time>2020-08-21T13:25:10.000Z</time>
      </trkpt>
      <trkpt lat="47.74388" lon="-3.35643">
        <ele>2.9</ele>
        <time>2020-08-21T13:25:11.000Z</time>
      </trkpt>
      <trkpt lat="47.74388" lon="-3.35644">
        <ele>2.9</ele>
        <time>2020-08-21T13:25:12.000Z</time>
      </trkpt>
      <trkpt lat="47.74389" lon="-3.35644">
        <ele>2.8</ele>
        <time>2020-08-21T13:25:13.000Z</time>
      </trkpt>
      <trkpt lat="47.74389" lon="-3.35645">
        <ele>2.8</ele>
        <time>2020-08-21T13:25:14.000Z</time>
      </trkpt>
      <trkpt lat="47.74389" lon="-3.35646">
        <ele>2.8</ele>
        <time>2020-08-21T13:25:15.000Z</time>
      </trkpt>
      <trkpt lat="47.74389" lon="-3.35647">
        <ele>2.8</ele>
        <time>2020-08-21T13:25:16.000Z</time>
      </trkpt>
      <trkpt lat="47.74389" lon="-3.35647">
        <ele>2.8</ele>
        <time>2020-08-21T13:25:17.000Z</time>
      </trkpt>
      <trkpt lat="47.7439" lon="-3.35648">
        <ele>2.8</ele>
        <time>2020-08-21T13:25:18.000Z</time>
      </trkpt>
      <trkpt lat="47.7439" lon="-3.35648">
        <ele>2.8</ele>
        <time>2020-08-21T13:25:19.000Z</time>
      </trkpt>
      <trkpt lat="47.7439" lon="-3.35649">
        <ele>2.8</ele>
        <time>2020-08-21T13:25:20.000Z</time>
      </trkpt>
      <trkpt lat="47.7439" lon="-3.35649">
        <ele>2.8</ele>
        <time>2020-08-21T13:25:21.000Z</time>
      </trkpt>
      <trkpt lat="47.7439" lon="-3.3565">
        <ele>2.8</ele>
        <time>2020-08-21T13:25:22.000Z</time>
      </trkpt>
      <trkpt lat="47.74391" lon="-3.35651">
        <ele>2.8</ele>
        <time>2020-08-21T13:25:23.000Z</time>
      </trkpt>
      <trkpt lat="47.74391" lon="-3.35651">
        <ele>2.8</ele>
        <time>2020-08-21T13:25:24.000Z</time>
      </trkpt>
      <trkpt lat="47.74391" lon="-3.35652">
        <ele>2.8</ele>
        <time>2020-08-21T13:25:25.000Z</time>
      </trkpt>
      <trkpt lat="47.74391" lon="-3.35653">
        <ele>2.7</ele>
        <time>2020-08-21T13:25:26.000Z</time>
      </trkpt>
      <trkpt lat="47.74391" lon="-3.35653">
        <ele>2.7</ele>
        <time>2020-08-21T13:25:27.000Z</time>
      </trkpt>
      <trkpt lat="47.74392" lon="-3.35654">
        <ele>2.7</ele>
        <time>2020-08-21T13:25:28.000Z</time>
      </trkpt>
      <trkpt lat="47.74392" lon="-3.35655">
        <ele>2.7</ele>
        <time>2020-08-21T13:25:29.000Z</time>
      </trkpt>
      <trkpt lat="47.74392" lon="-3.35655">
        <ele>2.7</ele>
        <time>2020-08-21T13:25:30.000Z</time>
      </trkpt>
      <trkpt lat="47.74392" lon="-3.35656">
        <ele>2.7</ele>
        <time>2020-08-21T13:25:31.000Z</time>
      </trkpt>
      <trkpt lat="47.74393" lon="-3.35656">
        <ele>2.7</ele>
        <time>2020-08-21T13:25:32.000Z</time>
      </trkpt>
      <trkpt lat="47.74393" lon="-3.35657">
        <ele>2.7</ele>
        <time>2020-08-21T13:25:33.000Z</time>
      </trkpt>
      <trkpt lat="47.74393" lon="-3.35657">
        <ele>2.7</ele>
        <time>2020-08-21T13:25:34.000Z</time>
      </trkpt>
      <trkpt lat="47.74394" lon="-3.35657">
        <ele>2.6</ele>
        <time>2020-08-21T13:25:35.000Z</time>
      </trkpt>
      <trkpt lat="47.74394" lon="-3.35658">
        <ele>2.6</ele>
        <time>2020-08-21T13:25:36.000Z</time>
      </trkpt>
      <trkpt lat="47.74395" lon="-3.35658">
        <ele>2.6</ele>
        <time>2020-08-21T13:25:37.000Z</time>
      </trkpt>
      <trkpt lat="47.74395" lon="-3.35658">
        <ele>2.6</ele>
        <time>2020-08-21T13:25:38.000Z</time>
      </trkpt>
      <trkpt lat="47.74396" lon="-3.35658">
        <ele>2.6</ele>
        <time>2020-08-21T13:25:39.000Z</time>
      </trkpt>
      <trkpt lat="47.74396" lon="-3.35658">
        <ele>2.6</ele>
        <time>2020-08-21T13:25:40.000Z</time>
      </trkpt>
      <trkpt lat="47.74396" lon="-3.35658">
        <ele>2.6</ele>
        <time>2020-08-21T13:25:41.000Z</time>
      </trkpt>
      <trkpt lat="47.74396" lon="-3.35658">
        <ele>2.6</ele>
        <time>2020-08-21T13:25:42.000Z</time>
      </trkpt>
      <trkpt lat="47.74396" lon="-3.35658">
        <ele>2.6</ele>
        <time>2020-08-21T13:25:43.000Z</time>
      </trkpt>
      <trkpt lat="47.74396" lon="-3.35658">
        <ele>2.6</ele>
        <time>2020-08-21T13:25:44.000Z</time>
      </trkpt>
      <trkpt lat="47.74396" lon="-3.35658">
        <ele>2.6</ele>
        <time>2020-08-21T13:25:45.000Z</time>
      </trkpt>
      <trkpt lat="47.74396" lon="-3.35658">
        <ele>2.6</ele>
        <time>2020-08-21T13:25:46.000Z</time>
      </trkpt>
      <trkpt lat="47.74396" lon="-3.35658">
        <ele>2.6</ele>
        <time>2020-08-21T13:25:47.000Z</time>
      </trkpt>
      <trkpt lat="47.74397" lon="-3.35659">
        <ele>2.6</ele>
        <time>2020-08-21T13:25:48.000Z</time>
      </trkpt>
      <trkpt lat="47.74397" lon="-3.35659">
        <ele>2.6</ele>
        <time>2020-08-21T13:25:49.000Z</time>
      </trkpt>
      <trkpt lat="47.74397" lon="-3.35659">
        <ele>2.6</ele>
        <time>2020-08-21T13:25:50.000Z</time>
      </trkpt>
      <trkpt lat="47.74398" lon="-3.35659">
        <ele>2.5</ele>
        <time>2020-08-21T13:25:51.000Z</time>
      </trkpt>
      <trkpt lat="47.74398" lon="-3.35659">
        <ele>2.5</ele>
        <time>2020-08-21T13:25:52.000Z</time>
      </trkpt>
      <trkpt lat="47.74399" lon="-3.35659">
        <ele>2.5</ele>
        <time>2020-08-21T13:25:53.000Z</time>
      </trkpt>
      <trkpt lat="47.744" lon="-3.35658">
        <ele>2.5</ele>
        <time>2020-08-21T13:25:54.000Z</time>
      </trkpt>
      <trkpt lat="47.744" lon="-3.35658">
        <ele>2.5</ele>
        <time>2020-08-21T13:25:55.000Z</time>
      </trkpt>
      <trkpt lat="47.74401" lon="-3.35659">
        <ele>2.5</ele>
        <time>2020-08-21T13:25:56.000Z</time>
      </trkpt>
      <trkpt lat="47.74401" lon="-3.3566">
        <ele>2.5</ele>
        <time>2020-08-21T13:25:57.000Z</time>
      </trkpt>
      <trkpt lat="47.74402" lon="-3.3566">
        <ele>2.5</ele>
        <time>2020-08-21T13:25:58.000Z</time>
      </trkpt>
      <trkpt lat="47.74402" lon="-3.35661">
        <ele>2.4</ele>
        <time>2020-08-21T13:25:59.000Z</time>
      </trkpt>
      <trkpt lat="47.74403" lon="-3.35662">
        <ele>2.4</ele>
        <time>2020-08-21T13:26:00.000Z</time>
      </trkpt>
      <trkpt lat="47.74404" lon="-3.35663">
        <ele>2.4</ele>
        <time>2020-08-21T13:26:01.000Z</time>
      </trkpt>
      <trkpt lat="47.74405" lon="-3.35663">
        <ele>2.4</ele>
        <time>2020-08-21T13:26:02.000Z</time>
      </trkpt>
      <trkpt lat="47.74405" lon="-3.35664">
        <ele>2.3</ele>
        <time>2020-08-21T13:26:03.000Z</time>
      </trkpt>
      <trkpt lat="47.74406" lon="-3.35664">
        <ele>2.3</ele>
        <time>2020-08-21T13:26:04.000Z</time>
      </trkpt>
      <trkpt lat="47.74407" lon="-3.35664">
        <ele>2.3</ele>
        <time>2020-08-21T13:26:05.000Z</time>
      </trkpt>
      <trkpt lat="47.74408" lon="-3.35664">
        <ele>2.3</ele>
        <time>2020-08-21T13:26:06.000Z</time>
      </trkpt>
      <trkpt lat="47.74409" lon="-3.35664">
        <ele>2.3</ele>
        <time>2020-08-21T13:26:07.000Z</time>
      </trkpt>
      <trkpt lat="47.74409" lon="-3.35664">
        <ele>2.2</ele>
        <time>2020-08-21T13:26:08.000Z</time>
      </trkpt>
      <trkpt lat="47.7441" lon="-3.35663">
        <ele>2.2</ele>
        <time>2020-08-21T13:26:09.000Z</time>
      </trkpt>
      <trkpt lat="47.74411" lon="-3.35663">
        <ele>2.2</ele>
        <time>2020-08-21T13:26:10.000Z</time>
      </trkpt>
      <trkpt lat="47.74412" lon="-3.35663">
        <ele>2.2</ele>
        <time>2020-08-21T13:26:11.000Z</time>
      </trkpt>
      <trkpt lat="47.74413" lon="-3.35663">
        <ele>2.2</ele>
        <time>2020-08-21T13:26:12.000Z</time>
      </trkpt>
      <trkpt lat="47.74413" lon="-3.35663">
        <ele>2.2</ele>
        <time>2020-08-21T13:26:13.000Z</time>
      </trkpt>
      <trkpt lat="47.74414" lon="-3.35663">
        <ele>2.1</ele>
        <time>2020-08-21T13:26:14.000Z</time>
      </trkpt>
      <trkpt lat="47.74415" lon="-3.35662">
        <ele>2.1</ele>
        <time>2020-08-21T13:26:15.000Z</time>
      </trkpt>
      <trkpt lat="47.74416" lon="-3.35662">
        <ele>2.1</ele>
        <time>2020-08-21T13:26:16.000Z</time>
      </trkpt>
      <trkpt lat="47.74417" lon="-3.35662">
        <ele>2.1</ele>
        <time>2020-08-21T13:26:17.000Z</time>
      </trkpt>
      <trkpt lat="47.74418" lon="-3.35662">
        <ele>2.2</ele>
        <time>2020-08-21T13:26:18.000Z</time>
      </trkpt>
      <trkpt lat="47.74419" lon="-3.35662">
        <ele>2.3</ele>
        <time>2020-08-21T13:26:19.000Z</time>
      </trkpt>
      <trkpt lat="47.7442" lon="-3.35662">
        <ele>2.4</ele>
        <time>2020-08-21T13:26:20.000Z</time>
      </trkpt>
      <trkpt lat="47.74421" lon="-3.35662">
        <ele>2.4</ele>
        <time>2020-08-21T13:26:21.000Z</time>
      </trkpt>
      <trkpt lat="47.74422" lon="-3.35662">
        <ele>2.5</ele>
        <time>2020-08-21T13:26:22.000Z</time>
      </trkpt>
      <trkpt lat="47.74423" lon="-3.35662">
        <ele>2.6</ele>
        <time>2020-08-21T13:26:23.000Z</time>
      </trkpt>
      <trkpt lat="47.74424" lon="-3.35662">
        <ele>2.7</ele>
        <time>2020-08-21T13:26:24.000Z</time>
      </trkpt>
      <trkpt lat="47.74425" lon="-3.35661">
        <ele>2.7</ele>
        <time>2020-08-21T13:26:25.000Z</time>
      </trkpt>
      <trkpt lat="47.74426" lon="-3.3566">
        <ele>2.8</ele>
        <time>2020-08-21T13:26:26.000Z</time>
      </trkpt>
      <trkpt lat="47.74426" lon="-3.35659">
        <ele>2.9</ele>
        <time>2020-08-21T13:26:27.000Z</time>
      </trkpt>
      <trkpt lat="47.74427" lon="-3.35658">
        <ele>2.9</ele>
        <time>2020-08-21T13:26:28.000Z</time>
      </trkpt>
      <trkpt lat="47.74427" lon="-3.35656">
        <ele>3</ele>
        <time>2020-08-21T13:26:29.000Z</time>
      </trkpt>
      <trkpt lat="47.74427" lon="-3.35655">
        <ele>3</ele>
        <time>2020-08-21T13:26:30.000Z</time>
      </trkpt>
      <trkpt lat="47.74428" lon="-3.35654">
        <ele>3</ele>
        <time>2020-08-21T13:26:31.000Z</time>
      </trkpt>
      <trkpt lat="47.74428" lon="-3.35653">
        <ele>3.1</ele>
        <time>2020-08-21T13:26:32.000Z</time>
      </trkpt>
      <trkpt lat="47.74428" lon="-3.35652">
        <ele>3.1</ele>
        <time>2020-08-21T13:26:33.000Z</time>
      </trkpt>
      <trkpt lat="47.74428" lon="-3.35652">
        <ele>3.1</ele>
        <time>2020-08-21T13:26:34.000Z</time>
      </trkpt>
      <trkpt lat="47.74428" lon="-3.35652">
        <ele>3.1</ele>
        <time>2020-08-21T13:26:35.000Z</time>
      </trkpt>
      <trkpt lat="47.74428" lon="-3.35652">
        <ele>3.1</ele>
        <time>2020-08-21T13:26:36.000Z</time>
      </trkpt>
      <trkpt lat="47.74428" lon="-3.35652">
        <ele>3.1</ele>
        <time>2020-08-21T13:26:37.000Z</time>
      </trkpt>
      <trkpt lat="47.74428" lon="-3.35653">
        <ele>3.1</ele>
        <time>2020-08-21T13:26:38.000Z</time>
      </trkpt>
      <trkpt lat="47.74428" lon="-3.35653">
        <ele>3.1</ele>
        <time>2020-08-21T13:26:39.000Z</time>
      </trkpt>
      <trkpt lat="47.74428" lon="-3.35653">
        <ele>3.1</ele>
        <time>2020-08-21T13:26:40.000Z</time>
      </trkpt>
      <trkpt lat="47.74428" lon="-3.35653">
        <ele>3.1</ele>
        <time>2020-08-21T13:26:41.000Z</time>
      </trkpt>
      <trkpt lat="47.74428" lon="-3.35654">
        <ele>3.1</ele>
        <time>2020-08-21T13:26:42.000Z</time>
      </trkpt>
      <trkpt lat="47.74428" lon="-3.35654">
        <ele>3.1</ele>
        <time>2020-08-21T13:26:43.000Z</time>
      </trkpt>
      <trkpt lat="47.74428" lon="-3.35654">
        <ele>3.1</ele>
        <time>2020-08-21T13:26:44.000Z</time>
      </trkpt>
      <trkpt lat="47.74428" lon="-3.35654">
        <ele>3.1</ele>
        <time>2020-08-21T13:26:45.000Z</time>
      </trkpt>
      <trkpt lat="47.74428" lon="-3.35654">
        <ele>3.1</ele>
        <time>2020-08-21T13:26:46.000Z</time>
      </trkpt>
      <trkpt lat="47.74428" lon="-3.35654">
        <ele>3.1</ele>
        <time>2020-08-21T13:26:47.000Z</time>
      </trkpt>
      <trkpt lat="47.74428" lon="-3.35654">
        <ele>3.1</ele>
        <time>2020-08-21T13:26:48.000Z</time>
      </trkpt>
      <trkpt lat="47.74428" lon="-3.35653">
        <ele>3.1</ele>
        <time>2020-08-21T13:26:49.000Z</time>
      </trkpt>
      <trkpt lat="47.74428" lon="-3.35653">
        <ele>3.1</ele>
        <time>2020-08-21T13:26:50.000Z</time>
      </trkpt>
      <trkpt lat="47.74428" lon="-3.35653">
        <ele>3.1</ele>
        <time>2020-08-21T13:26:51.000Z</time>
      </trkpt>
      <trkpt lat="47.74428" lon="-3.35653">
        <ele>3.1</ele>
        <time>2020-08-21T13:26:52.000Z</time>
      </trkpt>
      <trkpt lat="47.74428" lon="-3.35654">
        <ele>3.1</ele>
        <time>2020-08-21T13:26:53.000Z</time>
      </trkpt>
      <trkpt lat="47.74428" lon="-3.35654">
        <ele>3.1</ele>
        <time>2020-08-21T13:26:54.000Z</time>
      </trkpt>
      <trkpt lat="47.74428" lon="-3.35654">
        <ele>3.1</ele>
        <time>2020-08-21T13:26:55.000Z</time>
      </trkpt>
      <trkpt lat="47.74428" lon="-3.35654">
        <ele>3.1</ele>
        <time>2020-08-21T13:26:56.000Z</time>
      </trkpt>
      <trkpt lat="47.74428" lon="-3.35655">
        <ele>3.1</ele>
        <time>2020-08-21T13:26:57.000Z</time>
      </trkpt>
      <trkpt lat="47.74428" lon="-3.35655">
        <ele>3.1</ele>
        <time>2020-08-21T13:26:58.000Z</time>
      </trkpt>
      <trkpt lat="47.74428" lon="-3.35656">
        <ele>3</ele>
        <time>2020-08-21T13:26:59.000Z</time>
      </trkpt>
      <trkpt lat="47.74428" lon="-3.35656">
        <ele>3</ele>
        <time>2020-08-21T13:27:00.000Z</time>
      </trkpt>
      <trkpt lat="47.74428" lon="-3.35657">
        <ele>3</ele>
        <time>2020-08-21T13:27:01.000Z</time>
      </trkpt>
      <trkpt lat="47.74429" lon="-3.35657">
        <ele>3.1</ele>
        <time>2020-08-21T13:27:02.000Z</time>
      </trkpt>
      <trkpt lat="47.74429" lon="-3.35657">
        <ele>3.1</ele>
        <time>2020-08-21T13:27:03.000Z</time>
      </trkpt>
      <trkpt lat="47.74429" lon="-3.35658">
        <ele>3.1</ele>
        <time>2020-08-21T13:27:04.000Z</time>
      </trkpt>
      <trkpt lat="47.7443" lon="-3.35658">
        <ele>3.1</ele>
        <time>2020-08-21T13:27:05.000Z</time>
      </trkpt>
      <trkpt lat="47.7443" lon="-3.35658">
        <ele>3.1</ele>
        <time>2020-08-21T13:27:06.000Z</time>
      </trkpt>
      <trkpt lat="47.7443" lon="-3.35657">
        <ele>3.2</ele>
        <time>2020-08-21T13:27:07.000Z</time>
      </trkpt>
      <trkpt lat="47.7443" lon="-3.35657">
        <ele>3.2</ele>
        <time>2020-08-21T13:27:08.000Z</time>
      </trkpt>
      <trkpt lat="47.74431" lon="-3.35656">
        <ele>3.2</ele>
        <time>2020-08-21T13:27:09.000Z</time>
      </trkpt>
      <trkpt lat="47.74431" lon="-3.35656">
        <ele>3.2</ele>
        <time>2020-08-21T13:27:10.000Z</time>
      </trkpt>
      <trkpt lat="47.74431" lon="-3.35655">
        <ele>3.3</ele>
        <time>2020-08-21T13:27:11.000Z</time>
      </trkpt>
      <trkpt lat="47.74431" lon="-3.35654">
        <ele>3.3</ele>
        <time>2020-08-21T13:27:12.000Z</time>
      </trkpt>
      <trkpt lat="47.74431" lon="-3.35652">
        <ele>3.3</ele>
        <time>2020-08-21T13:27:13.000Z</time>
      </trkpt>
      <trkpt lat="47.74431" lon="-3.35651">
        <ele>3.3</ele>
        <time>2020-08-21T13:27:14.000Z</time>
      </trkpt>
      <trkpt lat="47.74431" lon="-3.3565">
        <ele>3.3</ele>
        <time>2020-08-21T13:27:15.000Z</time>
      </trkpt>
      <trkpt lat="47.74431" lon="-3.35649">
        <ele>3.4</ele>
        <time>2020-08-21T13:27:16.000Z</time>
      </trkpt>
      <trkpt lat="47.7443" lon="-3.35648">
        <ele>3.4</ele>
        <time>2020-08-21T13:27:17.000Z</time>
      </trkpt>
      <trkpt lat="47.7443" lon="-3.35647">
        <ele>3.4</ele>
        <time>2020-08-21T13:27:18.000Z</time>
      </trkpt>
      <trkpt lat="47.7443" lon="-3.35646">
        <ele>3.4</ele>
        <time>2020-08-21T13:27:19.000Z</time>
      </trkpt>
      <trkpt lat="47.7443" lon="-3.35645">
        <ele>3.4</ele>
        <time>2020-08-21T13:27:20.000Z</time>
      </trkpt>
      <trkpt lat="47.74429" lon="-3.35644">
        <ele>3.4</ele>
        <time>2020-08-21T13:27:21.000Z</time>
      </trkpt>
      <trkpt lat="47.74429" lon="-3.35644">
        <ele>3.3</ele>
        <time>2020-08-21T13:27:22.000Z</time>
      </trkpt>
      <trkpt lat="47.74428" lon="-3.35643">
        <ele>3.3</ele>
        <time>2020-08-21T13:27:23.000Z</time>
      </trkpt>
      <trkpt lat="47.74428" lon="-3.35642">
        <ele>3.3</ele>
        <time>2020-08-21T13:27:24.000Z</time>
      </trkpt>
      <trkpt lat="47.74428" lon="-3.35642">
        <ele>3.3</ele>
        <time>2020-08-21T13:27:25.000Z</time>
      </trkpt>
      <trkpt lat="47.74427" lon="-3.35641">
        <ele>3.3</ele>
        <time>2020-08-21T13:27:26.000Z</time>
      </trkpt>
      <trkpt lat="47.74427" lon="-3.3564">
        <ele>3.3</ele>
        <time>2020-08-21T13:27:27.000Z</time>
      </trkpt>
      <trkpt lat="47.74426" lon="-3.3564">
        <ele>3.2</ele>
        <time>2020-08-21T13:27:28.000Z</time>
      </trkpt>
      <trkpt lat="47.74425" lon="-3.35639">
        <ele>3.2</ele>
        <time>2020-08-21T13:27:29.000Z</time>
      </trkpt>
      <trkpt lat="47.74425" lon="-3.35639">
        <ele>3.2</ele>
        <time>2020-08-21T13:27:30.000Z</time>
      </trkpt>
      <trkpt lat="47.74424" lon="-3.35638">
        <ele>3.2</ele>
        <time>2020-08-21T13:27:31.000Z</time>
      </trkpt>
      <trkpt lat="47.74424" lon="-3.35637">
        <ele>3.2</ele>
        <time>2020-08-21T13:27:32.000Z</time>
      </trkpt>
      <trkpt lat="47.74423" lon="-3.35636">
        <ele>3.1</ele>
        <time>2020-08-21T13:27:33.000Z</time>
      </trkpt>
      <trkpt lat="47.74423" lon="-3.35636">
        <ele>3.1</ele>
        <time>2020-08-21T13:27:34.000Z</time>
      </trkpt>
      <trkpt lat="47.74422" lon="-3.35635">
        <ele>3.1</ele>
        <time>2020-08-21T13:27:35.000Z</time>
      </trkpt>
      <trkpt lat="47.74421" lon="-3.35634">
        <ele>3.1</ele>
        <time>2020-08-21T13:27:36.000Z</time>
      </trkpt>
      <trkpt lat="47.74421" lon="-3.35633">
        <ele>3.1</ele>
        <time>2020-08-21T13:27:37.000Z</time>
      </trkpt>
      <trkpt lat="47.7442" lon="-3.35633">
        <ele>3</ele>
        <time>2020-08-21T13:27:38.000Z</time>
      </trkpt>
      <trkpt lat="47.7442" lon="-3.35632">
        <ele>3</ele>
        <time>2020-08-21T13:27:39.000Z</time>
      </trkpt>
      <trkpt lat="47.74419" lon="-3.35631">
        <ele>3</ele>
        <time>2020-08-21T13:27:40.000Z</time>
      </trkpt>
      <trkpt lat="47.74419" lon="-3.3563">
        <ele>3</ele>
        <time>2020-08-21T13:27:41.000Z</time>
      </trkpt>
      <trkpt lat="47.74418" lon="-3.35629">
        <ele>3</ele>
        <time>2020-08-21T13:27:42.000Z</time>
      </trkpt>
      <trkpt lat="47.74418" lon="-3.35628">
        <ele>3</ele>
        <time>2020-08-21T13:27:43.000Z</time>
      </trkpt>
      <trkpt lat="47.74417" lon="-3.35627">
        <ele>3</ele>
        <time>2020-08-21T13:27:44.000Z</time>
      </trkpt>
      <trkpt lat="47.74417" lon="-3.35626">
        <ele>3</ele>
        <time>2020-08-21T13:27:45.000Z</time>
      </trkpt>
      <trkpt lat="47.74416" lon="-3.35625">
        <ele>3</ele>
        <time>2020-08-21T13:27:46.000Z</time>
      </trkpt>
      <trkpt lat="47.74416" lon="-3.35624">
        <ele>3</ele>
        <time>2020-08-21T13:27:47.000Z</time>
      </trkpt>
      <trkpt lat="47.74416" lon="-3.35623">
        <ele>3.1</ele>
        <time>2020-08-21T13:27:48.000Z</time>
      </trkpt>
      <trkpt lat="47.74415" lon="-3.35621">
        <ele>3.1</ele>
        <time>2020-08-21T13:27:49.000Z</time>
      </trkpt>
      <trkpt lat="47.74415" lon="-3.3562">
        <ele>3.1</ele>
        <time>2020-08-21T13:27:50.000Z</time>
      </trkpt>
      <trkpt lat="47.74414" lon="-3.3562">
        <ele>3.1</ele>
        <time>2020-08-21T13:27:51.000Z</time>
      </trkpt>
      <trkpt lat="47.74414" lon="-3.35619">
        <ele>3.1</ele>
        <time>2020-08-21T13:27:52.000Z</time>
      </trkpt>
      <trkpt lat="47.74413" lon="-3.35618">
        <ele>3.2</ele>
        <time>2020-08-21T13:27:53.000Z</time>
      </trkpt>
      <trkpt lat="47.74413" lon="-3.35617">
        <ele>3.2</ele>
        <time>2020-08-21T13:27:54.000Z</time>
      </trkpt>
      <trkpt lat="47.74412" lon="-3.35617">
        <ele>3.2</ele>
        <time>2020-08-21T13:27:55.000Z</time>
      </trkpt>
      <trkpt lat="47.74412" lon="-3.35616">
        <ele>3.2</ele>
        <time>2020-08-21T13:27:56.000Z</time>
      </trkpt>
      <trkpt lat="47.74412" lon="-3.35615">
        <ele>3.2</ele>
        <time>2020-08-21T13:27:57.000Z</time>
      </trkpt>
      <trkpt lat="47.74412" lon="-3.35614">
        <ele>3.2</ele>
        <time>2020-08-21T13:27:58.000Z</time>
      </trkpt>
      <trkpt lat="47.74413" lon="-3.35613">
        <ele>3.3</ele>
        <time>2020-08-21T13:27:59.000Z</time>
      </trkpt>
      <trkpt lat="47.74413" lon="-3.35612">
        <ele>3.3</ele>
        <time>2020-08-21T13:28:00.000Z</time>
      </trkpt>
      <trkpt lat="47.74413" lon="-3.35611">
        <ele>3.3</ele>
        <time>2020-08-21T13:28:01.000Z</time>
      </trkpt>
      <trkpt lat="47.74413" lon="-3.3561">
        <ele>3.3</ele>
        <time>2020-08-21T13:28:02.000Z</time>
      </trkpt>
      <trkpt lat="47.74413" lon="-3.35609">
        <ele>3.4</ele>
        <time>2020-08-21T13:28:03.000Z</time>
      </trkpt>
      <trkpt lat="47.74414" lon="-3.35608">
        <ele>3.4</ele>
        <time>2020-08-21T13:28:04.000Z</time>
      </trkpt>
      <trkpt lat="47.74414" lon="-3.35607">
        <ele>3.4</ele>
        <time>2020-08-21T13:28:05.000Z</time>
      </trkpt>
      <trkpt lat="47.74414" lon="-3.35606">
        <ele>3.4</ele>
        <time>2020-08-21T13:28:06.000Z</time>
      </trkpt>
      <trkpt lat="47.74414" lon="-3.35605">
        <ele>3.5</ele>
        <time>2020-08-21T13:28:07.000Z</time>
      </trkpt>
      <trkpt lat="47.74414" lon="-3.35603">
        <ele>3.5</ele>
        <time>2020-08-21T13:28:08.000Z</time>
      </trkpt>
      <trkpt lat="47.74414" lon="-3.35602">
        <ele>3.5</ele>
        <time>2020-08-21T13:28:09.000Z</time>
      </trkpt>
      <trkpt lat="47.74413" lon="-3.35601">
        <ele>3.5</ele>
        <time>2020-08-21T13:28:10.000Z</time>
      </trkpt>
      <trkpt lat="47.74413" lon="-3.356">
        <ele>3.6</ele>
        <time>2020-08-21T13:28:11.000Z</time>
      </trkpt>
      <trkpt lat="47.74413" lon="-3.35599">
        <ele>3.6</ele>
        <time>2020-08-21T13:28:12.000Z</time>
      </trkpt>
      <trkpt lat="47.74413" lon="-3.35597">
        <ele>3.6</ele>
        <time>2020-08-21T13:28:13.000Z</time>
      </trkpt>
      <trkpt lat="47.74413" lon="-3.35596">
        <ele>3.6</ele>
        <time>2020-08-21T13:28:14.000Z</time>
      </trkpt>
      <trkpt lat="47.74413" lon="-3.35595">
        <ele>3.7</ele>
        <time>2020-08-21T13:28:15.000Z</time>
      </trkpt>
      <trkpt lat="47.74413" lon="-3.35593">
        <ele>3.7</ele>
        <time>2020-08-21T13:28:16.000Z</time>
      </trkpt>
      <trkpt lat="47.74413" lon="-3.35592">
        <ele>3.7</ele>
        <time>2020-08-21T13:28:17.000Z</time>
      </trkpt>
      <trkpt lat="47.74413" lon="-3.35591">
        <ele>3.8</ele>
        <time>2020-08-21T13:28:18.000Z</time>
      </trkpt>
      <trkpt lat="47.74413" lon="-3.35589">
        <ele>3.8</ele>
        <time>2020-08-21T13:28:19.000Z</time>
      </trkpt>
      <trkpt lat="47.74413" lon="-3.35588">
        <ele>3.8</ele>
        <time>2020-08-21T13:28:20.000Z</time>
      </trkpt>
      <trkpt lat="47.74413" lon="-3.35586">
        <ele>3.8</ele>
        <time>2020-08-21T13:28:21.000Z</time>
      </trkpt>
      <trkpt lat="47.74413" lon="-3.35585">
        <ele>3.9</ele>
        <time>2020-08-21T13:28:22.000Z</time>
      </trkpt>
      <trkpt lat="47.74412" lon="-3.35583">
        <ele>3.9</ele>
        <time>2020-08-21T13:28:23.000Z</time>
      </trkpt>
      <trkpt lat="47.74412" lon="-3.35582">
        <ele>3.9</ele>
        <time>2020-08-21T13:28:24.000Z</time>
      </trkpt>
      <trkpt lat="47.74412" lon="-3.3558">
        <ele>3.9</ele>
        <time>2020-08-21T13:28:25.000Z</time>
      </trkpt>
      <trkpt lat="47.74412" lon="-3.35579">
        <ele>3.9</ele>
        <time>2020-08-21T13:28:26.000Z</time>
      </trkpt>
      <trkpt lat="47.74412" lon="-3.35577">
        <ele>3.9</ele>
        <time>2020-08-21T13:28:27.000Z</time>
      </trkpt>
      <trkpt lat="47.74412" lon="-3.35576">
        <ele>3.9</ele>
        <time>2020-08-21T13:28:28.000Z</time>
      </trkpt>
      <trkpt lat="47.74412" lon="-3.35574">
        <ele>3.9</ele>
        <time>2020-08-21T13:28:29.000Z</time>
      </trkpt>
      <trkpt lat="47.74412" lon="-3.35573">
        <ele>3.9</ele>
        <time>2020-08-21T13:28:30.000Z</time>
      </trkpt>
      <trkpt lat="47.74411" lon="-3.35571">
        <ele>3.9</ele>
        <time>2020-08-21T13:28:31.000Z</time>
      </trkpt>
      <trkpt lat="47.74411" lon="-3.3557">
        <ele>3.9</ele>
        <time>2020-08-21T13:28:32.000Z</time>
      </trkpt>
      <trkpt lat="47.74411" lon="-3.35569">
        <ele>3.9</ele>
        <time>2020-08-21T13:28:33.000Z</time>
      </trkpt>
      <trkpt lat="47.74411" lon="-3.35567">
        <ele>3.8</ele>
        <time>2020-08-21T13:28:34.000Z</time>
      </trkpt>
      <trkpt lat="47.74411" lon="-3.35566">
        <ele>3.8</ele>
        <time>2020-08-21T13:28:35.000Z</time>
      </trkpt>
      <trkpt lat="47.74411" lon="-3.35564">
        <ele>3.8</ele>
        <time>2020-08-21T13:28:36.000Z</time>
      </trkpt>
      <trkpt lat="47.7441" lon="-3.35563">
        <ele>3.8</ele>
        <time>2020-08-21T13:28:37.000Z</time>
      </trkpt>
      <trkpt lat="47.7441" lon="-3.35562">
        <ele>3.8</ele>
        <time>2020-08-21T13:28:38.000Z</time>
      </trkpt>
      <trkpt lat="47.7441" lon="-3.35561">
        <ele>3.8</ele>
        <time>2020-08-21T13:28:39.000Z</time>
      </trkpt>
      <trkpt lat="47.7441" lon="-3.35559">
        <ele>3.8</ele>
        <time>2020-08-21T13:28:40.000Z</time>
      </trkpt>
      <trkpt lat="47.7441" lon="-3.35558">
        <ele>3.8</ele>
        <time>2020-08-21T13:28:41.000Z</time>
      </trkpt>
      <trkpt lat="47.7441" lon="-3.35557">
        <ele>3.8</ele>
        <time>2020-08-21T13:28:42.000Z</time>
      </trkpt>
      <trkpt lat="47.7441" lon="-3.35556">
        <ele>3.8</ele>
        <time>2020-08-21T13:28:43.000Z</time>
      </trkpt>
      <trkpt lat="47.7441" lon="-3.35554">
        <ele>3.8</ele>
        <time>2020-08-21T13:28:44.000Z</time>
      </trkpt>
      <trkpt lat="47.7441" lon="-3.35553">
        <ele>3.8</ele>
        <time>2020-08-21T13:28:45.000Z</time>
      </trkpt>
      <trkpt lat="47.7441" lon="-3.35552">
        <ele>3.8</ele>
        <time>2020-08-21T13:28:46.000Z</time>
      </trkpt>
      <trkpt lat="47.7441" lon="-3.35551">
        <ele>3.8</ele>
        <time>2020-08-21T13:28:47.000Z</time>
      </trkpt>
      <trkpt lat="47.7441" lon="-3.3555">
        <ele>3.8</ele>
        <time>2020-08-21T13:28:48.000Z</time>
      </trkpt>
      <trkpt lat="47.7441" lon="-3.35549">
        <ele>3.8</ele>
        <time>2020-08-21T13:28:49.000Z</time>
      </trkpt>
      <trkpt lat="47.74411" lon="-3.35547">
        <ele>3.8</ele>
        <time>2020-08-21T13:28:50.000Z</time>
      </trkpt>
      <trkpt lat="47.74411" lon="-3.35546">
        <ele>3.8</ele>
        <time>2020-08-21T13:28:51.000Z</time>
      </trkpt>
      <trkpt lat="47.74412" lon="-3.35545">
        <ele>3.8</ele>
        <time>2020-08-21T13:28:52.000Z</time>
      </trkpt>
      <trkpt lat="47.74412" lon="-3.35544">
        <ele>3.9</ele>
        <time>2020-08-21T13:28:53.000Z</time>
      </trkpt>
      <trkpt lat="47.74412" lon="-3.35542">
        <ele>3.9</ele>
        <time>2020-08-21T13:28:54.000Z</time>
      </trkpt>
      <trkpt lat="47.74412" lon="-3.35541">
        <ele>3.9</ele>
        <time>2020-08-21T13:28:55.000Z</time>
      </trkpt>
      <trkpt lat="47.74412" lon="-3.35539">
        <ele>3.8</ele>
        <time>2020-08-21T13:28:56.000Z</time>
      </trkpt>
      <trkpt lat="47.74411" lon="-3.35538">
        <ele>3.8</ele>
        <time>2020-08-21T13:28:57.000Z</time>
      </trkpt>
      <trkpt lat="47.7441" lon="-3.35537">
        <ele>3.8</ele>
        <time>2020-08-21T13:28:58.000Z</time>
      </trkpt>
      <trkpt lat="47.7441" lon="-3.35536">
        <ele>3.8</ele>
        <time>2020-08-21T13:28:59.000Z</time>
      </trkpt>
      <trkpt lat="47.74409" lon="-3.35535">
        <ele>3.8</ele>
        <time>2020-08-21T13:29:00.000Z</time>
      </trkpt>
      <trkpt lat="47.74408" lon="-3.35534">
        <ele>3.7</ele>
        <time>2020-08-21T13:29:01.000Z</time>
      </trkpt>
      <trkpt lat="47.74408" lon="-3.35533">
        <ele>3.7</ele>
        <time>2020-08-21T13:29:02.000Z</time>
      </trkpt>
      <trkpt lat="47.74407" lon="-3.35532">
        <ele>3.7</ele>
        <time>2020-08-21T13:29:03.000Z</time>
      </trkpt>
      <trkpt lat="47.74407" lon="-3.35531">
        <ele>3.7</ele>
        <time>2020-08-21T13:29:04.000Z</time>
      </trkpt>
      <trkpt lat="47.74407" lon="-3.3553">
        <ele>3.7</ele>
        <time>2020-08-21T13:29:05.000Z</time>
      </trkpt>
      <trkpt lat="47.74407" lon="-3.35529">
        <ele>3.7</ele>
        <time>2020-08-21T13:29:06.000Z</time>
      </trkpt>
      <trkpt lat="47.74407" lon="-3.35528">
        <ele>3.7</ele>
        <time>2020-08-21T13:29:07.000Z</time>
      </trkpt>
      <trkpt lat="47.74407" lon="-3.35526">
        <ele>3.7</ele>
        <time>2020-08-21T13:29:08.000Z</time>
      </trkpt>
      <trkpt lat="47.74407" lon="-3.35525">
        <ele>3.7</ele>
        <time>2020-08-21T13:29:09.000Z</time>
      </trkpt>
      <trkpt lat="47.74407" lon="-3.35524">
        <ele>3.7</ele>
        <time>2020-08-21T13:29:10.000Z</time>
      </trkpt>
      <trkpt lat="47.74407" lon="-3.35522">
        <ele>3.7</ele>
        <time>2020-08-21T13:29:11.000Z</time>
      </trkpt>
      <trkpt lat="47.74407" lon="-3.35521">
        <ele>3.7</ele>
        <time>2020-08-21T13:29:12.000Z</time>
      </trkpt>
      <trkpt lat="47.74407" lon="-3.35519">
        <ele>3.7</ele>
        <time>2020-08-21T13:29:13.000Z</time>
      </trkpt>
      <trkpt lat="47.74407" lon="-3.35518">
        <ele>3.7</ele>
        <time>2020-08-21T13:29:14.000Z</time>
      </trkpt>
      <trkpt lat="47.74406" lon="-3.35516">
        <ele>3.6</ele>
        <time>2020-08-21T13:29:15.000Z</time>
      </trkpt>
      <trkpt lat="47.74406" lon="-3.35515">
        <ele>3.6</ele>
        <time>2020-08-21T13:29:16.000Z</time>
      </trkpt>
      <trkpt lat="47.74405" lon="-3.35514">
        <ele>3.6</ele>
        <time>2020-08-21T13:29:17.000Z</time>
      </trkpt>
      <trkpt lat="47.74405" lon="-3.35512">
        <ele>3.6</ele>
        <time>2020-08-21T13:29:18.000Z</time>
      </trkpt>
      <trkpt lat="47.74405" lon="-3.35512">
        <ele>3.6</ele>
        <time>2020-08-21T13:29:19.000Z</time>
      </trkpt>
      <trkpt lat="47.74405" lon="-3.35511">
        <ele>3.6</ele>
        <time>2020-08-21T13:29:20.000Z</time>
      </trkpt>
      <trkpt lat="47.74405" lon="-3.35511">
        <ele>3.6</ele>
        <time>2020-08-21T13:29:21.000Z</time>
      </trkpt>
      <trkpt lat="47.74405" lon="-3.35511">
        <ele>3.6</ele>
        <time>2020-08-21T13:29:22.000Z</time>
      </trkpt>
      <trkpt lat="47.74405" lon="-3.3551">
        <ele>3.6</ele>
        <time>2020-08-21T13:29:23.000Z</time>
      </trkpt>
      <trkpt lat="47.74405" lon="-3.3551">
        <ele>3.6</ele>
        <time>2020-08-21T13:29:24.000Z</time>
      </trkpt>
      <trkpt lat="47.74405" lon="-3.3551">
        <ele>3.6</ele>
        <time>2020-08-21T13:29:25.000Z</time>
      </trkpt>
      <trkpt lat="47.74405" lon="-3.3551">
        <ele>3.6</ele>
        <time>2020-08-21T13:29:26.000Z</time>
      </trkpt>
      <trkpt lat="47.74405" lon="-3.3551">
        <ele>3.6</ele>
        <time>2020-08-21T13:29:27.000Z</time>
      </trkpt>
      <trkpt lat="47.74405" lon="-3.3551">
        <ele>3.6</ele>
        <time>2020-08-21T13:29:28.000Z</time>
      </trkpt>
      <trkpt lat="47.74405" lon="-3.3551">
        <ele>3.6</ele>
        <time>2020-08-21T13:29:29.000Z</time>
      </trkpt>
      <trkpt lat="47.74405" lon="-3.3551">
        <ele>3.6</ele>
        <time>2020-08-21T13:29:30.000Z</time>
      </trkpt>
      <trkpt lat="47.74405" lon="-3.3551">
        <ele>3.6</ele>
        <time>2020-08-21T13:29:31.000Z</time>
      </trkpt>
      <trkpt lat="47.74405" lon="-3.3551">
        <ele>3.6</ele>
        <time>2020-08-21T13:29:32.000Z</time>
      </trkpt>
      <trkpt lat="47.74405" lon="-3.3551">
        <ele>3.6</ele>
        <time>2020-08-21T13:29:33.000Z</time>
      </trkpt>
      <trkpt lat="47.74405" lon="-3.3551">
        <ele>3.6</ele>
        <time>2020-08-21T13:29:34.000Z</time>
      </trkpt>
      <trkpt lat="47.74405" lon="-3.3551">
        <ele>3.6</ele>
        <time>2020-08-21T13:29:35.000Z</time>
      </trkpt>
      <trkpt lat="47.74405" lon="-3.3551">
        <ele>3.6</ele>
        <time>2020-08-21T13:29:36.000Z</time>
      </trkpt>
      <trkpt lat="47.74405" lon="-3.3551">
        <ele>3.6</ele>
        <time>2020-08-21T13:29:37.000Z</time>
      </trkpt>
      <trkpt lat="47.74405" lon="-3.3551">
        <ele>3.6</ele>
        <time>2020-08-21T13:29:38.000Z</time>
      </trkpt>
      <trkpt lat="47.74405" lon="-3.3551">
        <ele>3.6</ele>
        <time>2020-08-21T13:29:39.000Z</time>
      </trkpt>
      <trkpt lat="47.74405" lon="-3.3551">
        <ele>3.6</ele>
        <time>2020-08-21T13:29:40.000Z</time>
      </trkpt>
      <trkpt lat="47.74405" lon="-3.3551">
        <ele>3.6</ele>
        <time>2020-08-21T13:29:41.000Z</time>
      </trkpt>
      <trkpt lat="47.74405" lon="-3.3551">
        <ele>3.6</ele>
        <time>2020-08-21T13:29:42.000Z</time>
      </trkpt>
      <trkpt lat="47.74405" lon="-3.3551">
        <ele>3.6</ele>
        <time>2020-08-21T13:29:43.000Z</time>
      </trkpt>
      <trkpt lat="47.74405" lon="-3.3551">
        <ele>3.6</ele>
        <time>2020-08-21T13:29:44.000Z</time>
      </trkpt>
      <trkpt lat="47.74405" lon="-3.3551">
        <ele>3.6</ele>
        <time>2020-08-21T13:29:45.000Z</time>
      </trkpt>
      <trkpt lat="47.74405" lon="-3.3551">
        <ele>3.6</ele>
        <time>2020-08-21T13:29:46.000Z</time>
      </trkpt>
      <trkpt lat="47.74405" lon="-3.3551">
        <ele>3.6</ele>
        <time>2020-08-21T13:29:47.000Z</time>
      </trkpt>
      <trkpt lat="47.74405" lon="-3.3551">
        <ele>3.6</ele>
        <time>2020-08-21T13:29:48.000Z</time>
      </trkpt>
      <trkpt lat="47.74405" lon="-3.3551">
        <ele>3.6</ele>
        <time>2020-08-21T13:29:49.000Z</time>
      </trkpt>
      <trkpt lat="47.74405" lon="-3.3551">
        <ele>3.6</ele>
        <time>2020-08-21T13:29:50.000Z</time>
      </trkpt>
      <trkpt lat="47.74405" lon="-3.3551">
        <ele>3.6</ele>
        <time>2020-08-21T13:29:51.000Z</time>
      </trkpt>
      <trkpt lat="47.74405" lon="-3.3551">
        <ele>3.6</ele>
        <time>2020-08-21T13:29:52.000Z</time>
      </trkpt>
      <trkpt lat="47.74405" lon="-3.3551">
        <ele>3.6</ele>
        <time>2020-08-21T13:29:53.000Z</time>
      </trkpt>
      <trkpt lat="47.74405" lon="-3.3551">
        <ele>3.6</ele>
        <time>2020-08-21T13:29:54.000Z</time>
      </trkpt>
      <trkpt lat="47.74405" lon="-3.3551">
        <ele>3.6</ele>
        <time>2020-08-21T13:29:55.000Z</time>
      </trkpt>
      <trkpt lat="47.74405" lon="-3.3551">
        <ele>3.6</ele>
        <time>2020-08-21T13:29:56.000Z</time>
      </trkpt>
      <trkpt lat="47.74405" lon="-3.3551">
        <ele>3.6</ele>
        <time>2020-08-21T13:29:57.000Z</time>
      </trkpt>
      <trkpt lat="47.74405" lon="-3.3551">
        <ele>3.6</ele>
        <time>2020-08-21T13:29:58.000Z</time>
      </trkpt>
      <trkpt lat="47.74405" lon="-3.3551">
        <ele>3.6</ele>
        <time>2020-08-21T13:29:59.000Z</time>
      </trkpt>
      <trkpt lat="47.74405" lon="-3.3551">
        <ele>3.6</ele>
        <time>2020-08-21T13:30:00.000Z</time>
      </trkpt>
      <trkpt lat="47.74405" lon="-3.3551">
        <ele>3.6</ele>
        <time>2020-08-21T13:30:01.000Z</time>
      </trkpt>
      <trkpt lat="47.74405" lon="-3.3551">
        <ele>3.6</ele>
        <time>2020-08-21T13:30:02.000Z</time>
      </trkpt>
      <trkpt lat="47.74405" lon="-3.3551">
        <ele>3.6</ele>
        <time>2020-08-21T13:30:03.000Z</time>
      </trkpt>
      <trkpt lat="47.74405" lon="-3.3551">
        <ele>3.6</ele>
        <time>2020-08-21T13:30:04.000Z</time>
      </trkpt>
      <trkpt lat="47.74405" lon="-3.3551">
        <ele>3.6</ele>
        <time>2020-08-21T13:30:05.000Z</time>
      </trkpt>
      <trkpt lat="47.74405" lon="-3.3551">
        <ele>3.6</ele>
        <time>2020-08-21T13:30:06.000Z</time>
      </trkpt>
      <trkpt lat="47.74405" lon="-3.3551">
        <ele>3.6</ele>
        <time>2020-08-21T13:30:07.000Z</time>
      </trkpt>
      <trkpt lat="47.74405" lon="-3.3551">
        <ele>3.6</ele>
        <time>2020-08-21T13:30:08.000Z</time>
      </trkpt>
      <trkpt lat="47.74405" lon="-3.3551">
        <ele>3.6</ele>
        <time>2020-08-21T13:30:09.000Z</time>
      </trkpt>
      <trkpt lat="47.74405" lon="-3.3551">
        <ele>3.6</ele>
        <time>2020-08-21T13:30:10.000Z</time>
      </trkpt>
      <trkpt lat="47.74405" lon="-3.3551">
        <ele>3.6</ele>
        <time>2020-08-21T13:30:11.000Z</time>
      </trkpt>
      <trkpt lat="47.74405" lon="-3.3551">
        <ele>3.6</ele>
        <time>2020-08-21T13:30:12.000Z</time>
      </trkpt>
      <trkpt lat="47.74405" lon="-3.3551">
        <ele>3.6</ele>
        <time>2020-08-21T13:30:13.000Z</time>
      </trkpt>
      <trkpt lat="47.74405" lon="-3.3551">
        <ele>3.6</ele>
        <time>2020-08-21T13:30:14.000Z</time>
      </trkpt>
      <trkpt lat="47.74405" lon="-3.3551">
        <ele>3.6</ele>
        <time>2020-08-21T13:30:15.000Z</time>
      </trkpt>
      <trkpt lat="47.74405" lon="-3.3551">
        <ele>3.6</ele>
        <time>2020-08-21T13:30:16.000Z</time>
      </trkpt>
      <trkpt lat="47.74405" lon="-3.3551">
        <ele>3.6</ele>
        <time>2020-08-21T13:30:17.000Z</time>
      </trkpt>
      <trkpt lat="47.74405" lon="-3.3551">
        <ele>3.6</ele>
        <time>2020-08-21T13:30:18.000Z</time>
      </trkpt>
      <trkpt lat="47.74405" lon="-3.3551">
        <ele>3.6</ele>
        <time>2020-08-21T13:30:19.000Z</time>
      </trkpt>
      <trkpt lat="47.74405" lon="-3.3551">
        <ele>3.6</ele>
        <time>2020-08-21T13:30:20.000Z</time>
      </trkpt>
      <trkpt lat="47.74405" lon="-3.3551">
        <ele>3.6</ele>
        <time>2020-08-21T13:30:21.000Z</time>
      </trkpt>
      <trkpt lat="47.74405" lon="-3.3551">
        <ele>3.6</ele>
        <time>2020-08-21T13:30:22.000Z</time>
      </trkpt>
      <trkpt lat="47.74405" lon="-3.3551">
        <ele>3.6</ele>
        <time>2020-08-21T13:30:23.000Z</time>
      </trkpt>
      <trkpt lat="47.74405" lon="-3.3551">
        <ele>3.6</ele>
        <time>2020-08-21T13:30:24.000Z</time>
      </trkpt>
      <trkpt lat="47.74405" lon="-3.3551">
        <ele>3.6</ele>
        <time>2020-08-21T13:30:25.000Z</time>
      </trkpt>
      <trkpt lat="47.74405" lon="-3.3551">
        <ele>3.6</ele>
        <time>2020-08-21T13:30:26.000Z</time>
      </trkpt>
      <trkpt lat="47.74405" lon="-3.3551">
        <ele>3.6</ele>
        <time>2020-08-21T13:30:27.000Z</time>
      </trkpt>
      <trkpt lat="47.74405" lon="-3.3551">
        <ele>3.6</ele>
        <time>2020-08-21T13:30:28.000Z</time>
      </trkpt>
      <trkpt lat="47.74405" lon="-3.3551">
        <ele>3.6</ele>
        <time>2020-08-21T13:30:29.000Z</time>
      </trkpt>
      <trkpt lat="47.74405" lon="-3.3551">
        <ele>3.6</ele>
        <time>2020-08-21T13:30:30.000Z</time>
      </trkpt>
      <trkpt lat="47.74405" lon="-3.3551">
        <ele>3.6</ele>
        <time>2020-08-21T13:30:31.000Z</time>
      </trkpt>
      <trkpt lat="47.74405" lon="-3.3551">
        <ele>3.6</ele>
        <time>2020-08-21T13:30:32.000Z</time>
      </trkpt>
      <trkpt lat="47.74405" lon="-3.3551">
        <ele>3.6</ele>
        <time>2020-08-21T13:30:33.000Z</time>
      </trkpt>
      <trkpt lat="47.74405" lon="-3.3551">
        <ele>3.6</ele>
        <time>2020-08-21T13:30:34.000Z</time>
      </trkpt>
      <trkpt lat="47.74405" lon="-3.3551">
        <ele>3.6</ele>
        <time>2020-08-21T13:30:35.000Z</time>
      </trkpt>
      <trkpt lat="47.74405" lon="-3.3551">
        <ele>3.6</ele>
        <time>2020-08-21T13:30:36.000Z</time>
      </trkpt>
      <trkpt lat="47.74405" lon="-3.3551">
        <ele>3.6</ele>
        <time>2020-08-21T13:30:37.000Z</time>
      </trkpt>
      <trkpt lat="47.74405" lon="-3.3551">
        <ele>3.6</ele>
        <time>2020-08-21T13:30:38.000Z</time>
      </trkpt>
      <trkpt lat="47.74405" lon="-3.3551">
        <ele>3.6</ele>
        <time>2020-08-21T13:30:39.000Z</time>
      </trkpt>
      <trkpt lat="47.74405" lon="-3.3551">
        <ele>3.6</ele>
        <time>2020-08-21T13:30:40.000Z</time>
      </trkpt>
      <trkpt lat="47.74405" lon="-3.3551">
        <ele>3.6</ele>
        <time>2020-08-21T13:30:41.000Z</time>
      </trkpt>
      <trkpt lat="47.74405" lon="-3.3551">
        <ele>3.6</ele>
        <time>2020-08-21T13:30:42.000Z</time>
      </trkpt>
      <trkpt lat="47.74405" lon="-3.3551">
        <ele>3.6</ele>
        <time>2020-08-21T13:30:43.000Z</time>
      </trkpt>
      <trkpt lat="47.74405" lon="-3.3551">
        <ele>3.6</ele>
        <time>2020-08-21T13:30:44.000Z</time>
      </trkpt>
      <trkpt lat="47.74405" lon="-3.3551">
        <ele>3.6</ele>
        <time>2020-08-21T13:30:45.000Z</time>
      </trkpt>
      <trkpt lat="47.74405" lon="-3.3551">
        <ele>3.6</ele>
        <time>2020-08-21T13:30:46.000Z</time>
      </trkpt>
      <trkpt lat="47.74405" lon="-3.3551">
        <ele>3.6</ele>
        <time>2020-08-21T13:30:47.000Z</time>
      </trkpt>
      <trkpt lat="47.74405" lon="-3.3551">
        <ele>3.6</ele>
        <time>2020-08-21T13:30:48.000Z</time>
      </trkpt>
      <trkpt lat="47.74405" lon="-3.3551">
        <ele>3.6</ele>
        <time>2020-08-21T13:30:49.000Z</time>
      </trkpt>
      <trkpt lat="47.74405" lon="-3.3551">
        <ele>3.6</ele>
        <time>2020-08-21T13:30:50.000Z</time>
      </trkpt>
      <trkpt lat="47.74405" lon="-3.3551">
        <ele>3.6</ele>
        <time>2020-08-21T13:30:51.000Z</time>
      </trkpt>
      <trkpt lat="47.74405" lon="-3.3551">
        <ele>3.6</ele>
        <time>2020-08-21T13:30:52.000Z</time>
      </trkpt>
      <trkpt lat="47.74405" lon="-3.3551">
        <ele>3.6</ele>
        <time>2020-08-21T13:30:53.000Z</time>
      </trkpt>
      <trkpt lat="47.74405" lon="-3.3551">
        <ele>3.6</ele>
        <time>2020-08-21T13:30:54.000Z</time>
      </trkpt>
      <trkpt lat="47.74405" lon="-3.3551">
        <ele>3.6</ele>
        <time>2020-08-21T13:30:55.000Z</time>
      </trkpt>
      <trkpt lat="47.74405" lon="-3.3551">
        <ele>3.6</ele>
        <time>2020-08-21T13:30:56.000Z</time>
      </trkpt>
      <trkpt lat="47.74405" lon="-3.3551">
        <ele>3.6</ele>
        <time>2020-08-21T13:30:57.000Z</time>
      </trkpt>
      <trkpt lat="47.74405" lon="-3.3551">
        <ele>3.6</ele>
        <time>2020-08-21T13:30:58.000Z</time>
      </trkpt>
      <trkpt lat="47.74405" lon="-3.3551">
        <ele>3.6</ele>
        <time>2020-08-21T13:30:59.000Z</time>
      </trkpt>
      <trkpt lat="47.74405" lon="-3.3551">
        <ele>3.6</ele>
        <time>2020-08-21T13:31:00.000Z</time>
      </trkpt>
      <trkpt lat="47.74405" lon="-3.3551">
        <ele>3.6</ele>
        <time>2020-08-21T13:31:01.000Z</time>
      </trkpt>
      <trkpt lat="47.74405" lon="-3.3551">
        <ele>3.6</ele>
        <time>2020-08-21T13:31:02.000Z</time>
      </trkpt>
      <trkpt lat="47.74405" lon="-3.3551">
        <ele>3.6</ele>
        <time>2020-08-21T13:31:03.000Z</time>
      </trkpt>
      <trkpt lat="47.74405" lon="-3.3551">
        <ele>3.6</ele>
        <time>2020-08-21T13:31:04.000Z</time>
      </trkpt>
      <trkpt lat="47.74405" lon="-3.3551">
        <ele>3.6</ele>
        <time>2020-08-21T13:31:05.000Z</time>
      </trkpt>
      <trkpt lat="47.74405" lon="-3.3551">
        <ele>3.6</ele>
        <time>2020-08-21T13:31:06.000Z</time>
      </trkpt>
      <trkpt lat="47.74405" lon="-3.3551">
        <ele>3.6</ele>
        <time>2020-08-21T13:31:07.000Z</time>
      </trkpt>
      <trkpt lat="47.74405" lon="-3.3551">
        <ele>3.6</ele>
        <time>2020-08-21T13:31:08.000Z</time>
      </trkpt>
      <trkpt lat="47.74405" lon="-3.3551">
        <ele>3.6</ele>
        <time>2020-08-21T13:31:09.000Z</time>
      </trkpt>
      <trkpt lat="47.74405" lon="-3.3551">
        <ele>3.6</ele>
        <time>2020-08-21T13:31:10.000Z</time>
      </trkpt>
      <trkpt lat="47.74405" lon="-3.3551">
        <ele>3.6</ele>
        <time>2020-08-21T13:31:11.000Z</time>
      </trkpt>
      <trkpt lat="47.74405" lon="-3.3551">
        <ele>3.6</ele>
        <time>2020-08-21T13:31:12.000Z</time>
      </trkpt>
      <trkpt lat="47.74405" lon="-3.3551">
        <ele>3.6</ele>
        <time>2020-08-21T13:31:13.000Z</time>
      </trkpt>
      <trkpt lat="47.74405" lon="-3.3551">
        <ele>3.6</ele>
        <time>2020-08-21T13:31:14.000Z</time>
      </trkpt>
      <trkpt lat="47.74405" lon="-3.3551">
        <ele>3.6</ele>
        <time>2020-08-21T13:31:15.000Z</time>
      </trkpt>
      <trkpt lat="47.74405" lon="-3.3551">
        <ele>3.6</ele>
        <time>2020-08-21T13:31:16.000Z</time>
      </trkpt>
      <trkpt lat="47.74405" lon="-3.3551">
        <ele>3.6</ele>
        <time>2020-08-21T13:31:17.000Z</time>
      </trkpt>
      <trkpt lat="47.74405" lon="-3.3551">
        <ele>3.6</ele>
        <time>2020-08-21T13:31:18.000Z</time>
      </trkpt>
      <trkpt lat="47.74405" lon="-3.3551">
        <ele>3.6</ele>
        <time>2020-08-21T13:31:19.000Z</time>
      </trkpt>
      <trkpt lat="47.74405" lon="-3.3551">
        <ele>3.6</ele>
        <time>2020-08-21T13:31:20.000Z</time>
      </trkpt>
      <trkpt lat="47.74405" lon="-3.3551">
        <ele>3.6</ele>
        <time>2020-08-21T13:31:21.000Z</time>
      </trkpt>
      <trkpt lat="47.74405" lon="-3.3551">
        <ele>3.6</ele>
        <time>2020-08-21T13:31:22.000Z</time>
      </trkpt>
      <trkpt lat="47.74405" lon="-3.3551">
        <ele>3.6</ele>
        <time>2020-08-21T13:31:23.000Z</time>
      </trkpt>
      <trkpt lat="47.74405" lon="-3.3551">
        <ele>3.6</ele>
        <time>2020-08-21T13:31:24.000Z</time>
      </trkpt>
      <trkpt lat="47.74405" lon="-3.3551">
        <ele>3.6</ele>
        <time>2020-08-21T13:31:25.000Z</time>
      </trkpt>
      <trkpt lat="47.74405" lon="-3.3551">
        <ele>3.6</ele>
        <time>2020-08-21T13:31:26.000Z</time>
      </trkpt>
      <trkpt lat="47.74405" lon="-3.3551">
        <ele>3.6</ele>
        <time>2020-08-21T13:31:27.000Z</time>
      </trkpt>
      <trkpt lat="47.74405" lon="-3.3551">
        <ele>3.6</ele>
        <time>2020-08-21T13:31:28.000Z</time>
      </trkpt>
      <trkpt lat="47.74405" lon="-3.3551">
        <ele>3.6</ele>
        <time>2020-08-21T13:31:29.000Z</time>
      </trkpt>
      <trkpt lat="47.74405" lon="-3.3551">
        <ele>3.6</ele>
        <time>2020-08-21T13:31:30.000Z</time>
      </trkpt>
      <trkpt lat="47.74405" lon="-3.3551">
        <ele>3.6</ele>
        <time>2020-08-21T13:31:31.000Z</time>
      </trkpt>
      <trkpt lat="47.74405" lon="-3.3551">
        <ele>3.6</ele>
        <time>2020-08-21T13:31:32.000Z</time>
      </trkpt>
      <trkpt lat="47.74405" lon="-3.3551">
        <ele>3.6</ele>
        <time>2020-08-21T13:31:33.000Z</time>
      </trkpt>
      <trkpt lat="47.74405" lon="-3.3551">
        <ele>3.6</ele>
        <time>2020-08-21T13:31:34.000Z</time>
      </trkpt>
      <trkpt lat="47.74405" lon="-3.3551">
        <ele>3.6</ele>
        <time>2020-08-21T13:31:35.000Z</time>
      </trkpt>
      <trkpt lat="47.74405" lon="-3.3551">
        <ele>3.6</ele>
        <time>2020-08-21T13:31:36.000Z</time>
      </trkpt>
      <trkpt lat="47.74405" lon="-3.3551">
        <ele>3.6</ele>
        <time>2020-08-21T13:31:37.000Z</time>
      </trkpt>
      <trkpt lat="47.74405" lon="-3.3551">
        <ele>3.6</ele>
        <time>2020-08-21T13:31:38.000Z</time>
      </trkpt>
      <trkpt lat="47.74405" lon="-3.3551">
        <ele>3.6</ele>
        <time>2020-08-21T13:31:39.000Z</time>
      </trkpt>
      <trkpt lat="47.74405" lon="-3.3551">
        <ele>3.6</ele>
        <time>2020-08-21T13:31:40.000Z</time>
      </trkpt>
      <trkpt lat="47.74405" lon="-3.3551">
        <ele>3.6</ele>
        <time>2020-08-21T13:31:41.000Z</time>
      </trkpt>
      <trkpt lat="47.74405" lon="-3.3551">
        <ele>3.6</ele>
        <time>2020-08-21T13:31:42.000Z</time>
      </trkpt>
      <trkpt lat="47.74405" lon="-3.3551">
        <ele>3.6</ele>
        <time>2020-08-21T13:31:43.000Z</time>
      </trkpt>
      <trkpt lat="47.74405" lon="-3.3551">
        <ele>3.6</ele>
        <time>2020-08-21T13:31:44.000Z</time>
      </trkpt>
      <trkpt lat="47.74405" lon="-3.3551">
        <ele>3.6</ele>
        <time>2020-08-21T13:31:45.000Z</time>
      </trkpt>
      <trkpt lat="47.74405" lon="-3.3551">
        <ele>3.6</ele>
        <time>2020-08-21T13:31:46.000Z</time>
      </trkpt>
      <trkpt lat="47.74405" lon="-3.3551">
        <ele>3.6</ele>
        <time>2020-08-21T13:31:47.000Z</time>
      </trkpt>
      <trkpt lat="47.74405" lon="-3.3551">
        <ele>3.6</ele>
        <time>2020-08-21T13:31:48.000Z</time>
      </trkpt>
      <trkpt lat="47.74405" lon="-3.3551">
        <ele>3.6</ele>
        <time>2020-08-21T13:31:49.000Z</time>
      </trkpt>
      <trkpt lat="47.74405" lon="-3.3551">
        <ele>3.6</ele>
        <time>2020-08-21T13:31:50.000Z</time>
      </trkpt>
      <trkpt lat="47.74405" lon="-3.3551">
        <ele>3.6</ele>
        <time>2020-08-21T13:31:51.000Z</time>
      </trkpt>
      <trkpt lat="47.74405" lon="-3.3551">
        <ele>3.6</ele>
        <time>2020-08-21T13:31:52.000Z</time>
      </trkpt>
      <trkpt lat="47.74405" lon="-3.3551">
        <ele>3.6</ele>
        <time>2020-08-21T13:31:53.000Z</time>
      </trkpt>
      <trkpt lat="47.74405" lon="-3.3551">
        <ele>3.6</ele>
        <time>2020-08-21T13:31:54.000Z</time>
      </trkpt>
      <trkpt lat="47.74405" lon="-3.3551">
        <ele>3.6</ele>
        <time>2020-08-21T13:31:55.000Z</time>
      </trkpt>
      <trkpt lat="47.74405" lon="-3.3551">
        <ele>3.6</ele>
        <time>2020-08-21T13:31:56.000Z</time>
      </trkpt>
      <trkpt lat="47.74405" lon="-3.3551">
        <ele>3.6</ele>
        <time>2020-08-21T13:31:57.000Z</time>
      </trkpt>
      <trkpt lat="47.74405" lon="-3.3551">
        <ele>3.6</ele>
        <time>2020-08-21T13:31:58.000Z</time>
      </trkpt>
      <trkpt lat="47.74405" lon="-3.3551">
        <ele>3.6</ele>
        <time>2020-08-21T13:31:59.000Z</time>
      </trkpt>
      <trkpt lat="47.74405" lon="-3.3551">
        <ele>3.6</ele>
        <time>2020-08-21T13:32:00.000Z</time>
      </trkpt>
      <trkpt lat="47.74405" lon="-3.3551">
        <ele>3.6</ele>
        <time>2020-08-21T13:32:01.000Z</time>
      </trkpt>
      <trkpt lat="47.74405" lon="-3.3551">
        <ele>3.6</ele>
        <time>2020-08-21T13:32:02.000Z</time>
      </trkpt>
      <trkpt lat="47.74405" lon="-3.3551">
        <ele>3.6</ele>
        <time>2020-08-21T13:32:03.000Z</time>
      </trkpt>
      <trkpt lat="47.74405" lon="-3.3551">
        <ele>3.6</ele>
        <time>2020-08-21T13:32:04.000Z</time>
      </trkpt>
      <trkpt lat="47.74405" lon="-3.3551">
        <ele>3.6</ele>
        <time>2020-08-21T13:32:05.000Z</time>
      </trkpt>
      <trkpt lat="47.74405" lon="-3.3551">
        <ele>3.6</ele>
        <time>2020-08-21T13:32:06.000Z</time>
      </trkpt>
      <trkpt lat="47.74405" lon="-3.3551">
        <ele>3.6</ele>
        <time>2020-08-21T13:32:07.000Z</time>
      </trkpt>
      <trkpt lat="47.74405" lon="-3.3551">
        <ele>3.6</ele>
        <time>2020-08-21T13:32:08.000Z</time>
      </trkpt>
      <trkpt lat="47.74405" lon="-3.3551">
        <ele>3.6</ele>
        <time>2020-08-21T13:32:09.000Z</time>
      </trkpt>
      <trkpt lat="47.74405" lon="-3.3551">
        <ele>3.6</ele>
        <time>2020-08-21T13:32:10.000Z</time>
      </trkpt>
      <trkpt lat="47.74405" lon="-3.3551">
        <ele>3.6</ele>
        <time>2020-08-21T13:32:11.000Z</time>
      </trkpt>
      <trkpt lat="47.74405" lon="-3.3551">
        <ele>3.6</ele>
        <time>2020-08-21T13:32:12.000Z</time>
      </trkpt>
      <trkpt lat="47.74405" lon="-3.3551">
        <ele>3.6</ele>
        <time>2020-08-21T13:32:13.000Z</time>
      </trkpt>
      <trkpt lat="47.74405" lon="-3.3551">
        <ele>3.6</ele>
        <time>2020-08-21T13:32:14.000Z</time>
      </trkpt>
      <trkpt lat="47.74405" lon="-3.3551">
        <ele>3.6</ele>
        <time>2020-08-21T13:32:15.000Z</time>
      </trkpt>
      <trkpt lat="47.74405" lon="-3.3551">
        <ele>3.6</ele>
        <time>2020-08-21T13:32:16.000Z</time>
      </trkpt>
      <trkpt lat="47.74405" lon="-3.3551">
        <ele>3.6</ele>
        <time>2020-08-21T13:32:17.000Z</time>
      </trkpt>
      <trkpt lat="47.74405" lon="-3.3551">
        <ele>3.6</ele>
        <time>2020-08-21T13:32:18.000Z</time>
      </trkpt>
      <trkpt lat="47.74405" lon="-3.3551">
        <ele>3.6</ele>
        <time>2020-08-21T13:32:19.000Z</time>
      </trkpt>
      <trkpt lat="47.74405" lon="-3.3551">
        <ele>3.6</ele>
        <time>2020-08-21T13:32:20.000Z</time>
      </trkpt>
      <trkpt lat="47.74405" lon="-3.3551">
        <ele>3.6</ele>
        <time>2020-08-21T13:32:21.000Z</time>
      </trkpt>
      <trkpt lat="47.74405" lon="-3.3551">
        <ele>3.6</ele>
        <time>2020-08-21T13:32:22.000Z</time>
      </trkpt>
      <trkpt lat="47.74405" lon="-3.3551">
        <ele>3.6</ele>
        <time>2020-08-21T13:32:23.000Z</time>
      </trkpt>
      <trkpt lat="47.74405" lon="-3.3551">
        <ele>3.6</ele>
        <time>2020-08-21T13:32:24.000Z</time>
      </trkpt>
      <trkpt lat="47.74405" lon="-3.3551">
        <ele>3.6</ele>
        <time>2020-08-21T13:32:25.000Z</time>
      </trkpt>
      <trkpt lat="47.74405" lon="-3.3551">
        <ele>3.6</ele>
        <time>2020-08-21T13:32:26.000Z</time>
      </trkpt>
      <trkpt lat="47.74405" lon="-3.3551">
        <ele>3.6</ele>
        <time>2020-08-21T13:32:27.000Z</time>
      </trkpt>
      <trkpt lat="47.74405" lon="-3.3551">
        <ele>3.6</ele>
        <time>2020-08-21T13:32:28.000Z</time>
      </trkpt>
      <trkpt lat="47.74405" lon="-3.3551">
        <ele>3.6</ele>
        <time>2020-08-21T13:32:29.000Z</time>
      </trkpt>
      <trkpt lat="47.74405" lon="-3.3551">
        <ele>3.6</ele>
        <time>2020-08-21T13:32:30.000Z</time>
      </trkpt>
      <trkpt lat="47.74405" lon="-3.3551">
        <ele>3.6</ele>
        <time>2020-08-21T13:32:31.000Z</time>
      </trkpt>
      <trkpt lat="47.74405" lon="-3.3551">
        <ele>3.6</ele>
        <time>2020-08-21T13:32:32.000Z</time>
      </trkpt>
      <trkpt lat="47.74405" lon="-3.3551">
        <ele>3.6</ele>
        <time>2020-08-21T13:32:33.000Z</time>
      </trkpt>
      <trkpt lat="47.74405" lon="-3.3551">
        <ele>3.6</ele>
        <time>2020-08-21T13:32:34.000Z</time>
      </trkpt>
      <trkpt lat="47.74405" lon="-3.3551">
        <ele>3.6</ele>
        <time>2020-08-21T13:32:35.000Z</time>
      </trkpt>
      <trkpt lat="47.74405" lon="-3.3551">
        <ele>3.6</ele>
        <time>2020-08-21T13:32:36.000Z</time>
      </trkpt>
      <trkpt lat="47.74405" lon="-3.3551">
        <ele>3.6</ele>
        <time>2020-08-21T13:32:37.000Z</time>
      </trkpt>
      <trkpt lat="47.74405" lon="-3.3551">
        <ele>3.6</ele>
        <time>2020-08-21T13:32:38.000Z</time>
      </trkpt>
      <trkpt lat="47.74405" lon="-3.3551">
        <ele>3.6</ele>
        <time>2020-08-21T13:32:39.000Z</time>
      </trkpt>
      <trkpt lat="47.74405" lon="-3.3551">
        <ele>3.6</ele>
        <time>2020-08-21T13:32:40.000Z</time>
      </trkpt>
      <trkpt lat="47.74405" lon="-3.3551">
        <ele>3.6</ele>
        <time>2020-08-21T13:32:41.000Z</time>
      </trkpt>
      <trkpt lat="47.74405" lon="-3.3551">
        <ele>3.6</ele>
        <time>2020-08-21T13:32:42.000Z</time>
      </trkpt>
      <trkpt lat="47.74405" lon="-3.3551">
        <ele>3.6</ele>
        <time>2020-08-21T13:32:43.000Z</time>
      </trkpt>
      <trkpt lat="47.74405" lon="-3.3551">
        <ele>3.6</ele>
        <time>2020-08-21T13:32:44.000Z</time>
      </trkpt>
      <trkpt lat="47.74405" lon="-3.3551">
        <ele>3.6</ele>
        <time>2020-08-21T13:32:45.000Z</time>
      </trkpt>
      <trkpt lat="47.74405" lon="-3.3551">
        <ele>3.6</ele>
        <time>2020-08-21T13:32:46.000Z</time>
      </trkpt>
      <trkpt lat="47.74405" lon="-3.3551">
        <ele>3.6</ele>
        <time>2020-08-21T13:32:47.000Z</time>
      </trkpt>
      <trkpt lat="47.74405" lon="-3.3551">
        <ele>3.6</ele>
        <time>2020-08-21T13:32:48.000Z</time>
      </trkpt>
      <trkpt lat="47.74405" lon="-3.3551">
        <ele>3.6</ele>
        <time>2020-08-21T13:32:49.000Z</time>
      </trkpt>
      <trkpt lat="47.74405" lon="-3.3551">
        <ele>3.6</ele>
        <time>2020-08-21T13:32:50.000Z</time>
      </trkpt>
      <trkpt lat="47.74405" lon="-3.3551">
        <ele>3.6</ele>
        <time>2020-08-21T13:32:51.000Z</time>
      </trkpt>
      <trkpt lat="47.74405" lon="-3.3551">
        <ele>3.6</ele>
        <time>2020-08-21T13:32:52.000Z</time>
      </trkpt>
      <trkpt lat="47.74405" lon="-3.3551">
        <ele>3.6</ele>
        <time>2020-08-21T13:32:53.000Z</time>
      </trkpt>
      <trkpt lat="47.74405" lon="-3.3551">
        <ele>3.6</ele>
        <time>2020-08-21T13:32:54.000Z</time>
      </trkpt>
      <trkpt lat="47.74405" lon="-3.3551">
        <ele>3.6</ele>
        <time>2020-08-21T13:32:55.000Z</time>
      </trkpt>
      <trkpt lat="47.74405" lon="-3.3551">
        <ele>3.6</ele>
        <time>2020-08-21T13:32:56.000Z</time>
      </trkpt>
      <trkpt lat="47.74405" lon="-3.3551">
        <ele>3.6</ele>
        <time>2020-08-21T13:32:57.000Z</time>
      </trkpt>
      <trkpt lat="47.74405" lon="-3.3551">
        <ele>3.6</ele>
        <time>2020-08-21T13:32:58.000Z</time>
      </trkpt>
      <trkpt lat="47.74405" lon="-3.3551">
        <ele>3.6</ele>
        <time>2020-08-21T13:32:59.000Z</time>
      </trkpt>
      <trkpt lat="47.74405" lon="-3.3551">
        <ele>3.6</ele>
        <time>2020-08-21T13:33:00.000Z</time>
      </trkpt>
      <trkpt lat="47.74405" lon="-3.3551">
        <ele>3.6</ele>
        <time>2020-08-21T13:33:01.000Z</time>
      </trkpt>
      <trkpt lat="47.74405" lon="-3.3551">
        <ele>3.6</ele>
        <time>2020-08-21T13:33:02.000Z</time>
      </trkpt>
      <trkpt lat="47.74405" lon="-3.3551">
        <ele>3.6</ele>
        <time>2020-08-21T13:33:03.000Z</time>
      </trkpt>
      <trkpt lat="47.74405" lon="-3.3551">
        <ele>3.6</ele>
        <time>2020-08-21T13:33:04.000Z</time>
      </trkpt>
      <trkpt lat="47.74405" lon="-3.3551">
        <ele>3.6</ele>
        <time>2020-08-21T13:33:05.000Z</time>
      </trkpt>
      <trkpt lat="47.74405" lon="-3.3551">
        <ele>3.6</ele>
        <time>2020-08-21T13:33:06.000Z</time>
      </trkpt>
      <trkpt lat="47.74405" lon="-3.3551">
        <ele>3.6</ele>
        <time>2020-08-21T13:33:07.000Z</time>
      </trkpt>
      <trkpt lat="47.74405" lon="-3.3551">
        <ele>3.6</ele>
        <time>2020-08-21T13:33:08.000Z</time>
      </trkpt>
      <trkpt lat="47.74405" lon="-3.3551">
        <ele>3.6</ele>
        <time>2020-08-21T13:33:09.000Z</time>
      </trkpt>
      <trkpt lat="47.74405" lon="-3.3551">
        <ele>3.6</ele>
        <time>2020-08-21T13:33:10.000Z</time>
      </trkpt>
      <trkpt lat="47.74405" lon="-3.3551">
        <ele>3.6</ele>
        <time>2020-08-21T13:33:11.000Z</time>
      </trkpt>
      <trkpt lat="47.74405" lon="-3.3551">
        <ele>3.6</ele>
        <time>2020-08-21T13:33:12.000Z</time>
      </trkpt>
      <trkpt lat="47.74405" lon="-3.3551">
        <ele>3.6</ele>
        <time>2020-08-21T13:33:13.000Z</time>
      </trkpt>
      <trkpt lat="47.74405" lon="-3.3551">
        <ele>3.6</ele>
        <time>2020-08-21T13:33:14.000Z</time>
      </trkpt>
      <trkpt lat="47.74405" lon="-3.3551">
        <ele>3.6</ele>
        <time>2020-08-21T13:33:15.000Z</time>
      </trkpt>
      <trkpt lat="47.74405" lon="-3.3551">
        <ele>3.6</ele>
        <time>2020-08-21T13:33:16.000Z</time>
      </trkpt>
      <trkpt lat="47.74405" lon="-3.3551">
        <ele>3.6</ele>
        <time>2020-08-21T13:33:17.000Z</time>
      </trkpt>
      <trkpt lat="47.74405" lon="-3.3551">
        <ele>3.6</ele>
        <time>2020-08-21T13:33:18.000Z</time>
      </trkpt>
      <trkpt lat="47.74405" lon="-3.3551">
        <ele>3.6</ele>
        <time>2020-08-21T13:33:19.000Z</time>
      </trkpt>
      <trkpt lat="47.74405" lon="-3.3551">
        <ele>3.6</ele>
        <time>2020-08-21T13:33:20.000Z</time>
      </trkpt>
      <trkpt lat="47.74405" lon="-3.3551">
        <ele>3.6</ele>
        <time>2020-08-21T13:33:21.000Z</time>
      </trkpt>
      <trkpt lat="47.74405" lon="-3.3551">
        <ele>3.6</ele>
        <time>2020-08-21T13:33:22.000Z</time>
      </trkpt>
      <trkpt lat="47.74405" lon="-3.3551">
        <ele>3.6</ele>
        <time>2020-08-21T13:33:23.000Z</time>
      </trkpt>
      <trkpt lat="47.74405" lon="-3.3551">
        <ele>3.6</ele>
        <time>2020-08-21T13:33:24.000Z</time>
      </trkpt>
      <trkpt lat="47.74405" lon="-3.3551">
        <ele>3.6</ele>
        <time>2020-08-21T13:33:25.000Z</time>
      </trkpt>
      <trkpt lat="47.74405" lon="-3.3551">
        <ele>3.6</ele>
        <time>2020-08-21T13:33:26.000Z</time>
      </trkpt>
      <trkpt lat="47.74405" lon="-3.3551">
        <ele>3.6</ele>
        <time>2020-08-21T13:33:27.000Z</time>
      </trkpt>
      <trkpt lat="47.74405" lon="-3.3551">
        <ele>3.6</ele>
        <time>2020-08-21T13:33:28.000Z</time>
      </trkpt>
      <trkpt lat="47.74405" lon="-3.3551">
        <ele>3.6</ele>
        <time>2020-08-21T13:33:29.000Z</time>
      </trkpt>
      <trkpt lat="47.74405" lon="-3.3551">
        <ele>3.6</ele>
        <time>2020-08-21T13:33:30.000Z</time>
      </trkpt>
      <trkpt lat="47.74405" lon="-3.35509">
        <ele>3.6</ele>
        <time>2020-08-21T13:33:31.000Z</time>
      </trkpt>
      <trkpt lat="47.74405" lon="-3.35509">
        <ele>3.6</ele>
        <time>2020-08-21T13:33:32.000Z</time>
      </trkpt>
      <trkpt lat="47.74405" lon="-3.35509">
        <ele>3.6</ele>
        <time>2020-08-21T13:33:33.000Z</time>
      </trkpt>
      <trkpt lat="47.74405" lon="-3.35508">
        <ele>3.6</ele>
        <time>2020-08-21T13:33:34.000Z</time>
      </trkpt>
      <trkpt lat="47.74405" lon="-3.35508">
        <ele>3.6</ele>
        <time>2020-08-21T13:33:35.000Z</time>
      </trkpt>
      <trkpt lat="47.74405" lon="-3.35507">
        <ele>3.6</ele>
        <time>2020-08-21T13:33:36.000Z</time>
      </trkpt>
      <trkpt lat="47.74405" lon="-3.35506">
        <ele>3.6</ele>
        <time>2020-08-21T13:33:37.000Z</time>
      </trkpt>
      <trkpt lat="47.74405" lon="-3.35505">
        <ele>3.6</ele>
        <time>2020-08-21T13:33:38.000Z</time>
      </trkpt>
      <trkpt lat="47.74405" lon="-3.35504">
        <ele>3.6</ele>
        <time>2020-08-21T13:33:39.000Z</time>
      </trkpt>
      <trkpt lat="47.74405" lon="-3.35502">
        <ele>3.6</ele>
        <time>2020-08-21T13:33:40.000Z</time>
      </trkpt>
      <trkpt lat="47.74405" lon="-3.355">
        <ele>3.6</ele>
        <time>2020-08-21T13:33:41.000Z</time>
      </trkpt>
      <trkpt lat="47.74405" lon="-3.35499">
        <ele>3.6</ele>
        <time>2020-08-21T13:33:42.000Z</time>
      </trkpt>
      <trkpt lat="47.74405" lon="-3.35497">
        <ele>3.6</ele>
        <time>2020-08-21T13:33:43.000Z</time>
      </trkpt>
      <trkpt lat="47.74405" lon="-3.35495">
        <ele>3.7</ele>
        <time>2020-08-21T13:33:44.000Z</time>
      </trkpt>
      <trkpt lat="47.74405" lon="-3.35494">
        <ele>3.7</ele>
        <time>2020-08-21T13:33:45.000Z</time>
      </trkpt>
      <trkpt lat="47.74406" lon="-3.35492">
        <ele>3.8</ele>
        <time>2020-08-21T13:33:46.000Z</time>
      </trkpt>
      <trkpt lat="47.74406" lon="-3.35491">
        <ele>3.8</ele>
        <time>2020-08-21T13:33:47.000Z</time>
      </trkpt>
      <trkpt lat="47.74406" lon="-3.3549">
        <ele>3.8</ele>
        <time>2020-08-21T13:33:48.000Z</time>
      </trkpt>
      <trkpt lat="47.74406" lon="-3.35489">
        <ele>3.9</ele>
        <time>2020-08-21T13:33:49.000Z</time>
      </trkpt>
      <trkpt lat="47.74407" lon="-3.35488">
        <ele>3.9</ele>
        <time>2020-08-21T13:33:50.000Z</time>
      </trkpt>
      <trkpt lat="47.74407" lon="-3.35487">
        <ele>3.9</ele>
        <time>2020-08-21T13:33:51.000Z</time>
      </trkpt>
      <trkpt lat="47.74407" lon="-3.35486">
        <ele>4</ele>
        <time>2020-08-21T13:33:52.000Z</time>
      </trkpt>
      <trkpt lat="47.74407" lon="-3.35484">
        <ele>4</ele>
        <time>2020-08-21T13:33:53.000Z</time>
      </trkpt>
      <trkpt lat="47.74407" lon="-3.35483">
        <ele>4</ele>
        <time>2020-08-21T13:33:54.000Z</time>
      </trkpt>
      <trkpt lat="47.74407" lon="-3.35482">
        <ele>4</ele>
        <time>2020-08-21T13:33:55.000Z</time>
      </trkpt>
      <trkpt lat="47.74407" lon="-3.3548">
        <ele>4.1</ele>
        <time>2020-08-21T13:33:56.000Z</time>
      </trkpt>
      <trkpt lat="47.74407" lon="-3.35479">
        <ele>4.1</ele>
        <time>2020-08-21T13:33:57.000Z</time>
      </trkpt>
      <trkpt lat="47.74407" lon="-3.35478">
        <ele>4.1</ele>
        <time>2020-08-21T13:33:58.000Z</time>
      </trkpt>
      <trkpt lat="47.74407" lon="-3.35476">
        <ele>4.1</ele>
        <time>2020-08-21T13:33:59.000Z</time>
      </trkpt>
      <trkpt lat="47.74407" lon="-3.35475">
        <ele>4.2</ele>
        <time>2020-08-21T13:34:00.000Z</time>
      </trkpt>
      <trkpt lat="47.74406" lon="-3.35473">
        <ele>4.2</ele>
        <time>2020-08-21T13:34:01.000Z</time>
      </trkpt>
      <trkpt lat="47.74406" lon="-3.35471">
        <ele>4.2</ele>
        <time>2020-08-21T13:34:02.000Z</time>
      </trkpt>
      <trkpt lat="47.74406" lon="-3.35469">
        <ele>4.3</ele>
        <time>2020-08-21T13:34:03.000Z</time>
      </trkpt>
      <trkpt lat="47.74406" lon="-3.35468">
        <ele>4.3</ele>
        <time>2020-08-21T13:34:04.000Z</time>
      </trkpt>
      <trkpt lat="47.74406" lon="-3.35466">
        <ele>4.3</ele>
        <time>2020-08-21T13:34:05.000Z</time>
      </trkpt>
      <trkpt lat="47.74406" lon="-3.35465">
        <ele>4.3</ele>
        <time>2020-08-21T13:34:06.000Z</time>
      </trkpt>
      <trkpt lat="47.74406" lon="-3.35464">
        <ele>4.4</ele>
        <time>2020-08-21T13:34:07.000Z</time>
      </trkpt>
      <trkpt lat="47.74406" lon="-3.35464">
        <ele>4.4</ele>
        <time>2020-08-21T13:34:08.000Z</time>
      </trkpt>
      <trkpt lat="47.74406" lon="-3.35464">
        <ele>4.4</ele>
        <time>2020-08-21T13:34:09.000Z</time>
      </trkpt>
      <trkpt lat="47.74406" lon="-3.35464">
        <ele>4.4</ele>
        <time>2020-08-21T13:34:10.000Z</time>
      </trkpt>
      <trkpt lat="47.74406" lon="-3.35464">
        <ele>4.4</ele>
        <time>2020-08-21T13:34:11.000Z</time>
      </trkpt>
      <trkpt lat="47.74406" lon="-3.35464">
        <ele>4.4</ele>
        <time>2020-08-21T13:34:12.000Z</time>
      </trkpt>
      <trkpt lat="47.74406" lon="-3.35464">
        <ele>4.4</ele>
        <time>2020-08-21T13:34:13.000Z</time>
      </trkpt>
      <trkpt lat="47.74406" lon="-3.35463">
        <ele>4.4</ele>
        <time>2020-08-21T13:34:14.000Z</time>
      </trkpt>
      <trkpt lat="47.74406" lon="-3.35462">
        <ele>4.4</ele>
        <time>2020-08-21T13:34:15.000Z</time>
      </trkpt>
      <trkpt lat="47.74406" lon="-3.35461">
        <ele>4.4</ele>
        <time>2020-08-21T13:34:16.000Z</time>
      </trkpt>
      <trkpt lat="47.74406" lon="-3.3546">
        <ele>4.5</ele>
        <time>2020-08-21T13:34:17.000Z</time>
      </trkpt>
      <trkpt lat="47.74406" lon="-3.35458">
        <ele>4.5</ele>
        <time>2020-08-21T13:34:18.000Z</time>
      </trkpt>
      <trkpt lat="47.74406" lon="-3.35457">
        <ele>4.5</ele>
        <time>2020-08-21T13:34:19.000Z</time>
      </trkpt>
      <trkpt lat="47.74406" lon="-3.35455">
        <ele>4.6</ele>
        <time>2020-08-21T13:34:20.000Z</time>
      </trkpt>
      <trkpt lat="47.74406" lon="-3.35454">
        <ele>4.6</ele>
        <time>2020-08-21T13:34:21.000Z</time>
      </trkpt>
      <trkpt lat="47.74406" lon="-3.35452">
        <ele>4.6</ele>
        <time>2020-08-21T13:34:22.000Z</time>
      </trkpt>
      <trkpt lat="47.74406" lon="-3.35451">
        <ele>4.6</ele>
        <time>2020-08-21T13:34:23.000Z</time>
      </trkpt>
      <trkpt lat="47.74406" lon="-3.3545">
        <ele>4.7</ele>
        <time>2020-08-21T13:34:24.000Z</time>
      </trkpt>
      <trkpt lat="47.74406" lon="-3.35448">
        <ele>4.7</ele>
        <time>2020-08-21T13:34:25.000Z</time>
      </trkpt>
      <trkpt lat="47.74406" lon="-3.35447">
        <ele>4.7</ele>
        <time>2020-08-21T13:34:26.000Z</time>
      </trkpt>
      <trkpt lat="47.74405" lon="-3.35446">
        <ele>4.7</ele>
        <time>2020-08-21T13:34:27.000Z</time>
      </trkpt>
      <trkpt lat="47.74405" lon="-3.35445">
        <ele>4.7</ele>
        <time>2020-08-21T13:34:28.000Z</time>
      </trkpt>
      <trkpt lat="47.74405" lon="-3.35444">
        <ele>4.7</ele>
        <time>2020-08-21T13:34:29.000Z</time>
      </trkpt>
      <trkpt lat="47.74405" lon="-3.35442">
        <ele>4.8</ele>
        <time>2020-08-21T13:34:30.000Z</time>
      </trkpt>
      <trkpt lat="47.74405" lon="-3.35441">
        <ele>4.8</ele>
        <time>2020-08-21T13:34:31.000Z</time>
      </trkpt>
      <trkpt lat="47.74404" lon="-3.3544">
        <ele>4.8</ele>
        <time>2020-08-21T13:34:32.000Z</time>
      </trkpt>
      <trkpt lat="47.74404" lon="-3.35439">
        <ele>4.8</ele>
        <time>2020-08-21T13:34:33.000Z</time>
      </trkpt>
      <trkpt lat="47.74404" lon="-3.35437">
        <ele>4.8</ele>
        <time>2020-08-21T13:34:34.000Z</time>
      </trkpt>
      <trkpt lat="47.74404" lon="-3.35436">
        <ele>4.8</ele>
        <time>2020-08-21T13:34:35.000Z</time>
      </trkpt>
      <trkpt lat="47.74404" lon="-3.35434">
        <ele>4.9</ele>
        <time>2020-08-21T13:34:36.000Z</time>
      </trkpt>
      <trkpt lat="47.74404" lon="-3.35433">
        <ele>4.9</ele>
        <time>2020-08-21T13:34:37.000Z</time>
      </trkpt>
      <trkpt lat="47.74404" lon="-3.35432">
        <ele>4.9</ele>
        <time>2020-08-21T13:34:38.000Z</time>
      </trkpt>
      <trkpt lat="47.74404" lon="-3.3543">
        <ele>4.9</ele>
        <time>2020-08-21T13:34:39.000Z</time>
      </trkpt>
      <trkpt lat="47.74404" lon="-3.35429">
        <ele>5</ele>
        <time>2020-08-21T13:34:40.000Z</time>
      </trkpt>
      <trkpt lat="47.74404" lon="-3.35427">
        <ele>5</ele>
        <time>2020-08-21T13:34:41.000Z</time>
      </trkpt>
      <trkpt lat="47.74404" lon="-3.35425">
        <ele>5</ele>
        <time>2020-08-21T13:34:42.000Z</time>
      </trkpt>
      <trkpt lat="47.74404" lon="-3.35424">
        <ele>5.1</ele>
        <time>2020-08-21T13:34:43.000Z</time>
      </trkpt>
      <trkpt lat="47.74404" lon="-3.35422">
        <ele>5.1</ele>
        <time>2020-08-21T13:34:44.000Z</time>
      </trkpt>
      <trkpt lat="47.74404" lon="-3.3542">
        <ele>5.2</ele>
        <time>2020-08-21T13:34:45.000Z</time>
      </trkpt>
      <trkpt lat="47.74404" lon="-3.35419">
        <ele>5.2</ele>
        <time>2020-08-21T13:34:46.000Z</time>
      </trkpt>
      <trkpt lat="47.74404" lon="-3.35417">
        <ele>5.2</ele>
        <time>2020-08-21T13:34:47.000Z</time>
      </trkpt>
      <trkpt lat="47.74404" lon="-3.35415">
        <ele>5.2</ele>
        <time>2020-08-21T13:34:48.000Z</time>
      </trkpt>
      <trkpt lat="47.74404" lon="-3.35413">
        <ele>5.2</ele>
        <time>2020-08-21T13:34:49.000Z</time>
      </trkpt>
      <trkpt lat="47.74405" lon="-3.35412">
        <ele>5.2</ele>
        <time>2020-08-21T13:34:50.000Z</time>
      </trkpt>
      <trkpt lat="47.74405" lon="-3.3541">
        <ele>5.2</ele>
        <time>2020-08-21T13:34:51.000Z</time>
      </trkpt>
      <trkpt lat="47.74405" lon="-3.35408">
        <ele>5.2</ele>
        <time>2020-08-21T13:34:52.000Z</time>
      </trkpt>
      <trkpt lat="47.74405" lon="-3.35407">
        <ele>5.2</ele>
        <time>2020-08-21T13:34:53.000Z</time>
      </trkpt>
      <trkpt lat="47.74405" lon="-3.35405">
        <ele>5.1</ele>
        <time>2020-08-21T13:34:54.000Z</time>
      </trkpt>
      <trkpt lat="47.74405" lon="-3.35403">
        <ele>5.1</ele>
        <time>2020-08-21T13:34:55.000Z</time>
      </trkpt>
      <trkpt lat="47.74405" lon="-3.35402">
        <ele>5.1</ele>
        <time>2020-08-21T13:34:56.000Z</time>
      </trkpt>
      <trkpt lat="47.74404" lon="-3.354">
        <ele>5.1</ele>
        <time>2020-08-21T13:34:57.000Z</time>
      </trkpt>
      <trkpt lat="47.74404" lon="-3.35399">
        <ele>5</ele>
        <time>2020-08-21T13:34:58.000Z</time>
      </trkpt>
      <trkpt lat="47.74404" lon="-3.35397">
        <ele>5</ele>
        <time>2020-08-21T13:34:59.000Z</time>
      </trkpt>
      <trkpt lat="47.74403" lon="-3.35396">
        <ele>4.9</ele>
        <time>2020-08-21T13:35:00.000Z</time>
      </trkpt>
      <trkpt lat="47.74403" lon="-3.35394">
        <ele>4.9</ele>
        <time>2020-08-21T13:35:01.000Z</time>
      </trkpt>
      <trkpt lat="47.74402" lon="-3.35393">
        <ele>4.9</ele>
        <time>2020-08-21T13:35:02.000Z</time>
      </trkpt>
      <trkpt lat="47.74402" lon="-3.35391">
        <ele>4.8</ele>
        <time>2020-08-21T13:35:03.000Z</time>
      </trkpt>
      <trkpt lat="47.74401" lon="-3.3539">
        <ele>4.7</ele>
        <time>2020-08-21T13:35:04.000Z</time>
      </trkpt>
      <trkpt lat="47.744" lon="-3.35389">
        <ele>4.7</ele>
        <time>2020-08-21T13:35:05.000Z</time>
      </trkpt>
      <trkpt lat="47.744" lon="-3.35387">
        <ele>4.6</ele>
        <time>2020-08-21T13:35:06.000Z</time>
      </trkpt>
      <trkpt lat="47.74399" lon="-3.35386">
        <ele>4.6</ele>
        <time>2020-08-21T13:35:07.000Z</time>
      </trkpt>
      <trkpt lat="47.74398" lon="-3.35385">
        <ele>4.5</ele>
        <time>2020-08-21T13:35:08.000Z</time>
      </trkpt>
      <trkpt lat="47.74398" lon="-3.35383">
        <ele>4.5</ele>
        <time>2020-08-21T13:35:09.000Z</time>
      </trkpt>
      <trkpt lat="47.74397" lon="-3.35382">
        <ele>4.4</ele>
        <time>2020-08-21T13:35:10.000Z</time>
      </trkpt>
      <trkpt lat="47.74396" lon="-3.35381">
        <ele>4.3</ele>
        <time>2020-08-21T13:35:11.000Z</time>
      </trkpt>
      <trkpt lat="47.74395" lon="-3.3538">
        <ele>4.3</ele>
        <time>2020-08-21T13:35:12.000Z</time>
      </trkpt>
      <trkpt lat="47.74395" lon="-3.35378">
        <ele>4.2</ele>
        <time>2020-08-21T13:35:13.000Z</time>
      </trkpt>
      <trkpt lat="47.74394" lon="-3.35377">
        <ele>4.2</ele>
        <time>2020-08-21T13:35:14.000Z</time>
      </trkpt>
      <trkpt lat="47.74393" lon="-3.35376">
        <ele>4.1</ele>
        <time>2020-08-21T13:35:15.000Z</time>
      </trkpt>
      <trkpt lat="47.74392" lon="-3.35375">
        <ele>4</ele>
        <time>2020-08-21T13:35:16.000Z</time>
      </trkpt>
      <trkpt lat="47.74392" lon="-3.35373">
        <ele>4</ele>
        <time>2020-08-21T13:35:17.000Z</time>
      </trkpt>
      <trkpt lat="47.74391" lon="-3.35372">
        <ele>3.9</ele>
        <time>2020-08-21T13:35:18.000Z</time>
      </trkpt>
      <trkpt lat="47.7439" lon="-3.35371">
        <ele>3.9</ele>
        <time>2020-08-21T13:35:19.000Z</time>
      </trkpt>
      <trkpt lat="47.7439" lon="-3.35369">
        <ele>3.8</ele>
        <time>2020-08-21T13:35:20.000Z</time>
      </trkpt>
      <trkpt lat="47.74389" lon="-3.35368">
        <ele>3.7</ele>
        <time>2020-08-21T13:35:21.000Z</time>
      </trkpt>
      <trkpt lat="47.74388" lon="-3.35367">
        <ele>3.7</ele>
        <time>2020-08-21T13:35:22.000Z</time>
      </trkpt>
      <trkpt lat="47.74387" lon="-3.35366">
        <ele>3.6</ele>
        <time>2020-08-21T13:35:23.000Z</time>
      </trkpt>
      <trkpt lat="47.74387" lon="-3.35365">
        <ele>3.6</ele>
        <time>2020-08-21T13:35:24.000Z</time>
      </trkpt>
      <trkpt lat="47.74386" lon="-3.35363">
        <ele>3.5</ele>
        <time>2020-08-21T13:35:25.000Z</time>
      </trkpt>
      <trkpt lat="47.74385" lon="-3.35362">
        <ele>3.5</ele>
        <time>2020-08-21T13:35:26.000Z</time>
      </trkpt>
      <trkpt lat="47.74385" lon="-3.35361">
        <ele>3.4</ele>
        <time>2020-08-21T13:35:27.000Z</time>
      </trkpt>
      <trkpt lat="47.74384" lon="-3.3536">
        <ele>3.4</ele>
        <time>2020-08-21T13:35:28.000Z</time>
      </trkpt>
      <trkpt lat="47.74383" lon="-3.35359">
        <ele>3.3</ele>
        <time>2020-08-21T13:35:29.000Z</time>
      </trkpt>
      <trkpt lat="47.74383" lon="-3.35358">
        <ele>3.2</ele>
        <time>2020-08-21T13:35:30.000Z</time>
      </trkpt>
      <trkpt lat="47.74382" lon="-3.35356">
        <ele>3.2</ele>
        <time>2020-08-21T13:35:31.000Z</time>
      </trkpt>
      <trkpt lat="47.74381" lon="-3.35355">
        <ele>3.1</ele>
        <time>2020-08-21T13:35:32.000Z</time>
      </trkpt>
      <trkpt lat="47.74381" lon="-3.35354">
        <ele>3.1</ele>
        <time>2020-08-21T13:35:33.000Z</time>
      </trkpt>
      <trkpt lat="47.7438" lon="-3.35353">
        <ele>3</ele>
        <time>2020-08-21T13:35:34.000Z</time>
      </trkpt>
      <trkpt lat="47.74379" lon="-3.35352">
        <ele>3</ele>
        <time>2020-08-21T13:35:35.000Z</time>
      </trkpt>
      <trkpt lat="47.74379" lon="-3.3535">
        <ele>2.9</ele>
        <time>2020-08-21T13:35:36.000Z</time>
      </trkpt>
      <trkpt lat="47.74378" lon="-3.35349">
        <ele>2.9</ele>
        <time>2020-08-21T13:35:37.000Z</time>
      </trkpt>
      <trkpt lat="47.74378" lon="-3.35348">
        <ele>2.8</ele>
        <time>2020-08-21T13:35:38.000Z</time>
      </trkpt>
      <trkpt lat="47.74377" lon="-3.35347">
        <ele>2.8</ele>
        <time>2020-08-21T13:35:39.000Z</time>
      </trkpt>
      <trkpt lat="47.74377" lon="-3.35345">
        <ele>2.7</ele>
        <time>2020-08-21T13:35:40.000Z</time>
      </trkpt>
      <trkpt lat="47.74376" lon="-3.35344">
        <ele>2.7</ele>
        <time>2020-08-21T13:35:41.000Z</time>
      </trkpt>
      <trkpt lat="47.74376" lon="-3.35343">
        <ele>2.7</ele>
        <time>2020-08-21T13:35:42.000Z</time>
      </trkpt>
      <trkpt lat="47.74375" lon="-3.35341">
        <ele>2.6</ele>
        <time>2020-08-21T13:35:43.000Z</time>
      </trkpt>
      <trkpt lat="47.74375" lon="-3.3534">
        <ele>2.6</ele>
        <time>2020-08-21T13:35:44.000Z</time>
      </trkpt>
      <trkpt lat="47.74375" lon="-3.35338">
        <ele>2.5</ele>
        <time>2020-08-21T13:35:45.000Z</time>
      </trkpt>
      <trkpt lat="47.74374" lon="-3.35337">
        <ele>2.5</ele>
        <time>2020-08-21T13:35:46.000Z</time>
      </trkpt>
      <trkpt lat="47.74374" lon="-3.35335">
        <ele>2.4</ele>
        <time>2020-08-21T13:35:47.000Z</time>
      </trkpt>
      <trkpt lat="47.74373" lon="-3.35334">
        <ele>2.4</ele>
        <time>2020-08-21T13:35:48.000Z</time>
      </trkpt>
      <trkpt lat="47.74373" lon="-3.35332">
        <ele>2.4</ele>
        <time>2020-08-21T13:35:49.000Z</time>
      </trkpt>
      <trkpt lat="47.74373" lon="-3.35331">
        <ele>2.4</ele>
        <time>2020-08-21T13:35:50.000Z</time>
      </trkpt>
      <trkpt lat="47.74372" lon="-3.35329">
        <ele>2.4</ele>
        <time>2020-08-21T13:35:51.000Z</time>
      </trkpt>
      <trkpt lat="47.74372" lon="-3.35327">
        <ele>2.4</ele>
        <time>2020-08-21T13:35:52.000Z</time>
      </trkpt>
      <trkpt lat="47.74372" lon="-3.35326">
        <ele>2.4</ele>
        <time>2020-08-21T13:35:53.000Z</time>
      </trkpt>
      <trkpt lat="47.74372" lon="-3.35324">
        <ele>2.3</ele>
        <time>2020-08-21T13:35:54.000Z</time>
      </trkpt>
      <trkpt lat="47.74371" lon="-3.35323">
        <ele>2.3</ele>
        <time>2020-08-21T13:35:55.000Z</time>
      </trkpt>
      <trkpt lat="47.74371" lon="-3.35322">
        <ele>2.3</ele>
        <time>2020-08-21T13:35:56.000Z</time>
      </trkpt>
      <trkpt lat="47.74371" lon="-3.3532">
        <ele>2.3</ele>
        <time>2020-08-21T13:35:57.000Z</time>
      </trkpt>
      <trkpt lat="47.7437" lon="-3.35319">
        <ele>2.3</ele>
        <time>2020-08-21T13:35:58.000Z</time>
      </trkpt>
      <trkpt lat="47.7437" lon="-3.35317">
        <ele>2.3</ele>
        <time>2020-08-21T13:35:59.000Z</time>
      </trkpt>
      <trkpt lat="47.74369" lon="-3.35316">
        <ele>2.3</ele>
        <time>2020-08-21T13:36:00.000Z</time>
      </trkpt>
      <trkpt lat="47.74369" lon="-3.35315">
        <ele>2.3</ele>
        <time>2020-08-21T13:36:01.000Z</time>
      </trkpt>
      <trkpt lat="47.74369" lon="-3.35313">
        <ele>2.3</ele>
        <time>2020-08-21T13:36:02.000Z</time>
      </trkpt>
      <trkpt lat="47.74368" lon="-3.35312">
        <ele>2.3</ele>
        <time>2020-08-21T13:36:03.000Z</time>
      </trkpt>
      <trkpt lat="47.74368" lon="-3.3531">
        <ele>2.2</ele>
        <time>2020-08-21T13:36:04.000Z</time>
      </trkpt>
      <trkpt lat="47.74368" lon="-3.35309">
        <ele>2.2</ele>
        <time>2020-08-21T13:36:05.000Z</time>
      </trkpt>
      <trkpt lat="47.74368" lon="-3.35308">
        <ele>2.2</ele>
        <time>2020-08-21T13:36:06.000Z</time>
      </trkpt>
      <trkpt lat="47.74367" lon="-3.35306">
        <ele>2.2</ele>
        <time>2020-08-21T13:36:07.000Z</time>
      </trkpt>
      <trkpt lat="47.74367" lon="-3.35305">
        <ele>2.2</ele>
        <time>2020-08-21T13:36:08.000Z</time>
      </trkpt>
      <trkpt lat="47.74367" lon="-3.35304">
        <ele>2.2</ele>
        <time>2020-08-21T13:36:09.000Z</time>
      </trkpt>
      <trkpt lat="47.74367" lon="-3.35302">
        <ele>2.2</ele>
        <time>2020-08-21T13:36:10.000Z</time>
      </trkpt>
      <trkpt lat="47.74366" lon="-3.35301">
        <ele>2.2</ele>
        <time>2020-08-21T13:36:11.000Z</time>
      </trkpt>
      <trkpt lat="47.74366" lon="-3.35299">
        <ele>2.2</ele>
        <time>2020-08-21T13:36:12.000Z</time>
      </trkpt>
      <trkpt lat="47.74366" lon="-3.35298">
        <ele>2.2</ele>
        <time>2020-08-21T13:36:13.000Z</time>
      </trkpt>
      <trkpt lat="47.74366" lon="-3.35296">
        <ele>2.2</ele>
        <time>2020-08-21T13:36:14.000Z</time>
      </trkpt>
      <trkpt lat="47.74366" lon="-3.35295">
        <ele>2.2</ele>
        <time>2020-08-21T13:36:15.000Z</time>
      </trkpt>
      <trkpt lat="47.74366" lon="-3.35293">
        <ele>2.2</ele>
        <time>2020-08-21T13:36:16.000Z</time>
      </trkpt>
      <trkpt lat="47.74365" lon="-3.35292">
        <ele>2.2</ele>
        <time>2020-08-21T13:36:17.000Z</time>
      </trkpt>
      <trkpt lat="47.74365" lon="-3.3529">
        <ele>2.2</ele>
        <time>2020-08-21T13:36:18.000Z</time>
      </trkpt>
      <trkpt lat="47.74365" lon="-3.35289">
        <ele>2.2</ele>
        <time>2020-08-21T13:36:19.000Z</time>
      </trkpt>
      <trkpt lat="47.74365" lon="-3.35287">
        <ele>2.3</ele>
        <time>2020-08-21T13:36:20.000Z</time>
      </trkpt>
      <trkpt lat="47.74365" lon="-3.35286">
        <ele>2.3</ele>
        <time>2020-08-21T13:36:21.000Z</time>
      </trkpt>
      <trkpt lat="47.74365" lon="-3.35284">
        <ele>2.3</ele>
        <time>2020-08-21T13:36:22.000Z</time>
      </trkpt>
      <trkpt lat="47.74365" lon="-3.35282">
        <ele>2.3</ele>
        <time>2020-08-21T13:36:23.000Z</time>
      </trkpt>
      <trkpt lat="47.74365" lon="-3.35281">
        <ele>2.3</ele>
        <time>2020-08-21T13:36:24.000Z</time>
      </trkpt>
      <trkpt lat="47.74365" lon="-3.35279">
        <ele>2.3</ele>
        <time>2020-08-21T13:36:25.000Z</time>
      </trkpt>
      <trkpt lat="47.74365" lon="-3.35277">
        <ele>2.3</ele>
        <time>2020-08-21T13:36:26.000Z</time>
      </trkpt>
      <trkpt lat="47.74365" lon="-3.35276">
        <ele>2.3</ele>
        <time>2020-08-21T13:36:27.000Z</time>
      </trkpt>
      <trkpt lat="47.74365" lon="-3.35274">
        <ele>2.3</ele>
        <time>2020-08-21T13:36:28.000Z</time>
      </trkpt>
      <trkpt lat="47.74364" lon="-3.35273">
        <ele>2.3</ele>
        <time>2020-08-21T13:36:29.000Z</time>
      </trkpt>
      <trkpt lat="47.74364" lon="-3.35271">
        <ele>2.3</ele>
        <time>2020-08-21T13:36:30.000Z</time>
      </trkpt>
      <trkpt lat="47.74364" lon="-3.35269">
        <ele>2.3</ele>
        <time>2020-08-21T13:36:31.000Z</time>
      </trkpt>
      <trkpt lat="47.74364" lon="-3.35268">
        <ele>2.3</ele>
        <time>2020-08-21T13:36:32.000Z</time>
      </trkpt>
      <trkpt lat="47.74364" lon="-3.35266">
        <ele>2.4</ele>
        <time>2020-08-21T13:36:33.000Z</time>
      </trkpt>
      <trkpt lat="47.74364" lon="-3.35264">
        <ele>2.4</ele>
        <time>2020-08-21T13:36:34.000Z</time>
      </trkpt>
      <trkpt lat="47.74364" lon="-3.35262">
        <ele>2.4</ele>
        <time>2020-08-21T13:36:35.000Z</time>
      </trkpt>
      <trkpt lat="47.74364" lon="-3.35261">
        <ele>2.4</ele>
        <time>2020-08-21T13:36:36.000Z</time>
      </trkpt>
      <trkpt lat="47.74363" lon="-3.35259">
        <ele>2.4</ele>
        <time>2020-08-21T13:36:37.000Z</time>
      </trkpt>
      <trkpt lat="47.74363" lon="-3.35257">
        <ele>2.4</ele>
        <time>2020-08-21T13:36:38.000Z</time>
      </trkpt>
      <trkpt lat="47.74363" lon="-3.35256">
        <ele>2.4</ele>
        <time>2020-08-21T13:36:39.000Z</time>
      </trkpt>
      <trkpt lat="47.74363" lon="-3.35254">
        <ele>2.4</ele>
        <time>2020-08-21T13:36:40.000Z</time>
      </trkpt>
      <trkpt lat="47.74362" lon="-3.35252">
        <ele>2.4</ele>
        <time>2020-08-21T13:36:41.000Z</time>
      </trkpt>
      <trkpt lat="47.74362" lon="-3.3525">
        <ele>2.4</ele>
        <time>2020-08-21T13:36:42.000Z</time>
      </trkpt>
      <trkpt lat="47.74362" lon="-3.35249">
        <ele>2.4</ele>
        <time>2020-08-21T13:36:43.000Z</time>
      </trkpt>
      <trkpt lat="47.74362" lon="-3.35247">
        <ele>2.4</ele>
        <time>2020-08-21T13:36:44.000Z</time>
      </trkpt>
      <trkpt lat="47.74361" lon="-3.35245">
        <ele>2.4</ele>
        <time>2020-08-21T13:36:45.000Z</time>
      </trkpt>
      <trkpt lat="47.74361" lon="-3.35243">
        <ele>2.4</ele>
        <time>2020-08-21T13:36:46.000Z</time>
      </trkpt>
      <trkpt lat="47.74361" lon="-3.35242">
        <ele>2.4</ele>
        <time>2020-08-21T13:36:47.000Z</time>
      </trkpt>
      <trkpt lat="47.74361" lon="-3.3524">
        <ele>2.4</ele>
        <time>2020-08-21T13:36:48.000Z</time>
      </trkpt>
      <trkpt lat="47.7436" lon="-3.35238">
        <ele>2.3</ele>
        <time>2020-08-21T13:36:49.000Z</time>
      </trkpt>
      <trkpt lat="47.7436" lon="-3.35237">
        <ele>2.3</ele>
        <time>2020-08-21T13:36:50.000Z</time>
      </trkpt>
      <trkpt lat="47.7436" lon="-3.35235">
        <ele>2.3</ele>
        <time>2020-08-21T13:36:51.000Z</time>
      </trkpt>
      <trkpt lat="47.7436" lon="-3.35234">
        <ele>2.3</ele>
        <time>2020-08-21T13:36:52.000Z</time>
      </trkpt>
      <trkpt lat="47.7436" lon="-3.35232">
        <ele>2.3</ele>
        <time>2020-08-21T13:36:53.000Z</time>
      </trkpt>
      <trkpt lat="47.7436" lon="-3.3523">
        <ele>2.3</ele>
        <time>2020-08-21T13:36:54.000Z</time>
      </trkpt>
      <trkpt lat="47.7436" lon="-3.35229">
        <ele>2.3</ele>
        <time>2020-08-21T13:36:55.000Z</time>
      </trkpt>
      <trkpt lat="47.74359" lon="-3.35227">
        <ele>2.3</ele>
        <time>2020-08-21T13:36:56.000Z</time>
      </trkpt>
      <trkpt lat="47.74359" lon="-3.35226">
        <ele>2.3</ele>
        <time>2020-08-21T13:36:57.000Z</time>
      </trkpt>
      <trkpt lat="47.74359" lon="-3.35224">
        <ele>2.3</ele>
        <time>2020-08-21T13:36:58.000Z</time>
      </trkpt>
      <trkpt lat="47.74359" lon="-3.35223">
        <ele>2.3</ele>
        <time>2020-08-21T13:36:59.000Z</time>
      </trkpt>
      <trkpt lat="47.74359" lon="-3.35221">
        <ele>2.3</ele>
        <time>2020-08-21T13:37:00.000Z</time>
      </trkpt>
      <trkpt lat="47.74359" lon="-3.3522">
        <ele>2.3</ele>
        <time>2020-08-21T13:37:01.000Z</time>
      </trkpt>
      <trkpt lat="47.74359" lon="-3.35218">
        <ele>2.3</ele>
        <time>2020-08-21T13:37:02.000Z</time>
      </trkpt>
      <trkpt lat="47.74359" lon="-3.35217">
        <ele>2.3</ele>
        <time>2020-08-21T13:37:03.000Z</time>
      </trkpt>
      <trkpt lat="47.74359" lon="-3.35215">
        <ele>2.3</ele>
        <time>2020-08-21T13:37:04.000Z</time>
      </trkpt>
      <trkpt lat="47.74358" lon="-3.35214">
        <ele>2.3</ele>
        <time>2020-08-21T13:37:05.000Z</time>
      </trkpt>
      <trkpt lat="47.74358" lon="-3.35212">
        <ele>2.3</ele>
        <time>2020-08-21T13:37:06.000Z</time>
      </trkpt>
      <trkpt lat="47.74358" lon="-3.35211">
        <ele>2.3</ele>
        <time>2020-08-21T13:37:07.000Z</time>
      </trkpt>
      <trkpt lat="47.74358" lon="-3.35209">
        <ele>2.3</ele>
        <time>2020-08-21T13:37:08.000Z</time>
      </trkpt>
      <trkpt lat="47.74357" lon="-3.35207">
        <ele>2.3</ele>
        <time>2020-08-21T13:37:09.000Z</time>
      </trkpt>
      <trkpt lat="47.74357" lon="-3.35206">
        <ele>2.3</ele>
        <time>2020-08-21T13:37:10.000Z</time>
      </trkpt>
      <trkpt lat="47.74357" lon="-3.35204">
        <ele>2.3</ele>
        <time>2020-08-21T13:37:11.000Z</time>
      </trkpt>
      <trkpt lat="47.74356" lon="-3.35203">
        <ele>2.3</ele>
        <time>2020-08-21T13:37:12.000Z</time>
      </trkpt>
      <trkpt lat="47.74356" lon="-3.35201">
        <ele>2.3</ele>
        <time>2020-08-21T13:37:13.000Z</time>
      </trkpt>
      <trkpt lat="47.74356" lon="-3.35199">
        <ele>2.2</ele>
        <time>2020-08-21T13:37:14.000Z</time>
      </trkpt>
      <trkpt lat="47.74356" lon="-3.35198">
        <ele>2.2</ele>
        <time>2020-08-21T13:37:15.000Z</time>
      </trkpt>
      <trkpt lat="47.74356" lon="-3.35196">
        <ele>2.2</ele>
        <time>2020-08-21T13:37:16.000Z</time>
      </trkpt>
      <trkpt lat="47.74356" lon="-3.35195">
        <ele>2.2</ele>
        <time>2020-08-21T13:37:17.000Z</time>
      </trkpt>
      <trkpt lat="47.74356" lon="-3.35193">
        <ele>2.2</ele>
        <time>2020-08-21T13:37:18.000Z</time>
      </trkpt>
      <trkpt lat="47.74355" lon="-3.35191">
        <ele>2.2</ele>
        <time>2020-08-21T13:37:19.000Z</time>
      </trkpt>
      <trkpt lat="47.74356" lon="-3.3519">
        <ele>2.3</ele>
        <time>2020-08-21T13:37:20.000Z</time>
      </trkpt>
      <trkpt lat="47.74356" lon="-3.35188">
        <ele>2.3</ele>
        <time>2020-08-21T13:37:21.000Z</time>
      </trkpt>
      <trkpt lat="47.74356" lon="-3.35186">
        <ele>2.3</ele>
        <time>2020-08-21T13:37:22.000Z</time>
      </trkpt>
      <trkpt lat="47.74356" lon="-3.35185">
        <ele>2.3</ele>
        <time>2020-08-21T13:37:23.000Z</time>
      </trkpt>
      <trkpt lat="47.74356" lon="-3.35183">
        <ele>2.3</ele>
        <time>2020-08-21T13:37:24.000Z</time>
      </trkpt>
      <trkpt lat="47.74356" lon="-3.35181">
        <ele>2.3</ele>
        <time>2020-08-21T13:37:25.000Z</time>
      </trkpt>
      <trkpt lat="47.74356" lon="-3.35179">
        <ele>2.3</ele>
        <time>2020-08-21T13:37:26.000Z</time>
      </trkpt>
      <trkpt lat="47.74357" lon="-3.35178">
        <ele>2.4</ele>
        <time>2020-08-21T13:37:27.000Z</time>
      </trkpt>
      <trkpt lat="47.74357" lon="-3.35176">
        <ele>2.4</ele>
        <time>2020-08-21T13:37:28.000Z</time>
      </trkpt>
      <trkpt lat="47.74357" lon="-3.35174">
        <ele>2.4</ele>
        <time>2020-08-21T13:37:29.000Z</time>
      </trkpt>
      <trkpt lat="47.74357" lon="-3.35172">
        <ele>2.4</ele>
        <time>2020-08-21T13:37:30.000Z</time>
      </trkpt>
      <trkpt lat="47.74358" lon="-3.35171">
        <ele>2.4</ele>
        <time>2020-08-21T13:37:31.000Z</time>
      </trkpt>
      <trkpt lat="47.74358" lon="-3.35169">
        <ele>2.5</ele>
        <time>2020-08-21T13:37:32.000Z</time>
      </trkpt>
      <trkpt lat="47.74358" lon="-3.35167">
        <ele>2.5</ele>
        <time>2020-08-21T13:37:33.000Z</time>
      </trkpt>
      <trkpt lat="47.74358" lon="-3.35166">
        <ele>2.5</ele>
        <time>2020-08-21T13:37:34.000Z</time>
      </trkpt>
      <trkpt lat="47.74359" lon="-3.35164">
        <ele>2.5</ele>
        <time>2020-08-21T13:37:35.000Z</time>
      </trkpt>
      <trkpt lat="47.74359" lon="-3.35163">
        <ele>2.6</ele>
        <time>2020-08-21T13:37:36.000Z</time>
      </trkpt>
      <trkpt lat="47.74359" lon="-3.35161">
        <ele>2.6</ele>
        <time>2020-08-21T13:37:37.000Z</time>
      </trkpt>
      <trkpt lat="47.7436" lon="-3.3516">
        <ele>2.7</ele>
        <time>2020-08-21T13:37:38.000Z</time>
      </trkpt>
      <trkpt lat="47.7436" lon="-3.35158">
        <ele>2.7</ele>
        <time>2020-08-21T13:37:39.000Z</time>
      </trkpt>
      <trkpt lat="47.7436" lon="-3.35157">
        <ele>2.7</ele>
        <time>2020-08-21T13:37:40.000Z</time>
      </trkpt>
      <trkpt lat="47.7436" lon="-3.35156">
        <ele>2.8</ele>
        <time>2020-08-21T13:37:41.000Z</time>
      </trkpt>
      <trkpt lat="47.74361" lon="-3.35154">
        <ele>2.8</ele>
        <time>2020-08-21T13:37:42.000Z</time>
      </trkpt>
      <trkpt lat="47.74361" lon="-3.35153">
        <ele>2.8</ele>
        <time>2020-08-21T13:37:43.000Z</time>
      </trkpt>
      <trkpt lat="47.74361" lon="-3.35152">
        <ele>2.9</ele>
        <time>2020-08-21T13:37:44.000Z</time>
      </trkpt>
      <trkpt lat="47.74362" lon="-3.3515">
        <ele>2.9</ele>
        <time>2020-08-21T13:37:45.000Z</time>
      </trkpt>
      <trkpt lat="47.74362" lon="-3.35149">
        <ele>2.9</ele>
        <time>2020-08-21T13:37:46.000Z</time>
      </trkpt>
      <trkpt lat="47.74363" lon="-3.35148">
        <ele>3</ele>
        <time>2020-08-21T13:37:47.000Z</time>
      </trkpt>
      <trkpt lat="47.74363" lon="-3.35147">
        <ele>3</ele>
        <time>2020-08-21T13:37:48.000Z</time>
      </trkpt>
      <trkpt lat="47.74364" lon="-3.35145">
        <ele>3</ele>
        <time>2020-08-21T13:37:49.000Z</time>
      </trkpt>
      <trkpt lat="47.74364" lon="-3.35144">
        <ele>3.1</ele>
        <time>2020-08-21T13:37:50.000Z</time>
      </trkpt>
      <trkpt lat="47.74365" lon="-3.35143">
        <ele>3.1</ele>
        <time>2020-08-21T13:37:51.000Z</time>
      </trkpt>
      <trkpt lat="47.74365" lon="-3.35142">
        <ele>3.2</ele>
        <time>2020-08-21T13:37:52.000Z</time>
      </trkpt>
      <trkpt lat="47.74366" lon="-3.3514">
        <ele>3.2</ele>
        <time>2020-08-21T13:37:53.000Z</time>
      </trkpt>
      <trkpt lat="47.74367" lon="-3.35139">
        <ele>3.3</ele>
        <time>2020-08-21T13:37:54.000Z</time>
      </trkpt>
      <trkpt lat="47.74367" lon="-3.35138">
        <ele>3.3</ele>
        <time>2020-08-21T13:37:55.000Z</time>
      </trkpt>
      <trkpt lat="47.74368" lon="-3.35137">
        <ele>3.3</ele>
        <time>2020-08-21T13:37:56.000Z</time>
      </trkpt>
      <trkpt lat="47.74369" lon="-3.35135">
        <ele>3.4</ele>
        <time>2020-08-21T13:37:57.000Z</time>
      </trkpt>
      <trkpt lat="47.74369" lon="-3.35134">
        <ele>3.4</ele>
        <time>2020-08-21T13:37:58.000Z</time>
      </trkpt>
      <trkpt lat="47.7437" lon="-3.35133">
        <ele>3.5</ele>
        <time>2020-08-21T13:37:59.000Z</time>
      </trkpt>
      <trkpt lat="47.74371" lon="-3.35131">
        <ele>3.5</ele>
        <time>2020-08-21T13:38:00.000Z</time>
      </trkpt>
      <trkpt lat="47.74371" lon="-3.3513">
        <ele>3.6</ele>
        <time>2020-08-21T13:38:01.000Z</time>
      </trkpt>
      <trkpt lat="47.74372" lon="-3.35129">
        <ele>3.6</ele>
        <time>2020-08-21T13:38:02.000Z</time>
      </trkpt>
      <trkpt lat="47.74373" lon="-3.35128">
        <ele>3.6</ele>
        <time>2020-08-21T13:38:03.000Z</time>
      </trkpt>
      <trkpt lat="47.74374" lon="-3.35126">
        <ele>3.7</ele>
        <time>2020-08-21T13:38:04.000Z</time>
      </trkpt>
      <trkpt lat="47.74374" lon="-3.35125">
        <ele>3.7</ele>
        <time>2020-08-21T13:38:05.000Z</time>
      </trkpt>
      <trkpt lat="47.74375" lon="-3.35124">
        <ele>3.8</ele>
        <time>2020-08-21T13:38:06.000Z</time>
      </trkpt>
      <trkpt lat="47.74376" lon="-3.35122">
        <ele>3.8</ele>
        <time>2020-08-21T13:38:07.000Z</time>
      </trkpt>
      <trkpt lat="47.74376" lon="-3.35121">
        <ele>3.8</ele>
        <time>2020-08-21T13:38:08.000Z</time>
      </trkpt>
      <trkpt lat="47.74377" lon="-3.3512">
        <ele>3.8</ele>
        <time>2020-08-21T13:38:09.000Z</time>
      </trkpt>
      <trkpt lat="47.74377" lon="-3.35118">
        <ele>3.9</ele>
        <time>2020-08-21T13:38:10.000Z</time>
      </trkpt>
      <trkpt lat="47.74378" lon="-3.35117">
        <ele>3.9</ele>
        <time>2020-08-21T13:38:11.000Z</time>
      </trkpt>
      <trkpt lat="47.74378" lon="-3.35116">
        <ele>3.9</ele>
        <time>2020-08-21T13:38:12.000Z</time>
      </trkpt>
      <trkpt lat="47.74378" lon="-3.35114">
        <ele>3.9</ele>
        <time>2020-08-21T13:38:13.000Z</time>
      </trkpt>
      <trkpt lat="47.74379" lon="-3.35113">
        <ele>4</ele>
        <time>2020-08-21T13:38:14.000Z</time>
      </trkpt>
      <trkpt lat="47.74379" lon="-3.35112">
        <ele>4</ele>
        <time>2020-08-21T13:38:15.000Z</time>
      </trkpt>
      <trkpt lat="47.74379" lon="-3.3511">
        <ele>4</ele>
        <time>2020-08-21T13:38:16.000Z</time>
      </trkpt>
      <trkpt lat="47.7438" lon="-3.35109">
        <ele>4</ele>
        <time>2020-08-21T13:38:17.000Z</time>
      </trkpt>
      <trkpt lat="47.7438" lon="-3.35108">
        <ele>4</ele>
        <time>2020-08-21T13:38:18.000Z</time>
      </trkpt>
      <trkpt lat="47.7438" lon="-3.35106">
        <ele>4</ele>
        <time>2020-08-21T13:38:19.000Z</time>
      </trkpt>
      <trkpt lat="47.7438" lon="-3.35105">
        <ele>4.1</ele>
        <time>2020-08-21T13:38:20.000Z</time>
      </trkpt>
      <trkpt lat="47.74381" lon="-3.35104">
        <ele>4.1</ele>
        <time>2020-08-21T13:38:21.000Z</time>
      </trkpt>
      <trkpt lat="47.74381" lon="-3.35102">
        <ele>4.1</ele>
        <time>2020-08-21T13:38:22.000Z</time>
      </trkpt>
      <trkpt lat="47.74382" lon="-3.35101">
        <ele>4.1</ele>
        <time>2020-08-21T13:38:23.000Z</time>
      </trkpt>
      <trkpt lat="47.74382" lon="-3.35099">
        <ele>4.1</ele>
        <time>2020-08-21T13:38:24.000Z</time>
      </trkpt>
      <trkpt lat="47.74383" lon="-3.35098">
        <ele>4.1</ele>
        <time>2020-08-21T13:38:25.000Z</time>
      </trkpt>
      <trkpt lat="47.74383" lon="-3.35097">
        <ele>4.2</ele>
        <time>2020-08-21T13:38:26.000Z</time>
      </trkpt>
      <trkpt lat="47.74384" lon="-3.35095">
        <ele>4.2</ele>
        <time>2020-08-21T13:38:27.000Z</time>
      </trkpt>
      <trkpt lat="47.74385" lon="-3.35094">
        <ele>4.2</ele>
        <time>2020-08-21T13:38:28.000Z</time>
      </trkpt>
      <trkpt lat="47.74385" lon="-3.35093">
        <ele>4.2</ele>
        <time>2020-08-21T13:38:29.000Z</time>
      </trkpt>
      <trkpt lat="47.74386" lon="-3.35092">
        <ele>4.3</ele>
        <time>2020-08-21T13:38:30.000Z</time>
      </trkpt>
      <trkpt lat="47.74387" lon="-3.35091">
        <ele>4.3</ele>
        <time>2020-08-21T13:38:31.000Z</time>
      </trkpt>
      <trkpt lat="47.74388" lon="-3.3509">
        <ele>4.3</ele>
        <time>2020-08-21T13:38:32.000Z</time>
      </trkpt>
      <trkpt lat="47.74389" lon="-3.35089">
        <ele>4.3</ele>
        <time>2020-08-21T13:38:33.000Z</time>
      </trkpt>
      <trkpt lat="47.7439" lon="-3.35088">
        <ele>4.4</ele>
        <time>2020-08-21T13:38:34.000Z</time>
      </trkpt>
      <trkpt lat="47.74391" lon="-3.35087">
        <ele>4.4</ele>
        <time>2020-08-21T13:38:35.000Z</time>
      </trkpt>
      <trkpt lat="47.74393" lon="-3.35086">
        <ele>4.4</ele>
        <time>2020-08-21T13:38:36.000Z</time>
      </trkpt>
      <trkpt lat="47.74394" lon="-3.35086">
        <ele>4.5</ele>
        <time>2020-08-21T13:38:37.000Z</time>
      </trkpt>
      <trkpt lat="47.74395" lon="-3.35085">
        <ele>4.5</ele>
        <time>2020-08-21T13:38:38.000Z</time>
      </trkpt>
      <trkpt lat="47.74396" lon="-3.35084">
        <ele>4.5</ele>
        <time>2020-08-21T13:38:39.000Z</time>
      </trkpt>
      <trkpt lat="47.74397" lon="-3.35083">
        <ele>4.5</ele>
        <time>2020-08-21T13:38:40.000Z</time>
      </trkpt>
      <trkpt lat="47.74398" lon="-3.35082">
        <ele>4.5</ele>
        <time>2020-08-21T13:38:41.000Z</time>
      </trkpt>
      <trkpt lat="47.74399" lon="-3.35081">
        <ele>4.5</ele>
        <time>2020-08-21T13:38:42.000Z</time>
      </trkpt>
      <trkpt lat="47.744" lon="-3.3508">
        <ele>4.4</ele>
        <time>2020-08-21T13:38:43.000Z</time>
      </trkpt>
      <trkpt lat="47.74401" lon="-3.35079">
        <ele>4.4</ele>
        <time>2020-08-21T13:38:44.000Z</time>
      </trkpt>
      <trkpt lat="47.74402" lon="-3.35077">
        <ele>4.3</ele>
        <time>2020-08-21T13:38:45.000Z</time>
      </trkpt>
      <trkpt lat="47.74403" lon="-3.35076">
        <ele>4.2</ele>
        <time>2020-08-21T13:38:46.000Z</time>
      </trkpt>
      <trkpt lat="47.74403" lon="-3.35075">
        <ele>4.2</ele>
        <time>2020-08-21T13:38:47.000Z</time>
      </trkpt>
      <trkpt lat="47.74404" lon="-3.35074">
        <ele>4.2</ele>
        <time>2020-08-21T13:38:48.000Z</time>
      </trkpt>
      <trkpt lat="47.74405" lon="-3.35073">
        <ele>4.1</ele>
        <time>2020-08-21T13:38:49.000Z</time>
      </trkpt>
      <trkpt lat="47.74406" lon="-3.35073">
        <ele>4.1</ele>
        <time>2020-08-21T13:38:50.000Z</time>
      </trkpt>
      <trkpt lat="47.74406" lon="-3.35072">
        <ele>4.1</ele>
        <time>2020-08-21T13:38:51.000Z</time>
      </trkpt>
      <trkpt lat="47.74407" lon="-3.35072">
        <ele>4.1</ele>
        <time>2020-08-21T13:38:52.000Z</time>
      </trkpt>
      <trkpt lat="47.74408" lon="-3.35071">
        <ele>4.1</ele>
        <time>2020-08-21T13:38:53.000Z</time>
      </trkpt>
      <trkpt lat="47.74409" lon="-3.35071">
        <ele>4.1</ele>
        <time>2020-08-21T13:38:54.000Z</time>
      </trkpt>
      <trkpt lat="47.7441" lon="-3.35071">
        <ele>4.1</ele>
        <time>2020-08-21T13:38:55.000Z</time>
      </trkpt>
      <trkpt lat="47.7441" lon="-3.3507">
        <ele>4.1</ele>
        <time>2020-08-21T13:38:56.000Z</time>
      </trkpt>
      <trkpt lat="47.74411" lon="-3.3507">
        <ele>4.1</ele>
        <time>2020-08-21T13:38:57.000Z</time>
      </trkpt>
      <trkpt lat="47.74412" lon="-3.3507">
        <ele>4.1</ele>
        <time>2020-08-21T13:38:58.000Z</time>
      </trkpt>
      <trkpt lat="47.74413" lon="-3.35069">
        <ele>4.1</ele>
        <time>2020-08-21T13:38:59.000Z</time>
      </trkpt>
      <trkpt lat="47.74413" lon="-3.35069">
        <ele>4</ele>
        <time>2020-08-21T13:39:00.000Z</time>
      </trkpt>
      <trkpt lat="47.74414" lon="-3.35068">
        <ele>4</ele>
        <time>2020-08-21T13:39:01.000Z</time>
      </trkpt>
      <trkpt lat="47.74415" lon="-3.35068">
        <ele>4</ele>
        <time>2020-08-21T13:39:02.000Z</time>
      </trkpt>
      <trkpt lat="47.74415" lon="-3.35067">
        <ele>4</ele>
        <time>2020-08-21T13:39:03.000Z</time>
      </trkpt>
      <trkpt lat="47.74416" lon="-3.35067">
        <ele>4</ele>
        <time>2020-08-21T13:39:04.000Z</time>
      </trkpt>
      <trkpt lat="47.74416" lon="-3.35066">
        <ele>4</ele>
        <time>2020-08-21T13:39:05.000Z</time>
      </trkpt>
      <trkpt lat="47.74417" lon="-3.35066">
        <ele>3.9</ele>
        <time>2020-08-21T13:39:06.000Z</time>
      </trkpt>
      <trkpt lat="47.74418" lon="-3.35065">
        <ele>3.9</ele>
        <time>2020-08-21T13:39:07.000Z</time>
      </trkpt>
      <trkpt lat="47.74418" lon="-3.35065">
        <ele>3.9</ele>
        <time>2020-08-21T13:39:08.000Z</time>
      </trkpt>
      <trkpt lat="47.74419" lon="-3.35065">
        <ele>3.8</ele>
        <time>2020-08-21T13:39:09.000Z</time>
      </trkpt>
      <trkpt lat="47.74419" lon="-3.35064">
        <ele>3.8</ele>
        <time>2020-08-21T13:39:10.000Z</time>
      </trkpt>
      <trkpt lat="47.7442" lon="-3.35064">
        <ele>3.8</ele>
        <time>2020-08-21T13:39:11.000Z</time>
      </trkpt>
      <trkpt lat="47.7442" lon="-3.35064">
        <ele>3.7</ele>
        <time>2020-08-21T13:39:12.000Z</time>
      </trkpt>
      <trkpt lat="47.74421" lon="-3.35064">
        <ele>3.7</ele>
        <time>2020-08-21T13:39:13.000Z</time>
      </trkpt>
      <trkpt lat="47.74421" lon="-3.35064">
        <ele>3.7</ele>
        <time>2020-08-21T13:39:14.000Z</time>
      </trkpt>
      <trkpt lat="47.74422" lon="-3.35063">
        <ele>3.7</ele>
        <time>2020-08-21T13:39:15.000Z</time>
      </trkpt>
      <trkpt lat="47.74422" lon="-3.35064">
        <ele>3.7</ele>
        <time>2020-08-21T13:39:16.000Z</time>
      </trkpt>
      <trkpt lat="47.74423" lon="-3.35064">
        <ele>3.7</ele>
        <time>2020-08-21T13:39:17.000Z</time>
      </trkpt>
      <trkpt lat="47.74423" lon="-3.35064">
        <ele>3.6</ele>
        <time>2020-08-21T13:39:18.000Z</time>
      </trkpt>
      <trkpt lat="47.74424" lon="-3.35064">
        <ele>3.7</ele>
        <time>2020-08-21T13:39:19.000Z</time>
      </trkpt>
      <trkpt lat="47.74424" lon="-3.35065">
        <ele>3.7</ele>
        <time>2020-08-21T13:39:20.000Z</time>
      </trkpt>
      <trkpt lat="47.74425" lon="-3.35065">
        <ele>3.7</ele>
        <time>2020-08-21T13:39:21.000Z</time>
      </trkpt>
      <trkpt lat="47.74425" lon="-3.35065">
        <ele>3.7</ele>
        <time>2020-08-21T13:39:22.000Z</time>
      </trkpt>
      <trkpt lat="47.74426" lon="-3.35066">
        <ele>3.7</ele>
        <time>2020-08-21T13:39:23.000Z</time>
      </trkpt>
      <trkpt lat="47.74426" lon="-3.35067">
        <ele>3.7</ele>
        <time>2020-08-21T13:39:24.000Z</time>
      </trkpt>
      <trkpt lat="47.74427" lon="-3.35067">
        <ele>3.7</ele>
        <time>2020-08-21T13:39:25.000Z</time>
      </trkpt>
      <trkpt lat="47.74428" lon="-3.35068">
        <ele>3.8</ele>
        <time>2020-08-21T13:39:26.000Z</time>
      </trkpt>
      <trkpt lat="47.74429" lon="-3.35069">
        <ele>3.8</ele>
        <time>2020-08-21T13:39:27.000Z</time>
      </trkpt>
      <trkpt lat="47.74429" lon="-3.35069">
        <ele>3.8</ele>
        <time>2020-08-21T13:39:28.000Z</time>
      </trkpt>
      <trkpt lat="47.7443" lon="-3.3507">
        <ele>3.8</ele>
        <time>2020-08-21T13:39:29.000Z</time>
      </trkpt>
      <trkpt lat="47.74431" lon="-3.35071">
        <ele>3.8</ele>
        <time>2020-08-21T13:39:30.000Z</time>
      </trkpt>
      <trkpt lat="47.74432" lon="-3.35072">
        <ele>3.8</ele>
        <time>2020-08-21T13:39:31.000Z</time>
      </trkpt>
      <trkpt lat="47.74433" lon="-3.35072">
        <ele>3.8</ele>
        <time>2020-08-21T13:39:32.000Z</time>
      </trkpt>
      <trkpt lat="47.74434" lon="-3.35073">
        <ele>3.8</ele>
        <time>2020-08-21T13:39:33.000Z</time>
      </trkpt>
      <trkpt lat="47.74435" lon="-3.35074">
        <ele>3.8</ele>
        <time>2020-08-21T13:39:34.000Z</time>
      </trkpt>
      <trkpt lat="47.74436" lon="-3.35075">
        <ele>3.8</ele>
        <time>2020-08-21T13:39:35.000Z</time>
      </trkpt>
      <trkpt lat="47.74438" lon="-3.35075">
        <ele>3.8</ele>
        <time>2020-08-21T13:39:36.000Z</time>
      </trkpt>
      <trkpt lat="47.74439" lon="-3.35076">
        <ele>3.8</ele>
        <time>2020-08-21T13:39:37.000Z</time>
      </trkpt>
      <trkpt lat="47.7444" lon="-3.35076">
        <ele>3.8</ele>
        <time>2020-08-21T13:39:38.000Z</time>
      </trkpt>
      <trkpt lat="47.74441" lon="-3.35077">
        <ele>3.8</ele>
        <time>2020-08-21T13:39:39.000Z</time>
      </trkpt>
      <trkpt lat="47.74442" lon="-3.35077">
        <ele>3.8</ele>
        <time>2020-08-21T13:39:40.000Z</time>
      </trkpt>
      <trkpt lat="47.74442" lon="-3.35078">
        <ele>3.8</ele>
        <time>2020-08-21T13:39:41.000Z</time>
      </trkpt>
      <trkpt lat="47.74443" lon="-3.35078">
        <ele>3.8</ele>
        <time>2020-08-21T13:39:42.000Z</time>
      </trkpt>
      <trkpt lat="47.74444" lon="-3.35078">
        <ele>3.8</ele>
        <time>2020-08-21T13:39:43.000Z</time>
      </trkpt>
      <trkpt lat="47.74444" lon="-3.35079">
        <ele>3.8</ele>
        <time>2020-08-21T13:39:44.000Z</time>
      </trkpt>
      <trkpt lat="47.74445" lon="-3.35079">
        <ele>3.8</ele>
        <time>2020-08-21T13:39:45.000Z</time>
      </trkpt>
      <trkpt lat="47.74446" lon="-3.35079">
        <ele>3.8</ele>
        <time>2020-08-21T13:39:46.000Z</time>
      </trkpt>
      <trkpt lat="47.74447" lon="-3.3508">
        <ele>3.8</ele>
        <time>2020-08-21T13:39:47.000Z</time>
      </trkpt>
      <trkpt lat="47.74447" lon="-3.3508">
        <ele>3.8</ele>
        <time>2020-08-21T13:39:48.000Z</time>
      </trkpt>
      <trkpt lat="47.74448" lon="-3.35081">
        <ele>3.8</ele>
        <time>2020-08-21T13:39:49.000Z</time>
      </trkpt>
      <trkpt lat="47.74449" lon="-3.35081">
        <ele>3.8</ele>
        <time>2020-08-21T13:39:50.000Z</time>
      </trkpt>
      <trkpt lat="47.7445" lon="-3.35082">
        <ele>3.7</ele>
        <time>2020-08-21T13:39:51.000Z</time>
      </trkpt>
      <trkpt lat="47.74451" lon="-3.35083">
        <ele>3.7</ele>
        <time>2020-08-21T13:39:52.000Z</time>
      </trkpt>
      <trkpt lat="47.74452" lon="-3.35083">
        <ele>3.7</ele>
        <time>2020-08-21T13:39:53.000Z</time>
      </trkpt>
      <trkpt lat="47.74453" lon="-3.35084">
        <ele>3.7</ele>
        <time>2020-08-21T13:39:54.000Z</time>
      </trkpt>
      <trkpt lat="47.74454" lon="-3.35085">
        <ele>3.7</ele>
        <time>2020-08-21T13:39:55.000Z</time>
      </trkpt>
      <trkpt lat="47.74455" lon="-3.35085">
        <ele>3.7</ele>
        <time>2020-08-21T13:39:56.000Z</time>
      </trkpt>
      <trkpt lat="47.74456" lon="-3.35086">
        <ele>3.7</ele>
        <time>2020-08-21T13:39:57.000Z</time>
      </trkpt>
      <trkpt lat="47.74457" lon="-3.35087">
        <ele>3.6</ele>
        <time>2020-08-21T13:39:58.000Z</time>
      </trkpt>
      <trkpt lat="47.74459" lon="-3.35088">
        <ele>3.6</ele>
        <time>2020-08-21T13:39:59.000Z</time>
      </trkpt>
      <trkpt lat="47.7446" lon="-3.35088">
        <ele>3.6</ele>
        <time>2020-08-21T13:40:00.000Z</time>
      </trkpt>
      <trkpt lat="47.74461" lon="-3.35089">
        <ele>3.6</ele>
        <time>2020-08-21T13:40:01.000Z</time>
      </trkpt>
      <trkpt lat="47.74462" lon="-3.3509">
        <ele>3.6</ele>
        <time>2020-08-21T13:40:02.000Z</time>
      </trkpt>
      <trkpt lat="47.74464" lon="-3.35091">
        <ele>3.5</ele>
        <time>2020-08-21T13:40:03.000Z</time>
      </trkpt>
      <trkpt lat="47.74465" lon="-3.35091">
        <ele>3.5</ele>
        <time>2020-08-21T13:40:04.000Z</time>
      </trkpt>
      <trkpt lat="47.74466" lon="-3.35092">
        <ele>3.5</ele>
        <time>2020-08-21T13:40:05.000Z</time>
      </trkpt>
      <trkpt lat="47.74467" lon="-3.35092">
        <ele>3.5</ele>
        <time>2020-08-21T13:40:06.000Z</time>
      </trkpt>
      <trkpt lat="47.74468" lon="-3.35093">
        <ele>3.5</ele>
        <time>2020-08-21T13:40:07.000Z</time>
      </trkpt>
      <trkpt lat="47.74469" lon="-3.35093">
        <ele>3.5</ele>
        <time>2020-08-21T13:40:08.000Z</time>
      </trkpt>
      <trkpt lat="47.7447" lon="-3.35094">
        <ele>3.4</ele>
        <time>2020-08-21T13:40:09.000Z</time>
      </trkpt>
      <trkpt lat="47.74471" lon="-3.35094">
        <ele>3.4</ele>
        <time>2020-08-21T13:40:10.000Z</time>
      </trkpt>
      <trkpt lat="47.74472" lon="-3.35095">
        <ele>3.4</ele>
        <time>2020-08-21T13:40:11.000Z</time>
      </trkpt>
      <trkpt lat="47.74472" lon="-3.35095">
        <ele>3.4</ele>
        <time>2020-08-21T13:40:12.000Z</time>
      </trkpt>
      <trkpt lat="47.74473" lon="-3.35096">
        <ele>3.4</ele>
        <time>2020-08-21T13:40:13.000Z</time>
      </trkpt>
      <trkpt lat="47.74474" lon="-3.35096">
        <ele>3.4</ele>
        <time>2020-08-21T13:40:14.000Z</time>
      </trkpt>
      <trkpt lat="47.74474" lon="-3.35097">
        <ele>3.4</ele>
        <time>2020-08-21T13:40:15.000Z</time>
      </trkpt>
      <trkpt lat="47.74475" lon="-3.35097">
        <ele>3.4</ele>
        <time>2020-08-21T13:40:16.000Z</time>
      </trkpt>
      <trkpt lat="47.74476" lon="-3.35098">
        <ele>3.4</ele>
        <time>2020-08-21T13:40:17.000Z</time>
      </trkpt>
      <trkpt lat="47.74477" lon="-3.35098">
        <ele>3.4</ele>
        <time>2020-08-21T13:40:18.000Z</time>
      </trkpt>
      <trkpt lat="47.74478" lon="-3.35099">
        <ele>3.4</ele>
        <time>2020-08-21T13:40:19.000Z</time>
      </trkpt>
      <trkpt lat="47.74479" lon="-3.35099">
        <ele>3.4</ele>
        <time>2020-08-21T13:40:20.000Z</time>
      </trkpt>
      <trkpt lat="47.7448" lon="-3.351">
        <ele>3.4</ele>
        <time>2020-08-21T13:40:21.000Z</time>
      </trkpt>
      <trkpt lat="47.74481" lon="-3.351">
        <ele>3.3</ele>
        <time>2020-08-21T13:40:22.000Z</time>
      </trkpt>
      <trkpt lat="47.74483" lon="-3.35101">
        <ele>3.3</ele>
        <time>2020-08-21T13:40:23.000Z</time>
      </trkpt>
      <trkpt lat="47.74484" lon="-3.35101">
        <ele>3.3</ele>
        <time>2020-08-21T13:40:24.000Z</time>
      </trkpt>
      <trkpt lat="47.74485" lon="-3.35101">
        <ele>3.3</ele>
        <time>2020-08-21T13:40:25.000Z</time>
      </trkpt>
      <trkpt lat="47.74486" lon="-3.35102">
        <ele>3.3</ele>
        <time>2020-08-21T13:40:26.000Z</time>
      </trkpt>
      <trkpt lat="47.74487" lon="-3.35102">
        <ele>3.2</ele>
        <time>2020-08-21T13:40:27.000Z</time>
      </trkpt>
      <trkpt lat="47.74488" lon="-3.35102">
        <ele>3.2</ele>
        <time>2020-08-21T13:40:28.000Z</time>
      </trkpt>
      <trkpt lat="47.7449" lon="-3.35102">
        <ele>3.2</ele>
        <time>2020-08-21T13:40:29.000Z</time>
      </trkpt>
      <trkpt lat="47.74491" lon="-3.35102">
        <ele>3.1</ele>
        <time>2020-08-21T13:40:30.000Z</time>
      </trkpt>
      <trkpt lat="47.74492" lon="-3.35102">
        <ele>3.1</ele>
        <time>2020-08-21T13:40:31.000Z</time>
      </trkpt>
      <trkpt lat="47.74493" lon="-3.35102">
        <ele>3.1</ele>
        <time>2020-08-21T13:40:32.000Z</time>
      </trkpt>
      <trkpt lat="47.74495" lon="-3.35102">
        <ele>3</ele>
        <time>2020-08-21T13:40:33.000Z</time>
      </trkpt>
      <trkpt lat="47.74496" lon="-3.35102">
        <ele>3</ele>
        <time>2020-08-21T13:40:34.000Z</time>
      </trkpt>
      <trkpt lat="47.74497" lon="-3.35102">
        <ele>3</ele>
        <time>2020-08-21T13:40:35.000Z</time>
      </trkpt>
      <trkpt lat="47.74498" lon="-3.35102">
        <ele>3</ele>
        <time>2020-08-21T13:40:36.000Z</time>
      </trkpt>
      <trkpt lat="47.74499" lon="-3.35102">
        <ele>2.9</ele>
        <time>2020-08-21T13:40:37.000Z</time>
      </trkpt>
      <trkpt lat="47.74501" lon="-3.35103">
        <ele>3</ele>
        <time>2020-08-21T13:40:38.000Z</time>
      </trkpt>
      <trkpt lat="47.74502" lon="-3.35103">
        <ele>3</ele>
        <time>2020-08-21T13:40:39.000Z</time>
      </trkpt>
      <trkpt lat="47.74503" lon="-3.35104">
        <ele>3.1</ele>
        <time>2020-08-21T13:40:40.000Z</time>
      </trkpt>
      <trkpt lat="47.74504" lon="-3.35104">
        <ele>3.1</ele>
        <time>2020-08-21T13:40:41.000Z</time>
      </trkpt>
      <trkpt lat="47.74505" lon="-3.35105">
        <ele>3.1</ele>
        <time>2020-08-21T13:40:42.000Z</time>
      </trkpt>
      <trkpt lat="47.74505" lon="-3.35105">
        <ele>3.2</ele>
        <time>2020-08-21T13:40:43.000Z</time>
      </trkpt>
      <trkpt lat="47.74505" lon="-3.35105">
        <ele>3.2</ele>
        <time>2020-08-21T13:40:44.000Z</time>
      </trkpt>
      <trkpt lat="47.74505" lon="-3.35105">
        <ele>3.2</ele>
        <time>2020-08-21T13:40:45.000Z</time>
      </trkpt>
      <trkpt lat="47.74506" lon="-3.35105">
        <ele>3.2</ele>
        <time>2020-08-21T13:40:46.000Z</time>
      </trkpt>
      <trkpt lat="47.74506" lon="-3.35106">
        <ele>3.2</ele>
        <time>2020-08-21T13:40:47.000Z</time>
      </trkpt>
      <trkpt lat="47.74507" lon="-3.35106">
        <ele>3.3</ele>
        <time>2020-08-21T13:40:48.000Z</time>
      </trkpt>
      <trkpt lat="47.74508" lon="-3.35106">
        <ele>3.3</ele>
        <time>2020-08-21T13:40:49.000Z</time>
      </trkpt>
      <trkpt lat="47.74509" lon="-3.35106">
        <ele>3.3</ele>
        <time>2020-08-21T13:40:50.000Z</time>
      </trkpt>
      <trkpt lat="47.7451" lon="-3.35106">
        <ele>3.3</ele>
        <time>2020-08-21T13:40:51.000Z</time>
      </trkpt>
      <trkpt lat="47.74511" lon="-3.35105">
        <ele>3.3</ele>
        <time>2020-08-21T13:40:52.000Z</time>
      </trkpt>
      <trkpt lat="47.74512" lon="-3.35104">
        <ele>3.3</ele>
        <time>2020-08-21T13:40:53.000Z</time>
      </trkpt>
      <trkpt lat="47.74512" lon="-3.35103">
        <ele>3.3</ele>
        <time>2020-08-21T13:40:54.000Z</time>
      </trkpt>
      <trkpt lat="47.74513" lon="-3.35102">
        <ele>3.3</ele>
        <time>2020-08-21T13:40:55.000Z</time>
      </trkpt>
      <trkpt lat="47.74513" lon="-3.35101">
        <ele>3.2</ele>
        <time>2020-08-21T13:40:56.000Z</time>
      </trkpt>
      <trkpt lat="47.74513" lon="-3.351">
        <ele>3.2</ele>
        <time>2020-08-21T13:40:57.000Z</time>
      </trkpt>
      <trkpt lat="47.74513" lon="-3.351">
        <ele>3.2</ele>
        <time>2020-08-21T13:40:58.000Z</time>
      </trkpt>
      <trkpt lat="47.74513" lon="-3.351">
        <ele>3.2</ele>
        <time>2020-08-21T13:40:59.000Z</time>
      </trkpt>
      <trkpt lat="47.74513" lon="-3.351">
        <ele>3.2</ele>
        <time>2020-08-21T13:41:00.000Z</time>
      </trkpt>
      <trkpt lat="47.74513" lon="-3.35101">
        <ele>3.2</ele>
        <time>2020-08-21T13:41:01.000Z</time>
      </trkpt>
      <trkpt lat="47.74513" lon="-3.35102">
        <ele>3.3</ele>
        <time>2020-08-21T13:41:02.000Z</time>
      </trkpt>
      <trkpt lat="47.74513" lon="-3.35103">
        <ele>3.3</ele>
        <time>2020-08-21T13:41:03.000Z</time>
      </trkpt>
      <trkpt lat="47.74512" lon="-3.35104">
        <ele>3.3</ele>
        <time>2020-08-21T13:41:04.000Z</time>
      </trkpt>
      <trkpt lat="47.74512" lon="-3.35106">
        <ele>3.4</ele>
        <time>2020-08-21T13:41:05.000Z</time>
      </trkpt>
      <trkpt lat="47.74513" lon="-3.35107">
        <ele>3.4</ele>
        <time>2020-08-21T13:41:06.000Z</time>
      </trkpt>
      <trkpt lat="47.74513" lon="-3.35108">
        <ele>3.5</ele>
        <time>2020-08-21T13:41:07.000Z</time>
      </trkpt>
      <trkpt lat="47.74514" lon="-3.3511">
        <ele>3.6</ele>
        <time>2020-08-21T13:41:08.000Z</time>
      </trkpt>
      <trkpt lat="47.74514" lon="-3.35111">
        <ele>3.6</ele>
        <time>2020-08-21T13:41:09.000Z</time>
      </trkpt>
      <trkpt lat="47.74515" lon="-3.35112">
        <ele>3.7</ele>
        <time>2020-08-21T13:41:10.000Z</time>
      </trkpt>
      <trkpt lat="47.74516" lon="-3.35113">
        <ele>3.7</ele>
        <time>2020-08-21T13:41:11.000Z</time>
      </trkpt>
      <trkpt lat="47.74517" lon="-3.35114">
        <ele>3.7</ele>
        <time>2020-08-21T13:41:12.000Z</time>
      </trkpt>
      <trkpt lat="47.74518" lon="-3.35115">
        <ele>3.8</ele>
        <time>2020-08-21T13:41:13.000Z</time>
      </trkpt>
      <trkpt lat="47.74519" lon="-3.35116">
        <ele>3.8</ele>
        <time>2020-08-21T13:41:14.000Z</time>
      </trkpt>
      <trkpt lat="47.7452" lon="-3.35117">
        <ele>3.9</ele>
        <time>2020-08-21T13:41:15.000Z</time>
      </trkpt>
      <trkpt lat="47.7452" lon="-3.35118">
        <ele>3.9</ele>
        <time>2020-08-21T13:41:16.000Z</time>
      </trkpt>
      <trkpt lat="47.74521" lon="-3.35119">
        <ele>4</ele>
        <time>2020-08-21T13:41:17.000Z</time>
      </trkpt>
      <trkpt lat="47.74522" lon="-3.3512">
        <ele>4</ele>
        <time>2020-08-21T13:41:18.000Z</time>
      </trkpt>
      <trkpt lat="47.74523" lon="-3.35121">
        <ele>4</ele>
        <time>2020-08-21T13:41:19.000Z</time>
      </trkpt>
      <trkpt lat="47.74524" lon="-3.35123">
        <ele>4.1</ele>
        <time>2020-08-21T13:41:20.000Z</time>
      </trkpt>
      <trkpt lat="47.74524" lon="-3.35124">
        <ele>4.1</ele>
        <time>2020-08-21T13:41:21.000Z</time>
      </trkpt>
      <trkpt lat="47.74525" lon="-3.35125">
        <ele>4.1</ele>
        <time>2020-08-21T13:41:22.000Z</time>
      </trkpt>
      <trkpt lat="47.74526" lon="-3.35126">
        <ele>4.2</ele>
        <time>2020-08-21T13:41:23.000Z</time>
      </trkpt>
      <trkpt lat="47.74527" lon="-3.35128">
        <ele>4.2</ele>
        <time>2020-08-21T13:41:24.000Z</time>
      </trkpt>
      <trkpt lat="47.74527" lon="-3.35129">
        <ele>4.2</ele>
        <time>2020-08-21T13:41:25.000Z</time>
      </trkpt>
      <trkpt lat="47.74528" lon="-3.3513">
        <ele>4.3</ele>
        <time>2020-08-21T13:41:26.000Z</time>
      </trkpt>
      <trkpt lat="47.74529" lon="-3.35132">
        <ele>4.3</ele>
        <time>2020-08-21T13:41:27.000Z</time>
      </trkpt>
      <trkpt lat="47.7453" lon="-3.35133">
        <ele>4.3</ele>
        <time>2020-08-21T13:41:28.000Z</time>
      </trkpt>
      <trkpt lat="47.7453" lon="-3.35134">
        <ele>4.3</ele>
        <time>2020-08-21T13:41:29.000Z</time>
      </trkpt>
      <trkpt lat="47.74531" lon="-3.35136">
        <ele>4.4</ele>
        <time>2020-08-21T13:41:30.000Z</time>
      </trkpt>
      <trkpt lat="47.74532" lon="-3.35137">
        <ele>4.4</ele>
        <time>2020-08-21T13:41:31.000Z</time>
      </trkpt>
      <trkpt lat="47.74532" lon="-3.35138">
        <ele>4.4</ele>
        <time>2020-08-21T13:41:32.000Z</time>
      </trkpt>
      <trkpt lat="47.74533" lon="-3.3514">
        <ele>4.4</ele>
        <time>2020-08-21T13:41:33.000Z</time>
      </trkpt>
      <trkpt lat="47.74534" lon="-3.35141">
        <ele>4.4</ele>
        <time>2020-08-21T13:41:34.000Z</time>
      </trkpt>
      <trkpt lat="47.74535" lon="-3.35142">
        <ele>4.4</ele>
        <time>2020-08-21T13:41:35.000Z</time>
      </trkpt>
      <trkpt lat="47.74535" lon="-3.35143">
        <ele>4.4</ele>
        <time>2020-08-21T13:41:36.000Z</time>
      </trkpt>
      <trkpt lat="47.74536" lon="-3.35144">
        <ele>4.4</ele>
        <time>2020-08-21T13:41:37.000Z</time>
      </trkpt>
      <trkpt lat="47.74537" lon="-3.35146">
        <ele>4.4</ele>
        <time>2020-08-21T13:41:38.000Z</time>
      </trkpt>
      <trkpt lat="47.74537" lon="-3.35147">
        <ele>4.4</ele>
        <time>2020-08-21T13:41:39.000Z</time>
      </trkpt>
      <trkpt lat="47.74538" lon="-3.35148">
        <ele>4.5</ele>
        <time>2020-08-21T13:41:40.000Z</time>
      </trkpt>
      <trkpt lat="47.74538" lon="-3.35149">
        <ele>4.5</ele>
        <time>2020-08-21T13:41:41.000Z</time>
      </trkpt>
      <trkpt lat="47.74539" lon="-3.3515">
        <ele>4.5</ele>
        <time>2020-08-21T13:41:42.000Z</time>
      </trkpt>
      <trkpt lat="47.74539" lon="-3.35152">
        <ele>4.5</ele>
        <time>2020-08-21T13:41:43.000Z</time>
      </trkpt>
      <trkpt lat="47.74539" lon="-3.35153">
        <ele>4.5</ele>
        <time>2020-08-21T13:41:44.000Z</time>
      </trkpt>
      <trkpt lat="47.74539" lon="-3.35155">
        <ele>4.5</ele>
        <time>2020-08-21T13:41:45.000Z</time>
      </trkpt>
      <trkpt lat="47.7454" lon="-3.35156">
        <ele>4.5</ele>
        <time>2020-08-21T13:41:46.000Z</time>
      </trkpt>
      <trkpt lat="47.7454" lon="-3.35157">
        <ele>4.5</ele>
        <time>2020-08-21T13:41:47.000Z</time>
      </trkpt>
      <trkpt lat="47.7454" lon="-3.35159">
        <ele>4.5</ele>
        <time>2020-08-21T13:41:48.000Z</time>
      </trkpt>
      <trkpt lat="47.7454" lon="-3.3516">
        <ele>4.5</ele>
        <time>2020-08-21T13:41:49.000Z</time>
      </trkpt>
      <trkpt lat="47.74539" lon="-3.35162">
        <ele>4.5</ele>
        <time>2020-08-21T13:41:50.000Z</time>
      </trkpt>
      <trkpt lat="47.74539" lon="-3.35163">
        <ele>4.6</ele>
        <time>2020-08-21T13:41:51.000Z</time>
      </trkpt>
      <trkpt lat="47.74539" lon="-3.35165">
        <ele>4.6</ele>
        <time>2020-08-21T13:41:52.000Z</time>
      </trkpt>
      <trkpt lat="47.74539" lon="-3.35166">
        <ele>4.6</ele>
        <time>2020-08-21T13:41:53.000Z</time>
      </trkpt>
      <trkpt lat="47.74539" lon="-3.35168">
        <ele>4.6</ele>
        <time>2020-08-21T13:41:54.000Z</time>
      </trkpt>
      <trkpt lat="47.74538" lon="-3.35169">
        <ele>4.7</ele>
        <time>2020-08-21T13:41:55.000Z</time>
      </trkpt>
      <trkpt lat="47.74538" lon="-3.3517">
        <ele>4.7</ele>
        <time>2020-08-21T13:41:56.000Z</time>
      </trkpt>
      <trkpt lat="47.74538" lon="-3.35172">
        <ele>4.8</ele>
        <time>2020-08-21T13:41:57.000Z</time>
      </trkpt>
      <trkpt lat="47.74537" lon="-3.35173">
        <ele>4.8</ele>
        <time>2020-08-21T13:41:58.000Z</time>
      </trkpt>
      <trkpt lat="47.74537" lon="-3.35174">
        <ele>4.9</ele>
        <time>2020-08-21T13:41:59.000Z</time>
      </trkpt>
      <trkpt lat="47.74537" lon="-3.35176">
        <ele>4.9</ele>
        <time>2020-08-21T13:42:00.000Z</time>
      </trkpt>
      <trkpt lat="47.74536" lon="-3.35177">
        <ele>5</ele>
        <time>2020-08-21T13:42:01.000Z</time>
      </trkpt>
      <trkpt lat="47.74536" lon="-3.35178">
        <ele>5</ele>
        <time>2020-08-21T13:42:02.000Z</time>
      </trkpt>
      <trkpt lat="47.74536" lon="-3.35179">
        <ele>5.1</ele>
        <time>2020-08-21T13:42:03.000Z</time>
      </trkpt>
      <trkpt lat="47.74535" lon="-3.35181">
        <ele>5.1</ele>
        <time>2020-08-21T13:42:04.000Z</time>
      </trkpt>
      <trkpt lat="47.74535" lon="-3.35182">
        <ele>5.2</ele>
        <time>2020-08-21T13:42:05.000Z</time>
      </trkpt>
      <trkpt lat="47.74534" lon="-3.35183">
        <ele>5.2</ele>
        <time>2020-08-21T13:42:06.000Z</time>
      </trkpt>
      <trkpt lat="47.74534" lon="-3.35184">
        <ele>5.3</ele>
        <time>2020-08-21T13:42:07.000Z</time>
      </trkpt>
      <trkpt lat="47.74533" lon="-3.35185">
        <ele>5.3</ele>
        <time>2020-08-21T13:42:08.000Z</time>
      </trkpt>
      <trkpt lat="47.74533" lon="-3.35187">
        <ele>5.4</ele>
        <time>2020-08-21T13:42:09.000Z</time>
      </trkpt>
      <trkpt lat="47.74533" lon="-3.35188">
        <ele>5.4</ele>
        <time>2020-08-21T13:42:10.000Z</time>
      </trkpt>
      <trkpt lat="47.74532" lon="-3.35189">
        <ele>5.5</ele>
        <time>2020-08-21T13:42:11.000Z</time>
      </trkpt>
      <trkpt lat="47.74532" lon="-3.3519">
        <ele>5.5</ele>
        <time>2020-08-21T13:42:12.000Z</time>
      </trkpt>
      <trkpt lat="47.74531" lon="-3.35191">
        <ele>5.6</ele>
        <time>2020-08-21T13:42:13.000Z</time>
      </trkpt>
      <trkpt lat="47.74531" lon="-3.35192">
        <ele>5.6</ele>
        <time>2020-08-21T13:42:14.000Z</time>
      </trkpt>
      <trkpt lat="47.7453" lon="-3.35193">
        <ele>5.7</ele>
        <time>2020-08-21T13:42:15.000Z</time>
      </trkpt>
      <trkpt lat="47.7453" lon="-3.35195">
        <ele>5.7</ele>
        <time>2020-08-21T13:42:16.000Z</time>
      </trkpt>
      <trkpt lat="47.74529" lon="-3.35196">
        <ele>5.8</ele>
        <time>2020-08-21T13:42:17.000Z</time>
      </trkpt>
      <trkpt lat="47.74529" lon="-3.35197">
        <ele>5.8</ele>
        <time>2020-08-21T13:42:18.000Z</time>
      </trkpt>
      <trkpt lat="47.74528" lon="-3.35198">
        <ele>5.9</ele>
        <time>2020-08-21T13:42:19.000Z</time>
      </trkpt>
      <trkpt lat="47.74528" lon="-3.352">
        <ele>5.9</ele>
        <time>2020-08-21T13:42:20.000Z</time>
      </trkpt>
      <trkpt lat="47.74527" lon="-3.35201">
        <ele>6</ele>
        <time>2020-08-21T13:42:21.000Z</time>
      </trkpt>
      <trkpt lat="47.74527" lon="-3.35202">
        <ele>6</ele>
        <time>2020-08-21T13:42:22.000Z</time>
      </trkpt>
      <trkpt lat="47.74526" lon="-3.35204">
        <ele>6.1</ele>
        <time>2020-08-21T13:42:23.000Z</time>
      </trkpt>
      <trkpt lat="47.74526" lon="-3.35205">
        <ele>6.1</ele>
        <time>2020-08-21T13:42:24.000Z</time>
      </trkpt>
      <trkpt lat="47.74525" lon="-3.35207">
        <ele>6.2</ele>
        <time>2020-08-21T13:42:25.000Z</time>
      </trkpt>
      <trkpt lat="47.74525" lon="-3.35208">
        <ele>6.3</ele>
        <time>2020-08-21T13:42:26.000Z</time>
      </trkpt>
      <trkpt lat="47.74524" lon="-3.3521">
        <ele>6.3</ele>
        <time>2020-08-21T13:42:27.000Z</time>
      </trkpt>
      <trkpt lat="47.74524" lon="-3.35211">
        <ele>6.4</ele>
        <time>2020-08-21T13:42:28.000Z</time>
      </trkpt>
      <trkpt lat="47.74523" lon="-3.35213">
        <ele>6.4</ele>
        <time>2020-08-21T13:42:29.000Z</time>
      </trkpt>
      <trkpt lat="47.74522" lon="-3.35214">
        <ele>6.5</ele>
        <time>2020-08-21T13:42:30.000Z</time>
      </trkpt>
      <trkpt lat="47.74522" lon="-3.35216">
        <ele>6.5</ele>
        <time>2020-08-21T13:42:31.000Z</time>
      </trkpt>
      <trkpt lat="47.74521" lon="-3.35218">
        <ele>6.6</ele>
        <time>2020-08-21T13:42:32.000Z</time>
      </trkpt>
      <trkpt lat="47.74521" lon="-3.35219">
        <ele>6.7</ele>
        <time>2020-08-21T13:42:33.000Z</time>
      </trkpt>
      <trkpt lat="47.74521" lon="-3.35221">
        <ele>6.7</ele>
        <time>2020-08-21T13:42:34.000Z</time>
      </trkpt>
      <trkpt lat="47.7452" lon="-3.35222">
        <ele>6.8</ele>
        <time>2020-08-21T13:42:35.000Z</time>
      </trkpt>
      <trkpt lat="47.7452" lon="-3.35224">
        <ele>6.8</ele>
        <time>2020-08-21T13:42:36.000Z</time>
      </trkpt>
      <trkpt lat="47.74519" lon="-3.35225">
        <ele>6.9</ele>
        <time>2020-08-21T13:42:37.000Z</time>
      </trkpt>
      <trkpt lat="47.74519" lon="-3.35226">
        <ele>6.9</ele>
        <time>2020-08-21T13:42:38.000Z</time>
      </trkpt>
      <trkpt lat="47.74518" lon="-3.35228">
        <ele>7</ele>
        <time>2020-08-21T13:42:39.000Z</time>
      </trkpt>
      <trkpt lat="47.74518" lon="-3.35229">
        <ele>7</ele>
        <time>2020-08-21T13:42:40.000Z</time>
      </trkpt>
      <trkpt lat="47.74518" lon="-3.3523">
        <ele>7.1</ele>
        <time>2020-08-21T13:42:41.000Z</time>
      </trkpt>
      <trkpt lat="47.74517" lon="-3.35232">
        <ele>7.1</ele>
        <time>2020-08-21T13:42:42.000Z</time>
      </trkpt>
      <trkpt lat="47.74517" lon="-3.35234">
        <ele>7.2</ele>
        <time>2020-08-21T13:42:43.000Z</time>
      </trkpt>
      <trkpt lat="47.74516" lon="-3.35235">
        <ele>7.2</ele>
        <time>2020-08-21T13:42:44.000Z</time>
      </trkpt>
      <trkpt lat="47.74515" lon="-3.35237">
        <ele>7.3</ele>
        <time>2020-08-21T13:42:45.000Z</time>
      </trkpt>
      <trkpt lat="47.74514" lon="-3.35239">
        <ele>7.4</ele>
        <time>2020-08-21T13:42:46.000Z</time>
      </trkpt>
      <trkpt lat="47.74513" lon="-3.35241">
        <ele>7.5</ele>
        <time>2020-08-21T13:42:47.000Z</time>
      </trkpt>
      <trkpt lat="47.74512" lon="-3.35243">
        <ele>7.5</ele>
        <time>2020-08-21T13:42:48.000Z</time>
      </trkpt>
      <trkpt lat="47.74512" lon="-3.35244">
        <ele>7.6</ele>
        <time>2020-08-21T13:42:49.000Z</time>
      </trkpt>
      <trkpt lat="47.74511" lon="-3.35246">
        <ele>7.6</ele>
        <time>2020-08-21T13:42:50.000Z</time>
      </trkpt>
      <trkpt lat="47.7451" lon="-3.35247">
        <ele>7.7</ele>
        <time>2020-08-21T13:42:51.000Z</time>
      </trkpt>
      <trkpt lat="47.7451" lon="-3.35248">
        <ele>7.7</ele>
        <time>2020-08-21T13:42:52.000Z</time>
      </trkpt>
      <trkpt lat="47.7451" lon="-3.3525">
        <ele>7.8</ele>
        <time>2020-08-21T13:42:53.000Z</time>
      </trkpt>
      <trkpt lat="47.74509" lon="-3.35251">
        <ele>7.8</ele>
        <time>2020-08-21T13:42:54.000Z</time>
      </trkpt>
      <trkpt lat="47.74509" lon="-3.35253">
        <ele>7.9</ele>
        <time>2020-08-21T13:42:55.000Z</time>
      </trkpt>
      <trkpt lat="47.74509" lon="-3.35254">
        <ele>8</ele>
        <time>2020-08-21T13:42:56.000Z</time>
      </trkpt>
      <trkpt lat="47.74508" lon="-3.35255">
        <ele>8.1</ele>
        <time>2020-08-21T13:42:57.000Z</time>
      </trkpt>
      <trkpt lat="47.74508" lon="-3.35257">
        <ele>8.1</ele>
        <time>2020-08-21T13:42:58.000Z</time>
      </trkpt>
      <trkpt lat="47.74508" lon="-3.35258">
        <ele>8.2</ele>
        <time>2020-08-21T13:42:59.000Z</time>
      </trkpt>
      <trkpt lat="47.74507" lon="-3.3526">
        <ele>8.3</ele>
        <time>2020-08-21T13:43:00.000Z</time>
      </trkpt>
      <trkpt lat="47.74507" lon="-3.35261">
        <ele>8.4</ele>
        <time>2020-08-21T13:43:01.000Z</time>
      </trkpt>
      <trkpt lat="47.74506" lon="-3.35263">
        <ele>8.4</ele>
        <time>2020-08-21T13:43:02.000Z</time>
      </trkpt>
      <trkpt lat="47.74506" lon="-3.35264">
        <ele>8.5</ele>
        <time>2020-08-21T13:43:03.000Z</time>
      </trkpt>
      <trkpt lat="47.74506" lon="-3.35266">
        <ele>8.6</ele>
        <time>2020-08-21T13:43:04.000Z</time>
      </trkpt>
      <trkpt lat="47.74505" lon="-3.35267">
        <ele>8.7</ele>
        <time>2020-08-21T13:43:05.000Z</time>
      </trkpt>
      <trkpt lat="47.74505" lon="-3.35269">
        <ele>8.8</ele>
        <time>2020-08-21T13:43:06.000Z</time>
      </trkpt>
      <trkpt lat="47.74504" lon="-3.3527">
        <ele>8.9</ele>
        <time>2020-08-21T13:43:07.000Z</time>
      </trkpt>
      <trkpt lat="47.74504" lon="-3.35272">
        <ele>8.9</ele>
        <time>2020-08-21T13:43:08.000Z</time>
      </trkpt>
      <trkpt lat="47.74504" lon="-3.35274">
        <ele>9</ele>
        <time>2020-08-21T13:43:09.000Z</time>
      </trkpt>
      <trkpt lat="47.74503" lon="-3.35275">
        <ele>9.1</ele>
        <time>2020-08-21T13:43:10.000Z</time>
      </trkpt>
      <trkpt lat="47.74503" lon="-3.35277">
        <ele>9.2</ele>
        <time>2020-08-21T13:43:11.000Z</time>
      </trkpt>
      <trkpt lat="47.74503" lon="-3.35279">
        <ele>9.3</ele>
        <time>2020-08-21T13:43:12.000Z</time>
      </trkpt>
      <trkpt lat="47.74502" lon="-3.3528">
        <ele>9.4</ele>
        <time>2020-08-21T13:43:13.000Z</time>
      </trkpt>
      <trkpt lat="47.74502" lon="-3.35282">
        <ele>9.5</ele>
        <time>2020-08-21T13:43:14.000Z</time>
      </trkpt>
      <trkpt lat="47.74501" lon="-3.35284">
        <ele>9.6</ele>
        <time>2020-08-21T13:43:15.000Z</time>
      </trkpt>
      <trkpt lat="47.74501" lon="-3.35285">
        <ele>9.7</ele>
        <time>2020-08-21T13:43:16.000Z</time>
      </trkpt>
      <trkpt lat="47.74501" lon="-3.35287">
        <ele>9.8</ele>
        <time>2020-08-21T13:43:17.000Z</time>
      </trkpt>
      <trkpt lat="47.745" lon="-3.35289">
        <ele>9.8</ele>
        <time>2020-08-21T13:43:18.000Z</time>
      </trkpt>
      <trkpt lat="47.745" lon="-3.3529">
        <ele>9.9</ele>
        <time>2020-08-21T13:43:19.000Z</time>
      </trkpt>
      <trkpt lat="47.745" lon="-3.35292">
        <ele>10</ele>
        <time>2020-08-21T13:43:20.000Z</time>
      </trkpt>
      <trkpt lat="47.745" lon="-3.35294">
        <ele>10.1</ele>
        <time>2020-08-21T13:43:21.000Z</time>
      </trkpt>
      <trkpt lat="47.74499" lon="-3.35295">
        <ele>10.1</ele>
        <time>2020-08-21T13:43:22.000Z</time>
      </trkpt>
      <trkpt lat="47.74499" lon="-3.35297">
        <ele>10.2</ele>
        <time>2020-08-21T13:43:23.000Z</time>
      </trkpt>
      <trkpt lat="47.74499" lon="-3.35298">
        <ele>10.2</ele>
        <time>2020-08-21T13:43:24.000Z</time>
      </trkpt>
      <trkpt lat="47.74499" lon="-3.353">
        <ele>10.3</ele>
        <time>2020-08-21T13:43:25.000Z</time>
      </trkpt>
      <trkpt lat="47.74498" lon="-3.35301">
        <ele>10.3</ele>
        <time>2020-08-21T13:43:26.000Z</time>
      </trkpt>
      <trkpt lat="47.74498" lon="-3.35303">
        <ele>10.4</ele>
        <time>2020-08-21T13:43:27.000Z</time>
      </trkpt>
      <trkpt lat="47.74498" lon="-3.35304">
        <ele>10.5</ele>
        <time>2020-08-21T13:43:28.000Z</time>
      </trkpt>
      <trkpt lat="47.74498" lon="-3.35305">
        <ele>10.5</ele>
        <time>2020-08-21T13:43:29.000Z</time>
      </trkpt>
      <trkpt lat="47.74498" lon="-3.35307">
        <ele>10.6</ele>
        <time>2020-08-21T13:43:30.000Z</time>
      </trkpt>
      <trkpt lat="47.74498" lon="-3.35308">
        <ele>10.6</ele>
        <time>2020-08-21T13:43:31.000Z</time>
      </trkpt>
      <trkpt lat="47.74497" lon="-3.35309">
        <ele>10.7</ele>
        <time>2020-08-21T13:43:32.000Z</time>
      </trkpt>
      <trkpt lat="47.74497" lon="-3.3531">
        <ele>10.7</ele>
        <time>2020-08-21T13:43:33.000Z</time>
      </trkpt>
      <trkpt lat="47.74497" lon="-3.35312">
        <ele>10.8</ele>
        <time>2020-08-21T13:43:34.000Z</time>
      </trkpt>
      <trkpt lat="47.74497" lon="-3.35313">
        <ele>10.8</ele>
        <time>2020-08-21T13:43:35.000Z</time>
      </trkpt>
      <trkpt lat="47.74497" lon="-3.35314">
        <ele>10.8</ele>
        <time>2020-08-21T13:43:36.000Z</time>
      </trkpt>
      <trkpt lat="47.74497" lon="-3.35315">
        <ele>10.9</ele>
        <time>2020-08-21T13:43:37.000Z</time>
      </trkpt>
      <trkpt lat="47.74496" lon="-3.35317">
        <ele>10.9</ele>
        <time>2020-08-21T13:43:38.000Z</time>
      </trkpt>
      <trkpt lat="47.74496" lon="-3.35318">
        <ele>11</ele>
        <time>2020-08-21T13:43:39.000Z</time>
      </trkpt>
      <trkpt lat="47.74496" lon="-3.35319">
        <ele>11</ele>
        <time>2020-08-21T13:43:40.000Z</time>
      </trkpt>
      <trkpt lat="47.74496" lon="-3.3532">
        <ele>11</ele>
        <time>2020-08-21T13:43:41.000Z</time>
      </trkpt>
      <trkpt lat="47.74496" lon="-3.35321">
        <ele>11.1</ele>
        <time>2020-08-21T13:43:42.000Z</time>
      </trkpt>
      <trkpt lat="47.74495" lon="-3.35322">
        <ele>11.1</ele>
        <time>2020-08-21T13:43:43.000Z</time>
      </trkpt>
      <trkpt lat="47.74495" lon="-3.35323">
        <ele>11.1</ele>
        <time>2020-08-21T13:43:44.000Z</time>
      </trkpt>
      <trkpt lat="47.74495" lon="-3.35325">
        <ele>11.2</ele>
        <time>2020-08-21T13:43:45.000Z</time>
      </trkpt>
      <trkpt lat="47.74495" lon="-3.35326">
        <ele>11.2</ele>
        <time>2020-08-21T13:43:46.000Z</time>
      </trkpt>
      <trkpt lat="47.74495" lon="-3.35327">
        <ele>11.3</ele>
        <time>2020-08-21T13:43:47.000Z</time>
      </trkpt>
      <trkpt lat="47.74495" lon="-3.35328">
        <ele>11.3</ele>
        <time>2020-08-21T13:43:48.000Z</time>
      </trkpt>
      <trkpt lat="47.74495" lon="-3.35329">
        <ele>11.3</ele>
        <time>2020-08-21T13:43:49.000Z</time>
      </trkpt>
      <trkpt lat="47.74494" lon="-3.3533">
        <ele>11.4</ele>
        <time>2020-08-21T13:43:50.000Z</time>
      </trkpt>
      <trkpt lat="47.74494" lon="-3.35331">
        <ele>11.4</ele>
        <time>2020-08-21T13:43:51.000Z</time>
      </trkpt>
      <trkpt lat="47.74495" lon="-3.35332">
        <ele>11.5</ele>
        <time>2020-08-21T13:43:52.000Z</time>
      </trkpt>
      <trkpt lat="47.74495" lon="-3.35333">
        <ele>11.5</ele>
        <time>2020-08-21T13:43:53.000Z</time>
      </trkpt>
      <trkpt lat="47.74495" lon="-3.35334">
        <ele>11.6</ele>
        <time>2020-08-21T13:43:54.000Z</time>
      </trkpt>
      <trkpt lat="47.74495" lon="-3.35335">
        <ele>11.6</ele>
        <time>2020-08-21T13:43:55.000Z</time>
      </trkpt>
      <trkpt lat="47.74495" lon="-3.35337">
        <ele>11.6</ele>
        <time>2020-08-21T13:43:56.000Z</time>
      </trkpt>
      <trkpt lat="47.74495" lon="-3.35338">
        <ele>11.6</ele>
        <time>2020-08-21T13:43:57.000Z</time>
      </trkpt>
      <trkpt lat="47.74495" lon="-3.35339">
        <ele>11.6</ele>
        <time>2020-08-21T13:43:58.000Z</time>
      </trkpt>
      <trkpt lat="47.74495" lon="-3.3534">
        <ele>11.6</ele>
        <time>2020-08-21T13:43:59.000Z</time>
      </trkpt>
      <trkpt lat="47.74496" lon="-3.35341">
        <ele>11.6</ele>
        <time>2020-08-21T13:44:00.000Z</time>
      </trkpt>
      <trkpt lat="47.74496" lon="-3.35342">
        <ele>11.6</ele>
        <time>2020-08-21T13:44:01.000Z</time>
      </trkpt>
      <trkpt lat="47.74496" lon="-3.35344">
        <ele>11.7</ele>
        <time>2020-08-21T13:44:02.000Z</time>
      </trkpt>
      <trkpt lat="47.74496" lon="-3.35345">
        <ele>11.7</ele>
        <time>2020-08-21T13:44:03.000Z</time>
      </trkpt>
      <trkpt lat="47.74496" lon="-3.35346">
        <ele>11.7</ele>
        <time>2020-08-21T13:44:04.000Z</time>
      </trkpt>
      <trkpt lat="47.74496" lon="-3.35348">
        <ele>11.7</ele>
        <time>2020-08-21T13:44:05.000Z</time>
      </trkpt>
      <trkpt lat="47.74496" lon="-3.35349">
        <ele>11.7</ele>
        <time>2020-08-21T13:44:06.000Z</time>
      </trkpt>
      <trkpt lat="47.74496" lon="-3.35351">
        <ele>11.7</ele>
        <time>2020-08-21T13:44:07.000Z</time>
      </trkpt>
      <trkpt lat="47.74496" lon="-3.35352">
        <ele>11.7</ele>
        <time>2020-08-21T13:44:08.000Z</time>
      </trkpt>
      <trkpt lat="47.74496" lon="-3.35354">
        <ele>11.7</ele>
        <time>2020-08-21T13:44:09.000Z</time>
      </trkpt>
      <trkpt lat="47.74496" lon="-3.35355">
        <ele>11.7</ele>
        <time>2020-08-21T13:44:10.000Z</time>
      </trkpt>
      <trkpt lat="47.74496" lon="-3.35357">
        <ele>11.7</ele>
        <time>2020-08-21T13:44:11.000Z</time>
      </trkpt>
      <trkpt lat="47.74496" lon="-3.35358">
        <ele>11.7</ele>
        <time>2020-08-21T13:44:12.000Z</time>
      </trkpt>
      <trkpt lat="47.74496" lon="-3.35359">
        <ele>11.7</ele>
        <time>2020-08-21T13:44:13.000Z</time>
      </trkpt>
      <trkpt lat="47.74496" lon="-3.3536">
        <ele>11.7</ele>
        <time>2020-08-21T13:44:14.000Z</time>
      </trkpt>
      <trkpt lat="47.74497" lon="-3.3536">
        <ele>11.7</ele>
        <time>2020-08-21T13:44:15.000Z</time>
      </trkpt>
      <trkpt lat="47.74497" lon="-3.35361">
        <ele>11.8</ele>
        <time>2020-08-21T13:44:16.000Z</time>
      </trkpt>
      <trkpt lat="47.74497" lon="-3.35361">
        <ele>11.8</ele>
        <time>2020-08-21T13:44:17.000Z</time>
      </trkpt>
      <trkpt lat="47.74497" lon="-3.35362">
        <ele>11.8</ele>
        <time>2020-08-21T13:44:18.000Z</time>
      </trkpt>
      <trkpt lat="47.74498" lon="-3.35362">
        <ele>11.8</ele>
        <time>2020-08-21T13:44:19.000Z</time>
      </trkpt>
      <trkpt lat="47.74498" lon="-3.35363">
        <ele>11.8</ele>
        <time>2020-08-21T13:44:20.000Z</time>
      </trkpt>
      <trkpt lat="47.74498" lon="-3.35363">
        <ele>11.8</ele>
        <time>2020-08-21T13:44:21.000Z</time>
      </trkpt>
      <trkpt lat="47.74498" lon="-3.35365">
        <ele>11.9</ele>
        <time>2020-08-21T13:44:22.000Z</time>
      </trkpt>
      <trkpt lat="47.74499" lon="-3.35366">
        <ele>11.9</ele>
        <time>2020-08-21T13:44:23.000Z</time>
      </trkpt>
      <trkpt lat="47.745" lon="-3.35367">
        <ele>12</ele>
        <time>2020-08-21T13:44:24.000Z</time>
      </trkpt>
      <trkpt lat="47.745" lon="-3.35368">
        <ele>12</ele>
        <time>2020-08-21T13:44:25.000Z</time>
      </trkpt>
      <trkpt lat="47.74501" lon="-3.35368">
        <ele>12</ele>
        <time>2020-08-21T13:44:26.000Z</time>
      </trkpt>
      <trkpt lat="47.74502" lon="-3.35368">
        <ele>12</ele>
        <time>2020-08-21T13:44:27.000Z</time>
      </trkpt>
      <trkpt lat="47.74502" lon="-3.35367">
        <ele>12</ele>
        <time>2020-08-21T13:44:28.000Z</time>
      </trkpt>
      <trkpt lat="47.74502" lon="-3.35366">
        <ele>11.9</ele>
        <time>2020-08-21T13:44:29.000Z</time>
      </trkpt>
      <trkpt lat="47.74502" lon="-3.35364">
        <ele>11.9</ele>
        <time>2020-08-21T13:44:30.000Z</time>
      </trkpt>
      <trkpt lat="47.74502" lon="-3.35363">
        <ele>11.9</ele>
        <time>2020-08-21T13:44:31.000Z</time>
      </trkpt>
      <trkpt lat="47.74502" lon="-3.35361">
        <ele>11.9</ele>
        <time>2020-08-21T13:44:32.000Z</time>
      </trkpt>
      <trkpt lat="47.74502" lon="-3.35359">
        <ele>11.9</ele>
        <time>2020-08-21T13:44:33.000Z</time>
      </trkpt>
      <trkpt lat="47.74502" lon="-3.35358">
        <ele>11.9</ele>
        <time>2020-08-21T13:44:34.000Z</time>
      </trkpt>
      <trkpt lat="47.74502" lon="-3.35356">
        <ele>11.9</ele>
        <time>2020-08-21T13:44:35.000Z</time>
      </trkpt>
      <trkpt lat="47.74502" lon="-3.35354">
        <ele>11.9</ele>
        <time>2020-08-21T13:44:36.000Z</time>
      </trkpt>
      <trkpt lat="47.74502" lon="-3.35353">
        <ele>11.9</ele>
        <time>2020-08-21T13:44:37.000Z</time>
      </trkpt>
      <trkpt lat="47.74502" lon="-3.35351">
        <ele>11.9</ele>
        <time>2020-08-21T13:44:38.000Z</time>
      </trkpt>
      <trkpt lat="47.74502" lon="-3.3535">
        <ele>11.9</ele>
        <time>2020-08-21T13:44:39.000Z</time>
      </trkpt>
      <trkpt lat="47.74503" lon="-3.35348">
        <ele>11.9</ele>
        <time>2020-08-21T13:44:40.000Z</time>
      </trkpt>
      <trkpt lat="47.74503" lon="-3.35347">
        <ele>11.9</ele>
        <time>2020-08-21T13:44:41.000Z</time>
      </trkpt>
      <trkpt lat="47.74503" lon="-3.35345">
        <ele>11.9</ele>
        <time>2020-08-21T13:44:42.000Z</time>
      </trkpt>
      <trkpt lat="47.74503" lon="-3.35344">
        <ele>11.9</ele>
        <time>2020-08-21T13:44:43.000Z</time>
      </trkpt>
      <trkpt lat="47.74503" lon="-3.35342">
        <ele>11.9</ele>
        <time>2020-08-21T13:44:44.000Z</time>
      </trkpt>
      <trkpt lat="47.74504" lon="-3.35341">
        <ele>11.9</ele>
        <time>2020-08-21T13:44:45.000Z</time>
      </trkpt>
      <trkpt lat="47.74504" lon="-3.35339">
        <ele>11.9</ele>
        <time>2020-08-21T13:44:46.000Z</time>
      </trkpt>
      <trkpt lat="47.74504" lon="-3.35338">
        <ele>11.9</ele>
        <time>2020-08-21T13:44:47.000Z</time>
      </trkpt>
      <trkpt lat="47.74504" lon="-3.35336">
        <ele>11.9</ele>
        <time>2020-08-21T13:44:48.000Z</time>
      </trkpt>
      <trkpt lat="47.74504" lon="-3.35335">
        <ele>11.8</ele>
        <time>2020-08-21T13:44:49.000Z</time>
      </trkpt>
      <trkpt lat="47.74505" lon="-3.35334">
        <ele>11.8</ele>
        <time>2020-08-21T13:44:50.000Z</time>
      </trkpt>
      <trkpt lat="47.74505" lon="-3.35333">
        <ele>11.8</ele>
        <time>2020-08-21T13:44:51.000Z</time>
      </trkpt>
      <trkpt lat="47.74505" lon="-3.35332">
        <ele>11.7</ele>
        <time>2020-08-21T13:44:52.000Z</time>
      </trkpt>
      <trkpt lat="47.74505" lon="-3.35331">
        <ele>11.7</ele>
        <time>2020-08-21T13:44:53.000Z</time>
      </trkpt>
      <trkpt lat="47.74506" lon="-3.3533">
        <ele>11.6</ele>
        <time>2020-08-21T13:44:54.000Z</time>
      </trkpt>
      <trkpt lat="47.74506" lon="-3.35329">
        <ele>11.6</ele>
        <time>2020-08-21T13:44:55.000Z</time>
      </trkpt>
      <trkpt lat="47.74506" lon="-3.35327">
        <ele>11.5</ele>
        <time>2020-08-21T13:44:56.000Z</time>
      </trkpt>
      <trkpt lat="47.74507" lon="-3.35326">
        <ele>11.4</ele>
        <time>2020-08-21T13:44:57.000Z</time>
      </trkpt>
      <trkpt lat="47.74507" lon="-3.35325">
        <ele>11.4</ele>
        <time>2020-08-21T13:44:58.000Z</time>
      </trkpt>
      <trkpt lat="47.74507" lon="-3.35324">
        <ele>11.3</ele>
        <time>2020-08-21T13:44:59.000Z</time>
      </trkpt>
      <trkpt lat="47.74507" lon="-3.35323">
        <ele>11.3</ele>
        <time>2020-08-21T13:45:00.000Z</time>
      </trkpt>
      <trkpt lat="47.74508" lon="-3.35322">
        <ele>11.2</ele>
        <time>2020-08-21T13:45:01.000Z</time>
      </trkpt>
      <trkpt lat="47.74508" lon="-3.35321">
        <ele>11.1</ele>
        <time>2020-08-21T13:45:02.000Z</time>
      </trkpt>
      <trkpt lat="47.74509" lon="-3.3532">
        <ele>11.1</ele>
        <time>2020-08-21T13:45:03.000Z</time>
      </trkpt>
      <trkpt lat="47.74509" lon="-3.35319">
        <ele>11</ele>
        <time>2020-08-21T13:45:04.000Z</time>
      </trkpt>
      <trkpt lat="47.7451" lon="-3.35318">
        <ele>10.9</ele>
        <time>2020-08-21T13:45:05.000Z</time>
      </trkpt>
      <trkpt lat="47.7451" lon="-3.35317">
        <ele>10.9</ele>
        <time>2020-08-21T13:45:06.000Z</time>
      </trkpt>
      <trkpt lat="47.74511" lon="-3.35316">
        <ele>10.8</ele>
        <time>2020-08-21T13:45:07.000Z</time>
      </trkpt>
      <trkpt lat="47.74512" lon="-3.35315">
        <ele>10.7</ele>
        <time>2020-08-21T13:45:08.000Z</time>
      </trkpt>
      <trkpt lat="47.74512" lon="-3.35314">
        <ele>10.7</ele>
        <time>2020-08-21T13:45:09.000Z</time>
      </trkpt>
      <trkpt lat="47.74513" lon="-3.35313">
        <ele>10.6</ele>
        <time>2020-08-21T13:45:10.000Z</time>
      </trkpt>
      <trkpt lat="47.74514" lon="-3.35312">
        <ele>10.5</ele>
        <time>2020-08-21T13:45:11.000Z</time>
      </trkpt>
      <trkpt lat="47.74515" lon="-3.35311">
        <ele>10.4</ele>
        <time>2020-08-21T13:45:12.000Z</time>
      </trkpt>
      <trkpt lat="47.74515" lon="-3.3531">
        <ele>10.4</ele>
        <time>2020-08-21T13:45:13.000Z</time>
      </trkpt>
      <trkpt lat="47.74516" lon="-3.35309">
        <ele>10.3</ele>
        <time>2020-08-21T13:45:14.000Z</time>
      </trkpt>
      <trkpt lat="47.74517" lon="-3.35308">
        <ele>10.2</ele>
        <time>2020-08-21T13:45:15.000Z</time>
      </trkpt>
      <trkpt lat="47.74518" lon="-3.35307">
        <ele>10.2</ele>
        <time>2020-08-21T13:45:16.000Z</time>
      </trkpt>
      <trkpt lat="47.74519" lon="-3.35306">
        <ele>10.1</ele>
        <time>2020-08-21T13:45:17.000Z</time>
      </trkpt>
      <trkpt lat="47.7452" lon="-3.35306">
        <ele>10</ele>
        <time>2020-08-21T13:45:18.000Z</time>
      </trkpt>
      <trkpt lat="47.7452" lon="-3.35305">
        <ele>10</ele>
        <time>2020-08-21T13:45:19.000Z</time>
      </trkpt>
      <trkpt lat="47.74521" lon="-3.35304">
        <ele>9.9</ele>
        <time>2020-08-21T13:45:20.000Z</time>
      </trkpt>
      <trkpt lat="47.74522" lon="-3.35303">
        <ele>9.9</ele>
        <time>2020-08-21T13:45:21.000Z</time>
      </trkpt>
      <trkpt lat="47.74523" lon="-3.35303">
        <ele>9.8</ele>
        <time>2020-08-21T13:45:22.000Z</time>
      </trkpt>
      <trkpt lat="47.74524" lon="-3.35302">
        <ele>9.7</ele>
        <time>2020-08-21T13:45:23.000Z</time>
      </trkpt>
      <trkpt lat="47.74525" lon="-3.35302">
        <ele>9.7</ele>
        <time>2020-08-21T13:45:24.000Z</time>
      </trkpt>
      <trkpt lat="47.74526" lon="-3.35301">
        <ele>9.7</ele>
        <time>2020-08-21T13:45:25.000Z</time>
      </trkpt>
      <trkpt lat="47.74526" lon="-3.35301">
        <ele>9.6</ele>
        <time>2020-08-21T13:45:26.000Z</time>
      </trkpt>
      <trkpt lat="47.74527" lon="-3.35301">
        <ele>9.6</ele>
        <time>2020-08-21T13:45:27.000Z</time>
      </trkpt>
      <trkpt lat="47.74528" lon="-3.35301">
        <ele>9.6</ele>
        <time>2020-08-21T13:45:28.000Z</time>
      </trkpt>
      <trkpt lat="47.74529" lon="-3.35302">
        <ele>9.6</ele>
        <time>2020-08-21T13:45:29.000Z</time>
      </trkpt>
      <trkpt lat="47.7453" lon="-3.35302">
        <ele>9.6</ele>
        <time>2020-08-21T13:45:30.000Z</time>
      </trkpt>
      <trkpt lat="47.74531" lon="-3.35303">
        <ele>9.6</ele>
        <time>2020-08-21T13:45:31.000Z</time>
      </trkpt>
      <trkpt lat="47.74531" lon="-3.35304">
        <ele>9.6</ele>
        <time>2020-08-21T13:45:32.000Z</time>
      </trkpt>
      <trkpt lat="47.74532" lon="-3.35305">
        <ele>9.6</ele>
        <time>2020-08-21T13:45:33.000Z</time>
      </trkpt>
      <trkpt lat="47.74533" lon="-3.35306">
        <ele>9.6</ele>
        <time>2020-08-21T13:45:34.000Z</time>
      </trkpt>
      <trkpt lat="47.74533" lon="-3.35307">
        <ele>9.6</ele>
        <time>2020-08-21T13:45:35.000Z</time>
      </trkpt>
      <trkpt lat="47.74534" lon="-3.35308">
        <ele>9.7</ele>
        <time>2020-08-21T13:45:36.000Z</time>
      </trkpt>
      <trkpt lat="47.74534" lon="-3.35308">
        <ele>9.7</ele>
        <time>2020-08-21T13:45:37.000Z</time>
      </trkpt>
      <trkpt lat="47.74534" lon="-3.35308">
        <ele>9.7</ele>
        <time>2020-08-21T13:45:38.000Z</time>
      </trkpt>
      <trkpt lat="47.74534" lon="-3.35309">
        <ele>9.7</ele>
        <time>2020-08-21T13:45:39.000Z</time>
      </trkpt>
      <trkpt lat="47.74535" lon="-3.35309">
        <ele>9.7</ele>
        <time>2020-08-21T13:45:40.000Z</time>
      </trkpt>
      <trkpt lat="47.74535" lon="-3.3531">
        <ele>9.7</ele>
        <time>2020-08-21T13:45:41.000Z</time>
      </trkpt>
      <trkpt lat="47.74535" lon="-3.35311">
        <ele>9.8</ele>
        <time>2020-08-21T13:45:42.000Z</time>
      </trkpt>
      <trkpt lat="47.74536" lon="-3.35312">
        <ele>9.8</ele>
        <time>2020-08-21T13:45:43.000Z</time>
      </trkpt>
      <trkpt lat="47.74536" lon="-3.35314">
        <ele>9.9</ele>
        <time>2020-08-21T13:45:44.000Z</time>
      </trkpt>
      <trkpt lat="47.74536" lon="-3.35315">
        <ele>9.9</ele>
        <time>2020-08-21T13:45:45.000Z</time>
      </trkpt>
      <trkpt lat="47.74537" lon="-3.35316">
        <ele>9.9</ele>
        <time>2020-08-21T13:45:46.000Z</time>
      </trkpt>
      <trkpt lat="47.74537" lon="-3.35317">
        <ele>10</ele>
        <time>2020-08-21T13:45:47.000Z</time>
      </trkpt>
      <trkpt lat="47.74537" lon="-3.35318">
        <ele>10</ele>
        <time>2020-08-21T13:45:48.000Z</time>
      </trkpt>
      <trkpt lat="47.74537" lon="-3.35318">
        <ele>10</ele>
        <time>2020-08-21T13:45:49.000Z</time>
      </trkpt>
      <trkpt lat="47.74538" lon="-3.35319">
        <ele>10</ele>
        <time>2020-08-21T13:45:50.000Z</time>
      </trkpt>
      <trkpt lat="47.74538" lon="-3.35319">
        <ele>10.1</ele>
        <time>2020-08-21T13:45:51.000Z</time>
      </trkpt>
      <trkpt lat="47.74538" lon="-3.3532">
        <ele>10.1</ele>
        <time>2020-08-21T13:45:52.000Z</time>
      </trkpt>
      <trkpt lat="47.74538" lon="-3.35321">
        <ele>10.1</ele>
        <time>2020-08-21T13:45:53.000Z</time>
      </trkpt>
      <trkpt lat="47.74538" lon="-3.35322">
        <ele>10.2</ele>
        <time>2020-08-21T13:45:54.000Z</time>
      </trkpt>
      <trkpt lat="47.74537" lon="-3.35323">
        <ele>10.2</ele>
        <time>2020-08-21T13:45:55.000Z</time>
      </trkpt>
      <trkpt lat="47.74537" lon="-3.35324">
        <ele>10.3</ele>
        <time>2020-08-21T13:45:56.000Z</time>
      </trkpt>
      <trkpt lat="47.74537" lon="-3.35325">
        <ele>10.3</ele>
        <time>2020-08-21T13:45:57.000Z</time>
      </trkpt>
      <trkpt lat="47.74536" lon="-3.35327">
        <ele>10.4</ele>
        <time>2020-08-21T13:45:58.000Z</time>
      </trkpt>
      <trkpt lat="47.74536" lon="-3.35328">
        <ele>10.5</ele>
        <time>2020-08-21T13:45:59.000Z</time>
      </trkpt>
      <trkpt lat="47.74535" lon="-3.35329">
        <ele>10.6</ele>
        <time>2020-08-21T13:46:00.000Z</time>
      </trkpt>
      <trkpt lat="47.74534" lon="-3.35331">
        <ele>10.7</ele>
        <time>2020-08-21T13:46:01.000Z</time>
      </trkpt>
      <trkpt lat="47.74534" lon="-3.35332">
        <ele>10.7</ele>
        <time>2020-08-21T13:46:02.000Z</time>
      </trkpt>
      <trkpt lat="47.74533" lon="-3.35333">
        <ele>10.8</ele>
        <time>2020-08-21T13:46:03.000Z</time>
      </trkpt>
      <trkpt lat="47.74533" lon="-3.35334">
        <ele>10.8</ele>
        <time>2020-08-21T13:46:04.000Z</time>
      </trkpt>
      <trkpt lat="47.74532" lon="-3.35335">
        <ele>10.9</ele>
        <time>2020-08-21T13:46:05.000Z</time>
      </trkpt>
      <trkpt lat="47.74532" lon="-3.35336">
        <ele>10.9</ele>
        <time>2020-08-21T13:46:06.000Z</time>
      </trkpt>
      <trkpt lat="47.74531" lon="-3.35337">
        <ele>10.9</ele>
        <time>2020-08-21T13:46:07.000Z</time>
      </trkpt>
      <trkpt lat="47.74531" lon="-3.35337">
        <ele>10.9</ele>
        <time>2020-08-21T13:46:08.000Z</time>
      </trkpt>
      <trkpt lat="47.74531" lon="-3.35337">
        <ele>10.9</ele>
        <time>2020-08-21T13:46:09.000Z</time>
      </trkpt>
      <trkpt lat="47.74531" lon="-3.35338">
        <ele>10.9</ele>
        <time>2020-08-21T13:46:10.000Z</time>
      </trkpt>
      <trkpt lat="47.74531" lon="-3.35338">
        <ele>10.9</ele>
        <time>2020-08-21T13:46:11.000Z</time>
      </trkpt>
      <trkpt lat="47.74531" lon="-3.35338">
        <ele>10.9</ele>
        <time>2020-08-21T13:46:12.000Z</time>
      </trkpt>
      <trkpt lat="47.74531" lon="-3.35338">
        <ele>10.9</ele>
        <time>2020-08-21T13:46:13.000Z</time>
      </trkpt>
      <trkpt lat="47.74531" lon="-3.35337">
        <ele>10.9</ele>
        <time>2020-08-21T13:46:14.000Z</time>
      </trkpt>
      <trkpt lat="47.74531" lon="-3.35337">
        <ele>10.9</ele>
        <time>2020-08-21T13:46:15.000Z</time>
      </trkpt>
      <trkpt lat="47.74531" lon="-3.35337">
        <ele>10.9</ele>
        <time>2020-08-21T13:46:16.000Z</time>
      </trkpt>
      <trkpt lat="47.74531" lon="-3.35337">
        <ele>10.9</ele>
        <time>2020-08-21T13:46:17.000Z</time>
      </trkpt>
      <trkpt lat="47.74531" lon="-3.35337">
        <ele>10.9</ele>
        <time>2020-08-21T13:46:18.000Z</time>
      </trkpt>
      <trkpt lat="47.74531" lon="-3.35338">
        <ele>10.9</ele>
        <time>2020-08-21T13:46:19.000Z</time>
      </trkpt>
      <trkpt lat="47.7453" lon="-3.35338">
        <ele>10.9</ele>
        <time>2020-08-21T13:46:20.000Z</time>
      </trkpt>
      <trkpt lat="47.7453" lon="-3.35338">
        <ele>11</ele>
        <time>2020-08-21T13:46:21.000Z</time>
      </trkpt>
      <trkpt lat="47.74529" lon="-3.35339">
        <ele>11</ele>
        <time>2020-08-21T13:46:22.000Z</time>
      </trkpt>
      <trkpt lat="47.74529" lon="-3.3534">
        <ele>11</ele>
        <time>2020-08-21T13:46:23.000Z</time>
      </trkpt>
      <trkpt lat="47.74528" lon="-3.3534">
        <ele>11.1</ele>
        <time>2020-08-21T13:46:24.000Z</time>
      </trkpt>
      <trkpt lat="47.74527" lon="-3.35341">
        <ele>11.1</ele>
        <time>2020-08-21T13:46:25.000Z</time>
      </trkpt>
      <trkpt lat="47.74526" lon="-3.35342">
        <ele>11.1</ele>
        <time>2020-08-21T13:46:26.000Z</time>
      </trkpt>
      <trkpt lat="47.74526" lon="-3.35343">
        <ele>11.1</ele>
        <time>2020-08-21T13:46:27.000Z</time>
      </trkpt>
      <trkpt lat="47.74525" lon="-3.35343">
        <ele>11.2</ele>
        <time>2020-08-21T13:46:28.000Z</time>
      </trkpt>
      <trkpt lat="47.74524" lon="-3.35344">
        <ele>11.2</ele>
        <time>2020-08-21T13:46:29.000Z</time>
      </trkpt>
      <trkpt lat="47.74524" lon="-3.35345">
        <ele>11.2</ele>
        <time>2020-08-21T13:46:30.000Z</time>
      </trkpt>
      <trkpt lat="47.74524" lon="-3.35345">
        <ele>11.2</ele>
        <time>2020-08-21T13:46:31.000Z</time>
      </trkpt>
      <trkpt lat="47.74523" lon="-3.35346">
        <ele>11.2</ele>
        <time>2020-08-21T13:46:32.000Z</time>
      </trkpt>
      <trkpt lat="47.74523" lon="-3.35346">
        <ele>11.3</ele>
        <time>2020-08-21T13:46:33.000Z</time>
      </trkpt>
      <trkpt lat="47.74523" lon="-3.35346">
        <ele>11.3</ele>
        <time>2020-08-21T13:46:34.000Z</time>
      </trkpt>
      <trkpt lat="47.74523" lon="-3.35346">
        <ele>11.3</ele>
        <time>2020-08-21T13:46:35.000Z</time>
      </trkpt>
      <trkpt lat="47.74523" lon="-3.35346">
        <ele>11.3</ele>
        <time>2020-08-21T13:46:36.000Z</time>
      </trkpt>
      <trkpt lat="47.74523" lon="-3.35346">
        <ele>11.3</ele>
        <time>2020-08-21T13:46:37.000Z</time>
      </trkpt>
      <trkpt lat="47.74523" lon="-3.35346">
        <ele>11.3</ele>
        <time>2020-08-21T13:46:38.000Z</time>
      </trkpt>
      <trkpt lat="47.74523" lon="-3.35346">
        <ele>11.3</ele>
        <time>2020-08-21T13:46:39.000Z</time>
      </trkpt>
      <trkpt lat="47.74523" lon="-3.35346">
        <ele>11.3</ele>
        <time>2020-08-21T13:46:40.000Z</time>
      </trkpt>
      <trkpt lat="47.74523" lon="-3.35346">
        <ele>11.3</ele>
        <time>2020-08-21T13:46:41.000Z</time>
      </trkpt>
      <trkpt lat="47.74523" lon="-3.35346">
        <ele>11.2</ele>
        <time>2020-08-21T13:46:42.000Z</time>
      </trkpt>
      <trkpt lat="47.74523" lon="-3.35346">
        <ele>11.2</ele>
        <time>2020-08-21T13:46:43.000Z</time>
      </trkpt>
      <trkpt lat="47.74523" lon="-3.35346">
        <ele>11.2</ele>
        <time>2020-08-21T13:46:44.000Z</time>
      </trkpt>
      <trkpt lat="47.74523" lon="-3.35346">
        <ele>11.2</ele>
        <time>2020-08-21T13:46:45.000Z</time>
      </trkpt>
      <trkpt lat="47.74523" lon="-3.35346">
        <ele>11.3</ele>
        <time>2020-08-21T13:46:46.000Z</time>
      </trkpt>
      <trkpt lat="47.74523" lon="-3.35346">
        <ele>11.3</ele>
        <time>2020-08-21T13:46:47.000Z</time>
      </trkpt>
      <trkpt lat="47.74523" lon="-3.35346">
        <ele>11.3</ele>
        <time>2020-08-21T13:46:48.000Z</time>
      </trkpt>
      <trkpt lat="47.74523" lon="-3.35346">
        <ele>11.3</ele>
        <time>2020-08-21T13:46:49.000Z</time>
      </trkpt>
      <trkpt lat="47.74523" lon="-3.35347">
        <ele>11.3</ele>
        <time>2020-08-21T13:46:50.000Z</time>
      </trkpt>
      <trkpt lat="47.74523" lon="-3.35347">
        <ele>11.2</ele>
        <time>2020-08-21T13:46:51.000Z</time>
      </trkpt>
      <trkpt lat="47.74524" lon="-3.35347">
        <ele>11.2</ele>
        <time>2020-08-21T13:46:52.000Z</time>
      </trkpt>
      <trkpt lat="47.74524" lon="-3.35347">
        <ele>11.2</ele>
        <time>2020-08-21T13:46:53.000Z</time>
      </trkpt>
      <trkpt lat="47.74525" lon="-3.35347">
        <ele>11.2</ele>
        <time>2020-08-21T13:46:54.000Z</time>
      </trkpt>
      <trkpt lat="47.74526" lon="-3.35348">
        <ele>11.2</ele>
        <time>2020-08-21T13:46:55.000Z</time>
      </trkpt>
      <trkpt lat="47.74527" lon="-3.35348">
        <ele>11.2</ele>
        <time>2020-08-21T13:46:56.000Z</time>
      </trkpt>
      <trkpt lat="47.74528" lon="-3.35349">
        <ele>11.1</ele>
        <time>2020-08-21T13:46:57.000Z</time>
      </trkpt>
      <trkpt lat="47.74528" lon="-3.35349">
        <ele>11.1</ele>
        <time>2020-08-21T13:46:58.000Z</time>
      </trkpt>
      <trkpt lat="47.74529" lon="-3.3535">
        <ele>11.1</ele>
        <time>2020-08-21T13:46:59.000Z</time>
      </trkpt>
      <trkpt lat="47.7453" lon="-3.35351">
        <ele>11.1</ele>
        <time>2020-08-21T13:47:00.000Z</time>
      </trkpt>
      <trkpt lat="47.74531" lon="-3.35352">
        <ele>11.1</ele>
        <time>2020-08-21T13:47:01.000Z</time>
      </trkpt>
      <trkpt lat="47.74531" lon="-3.35354">
        <ele>11.1</ele>
        <time>2020-08-21T13:47:02.000Z</time>
      </trkpt>
      <trkpt lat="47.74532" lon="-3.35355">
        <ele>11.1</ele>
        <time>2020-08-21T13:47:03.000Z</time>
      </trkpt>
      <trkpt lat="47.74532" lon="-3.35357">
        <ele>11.1</ele>
        <time>2020-08-21T13:47:04.000Z</time>
      </trkpt>
      <trkpt lat="47.74533" lon="-3.35358">
        <ele>11.1</ele>
        <time>2020-08-21T13:47:05.000Z</time>
      </trkpt>
      <trkpt lat="47.74533" lon="-3.3536">
        <ele>11.1</ele>
        <time>2020-08-21T13:47:06.000Z</time>
      </trkpt>
      <trkpt lat="47.74533" lon="-3.35361">
        <ele>11.1</ele>
        <time>2020-08-21T13:47:07.000Z</time>
      </trkpt>
      <trkpt lat="47.74534" lon="-3.35362">
        <ele>11.1</ele>
        <time>2020-08-21T13:47:08.000Z</time>
      </trkpt>
      <trkpt lat="47.74534" lon="-3.35364">
        <ele>11.1</ele>
        <time>2020-08-21T13:47:09.000Z</time>
      </trkpt>
      <trkpt lat="47.74534" lon="-3.35365">
        <ele>11.1</ele>
        <time>2020-08-21T13:47:10.000Z</time>
      </trkpt>
      <trkpt lat="47.74534" lon="-3.35366">
        <ele>11.1</ele>
        <time>2020-08-21T13:47:11.000Z</time>
      </trkpt>
      <trkpt lat="47.74534" lon="-3.35367">
        <ele>11.1</ele>
        <time>2020-08-21T13:47:12.000Z</time>
      </trkpt>
      <trkpt lat="47.74534" lon="-3.35368">
        <ele>11.1</ele>
        <time>2020-08-21T13:47:13.000Z</time>
      </trkpt>
      <trkpt lat="47.74534" lon="-3.35369">
        <ele>11.1</ele>
        <time>2020-08-21T13:47:14.000Z</time>
      </trkpt>
      <trkpt lat="47.74535" lon="-3.35369">
        <ele>11.1</ele>
        <time>2020-08-21T13:47:15.000Z</time>
      </trkpt>
      <trkpt lat="47.74535" lon="-3.3537">
        <ele>11.1</ele>
        <time>2020-08-21T13:47:16.000Z</time>
      </trkpt>
      <trkpt lat="47.74535" lon="-3.3537">
        <ele>11.1</ele>
        <time>2020-08-21T13:47:17.000Z</time>
      </trkpt>
      <trkpt lat="47.74535" lon="-3.35371">
        <ele>11.1</ele>
        <time>2020-08-21T13:47:18.000Z</time>
      </trkpt>
      <trkpt lat="47.74536" lon="-3.35371">
        <ele>11.1</ele>
        <time>2020-08-21T13:47:19.000Z</time>
      </trkpt>
      <trkpt lat="47.74536" lon="-3.35372">
        <ele>11.1</ele>
        <time>2020-08-21T13:47:20.000Z</time>
      </trkpt>
      <trkpt lat="47.74536" lon="-3.35372">
        <ele>11.1</ele>
        <time>2020-08-21T13:47:21.000Z</time>
      </trkpt>
      <trkpt lat="47.74537" lon="-3.35373">
        <ele>11.1</ele>
        <time>2020-08-21T13:47:22.000Z</time>
      </trkpt>
      <trkpt lat="47.74537" lon="-3.35373">
        <ele>11.1</ele>
        <time>2020-08-21T13:47:23.000Z</time>
      </trkpt>
      <trkpt lat="47.74537" lon="-3.35374">
        <ele>11.1</ele>
        <time>2020-08-21T13:47:24.000Z</time>
      </trkpt>
      <trkpt lat="47.74537" lon="-3.35375">
        <ele>11.1</ele>
        <time>2020-08-21T13:47:25.000Z</time>
      </trkpt>
      <trkpt lat="47.74538" lon="-3.35376">
        <ele>11.1</ele>
        <time>2020-08-21T13:47:26.000Z</time>
      </trkpt>
      <trkpt lat="47.74538" lon="-3.35377">
        <ele>11.1</ele>
        <time>2020-08-21T13:47:27.000Z</time>
      </trkpt>
      <trkpt lat="47.74538" lon="-3.35378">
        <ele>11.1</ele>
        <time>2020-08-21T13:47:28.000Z</time>
      </trkpt>
      <trkpt lat="47.74539" lon="-3.3538">
        <ele>11.1</ele>
        <time>2020-08-21T13:47:29.000Z</time>
      </trkpt>
      <trkpt lat="47.74539" lon="-3.35381">
        <ele>11.1</ele>
        <time>2020-08-21T13:47:30.000Z</time>
      </trkpt>
      <trkpt lat="47.7454" lon="-3.35382">
        <ele>11.1</ele>
        <time>2020-08-21T13:47:31.000Z</time>
      </trkpt>
      <trkpt lat="47.7454" lon="-3.35384">
        <ele>11.1</ele>
        <time>2020-08-21T13:47:32.000Z</time>
      </trkpt>
      <trkpt lat="47.74541" lon="-3.35385">
        <ele>11.1</ele>
        <time>2020-08-21T13:47:33.000Z</time>
      </trkpt>
      <trkpt lat="47.74541" lon="-3.35387">
        <ele>11.2</ele>
        <time>2020-08-21T13:47:34.000Z</time>
      </trkpt>
      <trkpt lat="47.74542" lon="-3.35388">
        <ele>11.2</ele>
        <time>2020-08-21T13:47:35.000Z</time>
      </trkpt>
      <trkpt lat="47.74542" lon="-3.3539">
        <ele>11.2</ele>
        <time>2020-08-21T13:47:36.000Z</time>
      </trkpt>
      <trkpt lat="47.74543" lon="-3.35391">
        <ele>11.2</ele>
        <time>2020-08-21T13:47:37.000Z</time>
      </trkpt>
      <trkpt lat="47.74543" lon="-3.35392">
        <ele>11.2</ele>
        <time>2020-08-21T13:47:38.000Z</time>
      </trkpt>
      <trkpt lat="47.74543" lon="-3.35393">
        <ele>11.2</ele>
        <time>2020-08-21T13:47:39.000Z</time>
      </trkpt>
      <trkpt lat="47.74543" lon="-3.35395">
        <ele>11.2</ele>
        <time>2020-08-21T13:47:40.000Z</time>
      </trkpt>
      <trkpt lat="47.74543" lon="-3.35396">
        <ele>11.2</ele>
        <time>2020-08-21T13:47:41.000Z</time>
      </trkpt>
      <trkpt lat="47.74543" lon="-3.35397">
        <ele>11.2</ele>
        <time>2020-08-21T13:47:42.000Z</time>
      </trkpt>
      <trkpt lat="47.74543" lon="-3.35399">
        <ele>11.3</ele>
        <time>2020-08-21T13:47:43.000Z</time>
      </trkpt>
      <trkpt lat="47.74542" lon="-3.354">
        <ele>11.3</ele>
        <time>2020-08-21T13:47:44.000Z</time>
      </trkpt>
      <trkpt lat="47.74542" lon="-3.35401">
        <ele>11.3</ele>
        <time>2020-08-21T13:47:45.000Z</time>
      </trkpt>
      <trkpt lat="47.74541" lon="-3.35403">
        <ele>11.3</ele>
        <time>2020-08-21T13:47:46.000Z</time>
      </trkpt>
      <trkpt lat="47.7454" lon="-3.35404">
        <ele>11.4</ele>
        <time>2020-08-21T13:47:47.000Z</time>
      </trkpt>
      <trkpt lat="47.7454" lon="-3.35406">
        <ele>11.4</ele>
        <time>2020-08-21T13:47:48.000Z</time>
      </trkpt>
      <trkpt lat="47.74539" lon="-3.35407">
        <ele>11.4</ele>
        <time>2020-08-21T13:47:49.000Z</time>
      </trkpt>
      <trkpt lat="47.74538" lon="-3.35408">
        <ele>11.5</ele>
        <time>2020-08-21T13:47:50.000Z</time>
      </trkpt>
      <trkpt lat="47.74537" lon="-3.3541">
        <ele>11.5</ele>
        <time>2020-08-21T13:47:51.000Z</time>
      </trkpt>
      <trkpt lat="47.74537" lon="-3.35411">
        <ele>11.5</ele>
        <time>2020-08-21T13:47:52.000Z</time>
      </trkpt>
      <trkpt lat="47.74536" lon="-3.35412">
        <ele>11.5</ele>
        <time>2020-08-21T13:47:53.000Z</time>
      </trkpt>
      <trkpt lat="47.74536" lon="-3.35414">
        <ele>11.5</ele>
        <time>2020-08-21T13:47:54.000Z</time>
      </trkpt>
      <trkpt lat="47.74536" lon="-3.35415">
        <ele>11.6</ele>
        <time>2020-08-21T13:47:55.000Z</time>
      </trkpt>
      <trkpt lat="47.74535" lon="-3.35417">
        <ele>11.6</ele>
        <time>2020-08-21T13:47:56.000Z</time>
      </trkpt>
      <trkpt lat="47.74536" lon="-3.35419">
        <ele>11.6</ele>
        <time>2020-08-21T13:47:57.000Z</time>
      </trkpt>
      <trkpt lat="47.74536" lon="-3.35421">
        <ele>11.5</ele>
        <time>2020-08-21T13:47:58.000Z</time>
      </trkpt>
      <trkpt lat="47.74536" lon="-3.35422">
        <ele>11.5</ele>
        <time>2020-08-21T13:47:59.000Z</time>
      </trkpt>
      <trkpt lat="47.74536" lon="-3.35423">
        <ele>11.5</ele>
        <time>2020-08-21T13:48:00.000Z</time>
      </trkpt>
      <trkpt lat="47.74536" lon="-3.35423">
        <ele>11.5</ele>
        <time>2020-08-21T13:48:01.000Z</time>
      </trkpt>
      <trkpt lat="47.74536" lon="-3.35423">
        <ele>11.5</ele>
        <time>2020-08-21T13:48:02.000Z</time>
      </trkpt>
      <trkpt lat="47.74536" lon="-3.35423">
        <ele>11.5</ele>
        <time>2020-08-21T13:48:03.000Z</time>
      </trkpt>
      <trkpt lat="47.74536" lon="-3.35424">
        <ele>11.5</ele>
        <time>2020-08-21T13:48:04.000Z</time>
      </trkpt>
      <trkpt lat="47.74536" lon="-3.35424">
        <ele>11.5</ele>
        <time>2020-08-21T13:48:05.000Z</time>
      </trkpt>
      <trkpt lat="47.74536" lon="-3.35425">
        <ele>11.5</ele>
        <time>2020-08-21T13:48:06.000Z</time>
      </trkpt>
      <trkpt lat="47.74537" lon="-3.35426">
        <ele>11.5</ele>
        <time>2020-08-21T13:48:07.000Z</time>
      </trkpt>
      <trkpt lat="47.74537" lon="-3.35427">
        <ele>11.5</ele>
        <time>2020-08-21T13:48:08.000Z</time>
      </trkpt>
      <trkpt lat="47.74538" lon="-3.35429">
        <ele>11.5</ele>
        <time>2020-08-21T13:48:09.000Z</time>
      </trkpt>
      <trkpt lat="47.74539" lon="-3.35431">
        <ele>11.4</ele>
        <time>2020-08-21T13:48:10.000Z</time>
      </trkpt>
      <trkpt lat="47.7454" lon="-3.35432">
        <ele>11.4</ele>
        <time>2020-08-21T13:48:11.000Z</time>
      </trkpt>
      <trkpt lat="47.74541" lon="-3.35434">
        <ele>11.4</ele>
        <time>2020-08-21T13:48:12.000Z</time>
      </trkpt>
      <trkpt lat="47.74541" lon="-3.35435">
        <ele>11.4</ele>
        <time>2020-08-21T13:48:13.000Z</time>
      </trkpt>
      <trkpt lat="47.74542" lon="-3.35437">
        <ele>11.4</ele>
        <time>2020-08-21T13:48:14.000Z</time>
      </trkpt>
      <trkpt lat="47.74543" lon="-3.35438">
        <ele>11.4</ele>
        <time>2020-08-21T13:48:15.000Z</time>
      </trkpt>
      <trkpt lat="47.74544" lon="-3.3544">
        <ele>11.4</ele>
        <time>2020-08-21T13:48:16.000Z</time>
      </trkpt>
      <trkpt lat="47.74545" lon="-3.35441">
        <ele>11.3</ele>
        <time>2020-08-21T13:48:17.000Z</time>
      </trkpt>
      <trkpt lat="47.74546" lon="-3.35442">
        <ele>11.3</ele>
        <time>2020-08-21T13:48:18.000Z</time>
      </trkpt>
      <trkpt lat="47.74547" lon="-3.35444">
        <ele>11.3</ele>
        <time>2020-08-21T13:48:19.000Z</time>
      </trkpt>
      <trkpt lat="47.74548" lon="-3.35445">
        <ele>11.3</ele>
        <time>2020-08-21T13:48:20.000Z</time>
      </trkpt>
      <trkpt lat="47.74549" lon="-3.35446">
        <ele>11.3</ele>
        <time>2020-08-21T13:48:21.000Z</time>
      </trkpt>
      <trkpt lat="47.7455" lon="-3.35447">
        <ele>11.3</ele>
        <time>2020-08-21T13:48:22.000Z</time>
      </trkpt>
      <trkpt lat="47.74551" lon="-3.35448">
        <ele>11.3</ele>
        <time>2020-08-21T13:48:23.000Z</time>
      </trkpt>
      <trkpt lat="47.74552" lon="-3.35449">
        <ele>11.3</ele>
        <time>2020-08-21T13:48:24.000Z</time>
      </trkpt>
      <trkpt lat="47.74554" lon="-3.3545">
        <ele>11.3</ele>
        <time>2020-08-21T13:48:25.000Z</time>
      </trkpt>
      <trkpt lat="47.74555" lon="-3.35451">
        <ele>11.3</ele>
        <time>2020-08-21T13:48:26.000Z</time>
      </trkpt>
      <trkpt lat="47.74556" lon="-3.35451">
        <ele>11.3</ele>
        <time>2020-08-21T13:48:27.000Z</time>
      </trkpt>
      <trkpt lat="47.74557" lon="-3.35452">
        <ele>11.3</ele>
        <time>2020-08-21T13:48:28.000Z</time>
      </trkpt>
      <trkpt lat="47.74558" lon="-3.35453">
        <ele>11.3</ele>
        <time>2020-08-21T13:48:29.000Z</time>
      </trkpt>
      <trkpt lat="47.74559" lon="-3.35453">
        <ele>11.3</ele>
        <time>2020-08-21T13:48:30.000Z</time>
      </trkpt>
      <trkpt lat="47.7456" lon="-3.35454">
        <ele>11.4</ele>
        <time>2020-08-21T13:48:31.000Z</time>
      </trkpt>
      <trkpt lat="47.74561" lon="-3.35455">
        <ele>11.4</ele>
        <time>2020-08-21T13:48:32.000Z</time>
      </trkpt>
      <trkpt lat="47.74562" lon="-3.35455">
        <ele>11.4</ele>
        <time>2020-08-21T13:48:33.000Z</time>
      </trkpt>
      <trkpt lat="47.74563" lon="-3.35456">
        <ele>11.4</ele>
        <time>2020-08-21T13:48:34.000Z</time>
      </trkpt>
      <trkpt lat="47.74565" lon="-3.35457">
        <ele>11.4</ele>
        <time>2020-08-21T13:48:35.000Z</time>
      </trkpt>
      <trkpt lat="47.74566" lon="-3.35457">
        <ele>11.4</ele>
        <time>2020-08-21T13:48:36.000Z</time>
      </trkpt>
      <trkpt lat="47.74567" lon="-3.35458">
        <ele>11.4</ele>
        <time>2020-08-21T13:48:37.000Z</time>
      </trkpt>
      <trkpt lat="47.74568" lon="-3.35459">
        <ele>11.4</ele>
        <time>2020-08-21T13:48:38.000Z</time>
      </trkpt>
      <trkpt lat="47.74569" lon="-3.3546">
        <ele>11.4</ele>
        <time>2020-08-21T13:48:39.000Z</time>
      </trkpt>
      <trkpt lat="47.7457" lon="-3.35461">
        <ele>11.4</ele>
        <time>2020-08-21T13:48:40.000Z</time>
      </trkpt>
      <trkpt lat="47.74571" lon="-3.35462">
        <ele>11.4</ele>
        <time>2020-08-21T13:48:41.000Z</time>
      </trkpt>
      <trkpt lat="47.74571" lon="-3.35463">
        <ele>11.5</ele>
        <time>2020-08-21T13:48:42.000Z</time>
      </trkpt>
      <trkpt lat="47.74572" lon="-3.35464">
        <ele>11.5</ele>
        <time>2020-08-21T13:48:43.000Z</time>
      </trkpt>
      <trkpt lat="47.74573" lon="-3.35464">
        <ele>11.5</ele>
        <time>2020-08-21T13:48:44.000Z</time>
      </trkpt>
      <trkpt lat="47.74574" lon="-3.35465">
        <ele>11.5</ele>
        <time>2020-08-21T13:48:45.000Z</time>
      </trkpt>
      <trkpt lat="47.74576" lon="-3.35466">
        <ele>11.5</ele>
        <time>2020-08-21T13:48:46.000Z</time>
      </trkpt>
      <trkpt lat="47.74577" lon="-3.35467">
        <ele>11.5</ele>
        <time>2020-08-21T13:48:47.000Z</time>
      </trkpt>
      <trkpt lat="47.74578" lon="-3.35468">
        <ele>11.6</ele>
        <time>2020-08-21T13:48:48.000Z</time>
      </trkpt>
      <trkpt lat="47.74579" lon="-3.35468">
        <ele>11.6</ele>
        <time>2020-08-21T13:48:49.000Z</time>
      </trkpt>
      <trkpt lat="47.74581" lon="-3.35469">
        <ele>11.6</ele>
        <time>2020-08-21T13:48:50.000Z</time>
      </trkpt>
      <trkpt lat="47.74582" lon="-3.35469">
        <ele>11.6</ele>
        <time>2020-08-21T13:48:51.000Z</time>
      </trkpt>
      <trkpt lat="47.74583" lon="-3.3547">
        <ele>11.6</ele>
        <time>2020-08-21T13:48:52.000Z</time>
      </trkpt>
      <trkpt lat="47.74584" lon="-3.35471">
        <ele>11.6</ele>
        <time>2020-08-21T13:48:53.000Z</time>
      </trkpt>
      <trkpt lat="47.74585" lon="-3.35472">
        <ele>11.6</ele>
        <time>2020-08-21T13:48:54.000Z</time>
      </trkpt>
      <trkpt lat="47.74586" lon="-3.35473">
        <ele>11.6</ele>
        <time>2020-08-21T13:48:55.000Z</time>
      </trkpt>
      <trkpt lat="47.74586" lon="-3.35474">
        <ele>11.6</ele>
        <time>2020-08-21T13:48:56.000Z</time>
      </trkpt>
      <trkpt lat="47.74587" lon="-3.35475">
        <ele>11.6</ele>
        <time>2020-08-21T13:48:57.000Z</time>
      </trkpt>
      <trkpt lat="47.74587" lon="-3.35477">
        <ele>11.6</ele>
        <time>2020-08-21T13:48:58.000Z</time>
      </trkpt>
      <trkpt lat="47.74588" lon="-3.35478">
        <ele>11.6</ele>
        <time>2020-08-21T13:48:59.000Z</time>
      </trkpt>
      <trkpt lat="47.74588" lon="-3.3548">
        <ele>11.7</ele>
        <time>2020-08-21T13:49:00.000Z</time>
      </trkpt>
      <trkpt lat="47.74588" lon="-3.35482">
        <ele>11.7</ele>
        <time>2020-08-21T13:49:01.000Z</time>
      </trkpt>
      <trkpt lat="47.74588" lon="-3.35484">
        <ele>11.7</ele>
        <time>2020-08-21T13:49:02.000Z</time>
      </trkpt>
      <trkpt lat="47.74589" lon="-3.35486">
        <ele>11.7</ele>
        <time>2020-08-21T13:49:03.000Z</time>
      </trkpt>
      <trkpt lat="47.74589" lon="-3.35488">
        <ele>11.7</ele>
        <time>2020-08-21T13:49:04.000Z</time>
      </trkpt>
      <trkpt lat="47.74589" lon="-3.35489">
        <ele>11.8</ele>
        <time>2020-08-21T13:49:05.000Z</time>
      </trkpt>
      <trkpt lat="47.7459" lon="-3.35491">
        <ele>11.8</ele>
        <time>2020-08-21T13:49:06.000Z</time>
      </trkpt>
      <trkpt lat="47.7459" lon="-3.35493">
        <ele>11.8</ele>
        <time>2020-08-21T13:49:07.000Z</time>
      </trkpt>
      <trkpt lat="47.7459" lon="-3.35495">
        <ele>11.8</ele>
        <time>2020-08-21T13:49:08.000Z</time>
      </trkpt>
      <trkpt lat="47.74591" lon="-3.35497">
        <ele>11.9</ele>
        <time>2020-08-21T13:49:09.000Z</time>
      </trkpt>
      <trkpt lat="47.74591" lon="-3.35498">
        <ele>11.9</ele>
        <time>2020-08-21T13:49:10.000Z</time>
      </trkpt>
      <trkpt lat="47.74591" lon="-3.355">
        <ele>11.9</ele>
        <time>2020-08-21T13:49:11.000Z</time>
      </trkpt>
      <trkpt lat="47.74591" lon="-3.35501">
        <ele>11.9</ele>
        <time>2020-08-21T13:49:12.000Z</time>
      </trkpt>
      <trkpt lat="47.74592" lon="-3.35503">
        <ele>11.9</ele>
        <time>2020-08-21T13:49:13.000Z</time>
      </trkpt>
      <trkpt lat="47.74592" lon="-3.35504">
        <ele>11.9</ele>
        <time>2020-08-21T13:49:14.000Z</time>
      </trkpt>
      <trkpt lat="47.74592" lon="-3.35505">
        <ele>11.9</ele>
        <time>2020-08-21T13:49:15.000Z</time>
      </trkpt>
      <trkpt lat="47.74592" lon="-3.35507">
        <ele>11.9</ele>
        <time>2020-08-21T13:49:16.000Z</time>
      </trkpt>
      <trkpt lat="47.74592" lon="-3.35509">
        <ele>11.9</ele>
        <time>2020-08-21T13:49:17.000Z</time>
      </trkpt>
      <trkpt lat="47.74592" lon="-3.3551">
        <ele>11.9</ele>
        <time>2020-08-21T13:49:18.000Z</time>
      </trkpt>
      <trkpt lat="47.74592" lon="-3.35512">
        <ele>11.9</ele>
        <time>2020-08-21T13:49:19.000Z</time>
      </trkpt>
      <trkpt lat="47.74593" lon="-3.35513">
        <ele>11.9</ele>
        <time>2020-08-21T13:49:20.000Z</time>
      </trkpt>
      <trkpt lat="47.74593" lon="-3.35515">
        <ele>11.9</ele>
        <time>2020-08-21T13:49:21.000Z</time>
      </trkpt>
      <trkpt lat="47.74593" lon="-3.35516">
        <ele>12</ele>
        <time>2020-08-21T13:49:22.000Z</time>
      </trkpt>
      <trkpt lat="47.74593" lon="-3.35517">
        <ele>12</ele>
        <time>2020-08-21T13:49:23.000Z</time>
      </trkpt>
      <trkpt lat="47.74592" lon="-3.35518">
        <ele>12</ele>
        <time>2020-08-21T13:49:24.000Z</time>
      </trkpt>
      <trkpt lat="47.74592" lon="-3.35519">
        <ele>12</ele>
        <time>2020-08-21T13:49:25.000Z</time>
      </trkpt>
      <trkpt lat="47.74592" lon="-3.35519">
        <ele>12</ele>
        <time>2020-08-21T13:49:26.000Z</time>
      </trkpt>
      <trkpt lat="47.74592" lon="-3.35519">
        <ele>12</ele>
        <time>2020-08-21T13:49:27.000Z</time>
      </trkpt>
      <trkpt lat="47.74592" lon="-3.35519">
        <ele>12</ele>
        <time>2020-08-21T13:49:28.000Z</time>
      </trkpt>
      <trkpt lat="47.74592" lon="-3.3552">
        <ele>12</ele>
        <time>2020-08-21T13:49:29.000Z</time>
      </trkpt>
      <trkpt lat="47.74592" lon="-3.35521">
        <ele>12</ele>
        <time>2020-08-21T13:49:30.000Z</time>
      </trkpt>
      <trkpt lat="47.74592" lon="-3.35523">
        <ele>12</ele>
        <time>2020-08-21T13:49:31.000Z</time>
      </trkpt>
      <trkpt lat="47.74592" lon="-3.35524">
        <ele>12</ele>
        <time>2020-08-21T13:49:32.000Z</time>
      </trkpt>
      <trkpt lat="47.74592" lon="-3.35526">
        <ele>12</ele>
        <time>2020-08-21T13:49:33.000Z</time>
      </trkpt>
      <trkpt lat="47.74593" lon="-3.35528">
        <ele>12</ele>
        <time>2020-08-21T13:49:34.000Z</time>
      </trkpt>
      <trkpt lat="47.74593" lon="-3.3553">
        <ele>12</ele>
        <time>2020-08-21T13:49:35.000Z</time>
      </trkpt>
      <trkpt lat="47.74594" lon="-3.35531">
        <ele>12</ele>
        <time>2020-08-21T13:49:36.000Z</time>
      </trkpt>
      <trkpt lat="47.74594" lon="-3.35533">
        <ele>12</ele>
        <time>2020-08-21T13:49:37.000Z</time>
      </trkpt>
      <trkpt lat="47.74594" lon="-3.35535">
        <ele>12</ele>
        <time>2020-08-21T13:49:38.000Z</time>
      </trkpt>
      <trkpt lat="47.74595" lon="-3.35536">
        <ele>12</ele>
        <time>2020-08-21T13:49:39.000Z</time>
      </trkpt>
      <trkpt lat="47.74595" lon="-3.35538">
        <ele>12.1</ele>
        <time>2020-08-21T13:49:40.000Z</time>
      </trkpt>
      <trkpt lat="47.74595" lon="-3.3554">
        <ele>12.1</ele>
        <time>2020-08-21T13:49:41.000Z</time>
      </trkpt>
      <trkpt lat="47.74595" lon="-3.35542">
        <ele>12.1</ele>
        <time>2020-08-21T13:49:42.000Z</time>
      </trkpt>
      <trkpt lat="47.74595" lon="-3.35543">
        <ele>12.1</ele>
        <time>2020-08-21T13:49:43.000Z</time>
      </trkpt>
      <trkpt lat="47.74595" lon="-3.35545">
        <ele>12.1</ele>
        <time>2020-08-21T13:49:44.000Z</time>
      </trkpt>
      <trkpt lat="47.74596" lon="-3.35547">
        <ele>12.1</ele>
        <time>2020-08-21T13:49:45.000Z</time>
      </trkpt>
      <trkpt lat="47.74596" lon="-3.35549">
        <ele>12.1</ele>
        <time>2020-08-21T13:49:46.000Z</time>
      </trkpt>
      <trkpt lat="47.74596" lon="-3.35551">
        <ele>12.1</ele>
        <time>2020-08-21T13:49:47.000Z</time>
      </trkpt>
      <trkpt lat="47.74596" lon="-3.35553">
        <ele>12.1</ele>
        <time>2020-08-21T13:49:48.000Z</time>
      </trkpt>
      <trkpt lat="47.74596" lon="-3.35554">
        <ele>12.1</ele>
        <time>2020-08-21T13:49:49.000Z</time>
      </trkpt>
      <trkpt lat="47.74596" lon="-3.35556">
        <ele>12.2</ele>
        <time>2020-08-21T13:49:50.000Z</time>
      </trkpt>
      <trkpt lat="47.74596" lon="-3.35558">
        <ele>12.2</ele>
        <time>2020-08-21T13:49:51.000Z</time>
      </trkpt>
      <trkpt lat="47.74596" lon="-3.3556">
        <ele>12.2</ele>
        <time>2020-08-21T13:49:52.000Z</time>
      </trkpt>
      <trkpt lat="47.74596" lon="-3.35562">
        <ele>12.2</ele>
        <time>2020-08-21T13:49:53.000Z</time>
      </trkpt>
      <trkpt lat="47.74596" lon="-3.35564">
        <ele>12.2</ele>
        <time>2020-08-21T13:49:54.000Z</time>
      </trkpt>
      <trkpt lat="47.74596" lon="-3.35566">
        <ele>12.2</ele>
        <time>2020-08-21T13:49:55.000Z</time>
      </trkpt>
      <trkpt lat="47.74596" lon="-3.35568">
        <ele>12.2</ele>
        <time>2020-08-21T13:49:56.000Z</time>
      </trkpt>
      <trkpt lat="47.74596" lon="-3.3557">
        <ele>12.2</ele>
        <time>2020-08-21T13:49:57.000Z</time>
      </trkpt>
      <trkpt lat="47.74596" lon="-3.35571">
        <ele>12.2</ele>
        <time>2020-08-21T13:49:58.000Z</time>
      </trkpt>
      <trkpt lat="47.74596" lon="-3.35573">
        <ele>12.2</ele>
        <time>2020-08-21T13:49:59.000Z</time>
      </trkpt>
      <trkpt lat="47.74596" lon="-3.35575">
        <ele>12.3</ele>
        <time>2020-08-21T13:50:00.000Z</time>
      </trkpt>
      <trkpt lat="47.74596" lon="-3.35577">
        <ele>12.3</ele>
        <time>2020-08-21T13:50:01.000Z</time>
      </trkpt>
      <trkpt lat="47.74596" lon="-3.35579">
        <ele>12.3</ele>
        <time>2020-08-21T13:50:02.000Z</time>
      </trkpt>
      <trkpt lat="47.74596" lon="-3.35581">
        <ele>12.3</ele>
        <time>2020-08-21T13:50:03.000Z</time>
      </trkpt>
      <trkpt lat="47.74597" lon="-3.35583">
        <ele>12.3</ele>
        <time>2020-08-21T13:50:04.000Z</time>
      </trkpt>
      <trkpt lat="47.74597" lon="-3.35585">
        <ele>12.4</ele>
        <time>2020-08-21T13:50:05.000Z</time>
      </trkpt>
      <trkpt lat="47.74597" lon="-3.35587">
        <ele>12.4</ele>
        <time>2020-08-21T13:50:06.000Z</time>
      </trkpt>
      <trkpt lat="47.74597" lon="-3.35588">
        <ele>12.5</ele>
        <time>2020-08-21T13:50:07.000Z</time>
      </trkpt>
      <trkpt lat="47.74597" lon="-3.3559">
        <ele>12.6</ele>
        <time>2020-08-21T13:50:08.000Z</time>
      </trkpt>
      <trkpt lat="47.74598" lon="-3.35592">
        <ele>12.6</ele>
        <time>2020-08-21T13:50:09.000Z</time>
      </trkpt>
      <trkpt lat="47.74598" lon="-3.35594">
        <ele>12.7</ele>
        <time>2020-08-21T13:50:10.000Z</time>
      </trkpt>
      <trkpt lat="47.74598" lon="-3.35595">
        <ele>12.8</ele>
        <time>2020-08-21T13:50:11.000Z</time>
      </trkpt>
      <trkpt lat="47.74598" lon="-3.35596">
        <ele>12.8</ele>
        <time>2020-08-21T13:50:12.000Z</time>
      </trkpt>
      <trkpt lat="47.74599" lon="-3.35598">
        <ele>12.9</ele>
        <time>2020-08-21T13:50:13.000Z</time>
      </trkpt>
      <trkpt lat="47.74599" lon="-3.35599">
        <ele>12.9</ele>
        <time>2020-08-21T13:50:14.000Z</time>
      </trkpt>
      <trkpt lat="47.74599" lon="-3.356">
        <ele>13</ele>
        <time>2020-08-21T13:50:15.000Z</time>
      </trkpt>
      <trkpt lat="47.74599" lon="-3.356">
        <ele>13</ele>
        <time>2020-08-21T13:50:16.000Z</time>
      </trkpt>
      <trkpt lat="47.74599" lon="-3.35601">
        <ele>13</ele>
        <time>2020-08-21T13:50:17.000Z</time>
      </trkpt>
      <trkpt lat="47.746" lon="-3.35602">
        <ele>13.1</ele>
        <time>2020-08-21T13:50:18.000Z</time>
      </trkpt>
      <trkpt lat="47.746" lon="-3.35603">
        <ele>13.1</ele>
        <time>2020-08-21T13:50:19.000Z</time>
      </trkpt>
      <trkpt lat="47.746" lon="-3.35603">
        <ele>13.1</ele>
        <time>2020-08-21T13:50:20.000Z</time>
      </trkpt>
      <trkpt lat="47.746" lon="-3.35604">
        <ele>13.2</ele>
        <time>2020-08-21T13:50:21.000Z</time>
      </trkpt>
      <trkpt lat="47.74601" lon="-3.35605">
        <ele>13.2</ele>
        <time>2020-08-21T13:50:22.000Z</time>
      </trkpt>
      <trkpt lat="47.74601" lon="-3.35606">
        <ele>13.2</ele>
        <time>2020-08-21T13:50:23.000Z</time>
      </trkpt>
      <trkpt lat="47.74602" lon="-3.35607">
        <ele>13.3</ele>
        <time>2020-08-21T13:50:24.000Z</time>
      </trkpt>
      <trkpt lat="47.74602" lon="-3.35609">
        <ele>13.4</ele>
        <time>2020-08-21T13:50:25.000Z</time>
      </trkpt>
      <trkpt lat="47.74603" lon="-3.3561">
        <ele>13.4</ele>
        <time>2020-08-21T13:50:26.000Z</time>
      </trkpt>
      <trkpt lat="47.74603" lon="-3.35611">
        <ele>13.5</ele>
        <time>2020-08-21T13:50:27.000Z</time>
      </trkpt>
      <trkpt lat="47.74604" lon="-3.35613">
        <ele>13.5</ele>
        <time>2020-08-21T13:50:28.000Z</time>
      </trkpt>
      <trkpt lat="47.74604" lon="-3.35614">
        <ele>13.6</ele>
        <time>2020-08-21T13:50:29.000Z</time>
      </trkpt>
      <trkpt lat="47.74605" lon="-3.35615">
        <ele>13.7</ele>
        <time>2020-08-21T13:50:30.000Z</time>
      </trkpt>
      <trkpt lat="47.74606" lon="-3.35616">
        <ele>13.7</ele>
        <time>2020-08-21T13:50:31.000Z</time>
      </trkpt>
      <trkpt lat="47.74606" lon="-3.35617">
        <ele>13.8</ele>
        <time>2020-08-21T13:50:32.000Z</time>
      </trkpt>
      <trkpt lat="47.74607" lon="-3.35617">
        <ele>13.8</ele>
        <time>2020-08-21T13:50:33.000Z</time>
      </trkpt>
      <trkpt lat="47.74608" lon="-3.35618">
        <ele>13.8</ele>
        <time>2020-08-21T13:50:34.000Z</time>
      </trkpt>
      <trkpt lat="47.74609" lon="-3.35617">
        <ele>13.8</ele>
        <time>2020-08-21T13:50:35.000Z</time>
      </trkpt>
      <trkpt lat="47.7461" lon="-3.35617">
        <ele>13.8</ele>
        <time>2020-08-21T13:50:36.000Z</time>
      </trkpt>
      <trkpt lat="47.74611" lon="-3.35616">
        <ele>13.8</ele>
        <time>2020-08-21T13:50:37.000Z</time>
      </trkpt>
      <trkpt lat="47.74611" lon="-3.35615">
        <ele>13.8</ele>
        <time>2020-08-21T13:50:38.000Z</time>
      </trkpt>
      <trkpt lat="47.74612" lon="-3.35615">
        <ele>13.8</ele>
        <time>2020-08-21T13:50:39.000Z</time>
      </trkpt>
      <trkpt lat="47.74613" lon="-3.35614">
        <ele>13.8</ele>
        <time>2020-08-21T13:50:40.000Z</time>
      </trkpt>
      <trkpt lat="47.74613" lon="-3.35614">
        <ele>13.8</ele>
        <time>2020-08-21T13:50:41.000Z</time>
      </trkpt>
      <trkpt lat="47.74614" lon="-3.35613">
        <ele>13.8</ele>
        <time>2020-08-21T13:50:42.000Z</time>
      </trkpt>
      <trkpt lat="47.74615" lon="-3.35612">
        <ele>13.8</ele>
        <time>2020-08-21T13:50:43.000Z</time>
      </trkpt>
      <trkpt lat="47.74615" lon="-3.35611">
        <ele>13.8</ele>
        <time>2020-08-21T13:50:44.000Z</time>
      </trkpt>
      <trkpt lat="47.74616" lon="-3.3561">
        <ele>13.7</ele>
        <time>2020-08-21T13:50:45.000Z</time>
      </trkpt>
      <trkpt lat="47.74617" lon="-3.35608">
        <ele>13.7</ele>
        <time>2020-08-21T13:50:46.000Z</time>
      </trkpt>
      <trkpt lat="47.74618" lon="-3.35607">
        <ele>13.7</ele>
        <time>2020-08-21T13:50:47.000Z</time>
      </trkpt>
      <trkpt lat="47.74619" lon="-3.35607">
        <ele>13.7</ele>
        <time>2020-08-21T13:50:48.000Z</time>
      </trkpt>
      <trkpt lat="47.7462" lon="-3.35606">
        <ele>13.7</ele>
        <time>2020-08-21T13:50:49.000Z</time>
      </trkpt>
      <trkpt lat="47.74621" lon="-3.35606">
        <ele>13.7</ele>
        <time>2020-08-21T13:50:50.000Z</time>
      </trkpt>
      <trkpt lat="47.74622" lon="-3.35606">
        <ele>13.7</ele>
        <time>2020-08-21T13:50:51.000Z</time>
      </trkpt>
      <trkpt lat="47.74623" lon="-3.35607">
        <ele>13.8</ele>
        <time>2020-08-21T13:50:52.000Z</time>
      </trkpt>
      <trkpt lat="47.74624" lon="-3.35607">
        <ele>13.8</ele>
        <time>2020-08-21T13:50:53.000Z</time>
      </trkpt>
      <trkpt lat="47.74625" lon="-3.35608">
        <ele>13.9</ele>
        <time>2020-08-21T13:50:54.000Z</time>
      </trkpt>
      <trkpt lat="47.74627" lon="-3.35609">
        <ele>14</ele>
        <time>2020-08-21T13:50:55.000Z</time>
      </trkpt>
      <trkpt lat="47.74628" lon="-3.3561">
        <ele>14</ele>
        <time>2020-08-21T13:50:56.000Z</time>
      </trkpt>
      <trkpt lat="47.74629" lon="-3.3561">
        <ele>14.1</ele>
        <time>2020-08-21T13:50:57.000Z</time>
      </trkpt>
      <trkpt lat="47.7463" lon="-3.35611">
        <ele>14.1</ele>
        <time>2020-08-21T13:50:58.000Z</time>
      </trkpt>
      <trkpt lat="47.74631" lon="-3.35611">
        <ele>14.1</ele>
        <time>2020-08-21T13:50:59.000Z</time>
      </trkpt>
      <trkpt lat="47.74632" lon="-3.35611">
        <ele>14.2</ele>
        <time>2020-08-21T13:51:00.000Z</time>
      </trkpt>
      <trkpt lat="47.74633" lon="-3.35611">
        <ele>14.2</ele>
        <time>2020-08-21T13:51:01.000Z</time>
      </trkpt>
      <trkpt lat="47.74634" lon="-3.35611">
        <ele>14.2</ele>
        <time>2020-08-21T13:51:02.000Z</time>
      </trkpt>
      <trkpt lat="47.74635" lon="-3.35611">
        <ele>14.2</ele>
        <time>2020-08-21T13:51:03.000Z</time>
      </trkpt>
      <trkpt lat="47.74636" lon="-3.35611">
        <ele>14.3</ele>
        <time>2020-08-21T13:51:04.000Z</time>
      </trkpt>
      <trkpt lat="47.74637" lon="-3.35611">
        <ele>14.3</ele>
        <time>2020-08-21T13:51:05.000Z</time>
      </trkpt>
      <trkpt lat="47.74638" lon="-3.35611">
        <ele>14.3</ele>
        <time>2020-08-21T13:51:06.000Z</time>
      </trkpt>
      <trkpt lat="47.74639" lon="-3.35611">
        <ele>14.3</ele>
        <time>2020-08-21T13:51:07.000Z</time>
      </trkpt>
      <trkpt lat="47.7464" lon="-3.3561">
        <ele>14.3</ele>
        <time>2020-08-21T13:51:08.000Z</time>
      </trkpt>
      <trkpt lat="47.74641" lon="-3.3561">
        <ele>14.3</ele>
        <time>2020-08-21T13:51:09.000Z</time>
      </trkpt>
      <trkpt lat="47.74642" lon="-3.35609">
        <ele>14.4</ele>
        <time>2020-08-21T13:51:10.000Z</time>
      </trkpt>
      <trkpt lat="47.74643" lon="-3.35609">
        <ele>14.4</ele>
        <time>2020-08-21T13:51:11.000Z</time>
      </trkpt>
      <trkpt lat="47.74644" lon="-3.35609">
        <ele>14.4</ele>
        <time>2020-08-21T13:51:12.000Z</time>
      </trkpt>
      <trkpt lat="47.74645" lon="-3.35608">
        <ele>14.4</ele>
        <time>2020-08-21T13:51:13.000Z</time>
      </trkpt>
      <trkpt lat="47.74646" lon="-3.35607">
        <ele>14.4</ele>
        <time>2020-08-21T13:51:14.000Z</time>
      </trkpt>
      <trkpt lat="47.74647" lon="-3.35607">
        <ele>14.4</ele>
        <time>2020-08-21T13:51:15.000Z</time>
      </trkpt>
      <trkpt lat="47.74648" lon="-3.35606">
        <ele>14.4</ele>
        <time>2020-08-21T13:51:16.000Z</time>
      </trkpt>
      <trkpt lat="47.74649" lon="-3.35606">
        <ele>14.4</ele>
        <time>2020-08-21T13:51:17.000Z</time>
      </trkpt>
      <trkpt lat="47.7465" lon="-3.35605">
        <ele>14.4</ele>
        <time>2020-08-21T13:51:18.000Z</time>
      </trkpt>
      <trkpt lat="47.7465" lon="-3.35604">
        <ele>14.4</ele>
        <time>2020-08-21T13:51:19.000Z</time>
      </trkpt>
      <trkpt lat="47.74651" lon="-3.35603">
        <ele>14.3</ele>
        <time>2020-08-21T13:51:20.000Z</time>
      </trkpt>
      <trkpt lat="47.74651" lon="-3.35603">
        <ele>14.3</ele>
        <time>2020-08-21T13:51:21.000Z</time>
      </trkpt>
      <trkpt lat="47.74652" lon="-3.35602">
        <ele>14.3</ele>
        <time>2020-08-21T13:51:22.000Z</time>
      </trkpt>
      <trkpt lat="47.74652" lon="-3.35601">
        <ele>14.3</ele>
        <time>2020-08-21T13:51:23.000Z</time>
      </trkpt>
      <trkpt lat="47.74653" lon="-3.35601">
        <ele>14.3</ele>
        <time>2020-08-21T13:51:24.000Z</time>
      </trkpt>
      <trkpt lat="47.74654" lon="-3.356">
        <ele>14.3</ele>
        <time>2020-08-21T13:51:25.000Z</time>
      </trkpt>
      <trkpt lat="47.74655" lon="-3.35599">
        <ele>14.3</ele>
        <time>2020-08-21T13:51:26.000Z</time>
      </trkpt>
      <trkpt lat="47.74655" lon="-3.35599">
        <ele>14.3</ele>
        <time>2020-08-21T13:51:27.000Z</time>
      </trkpt>
      <trkpt lat="47.74656" lon="-3.35598">
        <ele>14.3</ele>
        <time>2020-08-21T13:51:28.000Z</time>
      </trkpt>
      <trkpt lat="47.74657" lon="-3.35597">
        <ele>14.3</ele>
        <time>2020-08-21T13:51:29.000Z</time>
      </trkpt>
      <trkpt lat="47.74658" lon="-3.35596">
        <ele>14.3</ele>
        <time>2020-08-21T13:51:30.000Z</time>
      </trkpt>
      <trkpt lat="47.74658" lon="-3.35596">
        <ele>14.2</ele>
        <time>2020-08-21T13:51:31.000Z</time>
      </trkpt>
      <trkpt lat="47.74659" lon="-3.35595">
        <ele>14.2</ele>
        <time>2020-08-21T13:51:32.000Z</time>
      </trkpt>
      <trkpt lat="47.7466" lon="-3.35594">
        <ele>14.2</ele>
        <time>2020-08-21T13:51:33.000Z</time>
      </trkpt>
      <trkpt lat="47.74661" lon="-3.35594">
        <ele>14.2</ele>
        <time>2020-08-21T13:51:34.000Z</time>
      </trkpt>
      <trkpt lat="47.74662" lon="-3.35593">
        <ele>14.2</ele>
        <time>2020-08-21T13:51:35.000Z</time>
      </trkpt>
      <trkpt lat="47.74663" lon="-3.35593">
        <ele>14.3</ele>
        <time>2020-08-21T13:51:36.000Z</time>
      </trkpt>
      <trkpt lat="47.74664" lon="-3.35593">
        <ele>14.3</ele>
        <time>2020-08-21T13:51:37.000Z</time>
      </trkpt>
      <trkpt lat="47.74665" lon="-3.35593">
        <ele>14.3</ele>
        <time>2020-08-21T13:51:38.000Z</time>
      </trkpt>
      <trkpt lat="47.74666" lon="-3.35593">
        <ele>14.3</ele>
        <time>2020-08-21T13:51:39.000Z</time>
      </trkpt>
      <trkpt lat="47.74667" lon="-3.35593">
        <ele>14.3</ele>
        <time>2020-08-21T13:51:40.000Z</time>
      </trkpt>
      <trkpt lat="47.74668" lon="-3.35593">
        <ele>14.3</ele>
        <time>2020-08-21T13:51:41.000Z</time>
      </trkpt>
      <trkpt lat="47.74669" lon="-3.35593">
        <ele>14.3</ele>
        <time>2020-08-21T13:51:42.000Z</time>
      </trkpt>
      <trkpt lat="47.7467" lon="-3.35593">
        <ele>14.3</ele>
        <time>2020-08-21T13:51:43.000Z</time>
      </trkpt>
      <trkpt lat="47.74671" lon="-3.35593">
        <ele>14.3</ele>
        <time>2020-08-21T13:51:44.000Z</time>
      </trkpt>
      <trkpt lat="47.74672" lon="-3.35593">
        <ele>14.3</ele>
        <time>2020-08-21T13:51:45.000Z</time>
      </trkpt>
      <trkpt lat="47.74673" lon="-3.35593">
        <ele>14.3</ele>
        <time>2020-08-21T13:51:46.000Z</time>
      </trkpt>
      <trkpt lat="47.74674" lon="-3.35593">
        <ele>14.3</ele>
        <time>2020-08-21T13:51:47.000Z</time>
      </trkpt>
      <trkpt lat="47.74675" lon="-3.35593">
        <ele>14.3</ele>
        <time>2020-08-21T13:51:48.000Z</time>
      </trkpt>
      <trkpt lat="47.74676" lon="-3.35592">
        <ele>14.3</ele>
        <time>2020-08-21T13:51:49.000Z</time>
      </trkpt>
      <trkpt lat="47.74677" lon="-3.35592">
        <ele>14.3</ele>
        <time>2020-08-21T13:51:50.000Z</time>
      </trkpt>
      <trkpt lat="47.74678" lon="-3.35592">
        <ele>14.3</ele>
        <time>2020-08-21T13:51:51.000Z</time>
      </trkpt>
      <trkpt lat="47.7468" lon="-3.35591">
        <ele>14.3</ele>
        <time>2020-08-21T13:51:52.000Z</time>
      </trkpt>
      <trkpt lat="47.74681" lon="-3.35591">
        <ele>14.2</ele>
        <time>2020-08-21T13:51:53.000Z</time>
      </trkpt>
      <trkpt lat="47.74682" lon="-3.35591">
        <ele>14.2</ele>
        <time>2020-08-21T13:51:54.000Z</time>
      </trkpt>
      <trkpt lat="47.74683" lon="-3.3559">
        <ele>14.2</ele>
        <time>2020-08-21T13:51:55.000Z</time>
      </trkpt>
      <trkpt lat="47.74684" lon="-3.3559">
        <ele>14.2</ele>
        <time>2020-08-21T13:51:56.000Z</time>
      </trkpt>
      <trkpt lat="47.74685" lon="-3.3559">
        <ele>14.2</ele>
        <time>2020-08-21T13:51:57.000Z</time>
      </trkpt>
      <trkpt lat="47.74686" lon="-3.3559">
        <ele>14.2</ele>
        <time>2020-08-21T13:51:58.000Z</time>
      </trkpt>
      <trkpt lat="47.74687" lon="-3.3559">
        <ele>14.2</ele>
        <time>2020-08-21T13:51:59.000Z</time>
      </trkpt>
      <trkpt lat="47.74689" lon="-3.3559">
        <ele>14.2</ele>
        <time>2020-08-21T13:52:00.000Z</time>
      </trkpt>
      <trkpt lat="47.7469" lon="-3.3559">
        <ele>14.2</ele>
        <time>2020-08-21T13:52:01.000Z</time>
      </trkpt>
      <trkpt lat="47.74691" lon="-3.3559">
        <ele>14.2</ele>
        <time>2020-08-21T13:52:02.000Z</time>
      </trkpt>
      <trkpt lat="47.74692" lon="-3.3559">
        <ele>14.2</ele>
        <time>2020-08-21T13:52:03.000Z</time>
      </trkpt>
      <trkpt lat="47.74694" lon="-3.3559">
        <ele>14.2</ele>
        <time>2020-08-21T13:52:04.000Z</time>
      </trkpt>
      <trkpt lat="47.74695" lon="-3.3559">
        <ele>14.2</ele>
        <time>2020-08-21T13:52:05.000Z</time>
      </trkpt>
      <trkpt lat="47.74696" lon="-3.35591">
        <ele>14.2</ele>
        <time>2020-08-21T13:52:06.000Z</time>
      </trkpt>
      <trkpt lat="47.74698" lon="-3.35591">
        <ele>14.2</ele>
        <time>2020-08-21T13:52:07.000Z</time>
      </trkpt>
      <trkpt lat="47.74699" lon="-3.35591">
        <ele>14.2</ele>
        <time>2020-08-21T13:52:08.000Z</time>
      </trkpt>
      <trkpt lat="47.747" lon="-3.35592">
        <ele>14.2</ele>
        <time>2020-08-21T13:52:09.000Z</time>
      </trkpt>
      <trkpt lat="47.74702" lon="-3.35592">
        <ele>14.2</ele>
        <time>2020-08-21T13:52:10.000Z</time>
      </trkpt>
      <trkpt lat="47.74703" lon="-3.35593">
        <ele>14.2</ele>
        <time>2020-08-21T13:52:11.000Z</time>
      </trkpt>
      <trkpt lat="47.74704" lon="-3.35594">
        <ele>14.3</ele>
        <time>2020-08-21T13:52:12.000Z</time>
      </trkpt>
      <trkpt lat="47.74705" lon="-3.35594">
        <ele>14.3</ele>
        <time>2020-08-21T13:52:13.000Z</time>
      </trkpt>
      <trkpt lat="47.74707" lon="-3.35595">
        <ele>14.3</ele>
        <time>2020-08-21T13:52:14.000Z</time>
      </trkpt>
      <trkpt lat="47.74708" lon="-3.35596">
        <ele>14.3</ele>
        <time>2020-08-21T13:52:15.000Z</time>
      </trkpt>
      <trkpt lat="47.74709" lon="-3.35596">
        <ele>14.3</ele>
        <time>2020-08-21T13:52:16.000Z</time>
      </trkpt>
      <trkpt lat="47.7471" lon="-3.35597">
        <ele>14.3</ele>
        <time>2020-08-21T13:52:17.000Z</time>
      </trkpt>
      <trkpt lat="47.74711" lon="-3.35597">
        <ele>14.3</ele>
        <time>2020-08-21T13:52:18.000Z</time>
      </trkpt>
      <trkpt lat="47.74712" lon="-3.35598">
        <ele>14.3</ele>
        <time>2020-08-21T13:52:19.000Z</time>
      </trkpt>
      <trkpt lat="47.74713" lon="-3.35599">
        <ele>14.3</ele>
        <time>2020-08-21T13:52:20.000Z</time>
      </trkpt>
      <trkpt lat="47.74714" lon="-3.35599">
        <ele>14.4</ele>
        <time>2020-08-21T13:52:21.000Z</time>
      </trkpt>
      <trkpt lat="47.74715" lon="-3.356">
        <ele>14.4</ele>
        <time>2020-08-21T13:52:22.000Z</time>
      </trkpt>
      <trkpt lat="47.74717" lon="-3.356">
        <ele>14.4</ele>
        <time>2020-08-21T13:52:23.000Z</time>
      </trkpt>
      <trkpt lat="47.74718" lon="-3.356">
        <ele>14.4</ele>
        <time>2020-08-21T13:52:24.000Z</time>
      </trkpt>
      <trkpt lat="47.74719" lon="-3.35601">
        <ele>14.4</ele>
        <time>2020-08-21T13:52:25.000Z</time>
      </trkpt>
      <trkpt lat="47.74721" lon="-3.35601">
        <ele>14.4</ele>
        <time>2020-08-21T13:52:26.000Z</time>
      </trkpt>
      <trkpt lat="47.74722" lon="-3.35602">
        <ele>14.4</ele>
        <time>2020-08-21T13:52:27.000Z</time>
      </trkpt>
      <trkpt lat="47.74724" lon="-3.35602">
        <ele>14.4</ele>
        <time>2020-08-21T13:52:28.000Z</time>
      </trkpt>
      <trkpt lat="47.74725" lon="-3.35603">
        <ele>14.4</ele>
        <time>2020-08-21T13:52:29.000Z</time>
      </trkpt>
      <trkpt lat="47.74726" lon="-3.35603">
        <ele>14.4</ele>
        <time>2020-08-21T13:52:30.000Z</time>
      </trkpt>
      <trkpt lat="47.74728" lon="-3.35604">
        <ele>14.4</ele>
        <time>2020-08-21T13:52:31.000Z</time>
      </trkpt>
      <trkpt lat="47.74729" lon="-3.35605">
        <ele>14.4</ele>
        <time>2020-08-21T13:52:32.000Z</time>
      </trkpt>
      <trkpt lat="47.7473" lon="-3.35606">
        <ele>14.4</ele>
        <time>2020-08-21T13:52:33.000Z</time>
      </trkpt>
      <trkpt lat="47.74731" lon="-3.35606">
        <ele>14.4</ele>
        <time>2020-08-21T13:52:34.000Z</time>
      </trkpt>
      <trkpt lat="47.74732" lon="-3.35607">
        <ele>14.4</ele>
        <time>2020-08-21T13:52:35.000Z</time>
      </trkpt>
      <trkpt lat="47.74733" lon="-3.35608">
        <ele>14.4</ele>
        <time>2020-08-21T13:52:36.000Z</time>
      </trkpt>
      <trkpt lat="47.74734" lon="-3.35609">
        <ele>14.4</ele>
        <time>2020-08-21T13:52:37.000Z</time>
      </trkpt>
      <trkpt lat="47.74735" lon="-3.35609">
        <ele>14.4</ele>
        <time>2020-08-21T13:52:38.000Z</time>
      </trkpt>
      <trkpt lat="47.74737" lon="-3.3561">
        <ele>14.4</ele>
        <time>2020-08-21T13:52:39.000Z</time>
      </trkpt>
      <trkpt lat="47.74738" lon="-3.35611">
        <ele>14.4</ele>
        <time>2020-08-21T13:52:40.000Z</time>
      </trkpt>
      <trkpt lat="47.74739" lon="-3.35611">
        <ele>14.4</ele>
        <time>2020-08-21T13:52:41.000Z</time>
      </trkpt>
      <trkpt lat="47.7474" lon="-3.35612">
        <ele>14.4</ele>
        <time>2020-08-21T13:52:42.000Z</time>
      </trkpt>
      <trkpt lat="47.74741" lon="-3.35613">
        <ele>14.4</ele>
        <time>2020-08-21T13:52:43.000Z</time>
      </trkpt>
      <trkpt lat="47.74743" lon="-3.35613">
        <ele>14.4</ele>
        <time>2020-08-21T13:52:44.000Z</time>
      </trkpt>
      <trkpt lat="47.74744" lon="-3.35614">
        <ele>14.4</ele>
        <time>2020-08-21T13:52:45.000Z</time>
      </trkpt>
      <trkpt lat="47.74745" lon="-3.35614">
        <ele>14.4</ele>
        <time>2020-08-21T13:52:46.000Z</time>
      </trkpt>
      <trkpt lat="47.74746" lon="-3.35615">
        <ele>14.4</ele>
        <time>2020-08-21T13:52:47.000Z</time>
      </trkpt>
      <trkpt lat="47.74747" lon="-3.35616">
        <ele>14.4</ele>
        <time>2020-08-21T13:52:48.000Z</time>
      </trkpt>
      <trkpt lat="47.74748" lon="-3.35617">
        <ele>14.4</ele>
        <time>2020-08-21T13:52:49.000Z</time>
      </trkpt>
      <trkpt lat="47.74749" lon="-3.35618">
        <ele>14.4</ele>
        <time>2020-08-21T13:52:50.000Z</time>
      </trkpt>
      <trkpt lat="47.74751" lon="-3.35618">
        <ele>14.4</ele>
        <time>2020-08-21T13:52:51.000Z</time>
      </trkpt>
      <trkpt lat="47.74752" lon="-3.35619">
        <ele>14.3</ele>
        <time>2020-08-21T13:52:52.000Z</time>
      </trkpt>
      <trkpt lat="47.74753" lon="-3.3562">
        <ele>14.3</ele>
        <time>2020-08-21T13:52:53.000Z</time>
      </trkpt>
      <trkpt lat="47.74754" lon="-3.35621">
        <ele>14.2</ele>
        <time>2020-08-21T13:52:54.000Z</time>
      </trkpt>
      <trkpt lat="47.74755" lon="-3.35622">
        <ele>14.2</ele>
        <time>2020-08-21T13:52:55.000Z</time>
      </trkpt>
      <trkpt lat="47.74756" lon="-3.35623">
        <ele>14.1</ele>
        <time>2020-08-21T13:52:56.000Z</time>
      </trkpt>
      <trkpt lat="47.74757" lon="-3.35624">
        <ele>14.1</ele>
        <time>2020-08-21T13:52:57.000Z</time>
      </trkpt>
      <trkpt lat="47.74758" lon="-3.35625">
        <ele>14</ele>
        <time>2020-08-21T13:52:58.000Z</time>
      </trkpt>
      <trkpt lat="47.74759" lon="-3.35627">
        <ele>14</ele>
        <time>2020-08-21T13:52:59.000Z</time>
      </trkpt>
      <trkpt lat="47.7476" lon="-3.35628">
        <ele>14</ele>
        <time>2020-08-21T13:53:00.000Z</time>
      </trkpt>
      <trkpt lat="47.74761" lon="-3.35629">
        <ele>13.9</ele>
        <time>2020-08-21T13:53:01.000Z</time>
      </trkpt>
      <trkpt lat="47.74762" lon="-3.3563">
        <ele>13.9</ele>
        <time>2020-08-21T13:53:02.000Z</time>
      </trkpt>
      <trkpt lat="47.74762" lon="-3.35631">
        <ele>13.8</ele>
        <time>2020-08-21T13:53:03.000Z</time>
      </trkpt>
      <trkpt lat="47.74764" lon="-3.35633">
        <ele>13.8</ele>
        <time>2020-08-21T13:53:04.000Z</time>
      </trkpt>
      <trkpt lat="47.74765" lon="-3.35634">
        <ele>13.7</ele>
        <time>2020-08-21T13:53:05.000Z</time>
      </trkpt>
      <trkpt lat="47.74766" lon="-3.35635">
        <ele>13.7</ele>
        <time>2020-08-21T13:53:06.000Z</time>
      </trkpt>
      <trkpt lat="47.74767" lon="-3.35635">
        <ele>13.6</ele>
        <time>2020-08-21T13:53:07.000Z</time>
      </trkpt>
      <trkpt lat="47.74768" lon="-3.35636">
        <ele>13.5</ele>
        <time>2020-08-21T13:53:08.000Z</time>
      </trkpt>
      <trkpt lat="47.7477" lon="-3.35637">
        <ele>13.5</ele>
        <time>2020-08-21T13:53:09.000Z</time>
      </trkpt>
      <trkpt lat="47.74771" lon="-3.35637">
        <ele>13.4</ele>
        <time>2020-08-21T13:53:10.000Z</time>
      </trkpt>
      <trkpt lat="47.74772" lon="-3.35638">
        <ele>13.3</ele>
        <time>2020-08-21T13:53:11.000Z</time>
      </trkpt>
      <trkpt lat="47.74773" lon="-3.35638">
        <ele>13.3</ele>
        <time>2020-08-21T13:53:12.000Z</time>
      </trkpt>
      <trkpt lat="47.74773" lon="-3.35638">
        <ele>13.3</ele>
        <time>2020-08-21T13:53:13.000Z</time>
      </trkpt>
      <trkpt lat="47.74774" lon="-3.35639">
        <ele>13.2</ele>
        <time>2020-08-21T13:53:14.000Z</time>
      </trkpt>
      <trkpt lat="47.74775" lon="-3.35639">
        <ele>13.2</ele>
        <time>2020-08-21T13:53:15.000Z</time>
      </trkpt>
      <trkpt lat="47.74776" lon="-3.3564">
        <ele>13.1</ele>
        <time>2020-08-21T13:53:16.000Z</time>
      </trkpt>
      <trkpt lat="47.74777" lon="-3.35641">
        <ele>13.1</ele>
        <time>2020-08-21T13:53:17.000Z</time>
      </trkpt>
      <trkpt lat="47.74778" lon="-3.35642">
        <ele>13</ele>
        <time>2020-08-21T13:53:18.000Z</time>
      </trkpt>
      <trkpt lat="47.74779" lon="-3.35643">
        <ele>13</ele>
        <time>2020-08-21T13:53:19.000Z</time>
      </trkpt>
      <trkpt lat="47.7478" lon="-3.35644">
        <ele>13</ele>
        <time>2020-08-21T13:53:20.000Z</time>
      </trkpt>
      <trkpt lat="47.74781" lon="-3.35645">
        <ele>12.9</ele>
        <time>2020-08-21T13:53:21.000Z</time>
      </trkpt>
      <trkpt lat="47.74782" lon="-3.35646">
        <ele>12.9</ele>
        <time>2020-08-21T13:53:22.000Z</time>
      </trkpt>
      <trkpt lat="47.74783" lon="-3.35647">
        <ele>12.8</ele>
        <time>2020-08-21T13:53:23.000Z</time>
      </trkpt>
      <trkpt lat="47.74784" lon="-3.35648">
        <ele>12.8</ele>
        <time>2020-08-21T13:53:24.000Z</time>
      </trkpt>
      <trkpt lat="47.74785" lon="-3.35649">
        <ele>12.7</ele>
        <time>2020-08-21T13:53:25.000Z</time>
      </trkpt>
      <trkpt lat="47.74786" lon="-3.3565">
        <ele>12.7</ele>
        <time>2020-08-21T13:53:26.000Z</time>
      </trkpt>
      <trkpt lat="47.74787" lon="-3.35652">
        <ele>12.6</ele>
        <time>2020-08-21T13:53:27.000Z</time>
      </trkpt>
      <trkpt lat="47.74788" lon="-3.35653">
        <ele>12.5</ele>
        <time>2020-08-21T13:53:28.000Z</time>
      </trkpt>
      <trkpt lat="47.74789" lon="-3.35653">
        <ele>12.5</ele>
        <time>2020-08-21T13:53:29.000Z</time>
      </trkpt>
      <trkpt lat="47.7479" lon="-3.35654">
        <ele>12.4</ele>
        <time>2020-08-21T13:53:30.000Z</time>
      </trkpt>
      <trkpt lat="47.74791" lon="-3.35655">
        <ele>12.4</ele>
        <time>2020-08-21T13:53:31.000Z</time>
      </trkpt>
      <trkpt lat="47.74792" lon="-3.35656">
        <ele>12.3</ele>
        <time>2020-08-21T13:53:32.000Z</time>
      </trkpt>
      <trkpt lat="47.74794" lon="-3.35657">
        <ele>12.3</ele>
        <time>2020-08-21T13:53:33.000Z</time>
      </trkpt>
      <trkpt lat="47.74795" lon="-3.35657">
        <ele>12.2</ele>
        <time>2020-08-21T13:53:34.000Z</time>
      </trkpt>
      <trkpt lat="47.74796" lon="-3.35658">
        <ele>12.2</ele>
        <time>2020-08-21T13:53:35.000Z</time>
      </trkpt>
      <trkpt lat="47.74797" lon="-3.35659">
        <ele>12.1</ele>
        <time>2020-08-21T13:53:36.000Z</time>
      </trkpt>
      <trkpt lat="47.74798" lon="-3.35659">
        <ele>12</ele>
        <time>2020-08-21T13:53:37.000Z</time>
      </trkpt>
      <trkpt lat="47.74799" lon="-3.3566">
        <ele>12</ele>
        <time>2020-08-21T13:53:38.000Z</time>
      </trkpt>
      <trkpt lat="47.748" lon="-3.35661">
        <ele>11.9</ele>
        <time>2020-08-21T13:53:39.000Z</time>
      </trkpt>
      <trkpt lat="47.74801" lon="-3.35661">
        <ele>11.9</ele>
        <time>2020-08-21T13:53:40.000Z</time>
      </trkpt>
      <trkpt lat="47.74802" lon="-3.35662">
        <ele>11.8</ele>
        <time>2020-08-21T13:53:41.000Z</time>
      </trkpt>
      <trkpt lat="47.74803" lon="-3.35662">
        <ele>11.7</ele>
        <time>2020-08-21T13:53:42.000Z</time>
      </trkpt>
      <trkpt lat="47.74805" lon="-3.35662">
        <ele>11.7</ele>
        <time>2020-08-21T13:53:43.000Z</time>
      </trkpt>
      <trkpt lat="47.74806" lon="-3.35663">
        <ele>11.6</ele>
        <time>2020-08-21T13:53:44.000Z</time>
      </trkpt>
      <trkpt lat="47.74807" lon="-3.35663">
        <ele>11.6</ele>
        <time>2020-08-21T13:53:45.000Z</time>
      </trkpt>
      <trkpt lat="47.74808" lon="-3.35664">
        <ele>11.5</ele>
        <time>2020-08-21T13:53:46.000Z</time>
      </trkpt>
      <trkpt lat="47.74809" lon="-3.35664">
        <ele>11.4</ele>
        <time>2020-08-21T13:53:47.000Z</time>
      </trkpt>
      <trkpt lat="47.7481" lon="-3.35665">
        <ele>11.4</ele>
        <time>2020-08-21T13:53:48.000Z</time>
      </trkpt>
      <trkpt lat="47.74811" lon="-3.35665">
        <ele>11.3</ele>
        <time>2020-08-21T13:53:49.000Z</time>
      </trkpt>
      <trkpt lat="47.74813" lon="-3.35665">
        <ele>11.2</ele>
        <time>2020-08-21T13:53:50.000Z</time>
      </trkpt>
      <trkpt lat="47.74814" lon="-3.35666">
        <ele>11.2</ele>
        <time>2020-08-21T13:53:51.000Z</time>
      </trkpt>
      <trkpt lat="47.74815" lon="-3.35666">
        <ele>11.1</ele>
        <time>2020-08-21T13:53:52.000Z</time>
      </trkpt>
      <trkpt lat="47.74816" lon="-3.35667">
        <ele>11</ele>
        <time>2020-08-21T13:53:53.000Z</time>
      </trkpt>
      <trkpt lat="47.74818" lon="-3.35667">
        <ele>11</ele>
        <time>2020-08-21T13:53:54.000Z</time>
      </trkpt>
      <trkpt lat="47.74819" lon="-3.35667">
        <ele>10.9</ele>
        <time>2020-08-21T13:53:55.000Z</time>
      </trkpt>
      <trkpt lat="47.7482" lon="-3.35668">
        <ele>10.8</ele>
        <time>2020-08-21T13:53:56.000Z</time>
      </trkpt>
      <trkpt lat="47.74821" lon="-3.35668">
        <ele>10.8</ele>
        <time>2020-08-21T13:53:57.000Z</time>
      </trkpt>
      <trkpt lat="47.74823" lon="-3.35668">
        <ele>10.7</ele>
        <time>2020-08-21T13:53:58.000Z</time>
      </trkpt>
      <trkpt lat="47.74824" lon="-3.35668">
        <ele>10.6</ele>
        <time>2020-08-21T13:53:59.000Z</time>
      </trkpt>
      <trkpt lat="47.74825" lon="-3.35668">
        <ele>10.5</ele>
        <time>2020-08-21T13:54:00.000Z</time>
      </trkpt>
      <trkpt lat="47.74827" lon="-3.35669">
        <ele>10.5</ele>
        <time>2020-08-21T13:54:01.000Z</time>
      </trkpt>
      <trkpt lat="47.74828" lon="-3.35669">
        <ele>10.4</ele>
        <time>2020-08-21T13:54:02.000Z</time>
      </trkpt>
      <trkpt lat="47.74829" lon="-3.35669">
        <ele>10.3</ele>
        <time>2020-08-21T13:54:03.000Z</time>
      </trkpt>
      <trkpt lat="47.74831" lon="-3.3567">
        <ele>10.3</ele>
        <time>2020-08-21T13:54:04.000Z</time>
      </trkpt>
      <trkpt lat="47.74832" lon="-3.3567">
        <ele>10.2</ele>
        <time>2020-08-21T13:54:05.000Z</time>
      </trkpt>
      <trkpt lat="47.74833" lon="-3.35671">
        <ele>10.2</ele>
        <time>2020-08-21T13:54:06.000Z</time>
      </trkpt>
      <trkpt lat="47.74834" lon="-3.35672">
        <ele>10.2</ele>
        <time>2020-08-21T13:54:07.000Z</time>
      </trkpt>
      <trkpt lat="47.74835" lon="-3.35673">
        <ele>10.1</ele>
        <time>2020-08-21T13:54:08.000Z</time>
      </trkpt>
      <trkpt lat="47.74836" lon="-3.35673">
        <ele>10.1</ele>
        <time>2020-08-21T13:54:09.000Z</time>
      </trkpt>
      <trkpt lat="47.74837" lon="-3.35674">
        <ele>10.1</ele>
        <time>2020-08-21T13:54:10.000Z</time>
      </trkpt>
      <trkpt lat="47.74838" lon="-3.35675">
        <ele>10</ele>
        <time>2020-08-21T13:54:11.000Z</time>
      </trkpt>
      <trkpt lat="47.74839" lon="-3.35676">
        <ele>10</ele>
        <time>2020-08-21T13:54:12.000Z</time>
      </trkpt>
      <trkpt lat="47.7484" lon="-3.35677">
        <ele>9.9</ele>
        <time>2020-08-21T13:54:13.000Z</time>
      </trkpt>
      <trkpt lat="47.74841" lon="-3.35677">
        <ele>9.9</ele>
        <time>2020-08-21T13:54:14.000Z</time>
      </trkpt>
      <trkpt lat="47.74842" lon="-3.35678">
        <ele>9.9</ele>
        <time>2020-08-21T13:54:15.000Z</time>
      </trkpt>
      <trkpt lat="47.74843" lon="-3.35679">
        <ele>9.8</ele>
        <time>2020-08-21T13:54:16.000Z</time>
      </trkpt>
      <trkpt lat="47.74844" lon="-3.35679">
        <ele>9.8</ele>
        <time>2020-08-21T13:54:17.000Z</time>
      </trkpt>
      <trkpt lat="47.74846" lon="-3.3568">
        <ele>9.7</ele>
        <time>2020-08-21T13:54:18.000Z</time>
      </trkpt>
      <trkpt lat="47.74847" lon="-3.35681">
        <ele>9.7</ele>
        <time>2020-08-21T13:54:19.000Z</time>
      </trkpt>
      <trkpt lat="47.74848" lon="-3.35681">
        <ele>9.6</ele>
        <time>2020-08-21T13:54:20.000Z</time>
      </trkpt>
      <trkpt lat="47.74849" lon="-3.35682">
        <ele>9.6</ele>
        <time>2020-08-21T13:54:21.000Z</time>
      </trkpt>
      <trkpt lat="47.7485" lon="-3.35683">
        <ele>9.5</ele>
        <time>2020-08-21T13:54:22.000Z</time>
      </trkpt>
      <trkpt lat="47.74851" lon="-3.35683">
        <ele>9.5</ele>
        <time>2020-08-21T13:54:23.000Z</time>
      </trkpt>
      <trkpt lat="47.74852" lon="-3.35684">
        <ele>9.5</ele>
        <time>2020-08-21T13:54:24.000Z</time>
      </trkpt>
      <trkpt lat="47.74853" lon="-3.35685">
        <ele>9.4</ele>
        <time>2020-08-21T13:54:25.000Z</time>
      </trkpt>
      <trkpt lat="47.74854" lon="-3.35685">
        <ele>9.4</ele>
        <time>2020-08-21T13:54:26.000Z</time>
      </trkpt>
      <trkpt lat="47.74855" lon="-3.35686">
        <ele>9.4</ele>
        <time>2020-08-21T13:54:27.000Z</time>
      </trkpt>
      <trkpt lat="47.74856" lon="-3.35687">
        <ele>9.3</ele>
        <time>2020-08-21T13:54:28.000Z</time>
      </trkpt>
      <trkpt lat="47.74856" lon="-3.35688">
        <ele>9.3</ele>
        <time>2020-08-21T13:54:29.000Z</time>
      </trkpt>
      <trkpt lat="47.74857" lon="-3.35689">
        <ele>9.3</ele>
        <time>2020-08-21T13:54:30.000Z</time>
      </trkpt>
      <trkpt lat="47.74858" lon="-3.3569">
        <ele>9.3</ele>
        <time>2020-08-21T13:54:31.000Z</time>
      </trkpt>
      <trkpt lat="47.74859" lon="-3.35691">
        <ele>9.2</ele>
        <time>2020-08-21T13:54:32.000Z</time>
      </trkpt>
      <trkpt lat="47.7486" lon="-3.35692">
        <ele>9.2</ele>
        <time>2020-08-21T13:54:33.000Z</time>
      </trkpt>
      <trkpt lat="47.74861" lon="-3.35692">
        <ele>9.2</ele>
        <time>2020-08-21T13:54:34.000Z</time>
      </trkpt>
      <trkpt lat="47.74861" lon="-3.35693">
        <ele>9.2</ele>
        <time>2020-08-21T13:54:35.000Z</time>
      </trkpt>
      <trkpt lat="47.74862" lon="-3.35694">
        <ele>9.1</ele>
        <time>2020-08-21T13:54:36.000Z</time>
      </trkpt>
      <trkpt lat="47.74863" lon="-3.35695">
        <ele>9.1</ele>
        <time>2020-08-21T13:54:37.000Z</time>
      </trkpt>
      <trkpt lat="47.74864" lon="-3.35696">
        <ele>9.1</ele>
        <time>2020-08-21T13:54:38.000Z</time>
      </trkpt>
      <trkpt lat="47.74865" lon="-3.35697">
        <ele>9.1</ele>
        <time>2020-08-21T13:54:39.000Z</time>
      </trkpt>
      <trkpt lat="47.74866" lon="-3.35698">
        <ele>9</ele>
        <time>2020-08-21T13:54:40.000Z</time>
      </trkpt>
      <trkpt lat="47.74867" lon="-3.35699">
        <ele>9</ele>
        <time>2020-08-21T13:54:41.000Z</time>
      </trkpt>
      <trkpt lat="47.74868" lon="-3.357">
        <ele>8.9</ele>
        <time>2020-08-21T13:54:42.000Z</time>
      </trkpt>
      <trkpt lat="47.74869" lon="-3.357">
        <ele>8.9</ele>
        <time>2020-08-21T13:54:43.000Z</time>
      </trkpt>
      <trkpt lat="47.7487" lon="-3.35701">
        <ele>8.8</ele>
        <time>2020-08-21T13:54:44.000Z</time>
      </trkpt>
      <trkpt lat="47.74871" lon="-3.35702">
        <ele>8.8</ele>
        <time>2020-08-21T13:54:45.000Z</time>
      </trkpt>
      <trkpt lat="47.74873" lon="-3.35703">
        <ele>8.7</ele>
        <time>2020-08-21T13:54:46.000Z</time>
      </trkpt>
      <trkpt lat="47.74874" lon="-3.35703">
        <ele>8.7</ele>
        <time>2020-08-21T13:54:47.000Z</time>
      </trkpt>
      <trkpt lat="47.74875" lon="-3.35704">
        <ele>8.6</ele>
        <time>2020-08-21T13:54:48.000Z</time>
      </trkpt>
      <trkpt lat="47.74876" lon="-3.35705">
        <ele>8.6</ele>
        <time>2020-08-21T13:54:49.000Z</time>
      </trkpt>
      <trkpt lat="47.74877" lon="-3.35705">
        <ele>8.5</ele>
        <time>2020-08-21T13:54:50.000Z</time>
      </trkpt>
      <trkpt lat="47.74879" lon="-3.35706">
        <ele>8.4</ele>
        <time>2020-08-21T13:54:51.000Z</time>
      </trkpt>
      <trkpt lat="47.7488" lon="-3.35707">
        <ele>8.4</ele>
        <time>2020-08-21T13:54:52.000Z</time>
      </trkpt>
      <trkpt lat="47.74881" lon="-3.35707">
        <ele>8.3</ele>
        <time>2020-08-21T13:54:53.000Z</time>
      </trkpt>
      <trkpt lat="47.74882" lon="-3.35708">
        <ele>8.3</ele>
        <time>2020-08-21T13:54:54.000Z</time>
      </trkpt>
      <trkpt lat="47.74883" lon="-3.35708">
        <ele>8.2</ele>
        <time>2020-08-21T13:54:55.000Z</time>
      </trkpt>
      <trkpt lat="47.74884" lon="-3.35709">
        <ele>8.2</ele>
        <time>2020-08-21T13:54:56.000Z</time>
      </trkpt>
      <trkpt lat="47.74885" lon="-3.35709">
        <ele>8.1</ele>
        <time>2020-08-21T13:54:57.000Z</time>
      </trkpt>
      <trkpt lat="47.74886" lon="-3.3571">
        <ele>8.1</ele>
        <time>2020-08-21T13:54:58.000Z</time>
      </trkpt>
      <trkpt lat="47.74887" lon="-3.35711">
        <ele>8</ele>
        <time>2020-08-21T13:54:59.000Z</time>
      </trkpt>
      <trkpt lat="47.74888" lon="-3.35711">
        <ele>8</ele>
        <time>2020-08-21T13:55:00.000Z</time>
      </trkpt>
      <trkpt lat="47.74889" lon="-3.35712">
        <ele>7.9</ele>
        <time>2020-08-21T13:55:01.000Z</time>
      </trkpt>
      <trkpt lat="47.7489" lon="-3.35712">
        <ele>7.9</ele>
        <time>2020-08-21T13:55:02.000Z</time>
      </trkpt>
      <trkpt lat="47.74891" lon="-3.35713">
        <ele>7.8</ele>
        <time>2020-08-21T13:55:03.000Z</time>
      </trkpt>
      <trkpt lat="47.74892" lon="-3.35714">
        <ele>7.8</ele>
        <time>2020-08-21T13:55:04.000Z</time>
      </trkpt>
      <trkpt lat="47.74893" lon="-3.35714">
        <ele>7.7</ele>
        <time>2020-08-21T13:55:05.000Z</time>
      </trkpt>
      <trkpt lat="47.74894" lon="-3.35715">
        <ele>7.7</ele>
        <time>2020-08-21T13:55:06.000Z</time>
      </trkpt>
      <trkpt lat="47.74895" lon="-3.35716">
        <ele>7.6</ele>
        <time>2020-08-21T13:55:07.000Z</time>
      </trkpt>
      <trkpt lat="47.74896" lon="-3.35716">
        <ele>7.6</ele>
        <time>2020-08-21T13:55:08.000Z</time>
      </trkpt>
      <trkpt lat="47.74897" lon="-3.35717">
        <ele>7.6</ele>
        <time>2020-08-21T13:55:09.000Z</time>
      </trkpt>
      <trkpt lat="47.74898" lon="-3.35718">
        <ele>7.5</ele>
        <time>2020-08-21T13:55:10.000Z</time>
      </trkpt>
      <trkpt lat="47.74899" lon="-3.35719">
        <ele>7.5</ele>
        <time>2020-08-21T13:55:11.000Z</time>
      </trkpt>
      <trkpt lat="47.749" lon="-3.3572">
        <ele>7.4</ele>
        <time>2020-08-21T13:55:12.000Z</time>
      </trkpt>
      <trkpt lat="47.74901" lon="-3.35721">
        <ele>7.4</ele>
        <time>2020-08-21T13:55:13.000Z</time>
      </trkpt>
      <trkpt lat="47.74902" lon="-3.35722">
        <ele>7.3</ele>
        <time>2020-08-21T13:55:14.000Z</time>
      </trkpt>
      <trkpt lat="47.74903" lon="-3.35723">
        <ele>7.3</ele>
        <time>2020-08-21T13:55:15.000Z</time>
      </trkpt>
      <trkpt lat="47.74904" lon="-3.35723">
        <ele>7.2</ele>
        <time>2020-08-21T13:55:16.000Z</time>
      </trkpt>
      <trkpt lat="47.74905" lon="-3.35724">
        <ele>7.2</ele>
        <time>2020-08-21T13:55:17.000Z</time>
      </trkpt>
      <trkpt lat="47.74906" lon="-3.35725">
        <ele>7.2</ele>
        <time>2020-08-21T13:55:18.000Z</time>
      </trkpt>
      <trkpt lat="47.74907" lon="-3.35726">
        <ele>7.1</ele>
        <time>2020-08-21T13:55:19.000Z</time>
      </trkpt>
      <trkpt lat="47.74908" lon="-3.35727">
        <ele>7.1</ele>
        <time>2020-08-21T13:55:20.000Z</time>
      </trkpt>
      <trkpt lat="47.74909" lon="-3.35728">
        <ele>7</ele>
        <time>2020-08-21T13:55:21.000Z</time>
      </trkpt>
      <trkpt lat="47.7491" lon="-3.35729">
        <ele>6.9</ele>
        <time>2020-08-21T13:55:22.000Z</time>
      </trkpt>
      <trkpt lat="47.74911" lon="-3.3573">
        <ele>6.9</ele>
        <time>2020-08-21T13:55:23.000Z</time>
      </trkpt>
      <trkpt lat="47.74912" lon="-3.35731">
        <ele>6.8</ele>
        <time>2020-08-21T13:55:24.000Z</time>
      </trkpt>
      <trkpt lat="47.74913" lon="-3.35731">
        <ele>6.8</ele>
        <time>2020-08-21T13:55:25.000Z</time>
      </trkpt>
      <trkpt lat="47.74914" lon="-3.35732">
        <ele>6.7</ele>
        <time>2020-08-21T13:55:26.000Z</time>
      </trkpt>
      <trkpt lat="47.74915" lon="-3.35733">
        <ele>6.7</ele>
        <time>2020-08-21T13:55:27.000Z</time>
      </trkpt>
      <trkpt lat="47.74916" lon="-3.35733">
        <ele>6.6</ele>
        <time>2020-08-21T13:55:28.000Z</time>
      </trkpt>
      <trkpt lat="47.74917" lon="-3.35734">
        <ele>6.6</ele>
        <time>2020-08-21T13:55:29.000Z</time>
      </trkpt>
      <trkpt lat="47.74918" lon="-3.35735">
        <ele>6.6</ele>
        <time>2020-08-21T13:55:30.000Z</time>
      </trkpt>
      <trkpt lat="47.74919" lon="-3.35735">
        <ele>6.6</ele>
        <time>2020-08-21T13:55:31.000Z</time>
      </trkpt>
      <trkpt lat="47.7492" lon="-3.35736">
        <ele>6.6</ele>
        <time>2020-08-21T13:55:32.000Z</time>
      </trkpt>
      <trkpt lat="47.74922" lon="-3.35736">
        <ele>6.6</ele>
        <time>2020-08-21T13:55:33.000Z</time>
      </trkpt>
      <trkpt lat="47.74923" lon="-3.35737">
        <ele>6.6</ele>
        <time>2020-08-21T13:55:34.000Z</time>
      </trkpt>
      <trkpt lat="47.74924" lon="-3.35738">
        <ele>6.6</ele>
        <time>2020-08-21T13:55:35.000Z</time>
      </trkpt>
      <trkpt lat="47.74925" lon="-3.35738">
        <ele>6.6</ele>
        <time>2020-08-21T13:55:36.000Z</time>
      </trkpt>
      <trkpt lat="47.74926" lon="-3.35739">
        <ele>6.6</ele>
        <time>2020-08-21T13:55:37.000Z</time>
      </trkpt>
      <trkpt lat="47.74927" lon="-3.3574">
        <ele>6.6</ele>
        <time>2020-08-21T13:55:38.000Z</time>
      </trkpt>
      <trkpt lat="47.74927" lon="-3.35741">
        <ele>6.5</ele>
        <time>2020-08-21T13:55:39.000Z</time>
      </trkpt>
      <trkpt lat="47.74928" lon="-3.35742">
        <ele>6.5</ele>
        <time>2020-08-21T13:55:40.000Z</time>
      </trkpt>
      <trkpt lat="47.74929" lon="-3.35742">
        <ele>6.5</ele>
        <time>2020-08-21T13:55:41.000Z</time>
      </trkpt>
      <trkpt lat="47.7493" lon="-3.35743">
        <ele>6.5</ele>
        <time>2020-08-21T13:55:42.000Z</time>
      </trkpt>
      <trkpt lat="47.74931" lon="-3.35744">
        <ele>6.5</ele>
        <time>2020-08-21T13:55:43.000Z</time>
      </trkpt>
      <trkpt lat="47.74932" lon="-3.35745">
        <ele>6.5</ele>
        <time>2020-08-21T13:55:44.000Z</time>
      </trkpt>
      <trkpt lat="47.74934" lon="-3.35746">
        <ele>6.5</ele>
        <time>2020-08-21T13:55:45.000Z</time>
      </trkpt>
      <trkpt lat="47.74935" lon="-3.35746">
        <ele>6.5</ele>
        <time>2020-08-21T13:55:46.000Z</time>
      </trkpt>
      <trkpt lat="47.74936" lon="-3.35747">
        <ele>6.5</ele>
        <time>2020-08-21T13:55:47.000Z</time>
      </trkpt>
      <trkpt lat="47.74937" lon="-3.35748">
        <ele>6.5</ele>
        <time>2020-08-21T13:55:48.000Z</time>
      </trkpt>
      <trkpt lat="47.74938" lon="-3.35749">
        <ele>6.5</ele>
        <time>2020-08-21T13:55:49.000Z</time>
      </trkpt>
      <trkpt lat="47.74939" lon="-3.35749">
        <ele>6.4</ele>
        <time>2020-08-21T13:55:50.000Z</time>
      </trkpt>
      <trkpt lat="47.7494" lon="-3.3575">
        <ele>6.4</ele>
        <time>2020-08-21T13:55:51.000Z</time>
      </trkpt>
      <trkpt lat="47.74941" lon="-3.3575">
        <ele>6.4</ele>
        <time>2020-08-21T13:55:52.000Z</time>
      </trkpt>
      <trkpt lat="47.74943" lon="-3.35751">
        <ele>6.4</ele>
        <time>2020-08-21T13:55:53.000Z</time>
      </trkpt>
      <trkpt lat="47.74944" lon="-3.35751">
        <ele>6.4</ele>
        <time>2020-08-21T13:55:54.000Z</time>
      </trkpt>
      <trkpt lat="47.74945" lon="-3.35752">
        <ele>6.4</ele>
        <time>2020-08-21T13:55:55.000Z</time>
      </trkpt>
      <trkpt lat="47.74947" lon="-3.35752">
        <ele>6.3</ele>
        <time>2020-08-21T13:55:56.000Z</time>
      </trkpt>
      <trkpt lat="47.74948" lon="-3.35752">
        <ele>6.3</ele>
        <time>2020-08-21T13:55:57.000Z</time>
      </trkpt>
      <trkpt lat="47.74949" lon="-3.35753">
        <ele>6.3</ele>
        <time>2020-08-21T13:55:58.000Z</time>
      </trkpt>
      <trkpt lat="47.7495" lon="-3.35753">
        <ele>6.3</ele>
        <time>2020-08-21T13:55:59.000Z</time>
      </trkpt>
      <trkpt lat="47.74952" lon="-3.35754">
        <ele>6.3</ele>
        <time>2020-08-21T13:56:00.000Z</time>
      </trkpt>
      <trkpt lat="47.74953" lon="-3.35754">
        <ele>6.2</ele>
        <time>2020-08-21T13:56:01.000Z</time>
      </trkpt>
      <trkpt lat="47.74954" lon="-3.35755">
        <ele>6.2</ele>
        <time>2020-08-21T13:56:02.000Z</time>
      </trkpt>
      <trkpt lat="47.74955" lon="-3.35756">
        <ele>6.2</ele>
        <time>2020-08-21T13:56:03.000Z</time>
      </trkpt>
      <trkpt lat="47.74956" lon="-3.35756">
        <ele>6.2</ele>
        <time>2020-08-21T13:56:04.000Z</time>
      </trkpt>
      <trkpt lat="47.74957" lon="-3.35757">
        <ele>6.2</ele>
        <time>2020-08-21T13:56:05.000Z</time>
      </trkpt>
      <trkpt lat="47.74959" lon="-3.35758">
        <ele>6.2</ele>
        <time>2020-08-21T13:56:06.000Z</time>
      </trkpt>
      <trkpt lat="47.7496" lon="-3.35759">
        <ele>6.2</ele>
        <time>2020-08-21T13:56:07.000Z</time>
      </trkpt>
      <trkpt lat="47.74961" lon="-3.3576">
        <ele>6.2</ele>
        <time>2020-08-21T13:56:08.000Z</time>
      </trkpt>
      <trkpt lat="47.74963" lon="-3.3576">
        <ele>6.1</ele>
        <time>2020-08-21T13:56:09.000Z</time>
      </trkpt>
      <trkpt lat="47.74964" lon="-3.35761">
        <ele>6.1</ele>
        <time>2020-08-21T13:56:10.000Z</time>
      </trkpt>
      <trkpt lat="47.74965" lon="-3.35762">
        <ele>6.1</ele>
        <time>2020-08-21T13:56:11.000Z</time>
      </trkpt>
      <trkpt lat="47.74967" lon="-3.35763">
        <ele>6.1</ele>
        <time>2020-08-21T13:56:12.000Z</time>
      </trkpt>
      <trkpt lat="47.74968" lon="-3.35764">
        <ele>6.1</ele>
        <time>2020-08-21T13:56:13.000Z</time>
      </trkpt>
      <trkpt lat="47.74969" lon="-3.35765">
        <ele>6.1</ele>
        <time>2020-08-21T13:56:14.000Z</time>
      </trkpt>
      <trkpt lat="47.7497" lon="-3.35766">
        <ele>6.1</ele>
        <time>2020-08-21T13:56:15.000Z</time>
      </trkpt>
      <trkpt lat="47.74971" lon="-3.35767">
        <ele>6.1</ele>
        <time>2020-08-21T13:56:16.000Z</time>
      </trkpt>
      <trkpt lat="47.74972" lon="-3.35768">
        <ele>6.1</ele>
        <time>2020-08-21T13:56:17.000Z</time>
      </trkpt>
      <trkpt lat="47.74972" lon="-3.35769">
        <ele>6.1</ele>
        <time>2020-08-21T13:56:18.000Z</time>
      </trkpt>
      <trkpt lat="47.74973" lon="-3.3577">
        <ele>6.1</ele>
        <time>2020-08-21T13:56:19.000Z</time>
      </trkpt>
      <trkpt lat="47.74974" lon="-3.35771">
        <ele>6.1</ele>
        <time>2020-08-21T13:56:20.000Z</time>
      </trkpt>
      <trkpt lat="47.74974" lon="-3.35772">
        <ele>6.1</ele>
        <time>2020-08-21T13:56:21.000Z</time>
      </trkpt>
      <trkpt lat="47.74975" lon="-3.35773">
        <ele>6.2</ele>
        <time>2020-08-21T13:56:22.000Z</time>
      </trkpt>
      <trkpt lat="47.74975" lon="-3.35774">
        <ele>6.2</ele>
        <time>2020-08-21T13:56:23.000Z</time>
      </trkpt>
      <trkpt lat="47.74976" lon="-3.35775">
        <ele>6.2</ele>
        <time>2020-08-21T13:56:24.000Z</time>
      </trkpt>
      <trkpt lat="47.74976" lon="-3.35776">
        <ele>6.2</ele>
        <time>2020-08-21T13:56:25.000Z</time>
      </trkpt>
      <trkpt lat="47.74977" lon="-3.35777">
        <ele>6.2</ele>
        <time>2020-08-21T13:56:26.000Z</time>
      </trkpt>
      <trkpt lat="47.74977" lon="-3.35778">
        <ele>6.2</ele>
        <time>2020-08-21T13:56:27.000Z</time>
      </trkpt>
      <trkpt lat="47.74978" lon="-3.35779">
        <ele>6.2</ele>
        <time>2020-08-21T13:56:28.000Z</time>
      </trkpt>
      <trkpt lat="47.74978" lon="-3.3578">
        <ele>6.2</ele>
        <time>2020-08-21T13:56:29.000Z</time>
      </trkpt>
      <trkpt lat="47.74979" lon="-3.35781">
        <ele>6.2</ele>
        <time>2020-08-21T13:56:30.000Z</time>
      </trkpt>
      <trkpt lat="47.7498" lon="-3.35782">
        <ele>6.2</ele>
        <time>2020-08-21T13:56:31.000Z</time>
      </trkpt>
      <trkpt lat="47.74981" lon="-3.35782">
        <ele>6.2</ele>
        <time>2020-08-21T13:56:32.000Z</time>
      </trkpt>
      <trkpt lat="47.74981" lon="-3.35783">
        <ele>6.2</ele>
        <time>2020-08-21T13:56:33.000Z</time>
      </trkpt>
      <trkpt lat="47.74982" lon="-3.35783">
        <ele>6.2</ele>
        <time>2020-08-21T13:56:34.000Z</time>
      </trkpt>
      <trkpt lat="47.74983" lon="-3.35784">
        <ele>6.2</ele>
        <time>2020-08-21T13:56:35.000Z</time>
      </trkpt>
      <trkpt lat="47.74984" lon="-3.35784">
        <ele>6.2</ele>
        <time>2020-08-21T13:56:36.000Z</time>
      </trkpt>
      <trkpt lat="47.74985" lon="-3.35785">
        <ele>6.2</ele>
        <time>2020-08-21T13:56:37.000Z</time>
      </trkpt>
      <trkpt lat="47.74986" lon="-3.35786">
        <ele>6.2</ele>
        <time>2020-08-21T13:56:38.000Z</time>
      </trkpt>
      <trkpt lat="47.74987" lon="-3.35786">
        <ele>6.2</ele>
        <time>2020-08-21T13:56:39.000Z</time>
      </trkpt>
      <trkpt lat="47.74988" lon="-3.35787">
        <ele>6.2</ele>
        <time>2020-08-21T13:56:40.000Z</time>
      </trkpt>
      <trkpt lat="47.74989" lon="-3.35787">
        <ele>6.2</ele>
        <time>2020-08-21T13:56:41.000Z</time>
      </trkpt>
      <trkpt lat="47.7499" lon="-3.35788">
        <ele>6.1</ele>
        <time>2020-08-21T13:56:42.000Z</time>
      </trkpt>
      <trkpt lat="47.74991" lon="-3.35788">
        <ele>6.1</ele>
        <time>2020-08-21T13:56:43.000Z</time>
      </trkpt>
      <trkpt lat="47.74993" lon="-3.35789">
        <ele>6.1</ele>
        <time>2020-08-21T13:56:44.000Z</time>
      </trkpt>
      <trkpt lat="47.74994" lon="-3.3579">
        <ele>6.1</ele>
        <time>2020-08-21T13:56:45.000Z</time>
      </trkpt>
      <trkpt lat="47.74995" lon="-3.3579">
        <ele>6.1</ele>
        <time>2020-08-21T13:56:46.000Z</time>
      </trkpt>
      <trkpt lat="47.74996" lon="-3.35791">
        <ele>6.1</ele>
        <time>2020-08-21T13:56:47.000Z</time>
      </trkpt>
      <trkpt lat="47.74997" lon="-3.35791">
        <ele>6.1</ele>
        <time>2020-08-21T13:56:48.000Z</time>
      </trkpt>
      <trkpt lat="47.74999" lon="-3.35792">
        <ele>6</ele>
        <time>2020-08-21T13:56:49.000Z</time>
      </trkpt>
      <trkpt lat="47.75" lon="-3.35792">
        <ele>6</ele>
        <time>2020-08-21T13:56:50.000Z</time>
      </trkpt>
      <trkpt lat="47.75001" lon="-3.35793">
        <ele>6</ele>
        <time>2020-08-21T13:56:51.000Z</time>
      </trkpt>
      <trkpt lat="47.75002" lon="-3.35793">
        <ele>6</ele>
        <time>2020-08-21T13:56:52.000Z</time>
      </trkpt>
      <trkpt lat="47.75003" lon="-3.35794">
        <ele>6</ele>
        <time>2020-08-21T13:56:53.000Z</time>
      </trkpt>
      <trkpt lat="47.75004" lon="-3.35795">
        <ele>6</ele>
        <time>2020-08-21T13:56:54.000Z</time>
      </trkpt>
      <trkpt lat="47.75006" lon="-3.35795">
        <ele>6</ele>
        <time>2020-08-21T13:56:55.000Z</time>
      </trkpt>
      <trkpt lat="47.75007" lon="-3.35796">
        <ele>6</ele>
        <time>2020-08-21T13:56:56.000Z</time>
      </trkpt>
      <trkpt lat="47.75008" lon="-3.35797">
        <ele>6</ele>
        <time>2020-08-21T13:56:57.000Z</time>
      </trkpt>
      <trkpt lat="47.75009" lon="-3.35798">
        <ele>6</ele>
        <time>2020-08-21T13:56:58.000Z</time>
      </trkpt>
      <trkpt lat="47.7501" lon="-3.35798">
        <ele>6</ele>
        <time>2020-08-21T13:56:59.000Z</time>
      </trkpt>
      <trkpt lat="47.75011" lon="-3.35799">
        <ele>6.1</ele>
        <time>2020-08-21T13:57:00.000Z</time>
      </trkpt>
      <trkpt lat="47.75012" lon="-3.358">
        <ele>6.1</ele>
        <time>2020-08-21T13:57:01.000Z</time>
      </trkpt>
      <trkpt lat="47.75013" lon="-3.35801">
        <ele>6.1</ele>
        <time>2020-08-21T13:57:02.000Z</time>
      </trkpt>
      <trkpt lat="47.75014" lon="-3.35802">
        <ele>6.1</ele>
        <time>2020-08-21T13:57:03.000Z</time>
      </trkpt>
      <trkpt lat="47.75015" lon="-3.35802">
        <ele>6.1</ele>
        <time>2020-08-21T13:57:04.000Z</time>
      </trkpt>
      <trkpt lat="47.75016" lon="-3.35802">
        <ele>6.1</ele>
        <time>2020-08-21T13:57:05.000Z</time>
      </trkpt>
      <trkpt lat="47.75017" lon="-3.35803">
        <ele>6.1</ele>
        <time>2020-08-21T13:57:06.000Z</time>
      </trkpt>
      <trkpt lat="47.75017" lon="-3.35803">
        <ele>6.1</ele>
        <time>2020-08-21T13:57:07.000Z</time>
      </trkpt>
      <trkpt lat="47.75018" lon="-3.35803">
        <ele>6</ele>
        <time>2020-08-21T13:57:08.000Z</time>
      </trkpt>
      <trkpt lat="47.75019" lon="-3.35803">
        <ele>6</ele>
        <time>2020-08-21T13:57:09.000Z</time>
      </trkpt>
      <trkpt lat="47.75019" lon="-3.35803">
        <ele>6</ele>
        <time>2020-08-21T13:57:10.000Z</time>
      </trkpt>
      <trkpt lat="47.7502" lon="-3.35803">
        <ele>6</ele>
        <time>2020-08-21T13:57:11.000Z</time>
      </trkpt>
      <trkpt lat="47.7502" lon="-3.35803">
        <ele>6</ele>
        <time>2020-08-21T13:57:12.000Z</time>
      </trkpt>
      <trkpt lat="47.75021" lon="-3.35803">
        <ele>6</ele>
        <time>2020-08-21T13:57:13.000Z</time>
      </trkpt>
      <trkpt lat="47.75022" lon="-3.35804">
        <ele>6</ele>
        <time>2020-08-21T13:57:14.000Z</time>
      </trkpt>
      <trkpt lat="47.75023" lon="-3.35805">
        <ele>6</ele>
        <time>2020-08-21T13:57:15.000Z</time>
      </trkpt>
      <trkpt lat="47.75024" lon="-3.35806">
        <ele>6.1</ele>
        <time>2020-08-21T13:57:16.000Z</time>
      </trkpt>
      <trkpt lat="47.75025" lon="-3.35808">
        <ele>6.1</ele>
        <time>2020-08-21T13:57:17.000Z</time>
      </trkpt>
      <trkpt lat="47.75026" lon="-3.35809">
        <ele>6.1</ele>
        <time>2020-08-21T13:57:18.000Z</time>
      </trkpt>
      <trkpt lat="47.75027" lon="-3.3581">
        <ele>6.1</ele>
        <time>2020-08-21T13:57:19.000Z</time>
      </trkpt>
      <trkpt lat="47.75027" lon="-3.35811">
        <ele>6.1</ele>
        <time>2020-08-21T13:57:20.000Z</time>
      </trkpt>
      <trkpt lat="47.75028" lon="-3.35813">
        <ele>6.2</ele>
        <time>2020-08-21T13:57:21.000Z</time>
      </trkpt>
      <trkpt lat="47.75029" lon="-3.35814">
        <ele>6.2</ele>
        <time>2020-08-21T13:57:22.000Z</time>
      </trkpt>
      <trkpt lat="47.7503" lon="-3.35815">
        <ele>6.2</ele>
        <time>2020-08-21T13:57:23.000Z</time>
      </trkpt>
      <trkpt lat="47.75032" lon="-3.35816">
        <ele>6.2</ele>
        <time>2020-08-21T13:57:24.000Z</time>
      </trkpt>
      <trkpt lat="47.75033" lon="-3.35817">
        <ele>6.2</ele>
        <time>2020-08-21T13:57:25.000Z</time>
      </trkpt>
      <trkpt lat="47.75034" lon="-3.35818">
        <ele>6.2</ele>
        <time>2020-08-21T13:57:26.000Z</time>
      </trkpt>
      <trkpt lat="47.75035" lon="-3.35819">
        <ele>6.2</ele>
        <time>2020-08-21T13:57:27.000Z</time>
      </trkpt>
      <trkpt lat="47.75036" lon="-3.3582">
        <ele>6.2</ele>
        <time>2020-08-21T13:57:28.000Z</time>
      </trkpt>
      <trkpt lat="47.75038" lon="-3.35821">
        <ele>6.3</ele>
        <time>2020-08-21T13:57:29.000Z</time>
      </trkpt>
      <trkpt lat="47.75039" lon="-3.35822">
        <ele>6.3</ele>
        <time>2020-08-21T13:57:30.000Z</time>
      </trkpt>
      <trkpt lat="47.7504" lon="-3.35822">
        <ele>6.3</ele>
        <time>2020-08-21T13:57:31.000Z</time>
      </trkpt>
      <trkpt lat="47.75041" lon="-3.35823">
        <ele>6.3</ele>
        <time>2020-08-21T13:57:32.000Z</time>
      </trkpt>
      <trkpt lat="47.75042" lon="-3.35823">
        <ele>6.3</ele>
        <time>2020-08-21T13:57:33.000Z</time>
      </trkpt>
      <trkpt lat="47.75043" lon="-3.35824">
        <ele>6.3</ele>
        <time>2020-08-21T13:57:34.000Z</time>
      </trkpt>
      <trkpt lat="47.75044" lon="-3.35824">
        <ele>6.2</ele>
        <time>2020-08-21T13:57:35.000Z</time>
      </trkpt>
      <trkpt lat="47.75045" lon="-3.35824">
        <ele>6.2</ele>
        <time>2020-08-21T13:57:36.000Z</time>
      </trkpt>
      <trkpt lat="47.75046" lon="-3.35824">
        <ele>6.2</ele>
        <time>2020-08-21T13:57:37.000Z</time>
      </trkpt>
      <trkpt lat="47.75047" lon="-3.35825">
        <ele>6.2</ele>
        <time>2020-08-21T13:57:38.000Z</time>
      </trkpt>
      <trkpt lat="47.75047" lon="-3.35825">
        <ele>6.2</ele>
        <time>2020-08-21T13:57:39.000Z</time>
      </trkpt>
      <trkpt lat="47.75048" lon="-3.35825">
        <ele>6.2</ele>
        <time>2020-08-21T13:57:40.000Z</time>
      </trkpt>
      <trkpt lat="47.75049" lon="-3.35825">
        <ele>6.2</ele>
        <time>2020-08-21T13:57:41.000Z</time>
      </trkpt>
      <trkpt lat="47.7505" lon="-3.35826">
        <ele>6.2</ele>
        <time>2020-08-21T13:57:42.000Z</time>
      </trkpt>
      <trkpt lat="47.75051" lon="-3.35826">
        <ele>6.2</ele>
        <time>2020-08-21T13:57:43.000Z</time>
      </trkpt>
      <trkpt lat="47.75052" lon="-3.35827">
        <ele>6.2</ele>
        <time>2020-08-21T13:57:44.000Z</time>
      </trkpt>
      <trkpt lat="47.75053" lon="-3.35828">
        <ele>6.2</ele>
        <time>2020-08-21T13:57:45.000Z</time>
      </trkpt>
      <trkpt lat="47.75054" lon="-3.35828">
        <ele>6.2</ele>
        <time>2020-08-21T13:57:46.000Z</time>
      </trkpt>
      <trkpt lat="47.75055" lon="-3.35829">
        <ele>6.2</ele>
        <time>2020-08-21T13:57:47.000Z</time>
      </trkpt>
      <trkpt lat="47.75056" lon="-3.3583">
        <ele>6.2</ele>
        <time>2020-08-21T13:57:48.000Z</time>
      </trkpt>
      <trkpt lat="47.75057" lon="-3.35831">
        <ele>6.2</ele>
        <time>2020-08-21T13:57:49.000Z</time>
      </trkpt>
      <trkpt lat="47.75058" lon="-3.35831">
        <ele>6.3</ele>
        <time>2020-08-21T13:57:50.000Z</time>
      </trkpt>
      <trkpt lat="47.75059" lon="-3.35832">
        <ele>6.3</ele>
        <time>2020-08-21T13:57:51.000Z</time>
      </trkpt>
      <trkpt lat="47.75061" lon="-3.35833">
        <ele>6.3</ele>
        <time>2020-08-21T13:57:52.000Z</time>
      </trkpt>
      <trkpt lat="47.75062" lon="-3.35834">
        <ele>6.3</ele>
        <time>2020-08-21T13:57:53.000Z</time>
      </trkpt>
      <trkpt lat="47.75063" lon="-3.35835">
        <ele>6.3</ele>
        <time>2020-08-21T13:57:54.000Z</time>
      </trkpt>
      <trkpt lat="47.75064" lon="-3.35835">
        <ele>6.3</ele>
        <time>2020-08-21T13:57:55.000Z</time>
      </trkpt>
      <trkpt lat="47.75066" lon="-3.35836">
        <ele>6.3</ele>
        <time>2020-08-21T13:57:56.000Z</time>
      </trkpt>
      <trkpt lat="47.75067" lon="-3.35837">
        <ele>6.3</ele>
        <time>2020-08-21T13:57:57.000Z</time>
      </trkpt>
      <trkpt lat="47.75068" lon="-3.35838">
        <ele>6.3</ele>
        <time>2020-08-21T13:57:58.000Z</time>
      </trkpt>
      <trkpt lat="47.7507" lon="-3.35839">
        <ele>6.3</ele>
        <time>2020-08-21T13:57:59.000Z</time>
      </trkpt>
      <trkpt lat="47.75071" lon="-3.35839">
        <ele>6.3</ele>
        <time>2020-08-21T13:58:00.000Z</time>
      </trkpt>
      <trkpt lat="47.75072" lon="-3.3584">
        <ele>6.3</ele>
        <time>2020-08-21T13:58:01.000Z</time>
      </trkpt>
      <trkpt lat="47.75073" lon="-3.35841">
        <ele>6.3</ele>
        <time>2020-08-21T13:58:02.000Z</time>
      </trkpt>
      <trkpt lat="47.75075" lon="-3.35842">
        <ele>6.3</ele>
        <time>2020-08-21T13:58:03.000Z</time>
      </trkpt>
      <trkpt lat="47.75076" lon="-3.35842">
        <ele>6.3</ele>
        <time>2020-08-21T13:58:04.000Z</time>
      </trkpt>
      <trkpt lat="47.75077" lon="-3.35843">
        <ele>6.3</ele>
        <time>2020-08-21T13:58:05.000Z</time>
      </trkpt>
      <trkpt lat="47.75078" lon="-3.35844">
        <ele>6.3</ele>
        <time>2020-08-21T13:58:06.000Z</time>
      </trkpt>
      <trkpt lat="47.75079" lon="-3.35845">
        <ele>6.3</ele>
        <time>2020-08-21T13:58:07.000Z</time>
      </trkpt>
      <trkpt lat="47.75081" lon="-3.35845">
        <ele>6.3</ele>
        <time>2020-08-21T13:58:08.000Z</time>
      </trkpt>
      <trkpt lat="47.75082" lon="-3.35846">
        <ele>6.3</ele>
        <time>2020-08-21T13:58:09.000Z</time>
      </trkpt>
      <trkpt lat="47.75083" lon="-3.35847">
        <ele>6.3</ele>
        <time>2020-08-21T13:58:10.000Z</time>
      </trkpt>
      <trkpt lat="47.75084" lon="-3.35847">
        <ele>6.3</ele>
        <time>2020-08-21T13:58:11.000Z</time>
      </trkpt>
      <trkpt lat="47.75085" lon="-3.35848">
        <ele>6.3</ele>
        <time>2020-08-21T13:58:12.000Z</time>
      </trkpt>
      <trkpt lat="47.75086" lon="-3.35849">
        <ele>6.3</ele>
        <time>2020-08-21T13:58:13.000Z</time>
      </trkpt>
      <trkpt lat="47.75087" lon="-3.35849">
        <ele>6.3</ele>
        <time>2020-08-21T13:58:14.000Z</time>
      </trkpt>
      <trkpt lat="47.75088" lon="-3.3585">
        <ele>6.3</ele>
        <time>2020-08-21T13:58:15.000Z</time>
      </trkpt>
      <trkpt lat="47.75089" lon="-3.35851">
        <ele>6.3</ele>
        <time>2020-08-21T13:58:16.000Z</time>
      </trkpt>
      <trkpt lat="47.7509" lon="-3.35851">
        <ele>6.4</ele>
        <time>2020-08-21T13:58:17.000Z</time>
      </trkpt>
      <trkpt lat="47.75091" lon="-3.35852">
        <ele>6.4</ele>
        <time>2020-08-21T13:58:18.000Z</time>
      </trkpt>
      <trkpt lat="47.75092" lon="-3.35853">
        <ele>6.4</ele>
        <time>2020-08-21T13:58:19.000Z</time>
      </trkpt>
      <trkpt lat="47.75093" lon="-3.35853">
        <ele>6.4</ele>
        <time>2020-08-21T13:58:20.000Z</time>
      </trkpt>
      <trkpt lat="47.75094" lon="-3.35854">
        <ele>6.4</ele>
        <time>2020-08-21T13:58:21.000Z</time>
      </trkpt>
      <trkpt lat="47.75094" lon="-3.35855">
        <ele>6.4</ele>
        <time>2020-08-21T13:58:22.000Z</time>
      </trkpt>
      <trkpt lat="47.75095" lon="-3.35856">
        <ele>6.4</ele>
        <time>2020-08-21T13:58:23.000Z</time>
      </trkpt>
      <trkpt lat="47.75096" lon="-3.35856">
        <ele>6.4</ele>
        <time>2020-08-21T13:58:24.000Z</time>
      </trkpt>
      <trkpt lat="47.75097" lon="-3.35857">
        <ele>6.4</ele>
        <time>2020-08-21T13:58:25.000Z</time>
      </trkpt>
      <trkpt lat="47.75098" lon="-3.35858">
        <ele>6.4</ele>
        <time>2020-08-21T13:58:26.000Z</time>
      </trkpt>
      <trkpt lat="47.75098" lon="-3.35859">
        <ele>6.4</ele>
        <time>2020-08-21T13:58:27.000Z</time>
      </trkpt>
      <trkpt lat="47.75099" lon="-3.3586">
        <ele>6.4</ele>
        <time>2020-08-21T13:58:28.000Z</time>
      </trkpt>
      <trkpt lat="47.751" lon="-3.35861">
        <ele>6.5</ele>
        <time>2020-08-21T13:58:29.000Z</time>
      </trkpt>
      <trkpt lat="47.751" lon="-3.35861">
        <ele>6.5</ele>
        <time>2020-08-21T13:58:30.000Z</time>
      </trkpt>
      <trkpt lat="47.75101" lon="-3.35862">
        <ele>6.5</ele>
        <time>2020-08-21T13:58:31.000Z</time>
      </trkpt>
      <trkpt lat="47.75102" lon="-3.35862">
        <ele>6.5</ele>
        <time>2020-08-21T13:58:32.000Z</time>
      </trkpt>
      <trkpt lat="47.75102" lon="-3.35862">
        <ele>6.5</ele>
        <time>2020-08-21T13:58:33.000Z</time>
      </trkpt>
      <trkpt lat="47.75103" lon="-3.35861">
        <ele>6.4</ele>
        <time>2020-08-21T13:58:34.000Z</time>
      </trkpt>
      <trkpt lat="47.75104" lon="-3.35861">
        <ele>6.4</ele>
        <time>2020-08-21T13:58:35.000Z</time>
      </trkpt>
      <trkpt lat="47.75105" lon="-3.3586">
        <ele>6.4</ele>
        <time>2020-08-21T13:58:36.000Z</time>
      </trkpt>
      <trkpt lat="47.75106" lon="-3.35858">
        <ele>6.3</ele>
        <time>2020-08-21T13:58:37.000Z</time>
      </trkpt>
      <trkpt lat="47.75107" lon="-3.35857">
        <ele>6.3</ele>
        <time>2020-08-21T13:58:38.000Z</time>
      </trkpt>
      <trkpt lat="47.75107" lon="-3.35855">
        <ele>6.2</ele>
        <time>2020-08-21T13:58:39.000Z</time>
      </trkpt>
      <trkpt lat="47.75108" lon="-3.35853">
        <ele>6.2</ele>
        <time>2020-08-21T13:58:40.000Z</time>
      </trkpt>
      <trkpt lat="47.75108" lon="-3.35851">
        <ele>6.1</ele>
        <time>2020-08-21T13:58:41.000Z</time>
      </trkpt>
      <trkpt lat="47.75109" lon="-3.3585">
        <ele>6.1</ele>
        <time>2020-08-21T13:58:42.000Z</time>
      </trkpt>
      <trkpt lat="47.75109" lon="-3.35848">
        <ele>6</ele>
        <time>2020-08-21T13:58:43.000Z</time>
      </trkpt>
      <trkpt lat="47.75109" lon="-3.35846">
        <ele>6</ele>
        <time>2020-08-21T13:58:44.000Z</time>
      </trkpt>
      <trkpt lat="47.7511" lon="-3.35844">
        <ele>6</ele>
        <time>2020-08-21T13:58:45.000Z</time>
      </trkpt>
      <trkpt lat="47.7511" lon="-3.35843">
        <ele>5.9</ele>
        <time>2020-08-21T13:58:46.000Z</time>
      </trkpt>
      <trkpt lat="47.75111" lon="-3.35842">
        <ele>5.9</ele>
        <time>2020-08-21T13:58:47.000Z</time>
      </trkpt>
      <trkpt lat="47.75111" lon="-3.35841">
        <ele>5.8</ele>
        <time>2020-08-21T13:58:48.000Z</time>
      </trkpt>
      <trkpt lat="47.75112" lon="-3.3584">
        <ele>5.8</ele>
        <time>2020-08-21T13:58:49.000Z</time>
      </trkpt>
      <trkpt lat="47.75113" lon="-3.35839">
        <ele>5.8</ele>
        <time>2020-08-21T13:58:50.000Z</time>
      </trkpt>
      <trkpt lat="47.75114" lon="-3.35838">
        <ele>5.7</ele>
        <time>2020-08-21T13:58:51.000Z</time>
      </trkpt>
      <trkpt lat="47.75115" lon="-3.35837">
        <ele>5.7</ele>
        <time>2020-08-21T13:58:52.000Z</time>
      </trkpt>
      <trkpt lat="47.75116" lon="-3.35836">
        <ele>5.7</ele>
        <time>2020-08-21T13:58:53.000Z</time>
      </trkpt>
      <trkpt lat="47.75117" lon="-3.35835">
        <ele>5.6</ele>
        <time>2020-08-21T13:58:54.000Z</time>
      </trkpt>
      <trkpt lat="47.75118" lon="-3.35835">
        <ele>5.6</ele>
        <time>2020-08-21T13:58:55.000Z</time>
      </trkpt>
      <trkpt lat="47.7512" lon="-3.35834">
        <ele>5.6</ele>
        <time>2020-08-21T13:58:56.000Z</time>
      </trkpt>
      <trkpt lat="47.75121" lon="-3.35833">
        <ele>5.5</ele>
        <time>2020-08-21T13:58:57.000Z</time>
      </trkpt>
      <trkpt lat="47.75123" lon="-3.35832">
        <ele>5.5</ele>
        <time>2020-08-21T13:58:58.000Z</time>
      </trkpt>
      <trkpt lat="47.75124" lon="-3.35831">
        <ele>5.5</ele>
        <time>2020-08-21T13:58:59.000Z</time>
      </trkpt>
      <trkpt lat="47.75125" lon="-3.3583">
        <ele>5.5</ele>
        <time>2020-08-21T13:59:00.000Z</time>
      </trkpt>
      <trkpt lat="47.75126" lon="-3.35829">
        <ele>5.4</ele>
        <time>2020-08-21T13:59:01.000Z</time>
      </trkpt>
      <trkpt lat="47.75128" lon="-3.35828">
        <ele>5.4</ele>
        <time>2020-08-21T13:59:02.000Z</time>
      </trkpt>
      <trkpt lat="47.75129" lon="-3.35828">
        <ele>5.4</ele>
        <time>2020-08-21T13:59:03.000Z</time>
      </trkpt>
      <trkpt lat="47.7513" lon="-3.35827">
        <ele>5.4</ele>
        <time>2020-08-21T13:59:04.000Z</time>
      </trkpt>
      <trkpt lat="47.75131" lon="-3.35826">
        <ele>5.4</ele>
        <time>2020-08-21T13:59:05.000Z</time>
      </trkpt>
      <trkpt lat="47.75132" lon="-3.35825">
        <ele>5.3</ele>
        <time>2020-08-21T13:59:06.000Z</time>
      </trkpt>
      <trkpt lat="47.75133" lon="-3.35824">
        <ele>5.3</ele>
        <time>2020-08-21T13:59:07.000Z</time>
      </trkpt>
      <trkpt lat="47.75133" lon="-3.35823">
        <ele>5.3</ele>
        <time>2020-08-21T13:59:08.000Z</time>
      </trkpt>
      <trkpt lat="47.75134" lon="-3.35822">
        <ele>5.3</ele>
        <time>2020-08-21T13:59:09.000Z</time>
      </trkpt>
      <trkpt lat="47.75135" lon="-3.35821">
        <ele>5.3</ele>
        <time>2020-08-21T13:59:10.000Z</time>
      </trkpt>
      <trkpt lat="47.75136" lon="-3.3582">
        <ele>5.3</ele>
        <time>2020-08-21T13:59:11.000Z</time>
      </trkpt>
      <trkpt lat="47.75137" lon="-3.3582">
        <ele>5.2</ele>
        <time>2020-08-21T13:59:12.000Z</time>
      </trkpt>
      <trkpt lat="47.75138" lon="-3.35819">
        <ele>5.2</ele>
        <time>2020-08-21T13:59:13.000Z</time>
      </trkpt>
      <trkpt lat="47.75139" lon="-3.35818">
        <ele>5.2</ele>
        <time>2020-08-21T13:59:14.000Z</time>
      </trkpt>
      <trkpt lat="47.7514" lon="-3.35817">
        <ele>5.2</ele>
        <time>2020-08-21T13:59:15.000Z</time>
      </trkpt>
      <trkpt lat="47.75141" lon="-3.35816">
        <ele>5.2</ele>
        <time>2020-08-21T13:59:16.000Z</time>
      </trkpt>
      <trkpt lat="47.75142" lon="-3.35816">
        <ele>5.2</ele>
        <time>2020-08-21T13:59:17.000Z</time>
      </trkpt>
      <trkpt lat="47.75144" lon="-3.35815">
        <ele>5.2</ele>
        <time>2020-08-21T13:59:18.000Z</time>
      </trkpt>
      <trkpt lat="47.75145" lon="-3.35814">
        <ele>5.1</ele>
        <time>2020-08-21T13:59:19.000Z</time>
      </trkpt>
      <trkpt lat="47.75146" lon="-3.35813">
        <ele>5.1</ele>
        <time>2020-08-21T13:59:20.000Z</time>
      </trkpt>
      <trkpt lat="47.75147" lon="-3.35813">
        <ele>5.1</ele>
        <time>2020-08-21T13:59:21.000Z</time>
      </trkpt>
      <trkpt lat="47.75148" lon="-3.35812">
        <ele>5.1</ele>
        <time>2020-08-21T13:59:22.000Z</time>
      </trkpt>
      <trkpt lat="47.75149" lon="-3.35811">
        <ele>5.1</ele>
        <time>2020-08-21T13:59:23.000Z</time>
      </trkpt>
      <trkpt lat="47.75151" lon="-3.3581">
        <ele>5.1</ele>
        <time>2020-08-21T13:59:24.000Z</time>
      </trkpt>
      <trkpt lat="47.75152" lon="-3.35809">
        <ele>5.1</ele>
        <time>2020-08-21T13:59:25.000Z</time>
      </trkpt>
      <trkpt lat="47.75153" lon="-3.35808">
        <ele>5.1</ele>
        <time>2020-08-21T13:59:26.000Z</time>
      </trkpt>
      <trkpt lat="47.75154" lon="-3.35808">
        <ele>5.1</ele>
        <time>2020-08-21T13:59:27.000Z</time>
      </trkpt>
      <trkpt lat="47.75155" lon="-3.35807">
        <ele>5.1</ele>
        <time>2020-08-21T13:59:28.000Z</time>
      </trkpt>
      <trkpt lat="47.75156" lon="-3.35806">
        <ele>5</ele>
        <time>2020-08-21T13:59:29.000Z</time>
      </trkpt>
      <trkpt lat="47.75156" lon="-3.35805">
        <ele>5</ele>
        <time>2020-08-21T13:59:30.000Z</time>
      </trkpt>
      <trkpt lat="47.75157" lon="-3.35804">
        <ele>5</ele>
        <time>2020-08-21T13:59:31.000Z</time>
      </trkpt>
      <trkpt lat="47.75158" lon="-3.35803">
        <ele>5</ele>
        <time>2020-08-21T13:59:32.000Z</time>
      </trkpt>
      <trkpt lat="47.75159" lon="-3.35802">
        <ele>5</ele>
        <time>2020-08-21T13:59:33.000Z</time>
      </trkpt>
      <trkpt lat="47.75159" lon="-3.358">
        <ele>5</ele>
        <time>2020-08-21T13:59:34.000Z</time>
      </trkpt>
      <trkpt lat="47.7516" lon="-3.35799">
        <ele>5</ele>
        <time>2020-08-21T13:59:35.000Z</time>
      </trkpt>
      <trkpt lat="47.75161" lon="-3.35798">
        <ele>5</ele>
        <time>2020-08-21T13:59:36.000Z</time>
      </trkpt>
      <trkpt lat="47.75162" lon="-3.35797">
        <ele>5</ele>
        <time>2020-08-21T13:59:37.000Z</time>
      </trkpt>
      <trkpt lat="47.75162" lon="-3.35796">
        <ele>5</ele>
        <time>2020-08-21T13:59:38.000Z</time>
      </trkpt>
      <trkpt lat="47.75163" lon="-3.35795">
        <ele>5</ele>
        <time>2020-08-21T13:59:39.000Z</time>
      </trkpt>
      <trkpt lat="47.75164" lon="-3.35794">
        <ele>5</ele>
        <time>2020-08-21T13:59:40.000Z</time>
      </trkpt>
      <trkpt lat="47.75165" lon="-3.35794">
        <ele>5</ele>
        <time>2020-08-21T13:59:41.000Z</time>
      </trkpt>
      <trkpt lat="47.75166" lon="-3.35793">
        <ele>5</ele>
        <time>2020-08-21T13:59:42.000Z</time>
      </trkpt>
      <trkpt lat="47.75167" lon="-3.35792">
        <ele>5</ele>
        <time>2020-08-21T13:59:43.000Z</time>
      </trkpt>
      <trkpt lat="47.75168" lon="-3.35791">
        <ele>5</ele>
        <time>2020-08-21T13:59:44.000Z</time>
      </trkpt>
      <trkpt lat="47.75169" lon="-3.35791">
        <ele>5</ele>
        <time>2020-08-21T13:59:45.000Z</time>
      </trkpt>
      <trkpt lat="47.7517" lon="-3.3579">
        <ele>5</ele>
        <time>2020-08-21T13:59:46.000Z</time>
      </trkpt>
      <trkpt lat="47.75171" lon="-3.35789">
        <ele>5</ele>
        <time>2020-08-21T13:59:47.000Z</time>
      </trkpt>
      <trkpt lat="47.75172" lon="-3.35788">
        <ele>5</ele>
        <time>2020-08-21T13:59:48.000Z</time>
      </trkpt>
      <trkpt lat="47.75173" lon="-3.35787">
        <ele>5</ele>
        <time>2020-08-21T13:59:49.000Z</time>
      </trkpt>
      <trkpt lat="47.75173" lon="-3.35786">
        <ele>5</ele>
        <time>2020-08-21T13:59:50.000Z</time>
      </trkpt>
      <trkpt lat="47.75174" lon="-3.35785">
        <ele>5</ele>
        <time>2020-08-21T13:59:51.000Z</time>
      </trkpt>
      <trkpt lat="47.75174" lon="-3.35784">
        <ele>5</ele>
        <time>2020-08-21T13:59:52.000Z</time>
      </trkpt>
      <trkpt lat="47.75175" lon="-3.35783">
        <ele>5</ele>
        <time>2020-08-21T13:59:53.000Z</time>
      </trkpt>
      <trkpt lat="47.75175" lon="-3.35782">
        <ele>5</ele>
        <time>2020-08-21T13:59:54.000Z</time>
      </trkpt>
      <trkpt lat="47.75175" lon="-3.3578">
        <ele>5</ele>
        <time>2020-08-21T13:59:55.000Z</time>
      </trkpt>
      <trkpt lat="47.75175" lon="-3.35779">
        <ele>5</ele>
        <time>2020-08-21T13:59:56.000Z</time>
      </trkpt>
      <trkpt lat="47.75175" lon="-3.35777">
        <ele>5</ele>
        <time>2020-08-21T13:59:57.000Z</time>
      </trkpt>
      <trkpt lat="47.75176" lon="-3.35776">
        <ele>5</ele>
        <time>2020-08-21T13:59:58.000Z</time>
      </trkpt>
      <trkpt lat="47.75176" lon="-3.35775">
        <ele>5</ele>
        <time>2020-08-21T13:59:59.000Z</time>
      </trkpt>
      <trkpt lat="47.75176" lon="-3.35773">
        <ele>5</ele>
        <time>2020-08-21T14:00:00.000Z</time>
      </trkpt>
      <trkpt lat="47.75176" lon="-3.35772">
        <ele>5</ele>
        <time>2020-08-21T14:00:01.000Z</time>
      </trkpt>
      <trkpt lat="47.75177" lon="-3.35771">
        <ele>5</ele>
        <time>2020-08-21T14:00:02.000Z</time>
      </trkpt>
      <trkpt lat="47.75177" lon="-3.35769">
        <ele>5</ele>
        <time>2020-08-21T14:00:03.000Z</time>
      </trkpt>
      <trkpt lat="47.75178" lon="-3.35768">
        <ele>5</ele>
        <time>2020-08-21T14:00:04.000Z</time>
      </trkpt>
      <trkpt lat="47.75178" lon="-3.35766">
        <ele>5</ele>
        <time>2020-08-21T14:00:05.000Z</time>
      </trkpt>
      <trkpt lat="47.75179" lon="-3.35765">
        <ele>5</ele>
        <time>2020-08-21T14:00:06.000Z</time>
      </trkpt>
      <trkpt lat="47.75179" lon="-3.35763">
        <ele>5</ele>
        <time>2020-08-21T14:00:07.000Z</time>
      </trkpt>
      <trkpt lat="47.7518" lon="-3.35762">
        <ele>5</ele>
        <time>2020-08-21T14:00:08.000Z</time>
      </trkpt>
      <trkpt lat="47.75181" lon="-3.3576">
        <ele>5</ele>
        <time>2020-08-21T14:00:09.000Z</time>
      </trkpt>
      <trkpt lat="47.75181" lon="-3.35759">
        <ele>5</ele>
        <time>2020-08-21T14:00:10.000Z</time>
      </trkpt>
      <trkpt lat="47.75182" lon="-3.35757">
        <ele>5</ele>
        <time>2020-08-21T14:00:11.000Z</time>
      </trkpt>
      <trkpt lat="47.75182" lon="-3.35756">
        <ele>5</ele>
        <time>2020-08-21T14:00:12.000Z</time>
      </trkpt>
      <trkpt lat="47.75183" lon="-3.35754">
        <ele>5</ele>
        <time>2020-08-21T14:00:13.000Z</time>
      </trkpt>
      <trkpt lat="47.75183" lon="-3.35753">
        <ele>5</ele>
        <time>2020-08-21T14:00:14.000Z</time>
      </trkpt>
      <trkpt lat="47.75184" lon="-3.35751">
        <ele>5</ele>
        <time>2020-08-21T14:00:15.000Z</time>
      </trkpt>
      <trkpt lat="47.75184" lon="-3.3575">
        <ele>5</ele>
        <time>2020-08-21T14:00:16.000Z</time>
      </trkpt>
      <trkpt lat="47.75185" lon="-3.35748">
        <ele>5</ele>
        <time>2020-08-21T14:00:17.000Z</time>
      </trkpt>
      <trkpt lat="47.75185" lon="-3.35747">
        <ele>5</ele>
        <time>2020-08-21T14:00:18.000Z</time>
      </trkpt>
      <trkpt lat="47.75185" lon="-3.35745">
        <ele>5</ele>
        <time>2020-08-21T14:00:19.000Z</time>
      </trkpt>
      <trkpt lat="47.75186" lon="-3.35744">
        <ele>5</ele>
        <time>2020-08-21T14:00:20.000Z</time>
      </trkpt>
      <trkpt lat="47.75186" lon="-3.35743">
        <ele>5</ele>
        <time>2020-08-21T14:00:21.000Z</time>
      </trkpt>
      <trkpt lat="47.75187" lon="-3.35741">
        <ele>5</ele>
        <time>2020-08-21T14:00:22.000Z</time>
      </trkpt>
      <trkpt lat="47.75187" lon="-3.3574">
        <ele>5</ele>
        <time>2020-08-21T14:00:23.000Z</time>
      </trkpt>
      <trkpt lat="47.75188" lon="-3.35738">
        <ele>5</ele>
        <time>2020-08-21T14:00:24.000Z</time>
      </trkpt>
      <trkpt lat="47.75188" lon="-3.35737">
        <ele>5</ele>
        <time>2020-08-21T14:00:25.000Z</time>
      </trkpt>
      <trkpt lat="47.75188" lon="-3.35735">
        <ele>5</ele>
        <time>2020-08-21T14:00:26.000Z</time>
      </trkpt>
      <trkpt lat="47.75189" lon="-3.35734">
        <ele>5</ele>
        <time>2020-08-21T14:00:27.000Z</time>
      </trkpt>
      <trkpt lat="47.7519" lon="-3.35732">
        <ele>5</ele>
        <time>2020-08-21T14:00:28.000Z</time>
      </trkpt>
      <trkpt lat="47.7519" lon="-3.35731">
        <ele>5</ele>
        <time>2020-08-21T14:00:29.000Z</time>
      </trkpt>
      <trkpt lat="47.75191" lon="-3.35729">
        <ele>5</ele>
        <time>2020-08-21T14:00:30.000Z</time>
      </trkpt>
      <trkpt lat="47.75192" lon="-3.35728">
        <ele>5</ele>
        <time>2020-08-21T14:00:31.000Z</time>
      </trkpt>
      <trkpt lat="47.75192" lon="-3.35726">
        <ele>5</ele>
        <time>2020-08-21T14:00:32.000Z</time>
      </trkpt>
      <trkpt lat="47.75193" lon="-3.35724">
        <ele>5</ele>
        <time>2020-08-21T14:00:33.000Z</time>
      </trkpt>
      <trkpt lat="47.75194" lon="-3.35723">
        <ele>5</ele>
        <time>2020-08-21T14:00:34.000Z</time>
      </trkpt>
      <trkpt lat="47.75194" lon="-3.35721">
        <ele>5</ele>
        <time>2020-08-21T14:00:35.000Z</time>
      </trkpt>
      <trkpt lat="47.75195" lon="-3.3572">
        <ele>5</ele>
        <time>2020-08-21T14:00:36.000Z</time>
      </trkpt>
      <trkpt lat="47.75196" lon="-3.35718">
        <ele>5</ele>
        <time>2020-08-21T14:00:37.000Z</time>
      </trkpt>
      <trkpt lat="47.75196" lon="-3.35717">
        <ele>5</ele>
        <time>2020-08-21T14:00:38.000Z</time>
      </trkpt>
      <trkpt lat="47.75197" lon="-3.35715">
        <ele>5</ele>
        <time>2020-08-21T14:00:39.000Z</time>
      </trkpt>
      <trkpt lat="47.75198" lon="-3.35713">
        <ele>5</ele>
        <time>2020-08-21T14:00:40.000Z</time>
      </trkpt>
      <trkpt lat="47.75198" lon="-3.35712">
        <ele>5</ele>
        <time>2020-08-21T14:00:41.000Z</time>
      </trkpt>
      <trkpt lat="47.75199" lon="-3.3571">
        <ele>5</ele>
        <time>2020-08-21T14:00:42.000Z</time>
      </trkpt>
      <trkpt lat="47.75199" lon="-3.35709">
        <ele>5</ele>
        <time>2020-08-21T14:00:43.000Z</time>
      </trkpt>
      <trkpt lat="47.752" lon="-3.35707">
        <ele>5</ele>
        <time>2020-08-21T14:00:44.000Z</time>
      </trkpt>
      <trkpt lat="47.752" lon="-3.35706">
        <ele>5</ele>
        <time>2020-08-21T14:00:45.000Z</time>
      </trkpt>
      <trkpt lat="47.75201" lon="-3.35704">
        <ele>5</ele>
        <time>2020-08-21T14:00:46.000Z</time>
      </trkpt>
      <trkpt lat="47.75201" lon="-3.35703">
        <ele>5</ele>
        <time>2020-08-21T14:00:47.000Z</time>
      </trkpt>
      <trkpt lat="47.75202" lon="-3.35701">
        <ele>5</ele>
        <time>2020-08-21T14:00:48.000Z</time>
      </trkpt>
      <trkpt lat="47.75202" lon="-3.357">
        <ele>5</ele>
        <time>2020-08-21T14:00:49.000Z</time>
      </trkpt>
      <trkpt lat="47.75203" lon="-3.35698">
        <ele>5</ele>
        <time>2020-08-21T14:00:50.000Z</time>
      </trkpt>
      <trkpt lat="47.75203" lon="-3.35697">
        <ele>5</ele>
        <time>2020-08-21T14:00:51.000Z</time>
      </trkpt>
      <trkpt lat="47.75204" lon="-3.35695">
        <ele>5</ele>
        <time>2020-08-21T14:00:52.000Z</time>
      </trkpt>
      <trkpt lat="47.75204" lon="-3.35694">
        <ele>5</ele>
        <time>2020-08-21T14:00:53.000Z</time>
      </trkpt>
      <trkpt lat="47.75205" lon="-3.35692">
        <ele>5</ele>
        <time>2020-08-21T14:00:54.000Z</time>
      </trkpt>
      <trkpt lat="47.75205" lon="-3.35691">
        <ele>5</ele>
        <time>2020-08-21T14:00:55.000Z</time>
      </trkpt>
      <trkpt lat="47.75205" lon="-3.35689">
        <ele>5</ele>
        <time>2020-08-21T14:00:56.000Z</time>
      </trkpt>
      <trkpt lat="47.75206" lon="-3.35688">
        <ele>5</ele>
        <time>2020-08-21T14:00:57.000Z</time>
      </trkpt>
      <trkpt lat="47.75206" lon="-3.35687">
        <ele>5</ele>
        <time>2020-08-21T14:00:58.000Z</time>
      </trkpt>
      <trkpt lat="47.75207" lon="-3.35685">
        <ele>5</ele>
        <time>2020-08-21T14:00:59.000Z</time>
      </trkpt>
      <trkpt lat="47.75207" lon="-3.35684">
        <ele>5</ele>
        <time>2020-08-21T14:01:00.000Z</time>
      </trkpt>
      <trkpt lat="47.75208" lon="-3.35683">
        <ele>5</ele>
        <time>2020-08-21T14:01:01.000Z</time>
      </trkpt>
      <trkpt lat="47.75208" lon="-3.35681">
        <ele>5</ele>
        <time>2020-08-21T14:01:02.000Z</time>
      </trkpt>
      <trkpt lat="47.75209" lon="-3.3568">
        <ele>5</ele>
        <time>2020-08-21T14:01:03.000Z</time>
      </trkpt>
      <trkpt lat="47.75209" lon="-3.35679">
        <ele>5</ele>
        <time>2020-08-21T14:01:04.000Z</time>
      </trkpt>
      <trkpt lat="47.7521" lon="-3.35677">
        <ele>5</ele>
        <time>2020-08-21T14:01:05.000Z</time>
      </trkpt>
      <trkpt lat="47.7521" lon="-3.35676">
        <ele>5</ele>
        <time>2020-08-21T14:01:06.000Z</time>
      </trkpt>
      <trkpt lat="47.75211" lon="-3.35675">
        <ele>5</ele>
        <time>2020-08-21T14:01:07.000Z</time>
      </trkpt>
      <trkpt lat="47.75211" lon="-3.35674">
        <ele>5</ele>
        <time>2020-08-21T14:01:08.000Z</time>
      </trkpt>
      <trkpt lat="47.75212" lon="-3.35672">
        <ele>5</ele>
        <time>2020-08-21T14:01:09.000Z</time>
      </trkpt>
      <trkpt lat="47.75213" lon="-3.35671">
        <ele>5</ele>
        <time>2020-08-21T14:01:10.000Z</time>
      </trkpt>
      <trkpt lat="47.75213" lon="-3.3567">
        <ele>5</ele>
        <time>2020-08-21T14:01:11.000Z</time>
      </trkpt>
      <trkpt lat="47.75214" lon="-3.35668">
        <ele>5</ele>
        <time>2020-08-21T14:01:12.000Z</time>
      </trkpt>
      <trkpt lat="47.75215" lon="-3.35667">
        <ele>5</ele>
        <time>2020-08-21T14:01:13.000Z</time>
      </trkpt>
      <trkpt lat="47.75215" lon="-3.35666">
        <ele>5</ele>
        <time>2020-08-21T14:01:14.000Z</time>
      </trkpt>
      <trkpt lat="47.75216" lon="-3.35664">
        <ele>5</ele>
        <time>2020-08-21T14:01:15.000Z</time>
      </trkpt>
      <trkpt lat="47.75217" lon="-3.35663">
        <ele>4.9</ele>
        <time>2020-08-21T14:01:16.000Z</time>
      </trkpt>
      <trkpt lat="47.75217" lon="-3.35662">
        <ele>4.9</ele>
        <time>2020-08-21T14:01:17.000Z</time>
      </trkpt>
      <trkpt lat="47.75218" lon="-3.3566">
        <ele>4.9</ele>
        <time>2020-08-21T14:01:18.000Z</time>
      </trkpt>
      <trkpt lat="47.75219" lon="-3.35659">
        <ele>4.9</ele>
        <time>2020-08-21T14:01:19.000Z</time>
      </trkpt>
      <trkpt lat="47.75219" lon="-3.35657">
        <ele>4.9</ele>
        <time>2020-08-21T14:01:20.000Z</time>
      </trkpt>
      <trkpt lat="47.7522" lon="-3.35656">
        <ele>4.8</ele>
        <time>2020-08-21T14:01:21.000Z</time>
      </trkpt>
      <trkpt lat="47.75221" lon="-3.35654">
        <ele>4.8</ele>
        <time>2020-08-21T14:01:22.000Z</time>
      </trkpt>
      <trkpt lat="47.75221" lon="-3.35653">
        <ele>4.8</ele>
        <time>2020-08-21T14:01:23.000Z</time>
      </trkpt>
      <trkpt lat="47.75222" lon="-3.35651">
        <ele>4.8</ele>
        <time>2020-08-21T14:01:24.000Z</time>
      </trkpt>
      <trkpt lat="47.75222" lon="-3.3565">
        <ele>4.7</ele>
        <time>2020-08-21T14:01:25.000Z</time>
      </trkpt>
      <trkpt lat="47.75223" lon="-3.35648">
        <ele>4.7</ele>
        <time>2020-08-21T14:01:26.000Z</time>
      </trkpt>
      <trkpt lat="47.75223" lon="-3.35646">
        <ele>4.7</ele>
        <time>2020-08-21T14:01:27.000Z</time>
      </trkpt>
      <trkpt lat="47.75224" lon="-3.35645">
        <ele>4.6</ele>
        <time>2020-08-21T14:01:28.000Z</time>
      </trkpt>
      <trkpt lat="47.75224" lon="-3.35643">
        <ele>4.6</ele>
        <time>2020-08-21T14:01:29.000Z</time>
      </trkpt>
      <trkpt lat="47.75225" lon="-3.35641">
        <ele>4.6</ele>
        <time>2020-08-21T14:01:30.000Z</time>
      </trkpt>
      <trkpt lat="47.75225" lon="-3.3564">
        <ele>4.5</ele>
        <time>2020-08-21T14:01:31.000Z</time>
      </trkpt>
      <trkpt lat="47.75226" lon="-3.35638">
        <ele>4.5</ele>
        <time>2020-08-21T14:01:32.000Z</time>
      </trkpt>
      <trkpt lat="47.75226" lon="-3.35636">
        <ele>4.5</ele>
        <time>2020-08-21T14:01:33.000Z</time>
      </trkpt>
      <trkpt lat="47.75227" lon="-3.35635">
        <ele>4.4</ele>
        <time>2020-08-21T14:01:34.000Z</time>
      </trkpt>
      <trkpt lat="47.75227" lon="-3.35633">
        <ele>4.4</ele>
        <time>2020-08-21T14:01:35.000Z</time>
      </trkpt>
      <trkpt lat="47.75228" lon="-3.35631">
        <ele>4.4</ele>
        <time>2020-08-21T14:01:36.000Z</time>
      </trkpt>
      <trkpt lat="47.75228" lon="-3.3563">
        <ele>4.3</ele>
        <time>2020-08-21T14:01:37.000Z</time>
      </trkpt>
      <trkpt lat="47.75228" lon="-3.35628">
        <ele>4.3</ele>
        <time>2020-08-21T14:01:38.000Z</time>
      </trkpt>
      <trkpt lat="47.75229" lon="-3.35627">
        <ele>4.3</ele>
        <time>2020-08-21T14:01:39.000Z</time>
      </trkpt>
      <trkpt lat="47.75229" lon="-3.35625">
        <ele>4.3</ele>
        <time>2020-08-21T14:01:40.000Z</time>
      </trkpt>
      <trkpt lat="47.7523" lon="-3.35624">
        <ele>4.2</ele>
        <time>2020-08-21T14:01:41.000Z</time>
      </trkpt>
      <trkpt lat="47.7523" lon="-3.35622">
        <ele>4.2</ele>
        <time>2020-08-21T14:01:42.000Z</time>
      </trkpt>
      <trkpt lat="47.7523" lon="-3.35621">
        <ele>4.2</ele>
        <time>2020-08-21T14:01:43.000Z</time>
      </trkpt>
      <trkpt lat="47.75231" lon="-3.35619">
        <ele>4.1</ele>
        <time>2020-08-21T14:01:44.000Z</time>
      </trkpt>
      <trkpt lat="47.75231" lon="-3.35618">
        <ele>4.1</ele>
        <time>2020-08-21T14:01:45.000Z</time>
      </trkpt>
      <trkpt lat="47.75232" lon="-3.35616">
        <ele>4.1</ele>
        <time>2020-08-21T14:01:46.000Z</time>
      </trkpt>
      <trkpt lat="47.75232" lon="-3.35615">
        <ele>4</ele>
        <time>2020-08-21T14:01:47.000Z</time>
      </trkpt>
      <trkpt lat="47.75233" lon="-3.35614">
        <ele>4</ele>
        <time>2020-08-21T14:01:48.000Z</time>
      </trkpt>
      <trkpt lat="47.75233" lon="-3.35612">
        <ele>4</ele>
        <time>2020-08-21T14:01:49.000Z</time>
      </trkpt>
      <trkpt lat="47.75234" lon="-3.35611">
        <ele>3.9</ele>
        <time>2020-08-21T14:01:50.000Z</time>
      </trkpt>
      <trkpt lat="47.75235" lon="-3.35609">
        <ele>3.9</ele>
        <time>2020-08-21T14:01:51.000Z</time>
      </trkpt>
      <trkpt lat="47.75235" lon="-3.35608">
        <ele>3.8</ele>
        <time>2020-08-21T14:01:52.000Z</time>
      </trkpt>
      <trkpt lat="47.75236" lon="-3.35606">
        <ele>3.8</ele>
        <time>2020-08-21T14:01:53.000Z</time>
      </trkpt>
      <trkpt lat="47.75237" lon="-3.35605">
        <ele>3.8</ele>
        <time>2020-08-21T14:01:54.000Z</time>
      </trkpt>
      <trkpt lat="47.75238" lon="-3.35603">
        <ele>3.7</ele>
        <time>2020-08-21T14:01:55.000Z</time>
      </trkpt>
      <trkpt lat="47.75239" lon="-3.35602">
        <ele>3.7</ele>
        <time>2020-08-21T14:01:56.000Z</time>
      </trkpt>
      <trkpt lat="47.7524" lon="-3.356">
        <ele>3.6</ele>
        <time>2020-08-21T14:01:57.000Z</time>
      </trkpt>
      <trkpt lat="47.7524" lon="-3.35599">
        <ele>3.6</ele>
        <time>2020-08-21T14:01:58.000Z</time>
      </trkpt>
      <trkpt lat="47.75241" lon="-3.35597">
        <ele>3.5</ele>
        <time>2020-08-21T14:01:59.000Z</time>
      </trkpt>
      <trkpt lat="47.75242" lon="-3.35596">
        <ele>3.5</ele>
        <time>2020-08-21T14:02:00.000Z</time>
      </trkpt>
      <trkpt lat="47.75243" lon="-3.35594">
        <ele>3.4</ele>
        <time>2020-08-21T14:02:01.000Z</time>
      </trkpt>
      <trkpt lat="47.75243" lon="-3.35593">
        <ele>3.4</ele>
        <time>2020-08-21T14:02:02.000Z</time>
      </trkpt>
      <trkpt lat="47.75244" lon="-3.35591">
        <ele>3.3</ele>
        <time>2020-08-21T14:02:03.000Z</time>
      </trkpt>
      <trkpt lat="47.75244" lon="-3.3559">
        <ele>3.3</ele>
        <time>2020-08-21T14:02:04.000Z</time>
      </trkpt>
      <trkpt lat="47.75245" lon="-3.35589">
        <ele>3.2</ele>
        <time>2020-08-21T14:02:05.000Z</time>
      </trkpt>
      <trkpt lat="47.75245" lon="-3.35587">
        <ele>3.2</ele>
        <time>2020-08-21T14:02:06.000Z</time>
      </trkpt>
      <trkpt lat="47.75246" lon="-3.35586">
        <ele>3.2</ele>
        <time>2020-08-21T14:02:07.000Z</time>
      </trkpt>
      <trkpt lat="47.75246" lon="-3.35585">
        <ele>3.1</ele>
        <time>2020-08-21T14:02:08.000Z</time>
      </trkpt>
      <trkpt lat="47.75247" lon="-3.35583">
        <ele>3.1</ele>
        <time>2020-08-21T14:02:09.000Z</time>
      </trkpt>
      <trkpt lat="47.75248" lon="-3.35582">
        <ele>3.1</ele>
        <time>2020-08-21T14:02:10.000Z</time>
      </trkpt>
      <trkpt lat="47.75248" lon="-3.3558">
        <ele>3.1</ele>
        <time>2020-08-21T14:02:11.000Z</time>
      </trkpt>
      <trkpt lat="47.75249" lon="-3.35579">
        <ele>3.1</ele>
        <time>2020-08-21T14:02:12.000Z</time>
      </trkpt>
      <trkpt lat="47.75249" lon="-3.35578">
        <ele>3.2</ele>
        <time>2020-08-21T14:02:13.000Z</time>
      </trkpt>
      <trkpt lat="47.7525" lon="-3.35576">
        <ele>3.2</ele>
        <time>2020-08-21T14:02:14.000Z</time>
      </trkpt>
      <trkpt lat="47.75251" lon="-3.35575">
        <ele>3.2</ele>
        <time>2020-08-21T14:02:15.000Z</time>
      </trkpt>
      <trkpt lat="47.75251" lon="-3.35574">
        <ele>3.2</ele>
        <time>2020-08-21T14:02:16.000Z</time>
      </trkpt>
      <trkpt lat="47.75252" lon="-3.35572">
        <ele>3.3</ele>
        <time>2020-08-21T14:02:17.000Z</time>
      </trkpt>
      <trkpt lat="47.75252" lon="-3.35571">
        <ele>3.3</ele>
        <time>2020-08-21T14:02:18.000Z</time>
      </trkpt>
      <trkpt lat="47.75253" lon="-3.35569">
        <ele>3.3</ele>
        <time>2020-08-21T14:02:19.000Z</time>
      </trkpt>
      <trkpt lat="47.75253" lon="-3.35568">
        <ele>3.4</ele>
        <time>2020-08-21T14:02:20.000Z</time>
      </trkpt>
      <trkpt lat="47.75254" lon="-3.35566">
        <ele>3.4</ele>
        <time>2020-08-21T14:02:21.000Z</time>
      </trkpt>
      <trkpt lat="47.75254" lon="-3.35565">
        <ele>3.4</ele>
        <time>2020-08-21T14:02:22.000Z</time>
      </trkpt>
      <trkpt lat="47.75254" lon="-3.35563">
        <ele>3.4</ele>
        <time>2020-08-21T14:02:23.000Z</time>
      </trkpt>
      <trkpt lat="47.75255" lon="-3.35562">
        <ele>3.5</ele>
        <time>2020-08-21T14:02:24.000Z</time>
      </trkpt>
      <trkpt lat="47.75255" lon="-3.3556">
        <ele>3.5</ele>
        <time>2020-08-21T14:02:25.000Z</time>
      </trkpt>
      <trkpt lat="47.75255" lon="-3.35559">
        <ele>3.5</ele>
        <time>2020-08-21T14:02:26.000Z</time>
      </trkpt>
      <trkpt lat="47.75256" lon="-3.35557">
        <ele>3.6</ele>
        <time>2020-08-21T14:02:27.000Z</time>
      </trkpt>
      <trkpt lat="47.75256" lon="-3.35556">
        <ele>3.6</ele>
        <time>2020-08-21T14:02:28.000Z</time>
      </trkpt>
      <trkpt lat="47.75257" lon="-3.35554">
        <ele>3.6</ele>
        <time>2020-08-21T14:02:29.000Z</time>
      </trkpt>
      <trkpt lat="47.75257" lon="-3.35553">
        <ele>3.6</ele>
        <time>2020-08-21T14:02:30.000Z</time>
      </trkpt>
      <trkpt lat="47.75258" lon="-3.35552">
        <ele>3.6</ele>
        <time>2020-08-21T14:02:31.000Z</time>
      </trkpt>
      <trkpt lat="47.75259" lon="-3.35551">
        <ele>3.7</ele>
        <time>2020-08-21T14:02:32.000Z</time>
      </trkpt>
      <trkpt lat="47.7526" lon="-3.3555">
        <ele>3.7</ele>
        <time>2020-08-21T14:02:33.000Z</time>
      </trkpt>
      <trkpt lat="47.75261" lon="-3.35549">
        <ele>3.7</ele>
        <time>2020-08-21T14:02:34.000Z</time>
      </trkpt>
      <trkpt lat="47.75262" lon="-3.35547">
        <ele>3.7</ele>
        <time>2020-08-21T14:02:35.000Z</time>
      </trkpt>
      <trkpt lat="47.75263" lon="-3.35546">
        <ele>3.7</ele>
        <time>2020-08-21T14:02:36.000Z</time>
      </trkpt>
      <trkpt lat="47.75264" lon="-3.35545">
        <ele>3.7</ele>
        <time>2020-08-21T14:02:37.000Z</time>
      </trkpt>
      <trkpt lat="47.75265" lon="-3.35543">
        <ele>3.7</ele>
        <time>2020-08-21T14:02:38.000Z</time>
      </trkpt>
      <trkpt lat="47.75266" lon="-3.35542">
        <ele>3.7</ele>
        <time>2020-08-21T14:02:39.000Z</time>
      </trkpt>
      <trkpt lat="47.75266" lon="-3.35541">
        <ele>3.7</ele>
        <time>2020-08-21T14:02:40.000Z</time>
      </trkpt>
      <trkpt lat="47.75267" lon="-3.35539">
        <ele>3.7</ele>
        <time>2020-08-21T14:02:41.000Z</time>
      </trkpt>
      <trkpt lat="47.75268" lon="-3.35537">
        <ele>3.7</ele>
        <time>2020-08-21T14:02:42.000Z</time>
      </trkpt>
      <trkpt lat="47.75269" lon="-3.35536">
        <ele>3.8</ele>
        <time>2020-08-21T14:02:43.000Z</time>
      </trkpt>
      <trkpt lat="47.75269" lon="-3.35534">
        <ele>3.8</ele>
        <time>2020-08-21T14:02:44.000Z</time>
      </trkpt>
      <trkpt lat="47.7527" lon="-3.35533">
        <ele>3.8</ele>
        <time>2020-08-21T14:02:45.000Z</time>
      </trkpt>
      <trkpt lat="47.75271" lon="-3.35531">
        <ele>3.8</ele>
        <time>2020-08-21T14:02:46.000Z</time>
      </trkpt>
      <trkpt lat="47.75271" lon="-3.35529">
        <ele>3.8</ele>
        <time>2020-08-21T14:02:47.000Z</time>
      </trkpt>
      <trkpt lat="47.75272" lon="-3.35527">
        <ele>3.8</ele>
        <time>2020-08-21T14:02:48.000Z</time>
      </trkpt>
      <trkpt lat="47.75272" lon="-3.35526">
        <ele>3.8</ele>
        <time>2020-08-21T14:02:49.000Z</time>
      </trkpt>
      <trkpt lat="47.75273" lon="-3.35524">
        <ele>3.8</ele>
        <time>2020-08-21T14:02:50.000Z</time>
      </trkpt>
      <trkpt lat="47.75274" lon="-3.35522">
        <ele>3.8</ele>
        <time>2020-08-21T14:02:51.000Z</time>
      </trkpt>
      <trkpt lat="47.75274" lon="-3.35521">
        <ele>3.9</ele>
        <time>2020-08-21T14:02:52.000Z</time>
      </trkpt>
      <trkpt lat="47.75275" lon="-3.35519">
        <ele>3.9</ele>
        <time>2020-08-21T14:02:53.000Z</time>
      </trkpt>
      <trkpt lat="47.75275" lon="-3.35518">
        <ele>3.9</ele>
        <time>2020-08-21T14:02:54.000Z</time>
      </trkpt>
      <trkpt lat="47.75276" lon="-3.35516">
        <ele>3.9</ele>
        <time>2020-08-21T14:02:55.000Z</time>
      </trkpt>
      <trkpt lat="47.75276" lon="-3.35514">
        <ele>3.9</ele>
        <time>2020-08-21T14:02:56.000Z</time>
      </trkpt>
      <trkpt lat="47.75277" lon="-3.35513">
        <ele>3.9</ele>
        <time>2020-08-21T14:02:57.000Z</time>
      </trkpt>
      <trkpt lat="47.75277" lon="-3.35511">
        <ele>3.9</ele>
        <time>2020-08-21T14:02:58.000Z</time>
      </trkpt>
      <trkpt lat="47.75278" lon="-3.3551">
        <ele>3.9</ele>
        <time>2020-08-21T14:02:59.000Z</time>
      </trkpt>
      <trkpt lat="47.75278" lon="-3.35508">
        <ele>3.9</ele>
        <time>2020-08-21T14:03:00.000Z</time>
      </trkpt>
      <trkpt lat="47.75278" lon="-3.35507">
        <ele>3.9</ele>
        <time>2020-08-21T14:03:01.000Z</time>
      </trkpt>
      <trkpt lat="47.75279" lon="-3.35505">
        <ele>3.9</ele>
        <time>2020-08-21T14:03:02.000Z</time>
      </trkpt>
      <trkpt lat="47.75279" lon="-3.35504">
        <ele>3.9</ele>
        <time>2020-08-21T14:03:03.000Z</time>
      </trkpt>
      <trkpt lat="47.75279" lon="-3.35502">
        <ele>3.9</ele>
        <time>2020-08-21T14:03:04.000Z</time>
      </trkpt>
      <trkpt lat="47.7528" lon="-3.355">
        <ele>3.9</ele>
        <time>2020-08-21T14:03:05.000Z</time>
      </trkpt>
      <trkpt lat="47.7528" lon="-3.35499">
        <ele>3.9</ele>
        <time>2020-08-21T14:03:06.000Z</time>
      </trkpt>
      <trkpt lat="47.7528" lon="-3.35497">
        <ele>3.9</ele>
        <time>2020-08-21T14:03:07.000Z</time>
      </trkpt>
      <trkpt lat="47.7528" lon="-3.35496">
        <ele>3.9</ele>
        <time>2020-08-21T14:03:08.000Z</time>
      </trkpt>
      <trkpt lat="47.7528" lon="-3.35494">
        <ele>3.9</ele>
        <time>2020-08-21T14:03:09.000Z</time>
      </trkpt>
      <trkpt lat="47.7528" lon="-3.35493">
        <ele>3.9</ele>
        <time>2020-08-21T14:03:10.000Z</time>
      </trkpt>
      <trkpt lat="47.7528" lon="-3.35491">
        <ele>4</ele>
        <time>2020-08-21T14:03:11.000Z</time>
      </trkpt>
      <trkpt lat="47.7528" lon="-3.3549">
        <ele>4</ele>
        <time>2020-08-21T14:03:12.000Z</time>
      </trkpt>
      <trkpt lat="47.7528" lon="-3.35488">
        <ele>4</ele>
        <time>2020-08-21T14:03:13.000Z</time>
      </trkpt>
      <trkpt lat="47.7528" lon="-3.35487">
        <ele>4</ele>
        <time>2020-08-21T14:03:14.000Z</time>
      </trkpt>
      <trkpt lat="47.7528" lon="-3.35485">
        <ele>4</ele>
        <time>2020-08-21T14:03:15.000Z</time>
      </trkpt>
      <trkpt lat="47.7528" lon="-3.35484">
        <ele>4</ele>
        <time>2020-08-21T14:03:16.000Z</time>
      </trkpt>
      <trkpt lat="47.75281" lon="-3.35482">
        <ele>4</ele>
        <time>2020-08-21T14:03:17.000Z</time>
      </trkpt>
      <trkpt lat="47.75281" lon="-3.35481">
        <ele>4</ele>
        <time>2020-08-21T14:03:18.000Z</time>
      </trkpt>
      <trkpt lat="47.75281" lon="-3.3548">
        <ele>4</ele>
        <time>2020-08-21T14:03:19.000Z</time>
      </trkpt>
      <trkpt lat="47.75282" lon="-3.35478">
        <ele>4</ele>
        <time>2020-08-21T14:03:20.000Z</time>
      </trkpt>
      <trkpt lat="47.75282" lon="-3.35477">
        <ele>3.9</ele>
        <time>2020-08-21T14:03:21.000Z</time>
      </trkpt>
      <trkpt lat="47.75283" lon="-3.35475">
        <ele>3.9</ele>
        <time>2020-08-21T14:03:22.000Z</time>
      </trkpt>
      <trkpt lat="47.75284" lon="-3.35474">
        <ele>3.9</ele>
        <time>2020-08-21T14:03:23.000Z</time>
      </trkpt>
      <trkpt lat="47.75284" lon="-3.35473">
        <ele>3.9</ele>
        <time>2020-08-21T14:03:24.000Z</time>
      </trkpt>
      <trkpt lat="47.75285" lon="-3.35471">
        <ele>3.9</ele>
        <time>2020-08-21T14:03:25.000Z</time>
      </trkpt>
      <trkpt lat="47.75286" lon="-3.3547">
        <ele>3.9</ele>
        <time>2020-08-21T14:03:26.000Z</time>
      </trkpt>
      <trkpt lat="47.75286" lon="-3.35468">
        <ele>3.9</ele>
        <time>2020-08-21T14:03:27.000Z</time>
      </trkpt>
      <trkpt lat="47.75287" lon="-3.35467">
        <ele>3.9</ele>
        <time>2020-08-21T14:03:28.000Z</time>
      </trkpt>
      <trkpt lat="47.75287" lon="-3.35466">
        <ele>3.9</ele>
        <time>2020-08-21T14:03:29.000Z</time>
      </trkpt>
      <trkpt lat="47.75287" lon="-3.35464">
        <ele>3.9</ele>
        <time>2020-08-21T14:03:30.000Z</time>
      </trkpt>
      <trkpt lat="47.75288" lon="-3.35463">
        <ele>3.8</ele>
        <time>2020-08-21T14:03:31.000Z</time>
      </trkpt>
      <trkpt lat="47.75288" lon="-3.35461">
        <ele>3.8</ele>
        <time>2020-08-21T14:03:32.000Z</time>
      </trkpt>
      <trkpt lat="47.75289" lon="-3.3546">
        <ele>3.8</ele>
        <time>2020-08-21T14:03:33.000Z</time>
      </trkpt>
      <trkpt lat="47.75289" lon="-3.35458">
        <ele>3.8</ele>
        <time>2020-08-21T14:03:34.000Z</time>
      </trkpt>
      <trkpt lat="47.7529" lon="-3.35457">
        <ele>3.8</ele>
        <time>2020-08-21T14:03:35.000Z</time>
      </trkpt>
      <trkpt lat="47.75291" lon="-3.35456">
        <ele>3.8</ele>
        <time>2020-08-21T14:03:36.000Z</time>
      </trkpt>
      <trkpt lat="47.75291" lon="-3.35454">
        <ele>3.8</ele>
        <time>2020-08-21T14:03:37.000Z</time>
      </trkpt>
      <trkpt lat="47.75292" lon="-3.35453">
        <ele>3.8</ele>
        <time>2020-08-21T14:03:38.000Z</time>
      </trkpt>
      <trkpt lat="47.75293" lon="-3.35451">
        <ele>3.8</ele>
        <time>2020-08-21T14:03:39.000Z</time>
      </trkpt>
      <trkpt lat="47.75294" lon="-3.3545">
        <ele>3.7</ele>
        <time>2020-08-21T14:03:40.000Z</time>
      </trkpt>
      <trkpt lat="47.75294" lon="-3.35449">
        <ele>3.7</ele>
        <time>2020-08-21T14:03:41.000Z</time>
      </trkpt>
      <trkpt lat="47.75295" lon="-3.35447">
        <ele>3.7</ele>
        <time>2020-08-21T14:03:42.000Z</time>
      </trkpt>
      <trkpt lat="47.75295" lon="-3.35446">
        <ele>3.7</ele>
        <time>2020-08-21T14:03:43.000Z</time>
      </trkpt>
      <trkpt lat="47.75295" lon="-3.35444">
        <ele>3.7</ele>
        <time>2020-08-21T14:03:44.000Z</time>
      </trkpt>
      <trkpt lat="47.75295" lon="-3.35443">
        <ele>3.7</ele>
        <time>2020-08-21T14:03:45.000Z</time>
      </trkpt>
      <trkpt lat="47.75296" lon="-3.35442">
        <ele>3.7</ele>
        <time>2020-08-21T14:03:46.000Z</time>
      </trkpt>
      <trkpt lat="47.75296" lon="-3.35441">
        <ele>3.7</ele>
        <time>2020-08-21T14:03:47.000Z</time>
      </trkpt>
      <trkpt lat="47.75296" lon="-3.35439">
        <ele>3.7</ele>
        <time>2020-08-21T14:03:48.000Z</time>
      </trkpt>
      <trkpt lat="47.75297" lon="-3.35438">
        <ele>3.7</ele>
        <time>2020-08-21T14:03:49.000Z</time>
      </trkpt>
      <trkpt lat="47.75297" lon="-3.35437">
        <ele>3.7</ele>
        <time>2020-08-21T14:03:50.000Z</time>
      </trkpt>
      <trkpt lat="47.75298" lon="-3.35436">
        <ele>3.7</ele>
        <time>2020-08-21T14:03:51.000Z</time>
      </trkpt>
      <trkpt lat="47.75298" lon="-3.35435">
        <ele>3.7</ele>
        <time>2020-08-21T14:03:52.000Z</time>
      </trkpt>
      <trkpt lat="47.75299" lon="-3.35433">
        <ele>3.7</ele>
        <time>2020-08-21T14:03:53.000Z</time>
      </trkpt>
      <trkpt lat="47.75299" lon="-3.35432">
        <ele>3.7</ele>
        <time>2020-08-21T14:03:54.000Z</time>
      </trkpt>
      <trkpt lat="47.753" lon="-3.35431">
        <ele>3.7</ele>
        <time>2020-08-21T14:03:55.000Z</time>
      </trkpt>
      <trkpt lat="47.753" lon="-3.35429">
        <ele>3.7</ele>
        <time>2020-08-21T14:03:56.000Z</time>
      </trkpt>
      <trkpt lat="47.75301" lon="-3.35428">
        <ele>3.7</ele>
        <time>2020-08-21T14:03:57.000Z</time>
      </trkpt>
      <trkpt lat="47.75301" lon="-3.35426">
        <ele>3.7</ele>
        <time>2020-08-21T14:03:58.000Z</time>
      </trkpt>
      <trkpt lat="47.75302" lon="-3.35425">
        <ele>3.7</ele>
        <time>2020-08-21T14:03:59.000Z</time>
      </trkpt>
      <trkpt lat="47.75303" lon="-3.35423">
        <ele>3.7</ele>
        <time>2020-08-21T14:04:00.000Z</time>
      </trkpt>
      <trkpt lat="47.75303" lon="-3.35422">
        <ele>3.7</ele>
        <time>2020-08-21T14:04:01.000Z</time>
      </trkpt>
      <trkpt lat="47.75304" lon="-3.3542">
        <ele>3.7</ele>
        <time>2020-08-21T14:04:02.000Z</time>
      </trkpt>
      <trkpt lat="47.75304" lon="-3.35418">
        <ele>3.7</ele>
        <time>2020-08-21T14:04:03.000Z</time>
      </trkpt>
      <trkpt lat="47.75305" lon="-3.35417">
        <ele>3.7</ele>
        <time>2020-08-21T14:04:04.000Z</time>
      </trkpt>
      <trkpt lat="47.75305" lon="-3.35415">
        <ele>3.7</ele>
        <time>2020-08-21T14:04:05.000Z</time>
      </trkpt>
      <trkpt lat="47.75306" lon="-3.35414">
        <ele>3.6</ele>
        <time>2020-08-21T14:04:06.000Z</time>
      </trkpt>
      <trkpt lat="47.75306" lon="-3.35412">
        <ele>3.6</ele>
        <time>2020-08-21T14:04:07.000Z</time>
      </trkpt>
      <trkpt lat="47.75307" lon="-3.35411">
        <ele>3.6</ele>
        <time>2020-08-21T14:04:08.000Z</time>
      </trkpt>
      <trkpt lat="47.75308" lon="-3.35409">
        <ele>3.6</ele>
        <time>2020-08-21T14:04:09.000Z</time>
      </trkpt>
      <trkpt lat="47.75308" lon="-3.35408">
        <ele>3.5</ele>
        <time>2020-08-21T14:04:10.000Z</time>
      </trkpt>
      <trkpt lat="47.75309" lon="-3.35407">
        <ele>3.5</ele>
        <time>2020-08-21T14:04:11.000Z</time>
      </trkpt>
      <trkpt lat="47.7531" lon="-3.35405">
        <ele>3.5</ele>
        <time>2020-08-21T14:04:12.000Z</time>
      </trkpt>
      <trkpt lat="47.7531" lon="-3.35404">
        <ele>3.5</ele>
        <time>2020-08-21T14:04:13.000Z</time>
      </trkpt>
      <trkpt lat="47.75311" lon="-3.35402">
        <ele>3.4</ele>
        <time>2020-08-21T14:04:14.000Z</time>
      </trkpt>
      <trkpt lat="47.75312" lon="-3.35401">
        <ele>3.4</ele>
        <time>2020-08-21T14:04:15.000Z</time>
      </trkpt>
      <trkpt lat="47.75312" lon="-3.354">
        <ele>3.4</ele>
        <time>2020-08-21T14:04:16.000Z</time>
      </trkpt>
      <trkpt lat="47.75313" lon="-3.35398">
        <ele>3.4</ele>
        <time>2020-08-21T14:04:17.000Z</time>
      </trkpt>
      <trkpt lat="47.75313" lon="-3.35397">
        <ele>3.4</ele>
        <time>2020-08-21T14:04:18.000Z</time>
      </trkpt>
      <trkpt lat="47.75314" lon="-3.35396">
        <ele>3.3</ele>
        <time>2020-08-21T14:04:19.000Z</time>
      </trkpt>
      <trkpt lat="47.75315" lon="-3.35394">
        <ele>3.3</ele>
        <time>2020-08-21T14:04:20.000Z</time>
      </trkpt>
      <trkpt lat="47.75315" lon="-3.35393">
        <ele>3.3</ele>
        <time>2020-08-21T14:04:21.000Z</time>
      </trkpt>
      <trkpt lat="47.75316" lon="-3.35392">
        <ele>3.3</ele>
        <time>2020-08-21T14:04:22.000Z</time>
      </trkpt>
      <trkpt lat="47.75316" lon="-3.3539">
        <ele>3.3</ele>
        <time>2020-08-21T14:04:23.000Z</time>
      </trkpt>
      <trkpt lat="47.75317" lon="-3.35389">
        <ele>3.3</ele>
        <time>2020-08-21T14:04:24.000Z</time>
      </trkpt>
      <trkpt lat="47.75317" lon="-3.35388">
        <ele>3.3</ele>
        <time>2020-08-21T14:04:25.000Z</time>
      </trkpt>
      <trkpt lat="47.75318" lon="-3.35386">
        <ele>3.2</ele>
        <time>2020-08-21T14:04:26.000Z</time>
      </trkpt>
      <trkpt lat="47.75318" lon="-3.35385">
        <ele>3.2</ele>
        <time>2020-08-21T14:04:27.000Z</time>
      </trkpt>
      <trkpt lat="47.75319" lon="-3.35384">
        <ele>3.2</ele>
        <time>2020-08-21T14:04:28.000Z</time>
      </trkpt>
      <trkpt lat="47.75319" lon="-3.35382">
        <ele>3.2</ele>
        <time>2020-08-21T14:04:29.000Z</time>
      </trkpt>
      <trkpt lat="47.7532" lon="-3.35381">
        <ele>3.2</ele>
        <time>2020-08-21T14:04:30.000Z</time>
      </trkpt>
      <trkpt lat="47.7532" lon="-3.3538">
        <ele>3.2</ele>
        <time>2020-08-21T14:04:31.000Z</time>
      </trkpt>
      <trkpt lat="47.7532" lon="-3.35378">
        <ele>3.2</ele>
        <time>2020-08-21T14:04:32.000Z</time>
      </trkpt>
      <trkpt lat="47.7532" lon="-3.35377">
        <ele>3.2</ele>
        <time>2020-08-21T14:04:33.000Z</time>
      </trkpt>
      <trkpt lat="47.75321" lon="-3.35376">
        <ele>3.2</ele>
        <time>2020-08-21T14:04:34.000Z</time>
      </trkpt>
      <trkpt lat="47.75321" lon="-3.35375">
        <ele>3.1</ele>
        <time>2020-08-21T14:04:35.000Z</time>
      </trkpt>
      <trkpt lat="47.75321" lon="-3.35373">
        <ele>3.1</ele>
        <time>2020-08-21T14:04:36.000Z</time>
      </trkpt>
      <trkpt lat="47.75321" lon="-3.35372">
        <ele>3.1</ele>
        <time>2020-08-21T14:04:37.000Z</time>
      </trkpt>
      <trkpt lat="47.75321" lon="-3.35371">
        <ele>3.1</ele>
        <time>2020-08-21T14:04:38.000Z</time>
      </trkpt>
      <trkpt lat="47.75321" lon="-3.3537">
        <ele>3.1</ele>
        <time>2020-08-21T14:04:39.000Z</time>
      </trkpt>
      <trkpt lat="47.75321" lon="-3.35369">
        <ele>3.1</ele>
        <time>2020-08-21T14:04:40.000Z</time>
      </trkpt>
      <trkpt lat="47.75321" lon="-3.35368">
        <ele>3.1</ele>
        <time>2020-08-21T14:04:41.000Z</time>
      </trkpt>
      <trkpt lat="47.75321" lon="-3.35367">
        <ele>3.1</ele>
        <time>2020-08-21T14:04:42.000Z</time>
      </trkpt>
      <trkpt lat="47.75322" lon="-3.35366">
        <ele>3.1</ele>
        <time>2020-08-21T14:04:43.000Z</time>
      </trkpt>
      <trkpt lat="47.75322" lon="-3.35365">
        <ele>3.1</ele>
        <time>2020-08-21T14:04:44.000Z</time>
      </trkpt>
      <trkpt lat="47.75322" lon="-3.35364">
        <ele>3.1</ele>
        <time>2020-08-21T14:04:45.000Z</time>
      </trkpt>
      <trkpt lat="47.75322" lon="-3.35363">
        <ele>3.1</ele>
        <time>2020-08-21T14:04:46.000Z</time>
      </trkpt>
      <trkpt lat="47.75323" lon="-3.35362">
        <ele>3.1</ele>
        <time>2020-08-21T14:04:47.000Z</time>
      </trkpt>
      <trkpt lat="47.75323" lon="-3.3536">
        <ele>3.1</ele>
        <time>2020-08-21T14:04:48.000Z</time>
      </trkpt>
      <trkpt lat="47.75323" lon="-3.35358">
        <ele>3.1</ele>
        <time>2020-08-21T14:04:49.000Z</time>
      </trkpt>
      <trkpt lat="47.75324" lon="-3.35357">
        <ele>3.1</ele>
        <time>2020-08-21T14:04:50.000Z</time>
      </trkpt>
      <trkpt lat="47.75324" lon="-3.35355">
        <ele>3.1</ele>
        <time>2020-08-21T14:04:51.000Z</time>
      </trkpt>
      <trkpt lat="47.75325" lon="-3.35353">
        <ele>3</ele>
        <time>2020-08-21T14:04:52.000Z</time>
      </trkpt>
      <trkpt lat="47.75325" lon="-3.35351">
        <ele>3</ele>
        <time>2020-08-21T14:04:53.000Z</time>
      </trkpt>
      <trkpt lat="47.75326" lon="-3.35349">
        <ele>3</ele>
        <time>2020-08-21T14:04:54.000Z</time>
      </trkpt>
      <trkpt lat="47.75326" lon="-3.35348">
        <ele>3</ele>
        <time>2020-08-21T14:04:55.000Z</time>
      </trkpt>
      <trkpt lat="47.75326" lon="-3.35346">
        <ele>3</ele>
        <time>2020-08-21T14:04:56.000Z</time>
      </trkpt>
      <trkpt lat="47.75326" lon="-3.35345">
        <ele>3</ele>
        <time>2020-08-21T14:04:57.000Z</time>
      </trkpt>
      <trkpt lat="47.75327" lon="-3.35343">
        <ele>3</ele>
        <time>2020-08-21T14:04:58.000Z</time>
      </trkpt>
      <trkpt lat="47.75327" lon="-3.35342">
        <ele>3</ele>
        <time>2020-08-21T14:04:59.000Z</time>
      </trkpt>
      <trkpt lat="47.75327" lon="-3.3534">
        <ele>3</ele>
        <time>2020-08-21T14:05:00.000Z</time>
      </trkpt>
      <trkpt lat="47.75328" lon="-3.35339">
        <ele>3</ele>
        <time>2020-08-21T14:05:01.000Z</time>
      </trkpt>
      <trkpt lat="47.75328" lon="-3.35337">
        <ele>3</ele>
        <time>2020-08-21T14:05:02.000Z</time>
      </trkpt>
      <trkpt lat="47.75329" lon="-3.35336">
        <ele>3</ele>
        <time>2020-08-21T14:05:03.000Z</time>
      </trkpt>
      <trkpt lat="47.7533" lon="-3.35335">
        <ele>3</ele>
        <time>2020-08-21T14:05:04.000Z</time>
      </trkpt>
      <trkpt lat="47.75331" lon="-3.35333">
        <ele>3</ele>
        <time>2020-08-21T14:05:05.000Z</time>
      </trkpt>
      <trkpt lat="47.75331" lon="-3.35332">
        <ele>2.9</ele>
        <time>2020-08-21T14:05:06.000Z</time>
      </trkpt>
      <trkpt lat="47.75332" lon="-3.35331">
        <ele>2.9</ele>
        <time>2020-08-21T14:05:07.000Z</time>
      </trkpt>
      <trkpt lat="47.75333" lon="-3.35329">
        <ele>2.8</ele>
        <time>2020-08-21T14:05:08.000Z</time>
      </trkpt>
      <trkpt lat="47.75334" lon="-3.35328">
        <ele>2.8</ele>
        <time>2020-08-21T14:05:09.000Z</time>
      </trkpt>
      <trkpt lat="47.75335" lon="-3.35326">
        <ele>2.7</ele>
        <time>2020-08-21T14:05:10.000Z</time>
      </trkpt>
      <trkpt lat="47.75335" lon="-3.35325">
        <ele>2.6</ele>
        <time>2020-08-21T14:05:11.000Z</time>
      </trkpt>
      <trkpt lat="47.75336" lon="-3.35323">
        <ele>2.5</ele>
        <time>2020-08-21T14:05:12.000Z</time>
      </trkpt>
      <trkpt lat="47.75337" lon="-3.35321">
        <ele>2.4</ele>
        <time>2020-08-21T14:05:13.000Z</time>
      </trkpt>
      <trkpt lat="47.75337" lon="-3.35319">
        <ele>2.4</ele>
        <time>2020-08-21T14:05:14.000Z</time>
      </trkpt>
      <trkpt lat="47.75338" lon="-3.35317">
        <ele>2.3</ele>
        <time>2020-08-21T14:05:15.000Z</time>
      </trkpt>
      <trkpt lat="47.75338" lon="-3.35315">
        <ele>2.2</ele>
        <time>2020-08-21T14:05:16.000Z</time>
      </trkpt>
      <trkpt lat="47.75339" lon="-3.35313">
        <ele>2.1</ele>
        <time>2020-08-21T14:05:17.000Z</time>
      </trkpt>
      <trkpt lat="47.75339" lon="-3.35311">
        <ele>2.1</ele>
        <time>2020-08-21T14:05:18.000Z</time>
      </trkpt>
      <trkpt lat="47.75339" lon="-3.3531">
        <ele>2</ele>
        <time>2020-08-21T14:05:19.000Z</time>
      </trkpt>
      <trkpt lat="47.75339" lon="-3.35308">
        <ele>1.9</ele>
        <time>2020-08-21T14:05:20.000Z</time>
      </trkpt>
      <trkpt lat="47.75339" lon="-3.35307">
        <ele>1.9</ele>
        <time>2020-08-21T14:05:21.000Z</time>
      </trkpt>
      <trkpt lat="47.75339" lon="-3.35306">
        <ele>1.9</ele>
        <time>2020-08-21T14:05:22.000Z</time>
      </trkpt>
      <trkpt lat="47.75339" lon="-3.35306">
        <ele>1.9</ele>
        <time>2020-08-21T14:05:23.000Z</time>
      </trkpt>
      <trkpt lat="47.75339" lon="-3.35305">
        <ele>1.9</ele>
        <time>2020-08-21T14:05:24.000Z</time>
      </trkpt>
      <trkpt lat="47.75339" lon="-3.35305">
        <ele>1.8</ele>
        <time>2020-08-21T14:05:25.000Z</time>
      </trkpt>
      <trkpt lat="47.75339" lon="-3.35305">
        <ele>1.8</ele>
        <time>2020-08-21T14:05:26.000Z</time>
      </trkpt>
      <trkpt lat="47.75339" lon="-3.35305">
        <ele>1.8</ele>
        <time>2020-08-21T14:05:27.000Z</time>
      </trkpt>
      <trkpt lat="47.75339" lon="-3.35304">
        <ele>1.8</ele>
        <time>2020-08-21T14:05:28.000Z</time>
      </trkpt>
      <trkpt lat="47.75339" lon="-3.35303">
        <ele>1.8</ele>
        <time>2020-08-21T14:05:29.000Z</time>
      </trkpt>
      <trkpt lat="47.7534" lon="-3.35302">
        <ele>1.7</ele>
        <time>2020-08-21T14:05:30.000Z</time>
      </trkpt>
      <trkpt lat="47.7534" lon="-3.35301">
        <ele>1.7</ele>
        <time>2020-08-21T14:05:31.000Z</time>
      </trkpt>
      <trkpt lat="47.7534" lon="-3.35299">
        <ele>1.6</ele>
        <time>2020-08-21T14:05:32.000Z</time>
      </trkpt>
      <trkpt lat="47.7534" lon="-3.35298">
        <ele>1.6</ele>
        <time>2020-08-21T14:05:33.000Z</time>
      </trkpt>
      <trkpt lat="47.75341" lon="-3.35296">
        <ele>1.5</ele>
        <time>2020-08-21T14:05:34.000Z</time>
      </trkpt>
      <trkpt lat="47.75341" lon="-3.35295">
        <ele>1.5</ele>
        <time>2020-08-21T14:05:35.000Z</time>
      </trkpt>
      <trkpt lat="47.75341" lon="-3.35293">
        <ele>1.4</ele>
        <time>2020-08-21T14:05:36.000Z</time>
      </trkpt>
      <trkpt lat="47.75341" lon="-3.35292">
        <ele>1.4</ele>
        <time>2020-08-21T14:05:37.000Z</time>
      </trkpt>
      <trkpt lat="47.75341" lon="-3.35291">
        <ele>1.3</ele>
        <time>2020-08-21T14:05:38.000Z</time>
      </trkpt>
      <trkpt lat="47.7534" lon="-3.3529">
        <ele>1.3</ele>
        <time>2020-08-21T14:05:39.000Z</time>
      </trkpt>
      <trkpt lat="47.7534" lon="-3.35289">
        <ele>1.3</ele>
        <time>2020-08-21T14:05:40.000Z</time>
      </trkpt>
      <trkpt lat="47.7534" lon="-3.35289">
        <ele>1.3</ele>
        <time>2020-08-21T14:05:41.000Z</time>
      </trkpt>
      <trkpt lat="47.75339" lon="-3.35288">
        <ele>1.3</ele>
        <time>2020-08-21T14:05:42.000Z</time>
      </trkpt>
      <trkpt lat="47.75339" lon="-3.35287">
        <ele>1.3</ele>
        <time>2020-08-21T14:05:43.000Z</time>
      </trkpt>
      <trkpt lat="47.75339" lon="-3.35287">
        <ele>1.2</ele>
        <time>2020-08-21T14:05:44.000Z</time>
      </trkpt>
      <trkpt lat="47.75338" lon="-3.35287">
        <ele>1.2</ele>
        <time>2020-08-21T14:05:45.000Z</time>
      </trkpt>
      <trkpt lat="47.75338" lon="-3.35286">
        <ele>1.2</ele>
        <time>2020-08-21T14:05:46.000Z</time>
      </trkpt>
      <trkpt lat="47.75338" lon="-3.35286">
        <ele>1.2</ele>
        <time>2020-08-21T14:05:47.000Z</time>
      </trkpt>
      <trkpt lat="47.75338" lon="-3.35286">
        <ele>1.2</ele>
        <time>2020-08-21T14:05:48.000Z</time>
      </trkpt>
      <trkpt lat="47.75337" lon="-3.35286">
        <ele>1.2</ele>
        <time>2020-08-21T14:05:49.000Z</time>
      </trkpt>
      <trkpt lat="47.75337" lon="-3.35285">
        <ele>1.2</ele>
        <time>2020-08-21T14:05:50.000Z</time>
      </trkpt>
      <trkpt lat="47.75337" lon="-3.35285">
        <ele>1.2</ele>
        <time>2020-08-21T14:05:51.000Z</time>
      </trkpt>
      <trkpt lat="47.75337" lon="-3.35285">
        <ele>1.2</ele>
        <time>2020-08-21T14:05:52.000Z</time>
      </trkpt>
      <trkpt lat="47.75337" lon="-3.35285">
        <ele>1.2</ele>
        <time>2020-08-21T14:05:53.000Z</time>
      </trkpt>
      <trkpt lat="47.75337" lon="-3.35285">
        <ele>1.2</ele>
        <time>2020-08-21T14:05:54.000Z</time>
      </trkpt>
      <trkpt lat="47.75337" lon="-3.35285">
        <ele>1.2</ele>
        <time>2020-08-21T14:05:55.000Z</time>
      </trkpt>
      <trkpt lat="47.75337" lon="-3.35285">
        <ele>1.2</ele>
        <time>2020-08-21T14:05:56.000Z</time>
      </trkpt>
      <trkpt lat="47.75337" lon="-3.35285">
        <ele>1.2</ele>
        <time>2020-08-21T14:05:57.000Z</time>
      </trkpt>
      <trkpt lat="47.75337" lon="-3.35285">
        <ele>1.2</ele>
        <time>2020-08-21T14:05:58.000Z</time>
      </trkpt>
      <trkpt lat="47.75337" lon="-3.35285">
        <ele>1.2</ele>
        <time>2020-08-21T14:05:59.000Z</time>
      </trkpt>
      <trkpt lat="47.75337" lon="-3.35285">
        <ele>1.2</ele>
        <time>2020-08-21T14:06:00.000Z</time>
      </trkpt>
      <trkpt lat="47.75337" lon="-3.35285">
        <ele>1.2</ele>
        <time>2020-08-21T14:06:01.000Z</time>
      </trkpt>
      <trkpt lat="47.75337" lon="-3.35285">
        <ele>1.2</ele>
        <time>2020-08-21T14:06:02.000Z</time>
      </trkpt>
      <trkpt lat="47.75337" lon="-3.35285">
        <ele>1.2</ele>
        <time>2020-08-21T14:06:03.000Z</time>
      </trkpt>
      <trkpt lat="47.75337" lon="-3.35285">
        <ele>1.2</ele>
        <time>2020-08-21T14:06:04.000Z</time>
      </trkpt>
      <trkpt lat="47.75337" lon="-3.35285">
        <ele>1.2</ele>
        <time>2020-08-21T14:06:05.000Z</time>
      </trkpt>
      <trkpt lat="47.75337" lon="-3.35285">
        <ele>1.2</ele>
        <time>2020-08-21T14:06:06.000Z</time>
      </trkpt>
      <trkpt lat="47.75337" lon="-3.35285">
        <ele>1.2</ele>
        <time>2020-08-21T14:06:07.000Z</time>
      </trkpt>
      <trkpt lat="47.75337" lon="-3.35285">
        <ele>1.2</ele>
        <time>2020-08-21T14:06:08.000Z</time>
      </trkpt>
      <trkpt lat="47.75337" lon="-3.35285">
        <ele>1.2</ele>
        <time>2020-08-21T14:06:09.000Z</time>
      </trkpt>
      <trkpt lat="47.75337" lon="-3.35285">
        <ele>1.2</ele>
        <time>2020-08-21T14:06:10.000Z</time>
      </trkpt>
      <trkpt lat="47.75337" lon="-3.35285">
        <ele>1.2</ele>
        <time>2020-08-21T14:06:11.000Z</time>
      </trkpt>
      <trkpt lat="47.75337" lon="-3.35285">
        <ele>1.2</ele>
        <time>2020-08-21T14:06:12.000Z</time>
      </trkpt>
      <trkpt lat="47.75337" lon="-3.35285">
        <ele>1.2</ele>
        <time>2020-08-21T14:06:13.000Z</time>
      </trkpt>
      <trkpt lat="47.75337" lon="-3.35285">
        <ele>1.2</ele>
        <time>2020-08-21T14:06:14.000Z</time>
      </trkpt>
      <trkpt lat="47.75337" lon="-3.35285">
        <ele>1.2</ele>
        <time>2020-08-21T14:06:15.000Z</time>
      </trkpt>
      <trkpt lat="47.75337" lon="-3.35285">
        <ele>1.2</ele>
        <time>2020-08-21T14:06:16.000Z</time>
      </trkpt>
      <trkpt lat="47.75337" lon="-3.35285">
        <ele>1.2</ele>
        <time>2020-08-21T14:06:17.000Z</time>
      </trkpt>
      <trkpt lat="47.75337" lon="-3.35285">
        <ele>1.2</ele>
        <time>2020-08-21T14:06:18.000Z</time>
      </trkpt>
      <trkpt lat="47.75337" lon="-3.35285">
        <ele>1.2</ele>
        <time>2020-08-21T14:06:19.000Z</time>
      </trkpt>
      <trkpt lat="47.75337" lon="-3.35285">
        <ele>1.2</ele>
        <time>2020-08-21T14:06:20.000Z</time>
      </trkpt>
      <trkpt lat="47.75337" lon="-3.35285">
        <ele>1.2</ele>
        <time>2020-08-21T14:06:21.000Z</time>
      </trkpt>
      <trkpt lat="47.75337" lon="-3.35285">
        <ele>1.2</ele>
        <time>2020-08-21T14:06:22.000Z</time>
      </trkpt>
      <trkpt lat="47.75337" lon="-3.35285">
        <ele>1.2</ele>
        <time>2020-08-21T14:06:23.000Z</time>
      </trkpt>
      <trkpt lat="47.75337" lon="-3.35285">
        <ele>1.2</ele>
        <time>2020-08-21T14:06:24.000Z</time>
      </trkpt>
      <trkpt lat="47.75337" lon="-3.35285">
        <ele>1.2</ele>
        <time>2020-08-21T14:06:25.000Z</time>
      </trkpt>
      <trkpt lat="47.75337" lon="-3.35285">
        <ele>1.2</ele>
        <time>2020-08-21T14:06:26.000Z</time>
      </trkpt>
      <trkpt lat="47.75337" lon="-3.35285">
        <ele>1.2</ele>
        <time>2020-08-21T14:06:27.000Z</time>
      </trkpt>
      <trkpt lat="47.75337" lon="-3.35285">
        <ele>1.2</ele>
        <time>2020-08-21T14:06:28.000Z</time>
      </trkpt>
      <trkpt lat="47.75337" lon="-3.35285">
        <ele>1.2</ele>
        <time>2020-08-21T14:06:29.000Z</time>
      </trkpt>
      <trkpt lat="47.75337" lon="-3.35285">
        <ele>1.2</ele>
        <time>2020-08-21T14:06:30.000Z</time>
      </trkpt>
      <trkpt lat="47.75337" lon="-3.35285">
        <ele>1.2</ele>
        <time>2020-08-21T14:06:31.000Z</time>
      </trkpt>
      <trkpt lat="47.75337" lon="-3.35285">
        <ele>1.2</ele>
        <time>2020-08-21T14:06:32.000Z</time>
      </trkpt>
      <trkpt lat="47.75337" lon="-3.35285">
        <ele>1.2</ele>
        <time>2020-08-21T14:06:33.000Z</time>
      </trkpt>
      <trkpt lat="47.75337" lon="-3.35285">
        <ele>1.2</ele>
        <time>2020-08-21T14:06:34.000Z</time>
      </trkpt>
      <trkpt lat="47.75337" lon="-3.35285">
        <ele>1.2</ele>
        <time>2020-08-21T14:06:35.000Z</time>
      </trkpt>
      <trkpt lat="47.75337" lon="-3.35285">
        <ele>1.2</ele>
        <time>2020-08-21T14:06:36.000Z</time>
      </trkpt>
      <trkpt lat="47.75337" lon="-3.35285">
        <ele>1.2</ele>
        <time>2020-08-21T14:06:37.000Z</time>
      </trkpt>
      <trkpt lat="47.75337" lon="-3.35285">
        <ele>1.2</ele>
        <time>2020-08-21T14:06:38.000Z</time>
      </trkpt>
      <trkpt lat="47.75337" lon="-3.35285">
        <ele>1.2</ele>
        <time>2020-08-21T14:06:39.000Z</time>
      </trkpt>
      <trkpt lat="47.75337" lon="-3.35285">
        <ele>1.2</ele>
        <time>2020-08-21T14:06:40.000Z</time>
      </trkpt>
      <trkpt lat="47.75337" lon="-3.35285">
        <ele>1.2</ele>
        <time>2020-08-21T14:06:41.000Z</time>
      </trkpt>
      <trkpt lat="47.75337" lon="-3.35285">
        <ele>1.2</ele>
        <time>2020-08-21T14:06:42.000Z</time>
      </trkpt>
      <trkpt lat="47.75337" lon="-3.35285">
        <ele>1.2</ele>
        <time>2020-08-21T14:06:43.000Z</time>
      </trkpt>
      <trkpt lat="47.75337" lon="-3.35285">
        <ele>1.2</ele>
        <time>2020-08-21T14:06:44.000Z</time>
      </trkpt>
      <trkpt lat="47.75337" lon="-3.35285">
        <ele>1.2</ele>
        <time>2020-08-21T14:06:45.000Z</time>
      </trkpt>
      <trkpt lat="47.75337" lon="-3.35285">
        <ele>1.2</ele>
        <time>2020-08-21T14:06:46.000Z</time>
      </trkpt>
      <trkpt lat="47.75337" lon="-3.35285">
        <ele>1.2</ele>
        <time>2020-08-21T14:06:47.000Z</time>
      </trkpt>
      <trkpt lat="47.75337" lon="-3.35285">
        <ele>1.2</ele>
        <time>2020-08-21T14:06:48.000Z</time>
      </trkpt>
      <trkpt lat="47.75337" lon="-3.35285">
        <ele>1.2</ele>
        <time>2020-08-21T14:06:49.000Z</time>
      </trkpt>
      <trkpt lat="47.75337" lon="-3.35285">
        <ele>1.2</ele>
        <time>2020-08-21T14:06:50.000Z</time>
      </trkpt>
      <trkpt lat="47.75337" lon="-3.35285">
        <ele>1.2</ele>
        <time>2020-08-21T14:06:51.000Z</time>
      </trkpt>
      <trkpt lat="47.75337" lon="-3.35285">
        <ele>1.2</ele>
        <time>2020-08-21T14:06:52.000Z</time>
      </trkpt>
      <trkpt lat="47.75337" lon="-3.35285">
        <ele>1.2</ele>
        <time>2020-08-21T14:06:53.000Z</time>
      </trkpt>
      <trkpt lat="47.75337" lon="-3.35285">
        <ele>1.2</ele>
        <time>2020-08-21T14:06:54.000Z</time>
      </trkpt>
      <trkpt lat="47.75337" lon="-3.35285">
        <ele>1.2</ele>
        <time>2020-08-21T14:06:55.000Z</time>
      </trkpt>
      <trkpt lat="47.75337" lon="-3.35285">
        <ele>1.2</ele>
        <time>2020-08-21T14:06:56.000Z</time>
      </trkpt>
      <trkpt lat="47.75337" lon="-3.35285">
        <ele>1.2</ele>
        <time>2020-08-21T14:06:57.000Z</time>
      </trkpt>
      <trkpt lat="47.75337" lon="-3.35285">
        <ele>1.2</ele>
        <time>2020-08-21T14:06:58.000Z</time>
      </trkpt>
      <trkpt lat="47.75337" lon="-3.35285">
        <ele>1.2</ele>
        <time>2020-08-21T14:06:59.000Z</time>
      </trkpt>
      <trkpt lat="47.75337" lon="-3.35285">
        <ele>1.2</ele>
        <time>2020-08-21T14:07:00.000Z</time>
      </trkpt>
      <trkpt lat="47.75337" lon="-3.35285">
        <ele>1.2</ele>
        <time>2020-08-21T14:07:01.000Z</time>
      </trkpt>
      <trkpt lat="47.75337" lon="-3.35285">
        <ele>1.2</ele>
        <time>2020-08-21T14:07:02.000Z</time>
      </trkpt>
      <trkpt lat="47.75337" lon="-3.35285">
        <ele>1.2</ele>
        <time>2020-08-21T14:07:03.000Z</time>
      </trkpt>
      <trkpt lat="47.75337" lon="-3.35285">
        <ele>1.2</ele>
        <time>2020-08-21T14:07:04.000Z</time>
      </trkpt>
      <trkpt lat="47.75337" lon="-3.35285">
        <ele>1.2</ele>
        <time>2020-08-21T14:07:05.000Z</time>
      </trkpt>
      <trkpt lat="47.75337" lon="-3.35285">
        <ele>1.2</ele>
        <time>2020-08-21T14:07:06.000Z</time>
      </trkpt>
      <trkpt lat="47.75337" lon="-3.35285">
        <ele>1.2</ele>
        <time>2020-08-21T14:07:07.000Z</time>
      </trkpt>
      <trkpt lat="47.75337" lon="-3.35285">
        <ele>1.2</ele>
        <time>2020-08-21T14:07:08.000Z</time>
      </trkpt>
      <trkpt lat="47.75337" lon="-3.35285">
        <ele>1.2</ele>
        <time>2020-08-21T14:07:09.000Z</time>
      </trkpt>
      <trkpt lat="47.75337" lon="-3.35285">
        <ele>1.2</ele>
        <time>2020-08-21T14:07:10.000Z</time>
      </trkpt>
      <trkpt lat="47.75337" lon="-3.35285">
        <ele>1.2</ele>
        <time>2020-08-21T14:07:11.000Z</time>
      </trkpt>
      <trkpt lat="47.75337" lon="-3.35285">
        <ele>1.2</ele>
        <time>2020-08-21T14:07:12.000Z</time>
      </trkpt>
      <trkpt lat="47.75337" lon="-3.35285">
        <ele>1.2</ele>
        <time>2020-08-21T14:07:13.000Z</time>
      </trkpt>
      <trkpt lat="47.75337" lon="-3.35285">
        <ele>1.2</ele>
        <time>2020-08-21T14:07:14.000Z</time>
      </trkpt>
      <trkpt lat="47.75337" lon="-3.35285">
        <ele>1.2</ele>
        <time>2020-08-21T14:07:15.000Z</time>
      </trkpt>
      <trkpt lat="47.75337" lon="-3.35285">
        <ele>1.2</ele>
        <time>2020-08-21T14:07:16.000Z</time>
      </trkpt>
      <trkpt lat="47.75337" lon="-3.35285">
        <ele>1.2</ele>
        <time>2020-08-21T14:07:17.000Z</time>
      </trkpt>
      <trkpt lat="47.75337" lon="-3.35285">
        <ele>1.2</ele>
        <time>2020-08-21T14:07:18.000Z</time>
      </trkpt>
      <trkpt lat="47.75337" lon="-3.35285">
        <ele>1.2</ele>
        <time>2020-08-21T14:07:19.000Z</time>
      </trkpt>
      <trkpt lat="47.75337" lon="-3.35285">
        <ele>1.2</ele>
        <time>2020-08-21T14:07:20.000Z</time>
      </trkpt>
      <trkpt lat="47.75337" lon="-3.35285">
        <ele>1.2</ele>
        <time>2020-08-21T14:07:21.000Z</time>
      </trkpt>
      <trkpt lat="47.75337" lon="-3.35285">
        <ele>1.2</ele>
        <time>2020-08-21T14:07:22.000Z</time>
      </trkpt>
      <trkpt lat="47.75337" lon="-3.35285">
        <ele>1.2</ele>
        <time>2020-08-21T14:07:23.000Z</time>
      </trkpt>
      <trkpt lat="47.75337" lon="-3.35285">
        <ele>1.2</ele>
        <time>2020-08-21T14:07:24.000Z</time>
      </trkpt>
      <trkpt lat="47.75337" lon="-3.35285">
        <ele>1.2</ele>
        <time>2020-08-21T14:07:25.000Z</time>
      </trkpt>
      <trkpt lat="47.75337" lon="-3.35285">
        <ele>1.2</ele>
        <time>2020-08-21T14:07:26.000Z</time>
      </trkpt>
      <trkpt lat="47.75337" lon="-3.35285">
        <ele>1.2</ele>
        <time>2020-08-21T14:07:27.000Z</time>
      </trkpt>
      <trkpt lat="47.75337" lon="-3.35285">
        <ele>1.2</ele>
        <time>2020-08-21T14:07:28.000Z</time>
      </trkpt>
      <trkpt lat="47.75337" lon="-3.35285">
        <ele>1.2</ele>
        <time>2020-08-21T14:07:29.000Z</time>
      </trkpt>
      <trkpt lat="47.75337" lon="-3.35285">
        <ele>1.2</ele>
        <time>2020-08-21T14:07:30.000Z</time>
      </trkpt>
      <trkpt lat="47.75337" lon="-3.35285">
        <ele>1.2</ele>
        <time>2020-08-21T14:07:31.000Z</time>
      </trkpt>
      <trkpt lat="47.75337" lon="-3.35285">
        <ele>1.2</ele>
        <time>2020-08-21T14:07:32.000Z</time>
      </trkpt>
      <trkpt lat="47.75337" lon="-3.35285">
        <ele>1.2</ele>
        <time>2020-08-21T14:07:33.000Z</time>
      </trkpt>
      <trkpt lat="47.75337" lon="-3.35285">
        <ele>1.2</ele>
        <time>2020-08-21T14:07:34.000Z</time>
      </trkpt>
      <trkpt lat="47.75337" lon="-3.35285">
        <ele>1.2</ele>
        <time>2020-08-21T14:07:35.000Z</time>
      </trkpt>
      <trkpt lat="47.75337" lon="-3.35285">
        <ele>1.2</ele>
        <time>2020-08-21T14:07:36.000Z</time>
      </trkpt>
      <trkpt lat="47.75337" lon="-3.35285">
        <ele>1.2</ele>
        <time>2020-08-21T14:07:37.000Z</time>
      </trkpt>
      <trkpt lat="47.75337" lon="-3.35285">
        <ele>1.2</ele>
        <time>2020-08-21T14:07:38.000Z</time>
      </trkpt>
      <trkpt lat="47.75337" lon="-3.35285">
        <ele>1.2</ele>
        <time>2020-08-21T14:07:39.000Z</time>
      </trkpt>
      <trkpt lat="47.75337" lon="-3.35285">
        <ele>1.2</ele>
        <time>2020-08-21T14:07:40.000Z</time>
      </trkpt>
      <trkpt lat="47.75337" lon="-3.35285">
        <ele>1.2</ele>
        <time>2020-08-21T14:07:41.000Z</time>
      </trkpt>
      <trkpt lat="47.75337" lon="-3.35285">
        <ele>1.2</ele>
        <time>2020-08-21T14:07:42.000Z</time>
      </trkpt>
      <trkpt lat="47.75337" lon="-3.35285">
        <ele>1.2</ele>
        <time>2020-08-21T14:07:43.000Z</time>
      </trkpt>
      <trkpt lat="47.75337" lon="-3.35285">
        <ele>1.2</ele>
        <time>2020-08-21T14:07:44.000Z</time>
      </trkpt>
      <trkpt lat="47.75337" lon="-3.35285">
        <ele>1.2</ele>
        <time>2020-08-21T14:07:45.000Z</time>
      </trkpt>
      <trkpt lat="47.75337" lon="-3.35285">
        <ele>1.2</ele>
        <time>2020-08-21T14:07:46.000Z</time>
      </trkpt>
      <trkpt lat="47.75337" lon="-3.35285">
        <ele>1.2</ele>
        <time>2020-08-21T14:07:47.000Z</time>
      </trkpt>
      <trkpt lat="47.75337" lon="-3.35285">
        <ele>1.2</ele>
        <time>2020-08-21T14:07:48.000Z</time>
      </trkpt>
      <trkpt lat="47.75337" lon="-3.35285">
        <ele>1.2</ele>
        <time>2020-08-21T14:07:49.000Z</time>
      </trkpt>
      <trkpt lat="47.75337" lon="-3.35285">
        <ele>1.2</ele>
        <time>2020-08-21T14:07:50.000Z</time>
      </trkpt>
      <trkpt lat="47.75337" lon="-3.35285">
        <ele>1.2</ele>
        <time>2020-08-21T14:07:51.000Z</time>
      </trkpt>
      <trkpt lat="47.75337" lon="-3.35285">
        <ele>1.2</ele>
        <time>2020-08-21T14:07:52.000Z</time>
      </trkpt>
      <trkpt lat="47.75337" lon="-3.35285">
        <ele>1.2</ele>
        <time>2020-08-21T14:07:53.000Z</time>
      </trkpt>
      <trkpt lat="47.75337" lon="-3.35285">
        <ele>1.2</ele>
        <time>2020-08-21T14:07:54.000Z</time>
      </trkpt>
      <trkpt lat="47.75337" lon="-3.35285">
        <ele>1.2</ele>
        <time>2020-08-21T14:07:55.000Z</time>
      </trkpt>
      <trkpt lat="47.75337" lon="-3.35285">
        <ele>1.2</ele>
        <time>2020-08-21T14:07:56.000Z</time>
      </trkpt>
      <trkpt lat="47.75337" lon="-3.35285">
        <ele>1.2</ele>
        <time>2020-08-21T14:07:57.000Z</time>
      </trkpt>
      <trkpt lat="47.75337" lon="-3.35285">
        <ele>1.2</ele>
        <time>2020-08-21T14:07:58.000Z</time>
      </trkpt>
      <trkpt lat="47.75337" lon="-3.35285">
        <ele>1.2</ele>
        <time>2020-08-21T14:07:59.000Z</time>
      </trkpt>
      <trkpt lat="47.75337" lon="-3.35285">
        <ele>1.2</ele>
        <time>2020-08-21T14:08:00.000Z</time>
      </trkpt>
      <trkpt lat="47.75337" lon="-3.35285">
        <ele>1.2</ele>
        <time>2020-08-21T14:08:01.000Z</time>
      </trkpt>
      <trkpt lat="47.75337" lon="-3.35285">
        <ele>1.2</ele>
        <time>2020-08-21T14:08:02.000Z</time>
      </trkpt>
      <trkpt lat="47.75337" lon="-3.35285">
        <ele>1.2</ele>
        <time>2020-08-21T14:08:03.000Z</time>
      </trkpt>
      <trkpt lat="47.75337" lon="-3.35285">
        <ele>1.2</ele>
        <time>2020-08-21T14:08:04.000Z</time>
      </trkpt>
      <trkpt lat="47.75337" lon="-3.35285">
        <ele>1.2</ele>
        <time>2020-08-21T14:08:05.000Z</time>
      </trkpt>
      <trkpt lat="47.75337" lon="-3.35285">
        <ele>1.2</ele>
        <time>2020-08-21T14:08:06.000Z</time>
      </trkpt>
      <trkpt lat="47.75337" lon="-3.35285">
        <ele>1.2</ele>
        <time>2020-08-21T14:08:07.000Z</time>
      </trkpt>
      <trkpt lat="47.75337" lon="-3.35285">
        <ele>1.2</ele>
        <time>2020-08-21T14:08:08.000Z</time>
      </trkpt>
      <trkpt lat="47.75337" lon="-3.35285">
        <ele>1.2</ele>
        <time>2020-08-21T14:08:09.000Z</time>
      </trkpt>
      <trkpt lat="47.75337" lon="-3.35285">
        <ele>1.2</ele>
        <time>2020-08-21T14:08:10.000Z</time>
      </trkpt>
      <trkpt lat="47.75337" lon="-3.35285">
        <ele>1.2</ele>
        <time>2020-08-21T14:08:11.000Z</time>
      </trkpt>
      <trkpt lat="47.75337" lon="-3.35285">
        <ele>1.2</ele>
        <time>2020-08-21T14:08:12.000Z</time>
      </trkpt>
      <trkpt lat="47.75337" lon="-3.35285">
        <ele>1.2</ele>
        <time>2020-08-21T14:08:13.000Z</time>
      </trkpt>
      <trkpt lat="47.75337" lon="-3.35285">
        <ele>1.2</ele>
        <time>2020-08-21T14:08:14.000Z</time>
      </trkpt>
      <trkpt lat="47.75337" lon="-3.35285">
        <ele>1.2</ele>
        <time>2020-08-21T14:08:15.000Z</time>
      </trkpt>
      <trkpt lat="47.75337" lon="-3.35285">
        <ele>1.2</ele>
        <time>2020-08-21T14:08:16.000Z</time>
      </trkpt>
      <trkpt lat="47.75337" lon="-3.35285">
        <ele>1.2</ele>
        <time>2020-08-21T14:08:17.000Z</time>
      </trkpt>
      <trkpt lat="47.75337" lon="-3.35285">
        <ele>1.2</ele>
        <time>2020-08-21T14:08:18.000Z</time>
      </trkpt>
      <trkpt lat="47.75337" lon="-3.35285">
        <ele>1.2</ele>
        <time>2020-08-21T14:08:19.000Z</time>
      </trkpt>
      <trkpt lat="47.75337" lon="-3.35285">
        <ele>1.2</ele>
        <time>2020-08-21T14:08:20.000Z</time>
      </trkpt>
      <trkpt lat="47.75337" lon="-3.35285">
        <ele>1.2</ele>
        <time>2020-08-21T14:08:21.000Z</time>
      </trkpt>
      <trkpt lat="47.75337" lon="-3.35285">
        <ele>1.2</ele>
        <time>2020-08-21T14:08:22.000Z</time>
      </trkpt>
      <trkpt lat="47.75337" lon="-3.35285">
        <ele>1.2</ele>
        <time>2020-08-21T14:08:23.000Z</time>
      </trkpt>
      <trkpt lat="47.75337" lon="-3.35285">
        <ele>1.2</ele>
        <time>2020-08-21T14:08:24.000Z</time>
      </trkpt>
      <trkpt lat="47.75337" lon="-3.35285">
        <ele>1.2</ele>
        <time>2020-08-21T14:08:25.000Z</time>
      </trkpt>
      <trkpt lat="47.75337" lon="-3.35285">
        <ele>1.2</ele>
        <time>2020-08-21T14:08:26.000Z</time>
      </trkpt>
      <trkpt lat="47.75337" lon="-3.35285">
        <ele>1.2</ele>
        <time>2020-08-21T14:08:27.000Z</time>
      </trkpt>
      <trkpt lat="47.75337" lon="-3.35285">
        <ele>1.2</ele>
        <time>2020-08-21T14:08:28.000Z</time>
      </trkpt>
      <trkpt lat="47.75337" lon="-3.35285">
        <ele>1.2</ele>
        <time>2020-08-21T14:08:29.000Z</time>
      </trkpt>
      <trkpt lat="47.75337" lon="-3.35285">
        <ele>1.2</ele>
        <time>2020-08-21T14:08:30.000Z</time>
      </trkpt>
      <trkpt lat="47.75337" lon="-3.35285">
        <ele>1.2</ele>
        <time>2020-08-21T14:08:31.000Z</time>
      </trkpt>
      <trkpt lat="47.75337" lon="-3.35285">
        <ele>1.2</ele>
        <time>2020-08-21T14:08:32.000Z</time>
      </trkpt>
      <trkpt lat="47.75337" lon="-3.35285">
        <ele>1.2</ele>
        <time>2020-08-21T14:08:33.000Z</time>
      </trkpt>
      <trkpt lat="47.75337" lon="-3.35285">
        <ele>1.2</ele>
        <time>2020-08-21T14:08:34.000Z</time>
      </trkpt>
      <trkpt lat="47.75337" lon="-3.35285">
        <ele>1.2</ele>
        <time>2020-08-21T14:08:35.000Z</time>
      </trkpt>
      <trkpt lat="47.75337" lon="-3.35285">
        <ele>1.2</ele>
        <time>2020-08-21T14:08:36.000Z</time>
      </trkpt>
      <trkpt lat="47.75337" lon="-3.35285">
        <ele>1.2</ele>
        <time>2020-08-21T14:08:37.000Z</time>
      </trkpt>
      <trkpt lat="47.75337" lon="-3.35285">
        <ele>1.2</ele>
        <time>2020-08-21T14:08:38.000Z</time>
      </trkpt>
      <trkpt lat="47.75337" lon="-3.35285">
        <ele>1.2</ele>
        <time>2020-08-21T14:08:39.000Z</time>
      </trkpt>
      <trkpt lat="47.75337" lon="-3.35285">
        <ele>1.2</ele>
        <time>2020-08-21T14:08:40.000Z</time>
      </trkpt>
      <trkpt lat="47.75337" lon="-3.35285">
        <ele>1.2</ele>
        <time>2020-08-21T14:08:41.000Z</time>
      </trkpt>
      <trkpt lat="47.75337" lon="-3.35285">
        <ele>1.2</ele>
        <time>2020-08-21T14:08:42.000Z</time>
      </trkpt>
      <trkpt lat="47.75337" lon="-3.35285">
        <ele>1.2</ele>
        <time>2020-08-21T14:08:43.000Z</time>
      </trkpt>
      <trkpt lat="47.75337" lon="-3.35285">
        <ele>1.2</ele>
        <time>2020-08-21T14:08:44.000Z</time>
      </trkpt>
      <trkpt lat="47.75337" lon="-3.35285">
        <ele>1.2</ele>
        <time>2020-08-21T14:08:45.000Z</time>
      </trkpt>
      <trkpt lat="47.75337" lon="-3.35285">
        <ele>1.2</ele>
        <time>2020-08-21T14:08:46.000Z</time>
      </trkpt>
      <trkpt lat="47.75337" lon="-3.35285">
        <ele>1.2</ele>
        <time>2020-08-21T14:08:47.000Z</time>
      </trkpt>
      <trkpt lat="47.75337" lon="-3.35285">
        <ele>1.2</ele>
        <time>2020-08-21T14:08:48.000Z</time>
      </trkpt>
      <trkpt lat="47.75337" lon="-3.35285">
        <ele>1.2</ele>
        <time>2020-08-21T14:08:49.000Z</time>
      </trkpt>
      <trkpt lat="47.75337" lon="-3.35285">
        <ele>1.2</ele>
        <time>2020-08-21T14:08:50.000Z</time>
      </trkpt>
      <trkpt lat="47.75337" lon="-3.35285">
        <ele>1.2</ele>
        <time>2020-08-21T14:08:51.000Z</time>
      </trkpt>
      <trkpt lat="47.75337" lon="-3.35285">
        <ele>1.2</ele>
        <time>2020-08-21T14:08:52.000Z</time>
      </trkpt>
      <trkpt lat="47.75337" lon="-3.35285">
        <ele>1.2</ele>
        <time>2020-08-21T14:08:53.000Z</time>
      </trkpt>
      <trkpt lat="47.75337" lon="-3.35285">
        <ele>1.2</ele>
        <time>2020-08-21T14:08:54.000Z</time>
      </trkpt>
      <trkpt lat="47.75337" lon="-3.35285">
        <ele>1.2</ele>
        <time>2020-08-21T14:08:55.000Z</time>
      </trkpt>
      <trkpt lat="47.75337" lon="-3.35285">
        <ele>1.2</ele>
        <time>2020-08-21T14:08:56.000Z</time>
      </trkpt>
      <trkpt lat="47.75337" lon="-3.35285">
        <ele>1.2</ele>
        <time>2020-08-21T14:08:57.000Z</time>
      </trkpt>
      <trkpt lat="47.75337" lon="-3.35285">
        <ele>1.2</ele>
        <time>2020-08-21T14:08:58.000Z</time>
      </trkpt>
      <trkpt lat="47.75337" lon="-3.35285">
        <ele>1.2</ele>
        <time>2020-08-21T14:08:59.000Z</time>
      </trkpt>
      <trkpt lat="47.75337" lon="-3.35285">
        <ele>1.2</ele>
        <time>2020-08-21T14:09:00.000Z</time>
      </trkpt>
      <trkpt lat="47.75337" lon="-3.35285">
        <ele>1.2</ele>
        <time>2020-08-21T14:09:01.000Z</time>
      </trkpt>
      <trkpt lat="47.75337" lon="-3.35285">
        <ele>1.2</ele>
        <time>2020-08-21T14:09:02.000Z</time>
      </trkpt>
      <trkpt lat="47.75337" lon="-3.35285">
        <ele>1.2</ele>
        <time>2020-08-21T14:09:03.000Z</time>
      </trkpt>
      <trkpt lat="47.75337" lon="-3.35285">
        <ele>1.2</ele>
        <time>2020-08-21T14:09:04.000Z</time>
      </trkpt>
      <trkpt lat="47.75337" lon="-3.35285">
        <ele>1.2</ele>
        <time>2020-08-21T14:09:05.000Z</time>
      </trkpt>
      <trkpt lat="47.75337" lon="-3.35285">
        <ele>1.2</ele>
        <time>2020-08-21T14:09:06.000Z</time>
      </trkpt>
      <trkpt lat="47.75337" lon="-3.35285">
        <ele>1.2</ele>
        <time>2020-08-21T14:09:07.000Z</time>
      </trkpt>
      <trkpt lat="47.75337" lon="-3.35285">
        <ele>1.2</ele>
        <time>2020-08-21T14:09:08.000Z</time>
      </trkpt>
      <trkpt lat="47.75337" lon="-3.35285">
        <ele>1.2</ele>
        <time>2020-08-21T14:09:09.000Z</time>
      </trkpt>
      <trkpt lat="47.75337" lon="-3.35285">
        <ele>1.2</ele>
        <time>2020-08-21T14:09:10.000Z</time>
      </trkpt>
      <trkpt lat="47.75337" lon="-3.35285">
        <ele>1.2</ele>
        <time>2020-08-21T14:09:11.000Z</time>
      </trkpt>
      <trkpt lat="47.75337" lon="-3.35285">
        <ele>1.2</ele>
        <time>2020-08-21T14:09:12.000Z</time>
      </trkpt>
      <trkpt lat="47.75337" lon="-3.35285">
        <ele>1.2</ele>
        <time>2020-08-21T14:09:13.000Z</time>
      </trkpt>
      <trkpt lat="47.75337" lon="-3.35285">
        <ele>1.2</ele>
        <time>2020-08-21T14:09:14.000Z</time>
      </trkpt>
      <trkpt lat="47.75337" lon="-3.35285">
        <ele>1.2</ele>
        <time>2020-08-21T14:09:15.000Z</time>
      </trkpt>
      <trkpt lat="47.75337" lon="-3.35285">
        <ele>1.2</ele>
        <time>2020-08-21T14:09:16.000Z</time>
      </trkpt>
      <trkpt lat="47.75337" lon="-3.35285">
        <ele>1.2</ele>
        <time>2020-08-21T14:09:17.000Z</time>
      </trkpt>
      <trkpt lat="47.75337" lon="-3.35285">
        <ele>1.2</ele>
        <time>2020-08-21T14:09:18.000Z</time>
      </trkpt>
      <trkpt lat="47.75337" lon="-3.35285">
        <ele>1.2</ele>
        <time>2020-08-21T14:09:19.000Z</time>
      </trkpt>
      <trkpt lat="47.75337" lon="-3.35285">
        <ele>1.2</ele>
        <time>2020-08-21T14:09:20.000Z</time>
      </trkpt>
      <trkpt lat="47.75337" lon="-3.35285">
        <ele>1.2</ele>
        <time>2020-08-21T14:09:21.000Z</time>
      </trkpt>
      <trkpt lat="47.75337" lon="-3.35285">
        <ele>1.2</ele>
        <time>2020-08-21T14:09:22.000Z</time>
      </trkpt>
      <trkpt lat="47.75337" lon="-3.35285">
        <ele>1.2</ele>
        <time>2020-08-21T14:09:23.000Z</time>
      </trkpt>
      <trkpt lat="47.75337" lon="-3.35285">
        <ele>1.2</ele>
        <time>2020-08-21T14:09:24.000Z</time>
      </trkpt>
      <trkpt lat="47.75337" lon="-3.35285">
        <ele>1.2</ele>
        <time>2020-08-21T14:09:25.000Z</time>
      </trkpt>
      <trkpt lat="47.75337" lon="-3.35285">
        <ele>1.2</ele>
        <time>2020-08-21T14:09:26.000Z</time>
      </trkpt>
      <trkpt lat="47.75337" lon="-3.35285">
        <ele>1.2</ele>
        <time>2020-08-21T14:09:27.000Z</time>
      </trkpt>
      <trkpt lat="47.75337" lon="-3.35285">
        <ele>1.2</ele>
        <time>2020-08-21T14:09:28.000Z</time>
      </trkpt>
      <trkpt lat="47.75337" lon="-3.35285">
        <ele>1.2</ele>
        <time>2020-08-21T14:09:29.000Z</time>
      </trkpt>
      <trkpt lat="47.75337" lon="-3.35285">
        <ele>1.2</ele>
        <time>2020-08-21T14:09:30.000Z</time>
      </trkpt>
      <trkpt lat="47.75337" lon="-3.35285">
        <ele>1.2</ele>
        <time>2020-08-21T14:09:31.000Z</time>
      </trkpt>
      <trkpt lat="47.75337" lon="-3.35285">
        <ele>1.2</ele>
        <time>2020-08-21T14:09:32.000Z</time>
      </trkpt>
      <trkpt lat="47.75337" lon="-3.35285">
        <ele>1.2</ele>
        <time>2020-08-21T14:09:33.000Z</time>
      </trkpt>
      <trkpt lat="47.75337" lon="-3.35285">
        <ele>1.2</ele>
        <time>2020-08-21T14:09:34.000Z</time>
      </trkpt>
      <trkpt lat="47.75337" lon="-3.35285">
        <ele>1.2</ele>
        <time>2020-08-21T14:09:35.000Z</time>
      </trkpt>
      <trkpt lat="47.75337" lon="-3.35285">
        <ele>1.2</ele>
        <time>2020-08-21T14:09:36.000Z</time>
      </trkpt>
      <trkpt lat="47.75337" lon="-3.35285">
        <ele>1.2</ele>
        <time>2020-08-21T14:09:37.000Z</time>
      </trkpt>
      <trkpt lat="47.75337" lon="-3.35285">
        <ele>1.2</ele>
        <time>2020-08-21T14:09:38.000Z</time>
      </trkpt>
      <trkpt lat="47.75337" lon="-3.35285">
        <ele>1.2</ele>
        <time>2020-08-21T14:09:39.000Z</time>
      </trkpt>
      <trkpt lat="47.75337" lon="-3.35285">
        <ele>1.2</ele>
        <time>2020-08-21T14:09:40.000Z</time>
      </trkpt>
      <trkpt lat="47.75337" lon="-3.35285">
        <ele>1.2</ele>
        <time>2020-08-21T14:09:41.000Z</time>
      </trkpt>
      <trkpt lat="47.75337" lon="-3.35285">
        <ele>1.2</ele>
        <time>2020-08-21T14:09:42.000Z</time>
      </trkpt>
      <trkpt lat="47.75337" lon="-3.35285">
        <ele>1.2</ele>
        <time>2020-08-21T14:09:43.000Z</time>
      </trkpt>
      <trkpt lat="47.75337" lon="-3.35285">
        <ele>1.2</ele>
        <time>2020-08-21T14:09:44.000Z</time>
      </trkpt>
      <trkpt lat="47.75337" lon="-3.35285">
        <ele>1.2</ele>
        <time>2020-08-21T14:09:45.000Z</time>
      </trkpt>
      <trkpt lat="47.75337" lon="-3.35285">
        <ele>1.2</ele>
        <time>2020-08-21T14:09:46.000Z</time>
      </trkpt>
      <trkpt lat="47.75337" lon="-3.35285">
        <ele>1.2</ele>
        <time>2020-08-21T14:09:47.000Z</time>
      </trkpt>
      <trkpt lat="47.75337" lon="-3.35285">
        <ele>1.2</ele>
        <time>2020-08-21T14:09:48.000Z</time>
      </trkpt>
      <trkpt lat="47.75337" lon="-3.35285">
        <ele>1.2</ele>
        <time>2020-08-21T14:09:49.000Z</time>
      </trkpt>
      <trkpt lat="47.75337" lon="-3.35285">
        <ele>1.2</ele>
        <time>2020-08-21T14:09:50.000Z</time>
      </trkpt>
      <trkpt lat="47.75337" lon="-3.35285">
        <ele>1.2</ele>
        <time>2020-08-21T14:09:51.000Z</time>
      </trkpt>
      <trkpt lat="47.75337" lon="-3.35285">
        <ele>1.2</ele>
        <time>2020-08-21T14:09:52.000Z</time>
      </trkpt>
      <trkpt lat="47.75337" lon="-3.35285">
        <ele>1.2</ele>
        <time>2020-08-21T14:09:53.000Z</time>
      </trkpt>
      <trkpt lat="47.75337" lon="-3.35285">
        <ele>1.2</ele>
        <time>2020-08-21T14:09:54.000Z</time>
      </trkpt>
      <trkpt lat="47.75337" lon="-3.35285">
        <ele>1.2</ele>
        <time>2020-08-21T14:09:55.000Z</time>
      </trkpt>
      <trkpt lat="47.75337" lon="-3.35285">
        <ele>1.2</ele>
        <time>2020-08-21T14:09:56.000Z</time>
      </trkpt>
      <trkpt lat="47.75337" lon="-3.35285">
        <ele>1.2</ele>
        <time>2020-08-21T14:09:57.000Z</time>
      </trkpt>
      <trkpt lat="47.75337" lon="-3.35285">
        <ele>1.2</ele>
        <time>2020-08-21T14:09:58.000Z</time>
      </trkpt>
      <trkpt lat="47.75337" lon="-3.35285">
        <ele>1.2</ele>
        <time>2020-08-21T14:09:59.000Z</time>
      </trkpt>
      <trkpt lat="47.75337" lon="-3.35285">
        <ele>1.2</ele>
        <time>2020-08-21T14:10:00.000Z</time>
      </trkpt>
      <trkpt lat="47.75337" lon="-3.35285">
        <ele>1.2</ele>
        <time>2020-08-21T14:10:01.000Z</time>
      </trkpt>
      <trkpt lat="47.75337" lon="-3.35285">
        <ele>1.2</ele>
        <time>2020-08-21T14:10:02.000Z</time>
      </trkpt>
      <trkpt lat="47.75337" lon="-3.35285">
        <ele>1.2</ele>
        <time>2020-08-21T14:10:03.000Z</time>
      </trkpt>
      <trkpt lat="47.75337" lon="-3.35285">
        <ele>1.2</ele>
        <time>2020-08-21T14:10:04.000Z</time>
      </trkpt>
      <trkpt lat="47.75337" lon="-3.35285">
        <ele>1.2</ele>
        <time>2020-08-21T14:10:05.000Z</time>
      </trkpt>
      <trkpt lat="47.75337" lon="-3.35285">
        <ele>1.2</ele>
        <time>2020-08-21T14:10:06.000Z</time>
      </trkpt>
      <trkpt lat="47.75337" lon="-3.35285">
        <ele>1.2</ele>
        <time>2020-08-21T14:10:07.000Z</time>
      </trkpt>
      <trkpt lat="47.75337" lon="-3.35285">
        <ele>1.2</ele>
        <time>2020-08-21T14:10:08.000Z</time>
      </trkpt>
      <trkpt lat="47.75337" lon="-3.35285">
        <ele>1.2</ele>
        <time>2020-08-21T14:10:09.000Z</time>
      </trkpt>
      <trkpt lat="47.75337" lon="-3.35285">
        <ele>1.2</ele>
        <time>2020-08-21T14:10:10.000Z</time>
      </trkpt>
      <trkpt lat="47.75337" lon="-3.35285">
        <ele>1.2</ele>
        <time>2020-08-21T14:10:11.000Z</time>
      </trkpt>
      <trkpt lat="47.75337" lon="-3.35285">
        <ele>1.2</ele>
        <time>2020-08-21T14:10:12.000Z</time>
      </trkpt>
      <trkpt lat="47.75337" lon="-3.35285">
        <ele>1.2</ele>
        <time>2020-08-21T14:10:13.000Z</time>
      </trkpt>
      <trkpt lat="47.75337" lon="-3.35285">
        <ele>1.2</ele>
        <time>2020-08-21T14:10:14.000Z</time>
      </trkpt>
      <trkpt lat="47.75337" lon="-3.35285">
        <ele>1.2</ele>
        <time>2020-08-21T14:10:15.000Z</time>
      </trkpt>
      <trkpt lat="47.75337" lon="-3.35285">
        <ele>1.2</ele>
        <time>2020-08-21T14:10:16.000Z</time>
      </trkpt>
      <trkpt lat="47.75337" lon="-3.35285">
        <ele>1.2</ele>
        <time>2020-08-21T14:10:17.000Z</time>
      </trkpt>
      <trkpt lat="47.75337" lon="-3.35285">
        <ele>1.2</ele>
        <time>2020-08-21T14:10:18.000Z</time>
      </trkpt>
      <trkpt lat="47.75337" lon="-3.35285">
        <ele>1.2</ele>
        <time>2020-08-21T14:10:19.000Z</time>
      </trkpt>
      <trkpt lat="47.75337" lon="-3.35285">
        <ele>1.2</ele>
        <time>2020-08-21T14:10:20.000Z</time>
      </trkpt>
      <trkpt lat="47.75337" lon="-3.35285">
        <ele>1.2</ele>
        <time>2020-08-21T14:10:21.000Z</time>
      </trkpt>
      <trkpt lat="47.75337" lon="-3.35285">
        <ele>1.2</ele>
        <time>2020-08-21T14:10:22.000Z</time>
      </trkpt>
      <trkpt lat="47.75337" lon="-3.35285">
        <ele>1.2</ele>
        <time>2020-08-21T14:10:23.000Z</time>
      </trkpt>
      <trkpt lat="47.75337" lon="-3.35285">
        <ele>1.2</ele>
        <time>2020-08-21T14:10:24.000Z</time>
      </trkpt>
      <trkpt lat="47.75337" lon="-3.35285">
        <ele>1.2</ele>
        <time>2020-08-21T14:10:25.000Z</time>
      </trkpt>
      <trkpt lat="47.75337" lon="-3.35285">
        <ele>1.2</ele>
        <time>2020-08-21T14:10:26.000Z</time>
      </trkpt>
      <trkpt lat="47.75337" lon="-3.35285">
        <ele>1.2</ele>
        <time>2020-08-21T14:10:27.000Z</time>
      </trkpt>
      <trkpt lat="47.75337" lon="-3.35285">
        <ele>1.2</ele>
        <time>2020-08-21T14:10:28.000Z</time>
      </trkpt>
      <trkpt lat="47.75337" lon="-3.35285">
        <ele>1.2</ele>
        <time>2020-08-21T14:10:29.000Z</time>
      </trkpt>
      <trkpt lat="47.75337" lon="-3.35285">
        <ele>1.2</ele>
        <time>2020-08-21T14:10:30.000Z</time>
      </trkpt>
      <trkpt lat="47.75337" lon="-3.35285">
        <ele>1.2</ele>
        <time>2020-08-21T14:10:31.000Z</time>
      </trkpt>
      <trkpt lat="47.75337" lon="-3.35285">
        <ele>1.2</ele>
        <time>2020-08-21T14:10:32.000Z</time>
      </trkpt>
      <trkpt lat="47.75337" lon="-3.35285">
        <ele>1.2</ele>
        <time>2020-08-21T14:10:33.000Z</time>
      </trkpt>
      <trkpt lat="47.75337" lon="-3.35285">
        <ele>1.2</ele>
        <time>2020-08-21T14:10:34.000Z</time>
      </trkpt>
      <trkpt lat="47.75337" lon="-3.35285">
        <ele>1.2</ele>
        <time>2020-08-21T14:10:35.000Z</time>
      </trkpt>
      <trkpt lat="47.75337" lon="-3.35285">
        <ele>1.2</ele>
        <time>2020-08-21T14:10:36.000Z</time>
      </trkpt>
      <trkpt lat="47.75337" lon="-3.35285">
        <ele>1.2</ele>
        <time>2020-08-21T14:10:37.000Z</time>
      </trkpt>
      <trkpt lat="47.75337" lon="-3.35285">
        <ele>1.2</ele>
        <time>2020-08-21T14:10:38.000Z</time>
      </trkpt>
      <trkpt lat="47.75337" lon="-3.35285">
        <ele>1.2</ele>
        <time>2020-08-21T14:10:39.000Z</time>
      </trkpt>
      <trkpt lat="47.75337" lon="-3.35285">
        <ele>1.2</ele>
        <time>2020-08-21T14:10:40.000Z</time>
      </trkpt>
      <trkpt lat="47.75337" lon="-3.35285">
        <ele>1.2</ele>
        <time>2020-08-21T14:10:41.000Z</time>
      </trkpt>
      <trkpt lat="47.75337" lon="-3.35285">
        <ele>1.2</ele>
        <time>2020-08-21T14:10:42.000Z</time>
      </trkpt>
      <trkpt lat="47.75337" lon="-3.35285">
        <ele>1.2</ele>
        <time>2020-08-21T14:10:43.000Z</time>
      </trkpt>
      <trkpt lat="47.75337" lon="-3.35285">
        <ele>1.2</ele>
        <time>2020-08-21T14:10:44.000Z</time>
      </trkpt>
      <trkpt lat="47.75337" lon="-3.35285">
        <ele>1.2</ele>
        <time>2020-08-21T14:10:45.000Z</time>
      </trkpt>
      <trkpt lat="47.75337" lon="-3.35285">
        <ele>1.2</ele>
        <time>2020-08-21T14:10:46.000Z</time>
      </trkpt>
      <trkpt lat="47.75337" lon="-3.35285">
        <ele>1.2</ele>
        <time>2020-08-21T14:10:47.000Z</time>
      </trkpt>
      <trkpt lat="47.75337" lon="-3.35285">
        <ele>1.2</ele>
        <time>2020-08-21T14:10:48.000Z</time>
      </trkpt>
      <trkpt lat="47.75337" lon="-3.35285">
        <ele>1.2</ele>
        <time>2020-08-21T14:10:49.000Z</time>
      </trkpt>
      <trkpt lat="47.75337" lon="-3.35285">
        <ele>1.2</ele>
        <time>2020-08-21T14:10:50.000Z</time>
      </trkpt>
      <trkpt lat="47.75337" lon="-3.35285">
        <ele>1.2</ele>
        <time>2020-08-21T14:10:51.000Z</time>
      </trkpt>
      <trkpt lat="47.75337" lon="-3.35285">
        <ele>1.2</ele>
        <time>2020-08-21T14:10:52.000Z</time>
      </trkpt>
      <trkpt lat="47.75337" lon="-3.35285">
        <ele>1.2</ele>
        <time>2020-08-21T14:10:53.000Z</time>
      </trkpt>
      <trkpt lat="47.75337" lon="-3.35285">
        <ele>1.2</ele>
        <time>2020-08-21T14:10:54.000Z</time>
      </trkpt>
      <trkpt lat="47.75337" lon="-3.35285">
        <ele>1.2</ele>
        <time>2020-08-21T14:10:55.000Z</time>
      </trkpt>
      <trkpt lat="47.75337" lon="-3.35285">
        <ele>1.2</ele>
        <time>2020-08-21T14:10:56.000Z</time>
      </trkpt>
      <trkpt lat="47.75337" lon="-3.35285">
        <ele>1.2</ele>
        <time>2020-08-21T14:10:57.000Z</time>
      </trkpt>
      <trkpt lat="47.75337" lon="-3.35285">
        <ele>1.2</ele>
        <time>2020-08-21T14:10:58.000Z</time>
      </trkpt>
      <trkpt lat="47.75337" lon="-3.35285">
        <ele>1.2</ele>
        <time>2020-08-21T14:10:59.000Z</time>
      </trkpt>
      <trkpt lat="47.75337" lon="-3.35285">
        <ele>1.2</ele>
        <time>2020-08-21T14:11:00.000Z</time>
      </trkpt>
      <trkpt lat="47.75337" lon="-3.35285">
        <ele>1.2</ele>
        <time>2020-08-21T14:11:01.000Z</time>
      </trkpt>
      <trkpt lat="47.75337" lon="-3.35285">
        <ele>1.2</ele>
        <time>2020-08-21T14:11:02.000Z</time>
      </trkpt>
      <trkpt lat="47.75337" lon="-3.35285">
        <ele>1.2</ele>
        <time>2020-08-21T14:11:03.000Z</time>
      </trkpt>
      <trkpt lat="47.75337" lon="-3.35285">
        <ele>1.2</ele>
        <time>2020-08-21T14:11:04.000Z</time>
      </trkpt>
      <trkpt lat="47.75337" lon="-3.35285">
        <ele>1.2</ele>
        <time>2020-08-21T14:11:05.000Z</time>
      </trkpt>
      <trkpt lat="47.75337" lon="-3.35285">
        <ele>1.2</ele>
        <time>2020-08-21T14:11:06.000Z</time>
      </trkpt>
      <trkpt lat="47.75337" lon="-3.35285">
        <ele>1.2</ele>
        <time>2020-08-21T14:11:07.000Z</time>
      </trkpt>
      <trkpt lat="47.75337" lon="-3.35285">
        <ele>1.2</ele>
        <time>2020-08-21T14:11:08.000Z</time>
      </trkpt>
      <trkpt lat="47.75337" lon="-3.35285">
        <ele>1.2</ele>
        <time>2020-08-21T14:11:09.000Z</time>
      </trkpt>
      <trkpt lat="47.75337" lon="-3.35285">
        <ele>1.2</ele>
        <time>2020-08-21T14:11:10.000Z</time>
      </trkpt>
      <trkpt lat="47.75337" lon="-3.35285">
        <ele>1.2</ele>
        <time>2020-08-21T14:11:11.000Z</time>
      </trkpt>
      <trkpt lat="47.75337" lon="-3.35285">
        <ele>1.2</ele>
        <time>2020-08-21T14:11:12.000Z</time>
      </trkpt>
      <trkpt lat="47.75337" lon="-3.35285">
        <ele>1.2</ele>
        <time>2020-08-21T14:11:13.000Z</time>
      </trkpt>
      <trkpt lat="47.75337" lon="-3.35285">
        <ele>1.2</ele>
        <time>2020-08-21T14:11:14.000Z</time>
      </trkpt>
      <trkpt lat="47.75337" lon="-3.35285">
        <ele>1.2</ele>
        <time>2020-08-21T14:11:15.000Z</time>
      </trkpt>
      <trkpt lat="47.75337" lon="-3.35285">
        <ele>1.2</ele>
        <time>2020-08-21T14:11:16.000Z</time>
      </trkpt>
      <trkpt lat="47.75337" lon="-3.35285">
        <ele>1.2</ele>
        <time>2020-08-21T14:11:17.000Z</time>
      </trkpt>
      <trkpt lat="47.75337" lon="-3.35285">
        <ele>1.2</ele>
        <time>2020-08-21T14:11:18.000Z</time>
      </trkpt>
      <trkpt lat="47.75337" lon="-3.35285">
        <ele>1.2</ele>
        <time>2020-08-21T14:11:19.000Z</time>
      </trkpt>
      <trkpt lat="47.75337" lon="-3.35285">
        <ele>1.2</ele>
        <time>2020-08-21T14:11:20.000Z</time>
      </trkpt>
      <trkpt lat="47.75337" lon="-3.35285">
        <ele>1.2</ele>
        <time>2020-08-21T14:11:21.000Z</time>
      </trkpt>
      <trkpt lat="47.75337" lon="-3.35285">
        <ele>1.2</ele>
        <time>2020-08-21T14:11:22.000Z</time>
      </trkpt>
      <trkpt lat="47.75337" lon="-3.35285">
        <ele>1.2</ele>
        <time>2020-08-21T14:11:23.000Z</time>
      </trkpt>
      <trkpt lat="47.75337" lon="-3.35285">
        <ele>1.2</ele>
        <time>2020-08-21T14:11:24.000Z</time>
      </trkpt>
      <trkpt lat="47.75337" lon="-3.35285">
        <ele>1.2</ele>
        <time>2020-08-21T14:11:25.000Z</time>
      </trkpt>
      <trkpt lat="47.75337" lon="-3.35285">
        <ele>1.2</ele>
        <time>2020-08-21T14:11:26.000Z</time>
      </trkpt>
      <trkpt lat="47.75337" lon="-3.35285">
        <ele>1.2</ele>
        <time>2020-08-21T14:11:27.000Z</time>
      </trkpt>
      <trkpt lat="47.75337" lon="-3.35285">
        <ele>1.2</ele>
        <time>2020-08-21T14:11:28.000Z</time>
      </trkpt>
      <trkpt lat="47.75337" lon="-3.35285">
        <ele>1.2</ele>
        <time>2020-08-21T14:11:29.000Z</time>
      </trkpt>
      <trkpt lat="47.75337" lon="-3.35285">
        <ele>1.2</ele>
        <time>2020-08-21T14:11:30.000Z</time>
      </trkpt>
      <trkpt lat="47.75337" lon="-3.35285">
        <ele>1.2</ele>
        <time>2020-08-21T14:11:31.000Z</time>
      </trkpt>
      <trkpt lat="47.75337" lon="-3.35285">
        <ele>1.2</ele>
        <time>2020-08-21T14:11:32.000Z</time>
      </trkpt>
      <trkpt lat="47.75337" lon="-3.35285">
        <ele>1.2</ele>
        <time>2020-08-21T14:11:33.000Z</time>
      </trkpt>
      <trkpt lat="47.75337" lon="-3.35285">
        <ele>1.2</ele>
        <time>2020-08-21T14:11:34.000Z</time>
      </trkpt>
      <trkpt lat="47.75337" lon="-3.35285">
        <ele>1.2</ele>
        <time>2020-08-21T14:11:35.000Z</time>
      </trkpt>
      <trkpt lat="47.75337" lon="-3.35285">
        <ele>1.2</ele>
        <time>2020-08-21T14:11:36.000Z</time>
      </trkpt>
      <trkpt lat="47.75337" lon="-3.35285">
        <ele>1.2</ele>
        <time>2020-08-21T14:11:37.000Z</time>
      </trkpt>
      <trkpt lat="47.75337" lon="-3.35285">
        <ele>1.2</ele>
        <time>2020-08-21T14:11:38.000Z</time>
      </trkpt>
      <trkpt lat="47.75337" lon="-3.35285">
        <ele>1.2</ele>
        <time>2020-08-21T14:11:39.000Z</time>
      </trkpt>
      <trkpt lat="47.75337" lon="-3.35285">
        <ele>1.2</ele>
        <time>2020-08-21T14:11:40.000Z</time>
      </trkpt>
      <trkpt lat="47.75337" lon="-3.35285">
        <ele>1.2</ele>
        <time>2020-08-21T14:11:41.000Z</time>
      </trkpt>
      <trkpt lat="47.75337" lon="-3.35285">
        <ele>1.2</ele>
        <time>2020-08-21T14:11:42.000Z</time>
      </trkpt>
      <trkpt lat="47.75337" lon="-3.35285">
        <ele>1.2</ele>
        <time>2020-08-21T14:11:43.000Z</time>
      </trkpt>
      <trkpt lat="47.75337" lon="-3.35285">
        <ele>1.2</ele>
        <time>2020-08-21T14:11:44.000Z</time>
      </trkpt>
      <trkpt lat="47.75337" lon="-3.35285">
        <ele>1.2</ele>
        <time>2020-08-21T14:11:45.000Z</time>
      </trkpt>
      <trkpt lat="47.75337" lon="-3.35285">
        <ele>1.2</ele>
        <time>2020-08-21T14:11:46.000Z</time>
      </trkpt>
      <trkpt lat="47.75337" lon="-3.35285">
        <ele>1.2</ele>
        <time>2020-08-21T14:11:47.000Z</time>
      </trkpt>
      <trkpt lat="47.75337" lon="-3.35285">
        <ele>1.2</ele>
        <time>2020-08-21T14:11:48.000Z</time>
      </trkpt>
      <trkpt lat="47.75337" lon="-3.35285">
        <ele>1.2</ele>
        <time>2020-08-21T14:11:49.000Z</time>
      </trkpt>
      <trkpt lat="47.75337" lon="-3.35285">
        <ele>1.2</ele>
        <time>2020-08-21T14:11:50.000Z</time>
      </trkpt>
      <trkpt lat="47.75337" lon="-3.35285">
        <ele>1.2</ele>
        <time>2020-08-21T14:11:51.000Z</time>
      </trkpt>
      <trkpt lat="47.75337" lon="-3.35285">
        <ele>1.2</ele>
        <time>2020-08-21T14:11:52.000Z</time>
      </trkpt>
      <trkpt lat="47.75337" lon="-3.35285">
        <ele>1.2</ele>
        <time>2020-08-21T14:11:53.000Z</time>
      </trkpt>
      <trkpt lat="47.75337" lon="-3.35285">
        <ele>1.2</ele>
        <time>2020-08-21T14:11:54.000Z</time>
      </trkpt>
      <trkpt lat="47.75337" lon="-3.35285">
        <ele>1.2</ele>
        <time>2020-08-21T14:11:55.000Z</time>
      </trkpt>
      <trkpt lat="47.75337" lon="-3.35285">
        <ele>1.2</ele>
        <time>2020-08-21T14:11:56.000Z</time>
      </trkpt>
      <trkpt lat="47.75337" lon="-3.35285">
        <ele>1.2</ele>
        <time>2020-08-21T14:11:57.000Z</time>
      </trkpt>
      <trkpt lat="47.75337" lon="-3.35285">
        <ele>1.2</ele>
        <time>2020-08-21T14:11:58.000Z</time>
      </trkpt>
      <trkpt lat="47.75337" lon="-3.35285">
        <ele>1.2</ele>
        <time>2020-08-21T14:11:59.000Z</time>
      </trkpt>
      <trkpt lat="47.75337" lon="-3.35285">
        <ele>1.2</ele>
        <time>2020-08-21T14:12:00.000Z</time>
      </trkpt>
      <trkpt lat="47.75337" lon="-3.35285">
        <ele>1.2</ele>
        <time>2020-08-21T14:12:01.000Z</time>
      </trkpt>
      <trkpt lat="47.75337" lon="-3.35285">
        <ele>1.2</ele>
        <time>2020-08-21T14:12:02.000Z</time>
      </trkpt>
      <trkpt lat="47.75337" lon="-3.35285">
        <ele>1.2</ele>
        <time>2020-08-21T14:12:03.000Z</time>
      </trkpt>
      <trkpt lat="47.75337" lon="-3.35285">
        <ele>1.2</ele>
        <time>2020-08-21T14:12:04.000Z</time>
      </trkpt>
      <trkpt lat="47.75337" lon="-3.35285">
        <ele>1.2</ele>
        <time>2020-08-21T14:12:05.000Z</time>
      </trkpt>
      <trkpt lat="47.75337" lon="-3.35285">
        <ele>1.2</ele>
        <time>2020-08-21T14:12:06.000Z</time>
      </trkpt>
      <trkpt lat="47.75337" lon="-3.35285">
        <ele>1.2</ele>
        <time>2020-08-21T14:12:07.000Z</time>
      </trkpt>
      <trkpt lat="47.75337" lon="-3.35285">
        <ele>1.2</ele>
        <time>2020-08-21T14:12:08.000Z</time>
      </trkpt>
      <trkpt lat="47.75337" lon="-3.35285">
        <ele>1.2</ele>
        <time>2020-08-21T14:12:09.000Z</time>
      </trkpt>
      <trkpt lat="47.75337" lon="-3.35285">
        <ele>1.2</ele>
        <time>2020-08-21T14:12:10.000Z</time>
      </trkpt>
      <trkpt lat="47.75337" lon="-3.35285">
        <ele>1.2</ele>
        <time>2020-08-21T14:12:11.000Z</time>
      </trkpt>
      <trkpt lat="47.75337" lon="-3.35285">
        <ele>1.2</ele>
        <time>2020-08-21T14:12:12.000Z</time>
      </trkpt>
      <trkpt lat="47.75337" lon="-3.35285">
        <ele>1.2</ele>
        <time>2020-08-21T14:12:13.000Z</time>
      </trkpt>
      <trkpt lat="47.75337" lon="-3.35285">
        <ele>1.2</ele>
        <time>2020-08-21T14:12:14.000Z</time>
      </trkpt>
      <trkpt lat="47.75337" lon="-3.35285">
        <ele>1.2</ele>
        <time>2020-08-21T14:12:15.000Z</time>
      </trkpt>
      <trkpt lat="47.75337" lon="-3.35285">
        <ele>1.2</ele>
        <time>2020-08-21T14:12:16.000Z</time>
      </trkpt>
      <trkpt lat="47.75337" lon="-3.35285">
        <ele>1.2</ele>
        <time>2020-08-21T14:12:17.000Z</time>
      </trkpt>
      <trkpt lat="47.75337" lon="-3.35285">
        <ele>1.2</ele>
        <time>2020-08-21T14:12:18.000Z</time>
      </trkpt>
      <trkpt lat="47.75337" lon="-3.35285">
        <ele>1.2</ele>
        <time>2020-08-21T14:12:19.000Z</time>
      </trkpt>
      <trkpt lat="47.75337" lon="-3.35285">
        <ele>1.2</ele>
        <time>2020-08-21T14:12:20.000Z</time>
      </trkpt>
      <trkpt lat="47.75337" lon="-3.35285">
        <ele>1.2</ele>
        <time>2020-08-21T14:12:21.000Z</time>
      </trkpt>
      <trkpt lat="47.75337" lon="-3.35285">
        <ele>1.2</ele>
        <time>2020-08-21T14:12:22.000Z</time>
      </trkpt>
      <trkpt lat="47.75337" lon="-3.35285">
        <ele>1.2</ele>
        <time>2020-08-21T14:12:23.000Z</time>
      </trkpt>
      <trkpt lat="47.75337" lon="-3.35285">
        <ele>1.2</ele>
        <time>2020-08-21T14:12:24.000Z</time>
      </trkpt>
      <trkpt lat="47.75337" lon="-3.35285">
        <ele>1.2</ele>
        <time>2020-08-21T14:12:25.000Z</time>
      </trkpt>
      <trkpt lat="47.75337" lon="-3.35285">
        <ele>1.2</ele>
        <time>2020-08-21T14:12:26.000Z</time>
      </trkpt>
      <trkpt lat="47.75337" lon="-3.35285">
        <ele>1.2</ele>
        <time>2020-08-21T14:12:27.000Z</time>
      </trkpt>
      <trkpt lat="47.75337" lon="-3.35285">
        <ele>1.2</ele>
        <time>2020-08-21T14:12:28.000Z</time>
      </trkpt>
      <trkpt lat="47.75337" lon="-3.35285">
        <ele>1.2</ele>
        <time>2020-08-21T14:12:29.000Z</time>
      </trkpt>
      <trkpt lat="47.75337" lon="-3.35285">
        <ele>1.2</ele>
        <time>2020-08-21T14:12:30.000Z</time>
      </trkpt>
      <trkpt lat="47.75337" lon="-3.35285">
        <ele>1.2</ele>
        <time>2020-08-21T14:12:31.000Z</time>
      </trkpt>
      <trkpt lat="47.75337" lon="-3.35285">
        <ele>1.2</ele>
        <time>2020-08-21T14:12:32.000Z</time>
      </trkpt>
      <trkpt lat="47.75337" lon="-3.35285">
        <ele>1.2</ele>
        <time>2020-08-21T14:12:33.000Z</time>
      </trkpt>
      <trkpt lat="47.75337" lon="-3.35285">
        <ele>1.2</ele>
        <time>2020-08-21T14:12:34.000Z</time>
      </trkpt>
      <trkpt lat="47.75337" lon="-3.35285">
        <ele>1.2</ele>
        <time>2020-08-21T14:12:35.000Z</time>
      </trkpt>
      <trkpt lat="47.75337" lon="-3.35285">
        <ele>1.2</ele>
        <time>2020-08-21T14:12:36.000Z</time>
      </trkpt>
      <trkpt lat="47.75337" lon="-3.35285">
        <ele>1.2</ele>
        <time>2020-08-21T14:12:37.000Z</time>
      </trkpt>
      <trkpt lat="47.75337" lon="-3.35285">
        <ele>1.2</ele>
        <time>2020-08-21T14:12:38.000Z</time>
      </trkpt>
      <trkpt lat="47.75337" lon="-3.35285">
        <ele>1.2</ele>
        <time>2020-08-21T14:12:39.000Z</time>
      </trkpt>
      <trkpt lat="47.75337" lon="-3.35285">
        <ele>1.2</ele>
        <time>2020-08-21T14:12:40.000Z</time>
      </trkpt>
      <trkpt lat="47.75337" lon="-3.35285">
        <ele>1.2</ele>
        <time>2020-08-21T14:12:41.000Z</time>
      </trkpt>
      <trkpt lat="47.75337" lon="-3.35285">
        <ele>1.2</ele>
        <time>2020-08-21T14:12:42.000Z</time>
      </trkpt>
      <trkpt lat="47.75337" lon="-3.35285">
        <ele>1.2</ele>
        <time>2020-08-21T14:12:43.000Z</time>
      </trkpt>
      <trkpt lat="47.75337" lon="-3.35285">
        <ele>1.2</ele>
        <time>2020-08-21T14:12:44.000Z</time>
      </trkpt>
      <trkpt lat="47.75337" lon="-3.35285">
        <ele>1.2</ele>
        <time>2020-08-21T14:12:45.000Z</time>
      </trkpt>
      <trkpt lat="47.75337" lon="-3.35285">
        <ele>1.2</ele>
        <time>2020-08-21T14:12:46.000Z</time>
      </trkpt>
      <trkpt lat="47.75337" lon="-3.35285">
        <ele>1.2</ele>
        <time>2020-08-21T14:12:47.000Z</time>
      </trkpt>
      <trkpt lat="47.75337" lon="-3.35285">
        <ele>1.2</ele>
        <time>2020-08-21T14:12:48.000Z</time>
      </trkpt>
      <trkpt lat="47.75337" lon="-3.35285">
        <ele>1.2</ele>
        <time>2020-08-21T14:12:49.000Z</time>
      </trkpt>
      <trkpt lat="47.75337" lon="-3.35285">
        <ele>1.2</ele>
        <time>2020-08-21T14:12:50.000Z</time>
      </trkpt>
      <trkpt lat="47.75337" lon="-3.35285">
        <ele>1.2</ele>
        <time>2020-08-21T14:12:51.000Z</time>
      </trkpt>
      <trkpt lat="47.75337" lon="-3.35285">
        <ele>1.2</ele>
        <time>2020-08-21T14:12:52.000Z</time>
      </trkpt>
      <trkpt lat="47.75337" lon="-3.35285">
        <ele>1.2</ele>
        <time>2020-08-21T14:12:53.000Z</time>
      </trkpt>
      <trkpt lat="47.75337" lon="-3.35285">
        <ele>1.2</ele>
        <time>2020-08-21T14:12:54.000Z</time>
      </trkpt>
      <trkpt lat="47.75337" lon="-3.35285">
        <ele>1.2</ele>
        <time>2020-08-21T14:12:55.000Z</time>
      </trkpt>
      <trkpt lat="47.75337" lon="-3.35285">
        <ele>1.2</ele>
        <time>2020-08-21T14:12:56.000Z</time>
      </trkpt>
      <trkpt lat="47.75337" lon="-3.35285">
        <ele>1.2</ele>
        <time>2020-08-21T14:12:57.000Z</time>
      </trkpt>
      <trkpt lat="47.75337" lon="-3.35285">
        <ele>1.2</ele>
        <time>2020-08-21T14:12:58.000Z</time>
      </trkpt>
      <trkpt lat="47.75337" lon="-3.35285">
        <ele>1.2</ele>
        <time>2020-08-21T14:12:59.000Z</time>
      </trkpt>
      <trkpt lat="47.75337" lon="-3.35285">
        <ele>1.2</ele>
        <time>2020-08-21T14:13:00.000Z</time>
      </trkpt>
      <trkpt lat="47.75337" lon="-3.35285">
        <ele>1.2</ele>
        <time>2020-08-21T14:13:01.000Z</time>
      </trkpt>
      <trkpt lat="47.75337" lon="-3.35285">
        <ele>1.2</ele>
        <time>2020-08-21T14:13:02.000Z</time>
      </trkpt>
      <trkpt lat="47.75337" lon="-3.35285">
        <ele>1.2</ele>
        <time>2020-08-21T14:13:03.000Z</time>
      </trkpt>
      <trkpt lat="47.75337" lon="-3.35285">
        <ele>1.2</ele>
        <time>2020-08-21T14:13:04.000Z</time>
      </trkpt>
      <trkpt lat="47.75337" lon="-3.35285">
        <ele>1.2</ele>
        <time>2020-08-21T14:13:05.000Z</time>
      </trkpt>
      <trkpt lat="47.75337" lon="-3.35285">
        <ele>1.2</ele>
        <time>2020-08-21T14:13:06.000Z</time>
      </trkpt>
      <trkpt lat="47.75337" lon="-3.35285">
        <ele>1.2</ele>
        <time>2020-08-21T14:13:07.000Z</time>
      </trkpt>
      <trkpt lat="47.75337" lon="-3.35285">
        <ele>1.2</ele>
        <time>2020-08-21T14:13:08.000Z</time>
      </trkpt>
      <trkpt lat="47.75337" lon="-3.35285">
        <ele>1.2</ele>
        <time>2020-08-21T14:13:09.000Z</time>
      </trkpt>
      <trkpt lat="47.75337" lon="-3.35285">
        <ele>1.2</ele>
        <time>2020-08-21T14:13:10.000Z</time>
      </trkpt>
      <trkpt lat="47.75337" lon="-3.35285">
        <ele>1.2</ele>
        <time>2020-08-21T14:13:11.000Z</time>
      </trkpt>
      <trkpt lat="47.75337" lon="-3.35285">
        <ele>1.2</ele>
        <time>2020-08-21T14:13:12.000Z</time>
      </trkpt>
      <trkpt lat="47.75337" lon="-3.35285">
        <ele>1.2</ele>
        <time>2020-08-21T14:13:13.000Z</time>
      </trkpt>
      <trkpt lat="47.75337" lon="-3.35285">
        <ele>1.2</ele>
        <time>2020-08-21T14:13:14.000Z</time>
      </trkpt>
      <trkpt lat="47.75337" lon="-3.35285">
        <ele>1.2</ele>
        <time>2020-08-21T14:13:15.000Z</time>
      </trkpt>
      <trkpt lat="47.75337" lon="-3.35285">
        <ele>1.2</ele>
        <time>2020-08-21T14:13:16.000Z</time>
      </trkpt>
      <trkpt lat="47.75337" lon="-3.35285">
        <ele>1.2</ele>
        <time>2020-08-21T14:13:17.000Z</time>
      </trkpt>
      <trkpt lat="47.75337" lon="-3.35285">
        <ele>1.2</ele>
        <time>2020-08-21T14:13:18.000Z</time>
      </trkpt>
      <trkpt lat="47.75337" lon="-3.35285">
        <ele>1.2</ele>
        <time>2020-08-21T14:13:19.000Z</time>
      </trkpt>
      <trkpt lat="47.75337" lon="-3.35285">
        <ele>1.2</ele>
        <time>2020-08-21T14:13:20.000Z</time>
      </trkpt>
      <trkpt lat="47.75337" lon="-3.35285">
        <ele>1.2</ele>
        <time>2020-08-21T14:13:21.000Z</time>
      </trkpt>
      <trkpt lat="47.75337" lon="-3.35285">
        <ele>1.2</ele>
        <time>2020-08-21T14:13:22.000Z</time>
      </trkpt>
      <trkpt lat="47.75337" lon="-3.35285">
        <ele>1.2</ele>
        <time>2020-08-21T14:13:23.000Z</time>
      </trkpt>
      <trkpt lat="47.75337" lon="-3.35285">
        <ele>1.2</ele>
        <time>2020-08-21T14:13:24.000Z</time>
      </trkpt>
      <trkpt lat="47.75337" lon="-3.35285">
        <ele>1.2</ele>
        <time>2020-08-21T14:13:25.000Z</time>
      </trkpt>
      <trkpt lat="47.75337" lon="-3.35285">
        <ele>1.2</ele>
        <time>2020-08-21T14:13:26.000Z</time>
      </trkpt>
      <trkpt lat="47.75337" lon="-3.35285">
        <ele>1.2</ele>
        <time>2020-08-21T14:13:27.000Z</time>
      </trkpt>
      <trkpt lat="47.75337" lon="-3.35285">
        <ele>1.2</ele>
        <time>2020-08-21T14:13:28.000Z</time>
      </trkpt>
      <trkpt lat="47.75337" lon="-3.35285">
        <ele>1.2</ele>
        <time>2020-08-21T14:13:29.000Z</time>
      </trkpt>
      <trkpt lat="47.75337" lon="-3.35285">
        <ele>1.2</ele>
        <time>2020-08-21T14:13:30.000Z</time>
      </trkpt>
      <trkpt lat="47.75337" lon="-3.35285">
        <ele>1.2</ele>
        <time>2020-08-21T14:13:31.000Z</time>
      </trkpt>
      <trkpt lat="47.75337" lon="-3.35285">
        <ele>1.2</ele>
        <time>2020-08-21T14:13:32.000Z</time>
      </trkpt>
      <trkpt lat="47.75337" lon="-3.35285">
        <ele>1.2</ele>
        <time>2020-08-21T14:13:33.000Z</time>
      </trkpt>
      <trkpt lat="47.75337" lon="-3.35285">
        <ele>1.2</ele>
        <time>2020-08-21T14:13:34.000Z</time>
      </trkpt>
      <trkpt lat="47.75337" lon="-3.35285">
        <ele>1.2</ele>
        <time>2020-08-21T14:13:35.000Z</time>
      </trkpt>
      <trkpt lat="47.75337" lon="-3.35285">
        <ele>1.2</ele>
        <time>2020-08-21T14:13:36.000Z</time>
      </trkpt>
      <trkpt lat="47.75337" lon="-3.35285">
        <ele>1.2</ele>
        <time>2020-08-21T14:13:37.000Z</time>
      </trkpt>
      <trkpt lat="47.75337" lon="-3.35285">
        <ele>1.2</ele>
        <time>2020-08-21T14:13:38.000Z</time>
      </trkpt>
      <trkpt lat="47.75337" lon="-3.35285">
        <ele>1.2</ele>
        <time>2020-08-21T14:13:39.000Z</time>
      </trkpt>
      <trkpt lat="47.75337" lon="-3.35285">
        <ele>1.2</ele>
        <time>2020-08-21T14:13:40.000Z</time>
      </trkpt>
      <trkpt lat="47.75337" lon="-3.35285">
        <ele>1.2</ele>
        <time>2020-08-21T14:13:41.000Z</time>
      </trkpt>
      <trkpt lat="47.75337" lon="-3.35285">
        <ele>1.2</ele>
        <time>2020-08-21T14:13:42.000Z</time>
      </trkpt>
      <trkpt lat="47.75337" lon="-3.35285">
        <ele>1.2</ele>
        <time>2020-08-21T14:13:43.000Z</time>
      </trkpt>
      <trkpt lat="47.75337" lon="-3.35285">
        <ele>1.2</ele>
        <time>2020-08-21T14:13:44.000Z</time>
      </trkpt>
      <trkpt lat="47.75337" lon="-3.35285">
        <ele>1.2</ele>
        <time>2020-08-21T14:13:45.000Z</time>
      </trkpt>
      <trkpt lat="47.75337" lon="-3.35285">
        <ele>1.2</ele>
        <time>2020-08-21T14:13:46.000Z</time>
      </trkpt>
      <trkpt lat="47.75337" lon="-3.35285">
        <ele>1.2</ele>
        <time>2020-08-21T14:13:47.000Z</time>
      </trkpt>
      <trkpt lat="47.75337" lon="-3.35285">
        <ele>1.2</ele>
        <time>2020-08-21T14:13:48.000Z</time>
      </trkpt>
      <trkpt lat="47.75337" lon="-3.35285">
        <ele>1.2</ele>
        <time>2020-08-21T14:13:49.000Z</time>
      </trkpt>
      <trkpt lat="47.75337" lon="-3.35285">
        <ele>1.2</ele>
        <time>2020-08-21T14:13:50.000Z</time>
      </trkpt>
      <trkpt lat="47.75337" lon="-3.35285">
        <ele>1.2</ele>
        <time>2020-08-21T14:13:51.000Z</time>
      </trkpt>
      <trkpt lat="47.75337" lon="-3.35285">
        <ele>1.2</ele>
        <time>2020-08-21T14:13:52.000Z</time>
      </trkpt>
      <trkpt lat="47.75337" lon="-3.35285">
        <ele>1.2</ele>
        <time>2020-08-21T14:13:53.000Z</time>
      </trkpt>
      <trkpt lat="47.75337" lon="-3.35285">
        <ele>1.2</ele>
        <time>2020-08-21T14:13:54.000Z</time>
      </trkpt>
      <trkpt lat="47.75337" lon="-3.35285">
        <ele>1.2</ele>
        <time>2020-08-21T14:13:55.000Z</time>
      </trkpt>
      <trkpt lat="47.75337" lon="-3.35285">
        <ele>1.2</ele>
        <time>2020-08-21T14:13:56.000Z</time>
      </trkpt>
      <trkpt lat="47.75337" lon="-3.35285">
        <ele>1.2</ele>
        <time>2020-08-21T14:13:57.000Z</time>
      </trkpt>
      <trkpt lat="47.75337" lon="-3.35285">
        <ele>1.2</ele>
        <time>2020-08-21T14:13:58.000Z</time>
      </trkpt>
      <trkpt lat="47.75337" lon="-3.35285">
        <ele>1.2</ele>
        <time>2020-08-21T14:13:59.000Z</time>
      </trkpt>
      <trkpt lat="47.75337" lon="-3.35285">
        <ele>1.2</ele>
        <time>2020-08-21T14:14:00.000Z</time>
      </trkpt>
      <trkpt lat="47.75337" lon="-3.35285">
        <ele>1.2</ele>
        <time>2020-08-21T14:14:01.000Z</time>
      </trkpt>
      <trkpt lat="47.75337" lon="-3.35285">
        <ele>1.2</ele>
        <time>2020-08-21T14:14:02.000Z</time>
      </trkpt>
      <trkpt lat="47.75337" lon="-3.35285">
        <ele>1.2</ele>
        <time>2020-08-21T14:14:03.000Z</time>
      </trkpt>
      <trkpt lat="47.75337" lon="-3.35285">
        <ele>1.2</ele>
        <time>2020-08-21T14:14:04.000Z</time>
      </trkpt>
      <trkpt lat="47.75337" lon="-3.35285">
        <ele>1.2</ele>
        <time>2020-08-21T14:14:05.000Z</time>
      </trkpt>
      <trkpt lat="47.75337" lon="-3.35285">
        <ele>1.2</ele>
        <time>2020-08-21T14:14:06.000Z</time>
      </trkpt>
      <trkpt lat="47.75337" lon="-3.35285">
        <ele>1.2</ele>
        <time>2020-08-21T14:14:07.000Z</time>
      </trkpt>
      <trkpt lat="47.75337" lon="-3.35285">
        <ele>1.2</ele>
        <time>2020-08-21T14:14:08.000Z</time>
      </trkpt>
      <trkpt lat="47.75337" lon="-3.35285">
        <ele>1.2</ele>
        <time>2020-08-21T14:14:09.000Z</time>
      </trkpt>
      <trkpt lat="47.75337" lon="-3.35285">
        <ele>1.2</ele>
        <time>2020-08-21T14:14:10.000Z</time>
      </trkpt>
      <trkpt lat="47.75337" lon="-3.35285">
        <ele>1.2</ele>
        <time>2020-08-21T14:14:11.000Z</time>
      </trkpt>
      <trkpt lat="47.75337" lon="-3.35285">
        <ele>1.2</ele>
        <time>2020-08-21T14:14:12.000Z</time>
      </trkpt>
      <trkpt lat="47.75337" lon="-3.35285">
        <ele>1.2</ele>
        <time>2020-08-21T14:14:13.000Z</time>
      </trkpt>
      <trkpt lat="47.75337" lon="-3.35285">
        <ele>1.2</ele>
        <time>2020-08-21T14:14:14.000Z</time>
      </trkpt>
      <trkpt lat="47.75337" lon="-3.35285">
        <ele>1.2</ele>
        <time>2020-08-21T14:14:15.000Z</time>
      </trkpt>
      <trkpt lat="47.75337" lon="-3.35285">
        <ele>1.2</ele>
        <time>2020-08-21T14:14:16.000Z</time>
      </trkpt>
      <trkpt lat="47.75337" lon="-3.35285">
        <ele>1.2</ele>
        <time>2020-08-21T14:14:17.000Z</time>
      </trkpt>
      <trkpt lat="47.75337" lon="-3.35285">
        <ele>1.2</ele>
        <time>2020-08-21T14:14:18.000Z</time>
      </trkpt>
      <trkpt lat="47.75337" lon="-3.35285">
        <ele>1.2</ele>
        <time>2020-08-21T14:14:19.000Z</time>
      </trkpt>
      <trkpt lat="47.75337" lon="-3.35285">
        <ele>1.2</ele>
        <time>2020-08-21T14:14:20.000Z</time>
      </trkpt>
      <trkpt lat="47.75337" lon="-3.35285">
        <ele>1.2</ele>
        <time>2020-08-21T14:14:21.000Z</time>
      </trkpt>
      <trkpt lat="47.75337" lon="-3.35285">
        <ele>1.2</ele>
        <time>2020-08-21T14:14:22.000Z</time>
      </trkpt>
      <trkpt lat="47.75337" lon="-3.35285">
        <ele>1.2</ele>
        <time>2020-08-21T14:14:23.000Z</time>
      </trkpt>
      <trkpt lat="47.75337" lon="-3.35285">
        <ele>1.2</ele>
        <time>2020-08-21T14:14:24.000Z</time>
      </trkpt>
      <trkpt lat="47.75337" lon="-3.35285">
        <ele>1.2</ele>
        <time>2020-08-21T14:14:25.000Z</time>
      </trkpt>
      <trkpt lat="47.75337" lon="-3.35285">
        <ele>1.2</ele>
        <time>2020-08-21T14:14:26.000Z</time>
      </trkpt>
      <trkpt lat="47.75337" lon="-3.35285">
        <ele>1.2</ele>
        <time>2020-08-21T14:14:27.000Z</time>
      </trkpt>
      <trkpt lat="47.75337" lon="-3.35285">
        <ele>1.2</ele>
        <time>2020-08-21T14:14:28.000Z</time>
      </trkpt>
      <trkpt lat="47.75337" lon="-3.35285">
        <ele>1.2</ele>
        <time>2020-08-21T14:14:29.000Z</time>
      </trkpt>
      <trkpt lat="47.75337" lon="-3.35285">
        <ele>1.2</ele>
        <time>2020-08-21T14:14:30.000Z</time>
      </trkpt>
      <trkpt lat="47.75337" lon="-3.35285">
        <ele>1.2</ele>
        <time>2020-08-21T14:14:31.000Z</time>
      </trkpt>
      <trkpt lat="47.75337" lon="-3.35285">
        <ele>1.2</ele>
        <time>2020-08-21T14:14:32.000Z</time>
      </trkpt>
      <trkpt lat="47.75337" lon="-3.35285">
        <ele>1.2</ele>
        <time>2020-08-21T14:14:33.000Z</time>
      </trkpt>
      <trkpt lat="47.75337" lon="-3.35285">
        <ele>1.2</ele>
        <time>2020-08-21T14:14:34.000Z</time>
      </trkpt>
      <trkpt lat="47.75337" lon="-3.35285">
        <ele>1.2</ele>
        <time>2020-08-21T14:14:35.000Z</time>
      </trkpt>
      <trkpt lat="47.75337" lon="-3.35285">
        <ele>1.2</ele>
        <time>2020-08-21T14:14:36.000Z</time>
      </trkpt>
      <trkpt lat="47.75337" lon="-3.35285">
        <ele>1.2</ele>
        <time>2020-08-21T14:14:37.000Z</time>
      </trkpt>
      <trkpt lat="47.75337" lon="-3.35285">
        <ele>1.2</ele>
        <time>2020-08-21T14:14:38.000Z</time>
      </trkpt>
      <trkpt lat="47.75337" lon="-3.35285">
        <ele>1.2</ele>
        <time>2020-08-21T14:14:39.000Z</time>
      </trkpt>
      <trkpt lat="47.75337" lon="-3.35285">
        <ele>1.2</ele>
        <time>2020-08-21T14:14:40.000Z</time>
      </trkpt>
      <trkpt lat="47.75337" lon="-3.35285">
        <ele>1.2</ele>
        <time>2020-08-21T14:14:41.000Z</time>
      </trkpt>
      <trkpt lat="47.75337" lon="-3.35285">
        <ele>1.2</ele>
        <time>2020-08-21T14:14:42.000Z</time>
      </trkpt>
      <trkpt lat="47.75337" lon="-3.35285">
        <ele>1.2</ele>
        <time>2020-08-21T14:14:43.000Z</time>
      </trkpt>
      <trkpt lat="47.75337" lon="-3.35285">
        <ele>1.2</ele>
        <time>2020-08-21T14:14:44.000Z</time>
      </trkpt>
      <trkpt lat="47.75337" lon="-3.35285">
        <ele>1.2</ele>
        <time>2020-08-21T14:14:45.000Z</time>
      </trkpt>
      <trkpt lat="47.75337" lon="-3.35285">
        <ele>1.2</ele>
        <time>2020-08-21T14:14:46.000Z</time>
      </trkpt>
      <trkpt lat="47.75337" lon="-3.35285">
        <ele>1.2</ele>
        <time>2020-08-21T14:14:47.000Z</time>
      </trkpt>
      <trkpt lat="47.75337" lon="-3.35285">
        <ele>1.2</ele>
        <time>2020-08-21T14:14:48.000Z</time>
      </trkpt>
      <trkpt lat="47.75337" lon="-3.35285">
        <ele>1.2</ele>
        <time>2020-08-21T14:14:49.000Z</time>
      </trkpt>
      <trkpt lat="47.75337" lon="-3.35285">
        <ele>1.2</ele>
        <time>2020-08-21T14:14:50.000Z</time>
      </trkpt>
      <trkpt lat="47.75337" lon="-3.35285">
        <ele>1.2</ele>
        <time>2020-08-21T14:14:51.000Z</time>
      </trkpt>
      <trkpt lat="47.75337" lon="-3.35285">
        <ele>1.2</ele>
        <time>2020-08-21T14:14:52.000Z</time>
      </trkpt>
      <trkpt lat="47.75337" lon="-3.35285">
        <ele>1.2</ele>
        <time>2020-08-21T14:14:53.000Z</time>
      </trkpt>
      <trkpt lat="47.75337" lon="-3.35285">
        <ele>1.2</ele>
        <time>2020-08-21T14:14:54.000Z</time>
      </trkpt>
      <trkpt lat="47.75337" lon="-3.35285">
        <ele>1.2</ele>
        <time>2020-08-21T14:14:55.000Z</time>
      </trkpt>
      <trkpt lat="47.75337" lon="-3.35285">
        <ele>1.2</ele>
        <time>2020-08-21T14:14:56.000Z</time>
      </trkpt>
      <trkpt lat="47.75337" lon="-3.35285">
        <ele>1.2</ele>
        <time>2020-08-21T14:14:57.000Z</time>
      </trkpt>
      <trkpt lat="47.75337" lon="-3.35285">
        <ele>1.2</ele>
        <time>2020-08-21T14:14:58.000Z</time>
      </trkpt>
      <trkpt lat="47.75337" lon="-3.35285">
        <ele>1.2</ele>
        <time>2020-08-21T14:14:59.000Z</time>
      </trkpt>
      <trkpt lat="47.75337" lon="-3.35285">
        <ele>1.2</ele>
        <time>2020-08-21T14:15:00.000Z</time>
      </trkpt>
      <trkpt lat="47.75337" lon="-3.35285">
        <ele>1.2</ele>
        <time>2020-08-21T14:15:01.000Z</time>
      </trkpt>
      <trkpt lat="47.75337" lon="-3.35285">
        <ele>1.2</ele>
        <time>2020-08-21T14:15:02.000Z</time>
      </trkpt>
      <trkpt lat="47.75337" lon="-3.35285">
        <ele>1.2</ele>
        <time>2020-08-21T14:15:03.000Z</time>
      </trkpt>
      <trkpt lat="47.75337" lon="-3.35285">
        <ele>1.2</ele>
        <time>2020-08-21T14:15:04.000Z</time>
      </trkpt>
      <trkpt lat="47.75337" lon="-3.35285">
        <ele>1.2</ele>
        <time>2020-08-21T14:15:05.000Z</time>
      </trkpt>
      <trkpt lat="47.75337" lon="-3.35285">
        <ele>1.2</ele>
        <time>2020-08-21T14:15:06.000Z</time>
      </trkpt>
      <trkpt lat="47.75337" lon="-3.35285">
        <ele>1.2</ele>
        <time>2020-08-21T14:15:07.000Z</time>
      </trkpt>
      <trkpt lat="47.75337" lon="-3.35285">
        <ele>1.2</ele>
        <time>2020-08-21T14:15:08.000Z</time>
      </trkpt>
      <trkpt lat="47.75337" lon="-3.35285">
        <ele>1.2</ele>
        <time>2020-08-21T14:15:09.000Z</time>
      </trkpt>
      <trkpt lat="47.75337" lon="-3.35285">
        <ele>1.2</ele>
        <time>2020-08-21T14:15:10.000Z</time>
      </trkpt>
      <trkpt lat="47.75337" lon="-3.35285">
        <ele>1.2</ele>
        <time>2020-08-21T14:15:11.000Z</time>
      </trkpt>
      <trkpt lat="47.75337" lon="-3.35285">
        <ele>1.2</ele>
        <time>2020-08-21T14:15:12.000Z</time>
      </trkpt>
      <trkpt lat="47.75337" lon="-3.35285">
        <ele>1.2</ele>
        <time>2020-08-21T14:15:13.000Z</time>
      </trkpt>
      <trkpt lat="47.75337" lon="-3.35285">
        <ele>1.2</ele>
        <time>2020-08-21T14:15:14.000Z</time>
      </trkpt>
      <trkpt lat="47.75337" lon="-3.35285">
        <ele>1.2</ele>
        <time>2020-08-21T14:15:15.000Z</time>
      </trkpt>
      <trkpt lat="47.75337" lon="-3.35285">
        <ele>1.2</ele>
        <time>2020-08-21T14:15:16.000Z</time>
      </trkpt>
      <trkpt lat="47.75337" lon="-3.35285">
        <ele>1.2</ele>
        <time>2020-08-21T14:15:17.000Z</time>
      </trkpt>
      <trkpt lat="47.75337" lon="-3.35285">
        <ele>1.2</ele>
        <time>2020-08-21T14:15:18.000Z</time>
      </trkpt>
      <trkpt lat="47.75337" lon="-3.35285">
        <ele>1.2</ele>
        <time>2020-08-21T14:15:19.000Z</time>
      </trkpt>
      <trkpt lat="47.75337" lon="-3.35285">
        <ele>1.2</ele>
        <time>2020-08-21T14:15:20.000Z</time>
      </trkpt>
      <trkpt lat="47.75337" lon="-3.35285">
        <ele>1.2</ele>
        <time>2020-08-21T14:15:21.000Z</time>
      </trkpt>
      <trkpt lat="47.75337" lon="-3.35285">
        <ele>1.2</ele>
        <time>2020-08-21T14:15:22.000Z</time>
      </trkpt>
      <trkpt lat="47.75337" lon="-3.35285">
        <ele>1.2</ele>
        <time>2020-08-21T14:15:23.000Z</time>
      </trkpt>
      <trkpt lat="47.75337" lon="-3.35285">
        <ele>1.2</ele>
        <time>2020-08-21T14:15:24.000Z</time>
      </trkpt>
      <trkpt lat="47.75337" lon="-3.35285">
        <ele>1.2</ele>
        <time>2020-08-21T14:15:25.000Z</time>
      </trkpt>
      <trkpt lat="47.75337" lon="-3.35285">
        <ele>1.2</ele>
        <time>2020-08-21T14:15:26.000Z</time>
      </trkpt>
      <trkpt lat="47.75337" lon="-3.35285">
        <ele>1.2</ele>
        <time>2020-08-21T14:15:27.000Z</time>
      </trkpt>
      <trkpt lat="47.75337" lon="-3.35285">
        <ele>1.2</ele>
        <time>2020-08-21T14:15:28.000Z</time>
      </trkpt>
      <trkpt lat="47.75337" lon="-3.35285">
        <ele>1.2</ele>
        <time>2020-08-21T14:15:29.000Z</time>
      </trkpt>
      <trkpt lat="47.75337" lon="-3.35285">
        <ele>1.2</ele>
        <time>2020-08-21T14:15:30.000Z</time>
      </trkpt>
      <trkpt lat="47.75337" lon="-3.35285">
        <ele>1.2</ele>
        <time>2020-08-21T14:15:31.000Z</time>
      </trkpt>
      <trkpt lat="47.75337" lon="-3.35285">
        <ele>1.2</ele>
        <time>2020-08-21T14:15:32.000Z</time>
      </trkpt>
      <trkpt lat="47.75337" lon="-3.35285">
        <ele>1.2</ele>
        <time>2020-08-21T14:15:33.000Z</time>
      </trkpt>
      <trkpt lat="47.75337" lon="-3.35285">
        <ele>1.2</ele>
        <time>2020-08-21T14:15:34.000Z</time>
      </trkpt>
      <trkpt lat="47.75337" lon="-3.35285">
        <ele>1.2</ele>
        <time>2020-08-21T14:15:35.000Z</time>
      </trkpt>
      <trkpt lat="47.75337" lon="-3.35285">
        <ele>1.2</ele>
        <time>2020-08-21T14:15:36.000Z</time>
      </trkpt>
      <trkpt lat="47.75337" lon="-3.35285">
        <ele>1.2</ele>
        <time>2020-08-21T14:15:37.000Z</time>
      </trkpt>
      <trkpt lat="47.75337" lon="-3.35285">
        <ele>1.2</ele>
        <time>2020-08-21T14:15:38.000Z</time>
      </trkpt>
      <trkpt lat="47.75337" lon="-3.35285">
        <ele>1.2</ele>
        <time>2020-08-21T14:15:39.000Z</time>
      </trkpt>
      <trkpt lat="47.75337" lon="-3.35285">
        <ele>1.2</ele>
        <time>2020-08-21T14:15:40.000Z</time>
      </trkpt>
      <trkpt lat="47.75337" lon="-3.35285">
        <ele>1.2</ele>
        <time>2020-08-21T14:15:41.000Z</time>
      </trkpt>
      <trkpt lat="47.75337" lon="-3.35285">
        <ele>1.2</ele>
        <time>2020-08-21T14:15:42.000Z</time>
      </trkpt>
      <trkpt lat="47.75337" lon="-3.35285">
        <ele>1.2</ele>
        <time>2020-08-21T14:15:43.000Z</time>
      </trkpt>
      <trkpt lat="47.75337" lon="-3.35285">
        <ele>1.2</ele>
        <time>2020-08-21T14:15:44.000Z</time>
      </trkpt>
      <trkpt lat="47.75337" lon="-3.35285">
        <ele>1.2</ele>
        <time>2020-08-21T14:15:45.000Z</time>
      </trkpt>
      <trkpt lat="47.75337" lon="-3.35285">
        <ele>1.2</ele>
        <time>2020-08-21T14:15:46.000Z</time>
      </trkpt>
      <trkpt lat="47.75337" lon="-3.35285">
        <ele>1.2</ele>
        <time>2020-08-21T14:15:47.000Z</time>
      </trkpt>
      <trkpt lat="47.75337" lon="-3.35285">
        <ele>1.2</ele>
        <time>2020-08-21T14:15:48.000Z</time>
      </trkpt>
      <trkpt lat="47.75337" lon="-3.35285">
        <ele>1.2</ele>
        <time>2020-08-21T14:15:49.000Z</time>
      </trkpt>
      <trkpt lat="47.75337" lon="-3.35285">
        <ele>1.2</ele>
        <time>2020-08-21T14:15:50.000Z</time>
      </trkpt>
      <trkpt lat="47.75337" lon="-3.35285">
        <ele>1.2</ele>
        <time>2020-08-21T14:15:51.000Z</time>
      </trkpt>
      <trkpt lat="47.75337" lon="-3.35285">
        <ele>1.2</ele>
        <time>2020-08-21T14:15:52.000Z</time>
      </trkpt>
      <trkpt lat="47.75337" lon="-3.35285">
        <ele>1.2</ele>
        <time>2020-08-21T14:15:53.000Z</time>
      </trkpt>
      <trkpt lat="47.75337" lon="-3.35285">
        <ele>1.2</ele>
        <time>2020-08-21T14:15:54.000Z</time>
      </trkpt>
      <trkpt lat="47.75337" lon="-3.35285">
        <ele>1.2</ele>
        <time>2020-08-21T14:15:55.000Z</time>
      </trkpt>
      <trkpt lat="47.75337" lon="-3.35285">
        <ele>1.2</ele>
        <time>2020-08-21T14:15:56.000Z</time>
      </trkpt>
      <trkpt lat="47.75337" lon="-3.35285">
        <ele>1.2</ele>
        <time>2020-08-21T14:15:57.000Z</time>
      </trkpt>
      <trkpt lat="47.75337" lon="-3.35285">
        <ele>1.2</ele>
        <time>2020-08-21T14:15:58.000Z</time>
      </trkpt>
      <trkpt lat="47.75337" lon="-3.35285">
        <ele>1.2</ele>
        <time>2020-08-21T14:15:59.000Z</time>
      </trkpt>
      <trkpt lat="47.75337" lon="-3.35285">
        <ele>1.2</ele>
        <time>2020-08-21T14:16:00.000Z</time>
      </trkpt>
      <trkpt lat="47.75337" lon="-3.35285">
        <ele>1.2</ele>
        <time>2020-08-21T14:16:01.000Z</time>
      </trkpt>
      <trkpt lat="47.75337" lon="-3.35285">
        <ele>1.2</ele>
        <time>2020-08-21T14:16:02.000Z</time>
      </trkpt>
      <trkpt lat="47.75337" lon="-3.35285">
        <ele>1.2</ele>
        <time>2020-08-21T14:16:03.000Z</time>
      </trkpt>
      <trkpt lat="47.75337" lon="-3.35285">
        <ele>1.2</ele>
        <time>2020-08-21T14:16:04.000Z</time>
      </trkpt>
      <trkpt lat="47.75337" lon="-3.35285">
        <ele>1.2</ele>
        <time>2020-08-21T14:16:05.000Z</time>
      </trkpt>
      <trkpt lat="47.75337" lon="-3.35285">
        <ele>1.2</ele>
        <time>2020-08-21T14:16:06.000Z</time>
      </trkpt>
      <trkpt lat="47.75338" lon="-3.35285">
        <ele>1.2</ele>
        <time>2020-08-21T14:16:07.000Z</time>
      </trkpt>
      <trkpt lat="47.75338" lon="-3.35285">
        <ele>1.2</ele>
        <time>2020-08-21T14:16:08.000Z</time>
      </trkpt>
      <trkpt lat="47.75339" lon="-3.35286">
        <ele>1.2</ele>
        <time>2020-08-21T14:16:09.000Z</time>
      </trkpt>
      <trkpt lat="47.7534" lon="-3.35286">
        <ele>1.2</ele>
        <time>2020-08-21T14:16:10.000Z</time>
      </trkpt>
      <trkpt lat="47.75341" lon="-3.35287">
        <ele>1.2</ele>
        <time>2020-08-21T14:16:11.000Z</time>
      </trkpt>
      <trkpt lat="47.75341" lon="-3.35288">
        <ele>1.2</ele>
        <time>2020-08-21T14:16:12.000Z</time>
      </trkpt>
      <trkpt lat="47.75342" lon="-3.35289">
        <ele>1.3</ele>
        <time>2020-08-21T14:16:13.000Z</time>
      </trkpt>
      <trkpt lat="47.75342" lon="-3.3529">
        <ele>1.3</ele>
        <time>2020-08-21T14:16:14.000Z</time>
      </trkpt>
      <trkpt lat="47.75342" lon="-3.35292">
        <ele>1.3</ele>
        <time>2020-08-21T14:16:15.000Z</time>
      </trkpt>
      <trkpt lat="47.75343" lon="-3.35293">
        <ele>1.4</ele>
        <time>2020-08-21T14:16:16.000Z</time>
      </trkpt>
      <trkpt lat="47.75343" lon="-3.35295">
        <ele>1.4</ele>
        <time>2020-08-21T14:16:17.000Z</time>
      </trkpt>
      <trkpt lat="47.75343" lon="-3.35297">
        <ele>1.5</ele>
        <time>2020-08-21T14:16:18.000Z</time>
      </trkpt>
      <trkpt lat="47.75344" lon="-3.35298">
        <ele>1.5</ele>
        <time>2020-08-21T14:16:19.000Z</time>
      </trkpt>
      <trkpt lat="47.75345" lon="-3.353">
        <ele>1.5</ele>
        <time>2020-08-21T14:16:20.000Z</time>
      </trkpt>
      <trkpt lat="47.75345" lon="-3.35301">
        <ele>1.6</ele>
        <time>2020-08-21T14:16:21.000Z</time>
      </trkpt>
      <trkpt lat="47.75346" lon="-3.35302">
        <ele>1.6</ele>
        <time>2020-08-21T14:16:22.000Z</time>
      </trkpt>
      <trkpt lat="47.75347" lon="-3.35303">
        <ele>1.6</ele>
        <time>2020-08-21T14:16:23.000Z</time>
      </trkpt>
      <trkpt lat="47.75348" lon="-3.35304">
        <ele>1.6</ele>
        <time>2020-08-21T14:16:24.000Z</time>
      </trkpt>
      <trkpt lat="47.75349" lon="-3.35305">
        <ele>1.6</ele>
        <time>2020-08-21T14:16:25.000Z</time>
      </trkpt>
      <trkpt lat="47.7535" lon="-3.35305">
        <ele>1.6</ele>
        <time>2020-08-21T14:16:26.000Z</time>
      </trkpt>
      <trkpt lat="47.75351" lon="-3.35306">
        <ele>1.6</ele>
        <time>2020-08-21T14:16:27.000Z</time>
      </trkpt>
      <trkpt lat="47.75352" lon="-3.35306">
        <ele>1.6</ele>
        <time>2020-08-21T14:16:28.000Z</time>
      </trkpt>
      <trkpt lat="47.75353" lon="-3.35307">
        <ele>1.6</ele>
        <time>2020-08-21T14:16:29.000Z</time>
      </trkpt>
      <trkpt lat="47.75354" lon="-3.35307">
        <ele>1.5</ele>
        <time>2020-08-21T14:16:30.000Z</time>
      </trkpt>
      <trkpt lat="47.75355" lon="-3.35308">
        <ele>1.5</ele>
        <time>2020-08-21T14:16:31.000Z</time>
      </trkpt>
      <trkpt lat="47.75356" lon="-3.35308">
        <ele>1.5</ele>
        <time>2020-08-21T14:16:32.000Z</time>
      </trkpt>
      <trkpt lat="47.75357" lon="-3.35309">
        <ele>1.5</ele>
        <time>2020-08-21T14:16:33.000Z</time>
      </trkpt>
      <trkpt lat="47.75358" lon="-3.3531">
        <ele>1.5</ele>
        <time>2020-08-21T14:16:34.000Z</time>
      </trkpt>
      <trkpt lat="47.75359" lon="-3.35311">
        <ele>1.5</ele>
        <time>2020-08-21T14:16:35.000Z</time>
      </trkpt>
      <trkpt lat="47.7536" lon="-3.35312">
        <ele>1.5</ele>
        <time>2020-08-21T14:16:36.000Z</time>
      </trkpt>
      <trkpt lat="47.75361" lon="-3.35313">
        <ele>1.5</ele>
        <time>2020-08-21T14:16:37.000Z</time>
      </trkpt>
      <trkpt lat="47.75362" lon="-3.35314">
        <ele>1.5</ele>
        <time>2020-08-21T14:16:38.000Z</time>
      </trkpt>
      <trkpt lat="47.75363" lon="-3.35315">
        <ele>1.5</ele>
        <time>2020-08-21T14:16:39.000Z</time>
      </trkpt>
      <trkpt lat="47.75364" lon="-3.35315">
        <ele>1.5</ele>
        <time>2020-08-21T14:16:40.000Z</time>
      </trkpt>
      <trkpt lat="47.75365" lon="-3.35316">
        <ele>1.5</ele>
        <time>2020-08-21T14:16:41.000Z</time>
      </trkpt>
      <trkpt lat="47.75366" lon="-3.35317">
        <ele>1.5</ele>
        <time>2020-08-21T14:16:42.000Z</time>
      </trkpt>
      <trkpt lat="47.75367" lon="-3.35317">
        <ele>1.4</ele>
        <time>2020-08-21T14:16:43.000Z</time>
      </trkpt>
      <trkpt lat="47.75368" lon="-3.35318">
        <ele>1.4</ele>
        <time>2020-08-21T14:16:44.000Z</time>
      </trkpt>
      <trkpt lat="47.7537" lon="-3.35319">
        <ele>1.4</ele>
        <time>2020-08-21T14:16:45.000Z</time>
      </trkpt>
      <trkpt lat="47.75371" lon="-3.35319">
        <ele>1.4</ele>
        <time>2020-08-21T14:16:46.000Z</time>
      </trkpt>
      <trkpt lat="47.75372" lon="-3.3532">
        <ele>1.3</ele>
        <time>2020-08-21T14:16:47.000Z</time>
      </trkpt>
      <trkpt lat="47.75373" lon="-3.3532">
        <ele>1.3</ele>
        <time>2020-08-21T14:16:48.000Z</time>
      </trkpt>
      <trkpt lat="47.75374" lon="-3.35321">
        <ele>1.3</ele>
        <time>2020-08-21T14:16:49.000Z</time>
      </trkpt>
      <trkpt lat="47.75375" lon="-3.35321">
        <ele>1.3</ele>
        <time>2020-08-21T14:16:50.000Z</time>
      </trkpt>
      <trkpt lat="47.75376" lon="-3.35322">
        <ele>1.3</ele>
        <time>2020-08-21T14:16:51.000Z</time>
      </trkpt>
      <trkpt lat="47.75377" lon="-3.35322">
        <ele>1.2</ele>
        <time>2020-08-21T14:16:52.000Z</time>
      </trkpt>
      <trkpt lat="47.75378" lon="-3.35323">
        <ele>1.2</ele>
        <time>2020-08-21T14:16:53.000Z</time>
      </trkpt>
      <trkpt lat="47.75379" lon="-3.35323">
        <ele>1.2</ele>
        <time>2020-08-21T14:16:54.000Z</time>
      </trkpt>
      <trkpt lat="47.7538" lon="-3.35323">
        <ele>1.2</ele>
        <time>2020-08-21T14:16:55.000Z</time>
      </trkpt>
      <trkpt lat="47.75381" lon="-3.35324">
        <ele>1.1</ele>
        <time>2020-08-21T14:16:56.000Z</time>
      </trkpt>
      <trkpt lat="47.75382" lon="-3.35324">
        <ele>1.1</ele>
        <time>2020-08-21T14:16:57.000Z</time>
      </trkpt>
      <trkpt lat="47.75383" lon="-3.35325">
        <ele>1.1</ele>
        <time>2020-08-21T14:16:58.000Z</time>
      </trkpt>
      <trkpt lat="47.75384" lon="-3.35325">
        <ele>1.1</ele>
        <time>2020-08-21T14:16:59.000Z</time>
      </trkpt>
      <trkpt lat="47.75385" lon="-3.35326">
        <ele>1</ele>
        <time>2020-08-21T14:17:00.000Z</time>
      </trkpt>
      <trkpt lat="47.75386" lon="-3.35326">
        <ele>1</ele>
        <time>2020-08-21T14:17:01.000Z</time>
      </trkpt>
      <trkpt lat="47.75387" lon="-3.35326">
        <ele>1</ele>
        <time>2020-08-21T14:17:02.000Z</time>
      </trkpt>
      <trkpt lat="47.75388" lon="-3.35327">
        <ele>1</ele>
        <time>2020-08-21T14:17:03.000Z</time>
      </trkpt>
      <trkpt lat="47.75389" lon="-3.35327">
        <ele>0.9</ele>
        <time>2020-08-21T14:17:04.000Z</time>
      </trkpt>
      <trkpt lat="47.7539" lon="-3.35328">
        <ele>0.9</ele>
        <time>2020-08-21T14:17:05.000Z</time>
      </trkpt>
      <trkpt lat="47.75391" lon="-3.35328">
        <ele>0.9</ele>
        <time>2020-08-21T14:17:06.000Z</time>
      </trkpt>
      <trkpt lat="47.75392" lon="-3.35328">
        <ele>0.8</ele>
        <time>2020-08-21T14:17:07.000Z</time>
      </trkpt>
      <trkpt lat="47.75393" lon="-3.35329">
        <ele>0.8</ele>
        <time>2020-08-21T14:17:08.000Z</time>
      </trkpt>
      <trkpt lat="47.75394" lon="-3.35329">
        <ele>0.8</ele>
        <time>2020-08-21T14:17:09.000Z</time>
      </trkpt>
      <trkpt lat="47.75395" lon="-3.3533">
        <ele>0.7</ele>
        <time>2020-08-21T14:17:10.000Z</time>
      </trkpt>
      <trkpt lat="47.75396" lon="-3.3533">
        <ele>0.7</ele>
        <time>2020-08-21T14:17:11.000Z</time>
      </trkpt>
      <trkpt lat="47.75397" lon="-3.35331">
        <ele>0.7</ele>
        <time>2020-08-21T14:17:12.000Z</time>
      </trkpt>
      <trkpt lat="47.75398" lon="-3.35331">
        <ele>0.6</ele>
        <time>2020-08-21T14:17:13.000Z</time>
      </trkpt>
      <trkpt lat="47.75399" lon="-3.35332">
        <ele>0.6</ele>
        <time>2020-08-21T14:17:14.000Z</time>
      </trkpt>
      <trkpt lat="47.754" lon="-3.35333">
        <ele>0.6</ele>
        <time>2020-08-21T14:17:15.000Z</time>
      </trkpt>
      <trkpt lat="47.75401" lon="-3.35333">
        <ele>0.6</ele>
        <time>2020-08-21T14:17:16.000Z</time>
      </trkpt>
      <trkpt lat="47.75402" lon="-3.35334">
        <ele>0.5</ele>
        <time>2020-08-21T14:17:17.000Z</time>
      </trkpt>
      <trkpt lat="47.75403" lon="-3.35335">
        <ele>0.5</ele>
        <time>2020-08-21T14:17:18.000Z</time>
      </trkpt>
      <trkpt lat="47.75404" lon="-3.35335">
        <ele>0.5</ele>
        <time>2020-08-21T14:17:19.000Z</time>
      </trkpt>
      <trkpt lat="47.75405" lon="-3.35336">
        <ele>0.5</ele>
        <time>2020-08-21T14:17:20.000Z</time>
      </trkpt>
      <trkpt lat="47.75406" lon="-3.35337">
        <ele>0.5</ele>
        <time>2020-08-21T14:17:21.000Z</time>
      </trkpt>
      <trkpt lat="47.75407" lon="-3.35338">
        <ele>0.4</ele>
        <time>2020-08-21T14:17:22.000Z</time>
      </trkpt>
      <trkpt lat="47.75408" lon="-3.35339">
        <ele>0.4</ele>
        <time>2020-08-21T14:17:23.000Z</time>
      </trkpt>
      <trkpt lat="47.75409" lon="-3.3534">
        <ele>0.4</ele>
        <time>2020-08-21T14:17:24.000Z</time>
      </trkpt>
      <trkpt lat="47.7541" lon="-3.3534">
        <ele>0.4</ele>
        <time>2020-08-21T14:17:25.000Z</time>
      </trkpt>
      <trkpt lat="47.7541" lon="-3.35341">
        <ele>0.4</ele>
        <time>2020-08-21T14:17:26.000Z</time>
      </trkpt>
      <trkpt lat="47.75411" lon="-3.35342">
        <ele>0.4</ele>
        <time>2020-08-21T14:17:27.000Z</time>
      </trkpt>
      <trkpt lat="47.75412" lon="-3.35343">
        <ele>0.4</ele>
        <time>2020-08-21T14:17:28.000Z</time>
      </trkpt>
      <trkpt lat="47.75413" lon="-3.35344">
        <ele>0.4</ele>
        <time>2020-08-21T14:17:29.000Z</time>
      </trkpt>
      <trkpt lat="47.75414" lon="-3.35345">
        <ele>0.4</ele>
        <time>2020-08-21T14:17:30.000Z</time>
      </trkpt>
      <trkpt lat="47.75415" lon="-3.35346">
        <ele>0.4</ele>
        <time>2020-08-21T14:17:31.000Z</time>
      </trkpt>
      <trkpt lat="47.75415" lon="-3.35347">
        <ele>0.4</ele>
        <time>2020-08-21T14:17:32.000Z</time>
      </trkpt>
      <trkpt lat="47.75416" lon="-3.35348">
        <ele>0.4</ele>
        <time>2020-08-21T14:17:33.000Z</time>
      </trkpt>
      <trkpt lat="47.75417" lon="-3.35349">
        <ele>0.4</ele>
        <time>2020-08-21T14:17:34.000Z</time>
      </trkpt>
      <trkpt lat="47.75418" lon="-3.3535">
        <ele>0.4</ele>
        <time>2020-08-21T14:17:35.000Z</time>
      </trkpt>
      <trkpt lat="47.75419" lon="-3.35351">
        <ele>0.4</ele>
        <time>2020-08-21T14:17:36.000Z</time>
      </trkpt>
      <trkpt lat="47.75419" lon="-3.35352">
        <ele>0.4</ele>
        <time>2020-08-21T14:17:37.000Z</time>
      </trkpt>
      <trkpt lat="47.7542" lon="-3.35353">
        <ele>0.5</ele>
        <time>2020-08-21T14:17:38.000Z</time>
      </trkpt>
      <trkpt lat="47.75421" lon="-3.35354">
        <ele>0.5</ele>
        <time>2020-08-21T14:17:39.000Z</time>
      </trkpt>
      <trkpt lat="47.75422" lon="-3.35355">
        <ele>0.5</ele>
        <time>2020-08-21T14:17:40.000Z</time>
      </trkpt>
      <trkpt lat="47.75423" lon="-3.35356">
        <ele>0.5</ele>
        <time>2020-08-21T14:17:41.000Z</time>
      </trkpt>
      <trkpt lat="47.75423" lon="-3.35357">
        <ele>0.5</ele>
        <time>2020-08-21T14:17:42.000Z</time>
      </trkpt>
      <trkpt lat="47.75424" lon="-3.35358">
        <ele>0.5</ele>
        <time>2020-08-21T14:17:43.000Z</time>
      </trkpt>
      <trkpt lat="47.75425" lon="-3.35359">
        <ele>0.6</ele>
        <time>2020-08-21T14:17:44.000Z</time>
      </trkpt>
      <trkpt lat="47.75426" lon="-3.3536">
        <ele>0.6</ele>
        <time>2020-08-21T14:17:45.000Z</time>
      </trkpt>
      <trkpt lat="47.75427" lon="-3.35361">
        <ele>0.6</ele>
        <time>2020-08-21T14:17:46.000Z</time>
      </trkpt>
      <trkpt lat="47.75427" lon="-3.35362">
        <ele>0.6</ele>
        <time>2020-08-21T14:17:47.000Z</time>
      </trkpt>
      <trkpt lat="47.75428" lon="-3.35363">
        <ele>0.6</ele>
        <time>2020-08-21T14:17:48.000Z</time>
      </trkpt>
      <trkpt lat="47.75429" lon="-3.35364">
        <ele>0.6</ele>
        <time>2020-08-21T14:17:49.000Z</time>
      </trkpt>
      <trkpt lat="47.7543" lon="-3.35365">
        <ele>0.6</ele>
        <time>2020-08-21T14:17:50.000Z</time>
      </trkpt>
      <trkpt lat="47.75431" lon="-3.35366">
        <ele>0.7</ele>
        <time>2020-08-21T14:17:51.000Z</time>
      </trkpt>
      <trkpt lat="47.75431" lon="-3.35367">
        <ele>0.7</ele>
        <time>2020-08-21T14:17:52.000Z</time>
      </trkpt>
      <trkpt lat="47.75432" lon="-3.35368">
        <ele>0.7</ele>
        <time>2020-08-21T14:17:53.000Z</time>
      </trkpt>
      <trkpt lat="47.75433" lon="-3.35369">
        <ele>0.7</ele>
        <time>2020-08-21T14:17:54.000Z</time>
      </trkpt>
      <trkpt lat="47.75434" lon="-3.3537">
        <ele>0.7</ele>
        <time>2020-08-21T14:17:55.000Z</time>
      </trkpt>
      <trkpt lat="47.75435" lon="-3.3537">
        <ele>0.7</ele>
        <time>2020-08-21T14:17:56.000Z</time>
      </trkpt>
      <trkpt lat="47.75436" lon="-3.35371">
        <ele>0.7</ele>
        <time>2020-08-21T14:17:57.000Z</time>
      </trkpt>
      <trkpt lat="47.75437" lon="-3.35372">
        <ele>0.7</ele>
        <time>2020-08-21T14:17:58.000Z</time>
      </trkpt>
      <trkpt lat="47.75438" lon="-3.35373">
        <ele>0.7</ele>
        <time>2020-08-21T14:17:59.000Z</time>
      </trkpt>
      <trkpt lat="47.75438" lon="-3.35374">
        <ele>0.7</ele>
        <time>2020-08-21T14:18:00.000Z</time>
      </trkpt>
      <trkpt lat="47.75439" lon="-3.35374">
        <ele>0.7</ele>
        <time>2020-08-21T14:18:01.000Z</time>
      </trkpt>
      <trkpt lat="47.7544" lon="-3.35375">
        <ele>0.7</ele>
        <time>2020-08-21T14:18:02.000Z</time>
      </trkpt>
      <trkpt lat="47.75441" lon="-3.35376">
        <ele>0.7</ele>
        <time>2020-08-21T14:18:03.000Z</time>
      </trkpt>
      <trkpt lat="47.75442" lon="-3.35377">
        <ele>0.7</ele>
        <time>2020-08-21T14:18:04.000Z</time>
      </trkpt>
      <trkpt lat="47.75443" lon="-3.35377">
        <ele>0.7</ele>
        <time>2020-08-21T14:18:05.000Z</time>
      </trkpt>
      <trkpt lat="47.75444" lon="-3.35378">
        <ele>0.7</ele>
        <time>2020-08-21T14:18:06.000Z</time>
      </trkpt>
      <trkpt lat="47.75445" lon="-3.35379">
        <ele>0.7</ele>
        <time>2020-08-21T14:18:07.000Z</time>
      </trkpt>
      <trkpt lat="47.75446" lon="-3.35379">
        <ele>0.7</ele>
        <time>2020-08-21T14:18:08.000Z</time>
      </trkpt>
      <trkpt lat="47.75447" lon="-3.3538">
        <ele>0.7</ele>
        <time>2020-08-21T14:18:09.000Z</time>
      </trkpt>
      <trkpt lat="47.75448" lon="-3.35381">
        <ele>0.7</ele>
        <time>2020-08-21T14:18:10.000Z</time>
      </trkpt>
      <trkpt lat="47.75449" lon="-3.35381">
        <ele>0.7</ele>
        <time>2020-08-21T14:18:11.000Z</time>
      </trkpt>
      <trkpt lat="47.7545" lon="-3.35382">
        <ele>0.7</ele>
        <time>2020-08-21T14:18:12.000Z</time>
      </trkpt>
      <trkpt lat="47.75451" lon="-3.35383">
        <ele>0.7</ele>
        <time>2020-08-21T14:18:13.000Z</time>
      </trkpt>
      <trkpt lat="47.75452" lon="-3.35383">
        <ele>0.7</ele>
        <time>2020-08-21T14:18:14.000Z</time>
      </trkpt>
      <trkpt lat="47.75453" lon="-3.35384">
        <ele>0.7</ele>
        <time>2020-08-21T14:18:15.000Z</time>
      </trkpt>
      <trkpt lat="47.75454" lon="-3.35384">
        <ele>0.7</ele>
        <time>2020-08-21T14:18:16.000Z</time>
      </trkpt>
      <trkpt lat="47.75455" lon="-3.35385">
        <ele>0.7</ele>
        <time>2020-08-21T14:18:17.000Z</time>
      </trkpt>
      <trkpt lat="47.75456" lon="-3.35386">
        <ele>0.7</ele>
        <time>2020-08-21T14:18:18.000Z</time>
      </trkpt>
      <trkpt lat="47.75457" lon="-3.35386">
        <ele>0.7</ele>
        <time>2020-08-21T14:18:19.000Z</time>
      </trkpt>
      <trkpt lat="47.75458" lon="-3.35387">
        <ele>0.6</ele>
        <time>2020-08-21T14:18:20.000Z</time>
      </trkpt>
      <trkpt lat="47.75459" lon="-3.35387">
        <ele>0.6</ele>
        <time>2020-08-21T14:18:21.000Z</time>
      </trkpt>
      <trkpt lat="47.7546" lon="-3.35388">
        <ele>0.6</ele>
        <time>2020-08-21T14:18:22.000Z</time>
      </trkpt>
      <trkpt lat="47.75461" lon="-3.35389">
        <ele>0.6</ele>
        <time>2020-08-21T14:18:23.000Z</time>
      </trkpt>
      <trkpt lat="47.75462" lon="-3.35389">
        <ele>0.6</ele>
        <time>2020-08-21T14:18:24.000Z</time>
      </trkpt>
      <trkpt lat="47.75463" lon="-3.3539">
        <ele>0.6</ele>
        <time>2020-08-21T14:18:25.000Z</time>
      </trkpt>
      <trkpt lat="47.75464" lon="-3.35391">
        <ele>0.6</ele>
        <time>2020-08-21T14:18:26.000Z</time>
      </trkpt>
      <trkpt lat="47.75465" lon="-3.35391">
        <ele>0.6</ele>
        <time>2020-08-21T14:18:27.000Z</time>
      </trkpt>
      <trkpt lat="47.75466" lon="-3.35392">
        <ele>0.6</ele>
        <time>2020-08-21T14:18:28.000Z</time>
      </trkpt>
      <trkpt lat="47.75467" lon="-3.35393">
        <ele>0.6</ele>
        <time>2020-08-21T14:18:29.000Z</time>
      </trkpt>
      <trkpt lat="47.75468" lon="-3.35393">
        <ele>0.6</ele>
        <time>2020-08-21T14:18:30.000Z</time>
      </trkpt>
      <trkpt lat="47.75469" lon="-3.35394">
        <ele>0.5</ele>
        <time>2020-08-21T14:18:31.000Z</time>
      </trkpt>
      <trkpt lat="47.7547" lon="-3.35395">
        <ele>0.5</ele>
        <time>2020-08-21T14:18:32.000Z</time>
      </trkpt>
      <trkpt lat="47.75471" lon="-3.35396">
        <ele>0.5</ele>
        <time>2020-08-21T14:18:33.000Z</time>
      </trkpt>
      <trkpt lat="47.75472" lon="-3.35396">
        <ele>0.5</ele>
        <time>2020-08-21T14:18:34.000Z</time>
      </trkpt>
      <trkpt lat="47.75472" lon="-3.35397">
        <ele>0.5</ele>
        <time>2020-08-21T14:18:35.000Z</time>
      </trkpt>
      <trkpt lat="47.75473" lon="-3.35398">
        <ele>0.5</ele>
        <time>2020-08-21T14:18:36.000Z</time>
      </trkpt>
      <trkpt lat="47.75474" lon="-3.35399">
        <ele>0.5</ele>
        <time>2020-08-21T14:18:37.000Z</time>
      </trkpt>
      <trkpt lat="47.75475" lon="-3.35399">
        <ele>0.5</ele>
        <time>2020-08-21T14:18:38.000Z</time>
      </trkpt>
      <trkpt lat="47.75476" lon="-3.354">
        <ele>0.5</ele>
        <time>2020-08-21T14:18:39.000Z</time>
      </trkpt>
      <trkpt lat="47.75477" lon="-3.35401">
        <ele>0.4</ele>
        <time>2020-08-21T14:18:40.000Z</time>
      </trkpt>
      <trkpt lat="47.75478" lon="-3.35402">
        <ele>0.4</ele>
        <time>2020-08-21T14:18:41.000Z</time>
      </trkpt>
      <trkpt lat="47.75479" lon="-3.35403">
        <ele>0.4</ele>
        <time>2020-08-21T14:18:42.000Z</time>
      </trkpt>
      <trkpt lat="47.7548" lon="-3.35404">
        <ele>0.4</ele>
        <time>2020-08-21T14:18:43.000Z</time>
      </trkpt>
      <trkpt lat="47.75481" lon="-3.35404">
        <ele>0.4</ele>
        <time>2020-08-21T14:18:44.000Z</time>
      </trkpt>
      <trkpt lat="47.75482" lon="-3.35405">
        <ele>0.4</ele>
        <time>2020-08-21T14:18:45.000Z</time>
      </trkpt>
      <trkpt lat="47.75483" lon="-3.35406">
        <ele>0.4</ele>
        <time>2020-08-21T14:18:46.000Z</time>
      </trkpt>
      <trkpt lat="47.75484" lon="-3.35407">
        <ele>0.3</ele>
        <time>2020-08-21T14:18:47.000Z</time>
      </trkpt>
      <trkpt lat="47.75485" lon="-3.35408">
        <ele>0.3</ele>
        <time>2020-08-21T14:18:48.000Z</time>
      </trkpt>
      <trkpt lat="47.75486" lon="-3.35409">
        <ele>0.3</ele>
        <time>2020-08-21T14:18:49.000Z</time>
      </trkpt>
      <trkpt lat="47.75487" lon="-3.35409">
        <ele>0.3</ele>
        <time>2020-08-21T14:18:50.000Z</time>
      </trkpt>
      <trkpt lat="47.75487" lon="-3.3541">
        <ele>0.3</ele>
        <time>2020-08-21T14:18:51.000Z</time>
      </trkpt>
      <trkpt lat="47.75488" lon="-3.35411">
        <ele>0.3</ele>
        <time>2020-08-21T14:18:52.000Z</time>
      </trkpt>
      <trkpt lat="47.75489" lon="-3.35412">
        <ele>0.2</ele>
        <time>2020-08-21T14:18:53.000Z</time>
      </trkpt>
      <trkpt lat="47.7549" lon="-3.35413">
        <ele>0.2</ele>
        <time>2020-08-21T14:18:54.000Z</time>
      </trkpt>
      <trkpt lat="47.75491" lon="-3.35414">
        <ele>0.2</ele>
        <time>2020-08-21T14:18:55.000Z</time>
      </trkpt>
      <trkpt lat="47.75492" lon="-3.35415">
        <ele>0.2</ele>
        <time>2020-08-21T14:18:56.000Z</time>
      </trkpt>
      <trkpt lat="47.75493" lon="-3.35415">
        <ele>0.2</ele>
        <time>2020-08-21T14:18:57.000Z</time>
      </trkpt>
      <trkpt lat="47.75494" lon="-3.35416">
        <ele>0.1</ele>
        <time>2020-08-21T14:18:58.000Z</time>
      </trkpt>
      <trkpt lat="47.75495" lon="-3.35417">
        <ele>0.1</ele>
        <time>2020-08-21T14:18:59.000Z</time>
      </trkpt>
      <trkpt lat="47.75496" lon="-3.35418">
        <ele>0.2</ele>
        <time>2020-08-21T14:19:00.000Z</time>
      </trkpt>
      <trkpt lat="47.75497" lon="-3.35419">
        <ele>0.2</ele>
        <time>2020-08-21T14:19:01.000Z</time>
      </trkpt>
      <trkpt lat="47.75498" lon="-3.3542">
        <ele>0.2</ele>
        <time>2020-08-21T14:19:02.000Z</time>
      </trkpt>
      <trkpt lat="47.75499" lon="-3.3542">
        <ele>0.2</ele>
        <time>2020-08-21T14:19:03.000Z</time>
      </trkpt>
      <trkpt lat="47.755" lon="-3.35421">
        <ele>0.3</ele>
        <time>2020-08-21T14:19:04.000Z</time>
      </trkpt>
      <trkpt lat="47.75501" lon="-3.35422">
        <ele>0.3</ele>
        <time>2020-08-21T14:19:05.000Z</time>
      </trkpt>
      <trkpt lat="47.75502" lon="-3.35423">
        <ele>0.4</ele>
        <time>2020-08-21T14:19:06.000Z</time>
      </trkpt>
      <trkpt lat="47.75503" lon="-3.35424">
        <ele>0.4</ele>
        <time>2020-08-21T14:19:07.000Z</time>
      </trkpt>
      <trkpt lat="47.75504" lon="-3.35425">
        <ele>0.5</ele>
        <time>2020-08-21T14:19:08.000Z</time>
      </trkpt>
      <trkpt lat="47.75505" lon="-3.35426">
        <ele>0.5</ele>
        <time>2020-08-21T14:19:09.000Z</time>
      </trkpt>
      <trkpt lat="47.75506" lon="-3.35427">
        <ele>0.6</ele>
        <time>2020-08-21T14:19:10.000Z</time>
      </trkpt>
      <trkpt lat="47.75507" lon="-3.35428">
        <ele>0.6</ele>
        <time>2020-08-21T14:19:11.000Z</time>
      </trkpt>
      <trkpt lat="47.75508" lon="-3.35429">
        <ele>0.7</ele>
        <time>2020-08-21T14:19:12.000Z</time>
      </trkpt>
      <trkpt lat="47.75509" lon="-3.3543">
        <ele>0.7</ele>
        <time>2020-08-21T14:19:13.000Z</time>
      </trkpt>
      <trkpt lat="47.75509" lon="-3.35431">
        <ele>0.7</ele>
        <time>2020-08-21T14:19:14.000Z</time>
      </trkpt>
      <trkpt lat="47.7551" lon="-3.35432">
        <ele>0.8</ele>
        <time>2020-08-21T14:19:15.000Z</time>
      </trkpt>
      <trkpt lat="47.75511" lon="-3.35433">
        <ele>0.8</ele>
        <time>2020-08-21T14:19:16.000Z</time>
      </trkpt>
      <trkpt lat="47.75512" lon="-3.35434">
        <ele>0.9</ele>
        <time>2020-08-21T14:19:17.000Z</time>
      </trkpt>
      <trkpt lat="47.75513" lon="-3.35435">
        <ele>0.9</ele>
        <time>2020-08-21T14:19:18.000Z</time>
      </trkpt>
      <trkpt lat="47.75514" lon="-3.35436">
        <ele>0.9</ele>
        <time>2020-08-21T14:19:19.000Z</time>
      </trkpt>
      <trkpt lat="47.75515" lon="-3.35437">
        <ele>1</ele>
        <time>2020-08-21T14:19:20.000Z</time>
      </trkpt>
      <trkpt lat="47.75516" lon="-3.35438">
        <ele>1</ele>
        <time>2020-08-21T14:19:21.000Z</time>
      </trkpt>
      <trkpt lat="47.75517" lon="-3.35438">
        <ele>1</ele>
        <time>2020-08-21T14:19:22.000Z</time>
      </trkpt>
      <trkpt lat="47.75517" lon="-3.35439">
        <ele>1.1</ele>
        <time>2020-08-21T14:19:23.000Z</time>
      </trkpt>
      <trkpt lat="47.75518" lon="-3.3544">
        <ele>1.1</ele>
        <time>2020-08-21T14:19:24.000Z</time>
      </trkpt>
      <trkpt lat="47.75519" lon="-3.35441">
        <ele>1.1</ele>
        <time>2020-08-21T14:19:25.000Z</time>
      </trkpt>
      <trkpt lat="47.7552" lon="-3.35442">
        <ele>1.1</ele>
        <time>2020-08-21T14:19:26.000Z</time>
      </trkpt>
      <trkpt lat="47.75521" lon="-3.35442">
        <ele>1.1</ele>
        <time>2020-08-21T14:19:27.000Z</time>
      </trkpt>
      <trkpt lat="47.75522" lon="-3.35443">
        <ele>1.2</ele>
        <time>2020-08-21T14:19:28.000Z</time>
      </trkpt>
      <trkpt lat="47.75523" lon="-3.35443">
        <ele>1.2</ele>
        <time>2020-08-21T14:19:29.000Z</time>
      </trkpt>
      <trkpt lat="47.75524" lon="-3.35444">
        <ele>1.2</ele>
        <time>2020-08-21T14:19:30.000Z</time>
      </trkpt>
      <trkpt lat="47.75525" lon="-3.35445">
        <ele>1.2</ele>
        <time>2020-08-21T14:19:31.000Z</time>
      </trkpt>
      <trkpt lat="47.75526" lon="-3.35445">
        <ele>1.2</ele>
        <time>2020-08-21T14:19:32.000Z</time>
      </trkpt>
      <trkpt lat="47.75527" lon="-3.35446">
        <ele>1.2</ele>
        <time>2020-08-21T14:19:33.000Z</time>
      </trkpt>
      <trkpt lat="47.75528" lon="-3.35446">
        <ele>1.2</ele>
        <time>2020-08-21T14:19:34.000Z</time>
      </trkpt>
      <trkpt lat="47.75529" lon="-3.35447">
        <ele>1.2</ele>
        <time>2020-08-21T14:19:35.000Z</time>
      </trkpt>
      <trkpt lat="47.7553" lon="-3.35447">
        <ele>1.2</ele>
        <time>2020-08-21T14:19:36.000Z</time>
      </trkpt>
      <trkpt lat="47.75531" lon="-3.35448">
        <ele>1.2</ele>
        <time>2020-08-21T14:19:37.000Z</time>
      </trkpt>
      <trkpt lat="47.75532" lon="-3.35448">
        <ele>1.2</ele>
        <time>2020-08-21T14:19:38.000Z</time>
      </trkpt>
      <trkpt lat="47.75533" lon="-3.35449">
        <ele>1.2</ele>
        <time>2020-08-21T14:19:39.000Z</time>
      </trkpt>
      <trkpt lat="47.75534" lon="-3.35449">
        <ele>1.2</ele>
        <time>2020-08-21T14:19:40.000Z</time>
      </trkpt>
      <trkpt lat="47.75535" lon="-3.3545">
        <ele>1.1</ele>
        <time>2020-08-21T14:19:41.000Z</time>
      </trkpt>
      <trkpt lat="47.75536" lon="-3.3545">
        <ele>1.1</ele>
        <time>2020-08-21T14:19:42.000Z</time>
      </trkpt>
      <trkpt lat="47.75537" lon="-3.35451">
        <ele>1.1</ele>
        <time>2020-08-21T14:19:43.000Z</time>
      </trkpt>
      <trkpt lat="47.75538" lon="-3.35452">
        <ele>1.1</ele>
        <time>2020-08-21T14:19:44.000Z</time>
      </trkpt>
      <trkpt lat="47.75539" lon="-3.35452">
        <ele>1.1</ele>
        <time>2020-08-21T14:19:45.000Z</time>
      </trkpt>
      <trkpt lat="47.7554" lon="-3.35453">
        <ele>1.1</ele>
        <time>2020-08-21T14:19:46.000Z</time>
      </trkpt>
      <trkpt lat="47.75541" lon="-3.35454">
        <ele>1.1</ele>
        <time>2020-08-21T14:19:47.000Z</time>
      </trkpt>
      <trkpt lat="47.75542" lon="-3.35454">
        <ele>1.1</ele>
        <time>2020-08-21T14:19:48.000Z</time>
      </trkpt>
      <trkpt lat="47.75543" lon="-3.35455">
        <ele>1.1</ele>
        <time>2020-08-21T14:19:49.000Z</time>
      </trkpt>
      <trkpt lat="47.75544" lon="-3.35455">
        <ele>1.1</ele>
        <time>2020-08-21T14:19:50.000Z</time>
      </trkpt>
      <trkpt lat="47.75545" lon="-3.35456">
        <ele>1.1</ele>
        <time>2020-08-21T14:19:51.000Z</time>
      </trkpt>
      <trkpt lat="47.75546" lon="-3.35456">
        <ele>1.1</ele>
        <time>2020-08-21T14:19:52.000Z</time>
      </trkpt>
      <trkpt lat="47.75547" lon="-3.35457">
        <ele>1.1</ele>
        <time>2020-08-21T14:19:53.000Z</time>
      </trkpt>
      <trkpt lat="47.75548" lon="-3.35457">
        <ele>1</ele>
        <time>2020-08-21T14:19:54.000Z</time>
      </trkpt>
      <trkpt lat="47.75549" lon="-3.35458">
        <ele>1</ele>
        <time>2020-08-21T14:19:55.000Z</time>
      </trkpt>
      <trkpt lat="47.7555" lon="-3.35458">
        <ele>1</ele>
        <time>2020-08-21T14:19:56.000Z</time>
      </trkpt>
      <trkpt lat="47.75552" lon="-3.35459">
        <ele>1</ele>
        <time>2020-08-21T14:19:57.000Z</time>
      </trkpt>
      <trkpt lat="47.75553" lon="-3.35459">
        <ele>0.9</ele>
        <time>2020-08-21T14:19:58.000Z</time>
      </trkpt>
      <trkpt lat="47.75554" lon="-3.35459">
        <ele>0.9</ele>
        <time>2020-08-21T14:19:59.000Z</time>
      </trkpt>
      <trkpt lat="47.75555" lon="-3.3546">
        <ele>0.9</ele>
        <time>2020-08-21T14:20:00.000Z</time>
      </trkpt>
      <trkpt lat="47.75556" lon="-3.3546">
        <ele>0.8</ele>
        <time>2020-08-21T14:20:01.000Z</time>
      </trkpt>
      <trkpt lat="47.75558" lon="-3.35461">
        <ele>0.8</ele>
        <time>2020-08-21T14:20:02.000Z</time>
      </trkpt>
      <trkpt lat="47.75559" lon="-3.35462">
        <ele>0.8</ele>
        <time>2020-08-21T14:20:03.000Z</time>
      </trkpt>
      <trkpt lat="47.75559" lon="-3.35462">
        <ele>0.8</ele>
        <time>2020-08-21T14:20:04.000Z</time>
      </trkpt>
      <trkpt lat="47.7556" lon="-3.35463">
        <ele>0.8</ele>
        <time>2020-08-21T14:20:05.000Z</time>
      </trkpt>
      <trkpt lat="47.75561" lon="-3.35464">
        <ele>0.8</ele>
        <time>2020-08-21T14:20:06.000Z</time>
      </trkpt>
      <trkpt lat="47.75562" lon="-3.35464">
        <ele>0.7</ele>
        <time>2020-08-21T14:20:07.000Z</time>
      </trkpt>
      <trkpt lat="47.75563" lon="-3.35465">
        <ele>0.7</ele>
        <time>2020-08-21T14:20:08.000Z</time>
      </trkpt>
      <trkpt lat="47.75563" lon="-3.35465">
        <ele>0.7</ele>
        <time>2020-08-21T14:20:09.000Z</time>
      </trkpt>
      <trkpt lat="47.75564" lon="-3.35465">
        <ele>0.7</ele>
        <time>2020-08-21T14:20:10.000Z</time>
      </trkpt>
      <trkpt lat="47.75564" lon="-3.35465">
        <ele>0.7</ele>
        <time>2020-08-21T14:20:11.000Z</time>
      </trkpt>
      <trkpt lat="47.75565" lon="-3.35464">
        <ele>0.6</ele>
        <time>2020-08-21T14:20:12.000Z</time>
      </trkpt>
      <trkpt lat="47.75566" lon="-3.35464">
        <ele>0.6</ele>
        <time>2020-08-21T14:20:13.000Z</time>
      </trkpt>
      <trkpt lat="47.75567" lon="-3.35463">
        <ele>0.6</ele>
        <time>2020-08-21T14:20:14.000Z</time>
      </trkpt>
      <trkpt lat="47.75567" lon="-3.35463">
        <ele>0.5</ele>
        <time>2020-08-21T14:20:15.000Z</time>
      </trkpt>
      <trkpt lat="47.75568" lon="-3.35462">
        <ele>0.5</ele>
        <time>2020-08-21T14:20:16.000Z</time>
      </trkpt>
      <trkpt lat="47.7557" lon="-3.35462">
        <ele>0.5</ele>
        <time>2020-08-21T14:20:17.000Z</time>
      </trkpt>
      <trkpt lat="47.75571" lon="-3.35462">
        <ele>0.4</ele>
        <time>2020-08-21T14:20:18.000Z</time>
      </trkpt>
      <trkpt lat="47.75572" lon="-3.35461">
        <ele>0.4</ele>
        <time>2020-08-21T14:20:19.000Z</time>
      </trkpt>
      <trkpt lat="47.75574" lon="-3.35461">
        <ele>0.3</ele>
        <time>2020-08-21T14:20:20.000Z</time>
      </trkpt>
      <trkpt lat="47.75575" lon="-3.35461">
        <ele>0.3</ele>
        <time>2020-08-21T14:20:21.000Z</time>
      </trkpt>
      <trkpt lat="47.75576" lon="-3.35461">
        <ele>0.2</ele>
        <time>2020-08-21T14:20:22.000Z</time>
      </trkpt>
      <trkpt lat="47.75578" lon="-3.35461">
        <ele>0.2</ele>
        <time>2020-08-21T14:20:23.000Z</time>
      </trkpt>
      <trkpt lat="47.75579" lon="-3.35461">
        <ele>0.1</ele>
        <time>2020-08-21T14:20:24.000Z</time>
      </trkpt>
      <trkpt lat="47.7558" lon="-3.35461">
        <ele>0.1</ele>
        <time>2020-08-21T14:20:25.000Z</time>
      </trkpt>
      <trkpt lat="47.75581" lon="-3.35461">
        <ele>0.1</ele>
        <time>2020-08-21T14:20:26.000Z</time>
      </trkpt>
      <trkpt lat="47.75582" lon="-3.35462">
        <ele>5</ele>
        <time>2020-08-21T14:20:27.000Z</time>
      </trkpt>
      <trkpt lat="47.75583" lon="-3.35462">
        <ele>5</ele>
        <time>2020-08-21T14:20:28.000Z</time>
      </trkpt>
      <trkpt lat="47.75584" lon="-3.35462">
        <ele>3.9</ele>
        <time>2020-08-21T14:20:29.000Z</time>
      </trkpt>
      <trkpt lat="47.75585" lon="-3.35463">
        <ele>4</ele>
        <time>2020-08-21T14:20:30.000Z</time>
      </trkpt>
      <trkpt lat="47.75586" lon="-3.35463">
        <ele>3.9</ele>
        <time>2020-08-21T14:20:31.000Z</time>
      </trkpt>
      <trkpt lat="47.75587" lon="-3.35463">
        <ele>3.9</ele>
        <time>2020-08-21T14:20:32.000Z</time>
      </trkpt>
      <trkpt lat="47.75588" lon="-3.35464">
        <ele>4</ele>
        <time>2020-08-21T14:20:33.000Z</time>
      </trkpt>
      <trkpt lat="47.75589" lon="-3.35464">
        <ele>4</ele>
        <time>2020-08-21T14:20:34.000Z</time>
      </trkpt>
      <trkpt lat="47.7559" lon="-3.35464">
        <ele>3.9</ele>
        <time>2020-08-21T14:20:35.000Z</time>
      </trkpt>
      <trkpt lat="47.75591" lon="-3.35465">
        <ele>4</ele>
        <time>2020-08-21T14:20:36.000Z</time>
      </trkpt>
      <trkpt lat="47.75592" lon="-3.35465">
        <ele>4</ele>
        <time>2020-08-21T14:20:37.000Z</time>
      </trkpt>
      <trkpt lat="47.75593" lon="-3.35465">
        <ele>4</ele>
        <time>2020-08-21T14:20:38.000Z</time>
      </trkpt>
      <trkpt lat="47.75595" lon="-3.35465">
        <ele>3.9</ele>
        <time>2020-08-21T14:20:39.000Z</time>
      </trkpt>
      <trkpt lat="47.75596" lon="-3.35465">
        <ele>3.9</ele>
        <time>2020-08-21T14:20:40.000Z</time>
      </trkpt>
      <trkpt lat="47.75597" lon="-3.35466">
        <ele>3.9</ele>
        <time>2020-08-21T14:20:41.000Z</time>
      </trkpt>
      <trkpt lat="47.75598" lon="-3.35466">
        <ele>3.9</ele>
        <time>2020-08-21T14:20:42.000Z</time>
      </trkpt>
      <trkpt lat="47.756" lon="-3.35466">
        <ele>3.9</ele>
        <time>2020-08-21T14:20:43.000Z</time>
      </trkpt>
      <trkpt lat="47.75601" lon="-3.35466">
        <ele>3.8</ele>
        <time>2020-08-21T14:20:44.000Z</time>
      </trkpt>
      <trkpt lat="47.75602" lon="-3.35466">
        <ele>3.8</ele>
        <time>2020-08-21T14:20:45.000Z</time>
      </trkpt>
      <trkpt lat="47.75603" lon="-3.35467">
        <ele>3.9</ele>
        <time>2020-08-21T14:20:46.000Z</time>
      </trkpt>
      <trkpt lat="47.75604" lon="-3.35467">
        <ele>3.8</ele>
        <time>2020-08-21T14:20:47.000Z</time>
      </trkpt>
      <trkpt lat="47.75605" lon="-3.35468">
        <ele>3.9</ele>
        <time>2020-08-21T14:20:48.000Z</time>
      </trkpt>
      <trkpt lat="47.75607" lon="-3.35468">
        <ele>3.8</ele>
        <time>2020-08-21T14:20:49.000Z</time>
      </trkpt>
      <trkpt lat="47.75608" lon="-3.35468">
        <ele>3.8</ele>
        <time>2020-08-21T14:20:50.000Z</time>
      </trkpt>
      <trkpt lat="47.75609" lon="-3.35469">
        <ele>3.8</ele>
        <time>2020-08-21T14:20:51.000Z</time>
      </trkpt>
      <trkpt lat="47.7561" lon="-3.35469">
        <ele>3.8</ele>
        <time>2020-08-21T14:20:52.000Z</time>
      </trkpt>
      <trkpt lat="47.75611" lon="-3.35469">
        <ele>3.8</ele>
        <time>2020-08-21T14:20:53.000Z</time>
      </trkpt>
      <trkpt lat="47.75612" lon="-3.35469">
        <ele>3.7</ele>
        <time>2020-08-21T14:20:54.000Z</time>
      </trkpt>
      <trkpt lat="47.75613" lon="-3.35469">
        <ele>3.7</ele>
        <time>2020-08-21T14:20:55.000Z</time>
      </trkpt>
      <trkpt lat="47.75614" lon="-3.35469">
        <ele>3.7</ele>
        <time>2020-08-21T14:20:56.000Z</time>
      </trkpt>
      <trkpt lat="47.75615" lon="-3.35469">
        <ele>3.6</ele>
        <time>2020-08-21T14:20:57.000Z</time>
      </trkpt>
      <trkpt lat="47.75616" lon="-3.35469">
        <ele>3.6</ele>
        <time>2020-08-21T14:20:58.000Z</time>
      </trkpt>
      <trkpt lat="47.75617" lon="-3.35469">
        <ele>3.6</ele>
        <time>2020-08-21T14:20:59.000Z</time>
      </trkpt>
      <trkpt lat="47.75618" lon="-3.35469">
        <ele>3.5</ele>
        <time>2020-08-21T14:21:00.000Z</time>
      </trkpt>
      <trkpt lat="47.75619" lon="-3.35469">
        <ele>3.5</ele>
        <time>2020-08-21T14:21:01.000Z</time>
      </trkpt>
      <trkpt lat="47.75621" lon="-3.35468">
        <ele>3.4</ele>
        <time>2020-08-21T14:21:02.000Z</time>
      </trkpt>
      <trkpt lat="47.75622" lon="-3.35468">
        <ele>3.4</ele>
        <time>2020-08-21T14:21:03.000Z</time>
      </trkpt>
      <trkpt lat="47.75623" lon="-3.35468">
        <ele>3.3</ele>
        <time>2020-08-21T14:21:04.000Z</time>
      </trkpt>
      <trkpt lat="47.75624" lon="-3.35468">
        <ele>3.3</ele>
        <time>2020-08-21T14:21:05.000Z</time>
      </trkpt>
      <trkpt lat="47.75625" lon="-3.35468">
        <ele>3.3</ele>
        <time>2020-08-21T14:21:06.000Z</time>
      </trkpt>
      <trkpt lat="47.75626" lon="-3.35469">
        <ele>3.3</ele>
        <time>2020-08-21T14:21:07.000Z</time>
      </trkpt>
      <trkpt lat="47.75627" lon="-3.35469">
        <ele>3.3</ele>
        <time>2020-08-21T14:21:08.000Z</time>
      </trkpt>
      <trkpt lat="47.75628" lon="-3.35469">
        <ele>3.2</ele>
        <time>2020-08-21T14:21:09.000Z</time>
      </trkpt>
      <trkpt lat="47.75629" lon="-3.35469">
        <ele>3.2</ele>
        <time>2020-08-21T14:21:10.000Z</time>
      </trkpt>
      <trkpt lat="47.7563" lon="-3.35469">
        <ele>3.2</ele>
        <time>2020-08-21T14:21:11.000Z</time>
      </trkpt>
      <trkpt lat="47.75631" lon="-3.3547">
        <ele>3.2</ele>
        <time>2020-08-21T14:21:12.000Z</time>
      </trkpt>
      <trkpt lat="47.75632" lon="-3.3547">
        <ele>3.1</ele>
        <time>2020-08-21T14:21:13.000Z</time>
      </trkpt>
      <trkpt lat="47.75633" lon="-3.3547">
        <ele>3.1</ele>
        <time>2020-08-21T14:21:14.000Z</time>
      </trkpt>
      <trkpt lat="47.75634" lon="-3.3547">
        <ele>3.1</ele>
        <time>2020-08-21T14:21:15.000Z</time>
      </trkpt>
      <trkpt lat="47.75635" lon="-3.35471">
        <ele>3.1</ele>
        <time>2020-08-21T14:21:16.000Z</time>
      </trkpt>
      <trkpt lat="47.75636" lon="-3.35471">
        <ele>3.1</ele>
        <time>2020-08-21T14:21:17.000Z</time>
      </trkpt>
      <trkpt lat="47.75637" lon="-3.35471">
        <ele>3</ele>
        <time>2020-08-21T14:21:18.000Z</time>
      </trkpt>
      <trkpt lat="47.75638" lon="-3.35471">
        <ele>3</ele>
        <time>2020-08-21T14:21:19.000Z</time>
      </trkpt>
      <trkpt lat="47.7564" lon="-3.35471">
        <ele>3</ele>
        <time>2020-08-21T14:21:20.000Z</time>
      </trkpt>
      <trkpt lat="47.75641" lon="-3.35471">
        <ele>3</ele>
        <time>2020-08-21T14:21:21.000Z</time>
      </trkpt>
      <trkpt lat="47.75642" lon="-3.35471">
        <ele>3.1</ele>
        <time>2020-08-21T14:21:22.000Z</time>
      </trkpt>
      <trkpt lat="47.75643" lon="-3.35471">
        <ele>3.1</ele>
        <time>2020-08-21T14:21:23.000Z</time>
      </trkpt>
      <trkpt lat="47.75644" lon="-3.35471">
        <ele>3.1</ele>
        <time>2020-08-21T14:21:24.000Z</time>
      </trkpt>
      <trkpt lat="47.75646" lon="-3.35471">
        <ele>3.2</ele>
        <time>2020-08-21T14:21:25.000Z</time>
      </trkpt>
      <trkpt lat="47.75647" lon="-3.3547">
        <ele>3.2</ele>
        <time>2020-08-21T14:21:26.000Z</time>
      </trkpt>
      <trkpt lat="47.75648" lon="-3.3547">
        <ele>3.2</ele>
        <time>2020-08-21T14:21:27.000Z</time>
      </trkpt>
      <trkpt lat="47.75649" lon="-3.3547">
        <ele>3.3</ele>
        <time>2020-08-21T14:21:28.000Z</time>
      </trkpt>
      <trkpt lat="47.75651" lon="-3.3547">
        <ele>3.4</ele>
        <time>2020-08-21T14:21:29.000Z</time>
      </trkpt>
      <trkpt lat="47.75652" lon="-3.35469">
        <ele>3.4</ele>
        <time>2020-08-21T14:21:30.000Z</time>
      </trkpt>
      <trkpt lat="47.75653" lon="-3.35469">
        <ele>3.4</ele>
        <time>2020-08-21T14:21:31.000Z</time>
      </trkpt>
      <trkpt lat="47.75654" lon="-3.35469">
        <ele>3.4</ele>
        <time>2020-08-21T14:21:32.000Z</time>
      </trkpt>
      <trkpt lat="47.75656" lon="-3.35469">
        <ele>3.5</ele>
        <time>2020-08-21T14:21:33.000Z</time>
      </trkpt>
      <trkpt lat="47.75657" lon="-3.35469">
        <ele>3.5</ele>
        <time>2020-08-21T14:21:34.000Z</time>
      </trkpt>
      <trkpt lat="47.75658" lon="-3.35468">
        <ele>3.5</ele>
        <time>2020-08-21T14:21:35.000Z</time>
      </trkpt>
      <trkpt lat="47.75659" lon="-3.35468">
        <ele>3.6</ele>
        <time>2020-08-21T14:21:36.000Z</time>
      </trkpt>
      <trkpt lat="47.7566" lon="-3.35468">
        <ele>3.6</ele>
        <time>2020-08-21T14:21:37.000Z</time>
      </trkpt>
      <trkpt lat="47.75661" lon="-3.35468">
        <ele>3.6</ele>
        <time>2020-08-21T14:21:38.000Z</time>
      </trkpt>
      <trkpt lat="47.75662" lon="-3.35468">
        <ele>3.7</ele>
        <time>2020-08-21T14:21:39.000Z</time>
      </trkpt>
      <trkpt lat="47.75664" lon="-3.35468">
        <ele>3.8</ele>
        <time>2020-08-21T14:21:40.000Z</time>
      </trkpt>
      <trkpt lat="47.75665" lon="-3.35468">
        <ele>3.8</ele>
        <time>2020-08-21T14:21:41.000Z</time>
      </trkpt>
      <trkpt lat="47.75666" lon="-3.35468">
        <ele>3.8</ele>
        <time>2020-08-21T14:21:42.000Z</time>
      </trkpt>
      <trkpt lat="47.75667" lon="-3.35468">
        <ele>3.9</ele>
        <time>2020-08-21T14:21:43.000Z</time>
      </trkpt>
      <trkpt lat="47.75668" lon="-3.35468">
        <ele>3.9</ele>
        <time>2020-08-21T14:21:44.000Z</time>
      </trkpt>
      <trkpt lat="47.75669" lon="-3.35468">
        <ele>3.9</ele>
        <time>2020-08-21T14:21:45.000Z</time>
      </trkpt>
      <trkpt lat="47.7567" lon="-3.35468">
        <ele>3.9</ele>
        <time>2020-08-21T14:21:46.000Z</time>
      </trkpt>
      <trkpt lat="47.75671" lon="-3.35468">
        <ele>4</ele>
        <time>2020-08-21T14:21:47.000Z</time>
      </trkpt>
      <trkpt lat="47.75672" lon="-3.35468">
        <ele>4</ele>
        <time>2020-08-21T14:21:48.000Z</time>
      </trkpt>
      <trkpt lat="47.75673" lon="-3.35468">
        <ele>4</ele>
        <time>2020-08-21T14:21:49.000Z</time>
      </trkpt>
      <trkpt lat="47.75674" lon="-3.35468">
        <ele>4</ele>
        <time>2020-08-21T14:21:50.000Z</time>
      </trkpt>
      <trkpt lat="47.75675" lon="-3.35468">
        <ele>4.1</ele>
        <time>2020-08-21T14:21:51.000Z</time>
      </trkpt>
      <trkpt lat="47.75676" lon="-3.35468">
        <ele>4.1</ele>
        <time>2020-08-21T14:21:52.000Z</time>
      </trkpt>
      <trkpt lat="47.75678" lon="-3.35469">
        <ele>4.2</ele>
        <time>2020-08-21T14:21:53.000Z</time>
      </trkpt>
      <trkpt lat="47.75679" lon="-3.35469">
        <ele>4.2</ele>
        <time>2020-08-21T14:21:54.000Z</time>
      </trkpt>
      <trkpt lat="47.7568" lon="-3.35469">
        <ele>4.3</ele>
        <time>2020-08-21T14:21:55.000Z</time>
      </trkpt>
      <trkpt lat="47.75681" lon="-3.3547">
        <ele>4.4</ele>
        <time>2020-08-21T14:21:56.000Z</time>
      </trkpt>
      <trkpt lat="47.75682" lon="-3.3547">
        <ele>4.4</ele>
        <time>2020-08-21T14:21:57.000Z</time>
      </trkpt>
      <trkpt lat="47.75683" lon="-3.35471">
        <ele>4.5</ele>
        <time>2020-08-21T14:21:58.000Z</time>
      </trkpt>
      <trkpt lat="47.75685" lon="-3.35471">
        <ele>4.6</ele>
        <time>2020-08-21T14:21:59.000Z</time>
      </trkpt>
      <trkpt lat="47.75686" lon="-3.35472">
        <ele>4.7</ele>
        <time>2020-08-21T14:22:00.000Z</time>
      </trkpt>
      <trkpt lat="47.75687" lon="-3.35473">
        <ele>4.7</ele>
        <time>2020-08-21T14:22:01.000Z</time>
      </trkpt>
      <trkpt lat="47.75688" lon="-3.35473">
        <ele>4.8</ele>
        <time>2020-08-21T14:22:02.000Z</time>
      </trkpt>
      <trkpt lat="47.75689" lon="-3.35474">
        <ele>4.8</ele>
        <time>2020-08-21T14:22:03.000Z</time>
      </trkpt>
      <trkpt lat="47.7569" lon="-3.35474">
        <ele>4.8</ele>
        <time>2020-08-21T14:22:04.000Z</time>
      </trkpt>
      <trkpt lat="47.75691" lon="-3.35475">
        <ele>4.9</ele>
        <time>2020-08-21T14:22:05.000Z</time>
      </trkpt>
      <trkpt lat="47.75692" lon="-3.35475">
        <ele>4.9</ele>
        <time>2020-08-21T14:22:06.000Z</time>
      </trkpt>
      <trkpt lat="47.75692" lon="-3.35475">
        <ele>4.9</ele>
        <time>2020-08-21T14:22:07.000Z</time>
      </trkpt>
      <trkpt lat="47.75693" lon="-3.35475">
        <ele>4.9</ele>
        <time>2020-08-21T14:22:08.000Z</time>
      </trkpt>
      <trkpt lat="47.75693" lon="-3.35475">
        <ele>4.9</ele>
        <time>2020-08-21T14:22:09.000Z</time>
      </trkpt>
      <trkpt lat="47.75693" lon="-3.35475">
        <ele>4.9</ele>
        <time>2020-08-21T14:22:10.000Z</time>
      </trkpt>
      <trkpt lat="47.75694" lon="-3.35475">
        <ele>5</ele>
        <time>2020-08-21T14:22:11.000Z</time>
      </trkpt>
      <trkpt lat="47.75694" lon="-3.35475">
        <ele>5</ele>
        <time>2020-08-21T14:22:12.000Z</time>
      </trkpt>
      <trkpt lat="47.75696" lon="-3.35476">
        <ele>5</ele>
        <time>2020-08-21T14:22:13.000Z</time>
      </trkpt>
      <trkpt lat="47.75697" lon="-3.35476">
        <ele>4.9</ele>
        <time>2020-08-21T14:22:14.000Z</time>
      </trkpt>
      <trkpt lat="47.75699" lon="-3.35476">
        <ele>4.9</ele>
        <time>2020-08-21T14:22:15.000Z</time>
      </trkpt>
      <trkpt lat="47.757" lon="-3.35477">
        <ele>4.9</ele>
        <time>2020-08-21T14:22:16.000Z</time>
      </trkpt>
      <trkpt lat="47.75702" lon="-3.35477">
        <ele>4.8</ele>
        <time>2020-08-21T14:22:17.000Z</time>
      </trkpt>
      <trkpt lat="47.75703" lon="-3.35478">
        <ele>4.8</ele>
        <time>2020-08-21T14:22:18.000Z</time>
      </trkpt>
      <trkpt lat="47.75704" lon="-3.35479">
        <ele>4.8</ele>
        <time>2020-08-21T14:22:19.000Z</time>
      </trkpt>
      <trkpt lat="47.75706" lon="-3.3548">
        <ele>4.8</ele>
        <time>2020-08-21T14:22:20.000Z</time>
      </trkpt>
      <trkpt lat="47.75707" lon="-3.3548">
        <ele>4.8</ele>
        <time>2020-08-21T14:22:21.000Z</time>
      </trkpt>
      <trkpt lat="47.75708" lon="-3.35481">
        <ele>4.8</ele>
        <time>2020-08-21T14:22:22.000Z</time>
      </trkpt>
      <trkpt lat="47.75709" lon="-3.35481">
        <ele>4.8</ele>
        <time>2020-08-21T14:22:23.000Z</time>
      </trkpt>
      <trkpt lat="47.7571" lon="-3.35482">
        <ele>4.8</ele>
        <time>2020-08-21T14:22:24.000Z</time>
      </trkpt>
      <trkpt lat="47.75711" lon="-3.35482">
        <ele>4.8</ele>
        <time>2020-08-21T14:22:25.000Z</time>
      </trkpt>
      <trkpt lat="47.75712" lon="-3.35482">
        <ele>4.8</ele>
        <time>2020-08-21T14:22:26.000Z</time>
      </trkpt>
      <trkpt lat="47.75713" lon="-3.35483">
        <ele>4.9</ele>
        <time>2020-08-21T14:22:27.000Z</time>
      </trkpt>
      <trkpt lat="47.75714" lon="-3.35483">
        <ele>4.8</ele>
        <time>2020-08-21T14:22:28.000Z</time>
      </trkpt>
      <trkpt lat="47.75715" lon="-3.35483">
        <ele>4.8</ele>
        <time>2020-08-21T14:22:29.000Z</time>
      </trkpt>
      <trkpt lat="47.75716" lon="-3.35484">
        <ele>4.9</ele>
        <time>2020-08-21T14:22:30.000Z</time>
      </trkpt>
      <trkpt lat="47.75717" lon="-3.35484">
        <ele>4.9</ele>
        <time>2020-08-21T14:22:31.000Z</time>
      </trkpt>
      <trkpt lat="47.75718" lon="-3.35484">
        <ele>4.9</ele>
        <time>2020-08-21T14:22:32.000Z</time>
      </trkpt>
      <trkpt lat="47.75719" lon="-3.35485">
        <ele>4.9</ele>
        <time>2020-08-21T14:22:33.000Z</time>
      </trkpt>
      <trkpt lat="47.7572" lon="-3.35485">
        <ele>4.9</ele>
        <time>2020-08-21T14:22:34.000Z</time>
      </trkpt>
      <trkpt lat="47.7572" lon="-3.35486">
        <ele>5</ele>
        <time>2020-08-21T14:22:35.000Z</time>
      </trkpt>
      <trkpt lat="47.75721" lon="-3.35486">
        <ele>5</ele>
        <time>2020-08-21T14:22:36.000Z</time>
      </trkpt>
      <trkpt lat="47.75722" lon="-3.35486">
        <ele>5</ele>
        <time>2020-08-21T14:22:37.000Z</time>
      </trkpt>
      <trkpt lat="47.75723" lon="-3.35487">
        <ele>5</ele>
        <time>2020-08-21T14:22:38.000Z</time>
      </trkpt>
      <trkpt lat="47.75724" lon="-3.35487">
        <ele>4.9</ele>
        <time>2020-08-21T14:22:39.000Z</time>
      </trkpt>
      <trkpt lat="47.75725" lon="-3.35488">
        <ele>4.8</ele>
        <time>2020-08-21T14:22:40.000Z</time>
      </trkpt>
      <trkpt lat="47.75726" lon="-3.35489">
        <ele>4.8</ele>
        <time>2020-08-21T14:22:41.000Z</time>
      </trkpt>
      <trkpt lat="47.75727" lon="-3.35489">
        <ele>4.7</ele>
        <time>2020-08-21T14:22:42.000Z</time>
      </trkpt>
      <trkpt lat="47.75728" lon="-3.3549">
        <ele>4.6</ele>
        <time>2020-08-21T14:22:43.000Z</time>
      </trkpt>
      <trkpt lat="47.75729" lon="-3.35491">
        <ele>4.5</ele>
        <time>2020-08-21T14:22:44.000Z</time>
      </trkpt>
      <trkpt lat="47.7573" lon="-3.35492">
        <ele>4.5</ele>
        <time>2020-08-21T14:22:45.000Z</time>
      </trkpt>
      <trkpt lat="47.75731" lon="-3.35492">
        <ele>4.3</ele>
        <time>2020-08-21T14:22:46.000Z</time>
      </trkpt>
      <trkpt lat="47.75731" lon="-3.35493">
        <ele>4.4</ele>
        <time>2020-08-21T14:22:47.000Z</time>
      </trkpt>
      <trkpt lat="47.75732" lon="-3.35494">
        <ele>4.3</ele>
        <time>2020-08-21T14:22:48.000Z</time>
      </trkpt>
      <trkpt lat="47.75733" lon="-3.35495">
        <ele>4.2</ele>
        <time>2020-08-21T14:22:49.000Z</time>
      </trkpt>
      <trkpt lat="47.75734" lon="-3.35496">
        <ele>4.1</ele>
        <time>2020-08-21T14:22:50.000Z</time>
      </trkpt>
      <trkpt lat="47.75735" lon="-3.35497">
        <ele>4</ele>
        <time>2020-08-21T14:22:51.000Z</time>
      </trkpt>
      <trkpt lat="47.75735" lon="-3.35499">
        <ele>4.1</ele>
        <time>2020-08-21T14:22:52.000Z</time>
      </trkpt>
      <trkpt lat="47.75736" lon="-3.355">
        <ele>4</ele>
        <time>2020-08-21T14:22:53.000Z</time>
      </trkpt>
      <trkpt lat="47.75737" lon="-3.35501">
        <ele>4</ele>
        <time>2020-08-21T14:22:54.000Z</time>
      </trkpt>
      <trkpt lat="47.75737" lon="-3.35502">
        <ele>4</ele>
        <time>2020-08-21T14:22:55.000Z</time>
      </trkpt>
      <trkpt lat="47.75738" lon="-3.35503">
        <ele>4</ele>
        <time>2020-08-21T14:22:56.000Z</time>
      </trkpt>
      <trkpt lat="47.75738" lon="-3.35504">
        <ele>4</ele>
        <time>2020-08-21T14:22:57.000Z</time>
      </trkpt>
      <trkpt lat="47.75739" lon="-3.35506">
        <ele>4</ele>
        <time>2020-08-21T14:22:58.000Z</time>
      </trkpt>
      <trkpt lat="47.75739" lon="-3.35507">
        <ele>4</ele>
        <time>2020-08-21T14:22:59.000Z</time>
      </trkpt>
      <trkpt lat="47.75739" lon="-3.35508">
        <ele>0.1</ele>
        <time>2020-08-21T14:23:00.000Z</time>
      </trkpt>
      <trkpt lat="47.75739" lon="-3.3551">
        <ele>0.1</ele>
        <time>2020-08-21T14:23:01.000Z</time>
      </trkpt>
      <trkpt lat="47.75739" lon="-3.35511">
        <ele>0.1</ele>
        <time>2020-08-21T14:23:02.000Z</time>
      </trkpt>
      <trkpt lat="47.75739" lon="-3.35513">
        <ele>0.1</ele>
        <time>2020-08-21T14:23:03.000Z</time>
      </trkpt>
      <trkpt lat="47.75739" lon="-3.35514">
        <ele>0.1</ele>
        <time>2020-08-21T14:23:04.000Z</time>
      </trkpt>
      <trkpt lat="47.75739" lon="-3.35516">
        <ele>0.1</ele>
        <time>2020-08-21T14:23:05.000Z</time>
      </trkpt>
      <trkpt lat="47.75739" lon="-3.35517">
        <ele>0.1</ele>
        <time>2020-08-21T14:23:06.000Z</time>
      </trkpt>
      <trkpt lat="47.75739" lon="-3.35519">
        <ele>0.1</ele>
        <time>2020-08-21T14:23:07.000Z</time>
      </trkpt>
      <trkpt lat="47.75739" lon="-3.35521">
        <ele>0.1</ele>
        <time>2020-08-21T14:23:08.000Z</time>
      </trkpt>
      <trkpt lat="47.75739" lon="-3.35522">
        <ele>0.1</ele>
        <time>2020-08-21T14:23:09.000Z</time>
      </trkpt>
      <trkpt lat="47.75739" lon="-3.35524">
        <ele>0.1</ele>
        <time>2020-08-21T14:23:10.000Z</time>
      </trkpt>
      <trkpt lat="47.75739" lon="-3.35525">
        <ele>0.2</ele>
        <time>2020-08-21T14:23:11.000Z</time>
      </trkpt>
      <trkpt lat="47.75739" lon="-3.35527">
        <ele>0.2</ele>
        <time>2020-08-21T14:23:12.000Z</time>
      </trkpt>
      <trkpt lat="47.7574" lon="-3.35528">
        <ele>0.2</ele>
        <time>2020-08-21T14:23:13.000Z</time>
      </trkpt>
      <trkpt lat="47.7574" lon="-3.3553">
        <ele>0.2</ele>
        <time>2020-08-21T14:23:14.000Z</time>
      </trkpt>
      <trkpt lat="47.7574" lon="-3.35532">
        <ele>0.2</ele>
        <time>2020-08-21T14:23:15.000Z</time>
      </trkpt>
      <trkpt lat="47.75741" lon="-3.35533">
        <ele>0.2</ele>
        <time>2020-08-21T14:23:16.000Z</time>
      </trkpt>
      <trkpt lat="47.75742" lon="-3.35535">
        <ele>0.2</ele>
        <time>2020-08-21T14:23:17.000Z</time>
      </trkpt>
      <trkpt lat="47.75742" lon="-3.35536">
        <ele>0.2</ele>
        <time>2020-08-21T14:23:18.000Z</time>
      </trkpt>
      <trkpt lat="47.75743" lon="-3.35538">
        <ele>0.1</ele>
        <time>2020-08-21T14:23:19.000Z</time>
      </trkpt>
      <trkpt lat="47.75744" lon="-3.35539">
        <ele>0.1</ele>
        <time>2020-08-21T14:23:20.000Z</time>
      </trkpt>
      <trkpt lat="47.75745" lon="-3.35541">
        <ele>0.1</ele>
        <time>2020-08-21T14:23:21.000Z</time>
      </trkpt>
      <trkpt lat="47.75746" lon="-3.35542">
        <ele>0.1</ele>
        <time>2020-08-21T14:23:22.000Z</time>
      </trkpt>
      <trkpt lat="47.75747" lon="-3.35543">
        <ele>0.1</ele>
        <time>2020-08-21T14:23:23.000Z</time>
      </trkpt>
      <trkpt lat="47.75749" lon="-3.35544">
        <ele>4</ele>
        <time>2020-08-21T14:23:24.000Z</time>
      </trkpt>
      <trkpt lat="47.7575" lon="-3.35545">
        <ele>4</ele>
        <time>2020-08-21T14:23:25.000Z</time>
      </trkpt>
      <trkpt lat="47.75751" lon="-3.35546">
        <ele>4.6</ele>
        <time>2020-08-21T14:23:26.000Z</time>
      </trkpt>
      <trkpt lat="47.75752" lon="-3.35547">
        <ele>4.5</ele>
        <time>2020-08-21T14:23:27.000Z</time>
      </trkpt>
      <trkpt lat="47.75753" lon="-3.35548">
        <ele>4.4</ele>
        <time>2020-08-21T14:23:28.000Z</time>
      </trkpt>
      <trkpt lat="47.75754" lon="-3.35549">
        <ele>4.4</ele>
        <time>2020-08-21T14:23:29.000Z</time>
      </trkpt>
      <trkpt lat="47.75755" lon="-3.3555">
        <ele>4.3</ele>
        <time>2020-08-21T14:23:30.000Z</time>
      </trkpt>
      <trkpt lat="47.75756" lon="-3.35551">
        <ele>4.2</ele>
        <time>2020-08-21T14:23:31.000Z</time>
      </trkpt>
      <trkpt lat="47.75757" lon="-3.35552">
        <ele>4.1</ele>
        <time>2020-08-21T14:23:32.000Z</time>
      </trkpt>
      <trkpt lat="47.75757" lon="-3.35553">
        <ele>4.2</ele>
        <time>2020-08-21T14:23:33.000Z</time>
      </trkpt>
      <trkpt lat="47.75758" lon="-3.35554">
        <ele>4.1</ele>
        <time>2020-08-21T14:23:34.000Z</time>
      </trkpt>
      <trkpt lat="47.75759" lon="-3.35556">
        <ele>4</ele>
        <time>2020-08-21T14:23:35.000Z</time>
      </trkpt>
      <trkpt lat="47.7576" lon="-3.35557">
        <ele>4</ele>
        <time>2020-08-21T14:23:36.000Z</time>
      </trkpt>
      <trkpt lat="47.75761" lon="-3.35559">
        <ele>4</ele>
        <time>2020-08-21T14:23:37.000Z</time>
      </trkpt>
      <trkpt lat="47.75762" lon="-3.3556">
        <ele>3.9</ele>
        <time>2020-08-21T14:23:38.000Z</time>
      </trkpt>
      <trkpt lat="47.75763" lon="-3.35561">
        <ele>3.9</ele>
        <time>2020-08-21T14:23:39.000Z</time>
      </trkpt>
      <trkpt lat="47.75763" lon="-3.35563">
        <ele>4</ele>
        <time>2020-08-21T14:23:40.000Z</time>
      </trkpt>
      <trkpt lat="47.75764" lon="-3.35564">
        <ele>3.9</ele>
        <time>2020-08-21T14:23:41.000Z</time>
      </trkpt>
      <trkpt lat="47.75765" lon="-3.35566">
        <ele>4</ele>
        <time>2020-08-21T14:23:42.000Z</time>
      </trkpt>
      <trkpt lat="47.75766" lon="-3.35567">
        <ele>4</ele>
        <time>2020-08-21T14:23:43.000Z</time>
      </trkpt>
      <trkpt lat="47.75766" lon="-3.35568">
        <ele>4</ele>
        <time>2020-08-21T14:23:44.000Z</time>
      </trkpt>
      <trkpt lat="47.75767" lon="-3.35569">
        <ele>4.1</ele>
        <time>2020-08-21T14:23:45.000Z</time>
      </trkpt>
      <trkpt lat="47.75768" lon="-3.3557">
        <ele>4.1</ele>
        <time>2020-08-21T14:23:46.000Z</time>
      </trkpt>
      <trkpt lat="47.75769" lon="-3.35571">
        <ele>4.1</ele>
        <time>2020-08-21T14:23:47.000Z</time>
      </trkpt>
      <trkpt lat="47.75769" lon="-3.35572">
        <ele>4.2</ele>
        <time>2020-08-21T14:23:48.000Z</time>
      </trkpt>
      <trkpt lat="47.7577" lon="-3.35573">
        <ele>4.2</ele>
        <time>2020-08-21T14:23:49.000Z</time>
      </trkpt>
      <trkpt lat="47.75771" lon="-3.35574">
        <ele>4.2</ele>
        <time>2020-08-21T14:23:50.000Z</time>
      </trkpt>
      <trkpt lat="47.75772" lon="-3.35574">
        <ele>4.2</ele>
        <time>2020-08-21T14:23:51.000Z</time>
      </trkpt>
      <trkpt lat="47.75772" lon="-3.35575">
        <ele>4.3</ele>
        <time>2020-08-21T14:23:52.000Z</time>
      </trkpt>
      <trkpt lat="47.75773" lon="-3.35576">
        <ele>4.3</ele>
        <time>2020-08-21T14:23:53.000Z</time>
      </trkpt>
      <trkpt lat="47.75774" lon="-3.35577">
        <ele>4.4</ele>
        <time>2020-08-21T14:23:54.000Z</time>
      </trkpt>
      <trkpt lat="47.75775" lon="-3.35578">
        <ele>4.5</ele>
        <time>2020-08-21T14:23:55.000Z</time>
      </trkpt>
      <trkpt lat="47.75775" lon="-3.35578">
        <ele>4.5</ele>
        <time>2020-08-21T14:23:56.000Z</time>
      </trkpt>
      <trkpt lat="47.75776" lon="-3.35579">
        <ele>4.6</ele>
        <time>2020-08-21T14:23:57.000Z</time>
      </trkpt>
      <trkpt lat="47.75777" lon="-3.3558">
        <ele>4.7</ele>
        <time>2020-08-21T14:23:58.000Z</time>
      </trkpt>
      <trkpt lat="47.75778" lon="-3.35581">
        <ele>4.7</ele>
        <time>2020-08-21T14:23:59.000Z</time>
      </trkpt>
      <trkpt lat="47.75778" lon="-3.35583">
        <ele>4.9</ele>
        <time>2020-08-21T14:24:00.000Z</time>
      </trkpt>
      <trkpt lat="47.75779" lon="-3.35584">
        <ele>6</ele>
        <time>2020-08-21T14:24:01.000Z</time>
      </trkpt>
      <trkpt lat="47.7578" lon="-3.35585">
        <ele>0.1</ele>
        <time>2020-08-21T14:24:02.000Z</time>
      </trkpt>
      <trkpt lat="47.7578" lon="-3.35586">
        <ele>0.1</ele>
        <time>2020-08-21T14:24:03.000Z</time>
      </trkpt>
      <trkpt lat="47.75781" lon="-3.35588">
        <ele>0.2</ele>
        <time>2020-08-21T14:24:04.000Z</time>
      </trkpt>
      <trkpt lat="47.75782" lon="-3.35589">
        <ele>0.3</ele>
        <time>2020-08-21T14:24:05.000Z</time>
      </trkpt>
      <trkpt lat="47.75783" lon="-3.35591">
        <ele>0.3</ele>
        <time>2020-08-21T14:24:06.000Z</time>
      </trkpt>
      <trkpt lat="47.75783" lon="-3.35592">
        <ele>0.4</ele>
        <time>2020-08-21T14:24:07.000Z</time>
      </trkpt>
      <trkpt lat="47.75784" lon="-3.35594">
        <ele>0.4</ele>
        <time>2020-08-21T14:24:08.000Z</time>
      </trkpt>
      <trkpt lat="47.75785" lon="-3.35595">
        <ele>0.5</ele>
        <time>2020-08-21T14:24:09.000Z</time>
      </trkpt>
      <trkpt lat="47.75785" lon="-3.35597">
        <ele>0.6</ele>
        <time>2020-08-21T14:24:10.000Z</time>
      </trkpt>
      <trkpt lat="47.75786" lon="-3.35598">
        <ele>0.6</ele>
        <time>2020-08-21T14:24:11.000Z</time>
      </trkpt>
      <trkpt lat="47.75787" lon="-3.356">
        <ele>0.7</ele>
        <time>2020-08-21T14:24:12.000Z</time>
      </trkpt>
      <trkpt lat="47.75787" lon="-3.35602">
        <ele>0.7</ele>
        <time>2020-08-21T14:24:13.000Z</time>
      </trkpt>
      <trkpt lat="47.75788" lon="-3.35603">
        <ele>0.8</ele>
        <time>2020-08-21T14:24:14.000Z</time>
      </trkpt>
      <trkpt lat="47.75788" lon="-3.35605">
        <ele>0.8</ele>
        <time>2020-08-21T14:24:15.000Z</time>
      </trkpt>
      <trkpt lat="47.75789" lon="-3.35606">
        <ele>0.9</ele>
        <time>2020-08-21T14:24:16.000Z</time>
      </trkpt>
      <trkpt lat="47.75789" lon="-3.35607">
        <ele>0.9</ele>
        <time>2020-08-21T14:24:17.000Z</time>
      </trkpt>
      <trkpt lat="47.7579" lon="-3.35609">
        <ele>1</ele>
        <time>2020-08-21T14:24:18.000Z</time>
      </trkpt>
      <trkpt lat="47.75791" lon="-3.3561">
        <ele>1</ele>
        <time>2020-08-21T14:24:19.000Z</time>
      </trkpt>
      <trkpt lat="47.75791" lon="-3.35612">
        <ele>1</ele>
        <time>2020-08-21T14:24:20.000Z</time>
      </trkpt>
      <trkpt lat="47.75792" lon="-3.35613">
        <ele>1.1</ele>
        <time>2020-08-21T14:24:21.000Z</time>
      </trkpt>
      <trkpt lat="47.75792" lon="-3.35614">
        <ele>1.1</ele>
        <time>2020-08-21T14:24:22.000Z</time>
      </trkpt>
      <trkpt lat="47.75793" lon="-3.35616">
        <ele>1.1</ele>
        <time>2020-08-21T14:24:23.000Z</time>
      </trkpt>
      <trkpt lat="47.75793" lon="-3.35617">
        <ele>1.2</ele>
        <time>2020-08-21T14:24:24.000Z</time>
      </trkpt>
      <trkpt lat="47.75794" lon="-3.35618">
        <ele>1.2</ele>
        <time>2020-08-21T14:24:25.000Z</time>
      </trkpt>
      <trkpt lat="47.75794" lon="-3.3562">
        <ele>1.2</ele>
        <time>2020-08-21T14:24:26.000Z</time>
      </trkpt>
      <trkpt lat="47.75795" lon="-3.35621">
        <ele>1.3</ele>
        <time>2020-08-21T14:24:27.000Z</time>
      </trkpt>
      <trkpt lat="47.75795" lon="-3.35622">
        <ele>1.3</ele>
        <time>2020-08-21T14:24:28.000Z</time>
      </trkpt>
      <trkpt lat="47.75796" lon="-3.35624">
        <ele>1.3</ele>
        <time>2020-08-21T14:24:29.000Z</time>
      </trkpt>
      <trkpt lat="47.75796" lon="-3.35625">
        <ele>1.3</ele>
        <time>2020-08-21T14:24:30.000Z</time>
      </trkpt>
      <trkpt lat="47.75797" lon="-3.35626">
        <ele>1.4</ele>
        <time>2020-08-21T14:24:31.000Z</time>
      </trkpt>
      <trkpt lat="47.75797" lon="-3.35627">
        <ele>1.4</ele>
        <time>2020-08-21T14:24:32.000Z</time>
      </trkpt>
      <trkpt lat="47.75798" lon="-3.35629">
        <ele>1.4</ele>
        <time>2020-08-21T14:24:33.000Z</time>
      </trkpt>
      <trkpt lat="47.75798" lon="-3.3563">
        <ele>1.4</ele>
        <time>2020-08-21T14:24:34.000Z</time>
      </trkpt>
      <trkpt lat="47.75799" lon="-3.35631">
        <ele>1.4</ele>
        <time>2020-08-21T14:24:35.000Z</time>
      </trkpt>
      <trkpt lat="47.75799" lon="-3.35633">
        <ele>1.5</ele>
        <time>2020-08-21T14:24:36.000Z</time>
      </trkpt>
      <trkpt lat="47.758" lon="-3.35634">
        <ele>1.5</ele>
        <time>2020-08-21T14:24:37.000Z</time>
      </trkpt>
      <trkpt lat="47.758" lon="-3.35635">
        <ele>1.5</ele>
        <time>2020-08-21T14:24:38.000Z</time>
      </trkpt>
      <trkpt lat="47.75801" lon="-3.35637">
        <ele>1.5</ele>
        <time>2020-08-21T14:24:39.000Z</time>
      </trkpt>
      <trkpt lat="47.75802" lon="-3.35638">
        <ele>1.5</ele>
        <time>2020-08-21T14:24:40.000Z</time>
      </trkpt>
      <trkpt lat="47.75802" lon="-3.35639">
        <ele>1.5</ele>
        <time>2020-08-21T14:24:41.000Z</time>
      </trkpt>
      <trkpt lat="47.75803" lon="-3.35641">
        <ele>1.5</ele>
        <time>2020-08-21T14:24:42.000Z</time>
      </trkpt>
      <trkpt lat="47.75804" lon="-3.35642">
        <ele>1.5</ele>
        <time>2020-08-21T14:24:43.000Z</time>
      </trkpt>
      <trkpt lat="47.75804" lon="-3.35644">
        <ele>1.5</ele>
        <time>2020-08-21T14:24:44.000Z</time>
      </trkpt>
      <trkpt lat="47.75805" lon="-3.35645">
        <ele>1.5</ele>
        <time>2020-08-21T14:24:45.000Z</time>
      </trkpt>
      <trkpt lat="47.75806" lon="-3.35646">
        <ele>1.5</ele>
        <time>2020-08-21T14:24:46.000Z</time>
      </trkpt>
      <trkpt lat="47.75806" lon="-3.35648">
        <ele>1.5</ele>
        <time>2020-08-21T14:24:47.000Z</time>
      </trkpt>
      <trkpt lat="47.75807" lon="-3.35649">
        <ele>1.5</ele>
        <time>2020-08-21T14:24:48.000Z</time>
      </trkpt>
      <trkpt lat="47.75808" lon="-3.35651">
        <ele>1.5</ele>
        <time>2020-08-21T14:24:49.000Z</time>
      </trkpt>
      <trkpt lat="47.75809" lon="-3.35652">
        <ele>1.5</ele>
        <time>2020-08-21T14:24:50.000Z</time>
      </trkpt>
      <trkpt lat="47.75809" lon="-3.35654">
        <ele>1.5</ele>
        <time>2020-08-21T14:24:51.000Z</time>
      </trkpt>
      <trkpt lat="47.7581" lon="-3.35655">
        <ele>1.5</ele>
        <time>2020-08-21T14:24:52.000Z</time>
      </trkpt>
      <trkpt lat="47.75811" lon="-3.35657">
        <ele>1.4</ele>
        <time>2020-08-21T14:24:53.000Z</time>
      </trkpt>
      <trkpt lat="47.75811" lon="-3.35659">
        <ele>1.4</ele>
        <time>2020-08-21T14:24:54.000Z</time>
      </trkpt>
      <trkpt lat="47.75812" lon="-3.3566">
        <ele>1.4</ele>
        <time>2020-08-21T14:24:55.000Z</time>
      </trkpt>
      <trkpt lat="47.75812" lon="-3.35662">
        <ele>1.4</ele>
        <time>2020-08-21T14:24:56.000Z</time>
      </trkpt>
      <trkpt lat="47.75813" lon="-3.35663">
        <ele>1.4</ele>
        <time>2020-08-21T14:24:57.000Z</time>
      </trkpt>
      <trkpt lat="47.75813" lon="-3.35665">
        <ele>1.4</ele>
        <time>2020-08-21T14:24:58.000Z</time>
      </trkpt>
      <trkpt lat="47.75814" lon="-3.35667">
        <ele>1.4</ele>
        <time>2020-08-21T14:24:59.000Z</time>
      </trkpt>
      <trkpt lat="47.75814" lon="-3.35668">
        <ele>1.4</ele>
        <time>2020-08-21T14:25:00.000Z</time>
      </trkpt>
      <trkpt lat="47.75815" lon="-3.3567">
        <ele>1.4</ele>
        <time>2020-08-21T14:25:01.000Z</time>
      </trkpt>
      <trkpt lat="47.75815" lon="-3.35671">
        <ele>1.3</ele>
        <time>2020-08-21T14:25:02.000Z</time>
      </trkpt>
      <trkpt lat="47.75815" lon="-3.35673">
        <ele>1.3</ele>
        <time>2020-08-21T14:25:03.000Z</time>
      </trkpt>
      <trkpt lat="47.75816" lon="-3.35674">
        <ele>1.3</ele>
        <time>2020-08-21T14:25:04.000Z</time>
      </trkpt>
      <trkpt lat="47.75816" lon="-3.35675">
        <ele>1.3</ele>
        <time>2020-08-21T14:25:05.000Z</time>
      </trkpt>
      <trkpt lat="47.75817" lon="-3.35676">
        <ele>1.2</ele>
        <time>2020-08-21T14:25:06.000Z</time>
      </trkpt>
      <trkpt lat="47.75817" lon="-3.35677">
        <ele>1.2</ele>
        <time>2020-08-21T14:25:07.000Z</time>
      </trkpt>
      <trkpt lat="47.75818" lon="-3.35678">
        <ele>1.2</ele>
        <time>2020-08-21T14:25:08.000Z</time>
      </trkpt>
      <trkpt lat="47.75818" lon="-3.35679">
        <ele>1.1</ele>
        <time>2020-08-21T14:25:09.000Z</time>
      </trkpt>
      <trkpt lat="47.75819" lon="-3.35679">
        <ele>1.1</ele>
        <time>2020-08-21T14:25:10.000Z</time>
      </trkpt>
      <trkpt lat="47.75819" lon="-3.3568">
        <ele>1.1</ele>
        <time>2020-08-21T14:25:11.000Z</time>
      </trkpt>
      <trkpt lat="47.7582" lon="-3.35681">
        <ele>1</ele>
        <time>2020-08-21T14:25:12.000Z</time>
      </trkpt>
      <trkpt lat="47.7582" lon="-3.35682">
        <ele>1</ele>
        <time>2020-08-21T14:25:13.000Z</time>
      </trkpt>
      <trkpt lat="47.75821" lon="-3.35684">
        <ele>1</ele>
        <time>2020-08-21T14:25:14.000Z</time>
      </trkpt>
      <trkpt lat="47.75821" lon="-3.35685">
        <ele>0.9</ele>
        <time>2020-08-21T14:25:15.000Z</time>
      </trkpt>
      <trkpt lat="47.75822" lon="-3.35686">
        <ele>0.9</ele>
        <time>2020-08-21T14:25:16.000Z</time>
      </trkpt>
      <trkpt lat="47.75823" lon="-3.35687">
        <ele>0.8</ele>
        <time>2020-08-21T14:25:17.000Z</time>
      </trkpt>
      <trkpt lat="47.75823" lon="-3.35689">
        <ele>0.8</ele>
        <time>2020-08-21T14:25:18.000Z</time>
      </trkpt>
      <trkpt lat="47.75824" lon="-3.3569">
        <ele>0.7</ele>
        <time>2020-08-21T14:25:19.000Z</time>
      </trkpt>
      <trkpt lat="47.75825" lon="-3.35691">
        <ele>0.7</ele>
        <time>2020-08-21T14:25:20.000Z</time>
      </trkpt>
      <trkpt lat="47.75825" lon="-3.35693">
        <ele>0.6</ele>
        <time>2020-08-21T14:25:21.000Z</time>
      </trkpt>
      <trkpt lat="47.75826" lon="-3.35694">
        <ele>0.6</ele>
        <time>2020-08-21T14:25:22.000Z</time>
      </trkpt>
      <trkpt lat="47.75827" lon="-3.35696">
        <ele>0.5</ele>
        <time>2020-08-21T14:25:23.000Z</time>
      </trkpt>
      <trkpt lat="47.75827" lon="-3.35697">
        <ele>0.5</ele>
        <time>2020-08-21T14:25:24.000Z</time>
      </trkpt>
      <trkpt lat="47.75828" lon="-3.35699">
        <ele>0.4</ele>
        <time>2020-08-21T14:25:25.000Z</time>
      </trkpt>
      <trkpt lat="47.75829" lon="-3.357">
        <ele>0.4</ele>
        <time>2020-08-21T14:25:26.000Z</time>
      </trkpt>
      <trkpt lat="47.75829" lon="-3.35701">
        <ele>0.3</ele>
        <time>2020-08-21T14:25:27.000Z</time>
      </trkpt>
      <trkpt lat="47.7583" lon="-3.35703">
        <ele>0.3</ele>
        <time>2020-08-21T14:25:28.000Z</time>
      </trkpt>
      <trkpt lat="47.75831" lon="-3.35704">
        <ele>0.2</ele>
        <time>2020-08-21T14:25:29.000Z</time>
      </trkpt>
      <trkpt lat="47.75832" lon="-3.35706">
        <ele>0.2</ele>
        <time>2020-08-21T14:25:30.000Z</time>
      </trkpt>
      <trkpt lat="47.75832" lon="-3.35707">
        <ele>0.1</ele>
        <time>2020-08-21T14:25:31.000Z</time>
      </trkpt>
      <trkpt lat="47.75833" lon="-3.35709">
        <ele>7</ele>
        <time>2020-08-21T14:25:32.000Z</time>
      </trkpt>
      <trkpt lat="47.75834" lon="-3.3571">
        <ele>4.9</ele>
        <time>2020-08-21T14:25:33.000Z</time>
      </trkpt>
      <trkpt lat="47.75834" lon="-3.35712">
        <ele>4.9</ele>
        <time>2020-08-21T14:25:34.000Z</time>
      </trkpt>
      <trkpt lat="47.75835" lon="-3.35713">
        <ele>4.8</ele>
        <time>2020-08-21T14:25:35.000Z</time>
      </trkpt>
      <trkpt lat="47.75836" lon="-3.35715">
        <ele>4.7</ele>
        <time>2020-08-21T14:25:36.000Z</time>
      </trkpt>
      <trkpt lat="47.75837" lon="-3.35716">
        <ele>4.6</ele>
        <time>2020-08-21T14:25:37.000Z</time>
      </trkpt>
      <trkpt lat="47.75837" lon="-3.35718">
        <ele>4.6</ele>
        <time>2020-08-21T14:25:38.000Z</time>
      </trkpt>
      <trkpt lat="47.75838" lon="-3.35719">
        <ele>4.5</ele>
        <time>2020-08-21T14:25:39.000Z</time>
      </trkpt>
      <trkpt lat="47.75839" lon="-3.35721">
        <ele>4.4</ele>
        <time>2020-08-21T14:25:40.000Z</time>
      </trkpt>
      <trkpt lat="47.75839" lon="-3.35722">
        <ele>4.4</ele>
        <time>2020-08-21T14:25:41.000Z</time>
      </trkpt>
      <trkpt lat="47.7584" lon="-3.35724">
        <ele>4.3</ele>
        <time>2020-08-21T14:25:42.000Z</time>
      </trkpt>
      <trkpt lat="47.7584" lon="-3.35725">
        <ele>4.3</ele>
        <time>2020-08-21T14:25:43.000Z</time>
      </trkpt>
      <trkpt lat="47.75841" lon="-3.35727">
        <ele>4.2</ele>
        <time>2020-08-21T14:25:44.000Z</time>
      </trkpt>
      <trkpt lat="47.75842" lon="-3.35728">
        <ele>4.1</ele>
        <time>2020-08-21T14:25:45.000Z</time>
      </trkpt>
      <trkpt lat="47.75842" lon="-3.3573">
        <ele>4.1</ele>
        <time>2020-08-21T14:25:46.000Z</time>
      </trkpt>
      <trkpt lat="47.75843" lon="-3.35731">
        <ele>4</ele>
        <time>2020-08-21T14:25:47.000Z</time>
      </trkpt>
      <trkpt lat="47.75843" lon="-3.35733">
        <ele>4</ele>
        <time>2020-08-21T14:25:48.000Z</time>
      </trkpt>
      <trkpt lat="47.75844" lon="-3.35734">
        <ele>3.8</ele>
        <time>2020-08-21T14:25:49.000Z</time>
      </trkpt>
      <trkpt lat="47.75844" lon="-3.35736">
        <ele>3.8</ele>
        <time>2020-08-21T14:25:50.000Z</time>
      </trkpt>
      <trkpt lat="47.75845" lon="-3.35737">
        <ele>3.7</ele>
        <time>2020-08-21T14:25:51.000Z</time>
      </trkpt>
      <trkpt lat="47.75845" lon="-3.35739">
        <ele>3.7</ele>
        <time>2020-08-21T14:25:52.000Z</time>
      </trkpt>
      <trkpt lat="47.75845" lon="-3.3574">
        <ele>3.7</ele>
        <time>2020-08-21T14:25:53.000Z</time>
      </trkpt>
      <trkpt lat="47.75846" lon="-3.35742">
        <ele>3.6</ele>
        <time>2020-08-21T14:25:54.000Z</time>
      </trkpt>
      <trkpt lat="47.75846" lon="-3.35743">
        <ele>3.6</ele>
        <time>2020-08-21T14:25:55.000Z</time>
      </trkpt>
      <trkpt lat="47.75847" lon="-3.35745">
        <ele>3.5</ele>
        <time>2020-08-21T14:25:56.000Z</time>
      </trkpt>
      <trkpt lat="47.75847" lon="-3.35746">
        <ele>3.5</ele>
        <time>2020-08-21T14:25:57.000Z</time>
      </trkpt>
      <trkpt lat="47.75847" lon="-3.35748">
        <ele>3.5</ele>
        <time>2020-08-21T14:25:58.000Z</time>
      </trkpt>
      <trkpt lat="47.75848" lon="-3.35749">
        <ele>3.4</ele>
        <time>2020-08-21T14:25:59.000Z</time>
      </trkpt>
      <trkpt lat="47.75848" lon="-3.35751">
        <ele>3.4</ele>
        <time>2020-08-21T14:26:00.000Z</time>
      </trkpt>
      <trkpt lat="47.75848" lon="-3.35752">
        <ele>3.4</ele>
        <time>2020-08-21T14:26:01.000Z</time>
      </trkpt>
      <trkpt lat="47.75849" lon="-3.35754">
        <ele>3.4</ele>
        <time>2020-08-21T14:26:02.000Z</time>
      </trkpt>
      <trkpt lat="47.75849" lon="-3.35755">
        <ele>3.4</ele>
        <time>2020-08-21T14:26:03.000Z</time>
      </trkpt>
      <trkpt lat="47.75849" lon="-3.35757">
        <ele>3.4</ele>
        <time>2020-08-21T14:26:04.000Z</time>
      </trkpt>
      <trkpt lat="47.75849" lon="-3.35758">
        <ele>3.4</ele>
        <time>2020-08-21T14:26:05.000Z</time>
      </trkpt>
      <trkpt lat="47.7585" lon="-3.3576">
        <ele>3.3</ele>
        <time>2020-08-21T14:26:06.000Z</time>
      </trkpt>
      <trkpt lat="47.7585" lon="-3.35761">
        <ele>3.4</ele>
        <time>2020-08-21T14:26:07.000Z</time>
      </trkpt>
      <trkpt lat="47.7585" lon="-3.35763">
        <ele>3.4</ele>
        <time>2020-08-21T14:26:08.000Z</time>
      </trkpt>
      <trkpt lat="47.7585" lon="-3.35764">
        <ele>3.4</ele>
        <time>2020-08-21T14:26:09.000Z</time>
      </trkpt>
      <trkpt lat="47.7585" lon="-3.35766">
        <ele>3.4</ele>
        <time>2020-08-21T14:26:10.000Z</time>
      </trkpt>
      <trkpt lat="47.75851" lon="-3.35767">
        <ele>3.3</ele>
        <time>2020-08-21T14:26:11.000Z</time>
      </trkpt>
      <trkpt lat="47.75851" lon="-3.35769">
        <ele>3.3</ele>
        <time>2020-08-21T14:26:12.000Z</time>
      </trkpt>
      <trkpt lat="47.75851" lon="-3.3577">
        <ele>3.4</ele>
        <time>2020-08-21T14:26:13.000Z</time>
      </trkpt>
      <trkpt lat="47.75851" lon="-3.35772">
        <ele>3.4</ele>
        <time>2020-08-21T14:26:14.000Z</time>
      </trkpt>
      <trkpt lat="47.75851" lon="-3.35773">
        <ele>3.4</ele>
        <time>2020-08-21T14:26:15.000Z</time>
      </trkpt>
      <trkpt lat="47.75851" lon="-3.35775">
        <ele>3.4</ele>
        <time>2020-08-21T14:26:16.000Z</time>
      </trkpt>
      <trkpt lat="47.75851" lon="-3.35776">
        <ele>3.4</ele>
        <time>2020-08-21T14:26:17.000Z</time>
      </trkpt>
      <trkpt lat="47.75851" lon="-3.35778">
        <ele>3.5</ele>
        <time>2020-08-21T14:26:18.000Z</time>
      </trkpt>
      <trkpt lat="47.75851" lon="-3.35779">
        <ele>3.5</ele>
        <time>2020-08-21T14:26:19.000Z</time>
      </trkpt>
      <trkpt lat="47.75851" lon="-3.35781">
        <ele>3.5</ele>
        <time>2020-08-21T14:26:20.000Z</time>
      </trkpt>
      <trkpt lat="47.75852" lon="-3.35782">
        <ele>3.4</ele>
        <time>2020-08-21T14:26:21.000Z</time>
      </trkpt>
      <trkpt lat="47.75852" lon="-3.35784">
        <ele>3.4</ele>
        <time>2020-08-21T14:26:22.000Z</time>
      </trkpt>
      <trkpt lat="47.75852" lon="-3.35785">
        <ele>3.4</ele>
        <time>2020-08-21T14:26:23.000Z</time>
      </trkpt>
      <trkpt lat="47.75852" lon="-3.35787">
        <ele>3.4</ele>
        <time>2020-08-21T14:26:24.000Z</time>
      </trkpt>
      <trkpt lat="47.75852" lon="-3.35789">
        <ele>3.4</ele>
        <time>2020-08-21T14:26:25.000Z</time>
      </trkpt>
      <trkpt lat="47.75852" lon="-3.3579">
        <ele>3.5</ele>
        <time>2020-08-21T14:26:26.000Z</time>
      </trkpt>
      <trkpt lat="47.75852" lon="-3.35792">
        <ele>3.5</ele>
        <time>2020-08-21T14:26:27.000Z</time>
      </trkpt>
      <trkpt lat="47.75852" lon="-3.35794">
        <ele>3.5</ele>
        <time>2020-08-21T14:26:28.000Z</time>
      </trkpt>
      <trkpt lat="47.75852" lon="-3.35795">
        <ele>3.5</ele>
        <time>2020-08-21T14:26:29.000Z</time>
      </trkpt>
      <trkpt lat="47.75853" lon="-3.35797">
        <ele>3.4</ele>
        <time>2020-08-21T14:26:30.000Z</time>
      </trkpt>
      <trkpt lat="47.75853" lon="-3.35799">
        <ele>3.4</ele>
        <time>2020-08-21T14:26:31.000Z</time>
      </trkpt>
      <trkpt lat="47.75853" lon="-3.358">
        <ele>3.4</ele>
        <time>2020-08-21T14:26:32.000Z</time>
      </trkpt>
      <trkpt lat="47.75853" lon="-3.35802">
        <ele>3.4</ele>
        <time>2020-08-21T14:26:33.000Z</time>
      </trkpt>
      <trkpt lat="47.75853" lon="-3.35804">
        <ele>3.4</ele>
        <time>2020-08-21T14:26:34.000Z</time>
      </trkpt>
      <trkpt lat="47.75853" lon="-3.35806">
        <ele>3.5</ele>
        <time>2020-08-21T14:26:35.000Z</time>
      </trkpt>
      <trkpt lat="47.75854" lon="-3.35807">
        <ele>3.4</ele>
        <time>2020-08-21T14:26:36.000Z</time>
      </trkpt>
      <trkpt lat="47.75854" lon="-3.35809">
        <ele>3.5</ele>
        <time>2020-08-21T14:26:37.000Z</time>
      </trkpt>
      <trkpt lat="47.75854" lon="-3.35811">
        <ele>3.6</ele>
        <time>2020-08-21T14:26:38.000Z</time>
      </trkpt>
      <trkpt lat="47.75854" lon="-3.35812">
        <ele>3.6</ele>
        <time>2020-08-21T14:26:39.000Z</time>
      </trkpt>
      <trkpt lat="47.75854" lon="-3.35814">
        <ele>3.7</ele>
        <time>2020-08-21T14:26:40.000Z</time>
      </trkpt>
      <trkpt lat="47.75854" lon="-3.35816">
        <ele>3.8</ele>
        <time>2020-08-21T14:26:41.000Z</time>
      </trkpt>
      <trkpt lat="47.75854" lon="-3.35818">
        <ele>3.9</ele>
        <time>2020-08-21T14:26:42.000Z</time>
      </trkpt>
      <trkpt lat="47.75855" lon="-3.35819">
        <ele>3.9</ele>
        <time>2020-08-21T14:26:43.000Z</time>
      </trkpt>
      <trkpt lat="47.75855" lon="-3.35821">
        <ele>4</ele>
        <time>2020-08-21T14:26:44.000Z</time>
      </trkpt>
      <trkpt lat="47.75855" lon="-3.35823">
        <ele>4.1</ele>
        <time>2020-08-21T14:26:45.000Z</time>
      </trkpt>
      <trkpt lat="47.75855" lon="-3.35824">
        <ele>4.1</ele>
        <time>2020-08-21T14:26:46.000Z</time>
      </trkpt>
      <trkpt lat="47.75855" lon="-3.35826">
        <ele>4.2</ele>
        <time>2020-08-21T14:26:47.000Z</time>
      </trkpt>
      <trkpt lat="47.75855" lon="-3.35828">
        <ele>4.4</ele>
        <time>2020-08-21T14:26:48.000Z</time>
      </trkpt>
      <trkpt lat="47.75855" lon="-3.35829">
        <ele>4.4</ele>
        <time>2020-08-21T14:26:49.000Z</time>
      </trkpt>
      <trkpt lat="47.75856" lon="-3.35831">
        <ele>4.4</ele>
        <time>2020-08-21T14:26:50.000Z</time>
      </trkpt>
      <trkpt lat="47.75856" lon="-3.35833">
        <ele>4.5</ele>
        <time>2020-08-21T14:26:51.000Z</time>
      </trkpt>
      <trkpt lat="47.75856" lon="-3.35834">
        <ele>5</ele>
        <time>2020-08-21T14:26:52.000Z</time>
      </trkpt>
      <trkpt lat="47.75856" lon="-3.35836">
        <ele>0.1</ele>
        <time>2020-08-21T14:26:53.000Z</time>
      </trkpt>
      <trkpt lat="47.75856" lon="-3.35838">
        <ele>0.2</ele>
        <time>2020-08-21T14:26:54.000Z</time>
      </trkpt>
      <trkpt lat="47.75856" lon="-3.35839">
        <ele>0.3</ele>
        <time>2020-08-21T14:26:55.000Z</time>
      </trkpt>
      <trkpt lat="47.75856" lon="-3.35841">
        <ele>0.3</ele>
        <time>2020-08-21T14:26:56.000Z</time>
      </trkpt>
      <trkpt lat="47.75857" lon="-3.35842">
        <ele>0.4</ele>
        <time>2020-08-21T14:26:57.000Z</time>
      </trkpt>
      <trkpt lat="47.75857" lon="-3.35844">
        <ele>0.5</ele>
        <time>2020-08-21T14:26:58.000Z</time>
      </trkpt>
      <trkpt lat="47.75857" lon="-3.35846">
        <ele>0.5</ele>
        <time>2020-08-21T14:26:59.000Z</time>
      </trkpt>
      <trkpt lat="47.75857" lon="-3.35847">
        <ele>0.6</ele>
        <time>2020-08-21T14:27:00.000Z</time>
      </trkpt>
      <trkpt lat="47.75857" lon="-3.35849">
        <ele>0.7</ele>
        <time>2020-08-21T14:27:01.000Z</time>
      </trkpt>
      <trkpt lat="47.75857" lon="-3.3585">
        <ele>0.7</ele>
        <time>2020-08-21T14:27:02.000Z</time>
      </trkpt>
      <trkpt lat="47.75857" lon="-3.35852">
        <ele>0.8</ele>
        <time>2020-08-21T14:27:03.000Z</time>
      </trkpt>
      <trkpt lat="47.75857" lon="-3.35854">
        <ele>0.9</ele>
        <time>2020-08-21T14:27:04.000Z</time>
      </trkpt>
      <trkpt lat="47.75857" lon="-3.35855">
        <ele>0.9</ele>
        <time>2020-08-21T14:27:05.000Z</time>
      </trkpt>
      <trkpt lat="47.75858" lon="-3.35857">
        <ele>1</ele>
        <time>2020-08-21T14:27:06.000Z</time>
      </trkpt>
      <trkpt lat="47.75858" lon="-3.35858">
        <ele>1.1</ele>
        <time>2020-08-21T14:27:07.000Z</time>
      </trkpt>
      <trkpt lat="47.75858" lon="-3.3586">
        <ele>1.1</ele>
        <time>2020-08-21T14:27:08.000Z</time>
      </trkpt>
      <trkpt lat="47.75858" lon="-3.35862">
        <ele>1.2</ele>
        <time>2020-08-21T14:27:09.000Z</time>
      </trkpt>
      <trkpt lat="47.75858" lon="-3.35863">
        <ele>1.3</ele>
        <time>2020-08-21T14:27:10.000Z</time>
      </trkpt>
      <trkpt lat="47.75858" lon="-3.35865">
        <ele>1.3</ele>
        <time>2020-08-21T14:27:11.000Z</time>
      </trkpt>
      <trkpt lat="47.75858" lon="-3.35866">
        <ele>1.4</ele>
        <time>2020-08-21T14:27:12.000Z</time>
      </trkpt>
      <trkpt lat="47.75858" lon="-3.35868">
        <ele>1.5</ele>
        <time>2020-08-21T14:27:13.000Z</time>
      </trkpt>
      <trkpt lat="47.75858" lon="-3.35869">
        <ele>1.5</ele>
        <time>2020-08-21T14:27:14.000Z</time>
      </trkpt>
      <trkpt lat="47.75858" lon="-3.35871">
        <ele>1.6</ele>
        <time>2020-08-21T14:27:15.000Z</time>
      </trkpt>
      <trkpt lat="47.75858" lon="-3.35873">
        <ele>1.6</ele>
        <time>2020-08-21T14:27:16.000Z</time>
      </trkpt>
      <trkpt lat="47.75859" lon="-3.35874">
        <ele>1.7</ele>
        <time>2020-08-21T14:27:17.000Z</time>
      </trkpt>
      <trkpt lat="47.75859" lon="-3.35876">
        <ele>1.8</ele>
        <time>2020-08-21T14:27:18.000Z</time>
      </trkpt>
      <trkpt lat="47.75859" lon="-3.35877">
        <ele>1.8</ele>
        <time>2020-08-21T14:27:19.000Z</time>
      </trkpt>
      <trkpt lat="47.75859" lon="-3.35879">
        <ele>1.9</ele>
        <time>2020-08-21T14:27:20.000Z</time>
      </trkpt>
      <trkpt lat="47.75859" lon="-3.35881">
        <ele>2</ele>
        <time>2020-08-21T14:27:21.000Z</time>
      </trkpt>
      <trkpt lat="47.75859" lon="-3.35882">
        <ele>2</ele>
        <time>2020-08-21T14:27:22.000Z</time>
      </trkpt>
      <trkpt lat="47.75859" lon="-3.35884">
        <ele>2.1</ele>
        <time>2020-08-21T14:27:23.000Z</time>
      </trkpt>
      <trkpt lat="47.75859" lon="-3.35885">
        <ele>2.2</ele>
        <time>2020-08-21T14:27:24.000Z</time>
      </trkpt>
      <trkpt lat="47.75859" lon="-3.35887">
        <ele>2.2</ele>
        <time>2020-08-21T14:27:25.000Z</time>
      </trkpt>
      <trkpt lat="47.75859" lon="-3.35889">
        <ele>2.3</ele>
        <time>2020-08-21T14:27:26.000Z</time>
      </trkpt>
      <trkpt lat="47.75859" lon="-3.3589">
        <ele>2.4</ele>
        <time>2020-08-21T14:27:27.000Z</time>
      </trkpt>
      <trkpt lat="47.75859" lon="-3.35892">
        <ele>2.4</ele>
        <time>2020-08-21T14:27:28.000Z</time>
      </trkpt>
      <trkpt lat="47.75859" lon="-3.35893">
        <ele>2.5</ele>
        <time>2020-08-21T14:27:29.000Z</time>
      </trkpt>
      <trkpt lat="47.75859" lon="-3.35895">
        <ele>2.6</ele>
        <time>2020-08-21T14:27:30.000Z</time>
      </trkpt>
      <trkpt lat="47.75859" lon="-3.35897">
        <ele>2.6</ele>
        <time>2020-08-21T14:27:31.000Z</time>
      </trkpt>
      <trkpt lat="47.75859" lon="-3.35898">
        <ele>2.7</ele>
        <time>2020-08-21T14:27:32.000Z</time>
      </trkpt>
      <trkpt lat="47.75859" lon="-3.359">
        <ele>2.8</ele>
        <time>2020-08-21T14:27:33.000Z</time>
      </trkpt>
      <trkpt lat="47.75859" lon="-3.35902">
        <ele>2.9</ele>
        <time>2020-08-21T14:27:34.000Z</time>
      </trkpt>
      <trkpt lat="47.75859" lon="-3.35904">
        <ele>2.9</ele>
        <time>2020-08-21T14:27:35.000Z</time>
      </trkpt>
      <trkpt lat="47.75859" lon="-3.35905">
        <ele>3</ele>
        <time>2020-08-21T14:27:36.000Z</time>
      </trkpt>
      <trkpt lat="47.75859" lon="-3.35907">
        <ele>3.1</ele>
        <time>2020-08-21T14:27:37.000Z</time>
      </trkpt>
      <trkpt lat="47.75858" lon="-3.35909">
        <ele>3.2</ele>
        <time>2020-08-21T14:27:38.000Z</time>
      </trkpt>
      <trkpt lat="47.75858" lon="-3.35911">
        <ele>3.2</ele>
        <time>2020-08-21T14:27:39.000Z</time>
      </trkpt>
      <trkpt lat="47.75858" lon="-3.35912">
        <ele>3.3</ele>
        <time>2020-08-21T14:27:40.000Z</time>
      </trkpt>
      <trkpt lat="47.75858" lon="-3.35914">
        <ele>3.4</ele>
        <time>2020-08-21T14:27:41.000Z</time>
      </trkpt>
      <trkpt lat="47.75858" lon="-3.35916">
        <ele>3.5</ele>
        <time>2020-08-21T14:27:42.000Z</time>
      </trkpt>
      <trkpt lat="47.75858" lon="-3.35918">
        <ele>3.6</ele>
        <time>2020-08-21T14:27:43.000Z</time>
      </trkpt>
      <trkpt lat="47.75858" lon="-3.3592">
        <ele>3.6</ele>
        <time>2020-08-21T14:27:44.000Z</time>
      </trkpt>
      <trkpt lat="47.75858" lon="-3.35922">
        <ele>3.6</ele>
        <time>2020-08-21T14:27:45.000Z</time>
      </trkpt>
      <trkpt lat="47.75857" lon="-3.35924">
        <ele>3.7</ele>
        <time>2020-08-21T14:27:46.000Z</time>
      </trkpt>
      <trkpt lat="47.75857" lon="-3.35926">
        <ele>3.7</ele>
        <time>2020-08-21T14:27:47.000Z</time>
      </trkpt>
      <trkpt lat="47.75857" lon="-3.35928">
        <ele>3.8</ele>
        <time>2020-08-21T14:27:48.000Z</time>
      </trkpt>
      <trkpt lat="47.75857" lon="-3.35929">
        <ele>3.8</ele>
        <time>2020-08-21T14:27:49.000Z</time>
      </trkpt>
      <trkpt lat="47.75857" lon="-3.35931">
        <ele>3.8</ele>
        <time>2020-08-21T14:27:50.000Z</time>
      </trkpt>
      <trkpt lat="47.75857" lon="-3.35933">
        <ele>3.8</ele>
        <time>2020-08-21T14:27:51.000Z</time>
      </trkpt>
      <trkpt lat="47.75857" lon="-3.35935">
        <ele>3.9</ele>
        <time>2020-08-21T14:27:52.000Z</time>
      </trkpt>
      <trkpt lat="47.75858" lon="-3.35936">
        <ele>3.9</ele>
        <time>2020-08-21T14:27:53.000Z</time>
      </trkpt>
      <trkpt lat="47.75858" lon="-3.35938">
        <ele>3.9</ele>
        <time>2020-08-21T14:27:54.000Z</time>
      </trkpt>
      <trkpt lat="47.75858" lon="-3.35939">
        <ele>3.9</ele>
        <time>2020-08-21T14:27:55.000Z</time>
      </trkpt>
      <trkpt lat="47.75858" lon="-3.35941">
        <ele>3.9</ele>
        <time>2020-08-21T14:27:56.000Z</time>
      </trkpt>
      <trkpt lat="47.75859" lon="-3.35942">
        <ele>3.9</ele>
        <time>2020-08-21T14:27:57.000Z</time>
      </trkpt>
      <trkpt lat="47.75859" lon="-3.35944">
        <ele>3.9</ele>
        <time>2020-08-21T14:27:58.000Z</time>
      </trkpt>
      <trkpt lat="47.75859" lon="-3.35946">
        <ele>3.9</ele>
        <time>2020-08-21T14:27:59.000Z</time>
      </trkpt>
      <trkpt lat="47.75859" lon="-3.35947">
        <ele>4</ele>
        <time>2020-08-21T14:28:00.000Z</time>
      </trkpt>
      <trkpt lat="47.75859" lon="-3.35949">
        <ele>4</ele>
        <time>2020-08-21T14:28:01.000Z</time>
      </trkpt>
      <trkpt lat="47.75859" lon="-3.35951">
        <ele>4</ele>
        <time>2020-08-21T14:28:02.000Z</time>
      </trkpt>
      <trkpt lat="47.75859" lon="-3.35952">
        <ele>4</ele>
        <time>2020-08-21T14:28:03.000Z</time>
      </trkpt>
      <trkpt lat="47.75859" lon="-3.35954">
        <ele>4.1</ele>
        <time>2020-08-21T14:28:04.000Z</time>
      </trkpt>
      <trkpt lat="47.75859" lon="-3.35956">
        <ele>4.1</ele>
        <time>2020-08-21T14:28:05.000Z</time>
      </trkpt>
      <trkpt lat="47.75859" lon="-3.35958">
        <ele>4.1</ele>
        <time>2020-08-21T14:28:06.000Z</time>
      </trkpt>
      <trkpt lat="47.75859" lon="-3.3596">
        <ele>4.2</ele>
        <time>2020-08-21T14:28:07.000Z</time>
      </trkpt>
      <trkpt lat="47.75859" lon="-3.35962">
        <ele>4.2</ele>
        <time>2020-08-21T14:28:08.000Z</time>
      </trkpt>
      <trkpt lat="47.75859" lon="-3.35964">
        <ele>4.3</ele>
        <time>2020-08-21T14:28:09.000Z</time>
      </trkpt>
      <trkpt lat="47.75859" lon="-3.35966">
        <ele>4.3</ele>
        <time>2020-08-21T14:28:10.000Z</time>
      </trkpt>
      <trkpt lat="47.75859" lon="-3.35968">
        <ele>4.3</ele>
        <time>2020-08-21T14:28:11.000Z</time>
      </trkpt>
      <trkpt lat="47.75859" lon="-3.3597">
        <ele>4.4</ele>
        <time>2020-08-21T14:28:12.000Z</time>
      </trkpt>
      <trkpt lat="47.75859" lon="-3.35971">
        <ele>4.4</ele>
        <time>2020-08-21T14:28:13.000Z</time>
      </trkpt>
      <trkpt lat="47.75859" lon="-3.35973">
        <ele>4.4</ele>
        <time>2020-08-21T14:28:14.000Z</time>
      </trkpt>
      <trkpt lat="47.75859" lon="-3.35975">
        <ele>4.4</ele>
        <time>2020-08-21T14:28:15.000Z</time>
      </trkpt>
      <trkpt lat="47.75859" lon="-3.35976">
        <ele>4.4</ele>
        <time>2020-08-21T14:28:16.000Z</time>
      </trkpt>
      <trkpt lat="47.75859" lon="-3.35978">
        <ele>4.5</ele>
        <time>2020-08-21T14:28:17.000Z</time>
      </trkpt>
      <trkpt lat="47.75859" lon="-3.35979">
        <ele>4.5</ele>
        <time>2020-08-21T14:28:18.000Z</time>
      </trkpt>
      <trkpt lat="47.75859" lon="-3.35981">
        <ele>4.5</ele>
        <time>2020-08-21T14:28:19.000Z</time>
      </trkpt>
      <trkpt lat="47.75859" lon="-3.35982">
        <ele>4.5</ele>
        <time>2020-08-21T14:28:20.000Z</time>
      </trkpt>
      <trkpt lat="47.75859" lon="-3.35984">
        <ele>4.6</ele>
        <time>2020-08-21T14:28:21.000Z</time>
      </trkpt>
      <trkpt lat="47.75859" lon="-3.35986">
        <ele>4.6</ele>
        <time>2020-08-21T14:28:22.000Z</time>
      </trkpt>
      <trkpt lat="47.75859" lon="-3.35987">
        <ele>4.6</ele>
        <time>2020-08-21T14:28:23.000Z</time>
      </trkpt>
      <trkpt lat="47.75859" lon="-3.35989">
        <ele>4.7</ele>
        <time>2020-08-21T14:28:24.000Z</time>
      </trkpt>
      <trkpt lat="47.75859" lon="-3.35991">
        <ele>4.7</ele>
        <time>2020-08-21T14:28:25.000Z</time>
      </trkpt>
      <trkpt lat="47.75859" lon="-3.35993">
        <ele>4.7</ele>
        <time>2020-08-21T14:28:26.000Z</time>
      </trkpt>
      <trkpt lat="47.75859" lon="-3.35995">
        <ele>4.8</ele>
        <time>2020-08-21T14:28:27.000Z</time>
      </trkpt>
      <trkpt lat="47.75859" lon="-3.35996">
        <ele>4.8</ele>
        <time>2020-08-21T14:28:28.000Z</time>
      </trkpt>
      <trkpt lat="47.75858" lon="-3.35998">
        <ele>4.9</ele>
        <time>2020-08-21T14:28:29.000Z</time>
      </trkpt>
      <trkpt lat="47.75858" lon="-3.36">
        <ele>4.9</ele>
        <time>2020-08-21T14:28:30.000Z</time>
      </trkpt>
      <trkpt lat="47.75858" lon="-3.36002">
        <ele>4.9</ele>
        <time>2020-08-21T14:28:31.000Z</time>
      </trkpt>
      <trkpt lat="47.75858" lon="-3.36003">
        <ele>5</ele>
        <time>2020-08-21T14:28:32.000Z</time>
      </trkpt>
      <trkpt lat="47.75857" lon="-3.36005">
        <ele>5</ele>
        <time>2020-08-21T14:28:33.000Z</time>
      </trkpt>
      <trkpt lat="47.75857" lon="-3.36006">
        <ele>5.1</ele>
        <time>2020-08-21T14:28:34.000Z</time>
      </trkpt>
      <trkpt lat="47.75857" lon="-3.36008">
        <ele>5.1</ele>
        <time>2020-08-21T14:28:35.000Z</time>
      </trkpt>
      <trkpt lat="47.75857" lon="-3.36009">
        <ele>5.1</ele>
        <time>2020-08-21T14:28:36.000Z</time>
      </trkpt>
      <trkpt lat="47.75857" lon="-3.36011">
        <ele>5.1</ele>
        <time>2020-08-21T14:28:37.000Z</time>
      </trkpt>
      <trkpt lat="47.75857" lon="-3.36012">
        <ele>5.2</ele>
        <time>2020-08-21T14:28:38.000Z</time>
      </trkpt>
      <trkpt lat="47.75856" lon="-3.36014">
        <ele>5.2</ele>
        <time>2020-08-21T14:28:39.000Z</time>
      </trkpt>
      <trkpt lat="47.75856" lon="-3.36015">
        <ele>5.2</ele>
        <time>2020-08-21T14:28:40.000Z</time>
      </trkpt>
      <trkpt lat="47.75856" lon="-3.36016">
        <ele>5.2</ele>
        <time>2020-08-21T14:28:41.000Z</time>
      </trkpt>
      <trkpt lat="47.75856" lon="-3.36018">
        <ele>5.3</ele>
        <time>2020-08-21T14:28:42.000Z</time>
      </trkpt>
      <trkpt lat="47.75856" lon="-3.36019">
        <ele>5.3</ele>
        <time>2020-08-21T14:28:43.000Z</time>
      </trkpt>
      <trkpt lat="47.75855" lon="-3.3602">
        <ele>5.3</ele>
        <time>2020-08-21T14:28:44.000Z</time>
      </trkpt>
      <trkpt lat="47.75855" lon="-3.36022">
        <ele>5.3</ele>
        <time>2020-08-21T14:28:45.000Z</time>
      </trkpt>
      <trkpt lat="47.75855" lon="-3.36023">
        <ele>5.4</ele>
        <time>2020-08-21T14:28:46.000Z</time>
      </trkpt>
      <trkpt lat="47.75855" lon="-3.36024">
        <ele>5.4</ele>
        <time>2020-08-21T14:28:47.000Z</time>
      </trkpt>
      <trkpt lat="47.75855" lon="-3.36025">
        <ele>5.4</ele>
        <time>2020-08-21T14:28:48.000Z</time>
      </trkpt>
      <trkpt lat="47.75855" lon="-3.36027">
        <ele>5.4</ele>
        <time>2020-08-21T14:28:49.000Z</time>
      </trkpt>
      <trkpt lat="47.75855" lon="-3.36028">
        <ele>5.5</ele>
        <time>2020-08-21T14:28:50.000Z</time>
      </trkpt>
      <trkpt lat="47.75854" lon="-3.36029">
        <ele>5.5</ele>
        <time>2020-08-21T14:28:51.000Z</time>
      </trkpt>
      <trkpt lat="47.75854" lon="-3.36031">
        <ele>5.5</ele>
        <time>2020-08-21T14:28:52.000Z</time>
      </trkpt>
      <trkpt lat="47.75854" lon="-3.36032">
        <ele>5.6</ele>
        <time>2020-08-21T14:28:53.000Z</time>
      </trkpt>
      <trkpt lat="47.75854" lon="-3.36033">
        <ele>5.6</ele>
        <time>2020-08-21T14:28:54.000Z</time>
      </trkpt>
      <trkpt lat="47.75854" lon="-3.36035">
        <ele>5.6</ele>
        <time>2020-08-21T14:28:55.000Z</time>
      </trkpt>
      <trkpt lat="47.75854" lon="-3.36036">
        <ele>5.6</ele>
        <time>2020-08-21T14:28:56.000Z</time>
      </trkpt>
      <trkpt lat="47.75853" lon="-3.36038">
        <ele>5.7</ele>
        <time>2020-08-21T14:28:57.000Z</time>
      </trkpt>
      <trkpt lat="47.75853" lon="-3.36039">
        <ele>5.7</ele>
        <time>2020-08-21T14:28:58.000Z</time>
      </trkpt>
      <trkpt lat="47.75853" lon="-3.36041">
        <ele>5.7</ele>
        <time>2020-08-21T14:28:59.000Z</time>
      </trkpt>
      <trkpt lat="47.75853" lon="-3.36043">
        <ele>5.8</ele>
        <time>2020-08-21T14:29:00.000Z</time>
      </trkpt>
      <trkpt lat="47.75853" lon="-3.36044">
        <ele>5.8</ele>
        <time>2020-08-21T14:29:01.000Z</time>
      </trkpt>
      <trkpt lat="47.75852" lon="-3.36046">
        <ele>5.8</ele>
        <time>2020-08-21T14:29:02.000Z</time>
      </trkpt>
      <trkpt lat="47.75852" lon="-3.36048">
        <ele>5.9</ele>
        <time>2020-08-21T14:29:03.000Z</time>
      </trkpt>
      <trkpt lat="47.75852" lon="-3.36049">
        <ele>5.9</ele>
        <time>2020-08-21T14:29:04.000Z</time>
      </trkpt>
      <trkpt lat="47.75852" lon="-3.36051">
        <ele>5.9</ele>
        <time>2020-08-21T14:29:05.000Z</time>
      </trkpt>
      <trkpt lat="47.75851" lon="-3.36053">
        <ele>6</ele>
        <time>2020-08-21T14:29:06.000Z</time>
      </trkpt>
      <trkpt lat="47.75851" lon="-3.36055">
        <ele>6</ele>
        <time>2020-08-21T14:29:07.000Z</time>
      </trkpt>
      <trkpt lat="47.75851" lon="-3.36056">
        <ele>6.1</ele>
        <time>2020-08-21T14:29:08.000Z</time>
      </trkpt>
      <trkpt lat="47.7585" lon="-3.36058">
        <ele>6.1</ele>
        <time>2020-08-21T14:29:09.000Z</time>
      </trkpt>
      <trkpt lat="47.7585" lon="-3.3606">
        <ele>6.2</ele>
        <time>2020-08-21T14:29:10.000Z</time>
      </trkpt>
      <trkpt lat="47.75849" lon="-3.36061">
        <ele>6.3</ele>
        <time>2020-08-21T14:29:11.000Z</time>
      </trkpt>
      <trkpt lat="47.75848" lon="-3.36062">
        <ele>6.3</ele>
        <time>2020-08-21T14:29:12.000Z</time>
      </trkpt>
      <trkpt lat="47.75848" lon="-3.36064">
        <ele>6.4</ele>
        <time>2020-08-21T14:29:13.000Z</time>
      </trkpt>
      <trkpt lat="47.75847" lon="-3.36066">
        <ele>6.5</ele>
        <time>2020-08-21T14:29:14.000Z</time>
      </trkpt>
      <trkpt lat="47.75846" lon="-3.36068">
        <ele>6.6</ele>
        <time>2020-08-21T14:29:15.000Z</time>
      </trkpt>
      <trkpt lat="47.75845" lon="-3.3607">
        <ele>6.7</ele>
        <time>2020-08-21T14:29:16.000Z</time>
      </trkpt>
      <trkpt lat="47.75845" lon="-3.36072">
        <ele>6.8</ele>
        <time>2020-08-21T14:29:17.000Z</time>
      </trkpt>
      <trkpt lat="47.75844" lon="-3.36074">
        <ele>6.9</ele>
        <time>2020-08-21T14:29:18.000Z</time>
      </trkpt>
      <trkpt lat="47.75844" lon="-3.36075">
        <ele>6.9</ele>
        <time>2020-08-21T14:29:19.000Z</time>
      </trkpt>
      <trkpt lat="47.75843" lon="-3.36077">
        <ele>7</ele>
        <time>2020-08-21T14:29:20.000Z</time>
      </trkpt>
      <trkpt lat="47.75843" lon="-3.36079">
        <ele>7</ele>
        <time>2020-08-21T14:29:21.000Z</time>
      </trkpt>
      <trkpt lat="47.75843" lon="-3.36081">
        <ele>7.1</ele>
        <time>2020-08-21T14:29:22.000Z</time>
      </trkpt>
      <trkpt lat="47.75843" lon="-3.36082">
        <ele>7.1</ele>
        <time>2020-08-21T14:29:23.000Z</time>
      </trkpt>
      <trkpt lat="47.75843" lon="-3.36084">
        <ele>7.1</ele>
        <time>2020-08-21T14:29:24.000Z</time>
      </trkpt>
      <trkpt lat="47.75843" lon="-3.36086">
        <ele>7.1</ele>
        <time>2020-08-21T14:29:25.000Z</time>
      </trkpt>
      <trkpt lat="47.75843" lon="-3.36087">
        <ele>7.1</ele>
        <time>2020-08-21T14:29:26.000Z</time>
      </trkpt>
      <trkpt lat="47.75843" lon="-3.36089">
        <ele>7</ele>
        <time>2020-08-21T14:29:27.000Z</time>
      </trkpt>
      <trkpt lat="47.75843" lon="-3.36091">
        <ele>7</ele>
        <time>2020-08-21T14:29:28.000Z</time>
      </trkpt>
      <trkpt lat="47.75843" lon="-3.36093">
        <ele>7</ele>
        <time>2020-08-21T14:29:29.000Z</time>
      </trkpt>
      <trkpt lat="47.75842" lon="-3.36095">
        <ele>7</ele>
        <time>2020-08-21T14:29:30.000Z</time>
      </trkpt>
      <trkpt lat="47.75842" lon="-3.36097">
        <ele>7</ele>
        <time>2020-08-21T14:29:31.000Z</time>
      </trkpt>
      <trkpt lat="47.75842" lon="-3.36099">
        <ele>7</ele>
        <time>2020-08-21T14:29:32.000Z</time>
      </trkpt>
      <trkpt lat="47.75842" lon="-3.36101">
        <ele>7</ele>
        <time>2020-08-21T14:29:33.000Z</time>
      </trkpt>
      <trkpt lat="47.75842" lon="-3.36103">
        <ele>7</ele>
        <time>2020-08-21T14:29:34.000Z</time>
      </trkpt>
      <trkpt lat="47.75841" lon="-3.36106">
        <ele>7</ele>
        <time>2020-08-21T14:29:35.000Z</time>
      </trkpt>
      <trkpt lat="47.75841" lon="-3.36108">
        <ele>7</ele>
        <time>2020-08-21T14:29:36.000Z</time>
      </trkpt>
      <trkpt lat="47.75841" lon="-3.3611">
        <ele>7</ele>
        <time>2020-08-21T14:29:37.000Z</time>
      </trkpt>
      <trkpt lat="47.75841" lon="-3.36112">
        <ele>7</ele>
        <time>2020-08-21T14:29:38.000Z</time>
      </trkpt>
      <trkpt lat="47.75841" lon="-3.36114">
        <ele>7</ele>
        <time>2020-08-21T14:29:39.000Z</time>
      </trkpt>
      <trkpt lat="47.75841" lon="-3.36116">
        <ele>6.9</ele>
        <time>2020-08-21T14:29:40.000Z</time>
      </trkpt>
      <trkpt lat="47.75841" lon="-3.36118">
        <ele>6.9</ele>
        <time>2020-08-21T14:29:41.000Z</time>
      </trkpt>
      <trkpt lat="47.75841" lon="-3.3612">
        <ele>6.9</ele>
        <time>2020-08-21T14:29:42.000Z</time>
      </trkpt>
      <trkpt lat="47.75841" lon="-3.36122">
        <ele>6.8</ele>
        <time>2020-08-21T14:29:43.000Z</time>
      </trkpt>
      <trkpt lat="47.75842" lon="-3.36123">
        <ele>6.8</ele>
        <time>2020-08-21T14:29:44.000Z</time>
      </trkpt>
      <trkpt lat="47.75842" lon="-3.36125">
        <ele>6.8</ele>
        <time>2020-08-21T14:29:45.000Z</time>
      </trkpt>
      <trkpt lat="47.75842" lon="-3.36126">
        <ele>6.7</ele>
        <time>2020-08-21T14:29:46.000Z</time>
      </trkpt>
      <trkpt lat="47.75842" lon="-3.36128">
        <ele>6.7</ele>
        <time>2020-08-21T14:29:47.000Z</time>
      </trkpt>
      <trkpt lat="47.75842" lon="-3.36129">
        <ele>6.7</ele>
        <time>2020-08-21T14:29:48.000Z</time>
      </trkpt>
      <trkpt lat="47.75842" lon="-3.36131">
        <ele>6.7</ele>
        <time>2020-08-21T14:29:49.000Z</time>
      </trkpt>
      <trkpt lat="47.75841" lon="-3.36132">
        <ele>6.7</ele>
        <time>2020-08-21T14:29:50.000Z</time>
      </trkpt>
      <trkpt lat="47.75841" lon="-3.36134">
        <ele>6.7</ele>
        <time>2020-08-21T14:29:51.000Z</time>
      </trkpt>
      <trkpt lat="47.75841" lon="-3.36135">
        <ele>6.7</ele>
        <time>2020-08-21T14:29:52.000Z</time>
      </trkpt>
      <trkpt lat="47.75841" lon="-3.36137">
        <ele>6.7</ele>
        <time>2020-08-21T14:29:53.000Z</time>
      </trkpt>
      <trkpt lat="47.75841" lon="-3.36138">
        <ele>6.7</ele>
        <time>2020-08-21T14:29:54.000Z</time>
      </trkpt>
      <trkpt lat="47.75841" lon="-3.3614">
        <ele>6.6</ele>
        <time>2020-08-21T14:29:55.000Z</time>
      </trkpt>
      <trkpt lat="47.75841" lon="-3.36141">
        <ele>6.6</ele>
        <time>2020-08-21T14:29:56.000Z</time>
      </trkpt>
      <trkpt lat="47.75841" lon="-3.36143">
        <ele>6.6</ele>
        <time>2020-08-21T14:29:57.000Z</time>
      </trkpt>
      <trkpt lat="47.75842" lon="-3.36145">
        <ele>6.6</ele>
        <time>2020-08-21T14:29:58.000Z</time>
      </trkpt>
      <trkpt lat="47.75842" lon="-3.36146">
        <ele>6.5</ele>
        <time>2020-08-21T14:29:59.000Z</time>
      </trkpt>
      <trkpt lat="47.75842" lon="-3.36148">
        <ele>6.5</ele>
        <time>2020-08-21T14:30:00.000Z</time>
      </trkpt>
      <trkpt lat="47.75843" lon="-3.36149">
        <ele>6.4</ele>
        <time>2020-08-21T14:30:01.000Z</time>
      </trkpt>
      <trkpt lat="47.75843" lon="-3.36151">
        <ele>6.3</ele>
        <time>2020-08-21T14:30:02.000Z</time>
      </trkpt>
      <trkpt lat="47.75844" lon="-3.36152">
        <ele>6.3</ele>
        <time>2020-08-21T14:30:03.000Z</time>
      </trkpt>
      <trkpt lat="47.75844" lon="-3.36154">
        <ele>6.2</ele>
        <time>2020-08-21T14:30:04.000Z</time>
      </trkpt>
      <trkpt lat="47.75845" lon="-3.36155">
        <ele>6.2</ele>
        <time>2020-08-21T14:30:05.000Z</time>
      </trkpt>
      <trkpt lat="47.75845" lon="-3.36157">
        <ele>6.1</ele>
        <time>2020-08-21T14:30:06.000Z</time>
      </trkpt>
      <trkpt lat="47.75846" lon="-3.36158">
        <ele>6</ele>
        <time>2020-08-21T14:30:07.000Z</time>
      </trkpt>
      <trkpt lat="47.75847" lon="-3.3616">
        <ele>6</ele>
        <time>2020-08-21T14:30:08.000Z</time>
      </trkpt>
      <trkpt lat="47.75847" lon="-3.36161">
        <ele>5.9</ele>
        <time>2020-08-21T14:30:09.000Z</time>
      </trkpt>
      <trkpt lat="47.75848" lon="-3.36163">
        <ele>5.8</ele>
        <time>2020-08-21T14:30:10.000Z</time>
      </trkpt>
      <trkpt lat="47.75848" lon="-3.36164">
        <ele>5.8</ele>
        <time>2020-08-21T14:30:11.000Z</time>
      </trkpt>
      <trkpt lat="47.75849" lon="-3.36165">
        <ele>5.7</ele>
        <time>2020-08-21T14:30:12.000Z</time>
      </trkpt>
      <trkpt lat="47.75849" lon="-3.36167">
        <ele>5.7</ele>
        <time>2020-08-21T14:30:13.000Z</time>
      </trkpt>
      <trkpt lat="47.7585" lon="-3.36168">
        <ele>5.6</ele>
        <time>2020-08-21T14:30:14.000Z</time>
      </trkpt>
      <trkpt lat="47.7585" lon="-3.3617">
        <ele>5.6</ele>
        <time>2020-08-21T14:30:15.000Z</time>
      </trkpt>
      <trkpt lat="47.7585" lon="-3.36171">
        <ele>5.6</ele>
        <time>2020-08-21T14:30:16.000Z</time>
      </trkpt>
      <trkpt lat="47.7585" lon="-3.36173">
        <ele>5.6</ele>
        <time>2020-08-21T14:30:17.000Z</time>
      </trkpt>
      <trkpt lat="47.75851" lon="-3.36174">
        <ele>5.5</ele>
        <time>2020-08-21T14:30:18.000Z</time>
      </trkpt>
      <trkpt lat="47.75851" lon="-3.36176">
        <ele>5.5</ele>
        <time>2020-08-21T14:30:19.000Z</time>
      </trkpt>
      <trkpt lat="47.75851" lon="-3.36177">
        <ele>5.5</ele>
        <time>2020-08-21T14:30:20.000Z</time>
      </trkpt>
      <trkpt lat="47.75851" lon="-3.36179">
        <ele>5.5</ele>
        <time>2020-08-21T14:30:21.000Z</time>
      </trkpt>
      <trkpt lat="47.75851" lon="-3.3618">
        <ele>5.5</ele>
        <time>2020-08-21T14:30:22.000Z</time>
      </trkpt>
      <trkpt lat="47.75851" lon="-3.36182">
        <ele>5.5</ele>
        <time>2020-08-21T14:30:23.000Z</time>
      </trkpt>
      <trkpt lat="47.75852" lon="-3.36184">
        <ele>5.5</ele>
        <time>2020-08-21T14:30:24.000Z</time>
      </trkpt>
      <trkpt lat="47.75852" lon="-3.36185">
        <ele>5.5</ele>
        <time>2020-08-21T14:30:25.000Z</time>
      </trkpt>
      <trkpt lat="47.75852" lon="-3.36187">
        <ele>5.4</ele>
        <time>2020-08-21T14:30:26.000Z</time>
      </trkpt>
      <trkpt lat="47.75852" lon="-3.36188">
        <ele>5.4</ele>
        <time>2020-08-21T14:30:27.000Z</time>
      </trkpt>
      <trkpt lat="47.75853" lon="-3.3619">
        <ele>5.4</ele>
        <time>2020-08-21T14:30:28.000Z</time>
      </trkpt>
      <trkpt lat="47.75853" lon="-3.36191">
        <ele>5.3</ele>
        <time>2020-08-21T14:30:29.000Z</time>
      </trkpt>
      <trkpt lat="47.75853" lon="-3.36192">
        <ele>5.3</ele>
        <time>2020-08-21T14:30:30.000Z</time>
      </trkpt>
      <trkpt lat="47.75854" lon="-3.36194">
        <ele>5.3</ele>
        <time>2020-08-21T14:30:31.000Z</time>
      </trkpt>
      <trkpt lat="47.75855" lon="-3.36195">
        <ele>5.2</ele>
        <time>2020-08-21T14:30:32.000Z</time>
      </trkpt>
      <trkpt lat="47.75855" lon="-3.36196">
        <ele>5.2</ele>
        <time>2020-08-21T14:30:33.000Z</time>
      </trkpt>
      <trkpt lat="47.75856" lon="-3.36198">
        <ele>5.1</ele>
        <time>2020-08-21T14:30:34.000Z</time>
      </trkpt>
      <trkpt lat="47.75856" lon="-3.36199">
        <ele>5.1</ele>
        <time>2020-08-21T14:30:35.000Z</time>
      </trkpt>
      <trkpt lat="47.75857" lon="-3.362">
        <ele>5</ele>
        <time>2020-08-21T14:30:36.000Z</time>
      </trkpt>
      <trkpt lat="47.75857" lon="-3.36202">
        <ele>5</ele>
        <time>2020-08-21T14:30:37.000Z</time>
      </trkpt>
      <trkpt lat="47.75857" lon="-3.36203">
        <ele>5</ele>
        <time>2020-08-21T14:30:38.000Z</time>
      </trkpt>
      <trkpt lat="47.75857" lon="-3.36204">
        <ele>5</ele>
        <time>2020-08-21T14:30:39.000Z</time>
      </trkpt>
      <trkpt lat="47.75857" lon="-3.36206">
        <ele>5</ele>
        <time>2020-08-21T14:30:40.000Z</time>
      </trkpt>
      <trkpt lat="47.75857" lon="-3.36207">
        <ele>5</ele>
        <time>2020-08-21T14:30:41.000Z</time>
      </trkpt>
      <trkpt lat="47.75857" lon="-3.36209">
        <ele>5</ele>
        <time>2020-08-21T14:30:42.000Z</time>
      </trkpt>
      <trkpt lat="47.75857" lon="-3.3621">
        <ele>5</ele>
        <time>2020-08-21T14:30:43.000Z</time>
      </trkpt>
      <trkpt lat="47.75857" lon="-3.36212">
        <ele>5</ele>
        <time>2020-08-21T14:30:44.000Z</time>
      </trkpt>
      <trkpt lat="47.75858" lon="-3.36214">
        <ele>5</ele>
        <time>2020-08-21T14:30:45.000Z</time>
      </trkpt>
      <trkpt lat="47.75858" lon="-3.36215">
        <ele>5</ele>
        <time>2020-08-21T14:30:46.000Z</time>
      </trkpt>
      <trkpt lat="47.75858" lon="-3.36217">
        <ele>4.9</ele>
        <time>2020-08-21T14:30:47.000Z</time>
      </trkpt>
      <trkpt lat="47.75858" lon="-3.36219">
        <ele>4.9</ele>
        <time>2020-08-21T14:30:48.000Z</time>
      </trkpt>
      <trkpt lat="47.75859" lon="-3.36221">
        <ele>4.9</ele>
        <time>2020-08-21T14:30:49.000Z</time>
      </trkpt>
      <trkpt lat="47.75859" lon="-3.36222">
        <ele>4.8</ele>
        <time>2020-08-21T14:30:50.000Z</time>
      </trkpt>
      <trkpt lat="47.75859" lon="-3.36224">
        <ele>4.8</ele>
        <time>2020-08-21T14:30:51.000Z</time>
      </trkpt>
      <trkpt lat="47.7586" lon="-3.36226">
        <ele>4.8</ele>
        <time>2020-08-21T14:30:52.000Z</time>
      </trkpt>
      <trkpt lat="47.7586" lon="-3.36228">
        <ele>4.7</ele>
        <time>2020-08-21T14:30:53.000Z</time>
      </trkpt>
      <trkpt lat="47.75861" lon="-3.3623">
        <ele>4.7</ele>
        <time>2020-08-21T14:30:54.000Z</time>
      </trkpt>
      <trkpt lat="47.75862" lon="-3.36232">
        <ele>4.6</ele>
        <time>2020-08-21T14:30:55.000Z</time>
      </trkpt>
      <trkpt lat="47.75862" lon="-3.36234">
        <ele>4.6</ele>
        <time>2020-08-21T14:30:56.000Z</time>
      </trkpt>
      <trkpt lat="47.75863" lon="-3.36235">
        <ele>4.5</ele>
        <time>2020-08-21T14:30:57.000Z</time>
      </trkpt>
      <trkpt lat="47.75863" lon="-3.36237">
        <ele>4.5</ele>
        <time>2020-08-21T14:30:58.000Z</time>
      </trkpt>
      <trkpt lat="47.75864" lon="-3.36239">
        <ele>4.4</ele>
        <time>2020-08-21T14:30:59.000Z</time>
      </trkpt>
      <trkpt lat="47.75865" lon="-3.3624">
        <ele>4.4</ele>
        <time>2020-08-21T14:31:00.000Z</time>
      </trkpt>
      <trkpt lat="47.75865" lon="-3.36242">
        <ele>4.3</ele>
        <time>2020-08-21T14:31:01.000Z</time>
      </trkpt>
      <trkpt lat="47.75866" lon="-3.36243">
        <ele>4.3</ele>
        <time>2020-08-21T14:31:02.000Z</time>
      </trkpt>
      <trkpt lat="47.75867" lon="-3.36245">
        <ele>4.2</ele>
        <time>2020-08-21T14:31:03.000Z</time>
      </trkpt>
      <trkpt lat="47.75867" lon="-3.36246">
        <ele>4.1</ele>
        <time>2020-08-21T14:31:04.000Z</time>
      </trkpt>
      <trkpt lat="47.75868" lon="-3.36248">
        <ele>4.1</ele>
        <time>2020-08-21T14:31:05.000Z</time>
      </trkpt>
      <trkpt lat="47.75869" lon="-3.36249">
        <ele>4</ele>
        <time>2020-08-21T14:31:06.000Z</time>
      </trkpt>
      <trkpt lat="47.7587" lon="-3.3625">
        <ele>4</ele>
        <time>2020-08-21T14:31:07.000Z</time>
      </trkpt>
      <trkpt lat="47.7587" lon="-3.36252">
        <ele>3.9</ele>
        <time>2020-08-21T14:31:08.000Z</time>
      </trkpt>
      <trkpt lat="47.75871" lon="-3.36253">
        <ele>3.9</ele>
        <time>2020-08-21T14:31:09.000Z</time>
      </trkpt>
      <trkpt lat="47.75872" lon="-3.36254">
        <ele>3.9</ele>
        <time>2020-08-21T14:31:10.000Z</time>
      </trkpt>
      <trkpt lat="47.75873" lon="-3.36256">
        <ele>3.9</ele>
        <time>2020-08-21T14:31:11.000Z</time>
      </trkpt>
      <trkpt lat="47.75874" lon="-3.36257">
        <ele>3.8</ele>
        <time>2020-08-21T14:31:12.000Z</time>
      </trkpt>
      <trkpt lat="47.75874" lon="-3.36258">
        <ele>3.8</ele>
        <time>2020-08-21T14:31:13.000Z</time>
      </trkpt>
      <trkpt lat="47.75875" lon="-3.3626">
        <ele>3.8</ele>
        <time>2020-08-21T14:31:14.000Z</time>
      </trkpt>
      <trkpt lat="47.75876" lon="-3.36261">
        <ele>3.7</ele>
        <time>2020-08-21T14:31:15.000Z</time>
      </trkpt>
      <trkpt lat="47.75877" lon="-3.36262">
        <ele>3.7</ele>
        <time>2020-08-21T14:31:16.000Z</time>
      </trkpt>
      <trkpt lat="47.75878" lon="-3.36263">
        <ele>3.7</ele>
        <time>2020-08-21T14:31:17.000Z</time>
      </trkpt>
      <trkpt lat="47.75879" lon="-3.36264">
        <ele>3.7</ele>
        <time>2020-08-21T14:31:18.000Z</time>
      </trkpt>
      <trkpt lat="47.75879" lon="-3.36266">
        <ele>3.6</ele>
        <time>2020-08-21T14:31:19.000Z</time>
      </trkpt>
      <trkpt lat="47.7588" lon="-3.36267">
        <ele>3.6</ele>
        <time>2020-08-21T14:31:20.000Z</time>
      </trkpt>
      <trkpt lat="47.75881" lon="-3.36268">
        <ele>3.6</ele>
        <time>2020-08-21T14:31:21.000Z</time>
      </trkpt>
      <trkpt lat="47.75882" lon="-3.36269">
        <ele>3.5</ele>
        <time>2020-08-21T14:31:22.000Z</time>
      </trkpt>
      <trkpt lat="47.75883" lon="-3.3627">
        <ele>3.5</ele>
        <time>2020-08-21T14:31:23.000Z</time>
      </trkpt>
      <trkpt lat="47.75884" lon="-3.36271">
        <ele>3.4</ele>
        <time>2020-08-21T14:31:24.000Z</time>
      </trkpt>
      <trkpt lat="47.75885" lon="-3.36272">
        <ele>3.4</ele>
        <time>2020-08-21T14:31:25.000Z</time>
      </trkpt>
      <trkpt lat="47.75886" lon="-3.36273">
        <ele>3.4</ele>
        <time>2020-08-21T14:31:26.000Z</time>
      </trkpt>
      <trkpt lat="47.75887" lon="-3.36273">
        <ele>3.3</ele>
        <time>2020-08-21T14:31:27.000Z</time>
      </trkpt>
      <trkpt lat="47.75888" lon="-3.36274">
        <ele>3.3</ele>
        <time>2020-08-21T14:31:28.000Z</time>
      </trkpt>
      <trkpt lat="47.75889" lon="-3.36275">
        <ele>3.2</ele>
        <time>2020-08-21T14:31:29.000Z</time>
      </trkpt>
      <trkpt lat="47.7589" lon="-3.36275">
        <ele>3.2</ele>
        <time>2020-08-21T14:31:30.000Z</time>
      </trkpt>
      <trkpt lat="47.75891" lon="-3.36276">
        <ele>3.1</ele>
        <time>2020-08-21T14:31:31.000Z</time>
      </trkpt>
      <trkpt lat="47.75892" lon="-3.36276">
        <ele>3</ele>
        <time>2020-08-21T14:31:32.000Z</time>
      </trkpt>
      <trkpt lat="47.75893" lon="-3.36277">
        <ele>3</ele>
        <time>2020-08-21T14:31:33.000Z</time>
      </trkpt>
      <trkpt lat="47.75894" lon="-3.36277">
        <ele>2.9</ele>
        <time>2020-08-21T14:31:34.000Z</time>
      </trkpt>
      <trkpt lat="47.75896" lon="-3.36278">
        <ele>2.9</ele>
        <time>2020-08-21T14:31:35.000Z</time>
      </trkpt>
      <trkpt lat="47.75897" lon="-3.36278">
        <ele>2.8</ele>
        <time>2020-08-21T14:31:36.000Z</time>
      </trkpt>
      <trkpt lat="47.75898" lon="-3.36279">
        <ele>2.7</ele>
        <time>2020-08-21T14:31:37.000Z</time>
      </trkpt>
      <trkpt lat="47.75899" lon="-3.36279">
        <ele>2.7</ele>
        <time>2020-08-21T14:31:38.000Z</time>
      </trkpt>
      <trkpt lat="47.759" lon="-3.3628">
        <ele>2.6</ele>
        <time>2020-08-21T14:31:39.000Z</time>
      </trkpt>
      <trkpt lat="47.75901" lon="-3.36281">
        <ele>2.6</ele>
        <time>2020-08-21T14:31:40.000Z</time>
      </trkpt>
      <trkpt lat="47.75902" lon="-3.36281">
        <ele>2.5</ele>
        <time>2020-08-21T14:31:41.000Z</time>
      </trkpt>
      <trkpt lat="47.75903" lon="-3.36282">
        <ele>2.5</ele>
        <time>2020-08-21T14:31:42.000Z</time>
      </trkpt>
      <trkpt lat="47.75904" lon="-3.36282">
        <ele>2.4</ele>
        <time>2020-08-21T14:31:43.000Z</time>
      </trkpt>
      <trkpt lat="47.75905" lon="-3.36283">
        <ele>2.4</ele>
        <time>2020-08-21T14:31:44.000Z</time>
      </trkpt>
      <trkpt lat="47.75906" lon="-3.36284">
        <ele>2.3</ele>
        <time>2020-08-21T14:31:45.000Z</time>
      </trkpt>
      <trkpt lat="47.75907" lon="-3.36285">
        <ele>2.3</ele>
        <time>2020-08-21T14:31:46.000Z</time>
      </trkpt>
      <trkpt lat="47.75908" lon="-3.36286">
        <ele>2.3</ele>
        <time>2020-08-21T14:31:47.000Z</time>
      </trkpt>
      <trkpt lat="47.75909" lon="-3.36286">
        <ele>2.2</ele>
        <time>2020-08-21T14:31:48.000Z</time>
      </trkpt>
      <trkpt lat="47.7591" lon="-3.36287">
        <ele>2.2</ele>
        <time>2020-08-21T14:31:49.000Z</time>
      </trkpt>
      <trkpt lat="47.75912" lon="-3.36288">
        <ele>2.2</ele>
        <time>2020-08-21T14:31:50.000Z</time>
      </trkpt>
      <trkpt lat="47.75913" lon="-3.36289">
        <ele>2.1</ele>
        <time>2020-08-21T14:31:51.000Z</time>
      </trkpt>
      <trkpt lat="47.75914" lon="-3.3629">
        <ele>2.1</ele>
        <time>2020-08-21T14:31:52.000Z</time>
      </trkpt>
      <trkpt lat="47.75915" lon="-3.36291">
        <ele>2.1</ele>
        <time>2020-08-21T14:31:53.000Z</time>
      </trkpt>
      <trkpt lat="47.75916" lon="-3.36291">
        <ele>2.1</ele>
        <time>2020-08-21T14:31:54.000Z</time>
      </trkpt>
      <trkpt lat="47.75917" lon="-3.36292">
        <ele>2</ele>
        <time>2020-08-21T14:31:55.000Z</time>
      </trkpt>
      <trkpt lat="47.75918" lon="-3.36293">
        <ele>2</ele>
        <time>2020-08-21T14:31:56.000Z</time>
      </trkpt>
      <trkpt lat="47.75919" lon="-3.36294">
        <ele>2</ele>
        <time>2020-08-21T14:31:57.000Z</time>
      </trkpt>
      <trkpt lat="47.7592" lon="-3.36295">
        <ele>2.1</ele>
        <time>2020-08-21T14:31:58.000Z</time>
      </trkpt>
      <trkpt lat="47.75921" lon="-3.36295">
        <ele>2.1</ele>
        <time>2020-08-21T14:31:59.000Z</time>
      </trkpt>
      <trkpt lat="47.75923" lon="-3.36296">
        <ele>2.1</ele>
        <time>2020-08-21T14:32:00.000Z</time>
      </trkpt>
      <trkpt lat="47.75924" lon="-3.36297">
        <ele>2.1</ele>
        <time>2020-08-21T14:32:01.000Z</time>
      </trkpt>
      <trkpt lat="47.75925" lon="-3.36298">
        <ele>2.1</ele>
        <time>2020-08-21T14:32:02.000Z</time>
      </trkpt>
      <trkpt lat="47.75926" lon="-3.36298">
        <ele>2.1</ele>
        <time>2020-08-21T14:32:03.000Z</time>
      </trkpt>
      <trkpt lat="47.75927" lon="-3.36299">
        <ele>2.1</ele>
        <time>2020-08-21T14:32:04.000Z</time>
      </trkpt>
      <trkpt lat="47.75928" lon="-3.363">
        <ele>2.1</ele>
        <time>2020-08-21T14:32:05.000Z</time>
      </trkpt>
      <trkpt lat="47.7593" lon="-3.36301">
        <ele>2.1</ele>
        <time>2020-08-21T14:32:06.000Z</time>
      </trkpt>
      <trkpt lat="47.75931" lon="-3.36301">
        <ele>2.1</ele>
        <time>2020-08-21T14:32:07.000Z</time>
      </trkpt>
      <trkpt lat="47.75932" lon="-3.36302">
        <ele>2.1</ele>
        <time>2020-08-21T14:32:08.000Z</time>
      </trkpt>
      <trkpt lat="47.75933" lon="-3.36303">
        <ele>2.1</ele>
        <time>2020-08-21T14:32:09.000Z</time>
      </trkpt>
      <trkpt lat="47.75934" lon="-3.36304">
        <ele>2</ele>
        <time>2020-08-21T14:32:10.000Z</time>
      </trkpt>
      <trkpt lat="47.75935" lon="-3.36305">
        <ele>2</ele>
        <time>2020-08-21T14:32:11.000Z</time>
      </trkpt>
      <trkpt lat="47.75936" lon="-3.36306">
        <ele>2</ele>
        <time>2020-08-21T14:32:12.000Z</time>
      </trkpt>
      <trkpt lat="47.75938" lon="-3.36307">
        <ele>2</ele>
        <time>2020-08-21T14:32:13.000Z</time>
      </trkpt>
      <trkpt lat="47.75939" lon="-3.36308">
        <ele>2</ele>
        <time>2020-08-21T14:32:14.000Z</time>
      </trkpt>
      <trkpt lat="47.7594" lon="-3.36308">
        <ele>2</ele>
        <time>2020-08-21T14:32:15.000Z</time>
      </trkpt>
      <trkpt lat="47.75941" lon="-3.36309">
        <ele>2</ele>
        <time>2020-08-21T14:32:16.000Z</time>
      </trkpt>
      <trkpt lat="47.75942" lon="-3.3631">
        <ele>2</ele>
        <time>2020-08-21T14:32:17.000Z</time>
      </trkpt>
      <trkpt lat="47.75943" lon="-3.36311">
        <ele>2</ele>
        <time>2020-08-21T14:32:18.000Z</time>
      </trkpt>
      <trkpt lat="47.75944" lon="-3.36312">
        <ele>2</ele>
        <time>2020-08-21T14:32:19.000Z</time>
      </trkpt>
      <trkpt lat="47.75945" lon="-3.36313">
        <ele>2</ele>
        <time>2020-08-21T14:32:20.000Z</time>
      </trkpt>
      <trkpt lat="47.75946" lon="-3.36314">
        <ele>2</ele>
        <time>2020-08-21T14:32:21.000Z</time>
      </trkpt>
      <trkpt lat="47.75947" lon="-3.36315">
        <ele>2</ele>
        <time>2020-08-21T14:32:22.000Z</time>
      </trkpt>
      <trkpt lat="47.75948" lon="-3.36316">
        <ele>2</ele>
        <time>2020-08-21T14:32:23.000Z</time>
      </trkpt>
      <trkpt lat="47.7595" lon="-3.36317">
        <ele>1.9</ele>
        <time>2020-08-21T14:32:24.000Z</time>
      </trkpt>
      <trkpt lat="47.75951" lon="-3.36318">
        <ele>1.9</ele>
        <time>2020-08-21T14:32:25.000Z</time>
      </trkpt>
      <trkpt lat="47.75952" lon="-3.36318">
        <ele>1.9</ele>
        <time>2020-08-21T14:32:26.000Z</time>
      </trkpt>
      <trkpt lat="47.75953" lon="-3.36319">
        <ele>1.9</ele>
        <time>2020-08-21T14:32:27.000Z</time>
      </trkpt>
      <trkpt lat="47.75954" lon="-3.3632">
        <ele>1.8</ele>
        <time>2020-08-21T14:32:28.000Z</time>
      </trkpt>
      <trkpt lat="47.75956" lon="-3.3632">
        <ele>1.8</ele>
        <time>2020-08-21T14:32:29.000Z</time>
      </trkpt>
      <trkpt lat="47.75957" lon="-3.3632">
        <ele>1.7</ele>
        <time>2020-08-21T14:32:30.000Z</time>
      </trkpt>
      <trkpt lat="47.75959" lon="-3.3632">
        <ele>1.7</ele>
        <time>2020-08-21T14:32:31.000Z</time>
      </trkpt>
      <trkpt lat="47.7596" lon="-3.36321">
        <ele>1.6</ele>
        <time>2020-08-21T14:32:32.000Z</time>
      </trkpt>
      <trkpt lat="47.75962" lon="-3.36321">
        <ele>1.6</ele>
        <time>2020-08-21T14:32:33.000Z</time>
      </trkpt>
      <trkpt lat="47.75963" lon="-3.36322">
        <ele>1.5</ele>
        <time>2020-08-21T14:32:34.000Z</time>
      </trkpt>
      <trkpt lat="47.75964" lon="-3.36322">
        <ele>1.5</ele>
        <time>2020-08-21T14:32:35.000Z</time>
      </trkpt>
      <trkpt lat="47.75966" lon="-3.36323">
        <ele>1.4</ele>
        <time>2020-08-21T14:32:36.000Z</time>
      </trkpt>
      <trkpt lat="47.75967" lon="-3.36324">
        <ele>1.4</ele>
        <time>2020-08-21T14:32:37.000Z</time>
      </trkpt>
      <trkpt lat="47.75968" lon="-3.36324">
        <ele>1.4</ele>
        <time>2020-08-21T14:32:38.000Z</time>
      </trkpt>
      <trkpt lat="47.75969" lon="-3.36325">
        <ele>1.3</ele>
        <time>2020-08-21T14:32:39.000Z</time>
      </trkpt>
      <trkpt lat="47.7597" lon="-3.36326">
        <ele>1.3</ele>
        <time>2020-08-21T14:32:40.000Z</time>
      </trkpt>
      <trkpt lat="47.75971" lon="-3.36327">
        <ele>1.3</ele>
        <time>2020-08-21T14:32:41.000Z</time>
      </trkpt>
      <trkpt lat="47.75972" lon="-3.36328">
        <ele>1.2</ele>
        <time>2020-08-21T14:32:42.000Z</time>
      </trkpt>
      <trkpt lat="47.75973" lon="-3.36329">
        <ele>1.2</ele>
        <time>2020-08-21T14:32:43.000Z</time>
      </trkpt>
      <trkpt lat="47.75974" lon="-3.3633">
        <ele>1.2</ele>
        <time>2020-08-21T14:32:44.000Z</time>
      </trkpt>
      <trkpt lat="47.75975" lon="-3.3633">
        <ele>1.1</ele>
        <time>2020-08-21T14:32:45.000Z</time>
      </trkpt>
      <trkpt lat="47.75976" lon="-3.36331">
        <ele>1.1</ele>
        <time>2020-08-21T14:32:46.000Z</time>
      </trkpt>
      <trkpt lat="47.75977" lon="-3.36332">
        <ele>1.1</ele>
        <time>2020-08-21T14:32:47.000Z</time>
      </trkpt>
      <trkpt lat="47.75978" lon="-3.36333">
        <ele>1</ele>
        <time>2020-08-21T14:32:48.000Z</time>
      </trkpt>
      <trkpt lat="47.75979" lon="-3.36334">
        <ele>1</ele>
        <time>2020-08-21T14:32:49.000Z</time>
      </trkpt>
      <trkpt lat="47.7598" lon="-3.36335">
        <ele>0.9</ele>
        <time>2020-08-21T14:32:50.000Z</time>
      </trkpt>
      <trkpt lat="47.75981" lon="-3.36336">
        <ele>0.9</ele>
        <time>2020-08-21T14:32:51.000Z</time>
      </trkpt>
      <trkpt lat="47.75982" lon="-3.36336">
        <ele>0.8</ele>
        <time>2020-08-21T14:32:52.000Z</time>
      </trkpt>
      <trkpt lat="47.75984" lon="-3.36337">
        <ele>0.8</ele>
        <time>2020-08-21T14:32:53.000Z</time>
      </trkpt>
      <trkpt lat="47.75985" lon="-3.36338">
        <ele>0.7</ele>
        <time>2020-08-21T14:32:54.000Z</time>
      </trkpt>
      <trkpt lat="47.75986" lon="-3.36339">
        <ele>0.7</ele>
        <time>2020-08-21T14:32:55.000Z</time>
      </trkpt>
      <trkpt lat="47.75987" lon="-3.36339">
        <ele>0.6</ele>
        <time>2020-08-21T14:32:56.000Z</time>
      </trkpt>
      <trkpt lat="47.75988" lon="-3.3634">
        <ele>0.6</ele>
        <time>2020-08-21T14:32:57.000Z</time>
      </trkpt>
      <trkpt lat="47.75989" lon="-3.36341">
        <ele>0.5</ele>
        <time>2020-08-21T14:32:58.000Z</time>
      </trkpt>
      <trkpt lat="47.7599" lon="-3.36342">
        <ele>0.5</ele>
        <time>2020-08-21T14:32:59.000Z</time>
      </trkpt>
      <trkpt lat="47.75991" lon="-3.36343">
        <ele>0.4</ele>
        <time>2020-08-21T14:33:00.000Z</time>
      </trkpt>
      <trkpt lat="47.75992" lon="-3.36343">
        <ele>0.4</ele>
        <time>2020-08-21T14:33:01.000Z</time>
      </trkpt>
      <trkpt lat="47.75993" lon="-3.36344">
        <ele>0.3</ele>
        <time>2020-08-21T14:33:02.000Z</time>
      </trkpt>
      <trkpt lat="47.75994" lon="-3.36345">
        <ele>0.3</ele>
        <time>2020-08-21T14:33:03.000Z</time>
      </trkpt>
      <trkpt lat="47.75995" lon="-3.36346">
        <ele>0.2</ele>
        <time>2020-08-21T14:33:04.000Z</time>
      </trkpt>
      <trkpt lat="47.75996" lon="-3.36347">
        <ele>0.2</ele>
        <time>2020-08-21T14:33:05.000Z</time>
      </trkpt>
      <trkpt lat="47.75997" lon="-3.36348">
        <ele>0.1</ele>
        <time>2020-08-21T14:33:06.000Z</time>
      </trkpt>
      <trkpt lat="47.75998" lon="-3.36349">
        <ele>0.1</ele>
        <time>2020-08-21T14:33:07.000Z</time>
      </trkpt>
      <trkpt lat="47.75999" lon="-3.3635">
        <ele>4</ele>
        <time>2020-08-21T14:33:08.000Z</time>
      </trkpt>
      <trkpt lat="47.76" lon="-3.36351">
        <ele>3.6</ele>
        <time>2020-08-21T14:33:09.000Z</time>
      </trkpt>
      <trkpt lat="47.76001" lon="-3.36352">
        <ele>3.6</ele>
        <time>2020-08-21T14:33:10.000Z</time>
      </trkpt>
      <trkpt lat="47.76002" lon="-3.36353">
        <ele>3.6</ele>
        <time>2020-08-21T14:33:11.000Z</time>
      </trkpt>
      <trkpt lat="47.76003" lon="-3.36354">
        <ele>3.6</ele>
        <time>2020-08-21T14:33:12.000Z</time>
      </trkpt>
      <trkpt lat="47.76004" lon="-3.36355">
        <ele>3.6</ele>
        <time>2020-08-21T14:33:13.000Z</time>
      </trkpt>
      <trkpt lat="47.76005" lon="-3.36356">
        <ele>3.6</ele>
        <time>2020-08-21T14:33:14.000Z</time>
      </trkpt>
      <trkpt lat="47.76006" lon="-3.36357">
        <ele>3.6</ele>
        <time>2020-08-21T14:33:15.000Z</time>
      </trkpt>
      <trkpt lat="47.76007" lon="-3.36359">
        <ele>3.7</ele>
        <time>2020-08-21T14:33:16.000Z</time>
      </trkpt>
      <trkpt lat="47.76008" lon="-3.3636">
        <ele>3.7</ele>
        <time>2020-08-21T14:33:17.000Z</time>
      </trkpt>
      <trkpt lat="47.76009" lon="-3.36361">
        <ele>3.7</ele>
        <time>2020-08-21T14:33:18.000Z</time>
      </trkpt>
      <trkpt lat="47.7601" lon="-3.36362">
        <ele>3.7</ele>
        <time>2020-08-21T14:33:19.000Z</time>
      </trkpt>
      <trkpt lat="47.76011" lon="-3.36363">
        <ele>3.7</ele>
        <time>2020-08-21T14:33:20.000Z</time>
      </trkpt>
      <trkpt lat="47.76012" lon="-3.36364">
        <ele>3.7</ele>
        <time>2020-08-21T14:33:21.000Z</time>
      </trkpt>
      <trkpt lat="47.76013" lon="-3.36365">
        <ele>3.7</ele>
        <time>2020-08-21T14:33:22.000Z</time>
      </trkpt>
      <trkpt lat="47.76014" lon="-3.36366">
        <ele>3.7</ele>
        <time>2020-08-21T14:33:23.000Z</time>
      </trkpt>
      <trkpt lat="47.76015" lon="-3.36367">
        <ele>3.7</ele>
        <time>2020-08-21T14:33:24.000Z</time>
      </trkpt>
      <trkpt lat="47.76016" lon="-3.36368">
        <ele>3.7</ele>
        <time>2020-08-21T14:33:25.000Z</time>
      </trkpt>
      <trkpt lat="47.76017" lon="-3.3637">
        <ele>3.7</ele>
        <time>2020-08-21T14:33:26.000Z</time>
      </trkpt>
      <trkpt lat="47.76017" lon="-3.36371">
        <ele>3.7</ele>
        <time>2020-08-21T14:33:27.000Z</time>
      </trkpt>
      <trkpt lat="47.76018" lon="-3.36372">
        <ele>3.7</ele>
        <time>2020-08-21T14:33:28.000Z</time>
      </trkpt>
      <trkpt lat="47.76019" lon="-3.36373">
        <ele>3.7</ele>
        <time>2020-08-21T14:33:29.000Z</time>
      </trkpt>
      <trkpt lat="47.7602" lon="-3.36374">
        <ele>3.7</ele>
        <time>2020-08-21T14:33:30.000Z</time>
      </trkpt>
      <trkpt lat="47.76021" lon="-3.36375">
        <ele>3.7</ele>
        <time>2020-08-21T14:33:31.000Z</time>
      </trkpt>
      <trkpt lat="47.76022" lon="-3.36376">
        <ele>3.7</ele>
        <time>2020-08-21T14:33:32.000Z</time>
      </trkpt>
      <trkpt lat="47.76023" lon="-3.36377">
        <ele>3.7</ele>
        <time>2020-08-21T14:33:33.000Z</time>
      </trkpt>
      <trkpt lat="47.76024" lon="-3.36378">
        <ele>3.7</ele>
        <time>2020-08-21T14:33:34.000Z</time>
      </trkpt>
      <trkpt lat="47.76025" lon="-3.36379">
        <ele>3.7</ele>
        <time>2020-08-21T14:33:35.000Z</time>
      </trkpt>
      <trkpt lat="47.76026" lon="-3.3638">
        <ele>3.7</ele>
        <time>2020-08-21T14:33:36.000Z</time>
      </trkpt>
      <trkpt lat="47.76026" lon="-3.36381">
        <ele>3.8</ele>
        <time>2020-08-21T14:33:37.000Z</time>
      </trkpt>
      <trkpt lat="47.76027" lon="-3.36382">
        <ele>3.8</ele>
        <time>2020-08-21T14:33:38.000Z</time>
      </trkpt>
      <trkpt lat="47.76028" lon="-3.36383">
        <ele>3.8</ele>
        <time>2020-08-21T14:33:39.000Z</time>
      </trkpt>
      <trkpt lat="47.76029" lon="-3.36384">
        <ele>3.7</ele>
        <time>2020-08-21T14:33:40.000Z</time>
      </trkpt>
      <trkpt lat="47.7603" lon="-3.36385">
        <ele>3.7</ele>
        <time>2020-08-21T14:33:41.000Z</time>
      </trkpt>
      <trkpt lat="47.76031" lon="-3.36386">
        <ele>3.7</ele>
        <time>2020-08-21T14:33:42.000Z</time>
      </trkpt>
      <trkpt lat="47.76032" lon="-3.36387">
        <ele>3.6</ele>
        <time>2020-08-21T14:33:43.000Z</time>
      </trkpt>
      <trkpt lat="47.76033" lon="-3.36388">
        <ele>3.6</ele>
        <time>2020-08-21T14:33:44.000Z</time>
      </trkpt>
      <trkpt lat="47.76033" lon="-3.3639">
        <ele>3.6</ele>
        <time>2020-08-21T14:33:45.000Z</time>
      </trkpt>
      <trkpt lat="47.76034" lon="-3.36391">
        <ele>3.6</ele>
        <time>2020-08-21T14:33:46.000Z</time>
      </trkpt>
      <trkpt lat="47.76035" lon="-3.36392">
        <ele>3.5</ele>
        <time>2020-08-21T14:33:47.000Z</time>
      </trkpt>
      <trkpt lat="47.76036" lon="-3.36393">
        <ele>3.5</ele>
        <time>2020-08-21T14:33:48.000Z</time>
      </trkpt>
      <trkpt lat="47.76037" lon="-3.36394">
        <ele>3.4</ele>
        <time>2020-08-21T14:33:49.000Z</time>
      </trkpt>
      <trkpt lat="47.76038" lon="-3.36395">
        <ele>3.3</ele>
        <time>2020-08-21T14:33:50.000Z</time>
      </trkpt>
      <trkpt lat="47.76039" lon="-3.36396">
        <ele>3.3</ele>
        <time>2020-08-21T14:33:51.000Z</time>
      </trkpt>
      <trkpt lat="47.76039" lon="-3.36397">
        <ele>3.3</ele>
        <time>2020-08-21T14:33:52.000Z</time>
      </trkpt>
      <trkpt lat="47.7604" lon="-3.36399">
        <ele>3.3</ele>
        <time>2020-08-21T14:33:53.000Z</time>
      </trkpt>
      <trkpt lat="47.76041" lon="-3.364">
        <ele>3.2</ele>
        <time>2020-08-21T14:33:54.000Z</time>
      </trkpt>
      <trkpt lat="47.76042" lon="-3.36401">
        <ele>3.2</ele>
        <time>2020-08-21T14:33:55.000Z</time>
      </trkpt>
      <trkpt lat="47.76043" lon="-3.36402">
        <ele>3.2</ele>
        <time>2020-08-21T14:33:56.000Z</time>
      </trkpt>
      <trkpt lat="47.76044" lon="-3.36404">
        <ele>3.1</ele>
        <time>2020-08-21T14:33:57.000Z</time>
      </trkpt>
      <trkpt lat="47.76044" lon="-3.36405">
        <ele>3.2</ele>
        <time>2020-08-21T14:33:58.000Z</time>
      </trkpt>
      <trkpt lat="47.76045" lon="-3.36406">
        <ele>3.1</ele>
        <time>2020-08-21T14:33:59.000Z</time>
      </trkpt>
      <trkpt lat="47.76046" lon="-3.36408">
        <ele>3.1</ele>
        <time>2020-08-21T14:34:00.000Z</time>
      </trkpt>
      <trkpt lat="47.76047" lon="-3.36409">
        <ele>3.1</ele>
        <time>2020-08-21T14:34:01.000Z</time>
      </trkpt>
      <trkpt lat="47.76047" lon="-3.3641">
        <ele>3.1</ele>
        <time>2020-08-21T14:34:02.000Z</time>
      </trkpt>
      <trkpt lat="47.76048" lon="-3.36412">
        <ele>3.1</ele>
        <time>2020-08-21T14:34:03.000Z</time>
      </trkpt>
      <trkpt lat="47.76049" lon="-3.36413">
        <ele>3.1</ele>
        <time>2020-08-21T14:34:04.000Z</time>
      </trkpt>
      <trkpt lat="47.7605" lon="-3.36415">
        <ele>3.2</ele>
        <time>2020-08-21T14:34:05.000Z</time>
      </trkpt>
      <trkpt lat="47.7605" lon="-3.36416">
        <ele>3.2</ele>
        <time>2020-08-21T14:34:06.000Z</time>
      </trkpt>
      <trkpt lat="47.76051" lon="-3.36418">
        <ele>8</ele>
        <time>2020-08-21T14:34:07.000Z</time>
      </trkpt>
      <trkpt lat="47.76052" lon="-3.36419">
        <ele>0.1</ele>
        <time>2020-08-21T14:34:08.000Z</time>
      </trkpt>
      <trkpt lat="47.76052" lon="-3.36421">
        <ele>0.1</ele>
        <time>2020-08-21T14:34:09.000Z</time>
      </trkpt>
      <trkpt lat="47.76053" lon="-3.36422">
        <ele>0.2</ele>
        <time>2020-08-21T14:34:10.000Z</time>
      </trkpt>
      <trkpt lat="47.76053" lon="-3.36424">
        <ele>0.2</ele>
        <time>2020-08-21T14:34:11.000Z</time>
      </trkpt>
      <trkpt lat="47.76054" lon="-3.36425">
        <ele>0.3</ele>
        <time>2020-08-21T14:34:12.000Z</time>
      </trkpt>
      <trkpt lat="47.76055" lon="-3.36427">
        <ele>0.3</ele>
        <time>2020-08-21T14:34:13.000Z</time>
      </trkpt>
      <trkpt lat="47.76055" lon="-3.36429">
        <ele>0.4</ele>
        <time>2020-08-21T14:34:14.000Z</time>
      </trkpt>
      <trkpt lat="47.76056" lon="-3.3643">
        <ele>0.4</ele>
        <time>2020-08-21T14:34:15.000Z</time>
      </trkpt>
      <trkpt lat="47.76056" lon="-3.36432">
        <ele>0.5</ele>
        <time>2020-08-21T14:34:16.000Z</time>
      </trkpt>
      <trkpt lat="47.76057" lon="-3.36433">
        <ele>0.5</ele>
        <time>2020-08-21T14:34:17.000Z</time>
      </trkpt>
      <trkpt lat="47.76058" lon="-3.36435">
        <ele>0.5</ele>
        <time>2020-08-21T14:34:18.000Z</time>
      </trkpt>
      <trkpt lat="47.76058" lon="-3.36436">
        <ele>0.6</ele>
        <time>2020-08-21T14:34:19.000Z</time>
      </trkpt>
      <trkpt lat="47.76059" lon="-3.36438">
        <ele>0.6</ele>
        <time>2020-08-21T14:34:20.000Z</time>
      </trkpt>
      <trkpt lat="47.76059" lon="-3.36439">
        <ele>0.6</ele>
        <time>2020-08-21T14:34:21.000Z</time>
      </trkpt>
      <trkpt lat="47.7606" lon="-3.36441">
        <ele>0.7</ele>
        <time>2020-08-21T14:34:22.000Z</time>
      </trkpt>
      <trkpt lat="47.76061" lon="-3.36442">
        <ele>0.7</ele>
        <time>2020-08-21T14:34:23.000Z</time>
      </trkpt>
      <trkpt lat="47.76061" lon="-3.36444">
        <ele>0.7</ele>
        <time>2020-08-21T14:34:24.000Z</time>
      </trkpt>
      <trkpt lat="47.76062" lon="-3.36445">
        <ele>0.7</ele>
        <time>2020-08-21T14:34:25.000Z</time>
      </trkpt>
      <trkpt lat="47.76062" lon="-3.36447">
        <ele>0.7</ele>
        <time>2020-08-21T14:34:26.000Z</time>
      </trkpt>
      <trkpt lat="47.76063" lon="-3.36448">
        <ele>0.7</ele>
        <time>2020-08-21T14:34:27.000Z</time>
      </trkpt>
      <trkpt lat="47.76064" lon="-3.36449">
        <ele>0.7</ele>
        <time>2020-08-21T14:34:28.000Z</time>
      </trkpt>
      <trkpt lat="47.76064" lon="-3.36451">
        <ele>0.8</ele>
        <time>2020-08-21T14:34:29.000Z</time>
      </trkpt>
      <trkpt lat="47.76065" lon="-3.36452">
        <ele>0.8</ele>
        <time>2020-08-21T14:34:30.000Z</time>
      </trkpt>
      <trkpt lat="47.76065" lon="-3.36454">
        <ele>0.8</ele>
        <time>2020-08-21T14:34:31.000Z</time>
      </trkpt>
      <trkpt lat="47.76066" lon="-3.36455">
        <ele>0.8</ele>
        <time>2020-08-21T14:34:32.000Z</time>
      </trkpt>
      <trkpt lat="47.76067" lon="-3.36457">
        <ele>0.8</ele>
        <time>2020-08-21T14:34:33.000Z</time>
      </trkpt>
      <trkpt lat="47.76067" lon="-3.36458">
        <ele>0.8</ele>
        <time>2020-08-21T14:34:34.000Z</time>
      </trkpt>
      <trkpt lat="47.76067" lon="-3.3646">
        <ele>0.8</ele>
        <time>2020-08-21T14:34:35.000Z</time>
      </trkpt>
      <trkpt lat="47.76068" lon="-3.36461">
        <ele>0.8</ele>
        <time>2020-08-21T14:34:36.000Z</time>
      </trkpt>
      <trkpt lat="47.76068" lon="-3.36463">
        <ele>0.8</ele>
        <time>2020-08-21T14:34:37.000Z</time>
      </trkpt>
      <trkpt lat="47.76069" lon="-3.36464">
        <ele>0.8</ele>
        <time>2020-08-21T14:34:38.000Z</time>
      </trkpt>
      <trkpt lat="47.76069" lon="-3.36466">
        <ele>0.8</ele>
        <time>2020-08-21T14:34:39.000Z</time>
      </trkpt>
      <trkpt lat="47.7607" lon="-3.36468">
        <ele>0.8</ele>
        <time>2020-08-21T14:34:40.000Z</time>
      </trkpt>
      <trkpt lat="47.7607" lon="-3.36469">
        <ele>0.8</ele>
        <time>2020-08-21T14:34:41.000Z</time>
      </trkpt>
      <trkpt lat="47.76071" lon="-3.36471">
        <ele>0.8</ele>
        <time>2020-08-21T14:34:42.000Z</time>
      </trkpt>
      <trkpt lat="47.76072" lon="-3.36472">
        <ele>0.8</ele>
        <time>2020-08-21T14:34:43.000Z</time>
      </trkpt>
      <trkpt lat="47.76072" lon="-3.36474">
        <ele>0.7</ele>
        <time>2020-08-21T14:34:44.000Z</time>
      </trkpt>
      <trkpt lat="47.76073" lon="-3.36476">
        <ele>0.7</ele>
        <time>2020-08-21T14:34:45.000Z</time>
      </trkpt>
      <trkpt lat="47.76073" lon="-3.36477">
        <ele>0.7</ele>
        <time>2020-08-21T14:34:46.000Z</time>
      </trkpt>
      <trkpt lat="47.76074" lon="-3.36478">
        <ele>0.7</ele>
        <time>2020-08-21T14:34:47.000Z</time>
      </trkpt>
      <trkpt lat="47.76074" lon="-3.3648">
        <ele>0.7</ele>
        <time>2020-08-21T14:34:48.000Z</time>
      </trkpt>
      <trkpt lat="47.76075" lon="-3.36481">
        <ele>0.6</ele>
        <time>2020-08-21T14:34:49.000Z</time>
      </trkpt>
      <trkpt lat="47.76075" lon="-3.36482">
        <ele>0.6</ele>
        <time>2020-08-21T14:34:50.000Z</time>
      </trkpt>
      <trkpt lat="47.76076" lon="-3.36483">
        <ele>0.6</ele>
        <time>2020-08-21T14:34:51.000Z</time>
      </trkpt>
      <trkpt lat="47.76076" lon="-3.36484">
        <ele>0.6</ele>
        <time>2020-08-21T14:34:52.000Z</time>
      </trkpt>
      <trkpt lat="47.76077" lon="-3.36486">
        <ele>0.5</ele>
        <time>2020-08-21T14:34:53.000Z</time>
      </trkpt>
      <trkpt lat="47.76078" lon="-3.36489">
        <ele>0.5</ele>
        <time>2020-08-21T14:34:54.000Z</time>
      </trkpt>
      <trkpt lat="47.76079" lon="-3.36491">
        <ele>0.4</ele>
        <time>2020-08-21T14:34:55.000Z</time>
      </trkpt>
      <trkpt lat="47.7608" lon="-3.36494">
        <ele>0.3</ele>
        <time>2020-08-21T14:34:56.000Z</time>
      </trkpt>
      <trkpt lat="47.76081" lon="-3.36497">
        <ele>0.3</ele>
        <time>2020-08-21T14:34:57.000Z</time>
      </trkpt>
      <trkpt lat="47.76082" lon="-3.365">
        <ele>0.2</ele>
        <time>2020-08-21T14:34:58.000Z</time>
      </trkpt>
      <trkpt lat="47.76082" lon="-3.36503">
        <ele>0.3</ele>
        <time>2020-08-21T14:34:59.000Z</time>
      </trkpt>
      <trkpt lat="47.76083" lon="-3.36505">
        <ele>0.4</ele>
        <time>2020-08-21T14:35:00.000Z</time>
      </trkpt>
      <trkpt lat="47.76083" lon="-3.36507">
        <ele>0.5</ele>
        <time>2020-08-21T14:35:01.000Z</time>
      </trkpt>
      <trkpt lat="47.76084" lon="-3.36508">
        <ele>0.6</ele>
        <time>2020-08-21T14:35:02.000Z</time>
      </trkpt>
      <trkpt lat="47.76084" lon="-3.36509">
        <ele>0.6</ele>
        <time>2020-08-21T14:35:03.000Z</time>
      </trkpt>
      <trkpt lat="47.76084" lon="-3.3651">
        <ele>0.7</ele>
        <time>2020-08-21T14:35:04.000Z</time>
      </trkpt>
      <trkpt lat="47.76085" lon="-3.36511">
        <ele>0.8</ele>
        <time>2020-08-21T14:35:05.000Z</time>
      </trkpt>
      <trkpt lat="47.76085" lon="-3.36512">
        <ele>0.8</ele>
        <time>2020-08-21T14:35:06.000Z</time>
      </trkpt>
      <trkpt lat="47.76086" lon="-3.36513">
        <ele>0.9</ele>
        <time>2020-08-21T14:35:07.000Z</time>
      </trkpt>
      <trkpt lat="47.76087" lon="-3.36514">
        <ele>1</ele>
        <time>2020-08-21T14:35:08.000Z</time>
      </trkpt>
      <trkpt lat="47.76088" lon="-3.36515">
        <ele>1</ele>
        <time>2020-08-21T14:35:09.000Z</time>
      </trkpt>
      <trkpt lat="47.76088" lon="-3.36516">
        <ele>1.1</ele>
        <time>2020-08-21T14:35:10.000Z</time>
      </trkpt>
      <trkpt lat="47.76089" lon="-3.36517">
        <ele>1.2</ele>
        <time>2020-08-21T14:35:11.000Z</time>
      </trkpt>
      <trkpt lat="47.7609" lon="-3.36518">
        <ele>1.2</ele>
        <time>2020-08-21T14:35:12.000Z</time>
      </trkpt>
      <trkpt lat="47.76091" lon="-3.3652">
        <ele>1.3</ele>
        <time>2020-08-21T14:35:13.000Z</time>
      </trkpt>
      <trkpt lat="47.76092" lon="-3.36521">
        <ele>1.3</ele>
        <time>2020-08-21T14:35:14.000Z</time>
      </trkpt>
      <trkpt lat="47.76093" lon="-3.36522">
        <ele>1.4</ele>
        <time>2020-08-21T14:35:15.000Z</time>
      </trkpt>
      <trkpt lat="47.76094" lon="-3.36523">
        <ele>1.5</ele>
        <time>2020-08-21T14:35:16.000Z</time>
      </trkpt>
      <trkpt lat="47.76095" lon="-3.36525">
        <ele>1.5</ele>
        <time>2020-08-21T14:35:17.000Z</time>
      </trkpt>
      <trkpt lat="47.76096" lon="-3.36526">
        <ele>1.6</ele>
        <time>2020-08-21T14:35:18.000Z</time>
      </trkpt>
      <trkpt lat="47.76096" lon="-3.36527">
        <ele>1.7</ele>
        <time>2020-08-21T14:35:19.000Z</time>
      </trkpt>
      <trkpt lat="47.76097" lon="-3.36529">
        <ele>1.7</ele>
        <time>2020-08-21T14:35:20.000Z</time>
      </trkpt>
      <trkpt lat="47.76098" lon="-3.3653">
        <ele>1.8</ele>
        <time>2020-08-21T14:35:21.000Z</time>
      </trkpt>
      <trkpt lat="47.76099" lon="-3.36532">
        <ele>1.9</ele>
        <time>2020-08-21T14:35:22.000Z</time>
      </trkpt>
      <trkpt lat="47.761" lon="-3.36533">
        <ele>1.9</ele>
        <time>2020-08-21T14:35:23.000Z</time>
      </trkpt>
      <trkpt lat="47.76101" lon="-3.36535">
        <ele>2</ele>
        <time>2020-08-21T14:35:24.000Z</time>
      </trkpt>
      <trkpt lat="47.76101" lon="-3.36536">
        <ele>2</ele>
        <time>2020-08-21T14:35:25.000Z</time>
      </trkpt>
      <trkpt lat="47.76102" lon="-3.36537">
        <ele>2</ele>
        <time>2020-08-21T14:35:26.000Z</time>
      </trkpt>
      <trkpt lat="47.76103" lon="-3.36538">
        <ele>2.1</ele>
        <time>2020-08-21T14:35:27.000Z</time>
      </trkpt>
      <trkpt lat="47.76104" lon="-3.36539">
        <ele>2.1</ele>
        <time>2020-08-21T14:35:28.000Z</time>
      </trkpt>
      <trkpt lat="47.76104" lon="-3.3654">
        <ele>2.1</ele>
        <time>2020-08-21T14:35:29.000Z</time>
      </trkpt>
      <trkpt lat="47.76105" lon="-3.36541">
        <ele>2.2</ele>
        <time>2020-08-21T14:35:30.000Z</time>
      </trkpt>
      <trkpt lat="47.76106" lon="-3.36542">
        <ele>2.2</ele>
        <time>2020-08-21T14:35:31.000Z</time>
      </trkpt>
      <trkpt lat="47.76106" lon="-3.36543">
        <ele>2.3</ele>
        <time>2020-08-21T14:35:32.000Z</time>
      </trkpt>
      <trkpt lat="47.76107" lon="-3.36544">
        <ele>2.3</ele>
        <time>2020-08-21T14:35:33.000Z</time>
      </trkpt>
      <trkpt lat="47.76107" lon="-3.36546">
        <ele>2.4</ele>
        <time>2020-08-21T14:35:34.000Z</time>
      </trkpt>
      <trkpt lat="47.76108" lon="-3.36547">
        <ele>2.4</ele>
        <time>2020-08-21T14:35:35.000Z</time>
      </trkpt>
      <trkpt lat="47.76108" lon="-3.36549">
        <ele>2.5</ele>
        <time>2020-08-21T14:35:36.000Z</time>
      </trkpt>
      <trkpt lat="47.76108" lon="-3.3655">
        <ele>2.5</ele>
        <time>2020-08-21T14:35:37.000Z</time>
      </trkpt>
      <trkpt lat="47.76109" lon="-3.36552">
        <ele>2.6</ele>
        <time>2020-08-21T14:35:38.000Z</time>
      </trkpt>
      <trkpt lat="47.76109" lon="-3.36553">
        <ele>2.6</ele>
        <time>2020-08-21T14:35:39.000Z</time>
      </trkpt>
      <trkpt lat="47.7611" lon="-3.36555">
        <ele>2.7</ele>
        <time>2020-08-21T14:35:40.000Z</time>
      </trkpt>
      <trkpt lat="47.76111" lon="-3.36556">
        <ele>2.7</ele>
        <time>2020-08-21T14:35:41.000Z</time>
      </trkpt>
      <trkpt lat="47.76111" lon="-3.36558">
        <ele>2.8</ele>
        <time>2020-08-21T14:35:42.000Z</time>
      </trkpt>
      <trkpt lat="47.76112" lon="-3.36559">
        <ele>2.8</ele>
        <time>2020-08-21T14:35:43.000Z</time>
      </trkpt>
      <trkpt lat="47.76113" lon="-3.36561">
        <ele>2.8</ele>
        <time>2020-08-21T14:35:44.000Z</time>
      </trkpt>
      <trkpt lat="47.76114" lon="-3.36562">
        <ele>2.8</ele>
        <time>2020-08-21T14:35:45.000Z</time>
      </trkpt>
      <trkpt lat="47.76115" lon="-3.36564">
        <ele>2.9</ele>
        <time>2020-08-21T14:35:46.000Z</time>
      </trkpt>
      <trkpt lat="47.76115" lon="-3.36565">
        <ele>2.9</ele>
        <time>2020-08-21T14:35:47.000Z</time>
      </trkpt>
      <trkpt lat="47.76116" lon="-3.36567">
        <ele>2.9</ele>
        <time>2020-08-21T14:35:48.000Z</time>
      </trkpt>
      <trkpt lat="47.76117" lon="-3.36568">
        <ele>2.9</ele>
        <time>2020-08-21T14:35:49.000Z</time>
      </trkpt>
      <trkpt lat="47.76118" lon="-3.36569">
        <ele>2.9</ele>
        <time>2020-08-21T14:35:50.000Z</time>
      </trkpt>
      <trkpt lat="47.76119" lon="-3.36571">
        <ele>2.9</ele>
        <time>2020-08-21T14:35:51.000Z</time>
      </trkpt>
      <trkpt lat="47.76119" lon="-3.36572">
        <ele>3</ele>
        <time>2020-08-21T14:35:52.000Z</time>
      </trkpt>
      <trkpt lat="47.7612" lon="-3.36573">
        <ele>3</ele>
        <time>2020-08-21T14:35:53.000Z</time>
      </trkpt>
      <trkpt lat="47.76121" lon="-3.36575">
        <ele>3</ele>
        <time>2020-08-21T14:35:54.000Z</time>
      </trkpt>
      <trkpt lat="47.76122" lon="-3.36576">
        <ele>3</ele>
        <time>2020-08-21T14:35:55.000Z</time>
      </trkpt>
      <trkpt lat="47.76122" lon="-3.36577">
        <ele>3</ele>
        <time>2020-08-21T14:35:56.000Z</time>
      </trkpt>
      <trkpt lat="47.76123" lon="-3.36579">
        <ele>3</ele>
        <time>2020-08-21T14:35:57.000Z</time>
      </trkpt>
      <trkpt lat="47.76124" lon="-3.3658">
        <ele>3</ele>
        <time>2020-08-21T14:35:58.000Z</time>
      </trkpt>
      <trkpt lat="47.76125" lon="-3.36581">
        <ele>3</ele>
        <time>2020-08-21T14:35:59.000Z</time>
      </trkpt>
      <trkpt lat="47.76125" lon="-3.36583">
        <ele>3</ele>
        <time>2020-08-21T14:36:00.000Z</time>
      </trkpt>
      <trkpt lat="47.76126" lon="-3.36584">
        <ele>3</ele>
        <time>2020-08-21T14:36:01.000Z</time>
      </trkpt>
      <trkpt lat="47.76127" lon="-3.36585">
        <ele>3</ele>
        <time>2020-08-21T14:36:02.000Z</time>
      </trkpt>
      <trkpt lat="47.76127" lon="-3.36586">
        <ele>3</ele>
        <time>2020-08-21T14:36:03.000Z</time>
      </trkpt>
      <trkpt lat="47.76128" lon="-3.36588">
        <ele>3</ele>
        <time>2020-08-21T14:36:04.000Z</time>
      </trkpt>
      <trkpt lat="47.76129" lon="-3.36589">
        <ele>2.9</ele>
        <time>2020-08-21T14:36:05.000Z</time>
      </trkpt>
      <trkpt lat="47.7613" lon="-3.3659">
        <ele>2.9</ele>
        <time>2020-08-21T14:36:06.000Z</time>
      </trkpt>
      <trkpt lat="47.7613" lon="-3.36591">
        <ele>2.9</ele>
        <time>2020-08-21T14:36:07.000Z</time>
      </trkpt>
      <trkpt lat="47.76131" lon="-3.36593">
        <ele>2.9</ele>
        <time>2020-08-21T14:36:08.000Z</time>
      </trkpt>
      <trkpt lat="47.76132" lon="-3.36594">
        <ele>2.9</ele>
        <time>2020-08-21T14:36:09.000Z</time>
      </trkpt>
      <trkpt lat="47.76133" lon="-3.36595">
        <ele>2.9</ele>
        <time>2020-08-21T14:36:10.000Z</time>
      </trkpt>
      <trkpt lat="47.76134" lon="-3.36596">
        <ele>2.9</ele>
        <time>2020-08-21T14:36:11.000Z</time>
      </trkpt>
      <trkpt lat="47.76134" lon="-3.36597">
        <ele>2.9</ele>
        <time>2020-08-21T14:36:12.000Z</time>
      </trkpt>
      <trkpt lat="47.76135" lon="-3.36599">
        <ele>2.9</ele>
        <time>2020-08-21T14:36:13.000Z</time>
      </trkpt>
      <trkpt lat="47.76136" lon="-3.366">
        <ele>2.9</ele>
        <time>2020-08-21T14:36:14.000Z</time>
      </trkpt>
      <trkpt lat="47.76137" lon="-3.36601">
        <ele>2.9</ele>
        <time>2020-08-21T14:36:15.000Z</time>
      </trkpt>
      <trkpt lat="47.76138" lon="-3.36602">
        <ele>2.8</ele>
        <time>2020-08-21T14:36:16.000Z</time>
      </trkpt>
      <trkpt lat="47.76139" lon="-3.36603">
        <ele>2.8</ele>
        <time>2020-08-21T14:36:17.000Z</time>
      </trkpt>
      <trkpt lat="47.7614" lon="-3.36604">
        <ele>2.8</ele>
        <time>2020-08-21T14:36:18.000Z</time>
      </trkpt>
      <trkpt lat="47.76141" lon="-3.36606">
        <ele>2.8</ele>
        <time>2020-08-21T14:36:19.000Z</time>
      </trkpt>
      <trkpt lat="47.76141" lon="-3.36607">
        <ele>2.7</ele>
        <time>2020-08-21T14:36:20.000Z</time>
      </trkpt>
      <trkpt lat="47.76142" lon="-3.36608">
        <ele>2.7</ele>
        <time>2020-08-21T14:36:21.000Z</time>
      </trkpt>
      <trkpt lat="47.76143" lon="-3.36609">
        <ele>2.7</ele>
        <time>2020-08-21T14:36:22.000Z</time>
      </trkpt>
      <trkpt lat="47.76144" lon="-3.3661">
        <ele>2.7</ele>
        <time>2020-08-21T14:36:23.000Z</time>
      </trkpt>
      <trkpt lat="47.76145" lon="-3.36611">
        <ele>2.6</ele>
        <time>2020-08-21T14:36:24.000Z</time>
      </trkpt>
      <trkpt lat="47.76146" lon="-3.36612">
        <ele>2.6</ele>
        <time>2020-08-21T14:36:25.000Z</time>
      </trkpt>
      <trkpt lat="47.76147" lon="-3.36613">
        <ele>2.6</ele>
        <time>2020-08-21T14:36:26.000Z</time>
      </trkpt>
      <trkpt lat="47.76149" lon="-3.36615">
        <ele>2.5</ele>
        <time>2020-08-21T14:36:27.000Z</time>
      </trkpt>
      <trkpt lat="47.7615" lon="-3.36616">
        <ele>2.5</ele>
        <time>2020-08-21T14:36:28.000Z</time>
      </trkpt>
      <trkpt lat="47.76151" lon="-3.36617">
        <ele>2.4</ele>
        <time>2020-08-21T14:36:29.000Z</time>
      </trkpt>
      <trkpt lat="47.76152" lon="-3.36618">
        <ele>2.4</ele>
        <time>2020-08-21T14:36:30.000Z</time>
      </trkpt>
      <trkpt lat="47.76153" lon="-3.36619">
        <ele>2.3</ele>
        <time>2020-08-21T14:36:31.000Z</time>
      </trkpt>
      <trkpt lat="47.76154" lon="-3.3662">
        <ele>2.3</ele>
        <time>2020-08-21T14:36:32.000Z</time>
      </trkpt>
      <trkpt lat="47.76155" lon="-3.36621">
        <ele>2.2</ele>
        <time>2020-08-21T14:36:33.000Z</time>
      </trkpt>
      <trkpt lat="47.76156" lon="-3.36622">
        <ele>2.2</ele>
        <time>2020-08-21T14:36:34.000Z</time>
      </trkpt>
      <trkpt lat="47.76157" lon="-3.36623">
        <ele>2.2</ele>
        <time>2020-08-21T14:36:35.000Z</time>
      </trkpt>
      <trkpt lat="47.76158" lon="-3.36624">
        <ele>2.1</ele>
        <time>2020-08-21T14:36:36.000Z</time>
      </trkpt>
      <trkpt lat="47.76159" lon="-3.36625">
        <ele>2.1</ele>
        <time>2020-08-21T14:36:37.000Z</time>
      </trkpt>
      <trkpt lat="47.7616" lon="-3.36626">
        <ele>2.1</ele>
        <time>2020-08-21T14:36:38.000Z</time>
      </trkpt>
      <trkpt lat="47.7616" lon="-3.36627">
        <ele>2.1</ele>
        <time>2020-08-21T14:36:39.000Z</time>
      </trkpt>
      <trkpt lat="47.76161" lon="-3.36627">
        <ele>2</ele>
        <time>2020-08-21T14:36:40.000Z</time>
      </trkpt>
      <trkpt lat="47.76162" lon="-3.36628">
        <ele>2</ele>
        <time>2020-08-21T14:36:41.000Z</time>
      </trkpt>
      <trkpt lat="47.76163" lon="-3.36629">
        <ele>2</ele>
        <time>2020-08-21T14:36:42.000Z</time>
      </trkpt>
      <trkpt lat="47.76163" lon="-3.3663">
        <ele>1.9</ele>
        <time>2020-08-21T14:36:43.000Z</time>
      </trkpt>
      <trkpt lat="47.76164" lon="-3.36631">
        <ele>1.9</ele>
        <time>2020-08-21T14:36:44.000Z</time>
      </trkpt>
      <trkpt lat="47.76165" lon="-3.36632">
        <ele>1.8</ele>
        <time>2020-08-21T14:36:45.000Z</time>
      </trkpt>
      <trkpt lat="47.76167" lon="-3.36633">
        <ele>1.8</ele>
        <time>2020-08-21T14:36:46.000Z</time>
      </trkpt>
      <trkpt lat="47.76168" lon="-3.36633">
        <ele>1.8</ele>
        <time>2020-08-21T14:36:47.000Z</time>
      </trkpt>
      <trkpt lat="47.76169" lon="-3.36634">
        <ele>1.8</ele>
        <time>2020-08-21T14:36:48.000Z</time>
      </trkpt>
      <trkpt lat="47.7617" lon="-3.36635">
        <ele>1.8</ele>
        <time>2020-08-21T14:36:49.000Z</time>
      </trkpt>
      <trkpt lat="47.76171" lon="-3.36635">
        <ele>1.8</ele>
        <time>2020-08-21T14:36:50.000Z</time>
      </trkpt>
      <trkpt lat="47.76172" lon="-3.36636">
        <ele>1.8</ele>
        <time>2020-08-21T14:36:51.000Z</time>
      </trkpt>
      <trkpt lat="47.76173" lon="-3.36636">
        <ele>1.8</ele>
        <time>2020-08-21T14:36:52.000Z</time>
      </trkpt>
      <trkpt lat="47.76174" lon="-3.36637">
        <ele>1.8</ele>
        <time>2020-08-21T14:36:53.000Z</time>
      </trkpt>
      <trkpt lat="47.76175" lon="-3.36637">
        <ele>1.7</ele>
        <time>2020-08-21T14:36:54.000Z</time>
      </trkpt>
      <trkpt lat="47.76175" lon="-3.36637">
        <ele>1.7</ele>
        <time>2020-08-21T14:36:55.000Z</time>
      </trkpt>
      <trkpt lat="47.76176" lon="-3.36638">
        <ele>1.7</ele>
        <time>2020-08-21T14:36:56.000Z</time>
      </trkpt>
      <trkpt lat="47.76177" lon="-3.36638">
        <ele>1.7</ele>
        <time>2020-08-21T14:36:57.000Z</time>
      </trkpt>
      <trkpt lat="47.76178" lon="-3.36638">
        <ele>1.7</ele>
        <time>2020-08-21T14:36:58.000Z</time>
      </trkpt>
      <trkpt lat="47.76179" lon="-3.36639">
        <ele>1.7</ele>
        <time>2020-08-21T14:36:59.000Z</time>
      </trkpt>
      <trkpt lat="47.7618" lon="-3.36639">
        <ele>1.7</ele>
        <time>2020-08-21T14:37:00.000Z</time>
      </trkpt>
      <trkpt lat="47.76181" lon="-3.36639">
        <ele>1.7</ele>
        <time>2020-08-21T14:37:01.000Z</time>
      </trkpt>
      <trkpt lat="47.76182" lon="-3.3664">
        <ele>1.7</ele>
        <time>2020-08-21T14:37:02.000Z</time>
      </trkpt>
      <trkpt lat="47.76183" lon="-3.3664">
        <ele>1.6</ele>
        <time>2020-08-21T14:37:03.000Z</time>
      </trkpt>
      <trkpt lat="47.76185" lon="-3.36641">
        <ele>1.6</ele>
        <time>2020-08-21T14:37:04.000Z</time>
      </trkpt>
      <trkpt lat="47.76186" lon="-3.36641">
        <ele>1.6</ele>
        <time>2020-08-21T14:37:05.000Z</time>
      </trkpt>
      <trkpt lat="47.76187" lon="-3.36642">
        <ele>1.6</ele>
        <time>2020-08-21T14:37:06.000Z</time>
      </trkpt>
      <trkpt lat="47.76188" lon="-3.36642">
        <ele>1.6</ele>
        <time>2020-08-21T14:37:07.000Z</time>
      </trkpt>
      <trkpt lat="47.76189" lon="-3.36642">
        <ele>1.5</ele>
        <time>2020-08-21T14:37:08.000Z</time>
      </trkpt>
      <trkpt lat="47.7619" lon="-3.36642">
        <ele>1.5</ele>
        <time>2020-08-21T14:37:09.000Z</time>
      </trkpt>
      <trkpt lat="47.76192" lon="-3.36643">
        <ele>1.5</ele>
        <time>2020-08-21T14:37:10.000Z</time>
      </trkpt>
      <trkpt lat="47.76193" lon="-3.36643">
        <ele>1.5</ele>
        <time>2020-08-21T14:37:11.000Z</time>
      </trkpt>
      <trkpt lat="47.76194" lon="-3.36643">
        <ele>1.4</ele>
        <time>2020-08-21T14:37:12.000Z</time>
      </trkpt>
      <trkpt lat="47.76195" lon="-3.36643">
        <ele>1.4</ele>
        <time>2020-08-21T14:37:13.000Z</time>
      </trkpt>
      <trkpt lat="47.76196" lon="-3.36644">
        <ele>1.4</ele>
        <time>2020-08-21T14:37:14.000Z</time>
      </trkpt>
      <trkpt lat="47.76198" lon="-3.36644">
        <ele>1.4</ele>
        <time>2020-08-21T14:37:15.000Z</time>
      </trkpt>
      <trkpt lat="47.76199" lon="-3.36644">
        <ele>1.3</ele>
        <time>2020-08-21T14:37:16.000Z</time>
      </trkpt>
      <trkpt lat="47.762" lon="-3.36644">
        <ele>1.3</ele>
        <time>2020-08-21T14:37:17.000Z</time>
      </trkpt>
      <trkpt lat="47.76201" lon="-3.36645">
        <ele>1.3</ele>
        <time>2020-08-21T14:37:18.000Z</time>
      </trkpt>
      <trkpt lat="47.76202" lon="-3.36645">
        <ele>1.3</ele>
        <time>2020-08-21T14:37:19.000Z</time>
      </trkpt>
      <trkpt lat="47.76204" lon="-3.36646">
        <ele>1.2</ele>
        <time>2020-08-21T14:37:20.000Z</time>
      </trkpt>
      <trkpt lat="47.76205" lon="-3.36646">
        <ele>1.2</ele>
        <time>2020-08-21T14:37:21.000Z</time>
      </trkpt>
      <trkpt lat="47.76206" lon="-3.36646">
        <ele>1.2</ele>
        <time>2020-08-21T14:37:22.000Z</time>
      </trkpt>
      <trkpt lat="47.76207" lon="-3.36647">
        <ele>1.2</ele>
        <time>2020-08-21T14:37:23.000Z</time>
      </trkpt>
      <trkpt lat="47.76209" lon="-3.36647">
        <ele>1.1</ele>
        <time>2020-08-21T14:37:24.000Z</time>
      </trkpt>
      <trkpt lat="47.7621" lon="-3.36648">
        <ele>1.1</ele>
        <time>2020-08-21T14:37:25.000Z</time>
      </trkpt>
      <trkpt lat="47.76211" lon="-3.36648">
        <ele>1.1</ele>
        <time>2020-08-21T14:37:26.000Z</time>
      </trkpt>
      <trkpt lat="47.76212" lon="-3.36649">
        <ele>1.1</ele>
        <time>2020-08-21T14:37:27.000Z</time>
      </trkpt>
      <trkpt lat="47.76213" lon="-3.36649">
        <ele>1</ele>
        <time>2020-08-21T14:37:28.000Z</time>
      </trkpt>
      <trkpt lat="47.76215" lon="-3.3665">
        <ele>1</ele>
        <time>2020-08-21T14:37:29.000Z</time>
      </trkpt>
      <trkpt lat="47.76216" lon="-3.3665">
        <ele>1</ele>
        <time>2020-08-21T14:37:30.000Z</time>
      </trkpt>
      <trkpt lat="47.76217" lon="-3.36651">
        <ele>1</ele>
        <time>2020-08-21T14:37:31.000Z</time>
      </trkpt>
      <trkpt lat="47.76218" lon="-3.36651">
        <ele>0.9</ele>
        <time>2020-08-21T14:37:32.000Z</time>
      </trkpt>
      <trkpt lat="47.76219" lon="-3.36652">
        <ele>0.9</ele>
        <time>2020-08-21T14:37:33.000Z</time>
      </trkpt>
      <trkpt lat="47.76221" lon="-3.36652">
        <ele>0.9</ele>
        <time>2020-08-21T14:37:34.000Z</time>
      </trkpt>
      <trkpt lat="47.76222" lon="-3.36653">
        <ele>0.8</ele>
        <time>2020-08-21T14:37:35.000Z</time>
      </trkpt>
      <trkpt lat="47.76223" lon="-3.36653">
        <ele>0.8</ele>
        <time>2020-08-21T14:37:36.000Z</time>
      </trkpt>
      <trkpt lat="47.76224" lon="-3.36654">
        <ele>0.8</ele>
        <time>2020-08-21T14:37:37.000Z</time>
      </trkpt>
      <trkpt lat="47.76225" lon="-3.36654">
        <ele>0.8</ele>
        <time>2020-08-21T14:37:38.000Z</time>
      </trkpt>
      <trkpt lat="47.76227" lon="-3.36654">
        <ele>0.7</ele>
        <time>2020-08-21T14:37:39.000Z</time>
      </trkpt>
      <trkpt lat="47.76228" lon="-3.36655">
        <ele>0.7</ele>
        <time>2020-08-21T14:37:40.000Z</time>
      </trkpt>
      <trkpt lat="47.76229" lon="-3.36655">
        <ele>0.7</ele>
        <time>2020-08-21T14:37:41.000Z</time>
      </trkpt>
      <trkpt lat="47.7623" lon="-3.36656">
        <ele>0.6</ele>
        <time>2020-08-21T14:37:42.000Z</time>
      </trkpt>
      <trkpt lat="47.76231" lon="-3.36656">
        <ele>0.6</ele>
        <time>2020-08-21T14:37:43.000Z</time>
      </trkpt>
      <trkpt lat="47.76233" lon="-3.36657">
        <ele>0.6</ele>
        <time>2020-08-21T14:37:44.000Z</time>
      </trkpt>
      <trkpt lat="47.76234" lon="-3.36657">
        <ele>0.5</ele>
        <time>2020-08-21T14:37:45.000Z</time>
      </trkpt>
      <trkpt lat="47.76235" lon="-3.36658">
        <ele>0.5</ele>
        <time>2020-08-21T14:37:46.000Z</time>
      </trkpt>
      <trkpt lat="47.76236" lon="-3.36658">
        <ele>0.5</ele>
        <time>2020-08-21T14:37:47.000Z</time>
      </trkpt>
      <trkpt lat="47.76237" lon="-3.36658">
        <ele>0.4</ele>
        <time>2020-08-21T14:37:48.000Z</time>
      </trkpt>
      <trkpt lat="47.76238" lon="-3.36659">
        <ele>0.4</ele>
        <time>2020-08-21T14:37:49.000Z</time>
      </trkpt>
      <trkpt lat="47.7624" lon="-3.36659">
        <ele>0.3</ele>
        <time>2020-08-21T14:37:50.000Z</time>
      </trkpt>
      <trkpt lat="47.76241" lon="-3.3666">
        <ele>0.3</ele>
        <time>2020-08-21T14:37:51.000Z</time>
      </trkpt>
      <trkpt lat="47.76242" lon="-3.3666">
        <ele>0.3</ele>
        <time>2020-08-21T14:37:52.000Z</time>
      </trkpt>
      <trkpt lat="47.76243" lon="-3.3666">
        <ele>0.2</ele>
        <time>2020-08-21T14:37:53.000Z</time>
      </trkpt>
      <trkpt lat="47.76244" lon="-3.36661">
        <ele>0.2</ele>
        <time>2020-08-21T14:37:54.000Z</time>
      </trkpt>
      <trkpt lat="47.76245" lon="-3.36661">
        <ele>0.2</ele>
        <time>2020-08-21T14:37:55.000Z</time>
      </trkpt>
      <trkpt lat="47.76247" lon="-3.36662">
        <ele>0.1</ele>
        <time>2020-08-21T14:37:56.000Z</time>
      </trkpt>
      <trkpt lat="47.76248" lon="-3.36662">
        <ele>0.1</ele>
        <time>2020-08-21T14:37:57.000Z</time>
      </trkpt>
      <trkpt lat="47.76249" lon="-3.36662">
        <ele>3</ele>
        <time>2020-08-21T14:37:58.000Z</time>
      </trkpt>
      <trkpt lat="47.7625" lon="-3.36663">
        <ele>3</ele>
        <time>2020-08-21T14:37:59.000Z</time>
      </trkpt>
      <trkpt lat="47.76251" lon="-3.36663">
        <ele>3.7</ele>
        <time>2020-08-21T14:38:00.000Z</time>
      </trkpt>
      <trkpt lat="47.76252" lon="-3.36664">
        <ele>3.7</ele>
        <time>2020-08-21T14:38:01.000Z</time>
      </trkpt>
      <trkpt lat="47.76253" lon="-3.36664">
        <ele>3.6</ele>
        <time>2020-08-21T14:38:02.000Z</time>
      </trkpt>
      <trkpt lat="47.76255" lon="-3.36664">
        <ele>3.5</ele>
        <time>2020-08-21T14:38:03.000Z</time>
      </trkpt>
      <trkpt lat="47.76256" lon="-3.36665">
        <ele>3.5</ele>
        <time>2020-08-21T14:38:04.000Z</time>
      </trkpt>
      <trkpt lat="47.76257" lon="-3.36665">
        <ele>3.4</ele>
        <time>2020-08-21T14:38:05.000Z</time>
      </trkpt>
      <trkpt lat="47.76258" lon="-3.36666">
        <ele>3.4</ele>
        <time>2020-08-21T14:38:06.000Z</time>
      </trkpt>
      <trkpt lat="47.76259" lon="-3.36666">
        <ele>3.3</ele>
        <time>2020-08-21T14:38:07.000Z</time>
      </trkpt>
      <trkpt lat="47.7626" lon="-3.36666">
        <ele>3.2</ele>
        <time>2020-08-21T14:38:08.000Z</time>
      </trkpt>
      <trkpt lat="47.76261" lon="-3.36667">
        <ele>4.1</ele>
        <time>2020-08-21T14:38:09.000Z</time>
      </trkpt>
      <trkpt lat="47.76262" lon="-3.36667">
        <ele>4.1</ele>
        <time>2020-08-21T14:38:10.000Z</time>
      </trkpt>
      <trkpt lat="47.76264" lon="-3.36668">
        <ele>0.1</ele>
        <time>2020-08-21T14:38:11.000Z</time>
      </trkpt>
      <trkpt lat="47.76265" lon="-3.36668">
        <ele>0.1</ele>
        <time>2020-08-21T14:38:12.000Z</time>
      </trkpt>
      <trkpt lat="47.76266" lon="-3.36669">
        <ele>0.1</ele>
        <time>2020-08-21T14:38:13.000Z</time>
      </trkpt>
      <trkpt lat="47.76267" lon="-3.36669">
        <ele>0.1</ele>
        <time>2020-08-21T14:38:14.000Z</time>
      </trkpt>
      <trkpt lat="47.76268" lon="-3.36669">
        <ele>0.1</ele>
        <time>2020-08-21T14:38:15.000Z</time>
      </trkpt>
      <trkpt lat="47.76269" lon="-3.3667">
        <ele>0.2</ele>
        <time>2020-08-21T14:38:16.000Z</time>
      </trkpt>
      <trkpt lat="47.7627" lon="-3.3667">
        <ele>0.2</ele>
        <time>2020-08-21T14:38:17.000Z</time>
      </trkpt>
      <trkpt lat="47.76271" lon="-3.3667">
        <ele>0.2</ele>
        <time>2020-08-21T14:38:18.000Z</time>
      </trkpt>
      <trkpt lat="47.76272" lon="-3.3667">
        <ele>0.2</ele>
        <time>2020-08-21T14:38:19.000Z</time>
      </trkpt>
      <trkpt lat="47.76273" lon="-3.36671">
        <ele>0.2</ele>
        <time>2020-08-21T14:38:20.000Z</time>
      </trkpt>
      <trkpt lat="47.76274" lon="-3.36671">
        <ele>0.2</ele>
        <time>2020-08-21T14:38:21.000Z</time>
      </trkpt>
      <trkpt lat="47.76275" lon="-3.36671">
        <ele>0.2</ele>
        <time>2020-08-21T14:38:22.000Z</time>
      </trkpt>
      <trkpt lat="47.76276" lon="-3.36671">
        <ele>0.2</ele>
        <time>2020-08-21T14:38:23.000Z</time>
      </trkpt>
      <trkpt lat="47.76277" lon="-3.36671">
        <ele>0.2</ele>
        <time>2020-08-21T14:38:24.000Z</time>
      </trkpt>
      <trkpt lat="47.76278" lon="-3.36671">
        <ele>0.2</ele>
        <time>2020-08-21T14:38:25.000Z</time>
      </trkpt>
      <trkpt lat="47.76279" lon="-3.36672">
        <ele>0.3</ele>
        <time>2020-08-21T14:38:26.000Z</time>
      </trkpt>
      <trkpt lat="47.7628" lon="-3.36672">
        <ele>0.3</ele>
        <time>2020-08-21T14:38:27.000Z</time>
      </trkpt>
      <trkpt lat="47.76281" lon="-3.36672">
        <ele>0.3</ele>
        <time>2020-08-21T14:38:28.000Z</time>
      </trkpt>
      <trkpt lat="47.76282" lon="-3.36673">
        <ele>0.3</ele>
        <time>2020-08-21T14:38:29.000Z</time>
      </trkpt>
      <trkpt lat="47.76283" lon="-3.36673">
        <ele>0.3</ele>
        <time>2020-08-21T14:38:30.000Z</time>
      </trkpt>
      <trkpt lat="47.76284" lon="-3.36673">
        <ele>0.3</ele>
        <time>2020-08-21T14:38:31.000Z</time>
      </trkpt>
      <trkpt lat="47.76285" lon="-3.36674">
        <ele>0.4</ele>
        <time>2020-08-21T14:38:32.000Z</time>
      </trkpt>
      <trkpt lat="47.76286" lon="-3.36674">
        <ele>0.4</ele>
        <time>2020-08-21T14:38:33.000Z</time>
      </trkpt>
      <trkpt lat="47.76288" lon="-3.36675">
        <ele>0.4</ele>
        <time>2020-08-21T14:38:34.000Z</time>
      </trkpt>
      <trkpt lat="47.76289" lon="-3.36675">
        <ele>0.4</ele>
        <time>2020-08-21T14:38:35.000Z</time>
      </trkpt>
      <trkpt lat="47.7629" lon="-3.36676">
        <ele>0.4</ele>
        <time>2020-08-21T14:38:36.000Z</time>
      </trkpt>
      <trkpt lat="47.76291" lon="-3.36676">
        <ele>0.5</ele>
        <time>2020-08-21T14:38:37.000Z</time>
      </trkpt>
      <trkpt lat="47.76292" lon="-3.36677">
        <ele>0.5</ele>
        <time>2020-08-21T14:38:38.000Z</time>
      </trkpt>
      <trkpt lat="47.76293" lon="-3.36677">
        <ele>0.5</ele>
        <time>2020-08-21T14:38:39.000Z</time>
      </trkpt>
      <trkpt lat="47.76295" lon="-3.36678">
        <ele>0.5</ele>
        <time>2020-08-21T14:38:40.000Z</time>
      </trkpt>
      <trkpt lat="47.76296" lon="-3.36678">
        <ele>0.5</ele>
        <time>2020-08-21T14:38:41.000Z</time>
      </trkpt>
      <trkpt lat="47.76297" lon="-3.36679">
        <ele>0.6</ele>
        <time>2020-08-21T14:38:42.000Z</time>
      </trkpt>
      <trkpt lat="47.76298" lon="-3.36679">
        <ele>0.6</ele>
        <time>2020-08-21T14:38:43.000Z</time>
      </trkpt>
      <trkpt lat="47.76299" lon="-3.3668">
        <ele>0.6</ele>
        <time>2020-08-21T14:38:44.000Z</time>
      </trkpt>
      <trkpt lat="47.763" lon="-3.3668">
        <ele>0.6</ele>
        <time>2020-08-21T14:38:45.000Z</time>
      </trkpt>
      <trkpt lat="47.76301" lon="-3.3668">
        <ele>0.6</ele>
        <time>2020-08-21T14:38:46.000Z</time>
      </trkpt>
      <trkpt lat="47.76302" lon="-3.36681">
        <ele>0.6</ele>
        <time>2020-08-21T14:38:47.000Z</time>
      </trkpt>
      <trkpt lat="47.76304" lon="-3.36681">
        <ele>0.6</ele>
        <time>2020-08-21T14:38:48.000Z</time>
      </trkpt>
      <trkpt lat="47.76305" lon="-3.36682">
        <ele>0.7</ele>
        <time>2020-08-21T14:38:49.000Z</time>
      </trkpt>
      <trkpt lat="47.76306" lon="-3.36682">
        <ele>0.7</ele>
        <time>2020-08-21T14:38:50.000Z</time>
      </trkpt>
      <trkpt lat="47.76307" lon="-3.36682">
        <ele>0.7</ele>
        <time>2020-08-21T14:38:51.000Z</time>
      </trkpt>
      <trkpt lat="47.76308" lon="-3.36683">
        <ele>0.7</ele>
        <time>2020-08-21T14:38:52.000Z</time>
      </trkpt>
      <trkpt lat="47.76309" lon="-3.36683">
        <ele>0.7</ele>
        <time>2020-08-21T14:38:53.000Z</time>
      </trkpt>
      <trkpt lat="47.7631" lon="-3.36684">
        <ele>0.7</ele>
        <time>2020-08-21T14:38:54.000Z</time>
      </trkpt>
      <trkpt lat="47.76311" lon="-3.36684">
        <ele>0.7</ele>
        <time>2020-08-21T14:38:55.000Z</time>
      </trkpt>
      <trkpt lat="47.76313" lon="-3.36684">
        <ele>0.7</ele>
        <time>2020-08-21T14:38:56.000Z</time>
      </trkpt>
      <trkpt lat="47.76314" lon="-3.36685">
        <ele>0.8</ele>
        <time>2020-08-21T14:38:57.000Z</time>
      </trkpt>
      <trkpt lat="47.76315" lon="-3.36685">
        <ele>0.8</ele>
        <time>2020-08-21T14:38:58.000Z</time>
      </trkpt>
      <trkpt lat="47.76316" lon="-3.36686">
        <ele>0.8</ele>
        <time>2020-08-21T14:38:59.000Z</time>
      </trkpt>
      <trkpt lat="47.76317" lon="-3.36686">
        <ele>0.8</ele>
        <time>2020-08-21T14:39:00.000Z</time>
      </trkpt>
      <trkpt lat="47.76318" lon="-3.36686">
        <ele>0.8</ele>
        <time>2020-08-21T14:39:01.000Z</time>
      </trkpt>
      <trkpt lat="47.76319" lon="-3.36687">
        <ele>0.8</ele>
        <time>2020-08-21T14:39:02.000Z</time>
      </trkpt>
      <trkpt lat="47.76321" lon="-3.36687">
        <ele>0.8</ele>
        <time>2020-08-21T14:39:03.000Z</time>
      </trkpt>
      <trkpt lat="47.76322" lon="-3.36688">
        <ele>0.8</ele>
        <time>2020-08-21T14:39:04.000Z</time>
      </trkpt>
      <trkpt lat="47.76323" lon="-3.36688">
        <ele>0.8</ele>
        <time>2020-08-21T14:39:05.000Z</time>
      </trkpt>
      <trkpt lat="47.76324" lon="-3.36689">
        <ele>0.8</ele>
        <time>2020-08-21T14:39:06.000Z</time>
      </trkpt>
      <trkpt lat="47.76325" lon="-3.36689">
        <ele>0.9</ele>
        <time>2020-08-21T14:39:07.000Z</time>
      </trkpt>
      <trkpt lat="47.76327" lon="-3.3669">
        <ele>0.9</ele>
        <time>2020-08-21T14:39:08.000Z</time>
      </trkpt>
      <trkpt lat="47.76328" lon="-3.3669">
        <ele>0.9</ele>
        <time>2020-08-21T14:39:09.000Z</time>
      </trkpt>
      <trkpt lat="47.76329" lon="-3.3669">
        <ele>0.9</ele>
        <time>2020-08-21T14:39:10.000Z</time>
      </trkpt>
      <trkpt lat="47.7633" lon="-3.36691">
        <ele>0.9</ele>
        <time>2020-08-21T14:39:11.000Z</time>
      </trkpt>
      <trkpt lat="47.76331" lon="-3.36691">
        <ele>0.9</ele>
        <time>2020-08-21T14:39:12.000Z</time>
      </trkpt>
      <trkpt lat="47.76333" lon="-3.36692">
        <ele>0.9</ele>
        <time>2020-08-21T14:39:13.000Z</time>
      </trkpt>
      <trkpt lat="47.76334" lon="-3.36692">
        <ele>0.9</ele>
        <time>2020-08-21T14:39:14.000Z</time>
      </trkpt>
      <trkpt lat="47.76335" lon="-3.36693">
        <ele>0.9</ele>
        <time>2020-08-21T14:39:15.000Z</time>
      </trkpt>
      <trkpt lat="47.76336" lon="-3.36693">
        <ele>0.9</ele>
        <time>2020-08-21T14:39:16.000Z</time>
      </trkpt>
      <trkpt lat="47.76337" lon="-3.36694">
        <ele>1</ele>
        <time>2020-08-21T14:39:17.000Z</time>
      </trkpt>
      <trkpt lat="47.76338" lon="-3.36694">
        <ele>1</ele>
        <time>2020-08-21T14:39:18.000Z</time>
      </trkpt>
      <trkpt lat="47.76339" lon="-3.36695">
        <ele>1</ele>
        <time>2020-08-21T14:39:19.000Z</time>
      </trkpt>
      <trkpt lat="47.7634" lon="-3.36695">
        <ele>1</ele>
        <time>2020-08-21T14:39:20.000Z</time>
      </trkpt>
      <trkpt lat="47.76341" lon="-3.36696">
        <ele>1</ele>
        <time>2020-08-21T14:39:21.000Z</time>
      </trkpt>
      <trkpt lat="47.76342" lon="-3.36696">
        <ele>1</ele>
        <time>2020-08-21T14:39:22.000Z</time>
      </trkpt>
      <trkpt lat="47.76343" lon="-3.36697">
        <ele>1</ele>
        <time>2020-08-21T14:39:23.000Z</time>
      </trkpt>
      <trkpt lat="47.76344" lon="-3.36697">
        <ele>1.1</ele>
        <time>2020-08-21T14:39:24.000Z</time>
      </trkpt>
      <trkpt lat="47.76345" lon="-3.36698">
        <ele>1.1</ele>
        <time>2020-08-21T14:39:25.000Z</time>
      </trkpt>
      <trkpt lat="47.76346" lon="-3.36698">
        <ele>1.1</ele>
        <time>2020-08-21T14:39:26.000Z</time>
      </trkpt>
      <trkpt lat="47.76348" lon="-3.36699">
        <ele>1.1</ele>
        <time>2020-08-21T14:39:27.000Z</time>
      </trkpt>
      <trkpt lat="47.76349" lon="-3.36699">
        <ele>1.1</ele>
        <time>2020-08-21T14:39:28.000Z</time>
      </trkpt>
      <trkpt lat="47.7635" lon="-3.367">
        <ele>1.1</ele>
        <time>2020-08-21T14:39:29.000Z</time>
      </trkpt>
      <trkpt lat="47.76351" lon="-3.36701">
        <ele>1.1</ele>
        <time>2020-08-21T14:39:30.000Z</time>
      </trkpt>
      <trkpt lat="47.76352" lon="-3.36701">
        <ele>1.1</ele>
        <time>2020-08-21T14:39:31.000Z</time>
      </trkpt>
      <trkpt lat="47.76354" lon="-3.36702">
        <ele>1.2</ele>
        <time>2020-08-21T14:39:32.000Z</time>
      </trkpt>
      <trkpt lat="47.76355" lon="-3.36702">
        <ele>1.2</ele>
        <time>2020-08-21T14:39:33.000Z</time>
      </trkpt>
      <trkpt lat="47.76356" lon="-3.36703">
        <ele>1.2</ele>
        <time>2020-08-21T14:39:34.000Z</time>
      </trkpt>
      <trkpt lat="47.76357" lon="-3.36703">
        <ele>1.2</ele>
        <time>2020-08-21T14:39:35.000Z</time>
      </trkpt>
      <trkpt lat="47.76358" lon="-3.36703">
        <ele>1.2</ele>
        <time>2020-08-21T14:39:36.000Z</time>
      </trkpt>
      <trkpt lat="47.7636" lon="-3.36704">
        <ele>1.2</ele>
        <time>2020-08-21T14:39:37.000Z</time>
      </trkpt>
      <trkpt lat="47.76361" lon="-3.36704">
        <ele>1.2</ele>
        <time>2020-08-21T14:39:38.000Z</time>
      </trkpt>
      <trkpt lat="47.76362" lon="-3.36705">
        <ele>1.2</ele>
        <time>2020-08-21T14:39:39.000Z</time>
      </trkpt>
      <trkpt lat="47.76363" lon="-3.36705">
        <ele>1.2</ele>
        <time>2020-08-21T14:39:40.000Z</time>
      </trkpt>
      <trkpt lat="47.76364" lon="-3.36706">
        <ele>1.2</ele>
        <time>2020-08-21T14:39:41.000Z</time>
      </trkpt>
      <trkpt lat="47.76366" lon="-3.36706">
        <ele>1.2</ele>
        <time>2020-08-21T14:39:42.000Z</time>
      </trkpt>
      <trkpt lat="47.76367" lon="-3.36706">
        <ele>1.2</ele>
        <time>2020-08-21T14:39:43.000Z</time>
      </trkpt>
      <trkpt lat="47.76368" lon="-3.36707">
        <ele>1.2</ele>
        <time>2020-08-21T14:39:44.000Z</time>
      </trkpt>
      <trkpt lat="47.76369" lon="-3.36707">
        <ele>1.3</ele>
        <time>2020-08-21T14:39:45.000Z</time>
      </trkpt>
      <trkpt lat="47.7637" lon="-3.36708">
        <ele>1.3</ele>
        <time>2020-08-21T14:39:46.000Z</time>
      </trkpt>
      <trkpt lat="47.76371" lon="-3.36708">
        <ele>1.3</ele>
        <time>2020-08-21T14:39:47.000Z</time>
      </trkpt>
      <trkpt lat="47.76373" lon="-3.36709">
        <ele>1.3</ele>
        <time>2020-08-21T14:39:48.000Z</time>
      </trkpt>
      <trkpt lat="47.76374" lon="-3.36709">
        <ele>1.3</ele>
        <time>2020-08-21T14:39:49.000Z</time>
      </trkpt>
      <trkpt lat="47.76375" lon="-3.3671">
        <ele>1.3</ele>
        <time>2020-08-21T14:39:50.000Z</time>
      </trkpt>
      <trkpt lat="47.76376" lon="-3.3671">
        <ele>1.3</ele>
        <time>2020-08-21T14:39:51.000Z</time>
      </trkpt>
      <trkpt lat="47.76377" lon="-3.36711">
        <ele>1.3</ele>
        <time>2020-08-21T14:39:52.000Z</time>
      </trkpt>
      <trkpt lat="47.76378" lon="-3.36711">
        <ele>1.3</ele>
        <time>2020-08-21T14:39:53.000Z</time>
      </trkpt>
      <trkpt lat="47.76379" lon="-3.36712">
        <ele>1.3</ele>
        <time>2020-08-21T14:39:54.000Z</time>
      </trkpt>
      <trkpt lat="47.7638" lon="-3.36713">
        <ele>1.3</ele>
        <time>2020-08-21T14:39:55.000Z</time>
      </trkpt>
      <trkpt lat="47.76381" lon="-3.36713">
        <ele>1.4</ele>
        <time>2020-08-21T14:39:56.000Z</time>
      </trkpt>
      <trkpt lat="47.76382" lon="-3.36714">
        <ele>1.4</ele>
        <time>2020-08-21T14:39:57.000Z</time>
      </trkpt>
      <trkpt lat="47.76383" lon="-3.36715">
        <ele>1.4</ele>
        <time>2020-08-21T14:39:58.000Z</time>
      </trkpt>
      <trkpt lat="47.76384" lon="-3.36715">
        <ele>1.4</ele>
        <time>2020-08-21T14:39:59.000Z</time>
      </trkpt>
      <trkpt lat="47.76385" lon="-3.36716">
        <ele>1.4</ele>
        <time>2020-08-21T14:40:00.000Z</time>
      </trkpt>
      <trkpt lat="47.76386" lon="-3.36717">
        <ele>1.4</ele>
        <time>2020-08-21T14:40:01.000Z</time>
      </trkpt>
      <trkpt lat="47.76387" lon="-3.36718">
        <ele>1.4</ele>
        <time>2020-08-21T14:40:02.000Z</time>
      </trkpt>
      <trkpt lat="47.76388" lon="-3.36719">
        <ele>1.5</ele>
        <time>2020-08-21T14:40:03.000Z</time>
      </trkpt>
      <trkpt lat="47.76389" lon="-3.36719">
        <ele>1.5</ele>
        <time>2020-08-21T14:40:04.000Z</time>
      </trkpt>
      <trkpt lat="47.76389" lon="-3.3672">
        <ele>1.5</ele>
        <time>2020-08-21T14:40:05.000Z</time>
      </trkpt>
      <trkpt lat="47.7639" lon="-3.36721">
        <ele>1.5</ele>
        <time>2020-08-21T14:40:06.000Z</time>
      </trkpt>
      <trkpt lat="47.76391" lon="-3.36722">
        <ele>1.5</ele>
        <time>2020-08-21T14:40:07.000Z</time>
      </trkpt>
      <trkpt lat="47.76392" lon="-3.36722">
        <ele>1.5</ele>
        <time>2020-08-21T14:40:08.000Z</time>
      </trkpt>
      <trkpt lat="47.76393" lon="-3.36723">
        <ele>1.5</ele>
        <time>2020-08-21T14:40:09.000Z</time>
      </trkpt>
      <trkpt lat="47.76394" lon="-3.36724">
        <ele>1.6</ele>
        <time>2020-08-21T14:40:10.000Z</time>
      </trkpt>
      <trkpt lat="47.76395" lon="-3.36724">
        <ele>1.6</ele>
        <time>2020-08-21T14:40:11.000Z</time>
      </trkpt>
      <trkpt lat="47.76396" lon="-3.36725">
        <ele>1.6</ele>
        <time>2020-08-21T14:40:12.000Z</time>
      </trkpt>
      <trkpt lat="47.76397" lon="-3.36726">
        <ele>1.6</ele>
        <time>2020-08-21T14:40:13.000Z</time>
      </trkpt>
      <trkpt lat="47.76398" lon="-3.36726">
        <ele>1.6</ele>
        <time>2020-08-21T14:40:14.000Z</time>
      </trkpt>
      <trkpt lat="47.76399" lon="-3.36727">
        <ele>1.6</ele>
        <time>2020-08-21T14:40:15.000Z</time>
      </trkpt>
      <trkpt lat="47.764" lon="-3.36728">
        <ele>1.6</ele>
        <time>2020-08-21T14:40:16.000Z</time>
      </trkpt>
      <trkpt lat="47.76401" lon="-3.36728">
        <ele>1.6</ele>
        <time>2020-08-21T14:40:17.000Z</time>
      </trkpt>
      <trkpt lat="47.76402" lon="-3.36729">
        <ele>1.6</ele>
        <time>2020-08-21T14:40:18.000Z</time>
      </trkpt>
      <trkpt lat="47.76403" lon="-3.3673">
        <ele>1.6</ele>
        <time>2020-08-21T14:40:19.000Z</time>
      </trkpt>
      <trkpt lat="47.76404" lon="-3.3673">
        <ele>1.6</ele>
        <time>2020-08-21T14:40:20.000Z</time>
      </trkpt>
      <trkpt lat="47.76405" lon="-3.36731">
        <ele>1.6</ele>
        <time>2020-08-21T14:40:21.000Z</time>
      </trkpt>
      <trkpt lat="47.76406" lon="-3.36732">
        <ele>1.7</ele>
        <time>2020-08-21T14:40:22.000Z</time>
      </trkpt>
      <trkpt lat="47.76407" lon="-3.36732">
        <ele>1.7</ele>
        <time>2020-08-21T14:40:23.000Z</time>
      </trkpt>
      <trkpt lat="47.76408" lon="-3.36733">
        <ele>1.7</ele>
        <time>2020-08-21T14:40:24.000Z</time>
      </trkpt>
      <trkpt lat="47.76409" lon="-3.36733">
        <ele>1.7</ele>
        <time>2020-08-21T14:40:25.000Z</time>
      </trkpt>
      <trkpt lat="47.76411" lon="-3.36734">
        <ele>1.7</ele>
        <time>2020-08-21T14:40:26.000Z</time>
      </trkpt>
      <trkpt lat="47.76412" lon="-3.36735">
        <ele>1.7</ele>
        <time>2020-08-21T14:40:27.000Z</time>
      </trkpt>
      <trkpt lat="47.76413" lon="-3.36736">
        <ele>1.7</ele>
        <time>2020-08-21T14:40:28.000Z</time>
      </trkpt>
      <trkpt lat="47.76414" lon="-3.36736">
        <ele>1.7</ele>
        <time>2020-08-21T14:40:29.000Z</time>
      </trkpt>
      <trkpt lat="47.76415" lon="-3.36737">
        <ele>1.7</ele>
        <time>2020-08-21T14:40:30.000Z</time>
      </trkpt>
      <trkpt lat="47.76416" lon="-3.36738">
        <ele>1.7</ele>
        <time>2020-08-21T14:40:31.000Z</time>
      </trkpt>
      <trkpt lat="47.76417" lon="-3.36739">
        <ele>1.7</ele>
        <time>2020-08-21T14:40:32.000Z</time>
      </trkpt>
      <trkpt lat="47.76418" lon="-3.3674">
        <ele>1.8</ele>
        <time>2020-08-21T14:40:33.000Z</time>
      </trkpt>
      <trkpt lat="47.76419" lon="-3.36742">
        <ele>1.8</ele>
        <time>2020-08-21T14:40:34.000Z</time>
      </trkpt>
      <trkpt lat="47.7642" lon="-3.36743">
        <ele>1.9</ele>
        <time>2020-08-21T14:40:35.000Z</time>
      </trkpt>
      <trkpt lat="47.76421" lon="-3.36744">
        <ele>1.9</ele>
        <time>2020-08-21T14:40:36.000Z</time>
      </trkpt>
      <trkpt lat="47.76421" lon="-3.36746">
        <ele>1.9</ele>
        <time>2020-08-21T14:40:37.000Z</time>
      </trkpt>
      <trkpt lat="47.76422" lon="-3.36747">
        <ele>2</ele>
        <time>2020-08-21T14:40:38.000Z</time>
      </trkpt>
      <trkpt lat="47.76423" lon="-3.36749">
        <ele>2</ele>
        <time>2020-08-21T14:40:39.000Z</time>
      </trkpt>
      <trkpt lat="47.76424" lon="-3.3675">
        <ele>2.1</ele>
        <time>2020-08-21T14:40:40.000Z</time>
      </trkpt>
      <trkpt lat="47.76424" lon="-3.36752">
        <ele>2.1</ele>
        <time>2020-08-21T14:40:41.000Z</time>
      </trkpt>
      <trkpt lat="47.76425" lon="-3.36754">
        <ele>2.2</ele>
        <time>2020-08-21T14:40:42.000Z</time>
      </trkpt>
      <trkpt lat="47.76426" lon="-3.36755">
        <ele>2.2</ele>
        <time>2020-08-21T14:40:43.000Z</time>
      </trkpt>
      <trkpt lat="47.76426" lon="-3.36757">
        <ele>2.3</ele>
        <time>2020-08-21T14:40:44.000Z</time>
      </trkpt>
      <trkpt lat="47.76427" lon="-3.36758">
        <ele>2.3</ele>
        <time>2020-08-21T14:40:45.000Z</time>
      </trkpt>
      <trkpt lat="47.76427" lon="-3.3676">
        <ele>2.4</ele>
        <time>2020-08-21T14:40:46.000Z</time>
      </trkpt>
      <trkpt lat="47.76428" lon="-3.36761">
        <ele>2.4</ele>
        <time>2020-08-21T14:40:47.000Z</time>
      </trkpt>
      <trkpt lat="47.76428" lon="-3.36763">
        <ele>2.5</ele>
        <time>2020-08-21T14:40:48.000Z</time>
      </trkpt>
      <trkpt lat="47.76429" lon="-3.36764">
        <ele>2.5</ele>
        <time>2020-08-21T14:40:49.000Z</time>
      </trkpt>
      <trkpt lat="47.76429" lon="-3.36766">
        <ele>2.5</ele>
        <time>2020-08-21T14:40:50.000Z</time>
      </trkpt>
      <trkpt lat="47.7643" lon="-3.36768">
        <ele>2.6</ele>
        <time>2020-08-21T14:40:51.000Z</time>
      </trkpt>
      <trkpt lat="47.7643" lon="-3.36769">
        <ele>2.6</ele>
        <time>2020-08-21T14:40:52.000Z</time>
      </trkpt>
      <trkpt lat="47.7643" lon="-3.36771">
        <ele>2.7</ele>
        <time>2020-08-21T14:40:53.000Z</time>
      </trkpt>
      <trkpt lat="47.7643" lon="-3.36772">
        <ele>2.7</ele>
        <time>2020-08-21T14:40:54.000Z</time>
      </trkpt>
      <trkpt lat="47.7643" lon="-3.36774">
        <ele>2.7</ele>
        <time>2020-08-21T14:40:55.000Z</time>
      </trkpt>
      <trkpt lat="47.7643" lon="-3.36775">
        <ele>2.8</ele>
        <time>2020-08-21T14:40:56.000Z</time>
      </trkpt>
      <trkpt lat="47.7643" lon="-3.36777">
        <ele>2.8</ele>
        <time>2020-08-21T14:40:57.000Z</time>
      </trkpt>
      <trkpt lat="47.7643" lon="-3.36779">
        <ele>2.8</ele>
        <time>2020-08-21T14:40:58.000Z</time>
      </trkpt>
      <trkpt lat="47.7643" lon="-3.3678">
        <ele>2.9</ele>
        <time>2020-08-21T14:40:59.000Z</time>
      </trkpt>
      <trkpt lat="47.7643" lon="-3.36782">
        <ele>2.9</ele>
        <time>2020-08-21T14:41:00.000Z</time>
      </trkpt>
      <trkpt lat="47.7643" lon="-3.36783">
        <ele>3</ele>
        <time>2020-08-21T14:41:01.000Z</time>
      </trkpt>
      <trkpt lat="47.7643" lon="-3.36785">
        <ele>3</ele>
        <time>2020-08-21T14:41:02.000Z</time>
      </trkpt>
      <trkpt lat="47.7643" lon="-3.36787">
        <ele>3</ele>
        <time>2020-08-21T14:41:03.000Z</time>
      </trkpt>
      <trkpt lat="47.7643" lon="-3.36788">
        <ele>3.1</ele>
        <time>2020-08-21T14:41:04.000Z</time>
      </trkpt>
      <trkpt lat="47.76431" lon="-3.3679">
        <ele>3.1</ele>
        <time>2020-08-21T14:41:05.000Z</time>
      </trkpt>
      <trkpt lat="47.76431" lon="-3.36791">
        <ele>3.2</ele>
        <time>2020-08-21T14:41:06.000Z</time>
      </trkpt>
      <trkpt lat="47.76432" lon="-3.36793">
        <ele>3.2</ele>
        <time>2020-08-21T14:41:07.000Z</time>
      </trkpt>
      <trkpt lat="47.76433" lon="-3.36794">
        <ele>3.3</ele>
        <time>2020-08-21T14:41:08.000Z</time>
      </trkpt>
      <trkpt lat="47.76434" lon="-3.36795">
        <ele>3.3</ele>
        <time>2020-08-21T14:41:09.000Z</time>
      </trkpt>
      <trkpt lat="47.76434" lon="-3.36797">
        <ele>3.3</ele>
        <time>2020-08-21T14:41:10.000Z</time>
      </trkpt>
      <trkpt lat="47.76435" lon="-3.36798">
        <ele>3.4</ele>
        <time>2020-08-21T14:41:11.000Z</time>
      </trkpt>
      <trkpt lat="47.76436" lon="-3.36798">
        <ele>3.4</ele>
        <time>2020-08-21T14:41:12.000Z</time>
      </trkpt>
      <trkpt lat="47.76438" lon="-3.36799">
        <ele>3.4</ele>
        <time>2020-08-21T14:41:13.000Z</time>
      </trkpt>
      <trkpt lat="47.76439" lon="-3.368">
        <ele>3.5</ele>
        <time>2020-08-21T14:41:14.000Z</time>
      </trkpt>
      <trkpt lat="47.7644" lon="-3.368">
        <ele>3.5</ele>
        <time>2020-08-21T14:41:15.000Z</time>
      </trkpt>
      <trkpt lat="47.76441" lon="-3.36801">
        <ele>3.5</ele>
        <time>2020-08-21T14:41:16.000Z</time>
      </trkpt>
      <trkpt lat="47.76442" lon="-3.36801">
        <ele>3.5</ele>
        <time>2020-08-21T14:41:17.000Z</time>
      </trkpt>
      <trkpt lat="47.76443" lon="-3.36801">
        <ele>3.6</ele>
        <time>2020-08-21T14:41:18.000Z</time>
      </trkpt>
      <trkpt lat="47.76444" lon="-3.36802">
        <ele>3.6</ele>
        <time>2020-08-21T14:41:19.000Z</time>
      </trkpt>
      <trkpt lat="47.76445" lon="-3.36802">
        <ele>3.6</ele>
        <time>2020-08-21T14:41:20.000Z</time>
      </trkpt>
      <trkpt lat="47.76446" lon="-3.36802">
        <ele>3.6</ele>
        <time>2020-08-21T14:41:21.000Z</time>
      </trkpt>
      <trkpt lat="47.76447" lon="-3.36803">
        <ele>3.6</ele>
        <time>2020-08-21T14:41:22.000Z</time>
      </trkpt>
      <trkpt lat="47.76448" lon="-3.36803">
        <ele>3.7</ele>
        <time>2020-08-21T14:41:23.000Z</time>
      </trkpt>
      <trkpt lat="47.76448" lon="-3.36804">
        <ele>3.7</ele>
        <time>2020-08-21T14:41:24.000Z</time>
      </trkpt>
      <trkpt lat="47.76449" lon="-3.36805">
        <ele>3.7</ele>
        <time>2020-08-21T14:41:25.000Z</time>
      </trkpt>
      <trkpt lat="47.7645" lon="-3.36806">
        <ele>3.7</ele>
        <time>2020-08-21T14:41:26.000Z</time>
      </trkpt>
      <trkpt lat="47.7645" lon="-3.36807">
        <ele>3.8</ele>
        <time>2020-08-21T14:41:27.000Z</time>
      </trkpt>
      <trkpt lat="47.76451" lon="-3.36809">
        <ele>3.8</ele>
        <time>2020-08-21T14:41:28.000Z</time>
      </trkpt>
      <trkpt lat="47.76451" lon="-3.3681">
        <ele>3.9</ele>
        <time>2020-08-21T14:41:29.000Z</time>
      </trkpt>
      <trkpt lat="47.76452" lon="-3.36811">
        <ele>3.9</ele>
        <time>2020-08-21T14:41:30.000Z</time>
      </trkpt>
      <trkpt lat="47.76452" lon="-3.36813">
        <ele>3.9</ele>
        <time>2020-08-21T14:41:31.000Z</time>
      </trkpt>
      <trkpt lat="47.76453" lon="-3.36814">
        <ele>4</ele>
        <time>2020-08-21T14:41:32.000Z</time>
      </trkpt>
      <trkpt lat="47.76453" lon="-3.36816">
        <ele>4</ele>
        <time>2020-08-21T14:41:33.000Z</time>
      </trkpt>
      <trkpt lat="47.76453" lon="-3.36817">
        <ele>4.1</ele>
        <time>2020-08-21T14:41:34.000Z</time>
      </trkpt>
      <trkpt lat="47.76454" lon="-3.36819">
        <ele>4.1</ele>
        <time>2020-08-21T14:41:35.000Z</time>
      </trkpt>
      <trkpt lat="47.76454" lon="-3.3682">
        <ele>4.1</ele>
        <time>2020-08-21T14:41:36.000Z</time>
      </trkpt>
      <trkpt lat="47.76454" lon="-3.36822">
        <ele>4.2</ele>
        <time>2020-08-21T14:41:37.000Z</time>
      </trkpt>
      <trkpt lat="47.76455" lon="-3.36824">
        <ele>4.2</ele>
        <time>2020-08-21T14:41:38.000Z</time>
      </trkpt>
      <trkpt lat="47.76455" lon="-3.36825">
        <ele>4.3</ele>
        <time>2020-08-21T14:41:39.000Z</time>
      </trkpt>
      <trkpt lat="47.76456" lon="-3.36827">
        <ele>4.3</ele>
        <time>2020-08-21T14:41:40.000Z</time>
      </trkpt>
      <trkpt lat="47.76456" lon="-3.3683">
        <ele>4.4</ele>
        <time>2020-08-21T14:41:41.000Z</time>
      </trkpt>
      <trkpt lat="47.76457" lon="-3.36832">
        <ele>4.4</ele>
        <time>2020-08-21T14:41:42.000Z</time>
      </trkpt>
      <trkpt lat="47.76458" lon="-3.36834">
        <ele>4.5</ele>
        <time>2020-08-21T14:41:43.000Z</time>
      </trkpt>
      <trkpt lat="47.76458" lon="-3.36836">
        <ele>4.6</ele>
        <time>2020-08-21T14:41:44.000Z</time>
      </trkpt>
      <trkpt lat="47.76459" lon="-3.36838">
        <ele>4.7</ele>
        <time>2020-08-21T14:41:45.000Z</time>
      </trkpt>
      <trkpt lat="47.76459" lon="-3.3684">
        <ele>4.7</ele>
        <time>2020-08-21T14:41:46.000Z</time>
      </trkpt>
      <trkpt lat="47.7646" lon="-3.36842">
        <ele>4.8</ele>
        <time>2020-08-21T14:41:47.000Z</time>
      </trkpt>
      <trkpt lat="47.7646" lon="-3.36844">
        <ele>4.8</ele>
        <time>2020-08-21T14:41:48.000Z</time>
      </trkpt>
      <trkpt lat="47.76461" lon="-3.36846">
        <ele>4.9</ele>
        <time>2020-08-21T14:41:49.000Z</time>
      </trkpt>
      <trkpt lat="47.76461" lon="-3.36847">
        <ele>4.9</ele>
        <time>2020-08-21T14:41:50.000Z</time>
      </trkpt>
      <trkpt lat="47.76461" lon="-3.36849">
        <ele>5</ele>
        <time>2020-08-21T14:41:51.000Z</time>
      </trkpt>
      <trkpt lat="47.76461" lon="-3.3685">
        <ele>5</ele>
        <time>2020-08-21T14:41:52.000Z</time>
      </trkpt>
      <trkpt lat="47.76461" lon="-3.36852">
        <ele>5.1</ele>
        <time>2020-08-21T14:41:53.000Z</time>
      </trkpt>
      <trkpt lat="47.76461" lon="-3.36853">
        <ele>5.1</ele>
        <time>2020-08-21T14:41:54.000Z</time>
      </trkpt>
      <trkpt lat="47.76461" lon="-3.36854">
        <ele>5.2</ele>
        <time>2020-08-21T14:41:55.000Z</time>
      </trkpt>
      <trkpt lat="47.76461" lon="-3.36856">
        <ele>5.2</ele>
        <time>2020-08-21T14:41:56.000Z</time>
      </trkpt>
      <trkpt lat="47.76461" lon="-3.36857">
        <ele>5.2</ele>
        <time>2020-08-21T14:41:57.000Z</time>
      </trkpt>
      <trkpt lat="47.7646" lon="-3.36858">
        <ele>5.3</ele>
        <time>2020-08-21T14:41:58.000Z</time>
      </trkpt>
      <trkpt lat="47.7646" lon="-3.3686">
        <ele>5.3</ele>
        <time>2020-08-21T14:41:59.000Z</time>
      </trkpt>
      <trkpt lat="47.7646" lon="-3.36861">
        <ele>5.3</ele>
        <time>2020-08-21T14:42:00.000Z</time>
      </trkpt>
      <trkpt lat="47.76459" lon="-3.36863">
        <ele>5.4</ele>
        <time>2020-08-21T14:42:01.000Z</time>
      </trkpt>
      <trkpt lat="47.76459" lon="-3.36864">
        <ele>5.4</ele>
        <time>2020-08-21T14:42:02.000Z</time>
      </trkpt>
      <trkpt lat="47.76459" lon="-3.36866">
        <ele>5.5</ele>
        <time>2020-08-21T14:42:03.000Z</time>
      </trkpt>
      <trkpt lat="47.76458" lon="-3.36867">
        <ele>5.5</ele>
        <time>2020-08-21T14:42:04.000Z</time>
      </trkpt>
      <trkpt lat="47.76458" lon="-3.36869">
        <ele>5.6</ele>
        <time>2020-08-21T14:42:05.000Z</time>
      </trkpt>
      <trkpt lat="47.76457" lon="-3.36871">
        <ele>5.6</ele>
        <time>2020-08-21T14:42:06.000Z</time>
      </trkpt>
      <trkpt lat="47.76457" lon="-3.36873">
        <ele>5.7</ele>
        <time>2020-08-21T14:42:07.000Z</time>
      </trkpt>
      <trkpt lat="47.76456" lon="-3.36874">
        <ele>5.7</ele>
        <time>2020-08-21T14:42:08.000Z</time>
      </trkpt>
      <trkpt lat="47.76456" lon="-3.36876">
        <ele>5.8</ele>
        <time>2020-08-21T14:42:09.000Z</time>
      </trkpt>
      <trkpt lat="47.76456" lon="-3.36878">
        <ele>5.8</ele>
        <time>2020-08-21T14:42:10.000Z</time>
      </trkpt>
      <trkpt lat="47.76455" lon="-3.3688">
        <ele>5.9</ele>
        <time>2020-08-21T14:42:11.000Z</time>
      </trkpt>
      <trkpt lat="47.76455" lon="-3.36881">
        <ele>5.9</ele>
        <time>2020-08-21T14:42:12.000Z</time>
      </trkpt>
      <trkpt lat="47.76455" lon="-3.36883">
        <ele>6</ele>
        <time>2020-08-21T14:42:13.000Z</time>
      </trkpt>
      <trkpt lat="47.76455" lon="-3.36885">
        <ele>6</ele>
        <time>2020-08-21T14:42:14.000Z</time>
      </trkpt>
      <trkpt lat="47.76455" lon="-3.36886">
        <ele>6.1</ele>
        <time>2020-08-21T14:42:15.000Z</time>
      </trkpt>
      <trkpt lat="47.76455" lon="-3.36888">
        <ele>6.1</ele>
        <time>2020-08-21T14:42:16.000Z</time>
      </trkpt>
      <trkpt lat="47.76455" lon="-3.3689">
        <ele>6.2</ele>
        <time>2020-08-21T14:42:17.000Z</time>
      </trkpt>
      <trkpt lat="47.76456" lon="-3.36891">
        <ele>6.2</ele>
        <time>2020-08-21T14:42:18.000Z</time>
      </trkpt>
      <trkpt lat="47.76456" lon="-3.36893">
        <ele>6.3</ele>
        <time>2020-08-21T14:42:19.000Z</time>
      </trkpt>
      <trkpt lat="47.76457" lon="-3.36894">
        <ele>6.3</ele>
        <time>2020-08-21T14:42:20.000Z</time>
      </trkpt>
      <trkpt lat="47.76457" lon="-3.36895">
        <ele>6.4</ele>
        <time>2020-08-21T14:42:21.000Z</time>
      </trkpt>
      <trkpt lat="47.76458" lon="-3.36897">
        <ele>6.4</ele>
        <time>2020-08-21T14:42:22.000Z</time>
      </trkpt>
      <trkpt lat="47.76459" lon="-3.36898">
        <ele>6.4</ele>
        <time>2020-08-21T14:42:23.000Z</time>
      </trkpt>
      <trkpt lat="47.76459" lon="-3.36899">
        <ele>6.5</ele>
        <time>2020-08-21T14:42:24.000Z</time>
      </trkpt>
      <trkpt lat="47.7646" lon="-3.36901">
        <ele>6.5</ele>
        <time>2020-08-21T14:42:25.000Z</time>
      </trkpt>
      <trkpt lat="47.76461" lon="-3.36902">
        <ele>6.6</ele>
        <time>2020-08-21T14:42:26.000Z</time>
      </trkpt>
      <trkpt lat="47.76462" lon="-3.36903">
        <ele>6.6</ele>
        <time>2020-08-21T14:42:27.000Z</time>
      </trkpt>
      <trkpt lat="47.76463" lon="-3.36904">
        <ele>6.6</ele>
        <time>2020-08-21T14:42:28.000Z</time>
      </trkpt>
      <trkpt lat="47.76464" lon="-3.36905">
        <ele>6.7</ele>
        <time>2020-08-21T14:42:29.000Z</time>
      </trkpt>
      <trkpt lat="47.76465" lon="-3.36906">
        <ele>6.7</ele>
        <time>2020-08-21T14:42:30.000Z</time>
      </trkpt>
      <trkpt lat="47.76466" lon="-3.36907">
        <ele>6.7</ele>
        <time>2020-08-21T14:42:31.000Z</time>
      </trkpt>
      <trkpt lat="47.76467" lon="-3.36908">
        <ele>6.8</ele>
        <time>2020-08-21T14:42:32.000Z</time>
      </trkpt>
      <trkpt lat="47.76468" lon="-3.36909">
        <ele>6.8</ele>
        <time>2020-08-21T14:42:33.000Z</time>
      </trkpt>
      <trkpt lat="47.76469" lon="-3.3691">
        <ele>6.8</ele>
        <time>2020-08-21T14:42:34.000Z</time>
      </trkpt>
      <trkpt lat="47.7647" lon="-3.36911">
        <ele>6.8</ele>
        <time>2020-08-21T14:42:35.000Z</time>
      </trkpt>
      <trkpt lat="47.76471" lon="-3.36912">
        <ele>6.9</ele>
        <time>2020-08-21T14:42:36.000Z</time>
      </trkpt>
      <trkpt lat="47.76472" lon="-3.36913">
        <ele>6.9</ele>
        <time>2020-08-21T14:42:37.000Z</time>
      </trkpt>
      <trkpt lat="47.76473" lon="-3.36913">
        <ele>6.9</ele>
        <time>2020-08-21T14:42:38.000Z</time>
      </trkpt>
      <trkpt lat="47.76474" lon="-3.36914">
        <ele>6.9</ele>
        <time>2020-08-21T14:42:39.000Z</time>
      </trkpt>
      <trkpt lat="47.76475" lon="-3.36915">
        <ele>7</ele>
        <time>2020-08-21T14:42:40.000Z</time>
      </trkpt>
      <trkpt lat="47.76476" lon="-3.36916">
        <ele>7</ele>
        <time>2020-08-21T14:42:41.000Z</time>
      </trkpt>
      <trkpt lat="47.76478" lon="-3.36917">
        <ele>7</ele>
        <time>2020-08-21T14:42:42.000Z</time>
      </trkpt>
      <trkpt lat="47.76479" lon="-3.36918">
        <ele>7</ele>
        <time>2020-08-21T14:42:43.000Z</time>
      </trkpt>
      <trkpt lat="47.7648" lon="-3.36919">
        <ele>7</ele>
        <time>2020-08-21T14:42:44.000Z</time>
      </trkpt>
      <trkpt lat="47.76481" lon="-3.36919">
        <ele>7</ele>
        <time>2020-08-21T14:42:45.000Z</time>
      </trkpt>
      <trkpt lat="47.76483" lon="-3.3692">
        <ele>7</ele>
        <time>2020-08-21T14:42:46.000Z</time>
      </trkpt>
      <trkpt lat="47.76484" lon="-3.3692">
        <ele>7</ele>
        <time>2020-08-21T14:42:47.000Z</time>
      </trkpt>
      <trkpt lat="47.76486" lon="-3.3692">
        <ele>7</ele>
        <time>2020-08-21T14:42:48.000Z</time>
      </trkpt>
      <trkpt lat="47.76487" lon="-3.36921">
        <ele>7</ele>
        <time>2020-08-21T14:42:49.000Z</time>
      </trkpt>
      <trkpt lat="47.76488" lon="-3.36921">
        <ele>7</ele>
        <time>2020-08-21T14:42:50.000Z</time>
      </trkpt>
      <trkpt lat="47.7649" lon="-3.36921">
        <ele>7</ele>
        <time>2020-08-21T14:42:51.000Z</time>
      </trkpt>
      <trkpt lat="47.76491" lon="-3.3692">
        <ele>7</ele>
        <time>2020-08-21T14:42:52.000Z</time>
      </trkpt>
      <trkpt lat="47.76492" lon="-3.3692">
        <ele>7</ele>
        <time>2020-08-21T14:42:53.000Z</time>
      </trkpt>
      <trkpt lat="47.76493" lon="-3.3692">
        <ele>7</ele>
        <time>2020-08-21T14:42:54.000Z</time>
      </trkpt>
      <trkpt lat="47.76495" lon="-3.36919">
        <ele>7</ele>
        <time>2020-08-21T14:42:55.000Z</time>
      </trkpt>
      <trkpt lat="47.76496" lon="-3.36919">
        <ele>7</ele>
        <time>2020-08-21T14:42:56.000Z</time>
      </trkpt>
      <trkpt lat="47.76497" lon="-3.36919">
        <ele>7</ele>
        <time>2020-08-21T14:42:57.000Z</time>
      </trkpt>
      <trkpt lat="47.76498" lon="-3.36918">
        <ele>7</ele>
        <time>2020-08-21T14:42:58.000Z</time>
      </trkpt>
      <trkpt lat="47.76499" lon="-3.36918">
        <ele>7</ele>
        <time>2020-08-21T14:42:59.000Z</time>
      </trkpt>
      <trkpt lat="47.765" lon="-3.36918">
        <ele>7</ele>
        <time>2020-08-21T14:43:00.000Z</time>
      </trkpt>
      <trkpt lat="47.76501" lon="-3.36918">
        <ele>7</ele>
        <time>2020-08-21T14:43:01.000Z</time>
      </trkpt>
      <trkpt lat="47.76502" lon="-3.36917">
        <ele>7.1</ele>
        <time>2020-08-21T14:43:02.000Z</time>
      </trkpt>
      <trkpt lat="47.76503" lon="-3.36917">
        <ele>7.1</ele>
        <time>2020-08-21T14:43:03.000Z</time>
      </trkpt>
      <trkpt lat="47.76505" lon="-3.36917">
        <ele>7.2</ele>
        <time>2020-08-21T14:43:04.000Z</time>
      </trkpt>
      <trkpt lat="47.76506" lon="-3.36917">
        <ele>7.2</ele>
        <time>2020-08-21T14:43:05.000Z</time>
      </trkpt>
      <trkpt lat="47.76507" lon="-3.36918">
        <ele>7.2</ele>
        <time>2020-08-21T14:43:06.000Z</time>
      </trkpt>
      <trkpt lat="47.76508" lon="-3.36918">
        <ele>7.3</ele>
        <time>2020-08-21T14:43:07.000Z</time>
      </trkpt>
      <trkpt lat="47.76509" lon="-3.36918">
        <ele>7.3</ele>
        <time>2020-08-21T14:43:08.000Z</time>
      </trkpt>
      <trkpt lat="47.7651" lon="-3.36918">
        <ele>7.3</ele>
        <time>2020-08-21T14:43:09.000Z</time>
      </trkpt>
      <trkpt lat="47.76511" lon="-3.36919">
        <ele>7.4</ele>
        <time>2020-08-21T14:43:10.000Z</time>
      </trkpt>
      <trkpt lat="47.76512" lon="-3.36919">
        <ele>7.4</ele>
        <time>2020-08-21T14:43:11.000Z</time>
      </trkpt>
      <trkpt lat="47.76513" lon="-3.36919">
        <ele>7.4</ele>
        <time>2020-08-21T14:43:12.000Z</time>
      </trkpt>
      <trkpt lat="47.76514" lon="-3.3692">
        <ele>7.5</ele>
        <time>2020-08-21T14:43:13.000Z</time>
      </trkpt>
      <trkpt lat="47.76515" lon="-3.3692">
        <ele>7.5</ele>
        <time>2020-08-21T14:43:14.000Z</time>
      </trkpt>
      <trkpt lat="47.76516" lon="-3.36921">
        <ele>7.5</ele>
        <time>2020-08-21T14:43:15.000Z</time>
      </trkpt>
      <trkpt lat="47.76517" lon="-3.36921">
        <ele>7.6</ele>
        <time>2020-08-21T14:43:16.000Z</time>
      </trkpt>
      <trkpt lat="47.76518" lon="-3.36922">
        <ele>7.6</ele>
        <time>2020-08-21T14:43:17.000Z</time>
      </trkpt>
      <trkpt lat="47.76519" lon="-3.36923">
        <ele>7.6</ele>
        <time>2020-08-21T14:43:18.000Z</time>
      </trkpt>
      <trkpt lat="47.7652" lon="-3.36923">
        <ele>7.6</ele>
        <time>2020-08-21T14:43:19.000Z</time>
      </trkpt>
      <trkpt lat="47.76521" lon="-3.36924">
        <ele>7.7</ele>
        <time>2020-08-21T14:43:20.000Z</time>
      </trkpt>
      <trkpt lat="47.76522" lon="-3.36924">
        <ele>7.7</ele>
        <time>2020-08-21T14:43:21.000Z</time>
      </trkpt>
      <trkpt lat="47.76523" lon="-3.36925">
        <ele>7.7</ele>
        <time>2020-08-21T14:43:22.000Z</time>
      </trkpt>
      <trkpt lat="47.76524" lon="-3.36925">
        <ele>7.8</ele>
        <time>2020-08-21T14:43:23.000Z</time>
      </trkpt>
      <trkpt lat="47.76525" lon="-3.36925">
        <ele>7.8</ele>
        <time>2020-08-21T14:43:24.000Z</time>
      </trkpt>
      <trkpt lat="47.76526" lon="-3.36925">
        <ele>7.9</ele>
        <time>2020-08-21T14:43:25.000Z</time>
      </trkpt>
      <trkpt lat="47.76527" lon="-3.36925">
        <ele>7.9</ele>
        <time>2020-08-21T14:43:26.000Z</time>
      </trkpt>
      <trkpt lat="47.76528" lon="-3.36925">
        <ele>7.9</ele>
        <time>2020-08-21T14:43:27.000Z</time>
      </trkpt>
      <trkpt lat="47.76529" lon="-3.36925">
        <ele>8</ele>
        <time>2020-08-21T14:43:28.000Z</time>
      </trkpt>
      <trkpt lat="47.76531" lon="-3.36925">
        <ele>8</ele>
        <time>2020-08-21T14:43:29.000Z</time>
      </trkpt>
      <trkpt lat="47.76532" lon="-3.36924">
        <ele>8.1</ele>
        <time>2020-08-21T14:43:30.000Z</time>
      </trkpt>
      <trkpt lat="47.76533" lon="-3.36924">
        <ele>8.1</ele>
        <time>2020-08-21T14:43:31.000Z</time>
      </trkpt>
      <trkpt lat="47.76534" lon="-3.36923">
        <ele>8.2</ele>
        <time>2020-08-21T14:43:32.000Z</time>
      </trkpt>
      <trkpt lat="47.76536" lon="-3.36923">
        <ele>8.2</ele>
        <time>2020-08-21T14:43:33.000Z</time>
      </trkpt>
      <trkpt lat="47.76537" lon="-3.36922">
        <ele>8.3</ele>
        <time>2020-08-21T14:43:34.000Z</time>
      </trkpt>
      <trkpt lat="47.76538" lon="-3.36922">
        <ele>8.3</ele>
        <time>2020-08-21T14:43:35.000Z</time>
      </trkpt>
      <trkpt lat="47.76539" lon="-3.36921">
        <ele>8.4</ele>
        <time>2020-08-21T14:43:36.000Z</time>
      </trkpt>
      <trkpt lat="47.7654" lon="-3.36921">
        <ele>8.4</ele>
        <time>2020-08-21T14:43:37.000Z</time>
      </trkpt>
      <trkpt lat="47.76541" lon="-3.3692">
        <ele>8.4</ele>
        <time>2020-08-21T14:43:38.000Z</time>
      </trkpt>
      <trkpt lat="47.76542" lon="-3.3692">
        <ele>8.5</ele>
        <time>2020-08-21T14:43:39.000Z</time>
      </trkpt>
      <trkpt lat="47.76543" lon="-3.36919">
        <ele>8.5</ele>
        <time>2020-08-21T14:43:40.000Z</time>
      </trkpt>
      <trkpt lat="47.76544" lon="-3.36919">
        <ele>8.6</ele>
        <time>2020-08-21T14:43:41.000Z</time>
      </trkpt>
      <trkpt lat="47.76544" lon="-3.36918">
        <ele>8.6</ele>
        <time>2020-08-21T14:43:42.000Z</time>
      </trkpt>
      <trkpt lat="47.76545" lon="-3.36918">
        <ele>8.6</ele>
        <time>2020-08-21T14:43:43.000Z</time>
      </trkpt>
      <trkpt lat="47.76546" lon="-3.36918">
        <ele>8.7</ele>
        <time>2020-08-21T14:43:44.000Z</time>
      </trkpt>
      <trkpt lat="47.76547" lon="-3.36917">
        <ele>8.7</ele>
        <time>2020-08-21T14:43:45.000Z</time>
      </trkpt>
      <trkpt lat="47.76548" lon="-3.36917">
        <ele>8.7</ele>
        <time>2020-08-21T14:43:46.000Z</time>
      </trkpt>
      <trkpt lat="47.76549" lon="-3.36916">
        <ele>8.8</ele>
        <time>2020-08-21T14:43:47.000Z</time>
      </trkpt>
      <trkpt lat="47.7655" lon="-3.36916">
        <ele>8.8</ele>
        <time>2020-08-21T14:43:48.000Z</time>
      </trkpt>
      <trkpt lat="47.76551" lon="-3.36916">
        <ele>8.8</ele>
        <time>2020-08-21T14:43:49.000Z</time>
      </trkpt>
      <trkpt lat="47.76552" lon="-3.36915">
        <ele>8.8</ele>
        <time>2020-08-21T14:43:50.000Z</time>
      </trkpt>
      <trkpt lat="47.76553" lon="-3.36915">
        <ele>8.9</ele>
        <time>2020-08-21T14:43:51.000Z</time>
      </trkpt>
      <trkpt lat="47.76554" lon="-3.36914">
        <ele>8.9</ele>
        <time>2020-08-21T14:43:52.000Z</time>
      </trkpt>
      <trkpt lat="47.76555" lon="-3.36914">
        <ele>8.9</ele>
        <time>2020-08-21T14:43:53.000Z</time>
      </trkpt>
      <trkpt lat="47.76556" lon="-3.36914">
        <ele>8.9</ele>
        <time>2020-08-21T14:43:54.000Z</time>
      </trkpt>
      <trkpt lat="47.76557" lon="-3.36913">
        <ele>9</ele>
        <time>2020-08-21T14:43:55.000Z</time>
      </trkpt>
      <trkpt lat="47.76558" lon="-3.36913">
        <ele>9</ele>
        <time>2020-08-21T14:43:56.000Z</time>
      </trkpt>
      <trkpt lat="47.76559" lon="-3.36913">
        <ele>9</ele>
        <time>2020-08-21T14:43:57.000Z</time>
      </trkpt>
      <trkpt lat="47.7656" lon="-3.36913">
        <ele>9</ele>
        <time>2020-08-21T14:43:58.000Z</time>
      </trkpt>
      <trkpt lat="47.76561" lon="-3.36912">
        <ele>9.1</ele>
        <time>2020-08-21T14:43:59.000Z</time>
      </trkpt>
      <trkpt lat="47.76562" lon="-3.36912">
        <ele>9.1</ele>
        <time>2020-08-21T14:44:00.000Z</time>
      </trkpt>
      <trkpt lat="47.76562" lon="-3.36912">
        <ele>9.1</ele>
        <time>2020-08-21T14:44:01.000Z</time>
      </trkpt>
      <trkpt lat="47.76563" lon="-3.36912">
        <ele>9.2</ele>
        <time>2020-08-21T14:44:02.000Z</time>
      </trkpt>
      <trkpt lat="47.76564" lon="-3.36911">
        <ele>9.2</ele>
        <time>2020-08-21T14:44:03.000Z</time>
      </trkpt>
      <trkpt lat="47.76565" lon="-3.36911">
        <ele>9.2</ele>
        <time>2020-08-21T14:44:04.000Z</time>
      </trkpt>
      <trkpt lat="47.76566" lon="-3.36911">
        <ele>9.2</ele>
        <time>2020-08-21T14:44:05.000Z</time>
      </trkpt>
      <trkpt lat="47.76567" lon="-3.36911">
        <ele>9.3</ele>
        <time>2020-08-21T14:44:06.000Z</time>
      </trkpt>
      <trkpt lat="47.76568" lon="-3.36911">
        <ele>9.3</ele>
        <time>2020-08-21T14:44:07.000Z</time>
      </trkpt>
      <trkpt lat="47.76569" lon="-3.36911">
        <ele>9.4</ele>
        <time>2020-08-21T14:44:08.000Z</time>
      </trkpt>
      <trkpt lat="47.7657" lon="-3.36911">
        <ele>9.4</ele>
        <time>2020-08-21T14:44:09.000Z</time>
      </trkpt>
      <trkpt lat="47.76571" lon="-3.36911">
        <ele>9.4</ele>
        <time>2020-08-21T14:44:10.000Z</time>
      </trkpt>
      <trkpt lat="47.76573" lon="-3.36911">
        <ele>9.5</ele>
        <time>2020-08-21T14:44:11.000Z</time>
      </trkpt>
      <trkpt lat="47.76574" lon="-3.36912">
        <ele>9.5</ele>
        <time>2020-08-21T14:44:12.000Z</time>
      </trkpt>
      <trkpt lat="47.76575" lon="-3.36912">
        <ele>9.6</ele>
        <time>2020-08-21T14:44:13.000Z</time>
      </trkpt>
      <trkpt lat="47.76576" lon="-3.36912">
        <ele>9.6</ele>
        <time>2020-08-21T14:44:14.000Z</time>
      </trkpt>
      <trkpt lat="47.76577" lon="-3.36912">
        <ele>9.7</ele>
        <time>2020-08-21T14:44:15.000Z</time>
      </trkpt>
      <trkpt lat="47.76579" lon="-3.36913">
        <ele>9.7</ele>
        <time>2020-08-21T14:44:16.000Z</time>
      </trkpt>
      <trkpt lat="47.7658" lon="-3.36913">
        <ele>9.8</ele>
        <time>2020-08-21T14:44:17.000Z</time>
      </trkpt>
      <trkpt lat="47.76581" lon="-3.36913">
        <ele>9.8</ele>
        <time>2020-08-21T14:44:18.000Z</time>
      </trkpt>
      <trkpt lat="47.76582" lon="-3.36913">
        <ele>9.9</ele>
        <time>2020-08-21T14:44:19.000Z</time>
      </trkpt>
      <trkpt lat="47.76583" lon="-3.36914">
        <ele>9.9</ele>
        <time>2020-08-21T14:44:20.000Z</time>
      </trkpt>
      <trkpt lat="47.76585" lon="-3.36914">
        <ele>9.9</ele>
        <time>2020-08-21T14:44:21.000Z</time>
      </trkpt>
      <trkpt lat="47.76586" lon="-3.36914">
        <ele>10</ele>
        <time>2020-08-21T14:44:22.000Z</time>
      </trkpt>
      <trkpt lat="47.76587" lon="-3.36914">
        <ele>10</ele>
        <time>2020-08-21T14:44:23.000Z</time>
      </trkpt>
      <trkpt lat="47.76588" lon="-3.36914">
        <ele>10</ele>
        <time>2020-08-21T14:44:24.000Z</time>
      </trkpt>
      <trkpt lat="47.76589" lon="-3.36914">
        <ele>10</ele>
        <time>2020-08-21T14:44:25.000Z</time>
      </trkpt>
      <trkpt lat="47.76589" lon="-3.36914">
        <ele>10</ele>
        <time>2020-08-21T14:44:26.000Z</time>
      </trkpt>
      <trkpt lat="47.7659" lon="-3.36914">
        <ele>10</ele>
        <time>2020-08-21T14:44:27.000Z</time>
      </trkpt>
      <trkpt lat="47.76591" lon="-3.36914">
        <ele>10</ele>
        <time>2020-08-21T14:44:28.000Z</time>
      </trkpt>
      <trkpt lat="47.76592" lon="-3.36914">
        <ele>10</ele>
        <time>2020-08-21T14:44:29.000Z</time>
      </trkpt>
      <trkpt lat="47.76593" lon="-3.36914">
        <ele>10</ele>
        <time>2020-08-21T14:44:30.000Z</time>
      </trkpt>
      <trkpt lat="47.76594" lon="-3.36914">
        <ele>10.1</ele>
        <time>2020-08-21T14:44:31.000Z</time>
      </trkpt>
      <trkpt lat="47.76594" lon="-3.36914">
        <ele>10.1</ele>
        <time>2020-08-21T14:44:32.000Z</time>
      </trkpt>
      <trkpt lat="47.76595" lon="-3.36914">
        <ele>10.1</ele>
        <time>2020-08-21T14:44:33.000Z</time>
      </trkpt>
      <trkpt lat="47.76596" lon="-3.36914">
        <ele>10.1</ele>
        <time>2020-08-21T14:44:34.000Z</time>
      </trkpt>
      <trkpt lat="47.76597" lon="-3.36914">
        <ele>10.1</ele>
        <time>2020-08-21T14:44:35.000Z</time>
      </trkpt>
      <trkpt lat="47.76598" lon="-3.36915">
        <ele>10.1</ele>
        <time>2020-08-21T14:44:36.000Z</time>
      </trkpt>
      <trkpt lat="47.76598" lon="-3.36915">
        <ele>10.1</ele>
        <time>2020-08-21T14:44:37.000Z</time>
      </trkpt>
      <trkpt lat="47.76599" lon="-3.36915">
        <ele>10.1</ele>
        <time>2020-08-21T14:44:38.000Z</time>
      </trkpt>
      <trkpt lat="47.76599" lon="-3.36915">
        <ele>10.1</ele>
        <time>2020-08-21T14:44:39.000Z</time>
      </trkpt>
      <trkpt lat="47.76599" lon="-3.36915">
        <ele>10.1</ele>
        <time>2020-08-21T14:44:40.000Z</time>
      </trkpt>
      <trkpt lat="47.76599" lon="-3.36915">
        <ele>10.1</ele>
        <time>2020-08-21T14:44:41.000Z</time>
      </trkpt>
      <trkpt lat="47.76599" lon="-3.36915">
        <ele>10.1</ele>
        <time>2020-08-21T14:44:42.000Z</time>
      </trkpt>
      <trkpt lat="47.766" lon="-3.36914">
        <ele>10.1</ele>
        <time>2020-08-21T14:44:43.000Z</time>
      </trkpt>
      <trkpt lat="47.76601" lon="-3.36914">
        <ele>10.1</ele>
        <time>2020-08-21T14:44:44.000Z</time>
      </trkpt>
      <trkpt lat="47.76602" lon="-3.36913">
        <ele>10.1</ele>
        <time>2020-08-21T14:44:45.000Z</time>
      </trkpt>
      <trkpt lat="47.76603" lon="-3.36912">
        <ele>10.1</ele>
        <time>2020-08-21T14:44:46.000Z</time>
      </trkpt>
      <trkpt lat="47.76604" lon="-3.36912">
        <ele>10.1</ele>
        <time>2020-08-21T14:44:47.000Z</time>
      </trkpt>
      <trkpt lat="47.76605" lon="-3.36911">
        <ele>10.1</ele>
        <time>2020-08-21T14:44:48.000Z</time>
      </trkpt>
      <trkpt lat="47.76606" lon="-3.3691">
        <ele>10</ele>
        <time>2020-08-21T14:44:49.000Z</time>
      </trkpt>
      <trkpt lat="47.76607" lon="-3.36909">
        <ele>10</ele>
        <time>2020-08-21T14:44:50.000Z</time>
      </trkpt>
      <trkpt lat="47.76608" lon="-3.36909">
        <ele>10</ele>
        <time>2020-08-21T14:44:51.000Z</time>
      </trkpt>
      <trkpt lat="47.76609" lon="-3.36908">
        <ele>10</ele>
        <time>2020-08-21T14:44:52.000Z</time>
      </trkpt>
      <trkpt lat="47.7661" lon="-3.36908">
        <ele>10</ele>
        <time>2020-08-21T14:44:53.000Z</time>
      </trkpt>
      <trkpt lat="47.76611" lon="-3.36907">
        <ele>10</ele>
        <time>2020-08-21T14:44:54.000Z</time>
      </trkpt>
      <trkpt lat="47.76612" lon="-3.36907">
        <ele>10</ele>
        <time>2020-08-21T14:44:55.000Z</time>
      </trkpt>
      <trkpt lat="47.76614" lon="-3.36906">
        <ele>10</ele>
        <time>2020-08-21T14:44:56.000Z</time>
      </trkpt>
      <trkpt lat="47.76615" lon="-3.36906">
        <ele>10</ele>
        <time>2020-08-21T14:44:57.000Z</time>
      </trkpt>
      <trkpt lat="47.76616" lon="-3.36906">
        <ele>10</ele>
        <time>2020-08-21T14:44:58.000Z</time>
      </trkpt>
      <trkpt lat="47.76617" lon="-3.36905">
        <ele>10</ele>
        <time>2020-08-21T14:44:59.000Z</time>
      </trkpt>
      <trkpt lat="47.76618" lon="-3.36905">
        <ele>10</ele>
        <time>2020-08-21T14:45:00.000Z</time>
      </trkpt>
      <trkpt lat="47.76619" lon="-3.36905">
        <ele>10</ele>
        <time>2020-08-21T14:45:01.000Z</time>
      </trkpt>
      <trkpt lat="47.76621" lon="-3.36904">
        <ele>9.9</ele>
        <time>2020-08-21T14:45:02.000Z</time>
      </trkpt>
      <trkpt lat="47.76622" lon="-3.36904">
        <ele>9.9</ele>
        <time>2020-08-21T14:45:03.000Z</time>
      </trkpt>
      <trkpt lat="47.76623" lon="-3.36903">
        <ele>9.9</ele>
        <time>2020-08-21T14:45:04.000Z</time>
      </trkpt>
      <trkpt lat="47.76624" lon="-3.36903">
        <ele>9.9</ele>
        <time>2020-08-21T14:45:05.000Z</time>
      </trkpt>
      <trkpt lat="47.76625" lon="-3.36903">
        <ele>9.9</ele>
        <time>2020-08-21T14:45:06.000Z</time>
      </trkpt>
      <trkpt lat="47.76626" lon="-3.36903">
        <ele>9.9</ele>
        <time>2020-08-21T14:45:07.000Z</time>
      </trkpt>
      <trkpt lat="47.76628" lon="-3.36903">
        <ele>9.9</ele>
        <time>2020-08-21T14:45:08.000Z</time>
      </trkpt>
      <trkpt lat="47.76629" lon="-3.36903">
        <ele>9.9</ele>
        <time>2020-08-21T14:45:09.000Z</time>
      </trkpt>
      <trkpt lat="47.7663" lon="-3.36903">
        <ele>10</ele>
        <time>2020-08-21T14:45:10.000Z</time>
      </trkpt>
      <trkpt lat="47.76631" lon="-3.36903">
        <ele>10</ele>
        <time>2020-08-21T14:45:11.000Z</time>
      </trkpt>
      <trkpt lat="47.76633" lon="-3.36904">
        <ele>10</ele>
        <time>2020-08-21T14:45:12.000Z</time>
      </trkpt>
      <trkpt lat="47.76634" lon="-3.36904">
        <ele>10</ele>
        <time>2020-08-21T14:45:13.000Z</time>
      </trkpt>
      <trkpt lat="47.76635" lon="-3.36904">
        <ele>10.1</ele>
        <time>2020-08-21T14:45:14.000Z</time>
      </trkpt>
      <trkpt lat="47.76637" lon="-3.36905">
        <ele>10.1</ele>
        <time>2020-08-21T14:45:15.000Z</time>
      </trkpt>
      <trkpt lat="47.76638" lon="-3.36905">
        <ele>10.1</ele>
        <time>2020-08-21T14:45:16.000Z</time>
      </trkpt>
      <trkpt lat="47.76639" lon="-3.36905">
        <ele>10.1</ele>
        <time>2020-08-21T14:45:17.000Z</time>
      </trkpt>
      <trkpt lat="47.7664" lon="-3.36906">
        <ele>10.1</ele>
        <time>2020-08-21T14:45:18.000Z</time>
      </trkpt>
      <trkpt lat="47.76642" lon="-3.36906">
        <ele>10.2</ele>
        <time>2020-08-21T14:45:19.000Z</time>
      </trkpt>
      <trkpt lat="47.76643" lon="-3.36906">
        <ele>10.2</ele>
        <time>2020-08-21T14:45:20.000Z</time>
      </trkpt>
      <trkpt lat="47.76644" lon="-3.36906">
        <ele>10.2</ele>
        <time>2020-08-21T14:45:21.000Z</time>
      </trkpt>
      <trkpt lat="47.76646" lon="-3.36907">
        <ele>10.2</ele>
        <time>2020-08-21T14:45:22.000Z</time>
      </trkpt>
      <trkpt lat="47.76647" lon="-3.36907">
        <ele>10.3</ele>
        <time>2020-08-21T14:45:23.000Z</time>
      </trkpt>
      <trkpt lat="47.76648" lon="-3.36907">
        <ele>10.3</ele>
        <time>2020-08-21T14:45:24.000Z</time>
      </trkpt>
      <trkpt lat="47.7665" lon="-3.36908">
        <ele>10.3</ele>
        <time>2020-08-21T14:45:25.000Z</time>
      </trkpt>
      <trkpt lat="47.76651" lon="-3.36908">
        <ele>10.4</ele>
        <time>2020-08-21T14:45:26.000Z</time>
      </trkpt>
      <trkpt lat="47.76652" lon="-3.36909">
        <ele>10.4</ele>
        <time>2020-08-21T14:45:27.000Z</time>
      </trkpt>
      <trkpt lat="47.76654" lon="-3.36909">
        <ele>10.4</ele>
        <time>2020-08-21T14:45:28.000Z</time>
      </trkpt>
      <trkpt lat="47.76655" lon="-3.3691">
        <ele>10.5</ele>
        <time>2020-08-21T14:45:29.000Z</time>
      </trkpt>
      <trkpt lat="47.76656" lon="-3.3691">
        <ele>10.5</ele>
        <time>2020-08-21T14:45:30.000Z</time>
      </trkpt>
      <trkpt lat="47.76657" lon="-3.36911">
        <ele>10.6</ele>
        <time>2020-08-21T14:45:31.000Z</time>
      </trkpt>
      <trkpt lat="47.76658" lon="-3.36912">
        <ele>10.6</ele>
        <time>2020-08-21T14:45:32.000Z</time>
      </trkpt>
      <trkpt lat="47.7666" lon="-3.36912">
        <ele>10.7</ele>
        <time>2020-08-21T14:45:33.000Z</time>
      </trkpt>
      <trkpt lat="47.76661" lon="-3.36913">
        <ele>10.7</ele>
        <time>2020-08-21T14:45:34.000Z</time>
      </trkpt>
      <trkpt lat="47.76662" lon="-3.36914">
        <ele>10.8</ele>
        <time>2020-08-21T14:45:35.000Z</time>
      </trkpt>
      <trkpt lat="47.76663" lon="-3.36915">
        <ele>10.9</ele>
        <time>2020-08-21T14:45:36.000Z</time>
      </trkpt>
      <trkpt lat="47.76664" lon="-3.36916">
        <ele>10.9</ele>
        <time>2020-08-21T14:45:37.000Z</time>
      </trkpt>
      <trkpt lat="47.76665" lon="-3.36917">
        <ele>11</ele>
        <time>2020-08-21T14:45:38.000Z</time>
      </trkpt>
      <trkpt lat="47.76666" lon="-3.36918">
        <ele>11</ele>
        <time>2020-08-21T14:45:39.000Z</time>
      </trkpt>
      <trkpt lat="47.76667" lon="-3.36919">
        <ele>11</ele>
        <time>2020-08-21T14:45:40.000Z</time>
      </trkpt>
      <trkpt lat="47.76667" lon="-3.3692">
        <ele>11</ele>
        <time>2020-08-21T14:45:41.000Z</time>
      </trkpt>
      <trkpt lat="47.76668" lon="-3.36921">
        <ele>10.9</ele>
        <time>2020-08-21T14:45:42.000Z</time>
      </trkpt>
      <trkpt lat="47.76669" lon="-3.36923">
        <ele>10.8</ele>
        <time>2020-08-21T14:45:43.000Z</time>
      </trkpt>
      <trkpt lat="47.7667" lon="-3.36924">
        <ele>10.7</ele>
        <time>2020-08-21T14:45:44.000Z</time>
      </trkpt>
      <trkpt lat="47.7667" lon="-3.36925">
        <ele>10.7</ele>
        <time>2020-08-21T14:45:45.000Z</time>
      </trkpt>
      <trkpt lat="47.76671" lon="-3.36926">
        <ele>10.6</ele>
        <time>2020-08-21T14:45:46.000Z</time>
      </trkpt>
      <trkpt lat="47.76672" lon="-3.36928">
        <ele>10.5</ele>
        <time>2020-08-21T14:45:47.000Z</time>
      </trkpt>
      <trkpt lat="47.76672" lon="-3.36929">
        <ele>10.5</ele>
        <time>2020-08-21T14:45:48.000Z</time>
      </trkpt>
      <trkpt lat="47.76673" lon="-3.3693">
        <ele>10.4</ele>
        <time>2020-08-21T14:45:49.000Z</time>
      </trkpt>
      <trkpt lat="47.76674" lon="-3.36931">
        <ele>10.4</ele>
        <time>2020-08-21T14:45:50.000Z</time>
      </trkpt>
      <trkpt lat="47.76674" lon="-3.36933">
        <ele>10.3</ele>
        <time>2020-08-21T14:45:51.000Z</time>
      </trkpt>
      <trkpt lat="47.76675" lon="-3.36934">
        <ele>10.3</ele>
        <time>2020-08-21T14:45:52.000Z</time>
      </trkpt>
      <trkpt lat="47.76676" lon="-3.36935">
        <ele>10.2</ele>
        <time>2020-08-21T14:45:53.000Z</time>
      </trkpt>
      <trkpt lat="47.76676" lon="-3.36936">
        <ele>10.2</ele>
        <time>2020-08-21T14:45:54.000Z</time>
      </trkpt>
      <trkpt lat="47.76677" lon="-3.36938">
        <ele>10.2</ele>
        <time>2020-08-21T14:45:55.000Z</time>
      </trkpt>
      <trkpt lat="47.76677" lon="-3.36939">
        <ele>10.1</ele>
        <time>2020-08-21T14:45:56.000Z</time>
      </trkpt>
      <trkpt lat="47.76678" lon="-3.3694">
        <ele>10.1</ele>
        <time>2020-08-21T14:45:57.000Z</time>
      </trkpt>
      <trkpt lat="47.76679" lon="-3.36942">
        <ele>10.1</ele>
        <time>2020-08-21T14:45:58.000Z</time>
      </trkpt>
      <trkpt lat="47.76679" lon="-3.36943">
        <ele>10</ele>
        <time>2020-08-21T14:45:59.000Z</time>
      </trkpt>
      <trkpt lat="47.7668" lon="-3.36944">
        <ele>10</ele>
        <time>2020-08-21T14:46:00.000Z</time>
      </trkpt>
      <trkpt lat="47.76681" lon="-3.36945">
        <ele>10</ele>
        <time>2020-08-21T14:46:01.000Z</time>
      </trkpt>
      <trkpt lat="47.76681" lon="-3.36947">
        <ele>10</ele>
        <time>2020-08-21T14:46:02.000Z</time>
      </trkpt>
      <trkpt lat="47.76682" lon="-3.36948">
        <ele>9.9</ele>
        <time>2020-08-21T14:46:03.000Z</time>
      </trkpt>
      <trkpt lat="47.76682" lon="-3.36949">
        <ele>9.9</ele>
        <time>2020-08-21T14:46:04.000Z</time>
      </trkpt>
      <trkpt lat="47.76683" lon="-3.36951">
        <ele>9.9</ele>
        <time>2020-08-21T14:46:05.000Z</time>
      </trkpt>
      <trkpt lat="47.76683" lon="-3.36952">
        <ele>9.9</ele>
        <time>2020-08-21T14:46:06.000Z</time>
      </trkpt>
      <trkpt lat="47.76684" lon="-3.36953">
        <ele>9.9</ele>
        <time>2020-08-21T14:46:07.000Z</time>
      </trkpt>
      <trkpt lat="47.76685" lon="-3.36955">
        <ele>9.9</ele>
        <time>2020-08-21T14:46:08.000Z</time>
      </trkpt>
      <trkpt lat="47.76685" lon="-3.36956">
        <ele>9.9</ele>
        <time>2020-08-21T14:46:09.000Z</time>
      </trkpt>
      <trkpt lat="47.76686" lon="-3.36958">
        <ele>9.9</ele>
        <time>2020-08-21T14:46:10.000Z</time>
      </trkpt>
      <trkpt lat="47.76686" lon="-3.36959">
        <ele>9.9</ele>
        <time>2020-08-21T14:46:11.000Z</time>
      </trkpt>
      <trkpt lat="47.76687" lon="-3.36961">
        <ele>9.9</ele>
        <time>2020-08-21T14:46:12.000Z</time>
      </trkpt>
      <trkpt lat="47.76687" lon="-3.36962">
        <ele>9.9</ele>
        <time>2020-08-21T14:46:13.000Z</time>
      </trkpt>
      <trkpt lat="47.76688" lon="-3.36963">
        <ele>9.9</ele>
        <time>2020-08-21T14:46:14.000Z</time>
      </trkpt>
      <trkpt lat="47.76689" lon="-3.36965">
        <ele>9.9</ele>
        <time>2020-08-21T14:46:15.000Z</time>
      </trkpt>
      <trkpt lat="47.76689" lon="-3.36966">
        <ele>9.9</ele>
        <time>2020-08-21T14:46:16.000Z</time>
      </trkpt>
      <trkpt lat="47.7669" lon="-3.36968">
        <ele>9.9</ele>
        <time>2020-08-21T14:46:17.000Z</time>
      </trkpt>
      <trkpt lat="47.7669" lon="-3.36969">
        <ele>9.9</ele>
        <time>2020-08-21T14:46:18.000Z</time>
      </trkpt>
      <trkpt lat="47.76691" lon="-3.36971">
        <ele>9.9</ele>
        <time>2020-08-21T14:46:19.000Z</time>
      </trkpt>
      <trkpt lat="47.76692" lon="-3.36972">
        <ele>10</ele>
        <time>2020-08-21T14:46:20.000Z</time>
      </trkpt>
      <trkpt lat="47.76693" lon="-3.36974">
        <ele>10</ele>
        <time>2020-08-21T14:46:21.000Z</time>
      </trkpt>
      <trkpt lat="47.76693" lon="-3.36975">
        <ele>10</ele>
        <time>2020-08-21T14:46:22.000Z</time>
      </trkpt>
      <trkpt lat="47.76694" lon="-3.36977">
        <ele>10</ele>
        <time>2020-08-21T14:46:23.000Z</time>
      </trkpt>
      <trkpt lat="47.76695" lon="-3.36978">
        <ele>10</ele>
        <time>2020-08-21T14:46:24.000Z</time>
      </trkpt>
      <trkpt lat="47.76696" lon="-3.36979">
        <ele>10</ele>
        <time>2020-08-21T14:46:25.000Z</time>
      </trkpt>
      <trkpt lat="47.76697" lon="-3.36981">
        <ele>10</ele>
        <time>2020-08-21T14:46:26.000Z</time>
      </trkpt>
      <trkpt lat="47.76697" lon="-3.36982">
        <ele>10</ele>
        <time>2020-08-21T14:46:27.000Z</time>
      </trkpt>
      <trkpt lat="47.76698" lon="-3.36983">
        <ele>10.1</ele>
        <time>2020-08-21T14:46:28.000Z</time>
      </trkpt>
      <trkpt lat="47.76699" lon="-3.36985">
        <ele>10.1</ele>
        <time>2020-08-21T14:46:29.000Z</time>
      </trkpt>
      <trkpt lat="47.767" lon="-3.36986">
        <ele>10.1</ele>
        <time>2020-08-21T14:46:30.000Z</time>
      </trkpt>
      <trkpt lat="47.76701" lon="-3.36987">
        <ele>10.1</ele>
        <time>2020-08-21T14:46:31.000Z</time>
      </trkpt>
      <trkpt lat="47.76702" lon="-3.36988">
        <ele>10.1</ele>
        <time>2020-08-21T14:46:32.000Z</time>
      </trkpt>
      <trkpt lat="47.76703" lon="-3.36989">
        <ele>10.1</ele>
        <time>2020-08-21T14:46:33.000Z</time>
      </trkpt>
      <trkpt lat="47.76704" lon="-3.3699">
        <ele>10.1</ele>
        <time>2020-08-21T14:46:34.000Z</time>
      </trkpt>
      <trkpt lat="47.76705" lon="-3.36991">
        <ele>10.1</ele>
        <time>2020-08-21T14:46:35.000Z</time>
      </trkpt>
      <trkpt lat="47.76706" lon="-3.36992">
        <ele>10.1</ele>
        <time>2020-08-21T14:46:36.000Z</time>
      </trkpt>
      <trkpt lat="47.76707" lon="-3.36993">
        <ele>10.2</ele>
        <time>2020-08-21T14:46:37.000Z</time>
      </trkpt>
      <trkpt lat="47.76708" lon="-3.36994">
        <ele>10.2</ele>
        <time>2020-08-21T14:46:38.000Z</time>
      </trkpt>
      <trkpt lat="47.76709" lon="-3.36995">
        <ele>10.2</ele>
        <time>2020-08-21T14:46:39.000Z</time>
      </trkpt>
      <trkpt lat="47.7671" lon="-3.36995">
        <ele>10.2</ele>
        <time>2020-08-21T14:46:40.000Z</time>
      </trkpt>
      <trkpt lat="47.76711" lon="-3.36996">
        <ele>10.2</ele>
        <time>2020-08-21T14:46:41.000Z</time>
      </trkpt>
      <trkpt lat="47.76711" lon="-3.36997">
        <ele>10.2</ele>
        <time>2020-08-21T14:46:42.000Z</time>
      </trkpt>
      <trkpt lat="47.76712" lon="-3.36997">
        <ele>10.2</ele>
        <time>2020-08-21T14:46:43.000Z</time>
      </trkpt>
      <trkpt lat="47.76713" lon="-3.36998">
        <ele>10.2</ele>
        <time>2020-08-21T14:46:44.000Z</time>
      </trkpt>
      <trkpt lat="47.76714" lon="-3.36999">
        <ele>10.2</ele>
        <time>2020-08-21T14:46:45.000Z</time>
      </trkpt>
      <trkpt lat="47.76715" lon="-3.37">
        <ele>10.2</ele>
        <time>2020-08-21T14:46:46.000Z</time>
      </trkpt>
      <trkpt lat="47.76716" lon="-3.37">
        <ele>10.2</ele>
        <time>2020-08-21T14:46:47.000Z</time>
      </trkpt>
      <trkpt lat="47.76717" lon="-3.37001">
        <ele>10.2</ele>
        <time>2020-08-21T14:46:48.000Z</time>
      </trkpt>
      <trkpt lat="47.76718" lon="-3.37002">
        <ele>10.2</ele>
        <time>2020-08-21T14:46:49.000Z</time>
      </trkpt>
      <trkpt lat="47.76719" lon="-3.37003">
        <ele>10.2</ele>
        <time>2020-08-21T14:46:50.000Z</time>
      </trkpt>
      <trkpt lat="47.76719" lon="-3.37004">
        <ele>10.2</ele>
        <time>2020-08-21T14:46:51.000Z</time>
      </trkpt>
      <trkpt lat="47.7672" lon="-3.37005">
        <ele>10.2</ele>
        <time>2020-08-21T14:46:52.000Z</time>
      </trkpt>
      <trkpt lat="47.76721" lon="-3.37006">
        <ele>10.2</ele>
        <time>2020-08-21T14:46:53.000Z</time>
      </trkpt>
      <trkpt lat="47.76722" lon="-3.37007">
        <ele>10.2</ele>
        <time>2020-08-21T14:46:54.000Z</time>
      </trkpt>
      <trkpt lat="47.76723" lon="-3.37008">
        <ele>10.2</ele>
        <time>2020-08-21T14:46:55.000Z</time>
      </trkpt>
      <trkpt lat="47.76723" lon="-3.37009">
        <ele>10.2</ele>
        <time>2020-08-21T14:46:56.000Z</time>
      </trkpt>
      <trkpt lat="47.76724" lon="-3.3701">
        <ele>10.2</ele>
        <time>2020-08-21T14:46:57.000Z</time>
      </trkpt>
      <trkpt lat="47.76725" lon="-3.37011">
        <ele>10.2</ele>
        <time>2020-08-21T14:46:58.000Z</time>
      </trkpt>
      <trkpt lat="47.76726" lon="-3.37012">
        <ele>10.2</ele>
        <time>2020-08-21T14:46:59.000Z</time>
      </trkpt>
      <trkpt lat="47.76727" lon="-3.37013">
        <ele>10.2</ele>
        <time>2020-08-21T14:47:00.000Z</time>
      </trkpt>
      <trkpt lat="47.76728" lon="-3.37014">
        <ele>10.2</ele>
        <time>2020-08-21T14:47:01.000Z</time>
      </trkpt>
      <trkpt lat="47.76729" lon="-3.37015">
        <ele>10.2</ele>
        <time>2020-08-21T14:47:02.000Z</time>
      </trkpt>
      <trkpt lat="47.7673" lon="-3.37016">
        <ele>10.2</ele>
        <time>2020-08-21T14:47:03.000Z</time>
      </trkpt>
      <trkpt lat="47.76731" lon="-3.37017">
        <ele>10.2</ele>
        <time>2020-08-21T14:47:04.000Z</time>
      </trkpt>
      <trkpt lat="47.76732" lon="-3.37018">
        <ele>10.2</ele>
        <time>2020-08-21T14:47:05.000Z</time>
      </trkpt>
      <trkpt lat="47.76733" lon="-3.37019">
        <ele>10.2</ele>
        <time>2020-08-21T14:47:06.000Z</time>
      </trkpt>
      <trkpt lat="47.76735" lon="-3.3702">
        <ele>10.2</ele>
        <time>2020-08-21T14:47:07.000Z</time>
      </trkpt>
      <trkpt lat="47.76736" lon="-3.37021">
        <ele>10.2</ele>
        <time>2020-08-21T14:47:08.000Z</time>
      </trkpt>
      <trkpt lat="47.76737" lon="-3.37021">
        <ele>10.2</ele>
        <time>2020-08-21T14:47:09.000Z</time>
      </trkpt>
      <trkpt lat="47.76738" lon="-3.37022">
        <ele>10.2</ele>
        <time>2020-08-21T14:47:10.000Z</time>
      </trkpt>
      <trkpt lat="47.76739" lon="-3.37023">
        <ele>10.2</ele>
        <time>2020-08-21T14:47:11.000Z</time>
      </trkpt>
      <trkpt lat="47.7674" lon="-3.37024">
        <ele>10.2</ele>
        <time>2020-08-21T14:47:12.000Z</time>
      </trkpt>
      <trkpt lat="47.76741" lon="-3.37025">
        <ele>10.2</ele>
        <time>2020-08-21T14:47:13.000Z</time>
      </trkpt>
      <trkpt lat="47.76742" lon="-3.37026">
        <ele>10.2</ele>
        <time>2020-08-21T14:47:14.000Z</time>
      </trkpt>
      <trkpt lat="47.76743" lon="-3.37027">
        <ele>10.2</ele>
        <time>2020-08-21T14:47:15.000Z</time>
      </trkpt>
      <trkpt lat="47.76744" lon="-3.37028">
        <ele>10.2</ele>
        <time>2020-08-21T14:47:16.000Z</time>
      </trkpt>
      <trkpt lat="47.76745" lon="-3.3703">
        <ele>10.2</ele>
        <time>2020-08-21T14:47:17.000Z</time>
      </trkpt>
      <trkpt lat="47.76746" lon="-3.37031">
        <ele>10.2</ele>
        <time>2020-08-21T14:47:18.000Z</time>
      </trkpt>
      <trkpt lat="47.76747" lon="-3.37032">
        <ele>10.2</ele>
        <time>2020-08-21T14:47:19.000Z</time>
      </trkpt>
      <trkpt lat="47.76748" lon="-3.37033">
        <ele>10.3</ele>
        <time>2020-08-21T14:47:20.000Z</time>
      </trkpt>
      <trkpt lat="47.76749" lon="-3.37035">
        <ele>10.3</ele>
        <time>2020-08-21T14:47:21.000Z</time>
      </trkpt>
      <trkpt lat="47.76749" lon="-3.37036">
        <ele>10.3</ele>
        <time>2020-08-21T14:47:22.000Z</time>
      </trkpt>
      <trkpt lat="47.7675" lon="-3.37037">
        <ele>10.3</ele>
        <time>2020-08-21T14:47:23.000Z</time>
      </trkpt>
      <trkpt lat="47.76751" lon="-3.37039">
        <ele>10.3</ele>
        <time>2020-08-21T14:47:24.000Z</time>
      </trkpt>
      <trkpt lat="47.76752" lon="-3.3704">
        <ele>10.3</ele>
        <time>2020-08-21T14:47:25.000Z</time>
      </trkpt>
      <trkpt lat="47.76753" lon="-3.37042">
        <ele>10.3</ele>
        <time>2020-08-21T14:47:26.000Z</time>
      </trkpt>
      <trkpt lat="47.76753" lon="-3.37043">
        <ele>10.3</ele>
        <time>2020-08-21T14:47:27.000Z</time>
      </trkpt>
      <trkpt lat="47.76754" lon="-3.37045">
        <ele>10.2</ele>
        <time>2020-08-21T14:47:28.000Z</time>
      </trkpt>
      <trkpt lat="47.76755" lon="-3.37046">
        <ele>10.2</ele>
        <time>2020-08-21T14:47:29.000Z</time>
      </trkpt>
      <trkpt lat="47.76756" lon="-3.37048">
        <ele>10.2</ele>
        <time>2020-08-21T14:47:30.000Z</time>
      </trkpt>
      <trkpt lat="47.76756" lon="-3.3705">
        <ele>10.2</ele>
        <time>2020-08-21T14:47:31.000Z</time>
      </trkpt>
      <trkpt lat="47.76757" lon="-3.37051">
        <ele>10.2</ele>
        <time>2020-08-21T14:47:32.000Z</time>
      </trkpt>
      <trkpt lat="47.76758" lon="-3.37053">
        <ele>10.3</ele>
        <time>2020-08-21T14:47:33.000Z</time>
      </trkpt>
      <trkpt lat="47.76758" lon="-3.37055">
        <ele>10.3</ele>
        <time>2020-08-21T14:47:34.000Z</time>
      </trkpt>
      <trkpt lat="47.76759" lon="-3.37056">
        <ele>10.3</ele>
        <time>2020-08-21T14:47:35.000Z</time>
      </trkpt>
      <trkpt lat="47.7676" lon="-3.37058">
        <ele>10.3</ele>
        <time>2020-08-21T14:47:36.000Z</time>
      </trkpt>
      <trkpt lat="47.7676" lon="-3.3706">
        <ele>10.3</ele>
        <time>2020-08-21T14:47:37.000Z</time>
      </trkpt>
      <trkpt lat="47.76761" lon="-3.37062">
        <ele>10.3</ele>
        <time>2020-08-21T14:47:38.000Z</time>
      </trkpt>
      <trkpt lat="47.76762" lon="-3.37063">
        <ele>10.4</ele>
        <time>2020-08-21T14:47:39.000Z</time>
      </trkpt>
      <trkpt lat="47.76762" lon="-3.37065">
        <ele>10.4</ele>
        <time>2020-08-21T14:47:40.000Z</time>
      </trkpt>
      <trkpt lat="47.76763" lon="-3.37067">
        <ele>10.4</ele>
        <time>2020-08-21T14:47:41.000Z</time>
      </trkpt>
      <trkpt lat="47.76763" lon="-3.37069">
        <ele>10.4</ele>
        <time>2020-08-21T14:47:42.000Z</time>
      </trkpt>
      <trkpt lat="47.76764" lon="-3.3707">
        <ele>10.5</ele>
        <time>2020-08-21T14:47:43.000Z</time>
      </trkpt>
      <trkpt lat="47.76764" lon="-3.37072">
        <ele>10.5</ele>
        <time>2020-08-21T14:47:44.000Z</time>
      </trkpt>
      <trkpt lat="47.76765" lon="-3.37074">
        <ele>10.5</ele>
        <time>2020-08-21T14:47:45.000Z</time>
      </trkpt>
      <trkpt lat="47.76765" lon="-3.37075">
        <ele>10.6</ele>
        <time>2020-08-21T14:47:46.000Z</time>
      </trkpt>
      <trkpt lat="47.76766" lon="-3.37077">
        <ele>10.6</ele>
        <time>2020-08-21T14:47:47.000Z</time>
      </trkpt>
      <trkpt lat="47.76766" lon="-3.37079">
        <ele>10.6</ele>
        <time>2020-08-21T14:47:48.000Z</time>
      </trkpt>
      <trkpt lat="47.76767" lon="-3.3708">
        <ele>10.7</ele>
        <time>2020-08-21T14:47:49.000Z</time>
      </trkpt>
      <trkpt lat="47.76767" lon="-3.37082">
        <ele>10.7</ele>
        <time>2020-08-21T14:47:50.000Z</time>
      </trkpt>
      <trkpt lat="47.76768" lon="-3.37084">
        <ele>10.7</ele>
        <time>2020-08-21T14:47:51.000Z</time>
      </trkpt>
      <trkpt lat="47.76768" lon="-3.37085">
        <ele>10.8</ele>
        <time>2020-08-21T14:47:52.000Z</time>
      </trkpt>
      <trkpt lat="47.76769" lon="-3.37087">
        <ele>10.9</ele>
        <time>2020-08-21T14:47:53.000Z</time>
      </trkpt>
      <trkpt lat="47.76769" lon="-3.37089">
        <ele>11</ele>
        <time>2020-08-21T14:47:54.000Z</time>
      </trkpt>
      <trkpt lat="47.76769" lon="-3.3709">
        <ele>11.1</ele>
        <time>2020-08-21T14:47:55.000Z</time>
      </trkpt>
      <trkpt lat="47.7677" lon="-3.37092">
        <ele>11.2</ele>
        <time>2020-08-21T14:47:56.000Z</time>
      </trkpt>
      <trkpt lat="47.7677" lon="-3.37094">
        <ele>11.3</ele>
        <time>2020-08-21T14:47:57.000Z</time>
      </trkpt>
      <trkpt lat="47.7677" lon="-3.37095">
        <ele>11.4</ele>
        <time>2020-08-21T14:47:58.000Z</time>
      </trkpt>
      <trkpt lat="47.76771" lon="-3.37097">
        <ele>11.6</ele>
        <time>2020-08-21T14:47:59.000Z</time>
      </trkpt>
      <trkpt lat="47.76771" lon="-3.37099">
        <ele>11.7</ele>
        <time>2020-08-21T14:48:00.000Z</time>
      </trkpt>
      <trkpt lat="47.76771" lon="-3.37101">
        <ele>11.8</ele>
        <time>2020-08-21T14:48:01.000Z</time>
      </trkpt>
      <trkpt lat="47.76771" lon="-3.37103">
        <ele>11.9</ele>
        <time>2020-08-21T14:48:02.000Z</time>
      </trkpt>
      <trkpt lat="47.76772" lon="-3.37105">
        <ele>12</ele>
        <time>2020-08-21T14:48:03.000Z</time>
      </trkpt>
      <trkpt lat="47.76772" lon="-3.37107">
        <ele>12.2</ele>
        <time>2020-08-21T14:48:04.000Z</time>
      </trkpt>
      <trkpt lat="47.76772" lon="-3.37108">
        <ele>12.3</ele>
        <time>2020-08-21T14:48:05.000Z</time>
      </trkpt>
      <trkpt lat="47.76772" lon="-3.3711">
        <ele>12.4</ele>
        <time>2020-08-21T14:48:06.000Z</time>
      </trkpt>
      <trkpt lat="47.76772" lon="-3.37112">
        <ele>12.5</ele>
        <time>2020-08-21T14:48:07.000Z</time>
      </trkpt>
      <trkpt lat="47.76772" lon="-3.37113">
        <ele>12.6</ele>
        <time>2020-08-21T14:48:08.000Z</time>
      </trkpt>
      <trkpt lat="47.76772" lon="-3.37114">
        <ele>12.7</ele>
        <time>2020-08-21T14:48:09.000Z</time>
      </trkpt>
      <trkpt lat="47.76772" lon="-3.37115">
        <ele>12.8</ele>
        <time>2020-08-21T14:48:10.000Z</time>
      </trkpt>
      <trkpt lat="47.76772" lon="-3.37116">
        <ele>12.9</ele>
        <time>2020-08-21T14:48:11.000Z</time>
      </trkpt>
      <trkpt lat="47.76772" lon="-3.37117">
        <ele>12.9</ele>
        <time>2020-08-21T14:48:12.000Z</time>
      </trkpt>
      <trkpt lat="47.76772" lon="-3.37118">
        <ele>13</ele>
        <time>2020-08-21T14:48:13.000Z</time>
      </trkpt>
      <trkpt lat="47.76772" lon="-3.37119">
        <ele>13.1</ele>
        <time>2020-08-21T14:48:14.000Z</time>
      </trkpt>
      <trkpt lat="47.76772" lon="-3.3712">
        <ele>13.1</ele>
        <time>2020-08-21T14:48:15.000Z</time>
      </trkpt>
      <trkpt lat="47.76772" lon="-3.37121">
        <ele>13.2</ele>
        <time>2020-08-21T14:48:16.000Z</time>
      </trkpt>
      <trkpt lat="47.76772" lon="-3.37122">
        <ele>13.3</ele>
        <time>2020-08-21T14:48:17.000Z</time>
      </trkpt>
      <trkpt lat="47.76772" lon="-3.37124">
        <ele>13.4</ele>
        <time>2020-08-21T14:48:18.000Z</time>
      </trkpt>
      <trkpt lat="47.76773" lon="-3.37125">
        <ele>13.5</ele>
        <time>2020-08-21T14:48:19.000Z</time>
      </trkpt>
      <trkpt lat="47.76773" lon="-3.37126">
        <ele>13.6</ele>
        <time>2020-08-21T14:48:20.000Z</time>
      </trkpt>
      <trkpt lat="47.76773" lon="-3.37128">
        <ele>13.6</ele>
        <time>2020-08-21T14:48:21.000Z</time>
      </trkpt>
      <trkpt lat="47.76773" lon="-3.37129">
        <ele>13.7</ele>
        <time>2020-08-21T14:48:22.000Z</time>
      </trkpt>
      <trkpt lat="47.76773" lon="-3.3713">
        <ele>13.8</ele>
        <time>2020-08-21T14:48:23.000Z</time>
      </trkpt>
      <trkpt lat="47.76773" lon="-3.37131">
        <ele>13.9</ele>
        <time>2020-08-21T14:48:24.000Z</time>
      </trkpt>
      <trkpt lat="47.76773" lon="-3.37132">
        <ele>14</ele>
        <time>2020-08-21T14:48:25.000Z</time>
      </trkpt>
      <trkpt lat="47.76773" lon="-3.37133">
        <ele>14</ele>
        <time>2020-08-21T14:48:26.000Z</time>
      </trkpt>
      <trkpt lat="47.76773" lon="-3.37135">
        <ele>14.1</ele>
        <time>2020-08-21T14:48:27.000Z</time>
      </trkpt>
      <trkpt lat="47.76773" lon="-3.37136">
        <ele>14.2</ele>
        <time>2020-08-21T14:48:28.000Z</time>
      </trkpt>
      <trkpt lat="47.76773" lon="-3.37137">
        <ele>14.3</ele>
        <time>2020-08-21T14:48:29.000Z</time>
      </trkpt>
      <trkpt lat="47.76773" lon="-3.37138">
        <ele>14.4</ele>
        <time>2020-08-21T14:48:30.000Z</time>
      </trkpt>
      <trkpt lat="47.76773" lon="-3.3714">
        <ele>14.6</ele>
        <time>2020-08-21T14:48:31.000Z</time>
      </trkpt>
      <trkpt lat="47.76773" lon="-3.37142">
        <ele>14.7</ele>
        <time>2020-08-21T14:48:32.000Z</time>
      </trkpt>
      <trkpt lat="47.76772" lon="-3.37143">
        <ele>14.9</ele>
        <time>2020-08-21T14:48:33.000Z</time>
      </trkpt>
      <trkpt lat="47.76772" lon="-3.37145">
        <ele>15</ele>
        <time>2020-08-21T14:48:34.000Z</time>
      </trkpt>
      <trkpt lat="47.76772" lon="-3.37147">
        <ele>15.2</ele>
        <time>2020-08-21T14:48:35.000Z</time>
      </trkpt>
      <trkpt lat="47.76772" lon="-3.37148">
        <ele>15.3</ele>
        <time>2020-08-21T14:48:36.000Z</time>
      </trkpt>
      <trkpt lat="47.76771" lon="-3.3715">
        <ele>15.4</ele>
        <time>2020-08-21T14:48:37.000Z</time>
      </trkpt>
      <trkpt lat="47.76771" lon="-3.37151">
        <ele>15.5</ele>
        <time>2020-08-21T14:48:38.000Z</time>
      </trkpt>
      <trkpt lat="47.76771" lon="-3.37151">
        <ele>15.6</ele>
        <time>2020-08-21T14:48:39.000Z</time>
      </trkpt>
      <trkpt lat="47.76771" lon="-3.37152">
        <ele>15.6</ele>
        <time>2020-08-21T14:48:40.000Z</time>
      </trkpt>
      <trkpt lat="47.76771" lon="-3.37152">
        <ele>15.7</ele>
        <time>2020-08-21T14:48:41.000Z</time>
      </trkpt>
      <trkpt lat="47.76771" lon="-3.37152">
        <ele>15.7</ele>
        <time>2020-08-21T14:48:42.000Z</time>
      </trkpt>
      <trkpt lat="47.76771" lon="-3.37152">
        <ele>15.7</ele>
        <time>2020-08-21T14:48:43.000Z</time>
      </trkpt>
      <trkpt lat="47.76771" lon="-3.37152">
        <ele>15.7</ele>
        <time>2020-08-21T14:48:44.000Z</time>
      </trkpt>
      <trkpt lat="47.76771" lon="-3.37152">
        <ele>15.7</ele>
        <time>2020-08-21T14:48:45.000Z</time>
      </trkpt>
      <trkpt lat="47.76771" lon="-3.37152">
        <ele>15.7</ele>
        <time>2020-08-21T14:48:46.000Z</time>
      </trkpt>
      <trkpt lat="47.76771" lon="-3.37153">
        <ele>15.7</ele>
        <time>2020-08-21T14:48:47.000Z</time>
      </trkpt>
      <trkpt lat="47.76771" lon="-3.37153">
        <ele>15.7</ele>
        <time>2020-08-21T14:48:48.000Z</time>
      </trkpt>
      <trkpt lat="47.76771" lon="-3.37153">
        <ele>15.8</ele>
        <time>2020-08-21T14:48:49.000Z</time>
      </trkpt>
      <trkpt lat="47.76771" lon="-3.37154">
        <ele>15.8</ele>
        <time>2020-08-21T14:48:50.000Z</time>
      </trkpt>
      <trkpt lat="47.7677" lon="-3.37155">
        <ele>15.9</ele>
        <time>2020-08-21T14:48:51.000Z</time>
      </trkpt>
      <trkpt lat="47.7677" lon="-3.37156">
        <ele>16</ele>
        <time>2020-08-21T14:48:52.000Z</time>
      </trkpt>
      <trkpt lat="47.7677" lon="-3.37157">
        <ele>16.1</ele>
        <time>2020-08-21T14:48:53.000Z</time>
      </trkpt>
      <trkpt lat="47.7677" lon="-3.37159">
        <ele>16.3</ele>
        <time>2020-08-21T14:48:54.000Z</time>
      </trkpt>
      <trkpt lat="47.76769" lon="-3.37161">
        <ele>16.5</ele>
        <time>2020-08-21T14:48:55.000Z</time>
      </trkpt>
      <trkpt lat="47.76769" lon="-3.37163">
        <ele>16.7</ele>
        <time>2020-08-21T14:48:56.000Z</time>
      </trkpt>
      <trkpt lat="47.76769" lon="-3.37165">
        <ele>16.9</ele>
        <time>2020-08-21T14:48:57.000Z</time>
      </trkpt>
      <trkpt lat="47.76769" lon="-3.37167">
        <ele>17</ele>
        <time>2020-08-21T14:48:58.000Z</time>
      </trkpt>
      <trkpt lat="47.76768" lon="-3.37169">
        <ele>17</ele>
        <time>2020-08-21T14:48:59.000Z</time>
      </trkpt>
      <trkpt lat="47.76768" lon="-3.37171">
        <ele>17.1</ele>
        <time>2020-08-21T14:49:00.000Z</time>
      </trkpt>
      <trkpt lat="47.76768" lon="-3.37173">
        <ele>17.1</ele>
        <time>2020-08-21T14:49:01.000Z</time>
      </trkpt>
      <trkpt lat="47.76767" lon="-3.37174">
        <ele>17.1</ele>
        <time>2020-08-21T14:49:02.000Z</time>
      </trkpt>
      <trkpt lat="47.76767" lon="-3.37176">
        <ele>17.1</ele>
        <time>2020-08-21T14:49:03.000Z</time>
      </trkpt>
      <trkpt lat="47.76766" lon="-3.37177">
        <ele>17.2</ele>
        <time>2020-08-21T14:49:04.000Z</time>
      </trkpt>
      <trkpt lat="47.76766" lon="-3.37178">
        <ele>17.2</ele>
        <time>2020-08-21T14:49:05.000Z</time>
      </trkpt>
      <trkpt lat="47.76766" lon="-3.3718">
        <ele>17.2</ele>
        <time>2020-08-21T14:49:06.000Z</time>
      </trkpt>
      <trkpt lat="47.76765" lon="-3.37181">
        <ele>17.3</ele>
        <time>2020-08-21T14:49:07.000Z</time>
      </trkpt>
      <trkpt lat="47.76765" lon="-3.37182">
        <ele>17.3</ele>
        <time>2020-08-21T14:49:08.000Z</time>
      </trkpt>
      <trkpt lat="47.76764" lon="-3.37183">
        <ele>17.4</ele>
        <time>2020-08-21T14:49:09.000Z</time>
      </trkpt>
      <trkpt lat="47.76764" lon="-3.37184">
        <ele>17.4</ele>
        <time>2020-08-21T14:49:10.000Z</time>
      </trkpt>
      <trkpt lat="47.76763" lon="-3.37185">
        <ele>17.4</ele>
        <time>2020-08-21T14:49:11.000Z</time>
      </trkpt>
      <trkpt lat="47.76763" lon="-3.37186">
        <ele>17.5</ele>
        <time>2020-08-21T14:49:12.000Z</time>
      </trkpt>
      <trkpt lat="47.76762" lon="-3.37188">
        <ele>17.5</ele>
        <time>2020-08-21T14:49:13.000Z</time>
      </trkpt>
      <trkpt lat="47.76762" lon="-3.37189">
        <ele>17.6</ele>
        <time>2020-08-21T14:49:14.000Z</time>
      </trkpt>
      <trkpt lat="47.76761" lon="-3.3719">
        <ele>17.6</ele>
        <time>2020-08-21T14:49:15.000Z</time>
      </trkpt>
      <trkpt lat="47.7676" lon="-3.37191">
        <ele>17.7</ele>
        <time>2020-08-21T14:49:16.000Z</time>
      </trkpt>
      <trkpt lat="47.7676" lon="-3.37192">
        <ele>17.7</ele>
        <time>2020-08-21T14:49:17.000Z</time>
      </trkpt>
      <trkpt lat="47.76759" lon="-3.37194">
        <ele>17.8</ele>
        <time>2020-08-21T14:49:18.000Z</time>
      </trkpt>
      <trkpt lat="47.76759" lon="-3.37194">
        <ele>17.8</ele>
        <time>2020-08-21T14:49:19.000Z</time>
      </trkpt>
      <trkpt lat="47.76759" lon="-3.37195">
        <ele>17.8</ele>
        <time>2020-08-21T14:49:20.000Z</time>
      </trkpt>
      <trkpt lat="47.76758" lon="-3.37195">
        <ele>17.9</ele>
        <time>2020-08-21T14:49:21.000Z</time>
      </trkpt>
      <trkpt lat="47.76758" lon="-3.37196">
        <ele>17.9</ele>
        <time>2020-08-21T14:49:22.000Z</time>
      </trkpt>
      <trkpt lat="47.76758" lon="-3.37196">
        <ele>17.9</ele>
        <time>2020-08-21T14:49:23.000Z</time>
      </trkpt>
      <trkpt lat="47.76758" lon="-3.37196">
        <ele>17.9</ele>
        <time>2020-08-21T14:49:24.000Z</time>
      </trkpt>
      <trkpt lat="47.76758" lon="-3.37196">
        <ele>17.9</ele>
        <time>2020-08-21T14:49:25.000Z</time>
      </trkpt>
      <trkpt lat="47.76758" lon="-3.37196">
        <ele>17.9</ele>
        <time>2020-08-21T14:49:26.000Z</time>
      </trkpt>
      <trkpt lat="47.76758" lon="-3.37196">
        <ele>17.9</ele>
        <time>2020-08-21T14:49:27.000Z</time>
      </trkpt>
      <trkpt lat="47.76758" lon="-3.37196">
        <ele>17.9</ele>
        <time>2020-08-21T14:49:28.000Z</time>
      </trkpt>
      <trkpt lat="47.76758" lon="-3.37197">
        <ele>17.9</ele>
        <time>2020-08-21T14:49:29.000Z</time>
      </trkpt>
      <trkpt lat="47.76757" lon="-3.37198">
        <ele>18</ele>
        <time>2020-08-21T14:49:30.000Z</time>
      </trkpt>
      <trkpt lat="47.76757" lon="-3.37199">
        <ele>18</ele>
        <time>2020-08-21T14:49:31.000Z</time>
      </trkpt>
      <trkpt lat="47.76756" lon="-3.372">
        <ele>18</ele>
        <time>2020-08-21T14:49:32.000Z</time>
      </trkpt>
      <trkpt lat="47.76755" lon="-3.37201">
        <ele>18.1</ele>
        <time>2020-08-21T14:49:33.000Z</time>
      </trkpt>
      <trkpt lat="47.76755" lon="-3.37202">
        <ele>18.2</ele>
        <time>2020-08-21T14:49:34.000Z</time>
      </trkpt>
      <trkpt lat="47.76754" lon="-3.37203">
        <ele>18.2</ele>
        <time>2020-08-21T14:49:35.000Z</time>
      </trkpt>
      <trkpt lat="47.76753" lon="-3.37203">
        <ele>18.3</ele>
        <time>2020-08-21T14:49:36.000Z</time>
      </trkpt>
      <trkpt lat="47.76752" lon="-3.37204">
        <ele>18.3</ele>
        <time>2020-08-21T14:49:37.000Z</time>
      </trkpt>
      <trkpt lat="47.76752" lon="-3.37205">
        <ele>18.4</ele>
        <time>2020-08-21T14:49:38.000Z</time>
      </trkpt>
      <trkpt lat="47.76751" lon="-3.37205">
        <ele>18.5</ele>
        <time>2020-08-21T14:49:39.000Z</time>
      </trkpt>
      <trkpt lat="47.7675" lon="-3.37206">
        <ele>18.5</ele>
        <time>2020-08-21T14:49:40.000Z</time>
      </trkpt>
      <trkpt lat="47.76749" lon="-3.37207">
        <ele>18.5</ele>
        <time>2020-08-21T14:49:41.000Z</time>
      </trkpt>
      <trkpt lat="47.76748" lon="-3.37207">
        <ele>18.5</ele>
        <time>2020-08-21T14:49:42.000Z</time>
      </trkpt>
      <trkpt lat="47.76747" lon="-3.37208">
        <ele>18.5</ele>
        <time>2020-08-21T14:49:43.000Z</time>
      </trkpt>
      <trkpt lat="47.76746" lon="-3.37209">
        <ele>18.5</ele>
        <time>2020-08-21T14:49:44.000Z</time>
      </trkpt>
      <trkpt lat="47.76745" lon="-3.3721">
        <ele>18.5</ele>
        <time>2020-08-21T14:49:45.000Z</time>
      </trkpt>
      <trkpt lat="47.76744" lon="-3.37211">
        <ele>18.5</ele>
        <time>2020-08-21T14:49:46.000Z</time>
      </trkpt>
      <trkpt lat="47.76743" lon="-3.37212">
        <ele>18.5</ele>
        <time>2020-08-21T14:49:47.000Z</time>
      </trkpt>
      <trkpt lat="47.76742" lon="-3.37213">
        <ele>18.5</ele>
        <time>2020-08-21T14:49:48.000Z</time>
      </trkpt>
      <trkpt lat="47.76741" lon="-3.37214">
        <ele>18.5</ele>
        <time>2020-08-21T14:49:49.000Z</time>
      </trkpt>
      <trkpt lat="47.7674" lon="-3.37215">
        <ele>18.5</ele>
        <time>2020-08-21T14:49:50.000Z</time>
      </trkpt>
      <trkpt lat="47.7674" lon="-3.37216">
        <ele>18.5</ele>
        <time>2020-08-21T14:49:51.000Z</time>
      </trkpt>
      <trkpt lat="47.76739" lon="-3.37217">
        <ele>18.5</ele>
        <time>2020-08-21T14:49:52.000Z</time>
      </trkpt>
      <trkpt lat="47.76738" lon="-3.37218">
        <ele>18.5</ele>
        <time>2020-08-21T14:49:53.000Z</time>
      </trkpt>
      <trkpt lat="47.76737" lon="-3.37219">
        <ele>18.5</ele>
        <time>2020-08-21T14:49:54.000Z</time>
      </trkpt>
      <trkpt lat="47.76736" lon="-3.3722">
        <ele>18.5</ele>
        <time>2020-08-21T14:49:55.000Z</time>
      </trkpt>
      <trkpt lat="47.76735" lon="-3.37221">
        <ele>18.5</ele>
        <time>2020-08-21T14:49:56.000Z</time>
      </trkpt>
      <trkpt lat="47.76734" lon="-3.37222">
        <ele>18.5</ele>
        <time>2020-08-21T14:49:57.000Z</time>
      </trkpt>
      <trkpt lat="47.76733" lon="-3.37223">
        <ele>18.5</ele>
        <time>2020-08-21T14:49:58.000Z</time>
      </trkpt>
      <trkpt lat="47.76732" lon="-3.37224">
        <ele>18.5</ele>
        <time>2020-08-21T14:49:59.000Z</time>
      </trkpt>
      <trkpt lat="47.76731" lon="-3.37224">
        <ele>18.5</ele>
        <time>2020-08-21T14:50:00.000Z</time>
      </trkpt>
      <trkpt lat="47.7673" lon="-3.37225">
        <ele>18.5</ele>
        <time>2020-08-21T14:50:01.000Z</time>
      </trkpt>
      <trkpt lat="47.76729" lon="-3.37225">
        <ele>18.5</ele>
        <time>2020-08-21T14:50:02.000Z</time>
      </trkpt>
      <trkpt lat="47.76727" lon="-3.37226">
        <ele>18.5</ele>
        <time>2020-08-21T14:50:03.000Z</time>
      </trkpt>
      <trkpt lat="47.76726" lon="-3.37226">
        <ele>18.5</ele>
        <time>2020-08-21T14:50:04.000Z</time>
      </trkpt>
      <trkpt lat="47.76725" lon="-3.37226">
        <ele>18.5</ele>
        <time>2020-08-21T14:50:05.000Z</time>
      </trkpt>
      <trkpt lat="47.76724" lon="-3.37226">
        <ele>18.6</ele>
        <time>2020-08-21T14:50:06.000Z</time>
      </trkpt>
      <trkpt lat="47.76723" lon="-3.37227">
        <ele>18.6</ele>
        <time>2020-08-21T14:50:07.000Z</time>
      </trkpt>
      <trkpt lat="47.76722" lon="-3.37227">
        <ele>18.6</ele>
        <time>2020-08-21T14:50:08.000Z</time>
      </trkpt>
      <trkpt lat="47.76721" lon="-3.37227">
        <ele>18.6</ele>
        <time>2020-08-21T14:50:09.000Z</time>
      </trkpt>
      <trkpt lat="47.7672" lon="-3.37227">
        <ele>18.6</ele>
        <time>2020-08-21T14:50:10.000Z</time>
      </trkpt>
      <trkpt lat="47.76719" lon="-3.37227">
        <ele>18.6</ele>
        <time>2020-08-21T14:50:11.000Z</time>
      </trkpt>
      <trkpt lat="47.76717" lon="-3.37228">
        <ele>18.6</ele>
        <time>2020-08-21T14:50:12.000Z</time>
      </trkpt>
      <trkpt lat="47.76716" lon="-3.37228">
        <ele>18.6</ele>
        <time>2020-08-21T14:50:13.000Z</time>
      </trkpt>
      <trkpt lat="47.76715" lon="-3.37228">
        <ele>18.7</ele>
        <time>2020-08-21T14:50:14.000Z</time>
      </trkpt>
      <trkpt lat="47.76714" lon="-3.37228">
        <ele>18.7</ele>
        <time>2020-08-21T14:50:15.000Z</time>
      </trkpt>
      <trkpt lat="47.76713" lon="-3.37229">
        <ele>18.7</ele>
        <time>2020-08-21T14:50:16.000Z</time>
      </trkpt>
      <trkpt lat="47.76712" lon="-3.37229">
        <ele>18.7</ele>
        <time>2020-08-21T14:50:17.000Z</time>
      </trkpt>
      <trkpt lat="47.76711" lon="-3.37229">
        <ele>18.7</ele>
        <time>2020-08-21T14:50:18.000Z</time>
      </trkpt>
      <trkpt lat="47.7671" lon="-3.37229">
        <ele>18.7</ele>
        <time>2020-08-21T14:50:19.000Z</time>
      </trkpt>
      <trkpt lat="47.76709" lon="-3.37229">
        <ele>18.7</ele>
        <time>2020-08-21T14:50:20.000Z</time>
      </trkpt>
      <trkpt lat="47.76709" lon="-3.3723">
        <ele>18.7</ele>
        <time>2020-08-21T14:50:21.000Z</time>
      </trkpt>
      <trkpt lat="47.76708" lon="-3.3723">
        <ele>18.8</ele>
        <time>2020-08-21T14:50:22.000Z</time>
      </trkpt>
      <trkpt lat="47.76707" lon="-3.3723">
        <ele>18.8</ele>
        <time>2020-08-21T14:50:23.000Z</time>
      </trkpt>
      <trkpt lat="47.76707" lon="-3.3723">
        <ele>18.8</ele>
        <time>2020-08-21T14:50:24.000Z</time>
      </trkpt>
      <trkpt lat="47.76706" lon="-3.3723">
        <ele>18.8</ele>
        <time>2020-08-21T14:50:25.000Z</time>
      </trkpt>
      <trkpt lat="47.76706" lon="-3.3723">
        <ele>18.8</ele>
        <time>2020-08-21T14:50:26.000Z</time>
      </trkpt>
      <trkpt lat="47.76706" lon="-3.3723">
        <ele>18.8</ele>
        <time>2020-08-21T14:50:27.000Z</time>
      </trkpt>
      <trkpt lat="47.76706" lon="-3.3723">
        <ele>18.8</ele>
        <time>2020-08-21T14:50:28.000Z</time>
      </trkpt>
      <trkpt lat="47.76706" lon="-3.3723">
        <ele>18.8</ele>
        <time>2020-08-21T14:50:29.000Z</time>
      </trkpt>
      <trkpt lat="47.76706" lon="-3.3723">
        <ele>18.8</ele>
        <time>2020-08-21T14:50:30.000Z</time>
      </trkpt>
      <trkpt lat="47.76706" lon="-3.37231">
        <ele>18.8</ele>
        <time>2020-08-21T14:50:31.000Z</time>
      </trkpt>
      <trkpt lat="47.76706" lon="-3.37231">
        <ele>18.8</ele>
        <time>2020-08-21T14:50:32.000Z</time>
      </trkpt>
      <trkpt lat="47.76706" lon="-3.37231">
        <ele>18.8</ele>
        <time>2020-08-21T14:50:33.000Z</time>
      </trkpt>
      <trkpt lat="47.76706" lon="-3.37231">
        <ele>18.8</ele>
        <time>2020-08-21T14:50:34.000Z</time>
      </trkpt>
      <trkpt lat="47.76706" lon="-3.37231">
        <ele>18.8</ele>
        <time>2020-08-21T14:50:35.000Z</time>
      </trkpt>
      <trkpt lat="47.76706" lon="-3.37231">
        <ele>18.8</ele>
        <time>2020-08-21T14:50:36.000Z</time>
      </trkpt>
      <trkpt lat="47.76706" lon="-3.37231">
        <ele>18.8</ele>
        <time>2020-08-21T14:50:37.000Z</time>
      </trkpt>
      <trkpt lat="47.76706" lon="-3.37231">
        <ele>18.8</ele>
        <time>2020-08-21T14:50:38.000Z</time>
      </trkpt>
      <trkpt lat="47.76706" lon="-3.37231">
        <ele>18.8</ele>
        <time>2020-08-21T14:50:39.000Z</time>
      </trkpt>
      <trkpt lat="47.76706" lon="-3.37231">
        <ele>18.8</ele>
        <time>2020-08-21T14:50:40.000Z</time>
      </trkpt>
      <trkpt lat="47.76706" lon="-3.37232">
        <ele>18.8</ele>
        <time>2020-08-21T14:50:41.000Z</time>
      </trkpt>
      <trkpt lat="47.76705" lon="-3.37232">
        <ele>18.8</ele>
        <time>2020-08-21T14:50:42.000Z</time>
      </trkpt>
      <trkpt lat="47.76705" lon="-3.37232">
        <ele>18.8</ele>
        <time>2020-08-21T14:50:43.000Z</time>
      </trkpt>
      <trkpt lat="47.76705" lon="-3.37232">
        <ele>18.8</ele>
        <time>2020-08-21T14:50:44.000Z</time>
      </trkpt>
      <trkpt lat="47.76704" lon="-3.37233">
        <ele>18.9</ele>
        <time>2020-08-21T14:50:45.000Z</time>
      </trkpt>
      <trkpt lat="47.76704" lon="-3.37233">
        <ele>18.9</ele>
        <time>2020-08-21T14:50:46.000Z</time>
      </trkpt>
      <trkpt lat="47.76704" lon="-3.37234">
        <ele>18.9</ele>
        <time>2020-08-21T14:50:47.000Z</time>
      </trkpt>
      <trkpt lat="47.76703" lon="-3.37235">
        <ele>18.9</ele>
        <time>2020-08-21T14:50:48.000Z</time>
      </trkpt>
      <trkpt lat="47.76703" lon="-3.37235">
        <ele>18.9</ele>
        <time>2020-08-21T14:50:49.000Z</time>
      </trkpt>
      <trkpt lat="47.76702" lon="-3.37236">
        <ele>18.9</ele>
        <time>2020-08-21T14:50:50.000Z</time>
      </trkpt>
      <trkpt lat="47.76702" lon="-3.37237">
        <ele>18.9</ele>
        <time>2020-08-21T14:50:51.000Z</time>
      </trkpt>
      <trkpt lat="47.76702" lon="-3.37238">
        <ele>19</ele>
        <time>2020-08-21T14:50:52.000Z</time>
      </trkpt>
      <trkpt lat="47.76702" lon="-3.37239">
        <ele>19</ele>
        <time>2020-08-21T14:50:53.000Z</time>
      </trkpt>
      <trkpt lat="47.76702" lon="-3.3724">
        <ele>19</ele>
        <time>2020-08-21T14:50:54.000Z</time>
      </trkpt>
      <trkpt lat="47.76702" lon="-3.37242">
        <ele>19</ele>
        <time>2020-08-21T14:50:55.000Z</time>
      </trkpt>
      <trkpt lat="47.76702" lon="-3.37243">
        <ele>19</ele>
        <time>2020-08-21T14:50:56.000Z</time>
      </trkpt>
      <trkpt lat="47.76702" lon="-3.37244">
        <ele>19.1</ele>
        <time>2020-08-21T14:50:57.000Z</time>
      </trkpt>
      <trkpt lat="47.76703" lon="-3.37245">
        <ele>19.1</ele>
        <time>2020-08-21T14:50:58.000Z</time>
      </trkpt>
      <trkpt lat="47.76703" lon="-3.37246">
        <ele>19.1</ele>
        <time>2020-08-21T14:50:59.000Z</time>
      </trkpt>
      <trkpt lat="47.76704" lon="-3.37247">
        <ele>19.1</ele>
        <time>2020-08-21T14:51:00.000Z</time>
      </trkpt>
      <trkpt lat="47.76704" lon="-3.37247">
        <ele>19.1</ele>
        <time>2020-08-21T14:51:01.000Z</time>
      </trkpt>
      <trkpt lat="47.76704" lon="-3.37247">
        <ele>19.1</ele>
        <time>2020-08-21T14:51:02.000Z</time>
      </trkpt>
      <trkpt lat="47.76705" lon="-3.37247">
        <ele>19</ele>
        <time>2020-08-21T14:51:03.000Z</time>
      </trkpt>
      <trkpt lat="47.76705" lon="-3.37246">
        <ele>19</ele>
        <time>2020-08-21T14:51:04.000Z</time>
      </trkpt>
      <trkpt lat="47.76705" lon="-3.37245">
        <ele>19</ele>
        <time>2020-08-21T14:51:05.000Z</time>
      </trkpt>
      <trkpt lat="47.76705" lon="-3.37244">
        <ele>19</ele>
        <time>2020-08-21T14:51:06.000Z</time>
      </trkpt>
      <trkpt lat="47.76705" lon="-3.37243">
        <ele>19</ele>
        <time>2020-08-21T14:51:07.000Z</time>
      </trkpt>
      <trkpt lat="47.76705" lon="-3.37241">
        <ele>19</ele>
        <time>2020-08-21T14:51:08.000Z</time>
      </trkpt>
      <trkpt lat="47.76705" lon="-3.37241">
        <ele>19</ele>
        <time>2020-08-21T14:51:09.000Z</time>
      </trkpt>
      <trkpt lat="47.76705" lon="-3.3724">
        <ele>18.9</ele>
        <time>2020-08-21T14:51:10.000Z</time>
      </trkpt>
      <trkpt lat="47.76705" lon="-3.37239">
        <ele>18.9</ele>
        <time>2020-08-21T14:51:11.000Z</time>
      </trkpt>
      <trkpt lat="47.76704" lon="-3.37239">
        <ele>18.9</ele>
        <time>2020-08-21T14:51:12.000Z</time>
      </trkpt>
      <trkpt lat="47.76704" lon="-3.37238">
        <ele>18.9</ele>
        <time>2020-08-21T14:51:13.000Z</time>
      </trkpt>
      <trkpt lat="47.76704" lon="-3.37238">
        <ele>18.9</ele>
        <time>2020-08-21T14:51:14.000Z</time>
      </trkpt>
      <trkpt lat="47.76704" lon="-3.37238">
        <ele>18.9</ele>
        <time>2020-08-21T14:51:15.000Z</time>
      </trkpt>
      <trkpt lat="47.76704" lon="-3.37237">
        <ele>18.9</ele>
        <time>2020-08-21T14:51:16.000Z</time>
      </trkpt>
      <trkpt lat="47.76704" lon="-3.37237">
        <ele>18.9</ele>
        <time>2020-08-21T14:51:17.000Z</time>
      </trkpt>
      <trkpt lat="47.76704" lon="-3.37237">
        <ele>18.9</ele>
        <time>2020-08-21T14:51:18.000Z</time>
      </trkpt>
      <trkpt lat="47.76705" lon="-3.37238">
        <ele>18.9</ele>
        <time>2020-08-21T14:51:19.000Z</time>
      </trkpt>
      <trkpt lat="47.76705" lon="-3.37238">
        <ele>18.9</ele>
        <time>2020-08-21T14:51:20.000Z</time>
      </trkpt>
      <trkpt lat="47.76705" lon="-3.37238">
        <ele>18.9</ele>
        <time>2020-08-21T14:51:21.000Z</time>
      </trkpt>
      <trkpt lat="47.76706" lon="-3.37239">
        <ele>18.9</ele>
        <time>2020-08-21T14:51:22.000Z</time>
      </trkpt>
      <trkpt lat="47.76706" lon="-3.37239">
        <ele>18.9</ele>
        <time>2020-08-21T14:51:23.000Z</time>
      </trkpt>
      <trkpt lat="47.76707" lon="-3.3724">
        <ele>18.9</ele>
        <time>2020-08-21T14:51:24.000Z</time>
      </trkpt>
      <trkpt lat="47.76708" lon="-3.3724">
        <ele>18.9</ele>
        <time>2020-08-21T14:51:25.000Z</time>
      </trkpt>
      <trkpt lat="47.76708" lon="-3.3724">
        <ele>18.9</ele>
        <time>2020-08-21T14:51:26.000Z</time>
      </trkpt>
      <trkpt lat="47.76709" lon="-3.3724">
        <ele>18.9</ele>
        <time>2020-08-21T14:51:27.000Z</time>
      </trkpt>
      <trkpt lat="47.7671" lon="-3.37239">
        <ele>18.9</ele>
        <time>2020-08-21T14:51:28.000Z</time>
      </trkpt>
      <trkpt lat="47.7671" lon="-3.37239">
        <ele>18.8</ele>
        <time>2020-08-21T14:51:29.000Z</time>
      </trkpt>
      <trkpt lat="47.76711" lon="-3.37238">
        <ele>18.8</ele>
        <time>2020-08-21T14:51:30.000Z</time>
      </trkpt>
      <trkpt lat="47.76712" lon="-3.37237">
        <ele>18.8</ele>
        <time>2020-08-21T14:51:31.000Z</time>
      </trkpt>
      <trkpt lat="47.76713" lon="-3.37236">
        <ele>18.8</ele>
        <time>2020-08-21T14:51:32.000Z</time>
      </trkpt>
      <trkpt lat="47.76714" lon="-3.37236">
        <ele>18.7</ele>
        <time>2020-08-21T14:51:33.000Z</time>
      </trkpt>
      <trkpt lat="47.76714" lon="-3.37235">
        <ele>18.7</ele>
        <time>2020-08-21T14:51:34.000Z</time>
      </trkpt>
      <trkpt lat="47.76715" lon="-3.37235">
        <ele>18.7</ele>
        <time>2020-08-21T14:51:35.000Z</time>
      </trkpt>
      <trkpt lat="47.76716" lon="-3.37234">
        <ele>18.7</ele>
        <time>2020-08-21T14:51:36.000Z</time>
      </trkpt>
      <trkpt lat="47.76717" lon="-3.37234">
        <ele>18.7</ele>
        <time>2020-08-21T14:51:37.000Z</time>
      </trkpt>
      <trkpt lat="47.76719" lon="-3.37234">
        <ele>18.7</ele>
        <time>2020-08-21T14:51:38.000Z</time>
      </trkpt>
      <trkpt lat="47.7672" lon="-3.37233">
        <ele>18.6</ele>
        <time>2020-08-21T14:51:39.000Z</time>
      </trkpt>
      <trkpt lat="47.76721" lon="-3.37233">
        <ele>18.6</ele>
        <time>2020-08-21T14:51:40.000Z</time>
      </trkpt>
      <trkpt lat="47.76722" lon="-3.37233">
        <ele>18.6</ele>
        <time>2020-08-21T14:51:41.000Z</time>
      </trkpt>
      <trkpt lat="47.76723" lon="-3.37232">
        <ele>18.6</ele>
        <time>2020-08-21T14:51:42.000Z</time>
      </trkpt>
      <trkpt lat="47.76724" lon="-3.37232">
        <ele>18.6</ele>
        <time>2020-08-21T14:51:43.000Z</time>
      </trkpt>
      <trkpt lat="47.76725" lon="-3.37232">
        <ele>18.6</ele>
        <time>2020-08-21T14:51:44.000Z</time>
      </trkpt>
      <trkpt lat="47.76726" lon="-3.37232">
        <ele>18.5</ele>
        <time>2020-08-21T14:51:45.000Z</time>
      </trkpt>
      <trkpt lat="47.76727" lon="-3.37231">
        <ele>18.5</ele>
        <time>2020-08-21T14:51:46.000Z</time>
      </trkpt>
      <trkpt lat="47.76728" lon="-3.37231">
        <ele>18.5</ele>
        <time>2020-08-21T14:51:47.000Z</time>
      </trkpt>
      <trkpt lat="47.7673" lon="-3.37231">
        <ele>18.5</ele>
        <time>2020-08-21T14:51:48.000Z</time>
      </trkpt>
      <trkpt lat="47.76731" lon="-3.3723">
        <ele>18.5</ele>
        <time>2020-08-21T14:51:49.000Z</time>
      </trkpt>
      <trkpt lat="47.76732" lon="-3.3723">
        <ele>18.5</ele>
        <time>2020-08-21T14:51:50.000Z</time>
      </trkpt>
      <trkpt lat="47.76733" lon="-3.37229">
        <ele>18.5</ele>
        <time>2020-08-21T14:51:51.000Z</time>
      </trkpt>
      <trkpt lat="47.76734" lon="-3.37229">
        <ele>18.4</ele>
        <time>2020-08-21T14:51:52.000Z</time>
      </trkpt>
      <trkpt lat="47.76735" lon="-3.37228">
        <ele>18.4</ele>
        <time>2020-08-21T14:51:53.000Z</time>
      </trkpt>
      <trkpt lat="47.76737" lon="-3.37227">
        <ele>18.4</ele>
        <time>2020-08-21T14:51:54.000Z</time>
      </trkpt>
      <trkpt lat="47.76738" lon="-3.37227">
        <ele>18.4</ele>
        <time>2020-08-21T14:51:55.000Z</time>
      </trkpt>
      <trkpt lat="47.76739" lon="-3.37226">
        <ele>18.4</ele>
        <time>2020-08-21T14:51:56.000Z</time>
      </trkpt>
      <trkpt lat="47.7674" lon="-3.37225">
        <ele>18.4</ele>
        <time>2020-08-21T14:51:57.000Z</time>
      </trkpt>
      <trkpt lat="47.76741" lon="-3.37224">
        <ele>18.4</ele>
        <time>2020-08-21T14:51:58.000Z</time>
      </trkpt>
      <trkpt lat="47.76742" lon="-3.37224">
        <ele>18.4</ele>
        <time>2020-08-21T14:51:59.000Z</time>
      </trkpt>
      <trkpt lat="47.76744" lon="-3.37223">
        <ele>18.4</ele>
        <time>2020-08-21T14:52:00.000Z</time>
      </trkpt>
      <trkpt lat="47.76745" lon="-3.37222">
        <ele>18.4</ele>
        <time>2020-08-21T14:52:01.000Z</time>
      </trkpt>
      <trkpt lat="47.76746" lon="-3.37221">
        <ele>18.4</ele>
        <time>2020-08-21T14:52:02.000Z</time>
      </trkpt>
      <trkpt lat="47.76747" lon="-3.3722">
        <ele>18.4</ele>
        <time>2020-08-21T14:52:03.000Z</time>
      </trkpt>
      <trkpt lat="47.76748" lon="-3.37219">
        <ele>18.4</ele>
        <time>2020-08-21T14:52:04.000Z</time>
      </trkpt>
      <trkpt lat="47.76749" lon="-3.37219">
        <ele>18.4</ele>
        <time>2020-08-21T14:52:05.000Z</time>
      </trkpt>
      <trkpt lat="47.7675" lon="-3.37218">
        <ele>18.4</ele>
        <time>2020-08-21T14:52:06.000Z</time>
      </trkpt>
      <trkpt lat="47.7675" lon="-3.37217">
        <ele>18.4</ele>
        <time>2020-08-21T14:52:07.000Z</time>
      </trkpt>
      <trkpt lat="47.76751" lon="-3.37216">
        <ele>18.3</ele>
        <time>2020-08-21T14:52:08.000Z</time>
      </trkpt>
      <trkpt lat="47.76752" lon="-3.37215">
        <ele>18.2</ele>
        <time>2020-08-21T14:52:09.000Z</time>
      </trkpt>
      <trkpt lat="47.76753" lon="-3.37215">
        <ele>18.1</ele>
        <time>2020-08-21T14:52:10.000Z</time>
      </trkpt>
      <trkpt lat="47.76754" lon="-3.37214">
        <ele>18.1</ele>
        <time>2020-08-21T14:52:11.000Z</time>
      </trkpt>
      <trkpt lat="47.76755" lon="-3.37213">
        <ele>18</ele>
        <time>2020-08-21T14:52:12.000Z</time>
      </trkpt>
      <trkpt lat="47.76757" lon="-3.37212">
        <ele>17.9</ele>
        <time>2020-08-21T14:52:13.000Z</time>
      </trkpt>
      <trkpt lat="47.76758" lon="-3.37212">
        <ele>17.8</ele>
        <time>2020-08-21T14:52:14.000Z</time>
      </trkpt>
      <trkpt lat="47.76759" lon="-3.37211">
        <ele>17.6</ele>
        <time>2020-08-21T14:52:15.000Z</time>
      </trkpt>
      <trkpt lat="47.76761" lon="-3.37211">
        <ele>17.5</ele>
        <time>2020-08-21T14:52:16.000Z</time>
      </trkpt>
      <trkpt lat="47.76763" lon="-3.3721">
        <ele>17.4</ele>
        <time>2020-08-21T14:52:17.000Z</time>
      </trkpt>
      <trkpt lat="47.76764" lon="-3.3721">
        <ele>17.2</ele>
        <time>2020-08-21T14:52:18.000Z</time>
      </trkpt>
      <trkpt lat="47.76766" lon="-3.37209">
        <ele>17.1</ele>
        <time>2020-08-21T14:52:19.000Z</time>
      </trkpt>
      <trkpt lat="47.76767" lon="-3.37209">
        <ele>17</ele>
        <time>2020-08-21T14:52:20.000Z</time>
      </trkpt>
      <trkpt lat="47.76768" lon="-3.37209">
        <ele>16.9</ele>
        <time>2020-08-21T14:52:21.000Z</time>
      </trkpt>
      <trkpt lat="47.76769" lon="-3.37208">
        <ele>16.8</ele>
        <time>2020-08-21T14:52:22.000Z</time>
      </trkpt>
      <trkpt lat="47.7677" lon="-3.37208">
        <ele>16.7</ele>
        <time>2020-08-21T14:52:23.000Z</time>
      </trkpt>
      <trkpt lat="47.76771" lon="-3.37208">
        <ele>16.6</ele>
        <time>2020-08-21T14:52:24.000Z</time>
      </trkpt>
      <trkpt lat="47.76772" lon="-3.37208">
        <ele>16.5</ele>
        <time>2020-08-21T14:52:25.000Z</time>
      </trkpt>
      <trkpt lat="47.76773" lon="-3.37207">
        <ele>16.4</ele>
        <time>2020-08-21T14:52:26.000Z</time>
      </trkpt>
      <trkpt lat="47.76774" lon="-3.37207">
        <ele>16.3</ele>
        <time>2020-08-21T14:52:27.000Z</time>
      </trkpt>
      <trkpt lat="47.76776" lon="-3.37207">
        <ele>16.2</ele>
        <time>2020-08-21T14:52:28.000Z</time>
      </trkpt>
      <trkpt lat="47.76777" lon="-3.37207">
        <ele>16.1</ele>
        <time>2020-08-21T14:52:29.000Z</time>
      </trkpt>
      <trkpt lat="47.76778" lon="-3.37206">
        <ele>16</ele>
        <time>2020-08-21T14:52:30.000Z</time>
      </trkpt>
      <trkpt lat="47.76779" lon="-3.37206">
        <ele>15.9</ele>
        <time>2020-08-21T14:52:31.000Z</time>
      </trkpt>
      <trkpt lat="47.76781" lon="-3.37205">
        <ele>15.7</ele>
        <time>2020-08-21T14:52:32.000Z</time>
      </trkpt>
      <trkpt lat="47.76782" lon="-3.37204">
        <ele>15.6</ele>
        <time>2020-08-21T14:52:33.000Z</time>
      </trkpt>
      <trkpt lat="47.76783" lon="-3.37203">
        <ele>15.5</ele>
        <time>2020-08-21T14:52:34.000Z</time>
      </trkpt>
      <trkpt lat="47.76784" lon="-3.37202">
        <ele>15.4</ele>
        <time>2020-08-21T14:52:35.000Z</time>
      </trkpt>
      <trkpt lat="47.76785" lon="-3.372">
        <ele>15.3</ele>
        <time>2020-08-21T14:52:36.000Z</time>
      </trkpt>
      <trkpt lat="47.76786" lon="-3.37199">
        <ele>15.2</ele>
        <time>2020-08-21T14:52:37.000Z</time>
      </trkpt>
      <trkpt lat="47.76787" lon="-3.37197">
        <ele>15.1</ele>
        <time>2020-08-21T14:52:38.000Z</time>
      </trkpt>
      <trkpt lat="47.76788" lon="-3.37196">
        <ele>15</ele>
        <time>2020-08-21T14:52:39.000Z</time>
      </trkpt>
      <trkpt lat="47.76789" lon="-3.37194">
        <ele>14.9</ele>
        <time>2020-08-21T14:52:40.000Z</time>
      </trkpt>
      <trkpt lat="47.7679" lon="-3.37193">
        <ele>14.8</ele>
        <time>2020-08-21T14:52:41.000Z</time>
      </trkpt>
      <trkpt lat="47.76791" lon="-3.37191">
        <ele>14.8</ele>
        <time>2020-08-21T14:52:42.000Z</time>
      </trkpt>
      <trkpt lat="47.76791" lon="-3.3719">
        <ele>14.7</ele>
        <time>2020-08-21T14:52:43.000Z</time>
      </trkpt>
      <trkpt lat="47.76792" lon="-3.37189">
        <ele>14.6</ele>
        <time>2020-08-21T14:52:44.000Z</time>
      </trkpt>
      <trkpt lat="47.76792" lon="-3.37188">
        <ele>14.6</ele>
        <time>2020-08-21T14:52:45.000Z</time>
      </trkpt>
      <trkpt lat="47.76793" lon="-3.37187">
        <ele>14.5</ele>
        <time>2020-08-21T14:52:46.000Z</time>
      </trkpt>
      <trkpt lat="47.76794" lon="-3.37186">
        <ele>14.4</ele>
        <time>2020-08-21T14:52:47.000Z</time>
      </trkpt>
      <trkpt lat="47.76794" lon="-3.37185">
        <ele>14.3</ele>
        <time>2020-08-21T14:52:48.000Z</time>
      </trkpt>
      <trkpt lat="47.76795" lon="-3.37184">
        <ele>14.3</ele>
        <time>2020-08-21T14:52:49.000Z</time>
      </trkpt>
      <trkpt lat="47.76796" lon="-3.37183">
        <ele>14.2</ele>
        <time>2020-08-21T14:52:50.000Z</time>
      </trkpt>
      <trkpt lat="47.76797" lon="-3.37182">
        <ele>14.1</ele>
        <time>2020-08-21T14:52:51.000Z</time>
      </trkpt>
      <trkpt lat="47.76798" lon="-3.37181">
        <ele>14</ele>
        <time>2020-08-21T14:52:52.000Z</time>
      </trkpt>
      <trkpt lat="47.76798" lon="-3.3718">
        <ele>13.9</ele>
        <time>2020-08-21T14:52:53.000Z</time>
      </trkpt>
      <trkpt lat="47.76799" lon="-3.37179">
        <ele>13.8</ele>
        <time>2020-08-21T14:52:54.000Z</time>
      </trkpt>
      <trkpt lat="47.768" lon="-3.37178">
        <ele>13.7</ele>
        <time>2020-08-21T14:52:55.000Z</time>
      </trkpt>
      <trkpt lat="47.76801" lon="-3.37177">
        <ele>13.6</ele>
        <time>2020-08-21T14:52:56.000Z</time>
      </trkpt>
      <trkpt lat="47.76802" lon="-3.37176">
        <ele>13.5</ele>
        <time>2020-08-21T14:52:57.000Z</time>
      </trkpt>
      <trkpt lat="47.76803" lon="-3.37175">
        <ele>13.3</ele>
        <time>2020-08-21T14:52:58.000Z</time>
      </trkpt>
      <trkpt lat="47.76805" lon="-3.37174">
        <ele>13.2</ele>
        <time>2020-08-21T14:52:59.000Z</time>
      </trkpt>
      <trkpt lat="47.76806" lon="-3.37173">
        <ele>13.1</ele>
        <time>2020-08-21T14:53:00.000Z</time>
      </trkpt>
      <trkpt lat="47.76807" lon="-3.37172">
        <ele>12.9</ele>
        <time>2020-08-21T14:53:01.000Z</time>
      </trkpt>
      <trkpt lat="47.76808" lon="-3.37171">
        <ele>12.8</ele>
        <time>2020-08-21T14:53:02.000Z</time>
      </trkpt>
      <trkpt lat="47.76809" lon="-3.3717">
        <ele>12.7</ele>
        <time>2020-08-21T14:53:03.000Z</time>
      </trkpt>
      <trkpt lat="47.7681" lon="-3.37169">
        <ele>12.6</ele>
        <time>2020-08-21T14:53:04.000Z</time>
      </trkpt>
      <trkpt lat="47.76811" lon="-3.37168">
        <ele>12.4</ele>
        <time>2020-08-21T14:53:05.000Z</time>
      </trkpt>
      <trkpt lat="47.76812" lon="-3.37167">
        <ele>12.3</ele>
        <time>2020-08-21T14:53:06.000Z</time>
      </trkpt>
      <trkpt lat="47.76813" lon="-3.37167">
        <ele>12.2</ele>
        <time>2020-08-21T14:53:07.000Z</time>
      </trkpt>
      <trkpt lat="47.76814" lon="-3.37166">
        <ele>12.1</ele>
        <time>2020-08-21T14:53:08.000Z</time>
      </trkpt>
      <trkpt lat="47.76814" lon="-3.37166">
        <ele>12</ele>
        <time>2020-08-21T14:53:09.000Z</time>
      </trkpt>
      <trkpt lat="47.76815" lon="-3.37166">
        <ele>12</ele>
        <time>2020-08-21T14:53:10.000Z</time>
      </trkpt>
      <trkpt lat="47.76815" lon="-3.37166">
        <ele>11.9</ele>
        <time>2020-08-21T14:53:11.000Z</time>
      </trkpt>
      <trkpt lat="47.76816" lon="-3.37166">
        <ele>11.8</ele>
        <time>2020-08-21T14:53:12.000Z</time>
      </trkpt>
      <trkpt lat="47.76817" lon="-3.37166">
        <ele>11.7</ele>
        <time>2020-08-21T14:53:13.000Z</time>
      </trkpt>
      <trkpt lat="47.76818" lon="-3.37166">
        <ele>11.6</ele>
        <time>2020-08-21T14:53:14.000Z</time>
      </trkpt>
      <trkpt lat="47.76819" lon="-3.37166">
        <ele>11.6</ele>
        <time>2020-08-21T14:53:15.000Z</time>
      </trkpt>
      <trkpt lat="47.76819" lon="-3.37166">
        <ele>11.5</ele>
        <time>2020-08-21T14:53:16.000Z</time>
      </trkpt>
      <trkpt lat="47.7682" lon="-3.37167">
        <ele>11.4</ele>
        <time>2020-08-21T14:53:17.000Z</time>
      </trkpt>
      <trkpt lat="47.7682" lon="-3.37167">
        <ele>11.4</ele>
        <time>2020-08-21T14:53:18.000Z</time>
      </trkpt>
      <trkpt lat="47.76821" lon="-3.37167">
        <ele>11.4</ele>
        <time>2020-08-21T14:53:19.000Z</time>
      </trkpt>
      <trkpt lat="47.76821" lon="-3.37167">
        <ele>11.3</ele>
        <time>2020-08-21T14:53:20.000Z</time>
      </trkpt>
      <trkpt lat="47.76822" lon="-3.37168">
        <ele>11.3</ele>
        <time>2020-08-21T14:53:21.000Z</time>
      </trkpt>
      <trkpt lat="47.76822" lon="-3.37168">
        <ele>11.3</ele>
        <time>2020-08-21T14:53:22.000Z</time>
      </trkpt>
      <trkpt lat="47.76822" lon="-3.37169">
        <ele>11.2</ele>
        <time>2020-08-21T14:53:23.000Z</time>
      </trkpt>
      <trkpt lat="47.76823" lon="-3.37169">
        <ele>11.2</ele>
        <time>2020-08-21T14:53:24.000Z</time>
      </trkpt>
      <trkpt lat="47.76823" lon="-3.37169">
        <ele>11.1</ele>
        <time>2020-08-21T14:53:25.000Z</time>
      </trkpt>
      <trkpt lat="47.76824" lon="-3.37169">
        <ele>11.1</ele>
        <time>2020-08-21T14:53:26.000Z</time>
      </trkpt>
      <trkpt lat="47.76824" lon="-3.37168">
        <ele>11</ele>
        <time>2020-08-21T14:53:27.000Z</time>
      </trkpt>
      <trkpt lat="47.76825" lon="-3.37168">
        <ele>10.9</ele>
        <time>2020-08-21T14:53:28.000Z</time>
      </trkpt>
      <trkpt lat="47.76825" lon="-3.37168">
        <ele>10.9</ele>
        <time>2020-08-21T14:53:29.000Z</time>
      </trkpt>
      <trkpt lat="47.76826" lon="-3.37168">
        <ele>10.8</ele>
        <time>2020-08-21T14:53:30.000Z</time>
      </trkpt>
      <trkpt lat="47.76827" lon="-3.37168">
        <ele>10.8</ele>
        <time>2020-08-21T14:53:31.000Z</time>
      </trkpt>
    </trkseg>
  </trk>
</gpx>